<?xml version='1.0' encoding='UTF-8'?><gpx version="1.1" creator="JPX - https://github.com/jenetics/jpx" xmlns="http://www.topografix.com/GPX/1/1"><trk><trkseg><trkpt lat="41.1382315" lon="9.4774085"><ele>27.0</ele><time>2026-05-02T07:37:36.679Z</time></trkpt><trkpt lat="41.1382718" lon="9.4773441"><ele>27.0</ele><time>2026-05-02T07:37:44.679Z</time></trkpt><trkpt lat="41.1381894" lon="9.4774267"><ele>27.0</ele><time>2026-05-02T07:38:07.679Z</time></trkpt><trkpt lat="41.1382457" lon="9.4773719"><ele>27.0</ele><time>2026-05-02T07:38:11.679Z</time></trkpt><trkpt lat="41.1382182" lon="9.4774575"><ele>27.0</ele><time>2026-05-02T07:39:20.679Z</time></trkpt><trkpt lat="41.1381628" lon="9.4775154"><ele>27.0</ele><time>2026-05-02T07:40:27.679Z</time></trkpt><trkpt lat="41.1381767" lon="9.4774331"><ele>27.0</ele><time>2026-05-02T07:40:43.679Z</time></trkpt><trkpt lat="41.1382278" lon="9.4773798"><ele>27.0</ele><time>2026-05-02T07:41:41.678Z</time></trkpt><trkpt lat="41.1381868" lon="9.4774585"><ele>27.0</ele><time>2026-05-02T07:43:08.678Z</time></trkpt><trkpt lat="41.1382299" lon="9.4773968"><ele>27.0</ele><time>2026-05-02T07:43:25.678Z</time></trkpt><trkpt lat="41.1382929" lon="9.4773988"><ele>27.0</ele><time>2026-05-02T07:45:32.678Z</time></trkpt><trkpt lat="41.1382575" lon="9.4774819"><ele>27.0</ele><time>2026-05-02T07:46:26.677Z</time></trkpt><trkpt lat="41.1382059" lon="9.4775336"><ele>27.0</ele><time>2026-05-02T07:46:41.677Z</time></trkpt><trkpt lat="41.1382501" lon="9.4774272"><ele>27.0</ele><time>2026-05-02T07:47:32.677Z</time></trkpt><trkpt lat="41.1382161" lon="9.4773147"><ele>26.833333333333332</ele><time>2026-05-02T07:56:10.675Z</time></trkpt><trkpt lat="41.1381735" lon="9.4774016"><ele>26.666666666666664</ele><time>2026-05-02T07:57:27.674Z</time></trkpt><trkpt lat="41.1381616" lon="9.4775003"><ele>26.5</ele><time>2026-05-02T07:57:37.674Z</time></trkpt><trkpt lat="41.13818" lon="9.4775833"><ele>26.333333333333332</ele><time>2026-05-02T07:58:41.674Z</time></trkpt><trkpt lat="41.13812" lon="9.47764"><ele>26.166666666666664</ele><time>2026-05-02T07:58:43.674Z</time></trkpt><trkpt lat="41.1380167" lon="9.4776867"><ele>26.0</ele><time>2026-05-02T07:58:47.674Z</time></trkpt><trkpt lat="41.1379283" lon="9.4776333"><ele>26.0</ele><time>2026-05-02T07:58:49.674Z</time></trkpt><trkpt lat="41.1378717" lon="9.4775967"><ele>26.0</ele><time>2026-05-02T07:58:50.674Z</time></trkpt><trkpt lat="41.1378117" lon="9.4775633"><ele>26.0</ele><time>2026-05-02T07:58:51.674Z</time></trkpt><trkpt lat="41.137745" lon="9.4775283"><ele>26.0</ele><time>2026-05-02T07:58:52.674Z</time></trkpt><trkpt lat="41.1376917" lon="9.47748"><ele>26.0</ele><time>2026-05-02T07:58:53.674Z</time></trkpt><trkpt lat="41.13764" lon="9.47743"><ele>26.0</ele><time>2026-05-02T07:58:54.674Z</time></trkpt><trkpt lat="41.1375467" lon="9.4773733"><ele>26.0</ele><time>2026-05-02T07:58:56.674Z</time></trkpt><trkpt lat="41.1374883" lon="9.4773383"><ele>26.0</ele><time>2026-05-02T07:58:58.674Z</time></trkpt><trkpt lat="41.1374067" lon="9.4773333"><ele>26.0</ele><time>2026-05-02T07:59:00.674Z</time></trkpt><trkpt lat="41.1372817" lon="9.47738"><ele>26.0</ele><time>2026-05-02T07:59:02.674Z</time></trkpt><trkpt lat="41.1372067" lon="9.4774117"><ele>26.0</ele><time>2026-05-02T07:59:03.674Z</time></trkpt><trkpt lat="41.1371083" lon="9.4774483"><ele>26.0</ele><time>2026-05-02T07:59:04.674Z</time></trkpt><trkpt lat="41.13702" lon="9.4774817"><ele>25.666666666666664</ele><time>2026-05-02T07:59:05.674Z</time></trkpt><trkpt lat="41.13693" lon="9.4775167"><ele>25.333333333333332</ele><time>2026-05-02T07:59:06.674Z</time></trkpt><trkpt lat="41.13685" lon="9.4775517"><ele>25.0</ele><time>2026-05-02T07:59:07.674Z</time></trkpt><trkpt lat="41.136765" lon="9.4775867"><ele>24.666666666666664</ele><time>2026-05-02T07:59:08.674Z</time></trkpt><trkpt lat="41.136685" lon="9.47762"><ele>24.333333333333332</ele><time>2026-05-02T07:59:09.674Z</time></trkpt><trkpt lat="41.1366083" lon="9.4776567"><ele>24.0</ele><time>2026-05-02T07:59:10.674Z</time></trkpt><trkpt lat="41.1365333" lon="9.4776933"><ele>25.0</ele><time>2026-05-02T07:59:11.674Z</time></trkpt><trkpt lat="41.1364633" lon="9.4777167"><ele>26.0</ele><time>2026-05-02T07:59:12.674Z</time></trkpt><trkpt lat="41.1363917" lon="9.4777417"><ele>27.0</ele><time>2026-05-02T07:59:13.674Z</time></trkpt><trkpt lat="41.1363217" lon="9.4777717"><ele>28.0</ele><time>2026-05-02T07:59:14.674Z</time></trkpt><trkpt lat="41.1362583" lon="9.4778"><ele>29.0</ele><time>2026-05-02T07:59:15.674Z</time></trkpt><trkpt lat="41.136155" lon="9.47784"><ele>30.0</ele><time>2026-05-02T07:59:17.674Z</time></trkpt><trkpt lat="41.1360833" lon="9.4778533"><ele>30.0</ele><time>2026-05-02T07:59:19.674Z</time></trkpt><trkpt lat="41.1360217" lon="9.4778767"><ele>30.0</ele><time>2026-05-02T07:59:45.674Z</time></trkpt><trkpt lat="41.13595" lon="9.4778133"><ele>30.0</ele><time>2026-05-02T07:59:47.674Z</time></trkpt><trkpt lat="41.1358967" lon="9.4777633"><ele>30.0</ele><time>2026-05-02T07:59:48.674Z</time></trkpt><trkpt lat="41.1358217" lon="9.4777167"><ele>30.0</ele><time>2026-05-02T07:59:49.674Z</time></trkpt><trkpt lat="41.1357383" lon="9.4776617"><ele>30.0</ele><time>2026-05-02T07:59:50.674Z</time></trkpt><trkpt lat="41.13565" lon="9.4776017"><ele>30.4</ele><time>2026-05-02T07:59:51.674Z</time></trkpt><trkpt lat="41.13557" lon="9.4775483"><ele>30.8</ele><time>2026-05-02T07:59:52.674Z</time></trkpt><trkpt lat="41.1355033" lon="9.4774983"><ele>31.200000000000003</ele><time>2026-05-02T07:59:53.674Z</time></trkpt><trkpt lat="41.135435" lon="9.477455"><ele>31.6</ele><time>2026-05-02T07:59:54.674Z</time></trkpt><trkpt lat="41.13534" lon="9.4773917"><ele>32.0</ele><time>2026-05-02T07:59:56.674Z</time></trkpt><trkpt lat="41.13523" lon="9.4773017"><ele>32.0</ele><time>2026-05-02T08:00:13.673Z</time></trkpt><trkpt lat="41.1351383" lon="9.4772817"><ele>32.0</ele><time>2026-05-02T08:00:15.673Z</time></trkpt><trkpt lat="41.1350117" lon="9.4772267"><ele>32.0</ele><time>2026-05-02T08:00:17.673Z</time></trkpt><trkpt lat="41.13492" lon="9.4771767"><ele>32.0</ele><time>2026-05-02T08:00:18.673Z</time></trkpt><trkpt lat="41.1348183" lon="9.47713"><ele>32.0</ele><time>2026-05-02T08:00:19.673Z</time></trkpt><trkpt lat="41.134705" lon="9.477085"><ele>30.0</ele><time>2026-05-02T08:00:20.673Z</time></trkpt><trkpt lat="41.1345933" lon="9.47705"><ele>28.0</ele><time>2026-05-02T08:00:21.674Z</time></trkpt><trkpt lat="41.13448" lon="9.4770283"><ele>26.0</ele><time>2026-05-02T08:00:22.673Z</time></trkpt><trkpt lat="41.1343717" lon="9.4770017"><ele>24.0</ele><time>2026-05-02T08:00:23.673Z</time></trkpt><trkpt lat="41.13426" lon="9.476975"><ele>24.0</ele><time>2026-05-02T08:00:24.673Z</time></trkpt><trkpt lat="41.134165" lon="9.476945"><ele>24.0</ele><time>2026-05-02T08:00:25.673Z</time></trkpt><trkpt lat="41.134065" lon="9.4769233"><ele>24.0</ele><time>2026-05-02T08:00:26.673Z</time></trkpt><trkpt lat="41.133965" lon="9.4769"><ele>24.0</ele><time>2026-05-02T08:00:27.673Z</time></trkpt><trkpt lat="41.1338783" lon="9.4768833"><ele>24.0</ele><time>2026-05-02T08:00:28.673Z</time></trkpt><trkpt lat="41.133795" lon="9.476865"><ele>23.5</ele><time>2026-05-02T08:00:29.673Z</time></trkpt><trkpt lat="41.1337217" lon="9.4768533"><ele>23.0</ele><time>2026-05-02T08:00:30.673Z</time></trkpt><trkpt lat="41.1336567" lon="9.4768517"><ele>22.5</ele><time>2026-05-02T08:00:31.673Z</time></trkpt><trkpt lat="41.133595" lon="9.4768683"><ele>22.0</ele><time>2026-05-02T08:00:32.673Z</time></trkpt><trkpt lat="41.133535" lon="9.476895"><ele>21.5</ele><time>2026-05-02T08:00:33.673Z</time></trkpt><trkpt lat="41.1334733" lon="9.4769933"><ele>21.0</ele><time>2026-05-02T08:00:35.673Z</time></trkpt><trkpt lat="41.1334717" lon="9.4771483"><ele>21.0</ele><time>2026-05-02T08:00:37.673Z</time></trkpt><trkpt lat="41.1334867" lon="9.47725"><ele>21.0</ele><time>2026-05-02T08:00:38.673Z</time></trkpt><trkpt lat="41.1335067" lon="9.477355"><ele>21.0</ele><time>2026-05-02T08:00:39.673Z</time></trkpt><trkpt lat="41.1335233" lon="9.4774683"><ele>21.0</ele><time>2026-05-02T08:00:40.673Z</time></trkpt><trkpt lat="41.1335183" lon="9.4775933"><ele>21.0</ele><time>2026-05-02T08:00:41.673Z</time></trkpt><trkpt lat="41.13351" lon="9.4777267"><ele>21.0</ele><time>2026-05-02T08:00:42.673Z</time></trkpt><trkpt lat="41.1334967" lon="9.4778633"><ele>22.0</ele><time>2026-05-02T08:00:43.673Z</time></trkpt><trkpt lat="41.13348" lon="9.47801"><ele>23.0</ele><time>2026-05-02T08:00:44.673Z</time></trkpt><trkpt lat="41.1334567" lon="9.47816"><ele>24.0</ele><time>2026-05-02T08:00:45.673Z</time></trkpt><trkpt lat="41.1334283" lon="9.4783167"><ele>25.0</ele><time>2026-05-02T08:00:46.673Z</time></trkpt><trkpt lat="41.1333867" lon="9.478485"><ele>25.0</ele><time>2026-05-02T08:00:47.673Z</time></trkpt><trkpt lat="41.1333467" lon="9.4786583"><ele>25.0</ele><time>2026-05-02T08:00:48.673Z</time></trkpt><trkpt lat="41.13331" lon="9.4788567"><ele>25.0</ele><time>2026-05-02T08:00:49.674Z</time></trkpt><trkpt lat="41.1332733" lon="9.4790483"><ele>25.0</ele><time>2026-05-02T08:00:50.673Z</time></trkpt><trkpt lat="41.1332483" lon="9.4792467"><ele>25.0</ele><time>2026-05-02T08:00:51.673Z</time></trkpt><trkpt lat="41.1332383" lon="9.4794317"><ele>25.0</ele><time>2026-05-02T08:00:52.673Z</time></trkpt><trkpt lat="41.1332117" lon="9.4796067"><ele>25.0</ele><time>2026-05-02T08:00:53.673Z</time></trkpt><trkpt lat="41.13318" lon="9.4797933"><ele>25.0</ele><time>2026-05-02T08:00:54.673Z</time></trkpt><trkpt lat="41.133145" lon="9.4799833"><ele>23.5</ele><time>2026-05-02T08:00:55.673Z</time></trkpt><trkpt lat="41.1331167" lon="9.4801667"><ele>22.0</ele><time>2026-05-02T08:00:56.673Z</time></trkpt><trkpt lat="41.1330867" lon="9.48034"><ele>20.5</ele><time>2026-05-02T08:00:57.673Z</time></trkpt><trkpt lat="41.1330583" lon="9.480515"><ele>19.0</ele><time>2026-05-02T08:00:58.673Z</time></trkpt><trkpt lat="41.1330233" lon="9.4806933"><ele>19.0</ele><time>2026-05-02T08:00:59.673Z</time></trkpt><trkpt lat="41.1329933" lon="9.4808767"><ele>19.0</ele><time>2026-05-02T08:01:00.674Z</time></trkpt><trkpt lat="41.1329633" lon="9.4810667"><ele>19.0</ele><time>2026-05-02T08:01:01.673Z</time></trkpt><trkpt lat="41.1329417" lon="9.4812567"><ele>19.0</ele><time>2026-05-02T08:01:02.673Z</time></trkpt><trkpt lat="41.13292" lon="9.481445"><ele>19.5</ele><time>2026-05-02T08:01:03.673Z</time></trkpt><trkpt lat="41.1328933" lon="9.48163"><ele>20.0</ele><time>2026-05-02T08:01:04.673Z</time></trkpt><trkpt lat="41.13287" lon="9.4818233"><ele>20.5</ele><time>2026-05-02T08:01:05.673Z</time></trkpt><trkpt lat="41.1328483" lon="9.4820233"><ele>21.0</ele><time>2026-05-02T08:01:06.673Z</time></trkpt><trkpt lat="41.1328267" lon="9.482225"><ele>22.0</ele><time>2026-05-02T08:01:07.673Z</time></trkpt><trkpt lat="41.1327983" lon="9.4824283"><ele>23.0</ele><time>2026-05-02T08:01:08.673Z</time></trkpt><trkpt lat="41.1327717" lon="9.4826317"><ele>24.0</ele><time>2026-05-02T08:01:09.673Z</time></trkpt><trkpt lat="41.1327533" lon="9.48283"><ele>24.75</ele><time>2026-05-02T08:01:10.674Z</time></trkpt><trkpt lat="41.1327333" lon="9.4830317"><ele>25.5</ele><time>2026-05-02T08:01:11.673Z</time></trkpt><trkpt lat="41.1327133" lon="9.4832183"><ele>26.25</ele><time>2026-05-02T08:01:12.673Z</time></trkpt><trkpt lat="41.132685" lon="9.4834067"><ele>27.0</ele><time>2026-05-02T08:01:13.673Z</time></trkpt><trkpt lat="41.132665" lon="9.4835883"><ele>27.75</ele><time>2026-05-02T08:01:14.673Z</time></trkpt><trkpt lat="41.1326483" lon="9.4837683"><ele>28.5</ele><time>2026-05-02T08:01:15.673Z</time></trkpt><trkpt lat="41.13264" lon="9.4839467"><ele>29.25</ele><time>2026-05-02T08:01:16.673Z</time></trkpt><trkpt lat="41.1326367" lon="9.4841317"><ele>30.0</ele><time>2026-05-02T08:01:17.673Z</time></trkpt><trkpt lat="41.1326383" lon="9.4843233"><ele>30.0</ele><time>2026-05-02T08:01:18.673Z</time></trkpt><trkpt lat="41.13264" lon="9.4845117"><ele>30.0</ele><time>2026-05-02T08:01:19.673Z</time></trkpt><trkpt lat="41.1326833" lon="9.4846883"><ele>30.0</ele><time>2026-05-02T08:01:20.673Z</time></trkpt><trkpt lat="41.13269" lon="9.4848767"><ele>30.0</ele><time>2026-05-02T08:01:21.673Z</time></trkpt><trkpt lat="41.1326833" lon="9.4850617"><ele>30.5</ele><time>2026-05-02T08:01:22.673Z</time></trkpt><trkpt lat="41.1326767" lon="9.48524"><ele>31.0</ele><time>2026-05-02T08:01:23.673Z</time></trkpt><trkpt lat="41.1326683" lon="9.48542"><ele>31.5</ele><time>2026-05-02T08:01:24.673Z</time></trkpt><trkpt lat="41.1326683" lon="9.4856033"><ele>32.0</ele><time>2026-05-02T08:01:25.673Z</time></trkpt><trkpt lat="41.1326733" lon="9.4857883"><ele>32.5</ele><time>2026-05-02T08:01:26.673Z</time></trkpt><trkpt lat="41.1326933" lon="9.485965"><ele>33.0</ele><time>2026-05-02T08:01:27.673Z</time></trkpt><trkpt lat="41.1327117" lon="9.4861517"><ele>33.5</ele><time>2026-05-02T08:01:28.673Z</time></trkpt><trkpt lat="41.13275" lon="9.4863317"><ele>34.0</ele><time>2026-05-02T08:01:29.673Z</time></trkpt><trkpt lat="41.1327983" lon="9.4865117"><ele>35.5</ele><time>2026-05-02T08:01:30.673Z</time></trkpt><trkpt lat="41.132855" lon="9.4866967"><ele>37.0</ele><time>2026-05-02T08:01:31.673Z</time></trkpt><trkpt lat="41.13293" lon="9.4868583"><ele>38.5</ele><time>2026-05-02T08:01:32.673Z</time></trkpt><trkpt lat="41.1330067" lon="9.4870217"><ele>40.0</ele><time>2026-05-02T08:01:33.673Z</time></trkpt><trkpt lat="41.1330933" lon="9.48719"><ele>42.333333333333336</ele><time>2026-05-02T08:01:34.673Z</time></trkpt><trkpt lat="41.13318" lon="9.4873583"><ele>44.666666666666664</ele><time>2026-05-02T08:01:35.673Z</time></trkpt><trkpt lat="41.1332617" lon="9.487535"><ele>47.0</ele><time>2026-05-02T08:01:36.673Z</time></trkpt><trkpt lat="41.1333317" lon="9.4877183"><ele>47.0</ele><time>2026-05-02T08:01:37.673Z</time></trkpt><trkpt lat="41.133395" lon="9.487905"><ele>47.0</ele><time>2026-05-02T08:01:38.673Z</time></trkpt><trkpt lat="41.13343" lon="9.4881117"><ele>47.0</ele><time>2026-05-02T08:01:39.673Z</time></trkpt><trkpt lat="41.1334767" lon="9.488315"><ele>49.33333333333333</ele><time>2026-05-02T08:01:40.673Z</time></trkpt><trkpt lat="41.1335133" lon="9.4885217"><ele>51.666666666666664</ele><time>2026-05-02T08:01:41.673Z</time></trkpt><trkpt lat="41.1335333" lon="9.4887267"><ele>54.0</ele><time>2026-05-02T08:01:42.673Z</time></trkpt><trkpt lat="41.1335333" lon="9.4889233"><ele>56.0</ele><time>2026-05-02T08:01:43.673Z</time></trkpt><trkpt lat="41.13351" lon="9.48912"><ele>58.0</ele><time>2026-05-02T08:01:44.673Z</time></trkpt><trkpt lat="41.13344" lon="9.4893383"><ele>60.0</ele><time>2026-05-02T08:01:45.673Z</time></trkpt><trkpt lat="41.1333917" lon="9.4895167"><ele>60.0</ele><time>2026-05-02T08:01:46.673Z</time></trkpt><trkpt lat="41.1333367" lon="9.4897133"><ele>60.0</ele><time>2026-05-02T08:01:47.673Z</time></trkpt><trkpt lat="41.133265" lon="9.4899067"><ele>60.0</ele><time>2026-05-02T08:01:48.673Z</time></trkpt><trkpt lat="41.1331717" lon="9.49008"><ele>60.5</ele><time>2026-05-02T08:01:49.673Z</time></trkpt><trkpt lat="41.133065" lon="9.4902117"><ele>61.0</ele><time>2026-05-02T08:01:50.673Z</time></trkpt><trkpt lat="41.1329683" lon="9.4903683"><ele>61.5</ele><time>2026-05-02T08:01:51.673Z</time></trkpt><trkpt lat="41.1328733" lon="9.4905233"><ele>62.0</ele><time>2026-05-02T08:01:52.673Z</time></trkpt><trkpt lat="41.132785" lon="9.4906583"><ele>62.0</ele><time>2026-05-02T08:01:53.673Z</time></trkpt><trkpt lat="41.1327067" lon="9.4908367"><ele>62.0</ele><time>2026-05-02T08:01:54.673Z</time></trkpt><trkpt lat="41.1326433" lon="9.49103"><ele>62.0</ele><time>2026-05-02T08:01:55.673Z</time></trkpt><trkpt lat="41.1325967" lon="9.491225"><ele>60.333333333333336</ele><time>2026-05-02T08:01:56.673Z</time></trkpt><trkpt lat="41.1325767" lon="9.4914333"><ele>58.66666666666667</ele><time>2026-05-02T08:01:57.673Z</time></trkpt><trkpt lat="41.1325817" lon="9.49164"><ele>57.0</ele><time>2026-05-02T08:01:58.673Z</time></trkpt><trkpt lat="41.1326017" lon="9.4918417"><ele>57.0</ele><time>2026-05-02T08:01:59.673Z</time></trkpt><trkpt lat="41.1326617" lon="9.4920417"><ele>57.0</ele><time>2026-05-02T08:02:00.673Z</time></trkpt><trkpt lat="41.1327217" lon="9.492245"><ele>57.0</ele><time>2026-05-02T08:02:01.673Z</time></trkpt><trkpt lat="41.1328483" lon="9.492385"><ele>60.33333333333333</ele><time>2026-05-02T08:02:02.673Z</time></trkpt><trkpt lat="41.13297" lon="9.492525"><ele>63.666666666666664</ele><time>2026-05-02T08:02:03.673Z</time></trkpt><trkpt lat="41.1330933" lon="9.4926583"><ele>67.0</ele><time>2026-05-02T08:02:04.673Z</time></trkpt><trkpt lat="41.133205" lon="9.4927883"><ele>63.75</ele><time>2026-05-02T08:02:05.673Z</time></trkpt><trkpt lat="41.1333283" lon="9.4929"><ele>60.5</ele><time>2026-05-02T08:02:06.673Z</time></trkpt><trkpt lat="41.1334367" lon="9.4930283"><ele>57.25</ele><time>2026-05-02T08:02:07.673Z</time></trkpt><trkpt lat="41.1335317" lon="9.493165"><ele>54.0</ele><time>2026-05-02T08:02:08.673Z</time></trkpt><trkpt lat="41.1336133" lon="9.4932633"><ele>54.0</ele><time>2026-05-02T08:02:09.673Z</time></trkpt><trkpt lat="41.133675" lon="9.493375"><ele>54.00000000000001</ele><time>2026-05-02T08:02:10.673Z</time></trkpt><trkpt lat="41.133725" lon="9.4934817"><ele>54.00000000000001</ele><time>2026-05-02T08:02:11.673Z</time></trkpt><trkpt lat="41.1337733" lon="9.4936017"><ele>54.0</ele><time>2026-05-02T08:02:12.673Z</time></trkpt><trkpt lat="41.133825" lon="9.49373"><ele>54.0</ele><time>2026-05-02T08:02:13.673Z</time></trkpt><trkpt lat="41.133875" lon="9.49387"><ele>58.0</ele><time>2026-05-02T08:02:14.674Z</time></trkpt><trkpt lat="41.1339267" lon="9.4940217"><ele>62.0</ele><time>2026-05-02T08:02:15.673Z</time></trkpt><trkpt lat="41.1339717" lon="9.4941967"><ele>66.0</ele><time>2026-05-02T08:02:16.673Z</time></trkpt><trkpt lat="41.1340167" lon="9.4943833"><ele>70.0</ele><time>2026-05-02T08:02:17.673Z</time></trkpt><trkpt lat="41.1340583" lon="9.4945867"><ele>59.33333333333333</ele><time>2026-05-02T08:02:18.673Z</time></trkpt><trkpt lat="41.1340967" lon="9.4948033"><ele>48.666666666666664</ele><time>2026-05-02T08:02:19.673Z</time></trkpt><trkpt lat="41.134105" lon="9.4950117"><ele>38.0</ele><time>2026-05-02T08:02:20.673Z</time></trkpt><trkpt lat="41.134085" lon="9.49521"><ele>41.666666666666664</ele><time>2026-05-02T08:02:21.673Z</time></trkpt><trkpt lat="41.134045" lon="9.4954117"><ele>45.33333333333333</ele><time>2026-05-02T08:02:22.673Z</time></trkpt><trkpt lat="41.133995" lon="9.4955967"><ele>49.0</ele><time>2026-05-02T08:02:23.674Z</time></trkpt><trkpt lat="41.1339433" lon="9.49579"><ele>49.0</ele><time>2026-05-02T08:02:24.673Z</time></trkpt><trkpt lat="41.1339183" lon="9.4959767"><ele>49.0</ele><time>2026-05-02T08:02:25.673Z</time></trkpt><trkpt lat="41.1338867" lon="9.49616"><ele>49.0</ele><time>2026-05-02T08:02:26.673Z</time></trkpt><trkpt lat="41.13388" lon="9.49635"><ele>49.0</ele><time>2026-05-02T08:02:27.673Z</time></trkpt><trkpt lat="41.1338783" lon="9.49655"><ele>43.33333333333333</ele><time>2026-05-02T08:02:28.673Z</time></trkpt><trkpt lat="41.1338983" lon="9.49675"><ele>37.666666666666664</ele><time>2026-05-02T08:02:29.673Z</time></trkpt><trkpt lat="41.1339433" lon="9.496945"><ele>32.0</ele><time>2026-05-02T08:02:30.673Z</time></trkpt><trkpt lat="41.13401" lon="9.4971333"><ele>29.333333333333332</ele><time>2026-05-02T08:02:31.673Z</time></trkpt><trkpt lat="41.1341017" lon="9.4973133"><ele>26.666666666666664</ele><time>2026-05-02T08:02:32.673Z</time></trkpt><trkpt lat="41.1342067" lon="9.4974633"><ele>24.0</ele><time>2026-05-02T08:02:33.673Z</time></trkpt><trkpt lat="41.13432" lon="9.4975917"><ele>24.0</ele><time>2026-05-02T08:02:34.673Z</time></trkpt><trkpt lat="41.1344233" lon="9.4977283"><ele>24.0</ele><time>2026-05-02T08:02:35.673Z</time></trkpt><trkpt lat="41.1345367" lon="9.49785"><ele>24.0</ele><time>2026-05-02T08:02:36.673Z</time></trkpt><trkpt lat="41.1346617" lon="9.49796"><ele>24.0</ele><time>2026-05-02T08:02:37.673Z</time></trkpt><trkpt lat="41.1348383" lon="9.4980083"><ele>25.5</ele><time>2026-05-02T08:02:38.673Z</time></trkpt><trkpt lat="41.1349883" lon="9.4980783"><ele>27.0</ele><time>2026-05-02T08:02:39.673Z</time></trkpt><trkpt lat="41.1350933" lon="9.498175"><ele>28.5</ele><time>2026-05-02T08:02:40.673Z</time></trkpt><trkpt lat="41.1351867" lon="9.498285"><ele>30.0</ele><time>2026-05-02T08:02:41.673Z</time></trkpt><trkpt lat="41.1352767" lon="9.498415"><ele>30.0</ele><time>2026-05-02T08:02:42.673Z</time></trkpt><trkpt lat="41.1353667" lon="9.4985533"><ele>30.0</ele><time>2026-05-02T08:02:43.673Z</time></trkpt><trkpt lat="41.13544" lon="9.498705"><ele>30.0</ele><time>2026-05-02T08:02:44.673Z</time></trkpt><trkpt lat="41.13551" lon="9.49888"><ele>30.0</ele><time>2026-05-02T08:02:45.673Z</time></trkpt><trkpt lat="41.135575" lon="9.4990567"><ele>31.75</ele><time>2026-05-02T08:02:46.673Z</time></trkpt><trkpt lat="41.135635" lon="9.4992367"><ele>33.5</ele><time>2026-05-02T08:02:47.673Z</time></trkpt><trkpt lat="41.1356983" lon="9.4994067"><ele>35.25</ele><time>2026-05-02T08:02:48.673Z</time></trkpt><trkpt lat="41.1357517" lon="9.49959"><ele>37.0</ele><time>2026-05-02T08:02:49.673Z</time></trkpt><trkpt lat="41.1357983" lon="9.4997767"><ele>37.0</ele><time>2026-05-02T08:02:50.673Z</time></trkpt><trkpt lat="41.1359217" lon="9.4999167"><ele>37.0</ele><time>2026-05-02T08:02:51.673Z</time></trkpt><trkpt lat="41.13606" lon="9.50006"><ele>37.0</ele><time>2026-05-02T08:02:52.673Z</time></trkpt><trkpt lat="41.1361867" lon="9.50019"><ele>37.0</ele><time>2026-05-02T08:02:53.673Z</time></trkpt><trkpt lat="41.1363417" lon="9.5003117"><ele>37.0</ele><time>2026-05-02T08:02:54.673Z</time></trkpt><trkpt lat="41.1364683" lon="9.50044"><ele>37.0</ele><time>2026-05-02T08:02:55.674Z</time></trkpt><trkpt lat="41.1366267" lon="9.5005483"><ele>36.25</ele><time>2026-05-02T08:02:56.673Z</time></trkpt><trkpt lat="41.13674" lon="9.5006717"><ele>35.5</ele><time>2026-05-02T08:02:57.673Z</time></trkpt><trkpt lat="41.1368517" lon="9.50079"><ele>34.75</ele><time>2026-05-02T08:02:58.673Z</time></trkpt><trkpt lat="41.13695" lon="9.5009267"><ele>34.0</ele><time>2026-05-02T08:02:59.673Z</time></trkpt><trkpt lat="41.1370233" lon="9.501095"><ele>35.333333333333336</ele><time>2026-05-02T08:03:00.673Z</time></trkpt><trkpt lat="41.137075" lon="9.501285"><ele>36.666666666666664</ele><time>2026-05-02T08:03:01.673Z</time></trkpt><trkpt lat="41.1371183" lon="9.501535"><ele>38.0</ele><time>2026-05-02T08:03:02.673Z</time></trkpt><trkpt lat="41.13713" lon="9.501755"><ele>38.0</ele><time>2026-05-02T08:03:03.673Z</time></trkpt><trkpt lat="41.137115" lon="9.5019717"><ele>38.0</ele><time>2026-05-02T08:03:04.673Z</time></trkpt><trkpt lat="41.1370833" lon="9.5021917"><ele>38.0</ele><time>2026-05-02T08:03:05.673Z</time></trkpt><trkpt lat="41.1370217" lon="9.502445"><ele>34.666666666666664</ele><time>2026-05-02T08:03:06.673Z</time></trkpt><trkpt lat="41.13698" lon="9.5026583"><ele>31.333333333333336</ele><time>2026-05-02T08:03:07.673Z</time></trkpt><trkpt lat="41.1369417" lon="9.5028683"><ele>28.0</ele><time>2026-05-02T08:03:08.673Z</time></trkpt><trkpt lat="41.13691" lon="9.5030883"><ele>27.0</ele><time>2026-05-02T08:03:09.673Z</time></trkpt><trkpt lat="41.1368633" lon="9.5032983"><ele>26.0</ele><time>2026-05-02T08:03:10.673Z</time></trkpt><trkpt lat="41.1368417" lon="9.5035133"><ele>25.0</ele><time>2026-05-02T08:03:11.673Z</time></trkpt><trkpt lat="41.1368283" lon="9.5037133"><ele>26.666666666666668</ele><time>2026-05-02T08:03:12.673Z</time></trkpt><trkpt lat="41.136835" lon="9.50393"><ele>28.333333333333336</ele><time>2026-05-02T08:03:13.673Z</time></trkpt><trkpt lat="41.1368667" lon="9.504145"><ele>30.0</ele><time>2026-05-02T08:03:14.673Z</time></trkpt><trkpt lat="41.1368983" lon="9.5043533"><ele>30.0</ele><time>2026-05-02T08:03:15.674Z</time></trkpt><trkpt lat="41.136945" lon="9.5045633"><ele>30.0</ele><time>2026-05-02T08:03:16.673Z</time></trkpt><trkpt lat="41.13701" lon="9.5047767"><ele>30.0</ele><time>2026-05-02T08:03:17.673Z</time></trkpt><trkpt lat="41.1370817" lon="9.5049733"><ele>31.333333333333336</ele><time>2026-05-02T08:03:18.673Z</time></trkpt><trkpt lat="41.1371417" lon="9.5051733"><ele>32.66666666666667</ele><time>2026-05-02T08:03:19.673Z</time></trkpt><trkpt lat="41.1372117" lon="9.505365"><ele>34.0</ele><time>2026-05-02T08:03:20.674Z</time></trkpt><trkpt lat="41.137285" lon="9.5055483"><ele>35.5</ele><time>2026-05-02T08:03:21.673Z</time></trkpt><trkpt lat="41.1373383" lon="9.5057317"><ele>37.0</ele><time>2026-05-02T08:03:22.673Z</time></trkpt><trkpt lat="41.1373533" lon="9.5059183"><ele>38.5</ele><time>2026-05-02T08:03:23.673Z</time></trkpt><trkpt lat="41.13736" lon="9.5061067"><ele>40.0</ele><time>2026-05-02T08:03:24.673Z</time></trkpt><trkpt lat="41.1372917" lon="9.50632"><ele>41.0</ele><time>2026-05-02T08:03:25.673Z</time></trkpt><trkpt lat="41.137255" lon="9.5065217"><ele>42.0</ele><time>2026-05-02T08:03:26.673Z</time></trkpt><trkpt lat="41.137205" lon="9.50672"><ele>43.0</ele><time>2026-05-02T08:03:27.673Z</time></trkpt><trkpt lat="41.13715" lon="9.5069133"><ele>40.333333333333336</ele><time>2026-05-02T08:03:28.673Z</time></trkpt><trkpt lat="41.1370883" lon="9.507105"><ele>37.666666666666664</ele><time>2026-05-02T08:03:29.674Z</time></trkpt><trkpt lat="41.1370267" lon="9.5072967"><ele>35.0</ele><time>2026-05-02T08:03:30.673Z</time></trkpt><trkpt lat="41.1369633" lon="9.5074917"><ele>35.0</ele><time>2026-05-02T08:03:31.673Z</time></trkpt><trkpt lat="41.1369033" lon="9.5076883"><ele>35.0</ele><time>2026-05-02T08:03:32.673Z</time></trkpt><trkpt lat="41.1368433" lon="9.5078733"><ele>35.0</ele><time>2026-05-02T08:03:33.673Z</time></trkpt><trkpt lat="41.1367733" lon="9.5080533"><ele>33.0</ele><time>2026-05-02T08:03:34.673Z</time></trkpt><trkpt lat="41.136695" lon="9.5082217"><ele>31.0</ele><time>2026-05-02T08:03:35.673Z</time></trkpt><trkpt lat="41.1366" lon="9.5083783"><ele>29.0</ele><time>2026-05-02T08:03:36.673Z</time></trkpt><trkpt lat="41.1364883" lon="9.5085233"><ele>29.0</ele><time>2026-05-02T08:03:37.673Z</time></trkpt><trkpt lat="41.1363817" lon="9.5086483"><ele>29.0</ele><time>2026-05-02T08:03:38.673Z</time></trkpt><trkpt lat="41.1362633" lon="9.50877"><ele>29.0</ele><time>2026-05-02T08:03:39.673Z</time></trkpt><trkpt lat="41.1361417" lon="9.5089"><ele>29.0</ele><time>2026-05-02T08:03:40.673Z</time></trkpt><trkpt lat="41.136015" lon="9.5090217"><ele>28.5</ele><time>2026-05-02T08:03:41.673Z</time></trkpt><trkpt lat="41.13589" lon="9.5091317"><ele>28.0</ele><time>2026-05-02T08:03:42.673Z</time></trkpt><trkpt lat="41.1357817" lon="9.5092383"><ele>27.5</ele><time>2026-05-02T08:03:43.673Z</time></trkpt><trkpt lat="41.1356883" lon="9.5093333"><ele>27.0</ele><time>2026-05-02T08:03:44.673Z</time></trkpt><trkpt lat="41.1356033" lon="9.509425"><ele>27.0</ele><time>2026-05-02T08:03:45.673Z</time></trkpt><trkpt lat="41.135515" lon="9.50952"><ele>27.0</ele><time>2026-05-02T08:03:46.673Z</time></trkpt><trkpt lat="41.135425" lon="9.5096217"><ele>27.0</ele><time>2026-05-02T08:03:47.673Z</time></trkpt><trkpt lat="41.1353367" lon="9.5097367"><ele>27.0</ele><time>2026-05-02T08:03:48.673Z</time></trkpt><trkpt lat="41.1352567" lon="9.5098717"><ele>27.25</ele><time>2026-05-02T08:03:49.673Z</time></trkpt><trkpt lat="41.135185" lon="9.510025"><ele>27.5</ele><time>2026-05-02T08:03:50.673Z</time></trkpt><trkpt lat="41.135115" lon="9.5101867"><ele>27.75</ele><time>2026-05-02T08:03:51.673Z</time></trkpt><trkpt lat="41.1350433" lon="9.51035"><ele>28.0</ele><time>2026-05-02T08:03:52.673Z</time></trkpt><trkpt lat="41.1349717" lon="9.5105133"><ele>30.25</ele><time>2026-05-02T08:03:53.673Z</time></trkpt><trkpt lat="41.1348983" lon="9.51068"><ele>32.5</ele><time>2026-05-02T08:03:54.673Z</time></trkpt><trkpt lat="41.1348183" lon="9.5108467"><ele>34.75</ele><time>2026-05-02T08:03:55.673Z</time></trkpt><trkpt lat="41.1347383" lon="9.51101"><ele>37.0</ele><time>2026-05-02T08:03:56.673Z</time></trkpt><trkpt lat="41.1346733" lon="9.5111767"><ele>39.25</ele><time>2026-05-02T08:03:57.673Z</time></trkpt><trkpt lat="41.134605" lon="9.511335"><ele>41.5</ele><time>2026-05-02T08:03:58.673Z</time></trkpt><trkpt lat="41.13455" lon="9.51149"><ele>43.75</ele><time>2026-05-02T08:03:59.673Z</time></trkpt><trkpt lat="41.1344883" lon="9.5116667"><ele>46.0</ele><time>2026-05-02T08:04:00.673Z</time></trkpt><trkpt lat="41.1344417" lon="9.5118417"><ele>46.0</ele><time>2026-05-02T08:04:01.673Z</time></trkpt><trkpt lat="41.1343967" lon="9.5120283"><ele>46.0</ele><time>2026-05-02T08:04:02.673Z</time></trkpt><trkpt lat="41.1343517" lon="9.512215"><ele>46.0</ele><time>2026-05-02T08:04:03.673Z</time></trkpt><trkpt lat="41.1343017" lon="9.5123967"><ele>46.0</ele><time>2026-05-02T08:04:04.673Z</time></trkpt><trkpt lat="41.1342467" lon="9.5125867"><ele>46.5</ele><time>2026-05-02T08:04:05.673Z</time></trkpt><trkpt lat="41.1342233" lon="9.5127783"><ele>47.0</ele><time>2026-05-02T08:04:06.674Z</time></trkpt><trkpt lat="41.1341917" lon="9.5129633"><ele>47.5</ele><time>2026-05-02T08:04:07.673Z</time></trkpt><trkpt lat="41.134185" lon="9.5131533"><ele>48.0</ele><time>2026-05-02T08:04:08.673Z</time></trkpt><trkpt lat="41.1341817" lon="9.5133467"><ele>48.5</ele><time>2026-05-02T08:04:09.673Z</time></trkpt><trkpt lat="41.1341867" lon="9.5135383"><ele>49.0</ele><time>2026-05-02T08:04:10.673Z</time></trkpt><trkpt lat="41.1342217" lon="9.513715"><ele>49.5</ele><time>2026-05-02T08:04:11.673Z</time></trkpt><trkpt lat="41.13427" lon="9.5138917"><ele>50.0</ele><time>2026-05-02T08:04:12.673Z</time></trkpt><trkpt lat="41.134335" lon="9.514065"><ele>51.25</ele><time>2026-05-02T08:04:13.673Z</time></trkpt><trkpt lat="41.134375" lon="9.514235"><ele>52.5</ele><time>2026-05-02T08:04:14.673Z</time></trkpt><trkpt lat="41.13446" lon="9.5143967"><ele>53.75</ele><time>2026-05-02T08:04:15.673Z</time></trkpt><trkpt lat="41.134535" lon="9.51455"><ele>55.0</ele><time>2026-05-02T08:04:16.673Z</time></trkpt><trkpt lat="41.1346167" lon="9.5146883"><ele>55.75</ele><time>2026-05-02T08:04:17.673Z</time></trkpt><trkpt lat="41.1346967" lon="9.5148233"><ele>56.5</ele><time>2026-05-02T08:04:18.673Z</time></trkpt><trkpt lat="41.134775" lon="9.5149517"><ele>57.25</ele><time>2026-05-02T08:04:19.673Z</time></trkpt><trkpt lat="41.13485" lon="9.5150633"><ele>58.0</ele><time>2026-05-02T08:04:20.673Z</time></trkpt><trkpt lat="41.1349267" lon="9.5151767"><ele>58.0</ele><time>2026-05-02T08:04:21.673Z</time></trkpt><trkpt lat="41.1349967" lon="9.5152767"><ele>58.0</ele><time>2026-05-02T08:04:22.673Z</time></trkpt><trkpt lat="41.1350467" lon="9.5153683"><ele>58.0</ele><time>2026-05-02T08:04:23.673Z</time></trkpt><trkpt lat="41.135045" lon="9.5154533"><ele>58.0</ele><time>2026-05-02T08:04:24.673Z</time></trkpt><trkpt lat="41.134945" lon="9.515475"><ele>58.0</ele><time>2026-05-02T08:04:25.673Z</time></trkpt><trkpt lat="41.1348417" lon="9.5154717"><ele>58.8</ele><time>2026-05-02T08:04:28.673Z</time></trkpt><trkpt lat="41.1347467" lon="9.515405"><ele>59.599999999999994</ele><time>2026-05-02T08:04:30.674Z</time></trkpt><trkpt lat="41.134695" lon="9.5153517"><ele>60.400000000000006</ele><time>2026-05-02T08:04:31.673Z</time></trkpt><trkpt lat="41.134595" lon="9.5152317"><ele>61.2</ele><time>2026-05-02T08:04:33.673Z</time></trkpt><trkpt lat="41.1345467" lon="9.5151517"><ele>62.0</ele><time>2026-05-02T08:04:34.673Z</time></trkpt><trkpt lat="41.1344967" lon="9.5150633"><ele>62.00000000000001</ele><time>2026-05-02T08:04:35.673Z</time></trkpt><trkpt lat="41.1344433" lon="9.5149717"><ele>62.0</ele><time>2026-05-02T08:04:36.673Z</time></trkpt><trkpt lat="41.1343917" lon="9.51487"><ele>62.0</ele><time>2026-05-02T08:04:37.673Z</time></trkpt><trkpt lat="41.1343383" lon="9.5147633"><ele>62.0</ele><time>2026-05-02T08:04:38.673Z</time></trkpt><trkpt lat="41.1343017" lon="9.51465"><ele>62.00000000000001</ele><time>2026-05-02T08:04:39.673Z</time></trkpt><trkpt lat="41.1342567" lon="9.5145633"><ele>62.0</ele><time>2026-05-02T08:04:40.673Z</time></trkpt><trkpt lat="41.1342267" lon="9.5144883"><ele>61.2</ele><time>2026-05-02T08:04:41.673Z</time></trkpt><trkpt lat="41.134185" lon="9.5143767"><ele>60.400000000000006</ele><time>2026-05-02T08:04:43.673Z</time></trkpt><trkpt lat="41.13418" lon="9.5142633"><ele>59.599999999999994</ele><time>2026-05-02T08:04:51.673Z</time></trkpt><trkpt lat="41.1340933" lon="9.5141667"><ele>58.8</ele><time>2026-05-02T08:04:53.673Z</time></trkpt><trkpt lat="41.1340167" lon="9.5141"><ele>58.0</ele><time>2026-05-02T08:04:54.673Z</time></trkpt><trkpt lat="41.1339217" lon="9.5140383"><ele>58.0</ele><time>2026-05-02T08:04:55.673Z</time></trkpt><trkpt lat="41.1338217" lon="9.5139733"><ele>58.0</ele><time>2026-05-02T08:04:56.673Z</time></trkpt><trkpt lat="41.133715" lon="9.5139083"><ele>58.0</ele><time>2026-05-02T08:04:57.673Z</time></trkpt><trkpt lat="41.1335983" lon="9.513835"><ele>58.0</ele><time>2026-05-02T08:04:58.673Z</time></trkpt><trkpt lat="41.13349" lon="9.5137533"><ele>58.5</ele><time>2026-05-02T08:04:59.673Z</time></trkpt><trkpt lat="41.1333967" lon="9.5136667"><ele>59.0</ele><time>2026-05-02T08:05:00.673Z</time></trkpt><trkpt lat="41.1333167" lon="9.5135583"><ele>59.5</ele><time>2026-05-02T08:05:01.673Z</time></trkpt><trkpt lat="41.1332483" lon="9.5134317"><ele>60.0</ele><time>2026-05-02T08:05:02.673Z</time></trkpt><trkpt lat="41.1331867" lon="9.5132967"><ele>60.0</ele><time>2026-05-02T08:05:03.673Z</time></trkpt><trkpt lat="41.133125" lon="9.5131667"><ele>60.0</ele><time>2026-05-02T08:05:04.673Z</time></trkpt><trkpt lat="41.13305" lon="9.5130183"><ele>60.0</ele><time>2026-05-02T08:05:05.673Z</time></trkpt><trkpt lat="41.133005" lon="9.5128683"><ele>60.0</ele><time>2026-05-02T08:05:06.673Z</time></trkpt><trkpt lat="41.1329367" lon="9.5127317"><ele>59.0</ele><time>2026-05-02T08:05:07.673Z</time></trkpt><trkpt lat="41.132865" lon="9.5126117"><ele>58.0</ele><time>2026-05-02T08:05:08.673Z</time></trkpt><trkpt lat="41.1327933" lon="9.512505"><ele>57.0</ele><time>2026-05-02T08:05:09.673Z</time></trkpt><trkpt lat="41.13271" lon="9.5124117"><ele>56.0</ele><time>2026-05-02T08:05:10.674Z</time></trkpt><trkpt lat="41.1326133" lon="9.5123367"><ele>55.0</ele><time>2026-05-02T08:05:11.673Z</time></trkpt><trkpt lat="41.1325033" lon="9.5122683"><ele>55.0</ele><time>2026-05-02T08:05:12.673Z</time></trkpt><trkpt lat="41.1324017" lon="9.5122"><ele>55.0</ele><time>2026-05-02T08:05:13.673Z</time></trkpt><trkpt lat="41.132295" lon="9.5121033"><ele>55.0</ele><time>2026-05-02T08:05:14.673Z</time></trkpt><trkpt lat="41.1322033" lon="9.5120067"><ele>55.0</ele><time>2026-05-02T08:05:15.673Z</time></trkpt><trkpt lat="41.1321183" lon="9.5119117"><ele>54.6</ele><time>2026-05-02T08:05:16.673Z</time></trkpt><trkpt lat="41.1320283" lon="9.5118333"><ele>54.2</ele><time>2026-05-02T08:05:17.673Z</time></trkpt><trkpt lat="41.13194" lon="9.51178"><ele>53.8</ele><time>2026-05-02T08:05:18.673Z</time></trkpt><trkpt lat="41.13182" lon="9.5117667"><ele>53.4</ele><time>2026-05-02T08:05:19.673Z</time></trkpt><trkpt lat="41.1317133" lon="9.5117317"><ele>53.0</ele><time>2026-05-02T08:05:20.673Z</time></trkpt><trkpt lat="41.131605" lon="9.5116833"><ele>52.75</ele><time>2026-05-02T08:05:21.673Z</time></trkpt><trkpt lat="41.1315067" lon="9.5116083"><ele>52.5</ele><time>2026-05-02T08:05:22.673Z</time></trkpt><trkpt lat="41.1314083" lon="9.5115067"><ele>52.25</ele><time>2026-05-02T08:05:23.672Z</time></trkpt><trkpt lat="41.1313283" lon="9.5113867"><ele>52.0</ele><time>2026-05-02T08:05:24.672Z</time></trkpt><trkpt lat="41.13126" lon="9.51126"><ele>50.8</ele><time>2026-05-02T08:05:25.672Z</time></trkpt><trkpt lat="41.1311883" lon="9.5111533"><ele>49.6</ele><time>2026-05-02T08:05:26.672Z</time></trkpt><trkpt lat="41.1311067" lon="9.511065"><ele>48.4</ele><time>2026-05-02T08:05:27.672Z</time></trkpt><trkpt lat="41.131" lon="9.5110067"><ele>47.199999999999996</ele><time>2026-05-02T08:05:28.672Z</time></trkpt><trkpt lat="41.1308983" lon="9.5109517"><ele>46.0</ele><time>2026-05-02T08:05:29.672Z</time></trkpt><trkpt lat="41.1307667" lon="9.5109117"><ele>47.0</ele><time>2026-05-02T08:05:30.672Z</time></trkpt><trkpt lat="41.1306367" lon="9.5108633"><ele>48.0</ele><time>2026-05-02T08:05:31.672Z</time></trkpt><trkpt lat="41.1305183" lon="9.5108267"><ele>49.0</ele><time>2026-05-02T08:05:32.672Z</time></trkpt><trkpt lat="41.130405" lon="9.510785"><ele>50.0</ele><time>2026-05-02T08:05:33.672Z</time></trkpt><trkpt lat="41.1302967" lon="9.5107283"><ele>50.0</ele><time>2026-05-02T08:05:34.672Z</time></trkpt><trkpt lat="41.1302017" lon="9.5106567"><ele>50.0</ele><time>2026-05-02T08:05:35.673Z</time></trkpt><trkpt lat="41.1301217" lon="9.5105783"><ele>50.0</ele><time>2026-05-02T08:05:36.672Z</time></trkpt><trkpt lat="41.1300683" lon="9.510475"><ele>50.0</ele><time>2026-05-02T08:05:37.672Z</time></trkpt><trkpt lat="41.1300117" lon="9.5103583"><ele>50.0</ele><time>2026-05-02T08:05:38.672Z</time></trkpt><trkpt lat="41.1299517" lon="9.510235"><ele>54.0</ele><time>2026-05-02T08:05:39.672Z</time></trkpt><trkpt lat="41.1298867" lon="9.5101217"><ele>58.0</ele><time>2026-05-02T08:05:40.672Z</time></trkpt><trkpt lat="41.1298117" lon="9.510005"><ele>62.0</ele><time>2026-05-02T08:05:41.672Z</time></trkpt><trkpt lat="41.1297233" lon="9.50989"><ele>66.0</ele><time>2026-05-02T08:05:42.672Z</time></trkpt><trkpt lat="41.129645" lon="9.50976"><ele>66.0</ele><time>2026-05-02T08:05:43.672Z</time></trkpt><trkpt lat="41.1295533" lon="9.5096467"><ele>66.0</ele><time>2026-05-02T08:05:44.672Z</time></trkpt><trkpt lat="41.1294667" lon="9.50955"><ele>66.0</ele><time>2026-05-02T08:05:45.672Z</time></trkpt><trkpt lat="41.1293917" lon="9.5094733"><ele>66.0</ele><time>2026-05-02T08:05:46.672Z</time></trkpt><trkpt lat="41.129335" lon="9.5094133"><ele>66.0</ele><time>2026-05-02T08:05:47.672Z</time></trkpt><trkpt lat="41.1292783" lon="9.509375"><ele>66.0</ele><time>2026-05-02T08:05:48.672Z</time></trkpt><trkpt lat="41.129165" lon="9.5093533"><ele>66.0</ele><time>2026-05-02T08:05:50.672Z</time></trkpt><trkpt lat="41.1291017" lon="9.509365"><ele>66.0</ele><time>2026-05-02T08:05:51.672Z</time></trkpt><trkpt lat="41.1290183" lon="9.5093983"><ele>66.0</ele><time>2026-05-02T08:05:52.672Z</time></trkpt><trkpt lat="41.1289267" lon="9.5094367"><ele>66.0</ele><time>2026-05-02T08:05:53.672Z</time></trkpt><trkpt lat="41.1288267" lon="9.50948"><ele>67.6</ele><time>2026-05-02T08:05:54.672Z</time></trkpt><trkpt lat="41.1287267" lon="9.509515"><ele>69.19999999999999</ele><time>2026-05-02T08:05:55.672Z</time></trkpt><trkpt lat="41.128625" lon="9.5095517"><ele>70.80000000000001</ele><time>2026-05-02T08:05:56.672Z</time></trkpt><trkpt lat="41.128515" lon="9.5095967"><ele>72.4</ele><time>2026-05-02T08:05:57.672Z</time></trkpt><trkpt lat="41.1284033" lon="9.5096483"><ele>74.0</ele><time>2026-05-02T08:05:58.672Z</time></trkpt><trkpt lat="41.1282867" lon="9.5097033"><ele>76.2</ele><time>2026-05-02T08:05:59.672Z</time></trkpt><trkpt lat="41.1281833" lon="9.5097533"><ele>78.4</ele><time>2026-05-02T08:06:00.672Z</time></trkpt><trkpt lat="41.1280883" lon="9.5098033"><ele>80.6</ele><time>2026-05-02T08:06:01.672Z</time></trkpt><trkpt lat="41.127995" lon="9.509855"><ele>82.8</ele><time>2026-05-02T08:06:02.672Z</time></trkpt><trkpt lat="41.1279067" lon="9.5098983"><ele>85.0</ele><time>2026-05-02T08:06:03.672Z</time></trkpt><trkpt lat="41.1278033" lon="9.5099283"><ele>85.0</ele><time>2026-05-02T08:06:04.673Z</time></trkpt><trkpt lat="41.127695" lon="9.5099383"><ele>85.0</ele><time>2026-05-02T08:06:05.672Z</time></trkpt><trkpt lat="41.127585" lon="9.5099317"><ele>85.0</ele><time>2026-05-02T08:06:06.672Z</time></trkpt><trkpt lat="41.127475" lon="9.509915"><ele>85.0</ele><time>2026-05-02T08:06:07.672Z</time></trkpt><trkpt lat="41.12737" lon="9.50988"><ele>85.0</ele><time>2026-05-02T08:06:08.672Z</time></trkpt><trkpt lat="41.12726" lon="9.509825"><ele>87.0</ele><time>2026-05-02T08:06:09.672Z</time></trkpt><trkpt lat="41.1271533" lon="9.5097467"><ele>89.0</ele><time>2026-05-02T08:06:10.672Z</time></trkpt><trkpt lat="41.1270583" lon="9.50965"><ele>91.0</ele><time>2026-05-02T08:06:11.672Z</time></trkpt><trkpt lat="41.1269667" lon="9.5095533"><ele>93.0</ele><time>2026-05-02T08:06:12.672Z</time></trkpt><trkpt lat="41.1268667" lon="9.5094683"><ele>93.0</ele><time>2026-05-02T08:06:13.672Z</time></trkpt><trkpt lat="41.1267717" lon="9.5093967"><ele>93.0</ele><time>2026-05-02T08:06:14.672Z</time></trkpt><trkpt lat="41.1266733" lon="9.5093583"><ele>93.0</ele><time>2026-05-02T08:06:15.672Z</time></trkpt><trkpt lat="41.1265917" lon="9.5093417"><ele>93.0</ele><time>2026-05-02T08:06:16.672Z</time></trkpt><trkpt lat="41.126505" lon="9.509345"><ele>93.0</ele><time>2026-05-02T08:06:17.672Z</time></trkpt><trkpt lat="41.1264417" lon="9.5093717"><ele>93.0</ele><time>2026-05-02T08:06:18.672Z</time></trkpt><trkpt lat="41.1263983" lon="9.509495"><ele>93.2</ele><time>2026-05-02T08:06:20.672Z</time></trkpt><trkpt lat="41.1264733" lon="9.509685"><ele>93.4</ele><time>2026-05-02T08:06:22.672Z</time></trkpt><trkpt lat="41.1265167" lon="9.5097883"><ele>93.60000000000001</ele><time>2026-05-02T08:06:23.672Z</time></trkpt><trkpt lat="41.1265717" lon="9.50991"><ele>93.80000000000001</ele><time>2026-05-02T08:06:24.672Z</time></trkpt><trkpt lat="41.1266017" lon="9.51002"><ele>94.0</ele><time>2026-05-02T08:06:25.672Z</time></trkpt><trkpt lat="41.1266017" lon="9.51014"><ele>94.0</ele><time>2026-05-02T08:06:26.672Z</time></trkpt><trkpt lat="41.1265867" lon="9.510265"><ele>94.0</ele><time>2026-05-02T08:06:27.672Z</time></trkpt><trkpt lat="41.1265683" lon="9.51039"><ele>94.0</ele><time>2026-05-02T08:06:28.673Z</time></trkpt><trkpt lat="41.12653" lon="9.5104917"><ele>94.0</ele><time>2026-05-02T08:06:29.672Z</time></trkpt><trkpt lat="41.12648" lon="9.5105883"><ele>94.0</ele><time>2026-05-02T08:06:30.672Z</time></trkpt><trkpt lat="41.1263967" lon="9.5106817"><ele>98.5</ele><time>2026-05-02T08:06:31.672Z</time></trkpt><trkpt lat="41.1262783" lon="9.5107433"><ele>103.0</ele><time>2026-05-02T08:06:32.673Z</time></trkpt><trkpt lat="41.1261667" lon="9.5108067"><ele>107.5</ele><time>2026-05-02T08:06:33.672Z</time></trkpt><trkpt lat="41.1260483" lon="9.5108667"><ele>112.0</ele><time>2026-05-02T08:06:34.672Z</time></trkpt><trkpt lat="41.1259183" lon="9.5109233"><ele>112.0</ele><time>2026-05-02T08:06:35.672Z</time></trkpt><trkpt lat="41.1257917" lon="9.51097"><ele>112.0</ele><time>2026-05-02T08:06:36.672Z</time></trkpt><trkpt lat="41.1256633" lon="9.5110183"><ele>112.0</ele><time>2026-05-02T08:06:37.672Z</time></trkpt><trkpt lat="41.1255333" lon="9.51107"><ele>112.0</ele><time>2026-05-02T08:06:38.672Z</time></trkpt><trkpt lat="41.1254067" lon="9.511105"><ele>113.25</ele><time>2026-05-02T08:06:39.672Z</time></trkpt><trkpt lat="41.1252867" lon="9.5111433"><ele>114.5</ele><time>2026-05-02T08:06:40.672Z</time></trkpt><trkpt lat="41.1251683" lon="9.5111817"><ele>115.75</ele><time>2026-05-02T08:06:41.672Z</time></trkpt><trkpt lat="41.1250483" lon="9.5112183"><ele>117.0</ele><time>2026-05-02T08:06:42.672Z</time></trkpt><trkpt lat="41.124935" lon="9.5112483"><ele>119.0</ele><time>2026-05-02T08:06:43.672Z</time></trkpt><trkpt lat="41.1248283" lon="9.51127"><ele>120.99999999999999</ele><time>2026-05-02T08:06:44.672Z</time></trkpt><trkpt lat="41.124725" lon="9.51128"><ele>122.99999999999999</ele><time>2026-05-02T08:06:45.672Z</time></trkpt><trkpt lat="41.1246333" lon="9.5112767"><ele>125.0</ele><time>2026-05-02T08:06:46.672Z</time></trkpt><trkpt lat="41.1245433" lon="9.51128"><ele>127.0</ele><time>2026-05-02T08:06:47.672Z</time></trkpt><trkpt lat="41.1244733" lon="9.511285"><ele>127.00000000000001</ele><time>2026-05-02T08:06:48.672Z</time></trkpt><trkpt lat="41.12441" lon="9.5113017"><ele>127.0</ele><time>2026-05-02T08:06:49.672Z</time></trkpt><trkpt lat="41.1243383" lon="9.5112933"><ele>127.0</ele><time>2026-05-02T08:06:51.672Z</time></trkpt><trkpt lat="41.1242167" lon="9.5112567"><ele>127.0</ele><time>2026-05-02T08:06:53.672Z</time></trkpt><trkpt lat="41.124145" lon="9.5112317"><ele>127.00000000000001</ele><time>2026-05-02T08:06:54.672Z</time></trkpt><trkpt lat="41.12406" lon="9.5111983"><ele>127.0</ele><time>2026-05-02T08:06:55.672Z</time></trkpt><trkpt lat="41.1239767" lon="9.5111617"><ele>129.6</ele><time>2026-05-02T08:06:56.672Z</time></trkpt><trkpt lat="41.1238917" lon="9.5111283"><ele>132.2</ele><time>2026-05-02T08:06:57.672Z</time></trkpt><trkpt lat="41.123805" lon="9.5111067"><ele>134.8</ele><time>2026-05-02T08:06:58.672Z</time></trkpt><trkpt lat="41.1237367" lon="9.5110883"><ele>137.4</ele><time>2026-05-02T08:06:59.672Z</time></trkpt><trkpt lat="41.1236217" lon="9.51105"><ele>140.0</ele><time>2026-05-02T08:07:01.672Z</time></trkpt><trkpt lat="41.1235283" lon="9.5109833"><ele>140.0</ele><time>2026-05-02T08:07:03.672Z</time></trkpt><trkpt lat="41.1234633" lon="9.5109317"><ele>140.0</ele><time>2026-05-02T08:07:05.672Z</time></trkpt><trkpt lat="41.1234017" lon="9.5109567"><ele>140.0</ele><time>2026-05-02T08:07:09.672Z</time></trkpt><trkpt lat="41.123455" lon="9.5110433"><ele>140.0</ele><time>2026-05-02T08:07:12.672Z</time></trkpt><trkpt lat="41.12358" lon="9.51108"><ele>140.0</ele><time>2026-05-02T08:07:14.672Z</time></trkpt><trkpt lat="41.1236717" lon="9.5111033"><ele>140.0</ele><time>2026-05-02T08:07:15.672Z</time></trkpt><trkpt lat="41.1237683" lon="9.511145"><ele>140.0</ele><time>2026-05-02T08:07:16.672Z</time></trkpt><trkpt lat="41.1238683" lon="9.5111583"><ele>140.0</ele><time>2026-05-02T08:07:17.672Z</time></trkpt><trkpt lat="41.1239633" lon="9.5111717"><ele>140.0</ele><time>2026-05-02T08:07:18.672Z</time></trkpt><trkpt lat="41.1240517" lon="9.5111767"><ele>140.0</ele><time>2026-05-02T08:07:19.672Z</time></trkpt><trkpt lat="41.124135" lon="9.5111817"><ele>140.0</ele><time>2026-05-02T08:07:20.672Z</time></trkpt><trkpt lat="41.1242167" lon="9.5111967"><ele>139.33333333333331</ele><time>2026-05-02T08:07:21.672Z</time></trkpt><trkpt lat="41.12428" lon="9.5112083"><ele>138.66666666666666</ele><time>2026-05-02T08:07:22.672Z</time></trkpt><trkpt lat="41.12436" lon="9.5112717"><ele>138.0</ele><time>2026-05-02T08:07:24.672Z</time></trkpt><trkpt lat="41.1243817" lon="9.5113633"><ele>137.33333333333334</ele><time>2026-05-02T08:07:27.672Z</time></trkpt><trkpt lat="41.1243117" lon="9.5114367"><ele>136.66666666666669</ele><time>2026-05-02T08:07:30.672Z</time></trkpt><trkpt lat="41.12422" lon="9.511455"><ele>136.0</ele><time>2026-05-02T08:07:32.672Z</time></trkpt><trkpt lat="41.1241417" lon="9.5114533"><ele>135.16666666666669</ele><time>2026-05-02T08:07:33.672Z</time></trkpt><trkpt lat="41.12407" lon="9.51145"><ele>134.33333333333334</ele><time>2026-05-02T08:07:34.672Z</time></trkpt><trkpt lat="41.123985" lon="9.5114483"><ele>133.5</ele><time>2026-05-02T08:07:35.672Z</time></trkpt><trkpt lat="41.1238967" lon="9.5114417"><ele>132.66666666666666</ele><time>2026-05-02T08:07:36.672Z</time></trkpt><trkpt lat="41.1238133" lon="9.5114383"><ele>131.83333333333331</ele><time>2026-05-02T08:07:37.672Z</time></trkpt><trkpt lat="41.1237233" lon="9.5114367"><ele>131.0</ele><time>2026-05-02T08:07:38.672Z</time></trkpt><trkpt lat="41.1236267" lon="9.5114267"><ele>131.0</ele><time>2026-05-02T08:07:39.672Z</time></trkpt><trkpt lat="41.1235217" lon="9.5114183"><ele>131.0</ele><time>2026-05-02T08:07:40.672Z</time></trkpt><trkpt lat="41.123425" lon="9.511405"><ele>131.0</ele><time>2026-05-02T08:07:41.672Z</time></trkpt><trkpt lat="41.123335" lon="9.5113833"><ele>131.0</ele><time>2026-05-02T08:07:42.672Z</time></trkpt><trkpt lat="41.12324" lon="9.5113717"><ele>131.0</ele><time>2026-05-02T08:07:43.672Z</time></trkpt><trkpt lat="41.12315" lon="9.5113583"><ele>133.5</ele><time>2026-05-02T08:07:44.672Z</time></trkpt><trkpt lat="41.1230583" lon="9.5113567"><ele>136.0</ele><time>2026-05-02T08:07:45.672Z</time></trkpt><trkpt lat="41.1229667" lon="9.511365"><ele>138.5</ele><time>2026-05-02T08:07:46.672Z</time></trkpt><trkpt lat="41.1228833" lon="9.51137"><ele>141.0</ele><time>2026-05-02T08:07:47.673Z</time></trkpt><trkpt lat="41.1228067" lon="9.5113833"><ele>143.5</ele><time>2026-05-02T08:07:48.672Z</time></trkpt><trkpt lat="41.1227283" lon="9.5114133"><ele>146.0</ele><time>2026-05-02T08:07:49.672Z</time></trkpt><trkpt lat="41.12267" lon="9.5114833"><ele>146.0</ele><time>2026-05-02T08:07:50.672Z</time></trkpt><trkpt lat="41.1226283" lon="9.5115767"><ele>146.0</ele><time>2026-05-02T08:07:51.672Z</time></trkpt><trkpt lat="41.122615" lon="9.5116917"><ele>146.0</ele><time>2026-05-02T08:07:52.672Z</time></trkpt><trkpt lat="41.12259" lon="9.5118217"><ele>146.0</ele><time>2026-05-02T08:07:53.672Z</time></trkpt><trkpt lat="41.1225483" lon="9.5119383"><ele>146.0</ele><time>2026-05-02T08:07:54.672Z</time></trkpt><trkpt lat="41.122515" lon="9.5120583"><ele>144.16666666666666</ele><time>2026-05-02T08:07:55.672Z</time></trkpt><trkpt lat="41.12246" lon="9.5121733"><ele>142.33333333333331</ele><time>2026-05-02T08:07:56.672Z</time></trkpt><trkpt lat="41.1224133" lon="9.5122633"><ele>140.5</ele><time>2026-05-02T08:07:57.672Z</time></trkpt><trkpt lat="41.1223533" lon="9.51234"><ele>138.66666666666666</ele><time>2026-05-02T08:07:58.672Z</time></trkpt><trkpt lat="41.1222917" lon="9.51241"><ele>136.83333333333334</ele><time>2026-05-02T08:07:59.672Z</time></trkpt><trkpt lat="41.1222367" lon="9.51248"><ele>135.0</ele><time>2026-05-02T08:08:00.672Z</time></trkpt><trkpt lat="41.1221967" lon="9.512555"><ele>139.5</ele><time>2026-05-02T08:08:01.672Z</time></trkpt><trkpt lat="41.122165" lon="9.512635"><ele>144.0</ele><time>2026-05-02T08:08:02.672Z</time></trkpt><trkpt lat="41.1221317" lon="9.5127083"><ele>148.5</ele><time>2026-05-02T08:08:03.672Z</time></trkpt><trkpt lat="41.1220817" lon="9.51278"><ele>153.0</ele><time>2026-05-02T08:08:04.672Z</time></trkpt><trkpt lat="41.12202" lon="9.51285"><ele>157.5</ele><time>2026-05-02T08:08:05.672Z</time></trkpt><trkpt lat="41.1219517" lon="9.5129133"><ele>162.0</ele><time>2026-05-02T08:08:06.672Z</time></trkpt><trkpt lat="41.121875" lon="9.5129617"><ele>162.0</ele><time>2026-05-02T08:08:07.672Z</time></trkpt><trkpt lat="41.1217867" lon="9.512995"><ele>162.0</ele><time>2026-05-02T08:08:08.672Z</time></trkpt><trkpt lat="41.1217067" lon="9.5130317"><ele>162.0</ele><time>2026-05-02T08:08:09.672Z</time></trkpt><trkpt lat="41.1216467" lon="9.5130667"><ele>162.0</ele><time>2026-05-02T08:08:10.672Z</time></trkpt><trkpt lat="41.12158" lon="9.51313"><ele>162.0</ele><time>2026-05-02T08:08:11.672Z</time></trkpt><trkpt lat="41.1215217" lon="9.5132033"><ele>162.0</ele><time>2026-05-02T08:08:12.672Z</time></trkpt><trkpt lat="41.12146" lon="9.513285"><ele>166.16666666666666</ele><time>2026-05-02T08:08:13.672Z</time></trkpt><trkpt lat="41.1214017" lon="9.513365"><ele>170.33333333333334</ele><time>2026-05-02T08:08:14.672Z</time></trkpt><trkpt lat="41.1213717" lon="9.51345"><ele>174.5</ele><time>2026-05-02T08:08:15.672Z</time></trkpt><trkpt lat="41.1213283" lon="9.5135483"><ele>178.66666666666669</ele><time>2026-05-02T08:08:16.673Z</time></trkpt><trkpt lat="41.1212833" lon="9.513635"><ele>182.83333333333334</ele><time>2026-05-02T08:08:17.672Z</time></trkpt><trkpt lat="41.1212267" lon="9.51371"><ele>187.0</ele><time>2026-05-02T08:08:18.672Z</time></trkpt><trkpt lat="41.12117" lon="9.5137633"><ele>187.0</ele><time>2026-05-02T08:08:19.672Z</time></trkpt><trkpt lat="41.121055" lon="9.5137883"><ele>187.0</ele><time>2026-05-02T08:08:21.672Z</time></trkpt><trkpt lat="41.12092" lon="9.5137233"><ele>187.0</ele><time>2026-05-02T08:08:23.672Z</time></trkpt><trkpt lat="41.1208533" lon="9.5137033"><ele>187.0</ele><time>2026-05-02T08:08:24.672Z</time></trkpt><trkpt lat="41.1207717" lon="9.51371"><ele>187.0</ele><time>2026-05-02T08:08:25.672Z</time></trkpt><trkpt lat="41.1207017" lon="9.5137267"><ele>192.2</ele><time>2026-05-02T08:08:26.672Z</time></trkpt><trkpt lat="41.120625" lon="9.5137417"><ele>197.39999999999998</ele><time>2026-05-02T08:08:27.672Z</time></trkpt><trkpt lat="41.1205317" lon="9.51375"><ele>202.60000000000002</ele><time>2026-05-02T08:08:28.672Z</time></trkpt><trkpt lat="41.1204283" lon="9.513755"><ele>207.8</ele><time>2026-05-02T08:08:29.672Z</time></trkpt><trkpt lat="41.1203283" lon="9.51376"><ele>213.0</ele><time>2026-05-02T08:08:30.672Z</time></trkpt><trkpt lat="41.1202033" lon="9.5137917"><ele>213.0</ele><time>2026-05-02T08:08:31.672Z</time></trkpt><trkpt lat="41.1200917" lon="9.51381"><ele>213.0</ele><time>2026-05-02T08:08:32.672Z</time></trkpt><trkpt lat="41.1199933" lon="9.5138283"><ele>213.0</ele><time>2026-05-02T08:08:33.672Z</time></trkpt><trkpt lat="41.1198817" lon="9.5138283"><ele>213.0</ele><time>2026-05-02T08:08:34.672Z</time></trkpt><trkpt lat="41.1197633" lon="9.513815"><ele>213.0</ele><time>2026-05-02T08:08:35.672Z</time></trkpt><trkpt lat="41.1196617" lon="9.5138"><ele>216.60000000000002</ele><time>2026-05-02T08:08:36.672Z</time></trkpt><trkpt lat="41.1195567" lon="9.5137883"><ele>220.20000000000002</ele><time>2026-05-02T08:08:37.672Z</time></trkpt><trkpt lat="41.1194533" lon="9.5137883"><ele>223.8</ele><time>2026-05-02T08:08:38.672Z</time></trkpt><trkpt lat="41.11935" lon="9.5138083"><ele>227.4</ele><time>2026-05-02T08:08:39.672Z</time></trkpt><trkpt lat="41.1192467" lon="9.513845"><ele>231.0</ele><time>2026-05-02T08:08:40.672Z</time></trkpt><trkpt lat="41.1191617" lon="9.513905"><ele>231.0</ele><time>2026-05-02T08:08:41.672Z</time></trkpt><trkpt lat="41.11909" lon="9.5139683"><ele>231.0</ele><time>2026-05-02T08:08:42.672Z</time></trkpt><trkpt lat="41.11901" lon="9.5140283"><ele>231.0</ele><time>2026-05-02T08:08:43.672Z</time></trkpt><trkpt lat="41.1189433" lon="9.5140583"><ele>231.0</ele><time>2026-05-02T08:08:44.673Z</time></trkpt><trkpt lat="41.1188733" lon="9.5140917"><ele>231.0</ele><time>2026-05-02T08:08:45.673Z</time></trkpt><trkpt lat="41.1188" lon="9.51413"><ele>231.0</ele><time>2026-05-02T08:08:46.672Z</time></trkpt><trkpt lat="41.1187367" lon="9.5141767"><ele>232.0</ele><time>2026-05-02T08:08:47.672Z</time></trkpt><trkpt lat="41.1186783" lon="9.514245"><ele>233.00000000000003</ele><time>2026-05-02T08:08:48.672Z</time></trkpt><trkpt lat="41.1186133" lon="9.5143783"><ele>234.00000000000003</ele><time>2026-05-02T08:08:50.672Z</time></trkpt><trkpt lat="41.1186483" lon="9.5145167"><ele>235.0</ele><time>2026-05-02T08:08:52.672Z</time></trkpt><trkpt lat="41.1187233" lon="9.5146233"><ele>236.0</ele><time>2026-05-02T08:08:54.672Z</time></trkpt><trkpt lat="41.1188167" lon="9.514735"><ele>238.33333333333334</ele><time>2026-05-02T08:08:56.672Z</time></trkpt><trkpt lat="41.1188633" lon="9.5147983"><ele>240.66666666666669</ele><time>2026-05-02T08:08:57.672Z</time></trkpt><trkpt lat="41.1188783" lon="9.5149017"><ele>243.0</ele><time>2026-05-02T08:08:59.672Z</time></trkpt><trkpt lat="41.11887" lon="9.51501"><ele>245.33333333333331</ele><time>2026-05-02T08:09:01.672Z</time></trkpt><trkpt lat="41.1188217" lon="9.5151367"><ele>247.66666666666666</ele><time>2026-05-02T08:09:03.672Z</time></trkpt><trkpt lat="41.1187417" lon="9.5152367"><ele>250.0</ele><time>2026-05-02T08:09:05.672Z</time></trkpt><trkpt lat="41.11868" lon="9.5152833"><ele>249.99999999999997</ele><time>2026-05-02T08:09:06.672Z</time></trkpt><trkpt lat="41.11862" lon="9.5153367"><ele>250.0</ele><time>2026-05-02T08:09:07.672Z</time></trkpt><trkpt lat="41.118555" lon="9.5153933"><ele>250.0</ele><time>2026-05-02T08:09:08.672Z</time></trkpt><trkpt lat="41.118495" lon="9.5154433"><ele>250.0</ele><time>2026-05-02T08:09:09.672Z</time></trkpt><trkpt lat="41.1184" lon="9.5155633"><ele>249.99999999999997</ele><time>2026-05-02T08:09:11.672Z</time></trkpt><trkpt lat="41.1183483" lon="9.5156167"><ele>250.0</ele><time>2026-05-02T08:09:12.672Z</time></trkpt><trkpt lat="41.1182883" lon="9.515655"><ele>252.49999999999997</ele><time>2026-05-02T08:09:13.672Z</time></trkpt><trkpt lat="41.1182217" lon="9.5156833"><ele>255.0</ele><time>2026-05-02T08:09:14.672Z</time></trkpt><trkpt lat="41.118145" lon="9.515725"><ele>257.5</ele><time>2026-05-02T08:09:15.672Z</time></trkpt><trkpt lat="41.118065" lon="9.5157433"><ele>260.0</ele><time>2026-05-02T08:09:16.672Z</time></trkpt><trkpt lat="41.1179933" lon="9.5157733"><ele>262.5</ele><time>2026-05-02T08:09:17.672Z</time></trkpt><trkpt lat="41.11792" lon="9.5158067"><ele>265.0</ele><time>2026-05-02T08:09:18.672Z</time></trkpt><trkpt lat="41.1178533" lon="9.515845"><ele>265.0</ele><time>2026-05-02T08:09:19.672Z</time></trkpt><trkpt lat="41.1177367" lon="9.5159217"><ele>265.0</ele><time>2026-05-02T08:09:21.672Z</time></trkpt><trkpt lat="41.11764" lon="9.5159633"><ele>265.0</ele><time>2026-05-02T08:09:23.672Z</time></trkpt><trkpt lat="41.11752" lon="9.5160117"><ele>265.0</ele><time>2026-05-02T08:09:25.672Z</time></trkpt><trkpt lat="41.11744" lon="9.516045"><ele>265.0</ele><time>2026-05-02T08:09:26.672Z</time></trkpt><trkpt lat="41.11736" lon="9.51607"><ele>265.16666666666663</ele><time>2026-05-02T08:09:27.672Z</time></trkpt><trkpt lat="41.1172783" lon="9.5160867"><ele>265.3333333333333</ele><time>2026-05-02T08:09:28.672Z</time></trkpt><trkpt lat="41.1172017" lon="9.5160917"><ele>265.5</ele><time>2026-05-02T08:09:29.672Z</time></trkpt><trkpt lat="41.1171233" lon="9.5161117"><ele>265.6666666666667</ele><time>2026-05-02T08:09:30.673Z</time></trkpt><trkpt lat="41.117055" lon="9.51615"><ele>265.83333333333337</ele><time>2026-05-02T08:09:31.672Z</time></trkpt><trkpt lat="41.1169783" lon="9.5161933"><ele>266.0</ele><time>2026-05-02T08:09:32.672Z</time></trkpt><trkpt lat="41.1168933" lon="9.5162367"><ele>267.0</ele><time>2026-05-02T08:09:33.672Z</time></trkpt><trkpt lat="41.1167783" lon="9.516295"><ele>268.0</ele><time>2026-05-02T08:09:34.672Z</time></trkpt><trkpt lat="41.1166983" lon="9.5163183"><ele>269.0</ele><time>2026-05-02T08:09:35.672Z</time></trkpt><trkpt lat="41.116625" lon="9.5163317"><ele>270.0</ele><time>2026-05-02T08:09:36.672Z</time></trkpt><trkpt lat="41.116545" lon="9.516365"><ele>271.0</ele><time>2026-05-02T08:09:37.672Z</time></trkpt><trkpt lat="41.116475" lon="9.5163933"><ele>272.0</ele><time>2026-05-02T08:09:38.672Z</time></trkpt><trkpt lat="41.116405" lon="9.5164317"><ele>273.0</ele><time>2026-05-02T08:09:39.672Z</time></trkpt><trkpt lat="41.116335" lon="9.5164733"><ele>274.0</ele><time>2026-05-02T08:09:40.672Z</time></trkpt><trkpt lat="41.1162583" lon="9.5165033"><ele>275.0</ele><time>2026-05-02T08:09:41.673Z</time></trkpt><trkpt lat="41.1161717" lon="9.5165467"><ele>276.0</ele><time>2026-05-02T08:09:42.672Z</time></trkpt><trkpt lat="41.11609" lon="9.5165817"><ele>277.0</ele><time>2026-05-02T08:09:43.672Z</time></trkpt><trkpt lat="41.1160117" lon="9.5166117"><ele>278.0</ele><time>2026-05-02T08:09:44.673Z</time></trkpt><trkpt lat="41.1159383" lon="9.5166583"><ele>278.0</ele><time>2026-05-02T08:09:45.672Z</time></trkpt><trkpt lat="41.11587" lon="9.5167067"><ele>278.0</ele><time>2026-05-02T08:09:46.672Z</time></trkpt><trkpt lat="41.1157617" lon="9.5167567"><ele>278.0</ele><time>2026-05-02T08:09:48.672Z</time></trkpt><trkpt lat="41.1156833" lon="9.516795"><ele>278.0</ele><time>2026-05-02T08:09:50.672Z</time></trkpt><trkpt lat="41.11562" lon="9.5168233"><ele>278.0</ele><time>2026-05-02T08:09:52.672Z</time></trkpt><trkpt lat="41.1155467" lon="9.5167317"><ele>278.0</ele><time>2026-05-02T08:09:56.672Z</time></trkpt><trkpt lat="41.1154783" lon="9.5166583"><ele>277.0</ele><time>2026-05-02T08:09:58.672Z</time></trkpt><trkpt lat="41.1154167" lon="9.5166267"><ele>276.0</ele><time>2026-05-02T08:10:00.672Z</time></trkpt><trkpt lat="41.11532" lon="9.5165967"><ele>275.0</ele><time>2026-05-02T08:10:03.672Z</time></trkpt><trkpt lat="41.1152317" lon="9.5166333"><ele>274.0</ele><time>2026-05-02T08:10:05.672Z</time></trkpt><trkpt lat="41.115125" lon="9.51666"><ele>273.0</ele><time>2026-05-02T08:10:07.672Z</time></trkpt><trkpt lat="41.1150167" lon="9.51665"><ele>273.0</ele><time>2026-05-02T08:10:09.672Z</time></trkpt><trkpt lat="41.1149067" lon="9.5166233"><ele>273.0</ele><time>2026-05-02T08:10:11.672Z</time></trkpt><trkpt lat="41.1148283" lon="9.51657"><ele>273.0</ele><time>2026-05-02T08:10:13.672Z</time></trkpt><trkpt lat="41.1147683" lon="9.5165117"><ele>273.0</ele><time>2026-05-02T08:10:15.672Z</time></trkpt><trkpt lat="41.11473" lon="9.5164283"><ele>273.0</ele><time>2026-05-02T08:10:17.672Z</time></trkpt><trkpt lat="41.114665" lon="9.5163617"><ele>273.0</ele><time>2026-05-02T08:10:19.672Z</time></trkpt><trkpt lat="41.1145917" lon="9.51629"><ele>275.25</ele><time>2026-05-02T08:10:21.672Z</time></trkpt><trkpt lat="41.1144767" lon="9.5162233"><ele>277.5</ele><time>2026-05-02T08:10:23.672Z</time></trkpt><trkpt lat="41.1143783" lon="9.5161533"><ele>279.75</ele><time>2026-05-02T08:10:25.672Z</time></trkpt><trkpt lat="41.114305" lon="9.5160633"><ele>282.0</ele><time>2026-05-02T08:10:27.672Z</time></trkpt><trkpt lat="41.1142233" lon="9.5159467"><ele>282.0</ele><time>2026-05-02T08:10:29.672Z</time></trkpt><trkpt lat="41.11414" lon="9.5158217"><ele>282.0</ele><time>2026-05-02T08:10:31.672Z</time></trkpt><trkpt lat="41.1141" lon="9.5157433"><ele>282.0</ele><time>2026-05-02T08:10:32.672Z</time></trkpt><trkpt lat="41.1140683" lon="9.5156533"><ele>282.0</ele><time>2026-05-02T08:10:33.672Z</time></trkpt><trkpt lat="41.114035" lon="9.5155717"><ele>282.0</ele><time>2026-05-02T08:10:34.672Z</time></trkpt><trkpt lat="41.1139967" lon="9.5154967"><ele>282.0</ele><time>2026-05-02T08:10:35.672Z</time></trkpt><trkpt lat="41.11396" lon="9.5154283"><ele>287.8</ele><time>2026-05-02T08:10:36.672Z</time></trkpt><trkpt lat="41.113885" lon="9.51531"><ele>293.6</ele><time>2026-05-02T08:10:38.672Z</time></trkpt><trkpt lat="41.1137933" lon="9.5152217"><ele>299.40000000000003</ele><time>2026-05-02T08:10:40.672Z</time></trkpt><trkpt lat="41.1137" lon="9.515165"><ele>305.2</ele><time>2026-05-02T08:10:42.672Z</time></trkpt><trkpt lat="41.1136033" lon="9.5151533"><ele>311.0</ele><time>2026-05-02T08:10:44.672Z</time></trkpt><trkpt lat="41.1134983" lon="9.5151467"><ele>311.0</ele><time>2026-05-02T08:10:46.672Z</time></trkpt><trkpt lat="41.1134017" lon="9.5152133"><ele>311.0</ele><time>2026-05-02T08:10:48.672Z</time></trkpt><trkpt lat="41.113315" lon="9.5153083"><ele>311.0</ele><time>2026-05-02T08:10:50.672Z</time></trkpt><trkpt lat="41.1132467" lon="9.5153467"><ele>311.0</ele><time>2026-05-02T08:10:52.672Z</time></trkpt><trkpt lat="41.1131517" lon="9.5153683"><ele>311.0</ele><time>2026-05-02T08:10:54.672Z</time></trkpt><trkpt lat="41.1130517" lon="9.5153967"><ele>311.33333333333337</ele><time>2026-05-02T08:10:56.672Z</time></trkpt><trkpt lat="41.1129683" lon="9.5154167"><ele>311.6666666666667</ele><time>2026-05-02T08:10:58.672Z</time></trkpt><trkpt lat="41.1128833" lon="9.5154383"><ele>312.0</ele><time>2026-05-02T08:11:01.672Z</time></trkpt><trkpt lat="41.1128" lon="9.5154217"><ele>312.3333333333333</ele><time>2026-05-02T08:11:04.672Z</time></trkpt><trkpt lat="41.1127267" lon="9.5153983"><ele>312.66666666666663</ele><time>2026-05-02T08:11:06.672Z</time></trkpt><trkpt lat="41.1126233" lon="9.515385"><ele>313.0</ele><time>2026-05-02T08:11:08.672Z</time></trkpt><trkpt lat="41.1125233" lon="9.5153683"><ele>314.8</ele><time>2026-05-02T08:11:10.672Z</time></trkpt><trkpt lat="41.1124267" lon="9.5153567"><ele>316.6</ele><time>2026-05-02T08:11:12.672Z</time></trkpt><trkpt lat="41.1123183" lon="9.5153683"><ele>318.40000000000003</ele><time>2026-05-02T08:11:14.672Z</time></trkpt><trkpt lat="41.11221" lon="9.5153783"><ele>320.20000000000005</ele><time>2026-05-02T08:11:16.672Z</time></trkpt><trkpt lat="41.112105" lon="9.5153733"><ele>322.0</ele><time>2026-05-02T08:11:18.672Z</time></trkpt><trkpt lat="41.1120083" lon="9.5153667"><ele>325.0</ele><time>2026-05-02T08:11:20.672Z</time></trkpt><trkpt lat="41.1119217" lon="9.51534"><ele>328.0</ele><time>2026-05-02T08:11:22.672Z</time></trkpt><trkpt lat="41.1117633" lon="9.51533"><ele>331.0</ele><time>2026-05-02T08:11:54.672Z</time></trkpt><trkpt lat="41.1116717" lon="9.5154033"><ele>334.0</ele><time>2026-05-02T08:12:08.672Z</time></trkpt><trkpt lat="41.1116183" lon="9.5154883"><ele>337.0</ele><time>2026-05-02T08:12:17.672Z</time></trkpt><trkpt lat="41.1115217" lon="9.5155217"><ele>337.0</ele><time>2026-05-02T08:12:22.672Z</time></trkpt><trkpt lat="41.1116017" lon="9.515515"><ele>337.0</ele><time>2026-05-02T08:12:57.672Z</time></trkpt><trkpt lat="41.111695" lon="9.515435"><ele>337.0</ele><time>2026-05-02T08:13:42.672Z</time></trkpt><trkpt lat="41.111825" lon="9.51541"><ele>337.0</ele><time>2026-05-02T08:13:58.672Z</time></trkpt><trkpt lat="41.111765" lon="9.5153583"><ele>337.0</ele><time>2026-05-02T08:14:31.672Z</time></trkpt><trkpt lat="41.11184" lon="9.5154"><ele>337.0</ele><time>2026-05-02T08:17:40.671Z</time></trkpt><trkpt lat="41.1119183" lon="9.515365"><ele>337.0</ele><time>2026-05-02T08:19:48.671Z</time></trkpt><trkpt lat="41.112005" lon="9.5153767"><ele>337.0</ele><time>2026-05-02T08:19:51.671Z</time></trkpt><trkpt lat="41.11208" lon="9.515375"><ele>337.0</ele><time>2026-05-02T08:19:55.671Z</time></trkpt><trkpt lat="41.1121583" lon="9.515405"><ele>337.0</ele><time>2026-05-02T08:20:00.671Z</time></trkpt><trkpt lat="41.1122233" lon="9.515405"><ele>337.0</ele><time>2026-05-02T08:20:03.671Z</time></trkpt><trkpt lat="41.1123183" lon="9.5153933"><ele>338.5</ele><time>2026-05-02T08:20:06.671Z</time></trkpt><trkpt lat="41.1124033" lon="9.5153833"><ele>340.0</ele><time>2026-05-02T08:20:09.671Z</time></trkpt><trkpt lat="41.1124817" lon="9.5153817"><ele>341.5</ele><time>2026-05-02T08:20:11.671Z</time></trkpt><trkpt lat="41.1125833" lon="9.515365"><ele>343.0</ele><time>2026-05-02T08:20:13.671Z</time></trkpt><trkpt lat="41.112655" lon="9.515355"><ele>344.5</ele><time>2026-05-02T08:20:15.671Z</time></trkpt><trkpt lat="41.1127317" lon="9.5153783"><ele>346.0</ele><time>2026-05-02T08:20:17.671Z</time></trkpt><trkpt lat="41.1128117" lon="9.5154167"><ele>342.0</ele><time>2026-05-02T08:20:20.671Z</time></trkpt><trkpt lat="41.1128933" lon="9.5154117"><ele>338.0</ele><time>2026-05-02T08:20:22.671Z</time></trkpt><trkpt lat="41.11297" lon="9.5153917"><ele>334.0</ele><time>2026-05-02T08:20:24.671Z</time></trkpt><trkpt lat="41.1130333" lon="9.5153667"><ele>330.0</ele><time>2026-05-02T08:20:26.671Z</time></trkpt><trkpt lat="41.1131067" lon="9.5153417"><ele>326.0</ele><time>2026-05-02T08:20:28.671Z</time></trkpt><trkpt lat="41.1131783" lon="9.5153117"><ele>322.0</ele><time>2026-05-02T08:20:31.671Z</time></trkpt><trkpt lat="41.1132533" lon="9.515275"><ele>320.16666666666663</ele><time>2026-05-02T08:20:34.671Z</time></trkpt><trkpt lat="41.1133233" lon="9.5152067"><ele>318.3333333333333</ele><time>2026-05-02T08:20:36.671Z</time></trkpt><trkpt lat="41.11339" lon="9.5151533"><ele>316.5</ele><time>2026-05-02T08:20:38.671Z</time></trkpt><trkpt lat="41.1134667" lon="9.5151333"><ele>314.6666666666667</ele><time>2026-05-02T08:20:40.671Z</time></trkpt><trkpt lat="41.1135367" lon="9.51514"><ele>312.83333333333337</ele><time>2026-05-02T08:20:42.671Z</time></trkpt><trkpt lat="41.1136117" lon="9.5151333"><ele>311.0</ele><time>2026-05-02T08:20:44.671Z</time></trkpt><trkpt lat="41.1136967" lon="9.5151583"><ele>311.0</ele><time>2026-05-02T08:20:46.671Z</time></trkpt><trkpt lat="41.1137833" lon="9.5151883"><ele>311.0</ele><time>2026-05-02T08:20:48.671Z</time></trkpt><trkpt lat="41.1138583" lon="9.5152167"><ele>311.0</ele><time>2026-05-02T08:20:50.671Z</time></trkpt><trkpt lat="41.1139467" lon="9.515285"><ele>311.0</ele><time>2026-05-02T08:20:53.672Z</time></trkpt><trkpt lat="41.114015" lon="9.5153683"><ele>311.0</ele><time>2026-05-02T08:20:55.671Z</time></trkpt><trkpt lat="41.1140767" lon="9.51545"><ele>306.1666666666667</ele><time>2026-05-02T08:20:57.671Z</time></trkpt><trkpt lat="41.1141433" lon="9.5155583"><ele>301.33333333333337</ele><time>2026-05-02T08:20:59.671Z</time></trkpt><trkpt lat="41.1142067" lon="9.51567"><ele>296.5</ele><time>2026-05-02T08:21:01.671Z</time></trkpt><trkpt lat="41.1142483" lon="9.5157633"><ele>291.6666666666667</ele><time>2026-05-02T08:21:03.671Z</time></trkpt><trkpt lat="41.11427" lon="9.5158517"><ele>286.8333333333333</ele><time>2026-05-02T08:21:05.671Z</time></trkpt><trkpt lat="41.1143017" lon="9.51594"><ele>282.0</ele><time>2026-05-02T08:21:07.671Z</time></trkpt><trkpt lat="41.1143633" lon="9.5160167"><ele>282.0</ele><time>2026-05-02T08:21:09.671Z</time></trkpt><trkpt lat="41.1144467" lon="9.5160883"><ele>282.0</ele><time>2026-05-02T08:21:11.671Z</time></trkpt><trkpt lat="41.1145267" lon="9.5161567"><ele>282.0</ele><time>2026-05-02T08:21:13.671Z</time></trkpt><trkpt lat="41.1146183" lon="9.5162033"><ele>282.0</ele><time>2026-05-02T08:21:15.671Z</time></trkpt><trkpt lat="41.11469" lon="9.5162733"><ele>282.0</ele><time>2026-05-02T08:21:17.671Z</time></trkpt><trkpt lat="41.1147217" lon="9.5163583"><ele>280.2</ele><time>2026-05-02T08:21:19.671Z</time></trkpt><trkpt lat="41.1147467" lon="9.5164367"><ele>278.4</ele><time>2026-05-02T08:21:21.671Z</time></trkpt><trkpt lat="41.11479" lon="9.5165083"><ele>276.6</ele><time>2026-05-02T08:21:23.671Z</time></trkpt><trkpt lat="41.11489" lon="9.51656"><ele>274.8</ele><time>2026-05-02T08:21:25.671Z</time></trkpt><trkpt lat="41.1149867" lon="9.51662"><ele>273.0</ele><time>2026-05-02T08:21:27.671Z</time></trkpt><trkpt lat="41.115105" lon="9.51663"><ele>273.0</ele><time>2026-05-02T08:21:29.671Z</time></trkpt><trkpt lat="41.1152217" lon="9.51661"><ele>273.0</ele><time>2026-05-02T08:21:31.671Z</time></trkpt><trkpt lat="41.1153283" lon="9.516595"><ele>273.0</ele><time>2026-05-02T08:21:33.671Z</time></trkpt><trkpt lat="41.1154367" lon="9.5166133"><ele>273.0</ele><time>2026-05-02T08:21:35.671Z</time></trkpt><trkpt lat="41.115535" lon="9.516705"><ele>273.0</ele><time>2026-05-02T08:21:37.671Z</time></trkpt><trkpt lat="41.1156083" lon="9.5167733"><ele>273.0</ele><time>2026-05-02T08:21:39.671Z</time></trkpt><trkpt lat="41.1156833" lon="9.5167817"><ele>273.0</ele><time>2026-05-02T08:21:41.671Z</time></trkpt><trkpt lat="41.1157867" lon="9.51675"><ele>273.0</ele><time>2026-05-02T08:21:43.671Z</time></trkpt><trkpt lat="41.11589" lon="9.5167"><ele>273.0</ele><time>2026-05-02T08:21:45.671Z</time></trkpt><trkpt lat="41.1159983" lon="9.5166317"><ele>274.0</ele><time>2026-05-02T08:21:47.671Z</time></trkpt><trkpt lat="41.1160583" lon="9.5165917"><ele>275.0</ele><time>2026-05-02T08:21:48.671Z</time></trkpt><trkpt lat="41.1161683" lon="9.5165383"><ele>276.0</ele><time>2026-05-02T08:21:50.671Z</time></trkpt><trkpt lat="41.1162917" lon="9.51649"><ele>277.0</ele><time>2026-05-02T08:21:52.671Z</time></trkpt><trkpt lat="41.1163917" lon="9.51644"><ele>278.0</ele><time>2026-05-02T08:21:54.671Z</time></trkpt><trkpt lat="41.116485" lon="9.5163967"><ele>276.8</ele><time>2026-05-02T08:21:56.671Z</time></trkpt><trkpt lat="41.1165983" lon="9.5163283"><ele>275.6</ele><time>2026-05-02T08:21:58.671Z</time></trkpt><trkpt lat="41.1167283" lon="9.5163017"><ele>274.4</ele><time>2026-05-02T08:22:00.671Z</time></trkpt><trkpt lat="41.1167967" lon="9.5162833"><ele>273.2</ele><time>2026-05-02T08:22:01.671Z</time></trkpt><trkpt lat="41.11686" lon="9.51626"><ele>272.0</ele><time>2026-05-02T08:22:02.671Z</time></trkpt><trkpt lat="41.1169233" lon="9.5162283"><ele>271.0</ele><time>2026-05-02T08:22:03.671Z</time></trkpt><trkpt lat="41.116985" lon="9.5161933"><ele>270.0</ele><time>2026-05-02T08:22:04.671Z</time></trkpt><trkpt lat="41.117055" lon="9.51616"><ele>269.0</ele><time>2026-05-02T08:22:05.671Z</time></trkpt><trkpt lat="41.11713" lon="9.5161283"><ele>268.0</ele><time>2026-05-02T08:22:06.671Z</time></trkpt><trkpt lat="41.117255" lon="9.5160833"><ele>267.0</ele><time>2026-05-02T08:22:08.671Z</time></trkpt><trkpt lat="41.1173183" lon="9.5160667"><ele>266.0</ele><time>2026-05-02T08:22:09.672Z</time></trkpt><trkpt lat="41.117435" lon="9.5160283"><ele>265.8</ele><time>2026-05-02T08:22:11.671Z</time></trkpt><trkpt lat="41.117545" lon="9.51596"><ele>265.6</ele><time>2026-05-02T08:22:13.671Z</time></trkpt><trkpt lat="41.117605" lon="9.5159317"><ele>265.4</ele><time>2026-05-02T08:22:14.671Z</time></trkpt><trkpt lat="41.117725" lon="9.5158933"><ele>265.2</ele><time>2026-05-02T08:22:16.671Z</time></trkpt><trkpt lat="41.1177883" lon="9.5158767"><ele>265.0</ele><time>2026-05-02T08:22:17.671Z</time></trkpt><trkpt lat="41.11791" lon="9.51584"><ele>265.0</ele><time>2026-05-02T08:22:19.671Z</time></trkpt><trkpt lat="41.1179817" lon="9.5158"><ele>265.0</ele><time>2026-05-02T08:22:20.671Z</time></trkpt><trkpt lat="41.1180583" lon="9.515755"><ele>265.0</ele><time>2026-05-02T08:22:21.671Z</time></trkpt><trkpt lat="41.1181333" lon="9.515715"><ele>265.0</ele><time>2026-05-02T08:22:22.671Z</time></trkpt><trkpt lat="41.118205" lon="9.51568"><ele>265.0</ele><time>2026-05-02T08:22:23.671Z</time></trkpt><trkpt lat="41.118275" lon="9.515655"><ele>265.0</ele><time>2026-05-02T08:22:24.671Z</time></trkpt><trkpt lat="41.11838" lon="9.5156233"><ele>265.0</ele><time>2026-05-02T08:22:26.671Z</time></trkpt><trkpt lat="41.11844" lon="9.515595"><ele>265.0</ele><time>2026-05-02T08:22:28.671Z</time></trkpt><trkpt lat="41.118495" lon="9.51553"><ele>265.0</ele><time>2026-05-02T08:22:31.671Z</time></trkpt><trkpt lat="41.11856" lon="9.5154683"><ele>265.0</ele><time>2026-05-02T08:22:33.671Z</time></trkpt><trkpt lat="41.118625" lon="9.515395"><ele>265.0</ele><time>2026-05-02T08:22:35.671Z</time></trkpt><trkpt lat="41.1187017" lon="9.5153067"><ele>265.0</ele><time>2026-05-02T08:22:37.671Z</time></trkpt><trkpt lat="41.1187833" lon="9.515215"><ele>262.5</ele><time>2026-05-02T08:22:39.671Z</time></trkpt><trkpt lat="41.1188533" lon="9.515145"><ele>260.0</ele><time>2026-05-02T08:22:41.671Z</time></trkpt><trkpt lat="41.118905" lon="9.515055"><ele>257.5</ele><time>2026-05-02T08:22:43.671Z</time></trkpt><trkpt lat="41.11894" lon="9.5149683"><ele>255.0</ele><time>2026-05-02T08:22:45.672Z</time></trkpt><trkpt lat="41.1189967" lon="9.5148817"><ele>252.49999999999997</ele><time>2026-05-02T08:22:47.671Z</time></trkpt><trkpt lat="41.1190117" lon="9.5147883"><ele>250.0</ele><time>2026-05-02T08:22:49.671Z</time></trkpt><trkpt lat="41.11897" lon="9.5147217"><ele>249.99999999999997</ele><time>2026-05-02T08:22:51.671Z</time></trkpt><trkpt lat="41.1189417" lon="9.5146367"><ele>250.0</ele><time>2026-05-02T08:22:53.671Z</time></trkpt><trkpt lat="41.11891" lon="9.5145633"><ele>250.0</ele><time>2026-05-02T08:22:55.672Z</time></trkpt><trkpt lat="41.1188933" lon="9.5144767"><ele>250.0</ele><time>2026-05-02T08:22:57.671Z</time></trkpt><trkpt lat="41.11892" lon="9.51438"><ele>249.99999999999997</ele><time>2026-05-02T08:22:59.671Z</time></trkpt><trkpt lat="41.1189717" lon="9.5142717"><ele>250.0</ele><time>2026-05-02T08:23:01.671Z</time></trkpt><trkpt lat="41.1190433" lon="9.5141567"><ele>245.25</ele><time>2026-05-02T08:23:03.671Z</time></trkpt><trkpt lat="41.1191333" lon="9.5140667"><ele>240.5</ele><time>2026-05-02T08:23:05.671Z</time></trkpt><trkpt lat="41.1192333" lon="9.5140033"><ele>235.75</ele><time>2026-05-02T08:23:07.671Z</time></trkpt><trkpt lat="41.1193283" lon="9.5139233"><ele>231.0</ele><time>2026-05-02T08:23:09.671Z</time></trkpt><trkpt lat="41.1194317" lon="9.5138383"><ele>231.0</ele><time>2026-05-02T08:23:11.671Z</time></trkpt><trkpt lat="41.1194883" lon="9.5137967"><ele>231.0</ele><time>2026-05-02T08:23:12.671Z</time></trkpt><trkpt lat="41.1195483" lon="9.5137567"><ele>231.0</ele><time>2026-05-02T08:23:13.671Z</time></trkpt><trkpt lat="41.119615" lon="9.5137333"><ele>231.0</ele><time>2026-05-02T08:23:14.671Z</time></trkpt><trkpt lat="41.1196817" lon="9.5137083"><ele>231.0</ele><time>2026-05-02T08:23:15.671Z</time></trkpt><trkpt lat="41.1198033" lon="9.5136917"><ele>231.0</ele><time>2026-05-02T08:23:17.671Z</time></trkpt><trkpt lat="41.1198983" lon="9.5137083"><ele>226.20000000000002</ele><time>2026-05-02T08:23:19.671Z</time></trkpt><trkpt lat="41.11999" lon="9.5137233"><ele>221.40000000000003</ele><time>2026-05-02T08:23:21.671Z</time></trkpt><trkpt lat="41.1201" lon="9.51371"><ele>216.6</ele><time>2026-05-02T08:23:23.671Z</time></trkpt><trkpt lat="41.1201683" lon="9.5136833"><ele>211.8</ele><time>2026-05-02T08:23:24.671Z</time></trkpt><trkpt lat="41.1202333" lon="9.51365"><ele>207.0</ele><time>2026-05-02T08:23:25.671Z</time></trkpt><trkpt lat="41.1203517" lon="9.5136083"><ele>207.0</ele><time>2026-05-02T08:23:27.671Z</time></trkpt><trkpt lat="41.1204183" lon="9.5136017"><ele>207.0</ele><time>2026-05-02T08:23:28.671Z</time></trkpt><trkpt lat="41.1205383" lon="9.5135967"><ele>207.0</ele><time>2026-05-02T08:23:30.671Z</time></trkpt><trkpt lat="41.1206083" lon="9.5135867"><ele>207.0</ele><time>2026-05-02T08:23:31.671Z</time></trkpt><trkpt lat="41.1206767" lon="9.51359"><ele>207.0</ele><time>2026-05-02T08:23:32.671Z</time></trkpt><trkpt lat="41.12074" lon="9.5135817"><ele>207.0</ele><time>2026-05-02T08:23:33.671Z</time></trkpt><trkpt lat="41.1208167" lon="9.5135433"><ele>203.66666666666666</ele><time>2026-05-02T08:23:34.671Z</time></trkpt><trkpt lat="41.1208833" lon="9.5135317"><ele>200.33333333333334</ele><time>2026-05-02T08:23:35.671Z</time></trkpt><trkpt lat="41.1210033" lon="9.51352"><ele>197.0</ele><time>2026-05-02T08:23:37.671Z</time></trkpt><trkpt lat="41.12107" lon="9.51354"><ele>193.66666666666669</ele><time>2026-05-02T08:23:38.671Z</time></trkpt><trkpt lat="41.1211283" lon="9.5135717"><ele>190.33333333333334</ele><time>2026-05-02T08:23:39.671Z</time></trkpt><trkpt lat="41.1212217" lon="9.513625"><ele>187.0</ele><time>2026-05-02T08:23:41.671Z</time></trkpt><trkpt lat="41.1213017" lon="9.5136083"><ele>187.0</ele><time>2026-05-02T08:23:43.671Z</time></trkpt><trkpt lat="41.1213867" lon="9.5135417"><ele>187.0</ele><time>2026-05-02T08:23:45.671Z</time></trkpt><trkpt lat="41.12142" lon="9.51347"><ele>187.0</ele><time>2026-05-02T08:23:46.671Z</time></trkpt><trkpt lat="41.121465" lon="9.5133933"><ele>187.0</ele><time>2026-05-02T08:23:47.671Z</time></trkpt><trkpt lat="41.12152" lon="9.5133267"><ele>187.0</ele><time>2026-05-02T08:23:48.671Z</time></trkpt><trkpt lat="41.1215617" lon="9.5132583"><ele>187.0</ele><time>2026-05-02T08:23:49.671Z</time></trkpt><trkpt lat="41.1216033" lon="9.5131933"><ele>187.0</ele><time>2026-05-02T08:23:50.671Z</time></trkpt><trkpt lat="41.12165" lon="9.5131283"><ele>183.0</ele><time>2026-05-02T08:23:51.671Z</time></trkpt><trkpt lat="41.121745" lon="9.5130233"><ele>179.0</ele><time>2026-05-02T08:23:53.671Z</time></trkpt><trkpt lat="41.1218567" lon="9.51293"><ele>175.0</ele><time>2026-05-02T08:23:55.671Z</time></trkpt><trkpt lat="41.1219333" lon="9.5128783"><ele>171.0</ele><time>2026-05-02T08:23:56.671Z</time></trkpt><trkpt lat="41.1219933" lon="9.51283"><ele>167.0</ele><time>2026-05-02T08:23:57.671Z</time></trkpt><trkpt lat="41.12206" lon="9.5127767"><ele>167.0</ele><time>2026-05-02T08:23:58.671Z</time></trkpt><trkpt lat="41.1221317" lon="9.5127267"><ele>167.0</ele><time>2026-05-02T08:23:59.671Z</time></trkpt><trkpt lat="41.1222" lon="9.51266"><ele>167.0</ele><time>2026-05-02T08:24:00.671Z</time></trkpt><trkpt lat="41.12224" lon="9.51258"><ele>167.0</ele><time>2026-05-02T08:24:01.671Z</time></trkpt><trkpt lat="41.1222733" lon="9.51249"><ele>167.0</ele><time>2026-05-02T08:24:02.671Z</time></trkpt><trkpt lat="41.1223017" lon="9.5124117"><ele>167.0</ele><time>2026-05-02T08:24:03.671Z</time></trkpt><trkpt lat="41.1223517" lon="9.5123367"><ele>164.0</ele><time>2026-05-02T08:24:04.671Z</time></trkpt><trkpt lat="41.1224" lon="9.5122717"><ele>161.0</ele><time>2026-05-02T08:24:05.671Z</time></trkpt><trkpt lat="41.12246" lon="9.512215"><ele>158.0</ele><time>2026-05-02T08:24:06.671Z</time></trkpt><trkpt lat="41.1225067" lon="9.5121517"><ele>155.0</ele><time>2026-05-02T08:24:07.671Z</time></trkpt><trkpt lat="41.12254" lon="9.5120733"><ele>152.0</ele><time>2026-05-02T08:24:08.671Z</time></trkpt><trkpt lat="41.12258" lon="9.511985"><ele>149.0</ele><time>2026-05-02T08:24:09.671Z</time></trkpt><trkpt lat="41.1226167" lon="9.5118933"><ele>146.0</ele><time>2026-05-02T08:24:10.671Z</time></trkpt><trkpt lat="41.122645" lon="9.5118017"><ele>146.0</ele><time>2026-05-02T08:24:11.671Z</time></trkpt><trkpt lat="41.1226733" lon="9.5117117"><ele>146.0</ele><time>2026-05-02T08:24:12.671Z</time></trkpt><trkpt lat="41.1226883" lon="9.511625"><ele>146.0</ele><time>2026-05-02T08:24:13.671Z</time></trkpt><trkpt lat="41.12274" lon="9.5114717"><ele>146.0</ele><time>2026-05-02T08:24:15.671Z</time></trkpt><trkpt lat="41.1228367" lon="9.5113583"><ele>146.0</ele><time>2026-05-02T08:24:17.671Z</time></trkpt><trkpt lat="41.1229017" lon="9.5113233"><ele>146.0</ele><time>2026-05-02T08:24:18.671Z</time></trkpt><trkpt lat="41.1229683" lon="9.51129"><ele>146.0</ele><time>2026-05-02T08:24:19.671Z</time></trkpt><trkpt lat="41.12308" lon="9.5112967"><ele>146.0</ele><time>2026-05-02T08:24:20.672Z</time></trkpt><trkpt lat="41.12319" lon="9.5113017"><ele>146.0</ele><time>2026-05-02T08:24:21.671Z</time></trkpt><trkpt lat="41.123355" lon="9.5113533"><ele>142.25</ele><time>2026-05-02T08:24:22.671Z</time></trkpt><trkpt lat="41.1235" lon="9.5113617"><ele>138.5</ele><time>2026-05-02T08:24:23.671Z</time></trkpt><trkpt lat="41.12364" lon="9.5113633"><ele>134.75</ele><time>2026-05-02T08:24:24.671Z</time></trkpt><trkpt lat="41.1237817" lon="9.5113917"><ele>131.0</ele><time>2026-05-02T08:24:25.671Z</time></trkpt><trkpt lat="41.12391" lon="9.5114083"><ele>131.0</ele><time>2026-05-02T08:24:26.671Z</time></trkpt><trkpt lat="41.1240133" lon="9.511425"><ele>131.0</ele><time>2026-05-02T08:24:27.671Z</time></trkpt><trkpt lat="41.1240933" lon="9.5114283"><ele>131.0</ele><time>2026-05-02T08:24:28.671Z</time></trkpt><trkpt lat="41.124195" lon="9.51142"><ele>131.0</ele><time>2026-05-02T08:24:30.671Z</time></trkpt><trkpt lat="41.1242533" lon="9.5113883"><ele>131.0</ele><time>2026-05-02T08:24:31.671Z</time></trkpt><trkpt lat="41.1243133" lon="9.5112867"><ele>131.0</ele><time>2026-05-02T08:24:33.671Z</time></trkpt><trkpt lat="41.1243133" lon="9.5111783"><ele>132.0</ele><time>2026-05-02T08:24:36.671Z</time></trkpt><trkpt lat="41.1242233" lon="9.5111183"><ele>133.0</ele><time>2026-05-02T08:24:39.671Z</time></trkpt><trkpt lat="41.1241433" lon="9.5110617"><ele>134.0</ele><time>2026-05-02T08:24:41.671Z</time></trkpt><trkpt lat="41.1240267" lon="9.5109933"><ele>135.0</ele><time>2026-05-02T08:24:43.671Z</time></trkpt><trkpt lat="41.1239633" lon="9.510965"><ele>136.0</ele><time>2026-05-02T08:24:44.671Z</time></trkpt><trkpt lat="41.1238517" lon="9.5109117"><ele>136.8</ele><time>2026-05-02T08:24:46.671Z</time></trkpt><trkpt lat="41.1237383" lon="9.5108567"><ele>137.6</ele><time>2026-05-02T08:24:48.671Z</time></trkpt><trkpt lat="41.12365" lon="9.5107933"><ele>138.4</ele><time>2026-05-02T08:24:50.671Z</time></trkpt><trkpt lat="41.1235783" lon="9.5107167"><ele>139.2</ele><time>2026-05-02T08:24:52.671Z</time></trkpt><trkpt lat="41.12352" lon="9.51066"><ele>140.0</ele><time>2026-05-02T08:24:55.671Z</time></trkpt><trkpt lat="41.1233983" lon="9.5106883"><ele>140.0</ele><time>2026-05-02T08:25:04.671Z</time></trkpt><trkpt lat="41.1232767" lon="9.510645"><ele>140.0</ele><time>2026-05-02T08:25:06.671Z</time></trkpt><trkpt lat="41.1231917" lon="9.5105883"><ele>140.0</ele><time>2026-05-02T08:25:07.671Z</time></trkpt><trkpt lat="41.1231" lon="9.5105217"><ele>140.0</ele><time>2026-05-02T08:25:08.671Z</time></trkpt><trkpt lat="41.1230133" lon="9.5104483"><ele>140.0</ele><time>2026-05-02T08:25:09.671Z</time></trkpt><trkpt lat="41.1229317" lon="9.5103717"><ele>141.75</ele><time>2026-05-02T08:25:10.671Z</time></trkpt><trkpt lat="41.1228567" lon="9.5102783"><ele>143.5</ele><time>2026-05-02T08:25:11.671Z</time></trkpt><trkpt lat="41.1227683" lon="9.510165"><ele>145.25</ele><time>2026-05-02T08:25:12.672Z</time></trkpt><trkpt lat="41.122665" lon="9.5100683"><ele>147.0</ele><time>2026-05-02T08:25:13.671Z</time></trkpt><trkpt lat="41.1225483" lon="9.5099617"><ele>147.0</ele><time>2026-05-02T08:25:14.671Z</time></trkpt><trkpt lat="41.1224333" lon="9.50986"><ele>147.0</ele><time>2026-05-02T08:25:15.671Z</time></trkpt><trkpt lat="41.122325" lon="9.5097767"><ele>147.0</ele><time>2026-05-02T08:25:16.671Z</time></trkpt><trkpt lat="41.12222" lon="9.5097167"><ele>147.0</ele><time>2026-05-02T08:25:17.671Z</time></trkpt><trkpt lat="41.122085" lon="9.5096817"><ele>146.4</ele><time>2026-05-02T08:25:18.671Z</time></trkpt><trkpt lat="41.1219483" lon="9.5096567"><ele>145.79999999999998</ele><time>2026-05-02T08:25:19.671Z</time></trkpt><trkpt lat="41.121845" lon="9.5096117"><ele>145.2</ele><time>2026-05-02T08:25:20.671Z</time></trkpt><trkpt lat="41.1217467" lon="9.50957"><ele>144.6</ele><time>2026-05-02T08:25:21.671Z</time></trkpt><trkpt lat="41.121655" lon="9.5095267"><ele>144.0</ele><time>2026-05-02T08:25:22.671Z</time></trkpt><trkpt lat="41.1215767" lon="9.50946"><ele>143.8</ele><time>2026-05-02T08:25:23.671Z</time></trkpt><trkpt lat="41.1214867" lon="9.5094"><ele>143.60000000000002</ele><time>2026-05-02T08:25:24.671Z</time></trkpt><trkpt lat="41.1214033" lon="9.5093417"><ele>143.4</ele><time>2026-05-02T08:25:25.671Z</time></trkpt><trkpt lat="41.12133" lon="9.50927"><ele>143.20000000000002</ele><time>2026-05-02T08:25:26.671Z</time></trkpt><trkpt lat="41.1212583" lon="9.5092067"><ele>143.0</ele><time>2026-05-02T08:25:27.671Z</time></trkpt><trkpt lat="41.121185" lon="9.5091517"><ele>142.99999999999997</ele><time>2026-05-02T08:25:28.671Z</time></trkpt><trkpt lat="41.121125" lon="9.509095"><ele>143.0</ele><time>2026-05-02T08:25:29.671Z</time></trkpt><trkpt lat="41.12106" lon="9.5090667"><ele>143.0</ele><time>2026-05-02T08:25:30.671Z</time></trkpt><trkpt lat="41.1209933" lon="9.509055"><ele>143.0</ele><time>2026-05-02T08:25:31.67Z</time></trkpt><trkpt lat="41.1209267" lon="9.50903"><ele>143.0</ele><time>2026-05-02T08:25:32.67Z</time></trkpt><trkpt lat="41.1208533" lon="9.50901"><ele>142.99999999999997</ele><time>2026-05-02T08:25:33.67Z</time></trkpt><trkpt lat="41.1207867" lon="9.5089683"><ele>143.0</ele><time>2026-05-02T08:25:34.67Z</time></trkpt><trkpt lat="41.1206967" lon="9.5089117"><ele>144.20000000000002</ele><time>2026-05-02T08:25:35.67Z</time></trkpt><trkpt lat="41.120615" lon="9.5088717"><ele>145.4</ele><time>2026-05-02T08:25:36.67Z</time></trkpt><trkpt lat="41.1205233" lon="9.508855"><ele>146.60000000000002</ele><time>2026-05-02T08:25:37.67Z</time></trkpt><trkpt lat="41.1204367" lon="9.50885"><ele>147.8</ele><time>2026-05-02T08:25:38.67Z</time></trkpt><trkpt lat="41.1203317" lon="9.5088567"><ele>149.0</ele><time>2026-05-02T08:25:39.67Z</time></trkpt><trkpt lat="41.120225" lon="9.5088683"><ele>149.0</ele><time>2026-05-02T08:25:40.67Z</time></trkpt><trkpt lat="41.1201167" lon="9.50887"><ele>149.0</ele><time>2026-05-02T08:25:41.67Z</time></trkpt><trkpt lat="41.11999" lon="9.50888"><ele>149.0</ele><time>2026-05-02T08:25:42.67Z</time></trkpt><trkpt lat="41.1198717" lon="9.5088933"><ele>149.0</ele><time>2026-05-02T08:25:43.67Z</time></trkpt><trkpt lat="41.1197633" lon="9.5089183"><ele>150.0</ele><time>2026-05-02T08:25:44.67Z</time></trkpt><trkpt lat="41.119655" lon="9.5089633"><ele>151.0</ele><time>2026-05-02T08:25:45.67Z</time></trkpt><trkpt lat="41.119565" lon="9.5090267"><ele>152.0</ele><time>2026-05-02T08:25:46.67Z</time></trkpt><trkpt lat="41.1194783" lon="9.5090933"><ele>153.0</ele><time>2026-05-02T08:25:47.67Z</time></trkpt><trkpt lat="41.119395" lon="9.5091433"><ele>154.0</ele><time>2026-05-02T08:25:48.67Z</time></trkpt><trkpt lat="41.1193233" lon="9.50918"><ele>154.0</ele><time>2026-05-02T08:25:49.67Z</time></trkpt><trkpt lat="41.11925" lon="9.50921"><ele>154.0</ele><time>2026-05-02T08:25:50.67Z</time></trkpt><trkpt lat="41.119165" lon="9.5092267"><ele>154.0</ele><time>2026-05-02T08:25:51.67Z</time></trkpt><trkpt lat="41.1190967" lon="9.5092117"><ele>154.0</ele><time>2026-05-02T08:25:52.67Z</time></trkpt><trkpt lat="41.119025" lon="9.5091617"><ele>154.0</ele><time>2026-05-02T08:25:53.67Z</time></trkpt><trkpt lat="41.118965" lon="9.5090767"><ele>154.0</ele><time>2026-05-02T08:25:54.67Z</time></trkpt><trkpt lat="41.118915" lon="9.508965"><ele>155.0</ele><time>2026-05-02T08:25:55.67Z</time></trkpt><trkpt lat="41.1188733" lon="9.5088533"><ele>156.0</ele><time>2026-05-02T08:25:56.67Z</time></trkpt><trkpt lat="41.11882" lon="9.5087483"><ele>157.0</ele><time>2026-05-02T08:25:57.67Z</time></trkpt><trkpt lat="41.11877" lon="9.5086383"><ele>158.0</ele><time>2026-05-02T08:25:58.67Z</time></trkpt><trkpt lat="41.118705" lon="9.5085333"><ele>159.0</ele><time>2026-05-02T08:25:59.67Z</time></trkpt><trkpt lat="41.118635" lon="9.508425"><ele>159.0</ele><time>2026-05-02T08:26:00.67Z</time></trkpt><trkpt lat="41.118565" lon="9.5083433"><ele>159.0</ele><time>2026-05-02T08:26:01.67Z</time></trkpt><trkpt lat="41.1185133" lon="9.5082617"><ele>159.0</ele><time>2026-05-02T08:26:02.67Z</time></trkpt><trkpt lat="41.1184667" lon="9.5081767"><ele>159.0</ele><time>2026-05-02T08:26:03.67Z</time></trkpt><trkpt lat="41.1184183" lon="9.5081017"><ele>159.0</ele><time>2026-05-02T08:26:04.67Z</time></trkpt><trkpt lat="41.1183817" lon="9.50802"><ele>159.0</ele><time>2026-05-02T08:26:05.67Z</time></trkpt><trkpt lat="41.11834" lon="9.50794"><ele>159.83333333333334</ele><time>2026-05-02T08:26:06.67Z</time></trkpt><trkpt lat="41.1182983" lon="9.5078517"><ele>160.66666666666666</ele><time>2026-05-02T08:26:07.67Z</time></trkpt><trkpt lat="41.1182667" lon="9.507755"><ele>161.5</ele><time>2026-05-02T08:26:08.67Z</time></trkpt><trkpt lat="41.118235" lon="9.5076683"><ele>162.33333333333331</ele><time>2026-05-02T08:26:09.67Z</time></trkpt><trkpt lat="41.1181967" lon="9.5075817"><ele>163.16666666666666</ele><time>2026-05-02T08:26:10.67Z</time></trkpt><trkpt lat="41.118145" lon="9.507515"><ele>164.0</ele><time>2026-05-02T08:26:11.67Z</time></trkpt><trkpt lat="41.1180767" lon="9.5074483"><ele>164.0</ele><time>2026-05-02T08:26:12.67Z</time></trkpt><trkpt lat="41.1180167" lon="9.5073833"><ele>164.0</ele><time>2026-05-02T08:26:13.67Z</time></trkpt><trkpt lat="41.1179883" lon="9.5073083"><ele>164.0</ele><time>2026-05-02T08:26:14.67Z</time></trkpt><trkpt lat="41.11796" lon="9.5072167"><ele>164.0</ele><time>2026-05-02T08:26:15.67Z</time></trkpt><trkpt lat="41.1179333" lon="9.5071383"><ele>164.0</ele><time>2026-05-02T08:26:16.67Z</time></trkpt><trkpt lat="41.1178933" lon="9.5070467"><ele>164.0</ele><time>2026-05-02T08:26:17.67Z</time></trkpt><trkpt lat="41.117865" lon="9.5069017"><ele>162.16666666666666</ele><time>2026-05-02T08:26:19.67Z</time></trkpt><trkpt lat="41.117835" lon="9.5067783"><ele>160.33333333333331</ele><time>2026-05-02T08:26:21.67Z</time></trkpt><trkpt lat="41.1178" lon="9.506685"><ele>158.5</ele><time>2026-05-02T08:26:23.67Z</time></trkpt><trkpt lat="41.1177367" lon="9.5065733"><ele>156.66666666666666</ele><time>2026-05-02T08:26:25.67Z</time></trkpt><trkpt lat="41.1176933" lon="9.5065083"><ele>154.83333333333334</ele><time>2026-05-02T08:26:26.67Z</time></trkpt><trkpt lat="41.1176533" lon="9.50644"><ele>153.0</ele><time>2026-05-02T08:26:27.67Z</time></trkpt><trkpt lat="41.117615" lon="9.5063733"><ele>153.0</ele><time>2026-05-02T08:26:28.67Z</time></trkpt><trkpt lat="41.1175767" lon="9.5063067"><ele>153.0</ele><time>2026-05-02T08:26:29.67Z</time></trkpt><trkpt lat="41.1175317" lon="9.5062433"><ele>153.0</ele><time>2026-05-02T08:26:30.67Z</time></trkpt><trkpt lat="41.1174367" lon="9.506155"><ele>153.0</ele><time>2026-05-02T08:26:32.67Z</time></trkpt><trkpt lat="41.1173683" lon="9.5060667"><ele>153.0</ele><time>2026-05-02T08:26:34.67Z</time></trkpt><trkpt lat="41.1173" lon="9.5059833"><ele>153.0</ele><time>2026-05-02T08:26:36.67Z</time></trkpt><trkpt lat="41.1172717" lon="9.505885"><ele>153.83333333333334</ele><time>2026-05-02T08:26:38.67Z</time></trkpt><trkpt lat="41.1172783" lon="9.5057883"><ele>154.66666666666666</ele><time>2026-05-02T08:26:40.67Z</time></trkpt><trkpt lat="41.1173283" lon="9.505735"><ele>155.5</ele><time>2026-05-02T08:26:42.67Z</time></trkpt><trkpt lat="41.1174067" lon="9.50572"><ele>156.33333333333331</ele><time>2026-05-02T08:26:44.67Z</time></trkpt><trkpt lat="41.1174867" lon="9.5056767"><ele>157.16666666666666</ele><time>2026-05-02T08:26:46.67Z</time></trkpt><trkpt lat="41.1175683" lon="9.505655"><ele>158.0</ele><time>2026-05-02T08:26:48.67Z</time></trkpt><trkpt lat="41.11767" lon="9.5056583"><ele>158.0</ele><time>2026-05-02T08:26:50.67Z</time></trkpt><trkpt lat="41.1177733" lon="9.505695"><ele>158.0</ele><time>2026-05-02T08:26:52.67Z</time></trkpt><trkpt lat="41.117875" lon="9.50573"><ele>158.0</ele><time>2026-05-02T08:26:54.67Z</time></trkpt><trkpt lat="41.1179733" lon="9.5057467"><ele>158.0</ele><time>2026-05-02T08:26:56.67Z</time></trkpt><trkpt lat="41.1180867" lon="9.5057183"><ele>158.0</ele><time>2026-05-02T08:26:58.67Z</time></trkpt><trkpt lat="41.1181683" lon="9.505685"><ele>157.83333333333331</ele><time>2026-05-02T08:26:59.67Z</time></trkpt><trkpt lat="41.118235" lon="9.5056617"><ele>157.66666666666666</ele><time>2026-05-02T08:27:00.67Z</time></trkpt><trkpt lat="41.1182967" lon="9.5056333"><ele>157.5</ele><time>2026-05-02T08:27:01.67Z</time></trkpt><trkpt lat="41.118385" lon="9.50556"><ele>157.33333333333334</ele><time>2026-05-02T08:27:03.67Z</time></trkpt><trkpt lat="41.1184667" lon="9.505445"><ele>157.16666666666669</ele><time>2026-05-02T08:27:05.67Z</time></trkpt><trkpt lat="41.11853" lon="9.50538"><ele>157.0</ele><time>2026-05-02T08:27:06.67Z</time></trkpt><trkpt lat="41.1186467" lon="9.505275"><ele>158.39999999999998</ele><time>2026-05-02T08:27:08.67Z</time></trkpt><trkpt lat="41.1187617" lon="9.5052033"><ele>159.79999999999998</ele><time>2026-05-02T08:27:10.67Z</time></trkpt><trkpt lat="41.1188267" lon="9.50517"><ele>161.2</ele><time>2026-05-02T08:27:11.67Z</time></trkpt><trkpt lat="41.118925" lon="9.5051117"><ele>162.6</ele><time>2026-05-02T08:27:13.67Z</time></trkpt><trkpt lat="41.1190333" lon="9.5050517"><ele>164.0</ele><time>2026-05-02T08:27:15.67Z</time></trkpt><trkpt lat="41.1190917" lon="9.5050167"><ele>164.0</ele><time>2026-05-02T08:27:16.67Z</time></trkpt><trkpt lat="41.1191883" lon="9.5049467"><ele>164.0</ele><time>2026-05-02T08:27:18.67Z</time></trkpt><trkpt lat="41.1192733" lon="9.5048917"><ele>164.0</ele><time>2026-05-02T08:27:20.67Z</time></trkpt><trkpt lat="41.1193383" lon="9.5048383"><ele>164.0</ele><time>2026-05-02T08:27:23.67Z</time></trkpt><trkpt lat="41.1194317" lon="9.504815"><ele>164.0</ele><time>2026-05-02T08:27:50.67Z</time></trkpt><trkpt lat="41.1194267" lon="9.5049017"><ele>164.0</ele><time>2026-05-02T08:30:15.67Z</time></trkpt><trkpt lat="41.1195083" lon="9.504885"><ele>164.0</ele><time>2026-05-02T08:30:18.67Z</time></trkpt><trkpt lat="41.1195783" lon="9.504865"><ele>164.0</ele><time>2026-05-02T08:30:20.67Z</time></trkpt><trkpt lat="41.1196633" lon="9.50482"><ele>164.0</ele><time>2026-05-02T08:30:22.67Z</time></trkpt><trkpt lat="41.1197067" lon="9.5047467"><ele>164.0</ele><time>2026-05-02T08:30:24.67Z</time></trkpt><trkpt lat="41.1197433" lon="9.504665"><ele>164.0</ele><time>2026-05-02T08:30:26.67Z</time></trkpt><trkpt lat="41.1197717" lon="9.50457"><ele>164.0</ele><time>2026-05-02T08:30:28.67Z</time></trkpt><trkpt lat="41.1197883" lon="9.5044533"><ele>164.0</ele><time>2026-05-02T08:30:30.67Z</time></trkpt><trkpt lat="41.1197933" lon="9.5043333"><ele>164.0</ele><time>2026-05-02T08:30:32.67Z</time></trkpt><trkpt lat="41.1197617" lon="9.50442"><ele>164.0</ele><time>2026-05-02T08:31:24.67Z</time></trkpt><trkpt lat="41.11977" lon="9.5045183"><ele>164.0</ele><time>2026-05-02T08:31:26.67Z</time></trkpt><trkpt lat="41.1197633" lon="9.5046067"><ele>164.0</ele><time>2026-05-02T08:31:28.67Z</time></trkpt><trkpt lat="41.1197183" lon="9.504705"><ele>164.0</ele><time>2026-05-02T08:31:30.67Z</time></trkpt><trkpt lat="41.1196667" lon="9.5047783"><ele>164.0</ele><time>2026-05-02T08:31:32.67Z</time></trkpt><trkpt lat="41.1196033" lon="9.5048233"><ele>164.0</ele><time>2026-05-02T08:31:34.67Z</time></trkpt><trkpt lat="41.11952" lon="9.50483"><ele>164.0</ele><time>2026-05-02T08:31:36.67Z</time></trkpt><trkpt lat="41.1194233" lon="9.5048467"><ele>164.0</ele><time>2026-05-02T08:31:38.67Z</time></trkpt><trkpt lat="41.119355" lon="9.5048983"><ele>164.0</ele><time>2026-05-02T08:31:40.67Z</time></trkpt><trkpt lat="41.1192867" lon="9.5049633"><ele>164.0</ele><time>2026-05-02T08:31:42.67Z</time></trkpt><trkpt lat="41.1191967" lon="9.505025"><ele>164.0</ele><time>2026-05-02T08:31:44.67Z</time></trkpt><trkpt lat="41.1191067" lon="9.5050717"><ele>164.0</ele><time>2026-05-02T08:31:46.67Z</time></trkpt><trkpt lat="41.1190483" lon="9.505135"><ele>164.0</ele><time>2026-05-02T08:31:48.67Z</time></trkpt><trkpt lat="41.118945" lon="9.505195"><ele>164.0</ele><time>2026-05-02T08:31:51.67Z</time></trkpt><trkpt lat="41.1188633" lon="9.50524"><ele>164.0</ele><time>2026-05-02T08:31:53.67Z</time></trkpt><trkpt lat="41.118795" lon="9.5053067"><ele>162.83333333333331</ele><time>2026-05-02T08:31:55.67Z</time></trkpt><trkpt lat="41.1187" lon="9.505395"><ele>161.66666666666666</ele><time>2026-05-02T08:31:57.67Z</time></trkpt><trkpt lat="41.1186433" lon="9.5054383"><ele>160.5</ele><time>2026-05-02T08:31:58.67Z</time></trkpt><trkpt lat="41.118575" lon="9.5055333"><ele>159.33333333333334</ele><time>2026-05-02T08:32:00.67Z</time></trkpt><trkpt lat="41.1185083" lon="9.5056"><ele>158.16666666666669</ele><time>2026-05-02T08:32:02.67Z</time></trkpt><trkpt lat="41.1184283" lon="9.5056383"><ele>157.0</ele><time>2026-05-02T08:32:04.67Z</time></trkpt><trkpt lat="41.1183083" lon="9.5057017"><ele>157.0</ele><time>2026-05-02T08:32:06.67Z</time></trkpt><trkpt lat="41.1182383" lon="9.5057267"><ele>157.0</ele><time>2026-05-02T08:32:07.67Z</time></trkpt><trkpt lat="41.1181733" lon="9.505755"><ele>157.0</ele><time>2026-05-02T08:32:08.67Z</time></trkpt><trkpt lat="41.1180533" lon="9.5057933"><ele>157.0</ele><time>2026-05-02T08:32:10.67Z</time></trkpt><trkpt lat="41.1179383" lon="9.505795"><ele>157.0</ele><time>2026-05-02T08:32:12.67Z</time></trkpt><trkpt lat="41.1178183" lon="9.505735"><ele>157.2</ele><time>2026-05-02T08:32:14.67Z</time></trkpt><trkpt lat="41.1177617" lon="9.505695"><ele>157.39999999999998</ele><time>2026-05-02T08:32:15.67Z</time></trkpt><trkpt lat="41.1176483" lon="9.50563"><ele>157.60000000000002</ele><time>2026-05-02T08:32:17.67Z</time></trkpt><trkpt lat="41.1175533" lon="9.505615"><ele>157.8</ele><time>2026-05-02T08:32:19.67Z</time></trkpt><trkpt lat="41.117435" lon="9.50565"><ele>158.0</ele><time>2026-05-02T08:32:21.67Z</time></trkpt><trkpt lat="41.117345" lon="9.5056833"><ele>158.0</ele><time>2026-05-02T08:32:23.67Z</time></trkpt><trkpt lat="41.1172783" lon="9.50572"><ele>158.0</ele><time>2026-05-02T08:32:25.67Z</time></trkpt><trkpt lat="41.1172417" lon="9.5058067"><ele>158.0</ele><time>2026-05-02T08:32:27.67Z</time></trkpt><trkpt lat="41.1172683" lon="9.5059233"><ele>158.0</ele><time>2026-05-02T08:32:29.67Z</time></trkpt><trkpt lat="41.1173067" lon="9.5060317"><ele>158.0</ele><time>2026-05-02T08:32:31.67Z</time></trkpt><trkpt lat="41.1173933" lon="9.5061133"><ele>158.0</ele><time>2026-05-02T08:32:33.67Z</time></trkpt><trkpt lat="41.1174617" lon="9.5061333"><ele>158.00000000000003</ele><time>2026-05-02T08:32:34.67Z</time></trkpt><trkpt lat="41.11753" lon="9.506175"><ele>158.0</ele><time>2026-05-02T08:32:35.67Z</time></trkpt><trkpt lat="41.1175917" lon="9.5062233"><ele>158.0</ele><time>2026-05-02T08:32:36.67Z</time></trkpt><trkpt lat="41.1176467" lon="9.506275"><ele>158.0</ele><time>2026-05-02T08:32:37.67Z</time></trkpt><trkpt lat="41.1176933" lon="9.506345"><ele>158.0</ele><time>2026-05-02T08:32:38.67Z</time></trkpt><trkpt lat="41.11775" lon="9.5064183"><ele>158.00000000000003</ele><time>2026-05-02T08:32:39.671Z</time></trkpt><trkpt lat="41.1178133" lon="9.50648"><ele>158.0</ele><time>2026-05-02T08:32:40.67Z</time></trkpt><trkpt lat="41.1178817" lon="9.5065333"><ele>157.0</ele><time>2026-05-02T08:32:41.67Z</time></trkpt><trkpt lat="41.117955" lon="9.506575"><ele>156.0</ele><time>2026-05-02T08:32:42.67Z</time></trkpt><trkpt lat="41.11804" lon="9.506595"><ele>155.0</ele><time>2026-05-02T08:32:43.67Z</time></trkpt><trkpt lat="41.118115" lon="9.506715"><ele>154.0</ele><time>2026-05-02T08:32:45.67Z</time></trkpt><trkpt lat="41.118155" lon="9.5068717"><ele>153.0</ele><time>2026-05-02T08:32:47.67Z</time></trkpt><trkpt lat="41.1181733" lon="9.5069567"><ele>153.0</ele><time>2026-05-02T08:32:48.67Z</time></trkpt><trkpt lat="41.118185" lon="9.50704"><ele>153.0</ele><time>2026-05-02T08:32:49.67Z</time></trkpt><trkpt lat="41.118215" lon="9.507195"><ele>153.0</ele><time>2026-05-02T08:32:51.67Z</time></trkpt><trkpt lat="41.1182683" lon="9.5073233"><ele>153.0</ele><time>2026-05-02T08:32:53.67Z</time></trkpt><trkpt lat="41.1182967" lon="9.5074"><ele>153.0</ele><time>2026-05-02T08:32:54.67Z</time></trkpt><trkpt lat="41.1183217" lon="9.5074767"><ele>153.0</ele><time>2026-05-02T08:32:55.67Z</time></trkpt><trkpt lat="41.1183467" lon="9.50756"><ele>152.66666666666666</ele><time>2026-05-02T08:32:56.67Z</time></trkpt><trkpt lat="41.1183683" lon="9.5076483"><ele>152.33333333333334</ele><time>2026-05-02T08:32:57.67Z</time></trkpt><trkpt lat="41.1183967" lon="9.507745"><ele>152.0</ele><time>2026-05-02T08:32:58.67Z</time></trkpt><trkpt lat="41.11843" lon="9.5078433"><ele>151.66666666666669</ele><time>2026-05-02T08:32:59.67Z</time></trkpt><trkpt lat="41.118445" lon="9.5079283"><ele>151.33333333333334</ele><time>2026-05-02T08:33:00.67Z</time></trkpt><trkpt lat="41.1184917" lon="9.5080583"><ele>151.0</ele><time>2026-05-02T08:33:02.67Z</time></trkpt><trkpt lat="41.1185117" lon="9.5081633"><ele>152.33333333333334</ele><time>2026-05-02T08:33:04.67Z</time></trkpt><trkpt lat="41.1185017" lon="9.5082567"><ele>153.66666666666669</ele><time>2026-05-02T08:33:06.67Z</time></trkpt><trkpt lat="41.1184633" lon="9.5083283"><ele>155.0</ele><time>2026-05-02T08:33:08.67Z</time></trkpt><trkpt lat="41.1184067" lon="9.50846"><ele>156.33333333333334</ele><time>2026-05-02T08:33:16.67Z</time></trkpt><trkpt lat="41.1184867" lon="9.5083983"><ele>157.66666666666666</ele><time>2026-05-02T08:34:16.67Z</time></trkpt><trkpt lat="41.1185417" lon="9.5084433"><ele>159.0</ele><time>2026-05-02T08:34:51.67Z</time></trkpt><trkpt lat="41.1186" lon="9.5085717"><ele>159.0</ele><time>2026-05-02T08:35:16.67Z</time></trkpt><trkpt lat="41.1186683" lon="9.5086917"><ele>159.0</ele><time>2026-05-02T08:35:18.67Z</time></trkpt><trkpt lat="41.118715" lon="9.50875"><ele>159.0</ele><time>2026-05-02T08:35:19.67Z</time></trkpt><trkpt lat="41.1187617" lon="9.5088267"><ele>159.0</ele><time>2026-05-02T08:35:20.67Z</time></trkpt><trkpt lat="41.1187967" lon="9.5089267"><ele>159.0</ele><time>2026-05-02T08:35:21.67Z</time></trkpt><trkpt lat="41.1188333" lon="9.5090183"><ele>159.0</ele><time>2026-05-02T08:35:22.67Z</time></trkpt><trkpt lat="41.1188683" lon="9.5090967"><ele>158.0</ele><time>2026-05-02T08:35:23.67Z</time></trkpt><trkpt lat="41.11896" lon="9.5092267"><ele>157.0</ele><time>2026-05-02T08:35:25.67Z</time></trkpt><trkpt lat="41.1190317" lon="9.5092767"><ele>156.0</ele><time>2026-05-02T08:35:26.67Z</time></trkpt><trkpt lat="41.1191033" lon="9.5093267"><ele>155.0</ele><time>2026-05-02T08:35:27.67Z</time></trkpt><trkpt lat="41.119185" lon="9.509355"><ele>154.0</ele><time>2026-05-02T08:35:28.67Z</time></trkpt><trkpt lat="41.1192533" lon="9.5093833"><ele>154.0</ele><time>2026-05-02T08:35:29.67Z</time></trkpt><trkpt lat="41.1193233" lon="9.5093767"><ele>154.0</ele><time>2026-05-02T08:35:30.67Z</time></trkpt><trkpt lat="41.1194017" lon="9.5093483"><ele>154.0</ele><time>2026-05-02T08:35:31.67Z</time></trkpt><trkpt lat="41.11951" lon="9.509285"><ele>154.0</ele><time>2026-05-02T08:35:32.67Z</time></trkpt><trkpt lat="41.1196167" lon="9.5092067"><ele>154.0</ele><time>2026-05-02T08:35:33.67Z</time></trkpt><trkpt lat="41.119725" lon="9.509135"><ele>154.0</ele><time>2026-05-02T08:35:34.67Z</time></trkpt><trkpt lat="41.1198383" lon="9.5090783"><ele>154.0</ele><time>2026-05-02T08:35:35.67Z</time></trkpt><trkpt lat="41.119965" lon="9.50903"><ele>154.0</ele><time>2026-05-02T08:35:36.67Z</time></trkpt><trkpt lat="41.120085" lon="9.5089933"><ele>154.0</ele><time>2026-05-02T08:35:37.67Z</time></trkpt><trkpt lat="41.1201967" lon="9.5089567"><ele>153.0</ele><time>2026-05-02T08:35:38.67Z</time></trkpt><trkpt lat="41.120315" lon="9.5089183"><ele>152.0</ele><time>2026-05-02T08:35:39.67Z</time></trkpt><trkpt lat="41.12042" lon="9.5088917"><ele>151.0</ele><time>2026-05-02T08:35:40.67Z</time></trkpt><trkpt lat="41.1205233" lon="9.5088717"><ele>150.0</ele><time>2026-05-02T08:35:41.67Z</time></trkpt><trkpt lat="41.1206267" lon="9.50888"><ele>149.0</ele><time>2026-05-02T08:35:42.67Z</time></trkpt><trkpt lat="41.12074" lon="9.5089183"><ele>147.8</ele><time>2026-05-02T08:35:43.67Z</time></trkpt><trkpt lat="41.1208517" lon="9.5089483"><ele>146.60000000000002</ele><time>2026-05-02T08:35:44.67Z</time></trkpt><trkpt lat="41.12096" lon="9.508985"><ele>145.4</ele><time>2026-05-02T08:35:45.67Z</time></trkpt><trkpt lat="41.1210767" lon="9.5090067"><ele>144.20000000000002</ele><time>2026-05-02T08:35:46.67Z</time></trkpt><trkpt lat="41.1211717" lon="9.509025"><ele>143.0</ele><time>2026-05-02T08:35:47.67Z</time></trkpt><trkpt lat="41.121255" lon="9.509065"><ele>143.0</ele><time>2026-05-02T08:35:48.67Z</time></trkpt><trkpt lat="41.1213267" lon="9.5090983"><ele>143.0</ele><time>2026-05-02T08:35:49.67Z</time></trkpt><trkpt lat="41.1213933" lon="9.509155"><ele>143.0</ele><time>2026-05-02T08:35:50.67Z</time></trkpt><trkpt lat="41.1214483" lon="9.5092233"><ele>143.0</ele><time>2026-05-02T08:35:51.67Z</time></trkpt><trkpt lat="41.1215017" lon="9.5093017"><ele>143.0</ele><time>2026-05-02T08:35:52.67Z</time></trkpt><trkpt lat="41.1215617" lon="9.509365"><ele>143.0</ele><time>2026-05-02T08:35:53.67Z</time></trkpt><trkpt lat="41.12163" lon="9.5094367"><ele>143.20000000000002</ele><time>2026-05-02T08:35:54.67Z</time></trkpt><trkpt lat="41.1217067" lon="9.509505"><ele>143.4</ele><time>2026-05-02T08:35:55.67Z</time></trkpt><trkpt lat="41.1217917" lon="9.509565"><ele>143.60000000000002</ele><time>2026-05-02T08:35:56.67Z</time></trkpt><trkpt lat="41.1218733" lon="9.5096117"><ele>143.8</ele><time>2026-05-02T08:35:57.67Z</time></trkpt><trkpt lat="41.121955" lon="9.509645"><ele>144.0</ele><time>2026-05-02T08:35:58.67Z</time></trkpt><trkpt lat="41.1220433" lon="9.509675"><ele>144.6</ele><time>2026-05-02T08:35:59.67Z</time></trkpt><trkpt lat="41.1221367" lon="9.5097133"><ele>145.2</ele><time>2026-05-02T08:36:00.67Z</time></trkpt><trkpt lat="41.122245" lon="9.509755"><ele>145.79999999999998</ele><time>2026-05-02T08:36:01.67Z</time></trkpt><trkpt lat="41.1223467" lon="9.5098083"><ele>146.4</ele><time>2026-05-02T08:36:02.67Z</time></trkpt><trkpt lat="41.1224583" lon="9.5098683"><ele>147.0</ele><time>2026-05-02T08:36:03.67Z</time></trkpt><trkpt lat="41.1225533" lon="9.5099533"><ele>147.0</ele><time>2026-05-02T08:36:04.67Z</time></trkpt><trkpt lat="41.1226617" lon="9.510055"><ele>147.0</ele><time>2026-05-02T08:36:05.67Z</time></trkpt><trkpt lat="41.122765" lon="9.5101533"><ele>147.0</ele><time>2026-05-02T08:36:06.67Z</time></trkpt><trkpt lat="41.1228567" lon="9.51025"><ele>147.0</ele><time>2026-05-02T08:36:07.67Z</time></trkpt><trkpt lat="41.1229367" lon="9.510355"><ele>147.75</ele><time>2026-05-02T08:36:08.67Z</time></trkpt><trkpt lat="41.1230167" lon="9.510455"><ele>148.5</ele><time>2026-05-02T08:36:09.67Z</time></trkpt><trkpt lat="41.1231017" lon="9.5105433"><ele>149.25</ele><time>2026-05-02T08:36:10.67Z</time></trkpt><trkpt lat="41.1232083" lon="9.5106133"><ele>150.0</ele><time>2026-05-02T08:36:11.67Z</time></trkpt><trkpt lat="41.1233133" lon="9.5106783"><ele>148.0</ele><time>2026-05-02T08:36:12.67Z</time></trkpt><trkpt lat="41.1234167" lon="9.5107567"><ele>146.0</ele><time>2026-05-02T08:36:13.67Z</time></trkpt><trkpt lat="41.1235133" lon="9.5108267"><ele>144.0</ele><time>2026-05-02T08:36:14.67Z</time></trkpt><trkpt lat="41.1236083" lon="9.5108983"><ele>142.0</ele><time>2026-05-02T08:36:15.67Z</time></trkpt><trkpt lat="41.1236983" lon="9.5109683"><ele>140.0</ele><time>2026-05-02T08:36:16.67Z</time></trkpt><trkpt lat="41.1237967" lon="9.51103"><ele>140.0</ele><time>2026-05-02T08:36:17.67Z</time></trkpt><trkpt lat="41.123895" lon="9.5110833"><ele>140.0</ele><time>2026-05-02T08:36:18.67Z</time></trkpt><trkpt lat="41.1240033" lon="9.5111283"><ele>140.0</ele><time>2026-05-02T08:36:19.67Z</time></trkpt><trkpt lat="41.1241117" lon="9.5111733"><ele>140.0</ele><time>2026-05-02T08:36:20.67Z</time></trkpt><trkpt lat="41.1242183" lon="9.5112267"><ele>140.0</ele><time>2026-05-02T08:36:21.67Z</time></trkpt><trkpt lat="41.1243317" lon="9.5112617"><ele>137.4</ele><time>2026-05-02T08:36:22.67Z</time></trkpt><trkpt lat="41.1244483" lon="9.5112817"><ele>134.8</ele><time>2026-05-02T08:36:23.67Z</time></trkpt><trkpt lat="41.1245583" lon="9.511285"><ele>132.2</ele><time>2026-05-02T08:36:24.67Z</time></trkpt><trkpt lat="41.1246617" lon="9.5112933"><ele>129.6</ele><time>2026-05-02T08:36:25.67Z</time></trkpt><trkpt lat="41.1247733" lon="9.51128"><ele>127.0</ele><time>2026-05-02T08:36:26.67Z</time></trkpt><trkpt lat="41.1248867" lon="9.5112683"><ele>127.0</ele><time>2026-05-02T08:36:27.67Z</time></trkpt><trkpt lat="41.1250133" lon="9.51126"><ele>127.0</ele><time>2026-05-02T08:36:28.67Z</time></trkpt><trkpt lat="41.125135" lon="9.5112367"><ele>127.0</ele><time>2026-05-02T08:36:29.67Z</time></trkpt><trkpt lat="41.1252583" lon="9.5112083"><ele>127.0</ele><time>2026-05-02T08:36:30.67Z</time></trkpt><trkpt lat="41.1253767" lon="9.51117"><ele>127.0</ele><time>2026-05-02T08:36:31.67Z</time></trkpt><trkpt lat="41.125495" lon="9.5111267"><ele>127.0</ele><time>2026-05-02T08:36:32.67Z</time></trkpt><trkpt lat="41.12561" lon="9.5110783"><ele>127.0</ele><time>2026-05-02T08:36:33.67Z</time></trkpt><trkpt lat="41.1257617" lon="9.5110117"><ele>127.0</ele><time>2026-05-02T08:36:34.67Z</time></trkpt><trkpt lat="41.1258833" lon="9.5109667"><ele>124.0</ele><time>2026-05-02T08:36:35.67Z</time></trkpt><trkpt lat="41.126005" lon="9.5109133"><ele>120.99999999999999</ele><time>2026-05-02T08:36:36.67Z</time></trkpt><trkpt lat="41.1261133" lon="9.510855"><ele>117.99999999999999</ele><time>2026-05-02T08:36:37.67Z</time></trkpt><trkpt lat="41.1261917" lon="9.5108167"><ele>115.0</ele><time>2026-05-02T08:36:38.67Z</time></trkpt><trkpt lat="41.1262967" lon="9.5107567"><ele>112.0</ele><time>2026-05-02T08:36:39.67Z</time></trkpt><trkpt lat="41.1263633" lon="9.5106933"><ele>112.0</ele><time>2026-05-02T08:36:40.67Z</time></trkpt><trkpt lat="41.1264433" lon="9.5106183"><ele>111.99999999999999</ele><time>2026-05-02T08:36:41.67Z</time></trkpt><trkpt lat="41.12651" lon="9.5105417"><ele>111.99999999999999</ele><time>2026-05-02T08:36:42.67Z</time></trkpt><trkpt lat="41.1265617" lon="9.5104467"><ele>112.0</ele><time>2026-05-02T08:36:43.67Z</time></trkpt><trkpt lat="41.126595" lon="9.5103317"><ele>112.0</ele><time>2026-05-02T08:36:44.67Z</time></trkpt><trkpt lat="41.12661" lon="9.5102067"><ele>112.0</ele><time>2026-05-02T08:36:45.67Z</time></trkpt><trkpt lat="41.12661" lon="9.5100667"><ele>111.99999999999999</ele><time>2026-05-02T08:36:46.67Z</time></trkpt><trkpt lat="41.12659" lon="9.5099283"><ele>111.99999999999999</ele><time>2026-05-02T08:36:47.67Z</time></trkpt><trkpt lat="41.1265533" lon="9.5098017"><ele>112.0</ele><time>2026-05-02T08:36:48.67Z</time></trkpt><trkpt lat="41.1265183" lon="9.5096867"><ele>112.0</ele><time>2026-05-02T08:36:49.67Z</time></trkpt><trkpt lat="41.1264917" lon="9.5095767"><ele>110.57142857142857</ele><time>2026-05-02T08:36:50.67Z</time></trkpt><trkpt lat="41.1264817" lon="9.5094733"><ele>109.14285714285714</ele><time>2026-05-02T08:36:51.67Z</time></trkpt><trkpt lat="41.1264867" lon="9.5093683"><ele>107.71428571428572</ele><time>2026-05-02T08:36:52.67Z</time></trkpt><trkpt lat="41.126505" lon="9.5092867"><ele>106.28571428571428</ele><time>2026-05-02T08:36:53.67Z</time></trkpt><trkpt lat="41.1265333" lon="9.5092117"><ele>104.85714285714286</ele><time>2026-05-02T08:36:54.67Z</time></trkpt><trkpt lat="41.1266" lon="9.5091717"><ele>103.42857142857143</ele><time>2026-05-02T08:36:55.67Z</time></trkpt><trkpt lat="41.126675" lon="9.5091567"><ele>102.0</ele><time>2026-05-02T08:36:56.67Z</time></trkpt><trkpt lat="41.1267833" lon="9.5092017"><ele>99.33333333333333</ele><time>2026-05-02T08:36:57.671Z</time></trkpt><trkpt lat="41.12696" lon="9.509375"><ele>96.66666666666666</ele><time>2026-05-02T08:36:58.67Z</time></trkpt><trkpt lat="41.1270867" lon="9.5095067"><ele>94.0</ele><time>2026-05-02T08:36:59.67Z</time></trkpt><trkpt lat="41.12721" lon="9.5096267"><ele>94.0</ele><time>2026-05-02T08:37:00.67Z</time></trkpt><trkpt lat="41.1273333" lon="9.5097267"><ele>94.0</ele><time>2026-05-02T08:37:01.67Z</time></trkpt><trkpt lat="41.12745" lon="9.5098017"><ele>94.0</ele><time>2026-05-02T08:37:02.67Z</time></trkpt><trkpt lat="41.1275617" lon="9.5098617"><ele>94.0</ele><time>2026-05-02T08:37:03.67Z</time></trkpt><trkpt lat="41.1276767" lon="9.5098883"><ele>92.2</ele><time>2026-05-02T08:37:04.67Z</time></trkpt><trkpt lat="41.1277917" lon="9.5099017"><ele>90.4</ele><time>2026-05-02T08:37:05.67Z</time></trkpt><trkpt lat="41.127905" lon="9.5098933"><ele>88.6</ele><time>2026-05-02T08:37:06.67Z</time></trkpt><trkpt lat="41.12801" lon="9.5098633"><ele>86.8</ele><time>2026-05-02T08:37:07.67Z</time></trkpt><trkpt lat="41.1281117" lon="9.5098383"><ele>85.0</ele><time>2026-05-02T08:37:08.67Z</time></trkpt><trkpt lat="41.1282133" lon="9.5098033"><ele>82.25</ele><time>2026-05-02T08:37:09.669Z</time></trkpt><trkpt lat="41.1283183" lon="9.509755"><ele>79.5</ele><time>2026-05-02T08:37:10.669Z</time></trkpt><trkpt lat="41.1284317" lon="9.509705"><ele>76.75</ele><time>2026-05-02T08:37:11.669Z</time></trkpt><trkpt lat="41.1285533" lon="9.5096533"><ele>74.0</ele><time>2026-05-02T08:37:12.669Z</time></trkpt><trkpt lat="41.12867" lon="9.5096083"><ele>75.0</ele><time>2026-05-02T08:37:13.669Z</time></trkpt><trkpt lat="41.1287833" lon="9.5095583"><ele>76.0</ele><time>2026-05-02T08:37:14.669Z</time></trkpt><trkpt lat="41.1288967" lon="9.5095233"><ele>77.0</ele><time>2026-05-02T08:37:15.669Z</time></trkpt><trkpt lat="41.1290033" lon="9.50949"><ele>78.0</ele><time>2026-05-02T08:37:16.669Z</time></trkpt><trkpt lat="41.1291017" lon="9.50945"><ele>79.0</ele><time>2026-05-02T08:37:17.669Z</time></trkpt><trkpt lat="41.1291933" lon="9.5094083"><ele>76.83333333333333</ele><time>2026-05-02T08:37:18.669Z</time></trkpt><trkpt lat="41.1292733" lon="9.5093633"><ele>74.66666666666666</ele><time>2026-05-02T08:37:19.669Z</time></trkpt><trkpt lat="41.129335" lon="9.5093167"><ele>72.5</ele><time>2026-05-02T08:37:20.669Z</time></trkpt><trkpt lat="41.1294017" lon="9.5092883"><ele>70.33333333333333</ele><time>2026-05-02T08:37:22.67Z</time></trkpt><trkpt lat="41.129465" lon="9.509205"><ele>68.16666666666667</ele><time>2026-05-02T08:37:24.669Z</time></trkpt><trkpt lat="41.1294883" lon="9.5091217"><ele>66.0</ele><time>2026-05-02T08:37:25.669Z</time></trkpt><trkpt lat="41.1295033" lon="9.50902"><ele>66.0</ele><time>2026-05-02T08:37:26.669Z</time></trkpt><trkpt lat="41.1295083" lon="9.5089033"><ele>66.0</ele><time>2026-05-02T08:37:27.669Z</time></trkpt><trkpt lat="41.1295083" lon="9.508755"><ele>66.0</ele><time>2026-05-02T08:37:28.67Z</time></trkpt><trkpt lat="41.1294883" lon="9.5085667"><ele>66.0</ele><time>2026-05-02T08:37:29.669Z</time></trkpt><trkpt lat="41.1294667" lon="9.508385"><ele>66.0</ele><time>2026-05-02T08:37:30.669Z</time></trkpt><trkpt lat="41.1294283" lon="9.5082067"><ele>66.0</ele><time>2026-05-02T08:37:31.669Z</time></trkpt><trkpt lat="41.129375" lon="9.5080283"><ele>66.0</ele><time>2026-05-02T08:37:32.669Z</time></trkpt><trkpt lat="41.1293183" lon="9.5078667"><ele>66.0</ele><time>2026-05-02T08:37:33.669Z</time></trkpt><trkpt lat="41.1292583" lon="9.5077067"><ele>66.0</ele><time>2026-05-02T08:37:34.669Z</time></trkpt><trkpt lat="41.12919" lon="9.5075567"><ele>66.0</ele><time>2026-05-02T08:37:35.669Z</time></trkpt><trkpt lat="41.1291167" lon="9.5073983"><ele>66.0</ele><time>2026-05-02T08:37:36.669Z</time></trkpt><trkpt lat="41.1290417" lon="9.5072417"><ele>66.0</ele><time>2026-05-02T08:37:37.669Z</time></trkpt><trkpt lat="41.1289667" lon="9.5070833"><ele>65.25</ele><time>2026-05-02T08:37:38.669Z</time></trkpt><trkpt lat="41.128895" lon="9.50692"><ele>64.5</ele><time>2026-05-02T08:37:39.669Z</time></trkpt><trkpt lat="41.1288267" lon="9.50674"><ele>63.75</ele><time>2026-05-02T08:37:40.669Z</time></trkpt><trkpt lat="41.128775" lon="9.506555"><ele>63.0</ele><time>2026-05-02T08:37:41.67Z</time></trkpt><trkpt lat="41.1287483" lon="9.50636"><ele>61.75</ele><time>2026-05-02T08:37:42.669Z</time></trkpt><trkpt lat="41.1287283" lon="9.5061817"><ele>60.5</ele><time>2026-05-02T08:37:43.669Z</time></trkpt><trkpt lat="41.1287033" lon="9.5060083"><ele>59.25</ele><time>2026-05-02T08:37:44.669Z</time></trkpt><trkpt lat="41.1286667" lon="9.5058333"><ele>58.0</ele><time>2026-05-02T08:37:45.669Z</time></trkpt><trkpt lat="41.1286267" lon="9.5056567"><ele>58.0</ele><time>2026-05-02T08:37:46.669Z</time></trkpt><trkpt lat="41.1285733" lon="9.5054817"><ele>58.0</ele><time>2026-05-02T08:37:47.669Z</time></trkpt><trkpt lat="41.1285233" lon="9.5053183"><ele>58.0</ele><time>2026-05-02T08:37:48.669Z</time></trkpt><trkpt lat="41.128475" lon="9.5051617"><ele>58.0</ele><time>2026-05-02T08:37:49.669Z</time></trkpt><trkpt lat="41.1284" lon="9.5050467"><ele>58.0</ele><time>2026-05-02T08:37:50.669Z</time></trkpt><trkpt lat="41.1282717" lon="9.5049667"><ele>58.0</ele><time>2026-05-02T08:37:51.669Z</time></trkpt><trkpt lat="41.128105" lon="9.5049117"><ele>58.0</ele><time>2026-05-02T08:37:52.669Z</time></trkpt><trkpt lat="41.1279517" lon="9.504845"><ele>59.33333333333333</ele><time>2026-05-02T08:37:53.669Z</time></trkpt><trkpt lat="41.127785" lon="9.50475"><ele>60.66666666666667</ele><time>2026-05-02T08:37:54.669Z</time></trkpt><trkpt lat="41.1276567" lon="9.5046483"><ele>62.0</ele><time>2026-05-02T08:37:55.669Z</time></trkpt><trkpt lat="41.1275283" lon="9.504545"><ele>63.0</ele><time>2026-05-02T08:37:56.669Z</time></trkpt><trkpt lat="41.1273983" lon="9.5044417"><ele>64.0</ele><time>2026-05-02T08:37:57.669Z</time></trkpt><trkpt lat="41.1272783" lon="9.504335"><ele>65.0</ele><time>2026-05-02T08:37:58.669Z</time></trkpt><trkpt lat="41.1271467" lon="9.5042267"><ele>66.66666666666667</ele><time>2026-05-02T08:37:59.669Z</time></trkpt><trkpt lat="41.1270167" lon="9.5041217"><ele>68.33333333333333</ele><time>2026-05-02T08:38:00.67Z</time></trkpt><trkpt lat="41.1268833" lon="9.50402"><ele>70.0</ele><time>2026-05-02T08:38:01.669Z</time></trkpt><trkpt lat="41.1267483" lon="9.5039233"><ele>70.0</ele><time>2026-05-02T08:38:02.669Z</time></trkpt><trkpt lat="41.12662" lon="9.503835"><ele>70.0</ele><time>2026-05-02T08:38:03.669Z</time></trkpt><trkpt lat="41.1264867" lon="9.503745"><ele>70.0</ele><time>2026-05-02T08:38:04.669Z</time></trkpt><trkpt lat="41.1263517" lon="9.5036567"><ele>70.0</ele><time>2026-05-02T08:38:05.669Z</time></trkpt><trkpt lat="41.126225" lon="9.5035633"><ele>71.5</ele><time>2026-05-02T08:38:06.669Z</time></trkpt><trkpt lat="41.126105" lon="9.5034617"><ele>73.0</ele><time>2026-05-02T08:38:07.669Z</time></trkpt><trkpt lat="41.1259983" lon="9.5033367"><ele>74.5</ele><time>2026-05-02T08:38:08.669Z</time></trkpt><trkpt lat="41.12591" lon="9.5032"><ele>76.0</ele><time>2026-05-02T08:38:09.669Z</time></trkpt><trkpt lat="41.1258533" lon="9.5030417"><ele>79.25</ele><time>2026-05-02T08:38:10.669Z</time></trkpt><trkpt lat="41.1258217" lon="9.50287"><ele>82.5</ele><time>2026-05-02T08:38:11.669Z</time></trkpt><trkpt lat="41.1258167" lon="9.5026817"><ele>85.75</ele><time>2026-05-02T08:38:12.669Z</time></trkpt><trkpt lat="41.1258233" lon="9.5024917"><ele>89.0</ele><time>2026-05-02T08:38:13.669Z</time></trkpt><trkpt lat="41.1258317" lon="9.5022967"><ele>89.0</ele><time>2026-05-02T08:38:14.669Z</time></trkpt><trkpt lat="41.125835" lon="9.5020917"><ele>89.0</ele><time>2026-05-02T08:38:15.669Z</time></trkpt><trkpt lat="41.1258267" lon="9.5018883"><ele>89.0</ele><time>2026-05-02T08:38:16.669Z</time></trkpt><trkpt lat="41.125815" lon="9.5016883"><ele>90.5</ele><time>2026-05-02T08:38:17.669Z</time></trkpt><trkpt lat="41.1258067" lon="9.5014917"><ele>92.0</ele><time>2026-05-02T08:38:18.669Z</time></trkpt><trkpt lat="41.1257883" lon="9.5013033"><ele>93.5</ele><time>2026-05-02T08:38:19.669Z</time></trkpt><trkpt lat="41.1257783" lon="9.50111"><ele>95.0</ele><time>2026-05-02T08:38:20.669Z</time></trkpt><trkpt lat="41.1257717" lon="9.5008983"><ele>97.0</ele><time>2026-05-02T08:38:21.67Z</time></trkpt><trkpt lat="41.1257917" lon="9.500705"><ele>99.0</ele><time>2026-05-02T08:38:22.669Z</time></trkpt><trkpt lat="41.1258133" lon="9.5005667"><ele>101.0</ele><time>2026-05-02T08:38:23.669Z</time></trkpt><trkpt lat="41.125855" lon="9.5004033"><ele>103.0</ele><time>2026-05-02T08:38:24.669Z</time></trkpt><trkpt lat="41.1258967" lon="9.5003267"><ele>106.33333333333334</ele><time>2026-05-02T08:38:25.669Z</time></trkpt><trkpt lat="41.1259617" lon="9.5002717"><ele>109.66666666666667</ele><time>2026-05-02T08:38:26.669Z</time></trkpt><trkpt lat="41.12603" lon="9.5002733"><ele>113.0</ele><time>2026-05-02T08:38:27.669Z</time></trkpt><trkpt lat="41.1261033" lon="9.5002667"><ele>116.33333333333334</ele><time>2026-05-02T08:38:28.669Z</time></trkpt><trkpt lat="41.1261817" lon="9.5002883"><ele>119.66666666666667</ele><time>2026-05-02T08:38:29.669Z</time></trkpt><trkpt lat="41.1262567" lon="9.50032"><ele>123.0</ele><time>2026-05-02T08:38:30.669Z</time></trkpt><trkpt lat="41.1263383" lon="9.5003867"><ele>121.80000000000001</ele><time>2026-05-02T08:38:31.669Z</time></trkpt><trkpt lat="41.1264317" lon="9.5004667"><ele>120.60000000000001</ele><time>2026-05-02T08:38:32.669Z</time></trkpt><trkpt lat="41.126535" lon="9.5005117"><ele>119.39999999999999</ele><time>2026-05-02T08:38:33.669Z</time></trkpt><trkpt lat="41.1266217" lon="9.5005367"><ele>118.19999999999999</ele><time>2026-05-02T08:38:34.669Z</time></trkpt><trkpt lat="41.1267" lon="9.50055"><ele>117.0</ele><time>2026-05-02T08:38:35.669Z</time></trkpt><trkpt lat="41.1267733" lon="9.5005183"><ele>117.0</ele><time>2026-05-02T08:38:36.669Z</time></trkpt><trkpt lat="41.1268367" lon="9.5004767"><ele>117.0</ele><time>2026-05-02T08:38:37.669Z</time></trkpt><trkpt lat="41.1269" lon="9.500425"><ele>117.0</ele><time>2026-05-02T08:38:38.669Z</time></trkpt><trkpt lat="41.1269283" lon="9.5003317"><ele>117.0</ele><time>2026-05-02T08:38:39.669Z</time></trkpt><trkpt lat="41.1269567" lon="9.500245"><ele>117.0</ele><time>2026-05-02T08:38:40.669Z</time></trkpt><trkpt lat="41.126915" lon="9.5000667"><ele>117.0</ele><time>2026-05-02T08:38:41.67Z</time></trkpt><trkpt lat="41.126825" lon="9.4998717"><ele>119.0</ele><time>2026-05-02T08:38:42.669Z</time></trkpt><trkpt lat="41.1267067" lon="9.4997117"><ele>121.0</ele><time>2026-05-02T08:38:43.669Z</time></trkpt><trkpt lat="41.126565" lon="9.49959"><ele>123.0</ele><time>2026-05-02T08:38:44.669Z</time></trkpt><trkpt lat="41.1263567" lon="9.499485"><ele>132.0</ele><time>2026-05-02T08:38:45.669Z</time></trkpt><trkpt lat="41.1261383" lon="9.49944"><ele>141.0</ele><time>2026-05-02T08:38:46.669Z</time></trkpt><trkpt lat="41.1259467" lon="9.4994133"><ele>150.0</ele><time>2026-05-02T08:38:47.669Z</time></trkpt><trkpt lat="41.1257933" lon="9.499385"><ele>149.25</ele><time>2026-05-02T08:38:48.669Z</time></trkpt><trkpt lat="41.1256583" lon="9.4993717"><ele>148.5</ele><time>2026-05-02T08:38:49.669Z</time></trkpt><trkpt lat="41.1255367" lon="9.499385"><ele>147.75</ele><time>2026-05-02T08:38:50.669Z</time></trkpt><trkpt lat="41.12543" lon="9.4994067"><ele>147.0</ele><time>2026-05-02T08:38:51.669Z</time></trkpt><trkpt lat="41.1253483" lon="9.49944"><ele>147.0</ele><time>2026-05-02T08:38:52.669Z</time></trkpt><trkpt lat="41.125265" lon="9.4994633"><ele>147.0</ele><time>2026-05-02T08:38:53.669Z</time></trkpt><trkpt lat="41.12519" lon="9.4994683"><ele>147.0</ele><time>2026-05-02T08:38:54.669Z</time></trkpt><trkpt lat="41.1251017" lon="9.4993917"><ele>147.0</ele><time>2026-05-02T08:38:56.669Z</time></trkpt><trkpt lat="41.1250917" lon="9.4992983"><ele>147.0</ele><time>2026-05-02T08:38:57.669Z</time></trkpt><trkpt lat="41.1251067" lon="9.4991833"><ele>147.0</ele><time>2026-05-02T08:38:58.669Z</time></trkpt><trkpt lat="41.1251517" lon="9.4990267"><ele>147.0</ele><time>2026-05-02T08:38:59.669Z</time></trkpt><trkpt lat="41.12518" lon="9.4988983"><ele>147.0</ele><time>2026-05-02T08:39:00.669Z</time></trkpt><trkpt lat="41.1252383" lon="9.4987483"><ele>147.0</ele><time>2026-05-02T08:39:01.669Z</time></trkpt><trkpt lat="41.1253283" lon="9.4986083"><ele>147.0</ele><time>2026-05-02T08:39:02.669Z</time></trkpt><trkpt lat="41.125405" lon="9.49848"><ele>149.8</ele><time>2026-05-02T08:39:03.669Z</time></trkpt><trkpt lat="41.125455" lon="9.498345"><ele>152.6</ele><time>2026-05-02T08:39:04.669Z</time></trkpt><trkpt lat="41.125485" lon="9.49821"><ele>155.4</ele><time>2026-05-02T08:39:05.669Z</time></trkpt><trkpt lat="41.1254967" lon="9.4980633"><ele>158.20000000000002</ele><time>2026-05-02T08:39:06.669Z</time></trkpt><trkpt lat="41.1254783" lon="9.4979133"><ele>161.0</ele><time>2026-05-02T08:39:07.669Z</time></trkpt><trkpt lat="41.1254433" lon="9.4977567"><ele>163.25</ele><time>2026-05-02T08:39:08.669Z</time></trkpt><trkpt lat="41.1254033" lon="9.4975967"><ele>165.5</ele><time>2026-05-02T08:39:09.669Z</time></trkpt><trkpt lat="41.12531" lon="9.49743"><ele>167.75</ele><time>2026-05-02T08:39:10.67Z</time></trkpt><trkpt lat="41.1252267" lon="9.4972533"><ele>170.0</ele><time>2026-05-02T08:39:11.669Z</time></trkpt><trkpt lat="41.125135" lon="9.497115"><ele>171.66666666666666</ele><time>2026-05-02T08:39:12.669Z</time></trkpt><trkpt lat="41.1250217" lon="9.4969767"><ele>173.33333333333334</ele><time>2026-05-02T08:39:13.669Z</time></trkpt><trkpt lat="41.1248883" lon="9.496855"><ele>175.0</ele><time>2026-05-02T08:39:14.669Z</time></trkpt><trkpt lat="41.1247333" lon="9.4967667"><ele>175.0</ele><time>2026-05-02T08:39:15.669Z</time></trkpt><trkpt lat="41.1246367" lon="9.49666"><ele>175.0</ele><time>2026-05-02T08:39:16.669Z</time></trkpt><trkpt lat="41.1245333" lon="9.4965633"><ele>175.0</ele><time>2026-05-02T08:39:17.669Z</time></trkpt><trkpt lat="41.12443" lon="9.4964883"><ele>175.0</ele><time>2026-05-02T08:39:18.669Z</time></trkpt><trkpt lat="41.1243233" lon="9.4964067"><ele>175.0</ele><time>2026-05-02T08:39:19.669Z</time></trkpt><trkpt lat="41.1242017" lon="9.4963317"><ele>175.0</ele><time>2026-05-02T08:39:20.669Z</time></trkpt><trkpt lat="41.1240667" lon="9.4962683"><ele>175.0</ele><time>2026-05-02T08:39:21.669Z</time></trkpt><trkpt lat="41.1239283" lon="9.496195"><ele>175.0</ele><time>2026-05-02T08:39:22.669Z</time></trkpt><trkpt lat="41.1237917" lon="9.4961233"><ele>172.75</ele><time>2026-05-02T08:39:23.669Z</time></trkpt><trkpt lat="41.1236683" lon="9.4960433"><ele>170.5</ele><time>2026-05-02T08:39:24.669Z</time></trkpt><trkpt lat="41.1235517" lon="9.495965"><ele>168.25</ele><time>2026-05-02T08:39:25.669Z</time></trkpt><trkpt lat="41.123445" lon="9.495885"><ele>166.0</ele><time>2026-05-02T08:39:26.669Z</time></trkpt><trkpt lat="41.123355" lon="9.4957833"><ele>166.0</ele><time>2026-05-02T08:39:27.669Z</time></trkpt><trkpt lat="41.1232883" lon="9.4956167"><ele>166.0</ele><time>2026-05-02T08:39:28.669Z</time></trkpt><trkpt lat="41.1232217" lon="9.4954683"><ele>166.0</ele><time>2026-05-02T08:39:29.669Z</time></trkpt><trkpt lat="41.12315" lon="9.4953067"><ele>166.0</ele><time>2026-05-02T08:39:30.669Z</time></trkpt><trkpt lat="41.123085" lon="9.4951467"><ele>163.25</ele><time>2026-05-02T08:39:31.669Z</time></trkpt><trkpt lat="41.12302" lon="9.4949967"><ele>160.5</ele><time>2026-05-02T08:39:32.669Z</time></trkpt><trkpt lat="41.1229617" lon="9.494845"><ele>157.75</ele><time>2026-05-02T08:39:33.67Z</time></trkpt><trkpt lat="41.1229083" lon="9.49469"><ele>155.0</ele><time>2026-05-02T08:39:34.669Z</time></trkpt><trkpt lat="41.1228383" lon="9.4945217"><ele>152.75</ele><time>2026-05-02T08:39:35.669Z</time></trkpt><trkpt lat="41.1227817" lon="9.4943583"><ele>150.5</ele><time>2026-05-02T08:39:36.669Z</time></trkpt><trkpt lat="41.12272" lon="9.4941883"><ele>148.25</ele><time>2026-05-02T08:39:37.669Z</time></trkpt><trkpt lat="41.12267" lon="9.49402"><ele>146.0</ele><time>2026-05-02T08:39:38.669Z</time></trkpt><trkpt lat="41.1226133" lon="9.4938617"><ele>143.25</ele><time>2026-05-02T08:39:39.669Z</time></trkpt><trkpt lat="41.1225783" lon="9.4936817"><ele>140.5</ele><time>2026-05-02T08:39:40.669Z</time></trkpt><trkpt lat="41.1225133" lon="9.4935433"><ele>137.75</ele><time>2026-05-02T08:39:41.669Z</time></trkpt><trkpt lat="41.12244" lon="9.4934133"><ele>135.0</ele><time>2026-05-02T08:39:42.669Z</time></trkpt><trkpt lat="41.1223567" lon="9.4933083"><ele>135.0</ele><time>2026-05-02T08:39:43.669Z</time></trkpt><trkpt lat="41.1222817" lon="9.4932167"><ele>135.0</ele><time>2026-05-02T08:39:44.669Z</time></trkpt><trkpt lat="41.1222183" lon="9.4931267"><ele>135.0</ele><time>2026-05-02T08:39:45.669Z</time></trkpt><trkpt lat="41.1221683" lon="9.49304"><ele>135.0</ele><time>2026-05-02T08:39:46.669Z</time></trkpt><trkpt lat="41.1221383" lon="9.4929617"><ele>135.0</ele><time>2026-05-02T08:39:47.669Z</time></trkpt><trkpt lat="41.12215" lon="9.4928"><ele>132.75</ele><time>2026-05-02T08:39:49.669Z</time></trkpt><trkpt lat="41.1222133" lon="9.4927183"><ele>130.5</ele><time>2026-05-02T08:39:50.67Z</time></trkpt><trkpt lat="41.1223217" lon="9.4926633"><ele>128.25</ele><time>2026-05-02T08:39:51.67Z</time></trkpt><trkpt lat="41.1224717" lon="9.492625"><ele>126.0</ele><time>2026-05-02T08:39:52.669Z</time></trkpt><trkpt lat="41.1226783" lon="9.4926567"><ele>124.0</ele><time>2026-05-02T08:39:53.669Z</time></trkpt><trkpt lat="41.1228367" lon="9.4927067"><ele>122.0</ele><time>2026-05-02T08:39:54.669Z</time></trkpt><trkpt lat="41.1229517" lon="9.4927383"><ele>120.0</ele><time>2026-05-02T08:39:55.669Z</time></trkpt><trkpt lat="41.1230533" lon="9.492755"><ele>118.0</ele><time>2026-05-02T08:39:56.669Z</time></trkpt><trkpt lat="41.1231367" lon="9.4927583"><ele>118.0</ele><time>2026-05-02T08:39:57.669Z</time></trkpt><trkpt lat="41.12321" lon="9.4927233"><ele>118.00000000000001</ele><time>2026-05-02T08:39:58.669Z</time></trkpt><trkpt lat="41.123265" lon="9.4926733"><ele>118.00000000000001</ele><time>2026-05-02T08:39:59.669Z</time></trkpt><trkpt lat="41.123275" lon="9.4925617"><ele>118.0</ele><time>2026-05-02T08:40:00.669Z</time></trkpt><trkpt lat="41.1232433" lon="9.49241"><ele>118.0</ele><time>2026-05-02T08:40:01.669Z</time></trkpt><trkpt lat="41.12317" lon="9.49222"><ele>113.0</ele><time>2026-05-02T08:40:02.669Z</time></trkpt><trkpt lat="41.1230833" lon="9.4920233"><ele>108.0</ele><time>2026-05-02T08:40:03.67Z</time></trkpt><trkpt lat="41.12298" lon="9.4918"><ele>103.0</ele><time>2026-05-02T08:40:04.669Z</time></trkpt><trkpt lat="41.1228933" lon="9.4916183"><ele>103.0</ele><time>2026-05-02T08:40:05.669Z</time></trkpt><trkpt lat="41.1228167" lon="9.4914817"><ele>103.0</ele><time>2026-05-02T08:40:06.67Z</time></trkpt><trkpt lat="41.1227517" lon="9.4913317"><ele>103.0</ele><time>2026-05-02T08:40:07.669Z</time></trkpt><trkpt lat="41.122715" lon="9.4911733"><ele>103.0</ele><time>2026-05-02T08:40:08.669Z</time></trkpt><trkpt lat="41.12271" lon="9.4910217"><ele>101.50000000000001</ele><time>2026-05-02T08:40:09.669Z</time></trkpt><trkpt lat="41.1227183" lon="9.4909183"><ele>100.0</ele><time>2026-05-02T08:40:10.669Z</time></trkpt><trkpt lat="41.12274" lon="9.490825"><ele>98.5</ele><time>2026-05-02T08:40:11.669Z</time></trkpt><trkpt lat="41.1227817" lon="9.4907283"><ele>97.0</ele><time>2026-05-02T08:40:12.669Z</time></trkpt><trkpt lat="41.1228683" lon="9.490635"><ele>95.5</ele><time>2026-05-02T08:40:13.669Z</time></trkpt><trkpt lat="41.1229317" lon="9.4905433"><ele>94.0</ele><time>2026-05-02T08:40:14.669Z</time></trkpt><trkpt lat="41.122995" lon="9.4904383"><ele>92.25</ele><time>2026-05-02T08:40:15.669Z</time></trkpt><trkpt lat="41.1230467" lon="9.4902983"><ele>90.5</ele><time>2026-05-02T08:40:16.669Z</time></trkpt><trkpt lat="41.12309" lon="9.490145"><ele>88.75</ele><time>2026-05-02T08:40:17.669Z</time></trkpt><trkpt lat="41.1231317" lon="9.48997"><ele>87.0</ele><time>2026-05-02T08:40:18.669Z</time></trkpt><trkpt lat="41.1231683" lon="9.48979"><ele>87.0</ele><time>2026-05-02T08:40:19.669Z</time></trkpt><trkpt lat="41.123195" lon="9.4896067"><ele>87.0</ele><time>2026-05-02T08:40:20.669Z</time></trkpt><trkpt lat="41.1231917" lon="9.4894317"><ele>87.0</ele><time>2026-05-02T08:40:21.669Z</time></trkpt><trkpt lat="41.1231683" lon="9.48926"><ele>87.0</ele><time>2026-05-02T08:40:22.669Z</time></trkpt><trkpt lat="41.1231317" lon="9.4890933"><ele>86.75</ele><time>2026-05-02T08:40:23.669Z</time></trkpt><trkpt lat="41.12307" lon="9.48892"><ele>86.5</ele><time>2026-05-02T08:40:24.67Z</time></trkpt><trkpt lat="41.1230067" lon="9.488755"><ele>86.25</ele><time>2026-05-02T08:40:25.669Z</time></trkpt><trkpt lat="41.12295" lon="9.4885967"><ele>86.0</ele><time>2026-05-02T08:40:26.669Z</time></trkpt><trkpt lat="41.1229117" lon="9.4884333"><ele>85.25</ele><time>2026-05-02T08:40:27.669Z</time></trkpt><trkpt lat="41.12289" lon="9.4882783"><ele>84.5</ele><time>2026-05-02T08:40:28.669Z</time></trkpt><trkpt lat="41.122885" lon="9.48812"><ele>83.75</ele><time>2026-05-02T08:40:29.669Z</time></trkpt><trkpt lat="41.1228967" lon="9.4879717"><ele>83.0</ele><time>2026-05-02T08:40:30.669Z</time></trkpt><trkpt lat="41.12293" lon="9.4878283"><ele>80.75</ele><time>2026-05-02T08:40:31.669Z</time></trkpt><trkpt lat="41.1229833" lon="9.487695"><ele>78.5</ele><time>2026-05-02T08:40:32.669Z</time></trkpt><trkpt lat="41.12306" lon="9.4875733"><ele>76.25</ele><time>2026-05-02T08:40:33.669Z</time></trkpt><trkpt lat="41.1231467" lon="9.4874583"><ele>74.0</ele><time>2026-05-02T08:40:34.669Z</time></trkpt><trkpt lat="41.1232267" lon="9.487355"><ele>75.66666666666667</ele><time>2026-05-02T08:40:35.669Z</time></trkpt><trkpt lat="41.1232783" lon="9.487255"><ele>77.33333333333334</ele><time>2026-05-02T08:40:36.669Z</time></trkpt><trkpt lat="41.1233217" lon="9.48715"><ele>79.0</ele><time>2026-05-02T08:40:37.669Z</time></trkpt><trkpt lat="41.1233533" lon="9.4870417"><ele>80.66666666666667</ele><time>2026-05-02T08:40:38.669Z</time></trkpt><trkpt lat="41.12337" lon="9.4869267"><ele>82.33333333333333</ele><time>2026-05-02T08:40:39.669Z</time></trkpt><trkpt lat="41.1233717" lon="9.48681"><ele>84.0</ele><time>2026-05-02T08:40:40.669Z</time></trkpt><trkpt lat="41.1233517" lon="9.4866783"><ele>84.0</ele><time>2026-05-02T08:40:41.669Z</time></trkpt><trkpt lat="41.123325" lon="9.4865417"><ele>84.0</ele><time>2026-05-02T08:40:42.669Z</time></trkpt><trkpt lat="41.1232883" lon="9.4864033"><ele>84.0</ele><time>2026-05-02T08:40:43.669Z</time></trkpt><trkpt lat="41.1232617" lon="9.48627"><ele>84.0</ele><time>2026-05-02T08:40:44.669Z</time></trkpt><trkpt lat="41.1232483" lon="9.4861483"><ele>84.0</ele><time>2026-05-02T08:40:45.669Z</time></trkpt><trkpt lat="41.1231767" lon="9.4860117"><ele>78.66666666666667</ele><time>2026-05-02T08:40:46.669Z</time></trkpt><trkpt lat="41.123085" lon="9.4858733"><ele>73.33333333333334</ele><time>2026-05-02T08:40:47.669Z</time></trkpt><trkpt lat="41.1229617" lon="9.485745"><ele>68.0</ele><time>2026-05-02T08:40:48.669Z</time></trkpt><trkpt lat="41.12279" lon="9.485615"><ele>68.0</ele><time>2026-05-02T08:40:49.669Z</time></trkpt><trkpt lat="41.1226767" lon="9.485485"><ele>68.0</ele><time>2026-05-02T08:40:50.669Z</time></trkpt><trkpt lat="41.12258" lon="9.4853567"><ele>68.0</ele><time>2026-05-02T08:40:51.669Z</time></trkpt><trkpt lat="41.1225167" lon="9.48523"><ele>68.0</ele><time>2026-05-02T08:40:52.669Z</time></trkpt><trkpt lat="41.1224683" lon="9.485095"><ele>68.4</ele><time>2026-05-02T08:40:53.669Z</time></trkpt><trkpt lat="41.12244" lon="9.4849433"><ele>68.8</ele><time>2026-05-02T08:40:54.669Z</time></trkpt><trkpt lat="41.1224383" lon="9.484795"><ele>69.2</ele><time>2026-05-02T08:40:55.67Z</time></trkpt><trkpt lat="41.1224433" lon="9.4846517"><ele>69.6</ele><time>2026-05-02T08:40:56.67Z</time></trkpt><trkpt lat="41.122455" lon="9.48452"><ele>70.0</ele><time>2026-05-02T08:40:57.669Z</time></trkpt><trkpt lat="41.12254" lon="9.4843583"><ele>70.6</ele><time>2026-05-02T08:40:58.669Z</time></trkpt><trkpt lat="41.1225633" lon="9.4842233"><ele>71.2</ele><time>2026-05-02T08:40:59.669Z</time></trkpt><trkpt lat="41.1225617" lon="9.4840917"><ele>71.8</ele><time>2026-05-02T08:41:00.669Z</time></trkpt><trkpt lat="41.1225417" lon="9.4839717"><ele>72.4</ele><time>2026-05-02T08:41:01.669Z</time></trkpt><trkpt lat="41.1225117" lon="9.4838533"><ele>73.0</ele><time>2026-05-02T08:41:02.669Z</time></trkpt><trkpt lat="41.1224533" lon="9.4837383"><ele>67.5</ele><time>2026-05-02T08:41:03.669Z</time></trkpt><trkpt lat="41.1223833" lon="9.4836183"><ele>62.0</ele><time>2026-05-02T08:41:04.669Z</time></trkpt><trkpt lat="41.122335" lon="9.4834883"><ele>56.5</ele><time>2026-05-02T08:41:05.669Z</time></trkpt><trkpt lat="41.122295" lon="9.4833417"><ele>51.0</ele><time>2026-05-02T08:41:06.669Z</time></trkpt><trkpt lat="41.12227" lon="9.4831983"><ele>51.0</ele><time>2026-05-02T08:41:07.67Z</time></trkpt><trkpt lat="41.1222583" lon="9.4830383"><ele>51.0</ele><time>2026-05-02T08:41:08.669Z</time></trkpt><trkpt lat="41.1222283" lon="9.48288"><ele>51.0</ele><time>2026-05-02T08:41:09.669Z</time></trkpt><trkpt lat="41.122195" lon="9.4827083"><ele>51.0</ele><time>2026-05-02T08:41:10.669Z</time></trkpt><trkpt lat="41.1221433" lon="9.4825467"><ele>51.75</ele><time>2026-05-02T08:41:11.669Z</time></trkpt><trkpt lat="41.1220567" lon="9.4824133"><ele>52.5</ele><time>2026-05-02T08:41:12.669Z</time></trkpt><trkpt lat="41.12195" lon="9.4823"><ele>53.25</ele><time>2026-05-02T08:41:13.669Z</time></trkpt><trkpt lat="41.1218217" lon="9.482195"><ele>54.0</ele><time>2026-05-02T08:41:14.669Z</time></trkpt><trkpt lat="41.1216867" lon="9.4821033"><ele>55.0</ele><time>2026-05-02T08:41:15.669Z</time></trkpt><trkpt lat="41.1215717" lon="9.4819967"><ele>56.0</ele><time>2026-05-02T08:41:16.669Z</time></trkpt><trkpt lat="41.1214633" lon="9.48188"><ele>57.0</ele><time>2026-05-02T08:41:17.669Z</time></trkpt><trkpt lat="41.1213683" lon="9.4817533"><ele>58.0</ele><time>2026-05-02T08:41:18.669Z</time></trkpt><trkpt lat="41.1212883" lon="9.4816117"><ele>54.25</ele><time>2026-05-02T08:41:19.669Z</time></trkpt><trkpt lat="41.1212233" lon="9.48144"><ele>50.5</ele><time>2026-05-02T08:41:20.669Z</time></trkpt><trkpt lat="41.1211767" lon="9.4812567"><ele>46.75</ele><time>2026-05-02T08:41:21.669Z</time></trkpt><trkpt lat="41.1211433" lon="9.4810617"><ele>43.0</ele><time>2026-05-02T08:41:22.669Z</time></trkpt><trkpt lat="41.1211133" lon="9.4808633"><ele>43.0</ele><time>2026-05-02T08:41:23.669Z</time></trkpt><trkpt lat="41.1210817" lon="9.4806683"><ele>43.0</ele><time>2026-05-02T08:41:24.669Z</time></trkpt><trkpt lat="41.1210483" lon="9.48047"><ele>43.0</ele><time>2026-05-02T08:41:25.669Z</time></trkpt><trkpt lat="41.1210083" lon="9.48028"><ele>42.66666666666667</ele><time>2026-05-02T08:41:26.669Z</time></trkpt><trkpt lat="41.120975" lon="9.4800833"><ele>42.333333333333336</ele><time>2026-05-02T08:41:27.669Z</time></trkpt><trkpt lat="41.12093" lon="9.4798933"><ele>42.0</ele><time>2026-05-02T08:41:28.669Z</time></trkpt><trkpt lat="41.1208817" lon="9.4797017"><ele>41.75</ele><time>2026-05-02T08:41:29.669Z</time></trkpt><trkpt lat="41.12083" lon="9.47952"><ele>41.5</ele><time>2026-05-02T08:41:30.669Z</time></trkpt><trkpt lat="41.12079" lon="9.47934"><ele>41.25</ele><time>2026-05-02T08:41:31.669Z</time></trkpt><trkpt lat="41.1207533" lon="9.4791667"><ele>41.0</ele><time>2026-05-02T08:41:32.669Z</time></trkpt><trkpt lat="41.1207483" lon="9.4789883"><ele>41.0</ele><time>2026-05-02T08:41:33.669Z</time></trkpt><trkpt lat="41.1207567" lon="9.47881"><ele>41.0</ele><time>2026-05-02T08:41:34.669Z</time></trkpt><trkpt lat="41.1207817" lon="9.4786267"><ele>41.0</ele><time>2026-05-02T08:41:35.669Z</time></trkpt><trkpt lat="41.120815" lon="9.47845"><ele>41.0</ele><time>2026-05-02T08:41:36.669Z</time></trkpt><trkpt lat="41.1208483" lon="9.4783067"><ele>39.0</ele><time>2026-05-02T08:41:37.669Z</time></trkpt><trkpt lat="41.120905" lon="9.47819"><ele>37.0</ele><time>2026-05-02T08:41:38.669Z</time></trkpt><trkpt lat="41.1209883" lon="9.478075"><ele>35.0</ele><time>2026-05-02T08:41:39.67Z</time></trkpt><trkpt lat="41.1210833" lon="9.4779733"><ele>33.0</ele><time>2026-05-02T08:41:40.67Z</time></trkpt><trkpt lat="41.1211817" lon="9.4778617"><ele>33.0</ele><time>2026-05-02T08:41:41.669Z</time></trkpt><trkpt lat="41.121305" lon="9.477745"><ele>33.0</ele><time>2026-05-02T08:41:42.669Z</time></trkpt><trkpt lat="41.121415" lon="9.47762"><ele>33.0</ele><time>2026-05-02T08:41:43.669Z</time></trkpt><trkpt lat="41.121515" lon="9.47753"><ele>33.0</ele><time>2026-05-02T08:41:44.669Z</time></trkpt><trkpt lat="41.121605" lon="9.4774317"><ele>33.0</ele><time>2026-05-02T08:41:45.669Z</time></trkpt><trkpt lat="41.1216933" lon="9.4773317"><ele>33.0</ele><time>2026-05-02T08:41:46.669Z</time></trkpt><trkpt lat="41.12177" lon="9.4772067"><ele>33.0</ele><time>2026-05-02T08:41:47.669Z</time></trkpt><trkpt lat="41.1218317" lon="9.4770567"><ele>33.0</ele><time>2026-05-02T08:41:48.669Z</time></trkpt><trkpt lat="41.1218967" lon="9.476885"><ele>30.5</ele><time>2026-05-02T08:41:49.669Z</time></trkpt><trkpt lat="41.1219717" lon="9.4767167"><ele>28.0</ele><time>2026-05-02T08:41:50.67Z</time></trkpt><trkpt lat="41.12205" lon="9.476555"><ele>25.5</ele><time>2026-05-02T08:41:51.669Z</time></trkpt><trkpt lat="41.12213" lon="9.4763933"><ele>23.0</ele><time>2026-05-02T08:41:52.669Z</time></trkpt><trkpt lat="41.1222133" lon="9.4762333"><ele>23.5</ele><time>2026-05-02T08:41:53.669Z</time></trkpt><trkpt lat="41.1222817" lon="9.4760867"><ele>24.0</ele><time>2026-05-02T08:41:54.669Z</time></trkpt><trkpt lat="41.1223517" lon="9.47594"><ele>24.5</ele><time>2026-05-02T08:41:55.669Z</time></trkpt><trkpt lat="41.122425" lon="9.4757933"><ele>25.0</ele><time>2026-05-02T08:41:56.67Z</time></trkpt><trkpt lat="41.1224983" lon="9.4756433"><ele>25.0</ele><time>2026-05-02T08:41:57.669Z</time></trkpt><trkpt lat="41.1225567" lon="9.4755017"><ele>25.0</ele><time>2026-05-02T08:41:58.669Z</time></trkpt><trkpt lat="41.1226417" lon="9.4753533"><ele>25.0</ele><time>2026-05-02T08:41:59.669Z</time></trkpt><trkpt lat="41.1227267" lon="9.4752267"><ele>25.0</ele><time>2026-05-02T08:42:00.669Z</time></trkpt><trkpt lat="41.122825" lon="9.47511"><ele>22.6</ele><time>2026-05-02T08:42:01.669Z</time></trkpt><trkpt lat="41.1229417" lon="9.474995"><ele>20.2</ele><time>2026-05-02T08:42:02.669Z</time></trkpt><trkpt lat="41.1230133" lon="9.474925"><ele>17.8</ele><time>2026-05-02T08:42:03.669Z</time></trkpt><trkpt lat="41.1230717" lon="9.4748683"><ele>15.4</ele><time>2026-05-02T08:42:04.669Z</time></trkpt><trkpt lat="41.1231217" lon="9.474815"><ele>13.0</ele><time>2026-05-02T08:42:05.669Z</time></trkpt><trkpt lat="41.1232033" lon="9.474715"><ele>13.600000000000001</ele><time>2026-05-02T08:42:07.669Z</time></trkpt><trkpt lat="41.1232533" lon="9.4746483"><ele>14.200000000000001</ele><time>2026-05-02T08:42:09.669Z</time></trkpt><trkpt lat="41.1232467" lon="9.474565"><ele>14.8</ele><time>2026-05-02T08:42:12.669Z</time></trkpt><trkpt lat="41.123155" lon="9.47447"><ele>15.4</ele><time>2026-05-02T08:42:14.669Z</time></trkpt><trkpt lat="41.12307" lon="9.4744167"><ele>16.0</ele><time>2026-05-02T08:42:15.669Z</time></trkpt><trkpt lat="41.122965" lon="9.474365"><ele>13.5</ele><time>2026-05-02T08:42:16.669Z</time></trkpt><trkpt lat="41.1228433" lon="9.4743167"><ele>11.0</ele><time>2026-05-02T08:42:17.669Z</time></trkpt><trkpt lat="41.1227317" lon="9.4742483"><ele>8.5</ele><time>2026-05-02T08:42:18.669Z</time></trkpt><trkpt lat="41.122625" lon="9.474195"><ele>6.0</ele><time>2026-05-02T08:42:19.669Z</time></trkpt><trkpt lat="41.1225217" lon="9.474145"><ele>6.0</ele><time>2026-05-02T08:42:20.669Z</time></trkpt><trkpt lat="41.1224133" lon="9.4741017"><ele>6.0</ele><time>2026-05-02T08:42:21.669Z</time></trkpt><trkpt lat="41.1223" lon="9.474055"><ele>6.0</ele><time>2026-05-02T08:42:22.669Z</time></trkpt><trkpt lat="41.1221833" lon="9.474015"><ele>6.0</ele><time>2026-05-02T08:42:23.669Z</time></trkpt><trkpt lat="41.1220583" lon="9.4739683"><ele>6.5</ele><time>2026-05-02T08:42:24.669Z</time></trkpt><trkpt lat="41.12193" lon="9.4739167"><ele>7.0</ele><time>2026-05-02T08:42:25.669Z</time></trkpt><trkpt lat="41.1217867" lon="9.4738733"><ele>7.5</ele><time>2026-05-02T08:42:26.669Z</time></trkpt><trkpt lat="41.1216567" lon="9.4737917"><ele>8.0</ele><time>2026-05-02T08:42:27.669Z</time></trkpt><trkpt lat="41.121525" lon="9.473725"><ele>10.0</ele><time>2026-05-02T08:42:28.669Z</time></trkpt><trkpt lat="41.1214" lon="9.473675"><ele>12.0</ele><time>2026-05-02T08:42:29.669Z</time></trkpt><trkpt lat="41.12126" lon="9.4736467"><ele>14.0</ele><time>2026-05-02T08:42:30.669Z</time></trkpt><trkpt lat="41.1211367" lon="9.4735867"><ele>16.0</ele><time>2026-05-02T08:42:31.669Z</time></trkpt><trkpt lat="41.1210167" lon="9.473525"><ele>16.0</ele><time>2026-05-02T08:42:32.669Z</time></trkpt><trkpt lat="41.1208883" lon="9.473475"><ele>16.0</ele><time>2026-05-02T08:42:33.669Z</time></trkpt><trkpt lat="41.1207667" lon="9.4734283"><ele>16.0</ele><time>2026-05-02T08:42:34.669Z</time></trkpt><trkpt lat="41.1206267" lon="9.4733767"><ele>16.0</ele><time>2026-05-02T08:42:35.669Z</time></trkpt><trkpt lat="41.1204917" lon="9.4733217"><ele>18.0</ele><time>2026-05-02T08:42:36.669Z</time></trkpt><trkpt lat="41.1203567" lon="9.4732633"><ele>20.0</ele><time>2026-05-02T08:42:37.669Z</time></trkpt><trkpt lat="41.1202183" lon="9.4732"><ele>22.0</ele><time>2026-05-02T08:42:38.669Z</time></trkpt><trkpt lat="41.1200567" lon="9.47315"><ele>22.0</ele><time>2026-05-02T08:42:39.669Z</time></trkpt><trkpt lat="41.1199267" lon="9.4730733"><ele>22.0</ele><time>2026-05-02T08:42:40.669Z</time></trkpt><trkpt lat="41.1198017" lon="9.47299"><ele>22.0</ele><time>2026-05-02T08:42:41.669Z</time></trkpt><trkpt lat="41.1196667" lon="9.4729117"><ele>22.0</ele><time>2026-05-02T08:42:42.669Z</time></trkpt><trkpt lat="41.1195317" lon="9.4728633"><ele>22.0</ele><time>2026-05-02T08:42:43.669Z</time></trkpt><trkpt lat="41.1193867" lon="9.4728117"><ele>22.0</ele><time>2026-05-02T08:42:44.669Z</time></trkpt><trkpt lat="41.11925" lon="9.4727567"><ele>22.0</ele><time>2026-05-02T08:42:45.669Z</time></trkpt><trkpt lat="41.1191133" lon="9.472695"><ele>22.0</ele><time>2026-05-02T08:42:46.669Z</time></trkpt><trkpt lat="41.1189733" lon="9.4726217"><ele>24.333333333333332</ele><time>2026-05-02T08:42:47.669Z</time></trkpt><trkpt lat="41.1188333" lon="9.4725367"><ele>26.666666666666664</ele><time>2026-05-02T08:42:48.669Z</time></trkpt><trkpt lat="41.1186983" lon="9.47243"><ele>29.0</ele><time>2026-05-02T08:42:49.669Z</time></trkpt><trkpt lat="41.1185667" lon="9.4723133"><ele>29.0</ele><time>2026-05-02T08:42:50.669Z</time></trkpt><trkpt lat="41.118445" lon="9.472195"><ele>29.0</ele><time>2026-05-02T08:42:51.669Z</time></trkpt><trkpt lat="41.118315" lon="9.4720683"><ele>29.0</ele><time>2026-05-02T08:42:52.669Z</time></trkpt><trkpt lat="41.1181817" lon="9.4719483"><ele>28.0</ele><time>2026-05-02T08:42:53.669Z</time></trkpt><trkpt lat="41.11805" lon="9.4718133"><ele>27.0</ele><time>2026-05-02T08:42:54.669Z</time></trkpt><trkpt lat="41.1179117" lon="9.4716883"><ele>26.0</ele><time>2026-05-02T08:42:55.67Z</time></trkpt><trkpt lat="41.117775" lon="9.47157"><ele>26.0</ele><time>2026-05-02T08:42:56.669Z</time></trkpt><trkpt lat="41.1176433" lon="9.4714067"><ele>26.0</ele><time>2026-05-02T08:42:57.669Z</time></trkpt><trkpt lat="41.1175033" lon="9.4713"><ele>26.0</ele><time>2026-05-02T08:42:58.669Z</time></trkpt><trkpt lat="41.11736" lon="9.4711967"><ele>24.0</ele><time>2026-05-02T08:42:59.669Z</time></trkpt><trkpt lat="41.1172133" lon="9.4710983"><ele>22.0</ele><time>2026-05-02T08:43:00.669Z</time></trkpt><trkpt lat="41.1170617" lon="9.471005"><ele>20.0</ele><time>2026-05-02T08:43:01.669Z</time></trkpt><trkpt lat="41.116905" lon="9.470915"><ele>20.0</ele><time>2026-05-02T08:43:02.669Z</time></trkpt><trkpt lat="41.1167483" lon="9.470825"><ele>20.0</ele><time>2026-05-02T08:43:03.669Z</time></trkpt><trkpt lat="41.1165983" lon="9.4707233"><ele>20.0</ele><time>2026-05-02T08:43:04.669Z</time></trkpt><trkpt lat="41.11645" lon="9.4706267"><ele>19.666666666666668</ele><time>2026-05-02T08:43:05.669Z</time></trkpt><trkpt lat="41.1162967" lon="9.4705367"><ele>19.333333333333332</ele><time>2026-05-02T08:43:06.669Z</time></trkpt><trkpt lat="41.11614" lon="9.4704483"><ele>19.0</ele><time>2026-05-02T08:43:07.669Z</time></trkpt><trkpt lat="41.11599" lon="9.47036"><ele>18.666666666666664</ele><time>2026-05-02T08:43:08.669Z</time></trkpt><trkpt lat="41.1158567" lon="9.47024"><ele>18.333333333333332</ele><time>2026-05-02T08:43:09.669Z</time></trkpt><trkpt lat="41.1157417" lon="9.4701"><ele>18.0</ele><time>2026-05-02T08:43:10.669Z</time></trkpt><trkpt lat="41.1156467" lon="9.46994"><ele>18.0</ele><time>2026-05-02T08:43:11.669Z</time></trkpt><trkpt lat="41.11558" lon="9.4697483"><ele>18.0</ele><time>2026-05-02T08:43:12.669Z</time></trkpt><trkpt lat="41.1155283" lon="9.4695417"><ele>18.0</ele><time>2026-05-02T08:43:13.669Z</time></trkpt><trkpt lat="41.115505" lon="9.4693217"><ele>17.666666666666668</ele><time>2026-05-02T08:43:14.669Z</time></trkpt><trkpt lat="41.115495" lon="9.469095"><ele>17.333333333333336</ele><time>2026-05-02T08:43:15.67Z</time></trkpt><trkpt lat="41.1155033" lon="9.4688683"><ele>17.0</ele><time>2026-05-02T08:43:16.669Z</time></trkpt><trkpt lat="41.1155267" lon="9.4686383"><ele>17.0</ele><time>2026-05-02T08:43:17.669Z</time></trkpt><trkpt lat="41.1155533" lon="9.468405"><ele>17.0</ele><time>2026-05-02T08:43:18.669Z</time></trkpt><trkpt lat="41.115585" lon="9.4681717"><ele>17.0</ele><time>2026-05-02T08:43:19.669Z</time></trkpt><trkpt lat="41.115605" lon="9.4679433"><ele>20.333333333333336</ele><time>2026-05-02T08:43:20.669Z</time></trkpt><trkpt lat="41.1156133" lon="9.467745"><ele>23.666666666666668</ele><time>2026-05-02T08:43:21.669Z</time></trkpt><trkpt lat="41.11564" lon="9.46752"><ele>27.0</ele><time>2026-05-02T08:43:22.669Z</time></trkpt><trkpt lat="41.115665" lon="9.4673"><ele>26.666666666666664</ele><time>2026-05-02T08:43:23.669Z</time></trkpt><trkpt lat="41.1156883" lon="9.4670767"><ele>26.333333333333332</ele><time>2026-05-02T08:43:24.669Z</time></trkpt><trkpt lat="41.115695" lon="9.4668433"><ele>26.0</ele><time>2026-05-02T08:43:25.669Z</time></trkpt><trkpt lat="41.1156833" lon="9.466605"><ele>26.0</ele><time>2026-05-02T08:43:26.669Z</time></trkpt><trkpt lat="41.1156483" lon="9.4663717"><ele>26.0</ele><time>2026-05-02T08:43:27.669Z</time></trkpt><trkpt lat="41.11559" lon="9.4661467"><ele>26.0</ele><time>2026-05-02T08:43:28.669Z</time></trkpt><trkpt lat="41.1154933" lon="9.4659467"><ele>21.333333333333332</ele><time>2026-05-02T08:43:29.669Z</time></trkpt><trkpt lat="41.1153617" lon="9.4657683"><ele>16.666666666666664</ele><time>2026-05-02T08:43:30.67Z</time></trkpt><trkpt lat="41.1152217" lon="9.4656033"><ele>12.0</ele><time>2026-05-02T08:43:31.669Z</time></trkpt><trkpt lat="41.11506" lon="9.465475"><ele>9.333333333333334</ele><time>2026-05-02T08:43:32.669Z</time></trkpt><trkpt lat="41.1149" lon="9.4653817"><ele>6.666666666666666</ele><time>2026-05-02T08:43:33.669Z</time></trkpt><trkpt lat="41.1147333" lon="9.4652883"><ele>4.0</ele><time>2026-05-02T08:43:34.669Z</time></trkpt><trkpt lat="41.1145667" lon="9.4651983"><ele>4.0</ele><time>2026-05-02T08:43:35.669Z</time></trkpt><trkpt lat="41.1144067" lon="9.4650983"><ele>4.0</ele><time>2026-05-02T08:43:36.669Z</time></trkpt><trkpt lat="41.11424" lon="9.4649733"><ele>4.0</ele><time>2026-05-02T08:43:37.669Z</time></trkpt><trkpt lat="41.1140817" lon="9.46485"><ele>4.666666666666666</ele><time>2026-05-02T08:43:38.669Z</time></trkpt><trkpt lat="41.1139383" lon="9.46474"><ele>5.333333333333333</ele><time>2026-05-02T08:43:39.669Z</time></trkpt><trkpt lat="41.1137883" lon="9.4646117"><ele>6.0</ele><time>2026-05-02T08:43:40.669Z</time></trkpt><trkpt lat="41.1136433" lon="9.4645067"><ele>6.0</ele><time>2026-05-02T08:43:41.669Z</time></trkpt><trkpt lat="41.1135033" lon="9.46439"><ele>6.0</ele><time>2026-05-02T08:43:42.669Z</time></trkpt><trkpt lat="41.113365" lon="9.4642767"><ele>6.0</ele><time>2026-05-02T08:43:43.67Z</time></trkpt><trkpt lat="41.1132367" lon="9.46415"><ele>6.333333333333334</ele><time>2026-05-02T08:43:44.669Z</time></trkpt><trkpt lat="41.1131083" lon="9.46402"><ele>6.666666666666667</ele><time>2026-05-02T08:43:45.669Z</time></trkpt><trkpt lat="41.1129683" lon="9.46389"><ele>7.0</ele><time>2026-05-02T08:43:46.669Z</time></trkpt><trkpt lat="41.1128283" lon="9.46376"><ele>7.0</ele><time>2026-05-02T08:43:47.669Z</time></trkpt><trkpt lat="41.1126933" lon="9.4636317"><ele>7.0</ele><time>2026-05-02T08:43:48.669Z</time></trkpt><trkpt lat="41.112565" lon="9.4635117"><ele>7.0</ele><time>2026-05-02T08:43:49.669Z</time></trkpt><trkpt lat="41.1124267" lon="9.463405"><ele>7.0</ele><time>2026-05-02T08:43:50.669Z</time></trkpt><trkpt lat="41.1122717" lon="9.4633067"><ele>7.0</ele><time>2026-05-02T08:43:51.669Z</time></trkpt><trkpt lat="41.11211" lon="9.46323"><ele>7.0</ele><time>2026-05-02T08:43:52.669Z</time></trkpt><trkpt lat="41.1119467" lon="9.4631817"><ele>7.0</ele><time>2026-05-02T08:43:53.669Z</time></trkpt><trkpt lat="41.1117517" lon="9.46322"><ele>7.0</ele><time>2026-05-02T08:43:54.669Z</time></trkpt><trkpt lat="41.1115633" lon="9.4632883"><ele>7.0</ele><time>2026-05-02T08:43:55.669Z</time></trkpt><trkpt lat="41.1113867" lon="9.463355"><ele>7.666666666666667</ele><time>2026-05-02T08:43:56.669Z</time></trkpt><trkpt lat="41.1112167" lon="9.4634267"><ele>8.333333333333334</ele><time>2026-05-02T08:43:57.669Z</time></trkpt><trkpt lat="41.11105" lon="9.4635033"><ele>9.0</ele><time>2026-05-02T08:43:58.669Z</time></trkpt><trkpt lat="41.11089" lon="9.4635767"><ele>12.666666666666668</ele><time>2026-05-02T08:43:59.669Z</time></trkpt><trkpt lat="41.1107267" lon="9.463645"><ele>16.333333333333336</ele><time>2026-05-02T08:44:00.669Z</time></trkpt><trkpt lat="41.1105617" lon="9.4637117"><ele>20.0</ele><time>2026-05-02T08:44:01.669Z</time></trkpt><trkpt lat="41.110395" lon="9.463775"><ele>19.333333333333336</ele><time>2026-05-02T08:44:02.669Z</time></trkpt><trkpt lat="41.110235" lon="9.46384"><ele>18.666666666666668</ele><time>2026-05-02T08:44:03.669Z</time></trkpt><trkpt lat="41.1100617" lon="9.4639217"><ele>18.0</ele><time>2026-05-02T08:44:04.669Z</time></trkpt><trkpt lat="41.1098867" lon="9.4640067"><ele>21.666666666666664</ele><time>2026-05-02T08:44:05.669Z</time></trkpt><trkpt lat="41.10972" lon="9.46408"><ele>25.333333333333332</ele><time>2026-05-02T08:44:06.669Z</time></trkpt><trkpt lat="41.109545" lon="9.4641617"><ele>29.0</ele><time>2026-05-02T08:44:07.669Z</time></trkpt><trkpt lat="41.1093683" lon="9.46424"><ele>29.0</ele><time>2026-05-02T08:44:08.669Z</time></trkpt><trkpt lat="41.1091967" lon="9.4642783"><ele>29.0</ele><time>2026-05-02T08:44:09.669Z</time></trkpt><trkpt lat="41.1090267" lon="9.464295"><ele>29.0</ele><time>2026-05-02T08:44:10.669Z</time></trkpt><trkpt lat="41.1088683" lon="9.4642983"><ele>31.5</ele><time>2026-05-02T08:44:11.669Z</time></trkpt><trkpt lat="41.1087267" lon="9.4642817"><ele>34.0</ele><time>2026-05-02T08:44:12.669Z</time></trkpt><trkpt lat="41.1086183" lon="9.464235"><ele>36.5</ele><time>2026-05-02T08:44:13.669Z</time></trkpt><trkpt lat="41.108535" lon="9.4641633"><ele>39.0</ele><time>2026-05-02T08:44:14.669Z</time></trkpt><trkpt lat="41.1084667" lon="9.4640583"><ele>39.0</ele><time>2026-05-02T08:44:15.669Z</time></trkpt><trkpt lat="41.108435" lon="9.4639233"><ele>39.0</ele><time>2026-05-02T08:44:16.669Z</time></trkpt><trkpt lat="41.1084283" lon="9.4637667"><ele>39.0</ele><time>2026-05-02T08:44:17.669Z</time></trkpt><trkpt lat="41.108445" lon="9.4636217"><ele>39.0</ele><time>2026-05-02T08:44:18.669Z</time></trkpt><trkpt lat="41.108485" lon="9.463485"><ele>39.0</ele><time>2026-05-02T08:44:19.669Z</time></trkpt><trkpt lat="41.10854" lon="9.4633567"><ele>40.0</ele><time>2026-05-02T08:44:20.669Z</time></trkpt><trkpt lat="41.1086167" lon="9.463225"><ele>41.0</ele><time>2026-05-02T08:44:21.669Z</time></trkpt><trkpt lat="41.1087283" lon="9.4630933"><ele>42.0</ele><time>2026-05-02T08:44:22.669Z</time></trkpt><trkpt lat="41.108845" lon="9.4629517"><ele>43.0</ele><time>2026-05-02T08:44:23.669Z</time></trkpt><trkpt lat="41.1089667" lon="9.4628033"><ele>42.66666666666667</ele><time>2026-05-02T08:44:24.669Z</time></trkpt><trkpt lat="41.1090733" lon="9.4626483"><ele>42.333333333333336</ele><time>2026-05-02T08:44:25.669Z</time></trkpt><trkpt lat="41.1091617" lon="9.4624817"><ele>42.0</ele><time>2026-05-02T08:44:26.669Z</time></trkpt><trkpt lat="41.109235" lon="9.4622983"><ele>42.0</ele><time>2026-05-02T08:44:27.669Z</time></trkpt><trkpt lat="41.109285" lon="9.462125"><ele>42.0</ele><time>2026-05-02T08:44:28.669Z</time></trkpt><trkpt lat="41.1093217" lon="9.4619433"><ele>42.0</ele><time>2026-05-02T08:44:29.669Z</time></trkpt><trkpt lat="41.109315" lon="9.4617533"><ele>42.0</ele><time>2026-05-02T08:44:30.669Z</time></trkpt><trkpt lat="41.1092783" lon="9.4615583"><ele>43.666666666666664</ele><time>2026-05-02T08:44:31.669Z</time></trkpt><trkpt lat="41.1091867" lon="9.461355"><ele>45.33333333333333</ele><time>2026-05-02T08:44:32.67Z</time></trkpt><trkpt lat="41.1090567" lon="9.46116"><ele>47.0</ele><time>2026-05-02T08:44:33.669Z</time></trkpt><trkpt lat="41.1088667" lon="9.46096"><ele>48.0</ele><time>2026-05-02T08:44:34.669Z</time></trkpt><trkpt lat="41.1087033" lon="9.4607583"><ele>49.0</ele><time>2026-05-02T08:44:35.669Z</time></trkpt><trkpt lat="41.1085617" lon="9.4605617"><ele>50.0</ele><time>2026-05-02T08:44:36.669Z</time></trkpt><trkpt lat="41.1084333" lon="9.46036"><ele>50.0</ele><time>2026-05-02T08:44:37.669Z</time></trkpt><trkpt lat="41.1083017" lon="9.4601633"><ele>50.0</ele><time>2026-05-02T08:44:38.669Z</time></trkpt><trkpt lat="41.1081833" lon="9.459985"><ele>50.0</ele><time>2026-05-02T08:44:39.669Z</time></trkpt><trkpt lat="41.1080633" lon="9.4598133"><ele>51.0</ele><time>2026-05-02T08:44:40.669Z</time></trkpt><trkpt lat="41.1079517" lon="9.4596333"><ele>52.0</ele><time>2026-05-02T08:44:41.669Z</time></trkpt><trkpt lat="41.1078417" lon="9.4594567"><ele>53.0</ele><time>2026-05-02T08:44:42.669Z</time></trkpt><trkpt lat="41.1077333" lon="9.459275"><ele>50.333333333333336</ele><time>2026-05-02T08:44:43.669Z</time></trkpt><trkpt lat="41.1076217" lon="9.459105"><ele>47.66666666666667</ele><time>2026-05-02T08:44:44.669Z</time></trkpt><trkpt lat="41.1075133" lon="9.45893"><ele>45.0</ele><time>2026-05-02T08:44:45.669Z</time></trkpt><trkpt lat="41.1073967" lon="9.4587583"><ele>44.0</ele><time>2026-05-02T08:44:46.669Z</time></trkpt><trkpt lat="41.1072717" lon="9.4585983"><ele>43.0</ele><time>2026-05-02T08:44:47.669Z</time></trkpt><trkpt lat="41.1071283" lon="9.4584567"><ele>42.0</ele><time>2026-05-02T08:44:48.669Z</time></trkpt><trkpt lat="41.106985" lon="9.45832"><ele>42.0</ele><time>2026-05-02T08:44:49.669Z</time></trkpt><trkpt lat="41.1068483" lon="9.4581783"><ele>42.0</ele><time>2026-05-02T08:44:50.669Z</time></trkpt><trkpt lat="41.1067233" lon="9.4580433"><ele>42.0</ele><time>2026-05-02T08:44:51.669Z</time></trkpt><trkpt lat="41.1066067" lon="9.4578983"><ele>42.333333333333336</ele><time>2026-05-02T08:44:52.669Z</time></trkpt><trkpt lat="41.106505" lon="9.4577467"><ele>42.66666666666667</ele><time>2026-05-02T08:44:53.669Z</time></trkpt><trkpt lat="41.10641" lon="9.4575333"><ele>43.0</ele><time>2026-05-02T08:44:54.669Z</time></trkpt><trkpt lat="41.10631" lon="9.457335"><ele>43.0</ele><time>2026-05-02T08:44:55.669Z</time></trkpt><trkpt lat="41.10621" lon="9.4571217"><ele>43.0</ele><time>2026-05-02T08:44:56.669Z</time></trkpt><trkpt lat="41.106115" lon="9.45695"><ele>43.0</ele><time>2026-05-02T08:44:57.669Z</time></trkpt><trkpt lat="41.1059767" lon="9.4568283"><ele>40.333333333333336</ele><time>2026-05-02T08:44:58.669Z</time></trkpt><trkpt lat="41.105825" lon="9.4567033"><ele>37.666666666666664</ele><time>2026-05-02T08:44:59.669Z</time></trkpt><trkpt lat="41.1056183" lon="9.45666"><ele>35.0</ele><time>2026-05-02T08:45:00.669Z</time></trkpt><trkpt lat="41.10544" lon="9.4566167"><ele>34.0</ele><time>2026-05-02T08:45:01.669Z</time></trkpt><trkpt lat="41.1052717" lon="9.4565983"><ele>33.0</ele><time>2026-05-02T08:45:02.669Z</time></trkpt><trkpt lat="41.1051" lon="9.4566117"><ele>32.0</ele><time>2026-05-02T08:45:03.669Z</time></trkpt><trkpt lat="41.104945" lon="9.456665"><ele>30.666666666666664</ele><time>2026-05-02T08:45:04.669Z</time></trkpt><trkpt lat="41.10478" lon="9.4567"><ele>29.333333333333336</ele><time>2026-05-02T08:45:05.669Z</time></trkpt><trkpt lat="41.1046183" lon="9.4567317"><ele>28.0</ele><time>2026-05-02T08:45:06.669Z</time></trkpt><trkpt lat="41.1044283" lon="9.4567433"><ele>28.0</ele><time>2026-05-02T08:45:07.669Z</time></trkpt><trkpt lat="41.1042433" lon="9.4567783"><ele>28.0</ele><time>2026-05-02T08:45:08.669Z</time></trkpt><trkpt lat="41.1040683" lon="9.4568133"><ele>28.0</ele><time>2026-05-02T08:45:09.669Z</time></trkpt><trkpt lat="41.1039" lon="9.45687"><ele>26.0</ele><time>2026-05-02T08:45:10.669Z</time></trkpt><trkpt lat="41.1037283" lon="9.4568983"><ele>24.0</ele><time>2026-05-02T08:45:11.669Z</time></trkpt><trkpt lat="41.10356" lon="9.4569033"><ele>22.0</ele><time>2026-05-02T08:45:12.669Z</time></trkpt><trkpt lat="41.103395" lon="9.45688"><ele>21.0</ele><time>2026-05-02T08:45:13.669Z</time></trkpt><trkpt lat="41.1032417" lon="9.45682"><ele>20.0</ele><time>2026-05-02T08:45:14.669Z</time></trkpt><trkpt lat="41.10309" lon="9.45671"><ele>19.0</ele><time>2026-05-02T08:45:15.669Z</time></trkpt><trkpt lat="41.10293" lon="9.4566067"><ele>19.0</ele><time>2026-05-02T08:45:16.669Z</time></trkpt><trkpt lat="41.1027767" lon="9.456485"><ele>19.0</ele><time>2026-05-02T08:45:17.669Z</time></trkpt><trkpt lat="41.102625" lon="9.456365"><ele>19.0</ele><time>2026-05-02T08:45:18.669Z</time></trkpt><trkpt lat="41.1024783" lon="9.4562483"><ele>17.0</ele><time>2026-05-02T08:45:19.669Z</time></trkpt><trkpt lat="41.1023467" lon="9.4560983"><ele>15.0</ele><time>2026-05-02T08:45:20.669Z</time></trkpt><trkpt lat="41.102185" lon="9.455985"><ele>13.0</ele><time>2026-05-02T08:45:21.669Z</time></trkpt><trkpt lat="41.1020267" lon="9.45588"><ele>13.0</ele><time>2026-05-02T08:45:22.669Z</time></trkpt><trkpt lat="41.1018667" lon="9.4557917"><ele>13.0</ele><time>2026-05-02T08:45:23.669Z</time></trkpt><trkpt lat="41.1016983" lon="9.4557233"><ele>13.0</ele><time>2026-05-02T08:45:24.669Z</time></trkpt><trkpt lat="41.1015233" lon="9.4556833"><ele>13.333333333333332</ele><time>2026-05-02T08:45:25.669Z</time></trkpt><trkpt lat="41.1013533" lon="9.45565"><ele>13.666666666666668</ele><time>2026-05-02T08:45:26.669Z</time></trkpt><trkpt lat="41.1011817" lon="9.4556283"><ele>14.0</ele><time>2026-05-02T08:45:27.669Z</time></trkpt><trkpt lat="41.101015" lon="9.4556083"><ele>14.0</ele><time>2026-05-02T08:45:28.669Z</time></trkpt><trkpt lat="41.100845" lon="9.4555983"><ele>14.0</ele><time>2026-05-02T08:45:29.669Z</time></trkpt><trkpt lat="41.10068" lon="9.45559"><ele>14.0</ele><time>2026-05-02T08:45:30.669Z</time></trkpt><trkpt lat="41.10051" lon="9.4555733"><ele>14.0</ele><time>2026-05-02T08:45:31.669Z</time></trkpt><trkpt lat="41.1003433" lon="9.4555567"><ele>14.0</ele><time>2026-05-02T08:45:32.669Z</time></trkpt><trkpt lat="41.1001867" lon="9.4555283"><ele>14.0</ele><time>2026-05-02T08:45:33.669Z</time></trkpt><trkpt lat="41.10003" lon="9.455495"><ele>15.333333333333334</ele><time>2026-05-02T08:45:34.669Z</time></trkpt><trkpt lat="41.099875" lon="9.4554367"><ele>16.666666666666668</ele><time>2026-05-02T08:45:35.669Z</time></trkpt><trkpt lat="41.0997283" lon="9.4553517"><ele>18.0</ele><time>2026-05-02T08:45:36.669Z</time></trkpt><trkpt lat="41.0995867" lon="9.4552283"><ele>18.0</ele><time>2026-05-02T08:45:37.669Z</time></trkpt><trkpt lat="41.0994467" lon="9.455095"><ele>18.0</ele><time>2026-05-02T08:45:38.669Z</time></trkpt><trkpt lat="41.0993217" lon="9.45495"><ele>18.0</ele><time>2026-05-02T08:45:39.669Z</time></trkpt><trkpt lat="41.0992083" lon="9.4547683"><ele>17.666666666666668</ele><time>2026-05-02T08:45:40.669Z</time></trkpt><trkpt lat="41.0990983" lon="9.4545933"><ele>17.333333333333336</ele><time>2026-05-02T08:45:41.669Z</time></trkpt><trkpt lat="41.0989867" lon="9.4544217"><ele>17.0</ele><time>2026-05-02T08:45:42.669Z</time></trkpt><trkpt lat="41.0988683" lon="9.4542583"><ele>17.0</ele><time>2026-05-02T08:45:43.669Z</time></trkpt><trkpt lat="41.0987433" lon="9.4541133"><ele>17.0</ele><time>2026-05-02T08:45:44.669Z</time></trkpt><trkpt lat="41.0986067" lon="9.45398"><ele>17.0</ele><time>2026-05-02T08:45:45.669Z</time></trkpt><trkpt lat="41.0984633" lon="9.4538633"><ele>16.333333333333336</ele><time>2026-05-02T08:45:46.669Z</time></trkpt><trkpt lat="41.0982983" lon="9.45378"><ele>15.666666666666668</ele><time>2026-05-02T08:45:47.669Z</time></trkpt><trkpt lat="41.098105" lon="9.4537233"><ele>15.0</ele><time>2026-05-02T08:45:48.669Z</time></trkpt><trkpt lat="41.0979217" lon="9.4536667"><ele>15.0</ele><time>2026-05-02T08:45:49.669Z</time></trkpt><trkpt lat="41.09774" lon="9.45361"><ele>15.0</ele><time>2026-05-02T08:45:50.669Z</time></trkpt><trkpt lat="41.0975733" lon="9.4535483"><ele>15.0</ele><time>2026-05-02T08:45:51.669Z</time></trkpt><trkpt lat="41.0974433" lon="9.4534633"><ele>15.666666666666668</ele><time>2026-05-02T08:45:52.669Z</time></trkpt><trkpt lat="41.0972883" lon="9.4533983"><ele>16.333333333333336</ele><time>2026-05-02T08:45:53.669Z</time></trkpt><trkpt lat="41.097125" lon="9.45334"><ele>17.0</ele><time>2026-05-02T08:45:54.669Z</time></trkpt><trkpt lat="41.0969717" lon="9.4532617"><ele>17.0</ele><time>2026-05-02T08:45:55.669Z</time></trkpt><trkpt lat="41.0968217" lon="9.45321"><ele>17.0</ele><time>2026-05-02T08:45:56.669Z</time></trkpt><trkpt lat="41.0966583" lon="9.4531633"><ele>17.0</ele><time>2026-05-02T08:45:57.669Z</time></trkpt><trkpt lat="41.0964833" lon="9.4530983"><ele>17.333333333333336</ele><time>2026-05-02T08:45:58.669Z</time></trkpt><trkpt lat="41.0963133" lon="9.4530367"><ele>17.666666666666668</ele><time>2026-05-02T08:45:59.669Z</time></trkpt><trkpt lat="41.0961367" lon="9.4529883"><ele>18.0</ele><time>2026-05-02T08:46:00.669Z</time></trkpt><trkpt lat="41.0959583" lon="9.4529417"><ele>17.333333333333332</ele><time>2026-05-02T08:46:01.669Z</time></trkpt><trkpt lat="41.095785" lon="9.4528783"><ele>16.666666666666664</ele><time>2026-05-02T08:46:02.669Z</time></trkpt><trkpt lat="41.0956083" lon="9.4528033"><ele>16.0</ele><time>2026-05-02T08:46:03.669Z</time></trkpt><trkpt lat="41.0954383" lon="9.4527367"><ele>16.0</ele><time>2026-05-02T08:46:04.669Z</time></trkpt><trkpt lat="41.09527" lon="9.4526617"><ele>16.0</ele><time>2026-05-02T08:46:05.669Z</time></trkpt><trkpt lat="41.0950817" lon="9.4525833"><ele>16.0</ele><time>2026-05-02T08:46:06.669Z</time></trkpt><trkpt lat="41.0949117" lon="9.4524967"><ele>17.333333333333332</ele><time>2026-05-02T08:46:07.669Z</time></trkpt><trkpt lat="41.0947317" lon="9.452445"><ele>18.666666666666668</ele><time>2026-05-02T08:46:08.669Z</time></trkpt><trkpt lat="41.0945567" lon="9.452395"><ele>20.0</ele><time>2026-05-02T08:46:09.669Z</time></trkpt><trkpt lat="41.0943933" lon="9.4523183"><ele>20.0</ele><time>2026-05-02T08:46:10.669Z</time></trkpt><trkpt lat="41.0942267" lon="9.4522633"><ele>20.0</ele><time>2026-05-02T08:46:11.669Z</time></trkpt><trkpt lat="41.0940683" lon="9.4521883"><ele>20.0</ele><time>2026-05-02T08:46:12.669Z</time></trkpt><trkpt lat="41.0939067" lon="9.452135"><ele>18.666666666666668</ele><time>2026-05-02T08:46:13.669Z</time></trkpt><trkpt lat="41.09377" lon="9.4520467"><ele>17.333333333333332</ele><time>2026-05-02T08:46:14.669Z</time></trkpt><trkpt lat="41.0936217" lon="9.45196"><ele>16.0</ele><time>2026-05-02T08:46:15.669Z</time></trkpt><trkpt lat="41.0934733" lon="9.45188"><ele>16.0</ele><time>2026-05-02T08:46:16.669Z</time></trkpt><trkpt lat="41.0933017" lon="9.4518417"><ele>16.0</ele><time>2026-05-02T08:46:17.669Z</time></trkpt><trkpt lat="41.0931333" lon="9.4517967"><ele>16.0</ele><time>2026-05-02T08:46:18.669Z</time></trkpt><trkpt lat="41.09298" lon="9.4517967"><ele>16.333333333333332</ele><time>2026-05-02T08:46:19.669Z</time></trkpt><trkpt lat="41.092825" lon="9.451845"><ele>16.666666666666668</ele><time>2026-05-02T08:46:20.669Z</time></trkpt><trkpt lat="41.0926733" lon="9.4519167"><ele>17.0</ele><time>2026-05-02T08:46:21.67Z</time></trkpt><trkpt lat="41.09252" lon="9.4520017"><ele>16.0</ele><time>2026-05-02T08:46:22.669Z</time></trkpt><trkpt lat="41.0923433" lon="9.4520917"><ele>15.0</ele><time>2026-05-02T08:46:23.669Z</time></trkpt><trkpt lat="41.0921717" lon="9.452205"><ele>14.0</ele><time>2026-05-02T08:46:24.669Z</time></trkpt><trkpt lat="41.0920083" lon="9.452335"><ele>16.333333333333336</ele><time>2026-05-02T08:46:25.669Z</time></trkpt><trkpt lat="41.0918583" lon="9.4524683"><ele>18.666666666666668</ele><time>2026-05-02T08:46:26.669Z</time></trkpt><trkpt lat="41.09171" lon="9.4526"><ele>21.0</ele><time>2026-05-02T08:46:27.67Z</time></trkpt><trkpt lat="41.0915617" lon="9.45274"><ele>21.0</ele><time>2026-05-02T08:46:28.669Z</time></trkpt><trkpt lat="41.0914017" lon="9.452875"><ele>21.0</ele><time>2026-05-02T08:46:29.669Z</time></trkpt><trkpt lat="41.0912533" lon="9.4529933"><ele>21.0</ele><time>2026-05-02T08:46:30.669Z</time></trkpt><trkpt lat="41.0911033" lon="9.4530917"><ele>22.333333333333336</ele><time>2026-05-02T08:46:31.669Z</time></trkpt><trkpt lat="41.0909483" lon="9.4531683"><ele>23.666666666666668</ele><time>2026-05-02T08:46:32.669Z</time></trkpt><trkpt lat="41.090795" lon="9.4532183"><ele>25.0</ele><time>2026-05-02T08:46:33.669Z</time></trkpt><trkpt lat="41.0906517" lon="9.453225"><ele>25.0</ele><time>2026-05-02T08:46:34.669Z</time></trkpt><trkpt lat="41.0904917" lon="9.4532033"><ele>25.0</ele><time>2026-05-02T08:46:35.669Z</time></trkpt><trkpt lat="41.0903417" lon="9.4531883"><ele>25.0</ele><time>2026-05-02T08:46:36.669Z</time></trkpt><trkpt lat="41.0901567" lon="9.4531967"><ele>25.0</ele><time>2026-05-02T08:46:37.669Z</time></trkpt><trkpt lat="41.0899967" lon="9.4531783"><ele>25.0</ele><time>2026-05-02T08:46:38.669Z</time></trkpt><trkpt lat="41.0898233" lon="9.453185"><ele>25.0</ele><time>2026-05-02T08:46:39.669Z</time></trkpt><trkpt lat="41.0896583" lon="9.4532217"><ele>23.333333333333336</ele><time>2026-05-02T08:46:40.669Z</time></trkpt><trkpt lat="41.089495" lon="9.4533117"><ele>21.666666666666668</ele><time>2026-05-02T08:46:41.669Z</time></trkpt><trkpt lat="41.089325" lon="9.4533917"><ele>20.0</ele><time>2026-05-02T08:46:42.669Z</time></trkpt><trkpt lat="41.0891533" lon="9.4534983"><ele>19.666666666666668</ele><time>2026-05-02T08:46:43.669Z</time></trkpt><trkpt lat="41.0889917" lon="9.4536017"><ele>19.333333333333332</ele><time>2026-05-02T08:46:44.669Z</time></trkpt><trkpt lat="41.0888317" lon="9.4536967"><ele>19.0</ele><time>2026-05-02T08:46:45.669Z</time></trkpt><trkpt lat="41.0886767" lon="9.4538167"><ele>19.0</ele><time>2026-05-02T08:46:46.669Z</time></trkpt><trkpt lat="41.0885067" lon="9.4539083"><ele>19.0</ele><time>2026-05-02T08:46:47.669Z</time></trkpt><trkpt lat="41.0883517" lon="9.4539583"><ele>19.0</ele><time>2026-05-02T08:46:48.669Z</time></trkpt><trkpt lat="41.0881967" lon="9.45397"><ele>19.666666666666664</ele><time>2026-05-02T08:46:49.669Z</time></trkpt><trkpt lat="41.0880417" lon="9.4539683"><ele>20.333333333333332</ele><time>2026-05-02T08:46:50.669Z</time></trkpt><trkpt lat="41.0878917" lon="9.4539183"><ele>21.0</ele><time>2026-05-02T08:46:51.669Z</time></trkpt><trkpt lat="41.0877533" lon="9.4538067"><ele>21.0</ele><time>2026-05-02T08:46:52.669Z</time></trkpt><trkpt lat="41.0875983" lon="9.4537233"><ele>21.0</ele><time>2026-05-02T08:46:53.669Z</time></trkpt><trkpt lat="41.0874483" lon="9.4536233"><ele>21.0</ele><time>2026-05-02T08:46:54.669Z</time></trkpt><trkpt lat="41.0873" lon="9.4535233"><ele>21.0</ele><time>2026-05-02T08:46:55.67Z</time></trkpt><trkpt lat="41.0871517" lon="9.4534317"><ele>21.0</ele><time>2026-05-02T08:46:56.669Z</time></trkpt><trkpt lat="41.087" lon="9.4533367"><ele>21.0</ele><time>2026-05-02T08:46:57.669Z</time></trkpt><trkpt lat="41.0868517" lon="9.4532517"><ele>21.0</ele><time>2026-05-02T08:46:58.669Z</time></trkpt><trkpt lat="41.086695" lon="9.4532"><ele>21.0</ele><time>2026-05-02T08:46:59.669Z</time></trkpt><trkpt lat="41.0865333" lon="9.453175"><ele>21.0</ele><time>2026-05-02T08:47:00.669Z</time></trkpt><trkpt lat="41.086365" lon="9.453185"><ele>21.0</ele><time>2026-05-02T08:47:01.669Z</time></trkpt><trkpt lat="41.0861967" lon="9.45323"><ele>21.0</ele><time>2026-05-02T08:47:02.669Z</time></trkpt><trkpt lat="41.0860333" lon="9.4533033"><ele>21.0</ele><time>2026-05-02T08:47:03.669Z</time></trkpt><trkpt lat="41.08588" lon="9.4534083"><ele>21.0</ele><time>2026-05-02T08:47:04.669Z</time></trkpt><trkpt lat="41.0857667" lon="9.4536"><ele>21.0</ele><time>2026-05-02T08:47:05.669Z</time></trkpt><trkpt lat="41.0856767" lon="9.45376"><ele>21.0</ele><time>2026-05-02T08:47:06.669Z</time></trkpt><trkpt lat="41.08559" lon="9.45391"><ele>20.400000000000002</ele><time>2026-05-02T08:47:07.669Z</time></trkpt><trkpt lat="41.08552" lon="9.454045"><ele>19.8</ele><time>2026-05-02T08:47:08.669Z</time></trkpt><trkpt lat="41.0854583" lon="9.4541667"><ele>19.200000000000003</ele><time>2026-05-02T08:47:09.669Z</time></trkpt><trkpt lat="41.0853917" lon="9.4542583"><ele>18.6</ele><time>2026-05-02T08:47:10.669Z</time></trkpt><trkpt lat="41.0853217" lon="9.4543267"><ele>18.0</ele><time>2026-05-02T08:47:11.669Z</time></trkpt><trkpt lat="41.0852433" lon="9.45435"><ele>18.0</ele><time>2026-05-02T08:47:12.669Z</time></trkpt><trkpt lat="41.0851633" lon="9.45436"><ele>18.0</ele><time>2026-05-02T08:47:13.669Z</time></trkpt><trkpt lat="41.0850783" lon="9.454335"><ele>18.0</ele><time>2026-05-02T08:47:14.669Z</time></trkpt><trkpt lat="41.0850017" lon="9.4543217"><ele>18.0</ele><time>2026-05-02T08:47:15.669Z</time></trkpt><trkpt lat="41.084895" lon="9.45425"><ele>18.0</ele><time>2026-05-02T08:47:16.669Z</time></trkpt><trkpt lat="41.0847583" lon="9.4541333"><ele>16.333333333333332</ele><time>2026-05-02T08:47:17.669Z</time></trkpt><trkpt lat="41.0845683" lon="9.45393"><ele>14.666666666666666</ele><time>2026-05-02T08:47:18.669Z</time></trkpt><trkpt lat="41.0844083" lon="9.4537983"><ele>13.0</ele><time>2026-05-02T08:47:19.669Z</time></trkpt><trkpt lat="41.0842567" lon="9.4536867"><ele>13.0</ele><time>2026-05-02T08:47:20.669Z</time></trkpt><trkpt lat="41.0841133" lon="9.453575"><ele>13.0</ele><time>2026-05-02T08:47:21.669Z</time></trkpt><trkpt lat="41.0839833" lon="9.453435"><ele>13.0</ele><time>2026-05-02T08:47:22.669Z</time></trkpt><trkpt lat="41.0838483" lon="9.453275"><ele>11.666666666666666</ele><time>2026-05-02T08:47:23.669Z</time></trkpt><trkpt lat="41.08373" lon="9.4531033"><ele>10.333333333333332</ele><time>2026-05-02T08:47:24.669Z</time></trkpt><trkpt lat="41.0836283" lon="9.4529317"><ele>9.0</ele><time>2026-05-02T08:47:25.669Z</time></trkpt><trkpt lat="41.0835433" lon="9.4527133"><ele>9.0</ele><time>2026-05-02T08:47:26.669Z</time></trkpt><trkpt lat="41.08347" lon="9.4525133"><ele>9.0</ele><time>2026-05-02T08:47:27.669Z</time></trkpt><trkpt lat="41.0834117" lon="9.452285"><ele>9.0</ele><time>2026-05-02T08:47:28.669Z</time></trkpt><trkpt lat="41.0833533" lon="9.4520867"><ele>8.0</ele><time>2026-05-02T08:47:29.669Z</time></trkpt><trkpt lat="41.0832883" lon="9.451895"><ele>7.0</ele><time>2026-05-02T08:47:30.669Z</time></trkpt><trkpt lat="41.0832333" lon="9.451685"><ele>6.0</ele><time>2026-05-02T08:47:31.669Z</time></trkpt><trkpt lat="41.0831767" lon="9.4514767"><ele>5.0</ele><time>2026-05-02T08:47:32.669Z</time></trkpt><trkpt lat="41.0831133" lon="9.45128"><ele>4.0</ele><time>2026-05-02T08:47:33.669Z</time></trkpt><trkpt lat="41.08306" lon="9.451075"><ele>3.0</ele><time>2026-05-02T08:47:34.669Z</time></trkpt><trkpt lat="41.0830067" lon="9.45089"><ele>3.0</ele><time>2026-05-02T08:47:35.669Z</time></trkpt><trkpt lat="41.0829467" lon="9.4507067"><ele>3.0</ele><time>2026-05-02T08:47:36.669Z</time></trkpt><trkpt lat="41.0828967" lon="9.4505217"><ele>3.0</ele><time>2026-05-02T08:47:37.67Z</time></trkpt><trkpt lat="41.0828367" lon="9.4503517"><ele>3.0</ele><time>2026-05-02T08:47:38.669Z</time></trkpt><trkpt lat="41.0827733" lon="9.450175"><ele>3.0</ele><time>2026-05-02T08:47:39.669Z</time></trkpt><trkpt lat="41.0827183" lon="9.449995"><ele>3.0</ele><time>2026-05-02T08:47:40.669Z</time></trkpt><trkpt lat="41.0826717" lon="9.4498083"><ele>3.0</ele><time>2026-05-02T08:47:41.669Z</time></trkpt><trkpt lat="41.0826333" lon="9.4495967"><ele>2.6666666666666665</ele><time>2026-05-02T08:47:42.669Z</time></trkpt><trkpt lat="41.08262" lon="9.4493733"><ele>2.333333333333333</ele><time>2026-05-02T08:47:43.669Z</time></trkpt><trkpt lat="41.08261" lon="9.4491633"><ele>2.0</ele><time>2026-05-02T08:47:44.669Z</time></trkpt><trkpt lat="41.0825967" lon="9.448955"><ele>2.0</ele><time>2026-05-02T08:47:45.669Z</time></trkpt><trkpt lat="41.0825833" lon="9.4487533"><ele>2.0</ele><time>2026-05-02T08:47:46.669Z</time></trkpt><trkpt lat="41.0825767" lon="9.4485533"><ele>2.0</ele><time>2026-05-02T08:47:47.669Z</time></trkpt><trkpt lat="41.0825767" lon="9.4483517"><ele>2.0</ele><time>2026-05-02T08:47:48.669Z</time></trkpt><trkpt lat="41.0825933" lon="9.4481617"><ele>2.0</ele><time>2026-05-02T08:47:49.669Z</time></trkpt><trkpt lat="41.082625" lon="9.4479833"><ele>2.0</ele><time>2026-05-02T08:47:50.669Z</time></trkpt><trkpt lat="41.08268" lon="9.4478083"><ele>2.0</ele><time>2026-05-02T08:47:51.669Z</time></trkpt><trkpt lat="41.0827567" lon="9.4476367"><ele>2.0</ele><time>2026-05-02T08:47:52.669Z</time></trkpt><trkpt lat="41.0828383" lon="9.4474667"><ele>2.0</ele><time>2026-05-02T08:47:53.669Z</time></trkpt><trkpt lat="41.082915" lon="9.4473"><ele>2.0</ele><time>2026-05-02T08:47:54.669Z</time></trkpt><trkpt lat="41.08298" lon="9.4471333"><ele>2.0</ele><time>2026-05-02T08:47:55.669Z</time></trkpt><trkpt lat="41.08305" lon="9.446945"><ele>2.0</ele><time>2026-05-02T08:47:56.669Z</time></trkpt><trkpt lat="41.083095" lon="9.4467767"><ele>2.0</ele><time>2026-05-02T08:47:57.67Z</time></trkpt><trkpt lat="41.0831233" lon="9.4466133"><ele>2.0</ele><time>2026-05-02T08:47:58.669Z</time></trkpt><trkpt lat="41.083135" lon="9.4464467"><ele>2.0</ele><time>2026-05-02T08:47:59.669Z</time></trkpt><trkpt lat="41.0831367" lon="9.446295"><ele>2.4000000000000004</ele><time>2026-05-02T08:48:00.669Z</time></trkpt><trkpt lat="41.083125" lon="9.446155"><ele>2.8000000000000003</ele><time>2026-05-02T08:48:01.669Z</time></trkpt><trkpt lat="41.0831133" lon="9.4460083"><ele>3.2</ele><time>2026-05-02T08:48:02.669Z</time></trkpt><trkpt lat="41.083105" lon="9.4458683"><ele>3.6</ele><time>2026-05-02T08:48:03.669Z</time></trkpt><trkpt lat="41.0831083" lon="9.445725"><ele>4.0</ele><time>2026-05-02T08:48:04.669Z</time></trkpt><trkpt lat="41.0831167" lon="9.4455917"><ele>4.0</ele><time>2026-05-02T08:48:05.669Z</time></trkpt><trkpt lat="41.0831183" lon="9.445465"><ele>4.0</ele><time>2026-05-02T08:48:06.669Z</time></trkpt><trkpt lat="41.0831133" lon="9.44533"><ele>4.0</ele><time>2026-05-02T08:48:07.669Z</time></trkpt><trkpt lat="41.0831017" lon="9.4452017"><ele>4.0</ele><time>2026-05-02T08:48:08.669Z</time></trkpt><trkpt lat="41.0830933" lon="9.4450583"><ele>4.0</ele><time>2026-05-02T08:48:09.669Z</time></trkpt><trkpt lat="41.0830783" lon="9.4449"><ele>4.0</ele><time>2026-05-02T08:48:10.669Z</time></trkpt><trkpt lat="41.0830633" lon="9.4447567"><ele>4.0</ele><time>2026-05-02T08:48:11.669Z</time></trkpt><trkpt lat="41.0830567" lon="9.4446133"><ele>4.0</ele><time>2026-05-02T08:48:12.669Z</time></trkpt><trkpt lat="41.08305" lon="9.444475"><ele>4.0</ele><time>2026-05-02T08:48:13.669Z</time></trkpt><trkpt lat="41.0830383" lon="9.4443383"><ele>4.0</ele><time>2026-05-02T08:48:14.669Z</time></trkpt><trkpt lat="41.0830333" lon="9.4442133"><ele>3.5</ele><time>2026-05-02T08:48:15.669Z</time></trkpt><trkpt lat="41.0830367" lon="9.4440767"><ele>3.0</ele><time>2026-05-02T08:48:16.669Z</time></trkpt><trkpt lat="41.08305" lon="9.4439317"><ele>2.5</ele><time>2026-05-02T08:48:17.669Z</time></trkpt><trkpt lat="41.08307" lon="9.4437717"><ele>2.0</ele><time>2026-05-02T08:48:18.669Z</time></trkpt><trkpt lat="41.0831067" lon="9.4436167"><ele>2.0</ele><time>2026-05-02T08:48:19.669Z</time></trkpt><trkpt lat="41.0831583" lon="9.4434583"><ele>2.0</ele><time>2026-05-02T08:48:20.669Z</time></trkpt><trkpt lat="41.0832317" lon="9.4433083"><ele>2.0</ele><time>2026-05-02T08:48:21.669Z</time></trkpt><trkpt lat="41.08332" lon="9.443175"><ele>2.0</ele><time>2026-05-02T08:48:22.669Z</time></trkpt><trkpt lat="41.0834167" lon="9.443045"><ele>2.0</ele><time>2026-05-02T08:48:23.669Z</time></trkpt><trkpt lat="41.0835167" lon="9.4429183"><ele>2.0</ele><time>2026-05-02T08:48:24.669Z</time></trkpt><trkpt lat="41.0836333" lon="9.4427917"><ele>2.0</ele><time>2026-05-02T08:48:25.669Z</time></trkpt><trkpt lat="41.0837383" lon="9.44267"><ele>2.0</ele><time>2026-05-02T08:48:26.669Z</time></trkpt><trkpt lat="41.0838467" lon="9.4425517"><ele>2.0</ele><time>2026-05-02T08:48:27.669Z</time></trkpt><trkpt lat="41.0839567" lon="9.442435"><ele>2.0</ele><time>2026-05-02T08:48:28.669Z</time></trkpt><trkpt lat="41.0840533" lon="9.4423133"><ele>2.0</ele><time>2026-05-02T08:48:29.669Z</time></trkpt><trkpt lat="41.0841333" lon="9.4421883"><ele>2.0</ele><time>2026-05-02T08:48:30.669Z</time></trkpt><trkpt lat="41.0841983" lon="9.4420483"><ele>2.5</ele><time>2026-05-02T08:48:31.669Z</time></trkpt><trkpt lat="41.0842483" lon="9.441875"><ele>3.0</ele><time>2026-05-02T08:48:32.669Z</time></trkpt><trkpt lat="41.084285" lon="9.44169"><ele>3.5</ele><time>2026-05-02T08:48:33.67Z</time></trkpt><trkpt lat="41.0843067" lon="9.4415"><ele>4.0</ele><time>2026-05-02T08:48:34.669Z</time></trkpt><trkpt lat="41.084305" lon="9.441305"><ele>4.0</ele><time>2026-05-02T08:48:35.669Z</time></trkpt><trkpt lat="41.084305" lon="9.4411117"><ele>4.0</ele><time>2026-05-02T08:48:36.669Z</time></trkpt><trkpt lat="41.0843083" lon="9.4409217"><ele>4.0</ele><time>2026-05-02T08:48:37.669Z</time></trkpt><trkpt lat="41.0843183" lon="9.440715"><ele>4.0</ele><time>2026-05-02T08:48:38.669Z</time></trkpt><trkpt lat="41.0843233" lon="9.4405217"><ele>4.666666666666666</ele><time>2026-05-02T08:48:39.669Z</time></trkpt><trkpt lat="41.0843333" lon="9.4403133"><ele>5.333333333333333</ele><time>2026-05-02T08:48:40.67Z</time></trkpt><trkpt lat="41.0843467" lon="9.4401067"><ele>6.0</ele><time>2026-05-02T08:48:41.669Z</time></trkpt><trkpt lat="41.0843533" lon="9.4398917"><ele>6.0</ele><time>2026-05-02T08:48:42.669Z</time></trkpt><trkpt lat="41.084375" lon="9.4396767"><ele>6.0</ele><time>2026-05-02T08:48:43.669Z</time></trkpt><trkpt lat="41.084395" lon="9.4394467"><ele>6.0</ele><time>2026-05-02T08:48:44.669Z</time></trkpt><trkpt lat="41.0844183" lon="9.4392167"><ele>6.0</ele><time>2026-05-02T08:48:45.669Z</time></trkpt><trkpt lat="41.08445" lon="9.438985"><ele>6.0</ele><time>2026-05-02T08:48:46.669Z</time></trkpt><trkpt lat="41.084475" lon="9.4387633"><ele>6.0</ele><time>2026-05-02T08:48:47.669Z</time></trkpt><trkpt lat="41.084495" lon="9.4385183"><ele>6.333333333333334</ele><time>2026-05-02T08:48:48.669Z</time></trkpt><trkpt lat="41.0845083" lon="9.4383017"><ele>6.666666666666667</ele><time>2026-05-02T08:48:49.669Z</time></trkpt><trkpt lat="41.084525" lon="9.4380867"><ele>7.0</ele><time>2026-05-02T08:48:50.669Z</time></trkpt><trkpt lat="41.0845433" lon="9.437875"><ele>7.666666666666667</ele><time>2026-05-02T08:48:51.669Z</time></trkpt><trkpt lat="41.0845633" lon="9.4376633"><ele>8.333333333333334</ele><time>2026-05-02T08:48:52.669Z</time></trkpt><trkpt lat="41.0845817" lon="9.4374533"><ele>9.0</ele><time>2026-05-02T08:48:53.669Z</time></trkpt><trkpt lat="41.0845917" lon="9.4372483"><ele>8.666666666666666</ele><time>2026-05-02T08:48:54.669Z</time></trkpt><trkpt lat="41.0846067" lon="9.437035"><ele>8.333333333333332</ele><time>2026-05-02T08:48:55.669Z</time></trkpt><trkpt lat="41.084625" lon="9.4368233"><ele>8.0</ele><time>2026-05-02T08:48:56.669Z</time></trkpt><trkpt lat="41.0846433" lon="9.436615"><ele>8.0</ele><time>2026-05-02T08:48:57.669Z</time></trkpt><trkpt lat="41.0846533" lon="9.436405"><ele>8.0</ele><time>2026-05-02T08:48:58.669Z</time></trkpt><trkpt lat="41.0846667" lon="9.4361883"><ele>8.0</ele><time>2026-05-02T08:48:59.67Z</time></trkpt><trkpt lat="41.084685" lon="9.4359767"><ele>8.333333333333332</ele><time>2026-05-02T08:49:00.669Z</time></trkpt><trkpt lat="41.0847083" lon="9.43577"><ele>8.666666666666666</ele><time>2026-05-02T08:49:01.669Z</time></trkpt><trkpt lat="41.08473" lon="9.435555"><ele>9.0</ele><time>2026-05-02T08:49:02.669Z</time></trkpt><trkpt lat="41.0847483" lon="9.43535"><ele>9.5</ele><time>2026-05-02T08:49:03.669Z</time></trkpt><trkpt lat="41.084765" lon="9.43515"><ele>10.0</ele><time>2026-05-02T08:49:04.669Z</time></trkpt><trkpt lat="41.084785" lon="9.4349617"><ele>10.5</ele><time>2026-05-02T08:49:05.669Z</time></trkpt><trkpt lat="41.0848033" lon="9.434785"><ele>11.0</ele><time>2026-05-02T08:49:06.669Z</time></trkpt><trkpt lat="41.0848233" lon="9.4346267"><ele>11.4</ele><time>2026-05-02T08:49:07.669Z</time></trkpt><trkpt lat="41.0848417" lon="9.4344967"><ele>11.8</ele><time>2026-05-02T08:49:08.669Z</time></trkpt><trkpt lat="41.0848583" lon="9.4343933"><ele>12.200000000000001</ele><time>2026-05-02T08:49:09.669Z</time></trkpt><trkpt lat="41.08488" lon="9.4342533"><ele>12.600000000000001</ele><time>2026-05-02T08:49:11.669Z</time></trkpt><trkpt lat="41.08486" lon="9.43415"><ele>13.0</ele><time>2026-05-02T08:49:13.669Z</time></trkpt><trkpt lat="41.0847633" lon="9.4340733"><ele>13.0</ele><time>2026-05-02T08:49:15.669Z</time></trkpt><trkpt lat="41.0846967" lon="9.4340433"><ele>13.0</ele><time>2026-05-02T08:49:16.669Z</time></trkpt><trkpt lat="41.0845967" lon="9.43402"><ele>13.0</ele><time>2026-05-02T08:49:17.669Z</time></trkpt><trkpt lat="41.084465" lon="9.4339983"><ele>13.0</ele><time>2026-05-02T08:49:18.669Z</time></trkpt><trkpt lat="41.08431" lon="9.4339617"><ele>13.0</ele><time>2026-05-02T08:49:19.669Z</time></trkpt><trkpt lat="41.08416" lon="9.4338967"><ele>13.0</ele><time>2026-05-02T08:49:20.669Z</time></trkpt><trkpt lat="41.08401" lon="9.43382"><ele>13.0</ele><time>2026-05-02T08:49:21.669Z</time></trkpt><trkpt lat="41.0838683" lon="9.4337267"><ele>13.0</ele><time>2026-05-02T08:49:22.669Z</time></trkpt><trkpt lat="41.0837283" lon="9.4336233"><ele>13.0</ele><time>2026-05-02T08:49:23.669Z</time></trkpt><trkpt lat="41.0835933" lon="9.433515"><ele>13.0</ele><time>2026-05-02T08:49:24.67Z</time></trkpt><trkpt lat="41.0834567" lon="9.433405"><ele>13.0</ele><time>2026-05-02T08:49:25.669Z</time></trkpt><trkpt lat="41.083315" lon="9.43329"><ele>13.0</ele><time>2026-05-02T08:49:26.669Z</time></trkpt><trkpt lat="41.0831767" lon="9.4331683"><ele>13.0</ele><time>2026-05-02T08:49:27.669Z</time></trkpt><trkpt lat="41.0830367" lon="9.43305"><ele>14.666666666666666</ele><time>2026-05-02T08:49:28.668Z</time></trkpt><trkpt lat="41.0828983" lon="9.432935"><ele>16.333333333333332</ele><time>2026-05-02T08:49:29.668Z</time></trkpt><trkpt lat="41.0827633" lon="9.4328167"><ele>18.0</ele><time>2026-05-02T08:49:30.668Z</time></trkpt><trkpt lat="41.0826283" lon="9.4326983"><ele>18.0</ele><time>2026-05-02T08:49:31.668Z</time></trkpt><trkpt lat="41.082495" lon="9.4325717"><ele>18.0</ele><time>2026-05-02T08:49:32.668Z</time></trkpt><trkpt lat="41.082355" lon="9.4324617"><ele>18.0</ele><time>2026-05-02T08:49:33.668Z</time></trkpt><trkpt lat="41.082215" lon="9.4323633"><ele>18.333333333333332</ele><time>2026-05-02T08:49:34.669Z</time></trkpt><trkpt lat="41.0820617" lon="9.43227"><ele>18.666666666666664</ele><time>2026-05-02T08:49:35.668Z</time></trkpt><trkpt lat="41.0819083" lon="9.43218"><ele>19.0</ele><time>2026-05-02T08:49:36.668Z</time></trkpt><trkpt lat="41.0817517" lon="9.4321017"><ele>18.666666666666664</ele><time>2026-05-02T08:49:37.668Z</time></trkpt><trkpt lat="41.0815983" lon="9.4320217"><ele>18.333333333333332</ele><time>2026-05-02T08:49:38.668Z</time></trkpt><trkpt lat="41.0814417" lon="9.43194"><ele>18.0</ele><time>2026-05-02T08:49:39.668Z</time></trkpt><trkpt lat="41.081285" lon="9.43186"><ele>18.0</ele><time>2026-05-02T08:49:40.668Z</time></trkpt><trkpt lat="41.0811333" lon="9.4317783"><ele>18.0</ele><time>2026-05-02T08:49:41.668Z</time></trkpt><trkpt lat="41.080985" lon="9.4316917"><ele>18.0</ele><time>2026-05-02T08:49:42.668Z</time></trkpt><trkpt lat="41.08083" lon="9.4316067"><ele>17.0</ele><time>2026-05-02T08:49:43.668Z</time></trkpt><trkpt lat="41.0806783" lon="9.4315217"><ele>16.0</ele><time>2026-05-02T08:49:44.668Z</time></trkpt><trkpt lat="41.0805217" lon="9.43145"><ele>15.0</ele><time>2026-05-02T08:49:45.668Z</time></trkpt><trkpt lat="41.08036" lon="9.4313767"><ele>15.0</ele><time>2026-05-02T08:49:46.668Z</time></trkpt><trkpt lat="41.0802067" lon="9.4313083"><ele>15.0</ele><time>2026-05-02T08:49:47.668Z</time></trkpt><trkpt lat="41.0800417" lon="9.4312533"><ele>15.0</ele><time>2026-05-02T08:49:48.668Z</time></trkpt><trkpt lat="41.0798817" lon="9.4312083"><ele>16.0</ele><time>2026-05-02T08:49:49.668Z</time></trkpt><trkpt lat="41.0797167" lon="9.4311717"><ele>17.0</ele><time>2026-05-02T08:49:50.668Z</time></trkpt><trkpt lat="41.0795467" lon="9.4311367"><ele>18.0</ele><time>2026-05-02T08:49:51.668Z</time></trkpt><trkpt lat="41.0793783" lon="9.431105"><ele>18.0</ele><time>2026-05-02T08:49:52.668Z</time></trkpt><trkpt lat="41.0792083" lon="9.4310733"><ele>18.0</ele><time>2026-05-02T08:49:53.668Z</time></trkpt><trkpt lat="41.0790317" lon="9.431025"><ele>18.0</ele><time>2026-05-02T08:49:54.668Z</time></trkpt><trkpt lat="41.0788583" lon="9.431"><ele>17.0</ele><time>2026-05-02T08:49:55.668Z</time></trkpt><trkpt lat="41.0786833" lon="9.4309633"><ele>16.0</ele><time>2026-05-02T08:49:56.668Z</time></trkpt><trkpt lat="41.0785083" lon="9.4309233"><ele>15.0</ele><time>2026-05-02T08:49:57.668Z</time></trkpt><trkpt lat="41.07834" lon="9.4308617"><ele>13.666666666666666</ele><time>2026-05-02T08:49:58.668Z</time></trkpt><trkpt lat="41.0782" lon="9.4307683"><ele>12.333333333333332</ele><time>2026-05-02T08:49:59.668Z</time></trkpt><trkpt lat="41.078045" lon="9.4306767"><ele>11.0</ele><time>2026-05-02T08:50:00.668Z</time></trkpt><trkpt lat="41.0778883" lon="9.4305783"><ele>11.666666666666666</ele><time>2026-05-02T08:50:01.668Z</time></trkpt><trkpt lat="41.0777367" lon="9.4304717"><ele>12.333333333333332</ele><time>2026-05-02T08:50:02.668Z</time></trkpt><trkpt lat="41.0775817" lon="9.430375"><ele>13.0</ele><time>2026-05-02T08:50:03.668Z</time></trkpt><trkpt lat="41.0774267" lon="9.43028"><ele>13.0</ele><time>2026-05-02T08:50:04.668Z</time></trkpt><trkpt lat="41.07727" lon="9.43019"><ele>13.0</ele><time>2026-05-02T08:50:05.668Z</time></trkpt><trkpt lat="41.0771233" lon="9.43009"><ele>13.0</ele><time>2026-05-02T08:50:06.668Z</time></trkpt><trkpt lat="41.076975" lon="9.429995"><ele>13.0</ele><time>2026-05-02T08:50:07.668Z</time></trkpt><trkpt lat="41.07683" lon="9.4298917"><ele>13.0</ele><time>2026-05-02T08:50:08.668Z</time></trkpt><trkpt lat="41.0766817" lon="9.429795"><ele>13.0</ele><time>2026-05-02T08:50:09.668Z</time></trkpt><trkpt lat="41.0765367" lon="9.4296833"><ele>13.0</ele><time>2026-05-02T08:50:10.668Z</time></trkpt><trkpt lat="41.0764" lon="9.4295633"><ele>13.0</ele><time>2026-05-02T08:50:11.668Z</time></trkpt><trkpt lat="41.0762767" lon="9.4294383"><ele>13.0</ele><time>2026-05-02T08:50:12.668Z</time></trkpt><trkpt lat="41.0761483" lon="9.4292967"><ele>13.0</ele><time>2026-05-02T08:50:13.668Z</time></trkpt><trkpt lat="41.0760267" lon="9.4291483"><ele>13.0</ele><time>2026-05-02T08:50:14.668Z</time></trkpt><trkpt lat="41.0759017" lon="9.4289983"><ele>13.0</ele><time>2026-05-02T08:50:15.669Z</time></trkpt><trkpt lat="41.07578" lon="9.4288383"><ele>13.333333333333332</ele><time>2026-05-02T08:50:16.668Z</time></trkpt><trkpt lat="41.0756583" lon="9.4286833"><ele>13.666666666666668</ele><time>2026-05-02T08:50:17.668Z</time></trkpt><trkpt lat="41.0755417" lon="9.42853"><ele>14.0</ele><time>2026-05-02T08:50:18.668Z</time></trkpt><trkpt lat="41.07541" lon="9.4283733"><ele>14.0</ele><time>2026-05-02T08:50:19.668Z</time></trkpt><trkpt lat="41.0752867" lon="9.4282117"><ele>14.0</ele><time>2026-05-02T08:50:20.668Z</time></trkpt><trkpt lat="41.0751583" lon="9.4280583"><ele>14.0</ele><time>2026-05-02T08:50:21.668Z</time></trkpt><trkpt lat="41.0750283" lon="9.4279133"><ele>13.333333333333334</ele><time>2026-05-02T08:50:22.668Z</time></trkpt><trkpt lat="41.0749" lon="9.4277683"><ele>12.666666666666668</ele><time>2026-05-02T08:50:23.668Z</time></trkpt><trkpt lat="41.0747683" lon="9.4276283"><ele>12.0</ele><time>2026-05-02T08:50:24.668Z</time></trkpt><trkpt lat="41.0746333" lon="9.4274883"><ele>12.0</ele><time>2026-05-02T08:50:25.668Z</time></trkpt><trkpt lat="41.0744967" lon="9.4273517"><ele>12.0</ele><time>2026-05-02T08:50:26.668Z</time></trkpt><trkpt lat="41.0743633" lon="9.4272183"><ele>12.0</ele><time>2026-05-02T08:50:27.668Z</time></trkpt><trkpt lat="41.07423" lon="9.4270867"><ele>11.0</ele><time>2026-05-02T08:50:28.668Z</time></trkpt><trkpt lat="41.0740933" lon="9.4269567"><ele>10.0</ele><time>2026-05-02T08:50:29.668Z</time></trkpt><trkpt lat="41.07396" lon="9.4268233"><ele>9.0</ele><time>2026-05-02T08:50:30.669Z</time></trkpt><trkpt lat="41.0738283" lon="9.4266867"><ele>9.0</ele><time>2026-05-02T08:50:31.668Z</time></trkpt><trkpt lat="41.0736983" lon="9.42655"><ele>9.0</ele><time>2026-05-02T08:50:32.668Z</time></trkpt><trkpt lat="41.073565" lon="9.42641"><ele>9.0</ele><time>2026-05-02T08:50:33.668Z</time></trkpt><trkpt lat="41.0734317" lon="9.42626"><ele>8.666666666666666</ele><time>2026-05-02T08:50:34.668Z</time></trkpt><trkpt lat="41.073305" lon="9.4261"><ele>8.333333333333332</ele><time>2026-05-02T08:50:35.668Z</time></trkpt><trkpt lat="41.073195" lon="9.425925"><ele>8.0</ele><time>2026-05-02T08:50:36.668Z</time></trkpt><trkpt lat="41.07308" lon="9.4257633"><ele>8.0</ele><time>2026-05-02T08:50:37.668Z</time></trkpt><trkpt lat="41.072965" lon="9.425595"><ele>8.0</ele><time>2026-05-02T08:50:38.668Z</time></trkpt><trkpt lat="41.0728633" lon="9.42542"><ele>8.0</ele><time>2026-05-02T08:50:39.668Z</time></trkpt><trkpt lat="41.0727683" lon="9.425235"><ele>9.333333333333332</ele><time>2026-05-02T08:50:40.668Z</time></trkpt><trkpt lat="41.0726817" lon="9.4250733"><ele>10.666666666666666</ele><time>2026-05-02T08:50:41.668Z</time></trkpt><trkpt lat="41.0725917" lon="9.4248667"><ele>12.0</ele><time>2026-05-02T08:50:42.669Z</time></trkpt><trkpt lat="41.0725017" lon="9.4246783"><ele>11.333333333333334</ele><time>2026-05-02T08:50:43.668Z</time></trkpt><trkpt lat="41.072415" lon="9.4244933"><ele>10.666666666666668</ele><time>2026-05-02T08:50:44.668Z</time></trkpt><trkpt lat="41.0723217" lon="9.42429"><ele>10.0</ele><time>2026-05-02T08:50:45.668Z</time></trkpt><trkpt lat="41.0722433" lon="9.4240983"><ele>10.0</ele><time>2026-05-02T08:50:46.668Z</time></trkpt><trkpt lat="41.0721517" lon="9.4238983"><ele>10.0</ele><time>2026-05-02T08:50:47.668Z</time></trkpt><trkpt lat="41.0720617" lon="9.4236967"><ele>10.0</ele><time>2026-05-02T08:50:48.668Z</time></trkpt><trkpt lat="41.0719733" lon="9.4234933"><ele>11.666666666666668</ele><time>2026-05-02T08:50:49.668Z</time></trkpt><trkpt lat="41.0718783" lon="9.423295"><ele>13.333333333333334</ele><time>2026-05-02T08:50:50.668Z</time></trkpt><trkpt lat="41.07178" lon="9.4230983"><ele>15.0</ele><time>2026-05-02T08:50:51.668Z</time></trkpt><trkpt lat="41.0716667" lon="9.422925"><ele>15.0</ele><time>2026-05-02T08:50:52.668Z</time></trkpt><trkpt lat="41.071575" lon="9.4227333"><ele>15.0</ele><time>2026-05-02T08:50:53.669Z</time></trkpt><trkpt lat="41.071485" lon="9.4225333"><ele>15.0</ele><time>2026-05-02T08:50:54.668Z</time></trkpt><trkpt lat="41.0713983" lon="9.4223267"><ele>16.0</ele><time>2026-05-02T08:50:55.668Z</time></trkpt><trkpt lat="41.0713167" lon="9.42212"><ele>17.0</ele><time>2026-05-02T08:50:56.668Z</time></trkpt><trkpt lat="41.071225" lon="9.4219383"><ele>18.0</ele><time>2026-05-02T08:50:57.668Z</time></trkpt><trkpt lat="41.071145" lon="9.42176"><ele>18.0</ele><time>2026-05-02T08:50:58.668Z</time></trkpt><trkpt lat="41.0710633" lon="9.4215683"><ele>18.0</ele><time>2026-05-02T08:50:59.668Z</time></trkpt><trkpt lat="41.0709883" lon="9.421365"><ele>18.0</ele><time>2026-05-02T08:51:00.668Z</time></trkpt><trkpt lat="41.070915" lon="9.4211567"><ele>19.0</ele><time>2026-05-02T08:51:01.668Z</time></trkpt><trkpt lat="41.0708617" lon="9.420925"><ele>20.0</ele><time>2026-05-02T08:51:02.668Z</time></trkpt><trkpt lat="41.0707867" lon="9.4207283"><ele>21.0</ele><time>2026-05-02T08:51:03.668Z</time></trkpt><trkpt lat="41.0707183" lon="9.4205133"><ele>19.666666666666668</ele><time>2026-05-02T08:51:04.668Z</time></trkpt><trkpt lat="41.0706433" lon="9.4203"><ele>18.333333333333336</ele><time>2026-05-02T08:51:05.668Z</time></trkpt><trkpt lat="41.0705667" lon="9.4200783"><ele>17.0</ele><time>2026-05-02T08:51:06.668Z</time></trkpt><trkpt lat="41.0704933" lon="9.4198617"><ele>17.666666666666668</ele><time>2026-05-02T08:51:07.668Z</time></trkpt><trkpt lat="41.070415" lon="9.4196483"><ele>18.333333333333332</ele><time>2026-05-02T08:51:08.668Z</time></trkpt><trkpt lat="41.07033" lon="9.419455"><ele>19.0</ele><time>2026-05-02T08:51:09.668Z</time></trkpt><trkpt lat="41.0702333" lon="9.4192733"><ele>19.0</ele><time>2026-05-02T08:51:10.668Z</time></trkpt><trkpt lat="41.07013" lon="9.4190967"><ele>19.0</ele><time>2026-05-02T08:51:11.668Z</time></trkpt><trkpt lat="41.070025" lon="9.41894"><ele>19.0</ele><time>2026-05-02T08:51:12.668Z</time></trkpt><trkpt lat="41.069925" lon="9.4187883"><ele>17.75</ele><time>2026-05-02T08:51:13.668Z</time></trkpt><trkpt lat="41.06983" lon="9.4186433"><ele>16.5</ele><time>2026-05-02T08:51:14.668Z</time></trkpt><trkpt lat="41.0697317" lon="9.4185033"><ele>15.25</ele><time>2026-05-02T08:51:15.668Z</time></trkpt><trkpt lat="41.0696333" lon="9.418365"><ele>14.0</ele><time>2026-05-02T08:51:16.668Z</time></trkpt><trkpt lat="41.069535" lon="9.418235"><ele>14.0</ele><time>2026-05-02T08:51:17.668Z</time></trkpt><trkpt lat="41.069455" lon="9.4181117"><ele>13.999999999999998</ele><time>2026-05-02T08:51:18.668Z</time></trkpt><trkpt lat="41.0693783" lon="9.417995"><ele>13.999999999999998</ele><time>2026-05-02T08:51:19.668Z</time></trkpt><trkpt lat="41.0693" lon="9.4179117"><ele>14.0</ele><time>2026-05-02T08:51:20.668Z</time></trkpt><trkpt lat="41.069225" lon="9.4178433"><ele>14.0</ele><time>2026-05-02T08:51:21.668Z</time></trkpt><trkpt lat="41.06915" lon="9.4178"><ele>13.399999999999999</ele><time>2026-05-02T08:51:22.668Z</time></trkpt><trkpt lat="41.0690733" lon="9.4177933"><ele>12.799999999999999</ele><time>2026-05-02T08:51:23.668Z</time></trkpt><trkpt lat="41.0689783" lon="9.4178367"><ele>12.2</ele><time>2026-05-02T08:51:25.668Z</time></trkpt><trkpt lat="41.0689467" lon="9.4179133"><ele>11.600000000000001</ele><time>2026-05-02T08:51:28.668Z</time></trkpt><trkpt lat="41.0689083" lon="9.4180383"><ele>11.0</ele><time>2026-05-02T08:51:36.668Z</time></trkpt><trkpt lat="41.068875" lon="9.4182133"><ele>10.75</ele><time>2026-05-02T08:51:38.668Z</time></trkpt><trkpt lat="41.0688767" lon="9.4183433"><ele>10.5</ele><time>2026-05-02T08:51:39.668Z</time></trkpt><trkpt lat="41.06889" lon="9.4185117"><ele>10.25</ele><time>2026-05-02T08:51:40.668Z</time></trkpt><trkpt lat="41.068895" lon="9.4186933"><ele>10.0</ele><time>2026-05-02T08:51:41.668Z</time></trkpt><trkpt lat="41.0689" lon="9.4189117"><ele>10.0</ele><time>2026-05-02T08:51:42.668Z</time></trkpt><trkpt lat="41.068905" lon="9.4191633"><ele>10.0</ele><time>2026-05-02T08:51:43.668Z</time></trkpt><trkpt lat="41.0688617" lon="9.41944"><ele>10.0</ele><time>2026-05-02T08:51:44.668Z</time></trkpt><trkpt lat="41.06883" lon="9.41967"><ele>10.25</ele><time>2026-05-02T08:51:45.668Z</time></trkpt><trkpt lat="41.068805" lon="9.419865"><ele>10.5</ele><time>2026-05-02T08:51:46.668Z</time></trkpt><trkpt lat="41.0688067" lon="9.4200317"><ele>10.75</ele><time>2026-05-02T08:51:47.668Z</time></trkpt><trkpt lat="41.0688067" lon="9.420185"><ele>11.0</ele><time>2026-05-02T08:51:48.668Z</time></trkpt><trkpt lat="41.0687867" lon="9.4203133"><ele>11.0</ele><time>2026-05-02T08:51:49.669Z</time></trkpt><trkpt lat="41.068755" lon="9.420425"><ele>11.0</ele><time>2026-05-02T08:51:50.668Z</time></trkpt><trkpt lat="41.0687067" lon="9.4205217"><ele>11.0</ele><time>2026-05-02T08:51:51.668Z</time></trkpt><trkpt lat="41.0686567" lon="9.4206"><ele>11.0</ele><time>2026-05-02T08:51:52.668Z</time></trkpt><trkpt lat="41.068595" lon="9.42071"><ele>11.0</ele><time>2026-05-02T08:51:54.668Z</time></trkpt><trkpt lat="41.0685117" lon="9.4206867"><ele>11.0</ele><time>2026-05-02T08:52:35.668Z</time></trkpt><trkpt lat="41.06853" lon="9.4207833"><ele>10.5</ele><time>2026-05-02T08:59:16.667Z</time></trkpt><trkpt lat="41.0686067" lon="9.4209117"><ele>10.0</ele><time>2026-05-02T08:59:51.668Z</time></trkpt><trkpt lat="41.0686567" lon="9.420995"><ele>9.5</ele><time>2026-05-02T08:59:55.667Z</time></trkpt><trkpt lat="41.0687267" lon="9.420975"><ele>9.0</ele><time>2026-05-02T09:00:15.667Z</time></trkpt><trkpt lat="41.0687467" lon="9.420865"><ele>8.5</ele><time>2026-05-02T09:00:17.667Z</time></trkpt><trkpt lat="41.068755" lon="9.4207583"><ele>8.0</ele><time>2026-05-02T09:00:18.668Z</time></trkpt><trkpt lat="41.06877" lon="9.42064"><ele>8.0</ele><time>2026-05-02T09:00:19.667Z</time></trkpt><trkpt lat="41.0687867" lon="9.42049"><ele>8.0</ele><time>2026-05-02T09:00:20.667Z</time></trkpt><trkpt lat="41.0688083" lon="9.420325"><ele>8.0</ele><time>2026-05-02T09:00:21.667Z</time></trkpt><trkpt lat="41.0688333" lon="9.4201467"><ele>8.0</ele><time>2026-05-02T09:00:22.667Z</time></trkpt><trkpt lat="41.0688583" lon="9.4199683"><ele>8.5</ele><time>2026-05-02T09:00:23.667Z</time></trkpt><trkpt lat="41.06888" lon="9.4197833"><ele>9.0</ele><time>2026-05-02T09:00:24.667Z</time></trkpt><trkpt lat="41.0689" lon="9.4195983"><ele>9.5</ele><time>2026-05-02T09:00:25.667Z</time></trkpt><trkpt lat="41.0689233" lon="9.4194083"><ele>10.0</ele><time>2026-05-02T09:00:26.667Z</time></trkpt><trkpt lat="41.0689483" lon="9.4192133"><ele>10.0</ele><time>2026-05-02T09:00:27.667Z</time></trkpt><trkpt lat="41.0689617" lon="9.4190167"><ele>10.0</ele><time>2026-05-02T09:00:28.667Z</time></trkpt><trkpt lat="41.0689667" lon="9.4188133"><ele>10.0</ele><time>2026-05-02T09:00:29.667Z</time></trkpt><trkpt lat="41.0689667" lon="9.4186133"><ele>10.0</ele><time>2026-05-02T09:00:30.667Z</time></trkpt><trkpt lat="41.0689567" lon="9.4184233"><ele>10.0</ele><time>2026-05-02T09:00:31.667Z</time></trkpt><trkpt lat="41.068945" lon="9.4182367"><ele>10.0</ele><time>2026-05-02T09:00:32.667Z</time></trkpt><trkpt lat="41.068935" lon="9.4180517"><ele>10.0</ele><time>2026-05-02T09:00:33.667Z</time></trkpt><trkpt lat="41.0689233" lon="9.4178717"><ele>10.25</ele><time>2026-05-02T09:00:34.667Z</time></trkpt><trkpt lat="41.0689083" lon="9.4176883"><ele>10.5</ele><time>2026-05-02T09:00:35.667Z</time></trkpt><trkpt lat="41.0688933" lon="9.41751"><ele>10.75</ele><time>2026-05-02T09:00:36.668Z</time></trkpt><trkpt lat="41.0688633" lon="9.4173517"><ele>11.0</ele><time>2026-05-02T09:00:37.667Z</time></trkpt><trkpt lat="41.068845" lon="9.4171717"><ele>11.25</ele><time>2026-05-02T09:00:38.667Z</time></trkpt><trkpt lat="41.0688233" lon="9.416985"><ele>11.5</ele><time>2026-05-02T09:00:39.667Z</time></trkpt><trkpt lat="41.0688033" lon="9.4167933"><ele>11.75</ele><time>2026-05-02T09:00:40.667Z</time></trkpt><trkpt lat="41.0687917" lon="9.4165867"><ele>12.0</ele><time>2026-05-02T09:00:41.667Z</time></trkpt><trkpt lat="41.0687733" lon="9.41638"><ele>12.333333333333332</ele><time>2026-05-02T09:00:42.667Z</time></trkpt><trkpt lat="41.0687717" lon="9.416175"><ele>12.666666666666666</ele><time>2026-05-02T09:00:43.667Z</time></trkpt><trkpt lat="41.068765" lon="9.41596"><ele>13.0</ele><time>2026-05-02T09:00:44.667Z</time></trkpt><trkpt lat="41.0687333" lon="9.41573"><ele>13.0</ele><time>2026-05-02T09:00:45.667Z</time></trkpt><trkpt lat="41.0687217" lon="9.4155067"><ele>13.0</ele><time>2026-05-02T09:00:46.667Z</time></trkpt><trkpt lat="41.0687117" lon="9.415285"><ele>13.0</ele><time>2026-05-02T09:00:47.667Z</time></trkpt><trkpt lat="41.0686867" lon="9.4150883"><ele>13.666666666666666</ele><time>2026-05-02T09:00:48.667Z</time></trkpt><trkpt lat="41.06867" lon="9.4148883"><ele>14.333333333333332</ele><time>2026-05-02T09:00:49.667Z</time></trkpt><trkpt lat="41.068655" lon="9.41467"><ele>15.0</ele><time>2026-05-02T09:00:50.667Z</time></trkpt><trkpt lat="41.0686417" lon="9.4144417"><ele>15.0</ele><time>2026-05-02T09:00:51.667Z</time></trkpt><trkpt lat="41.0686267" lon="9.41422"><ele>15.0</ele><time>2026-05-02T09:00:52.667Z</time></trkpt><trkpt lat="41.068615" lon="9.4140083"><ele>15.0</ele><time>2026-05-02T09:00:53.667Z</time></trkpt><trkpt lat="41.068615" lon="9.4138033"><ele>15.333333333333332</ele><time>2026-05-02T09:00:54.667Z</time></trkpt><trkpt lat="41.0686067" lon="9.4136"><ele>15.666666666666666</ele><time>2026-05-02T09:00:55.667Z</time></trkpt><trkpt lat="41.06859" lon="9.413405"><ele>16.0</ele><time>2026-05-02T09:00:56.667Z</time></trkpt><trkpt lat="41.0685717" lon="9.4131983"><ele>16.333333333333332</ele><time>2026-05-02T09:00:57.667Z</time></trkpt><trkpt lat="41.0685683" lon="9.41298"><ele>16.666666666666668</ele><time>2026-05-02T09:00:58.667Z</time></trkpt><trkpt lat="41.06856" lon="9.4127567"><ele>17.0</ele><time>2026-05-02T09:00:59.667Z</time></trkpt><trkpt lat="41.0685417" lon="9.4125333"><ele>17.0</ele><time>2026-05-02T09:01:00.667Z</time></trkpt><trkpt lat="41.0685283" lon="9.4123017"><ele>17.0</ele><time>2026-05-02T09:01:01.667Z</time></trkpt><trkpt lat="41.0685217" lon="9.412085"><ele>17.0</ele><time>2026-05-02T09:01:02.668Z</time></trkpt><trkpt lat="41.068515" lon="9.4118617"><ele>18.0</ele><time>2026-05-02T09:01:03.667Z</time></trkpt><trkpt lat="41.06852" lon="9.41163"><ele>19.0</ele><time>2026-05-02T09:01:04.667Z</time></trkpt><trkpt lat="41.06852" lon="9.411425"><ele>20.0</ele><time>2026-05-02T09:01:05.667Z</time></trkpt><trkpt lat="41.06854" lon="9.4112067"><ele>20.333333333333336</ele><time>2026-05-02T09:01:06.667Z</time></trkpt><trkpt lat="41.0685667" lon="9.4109883"><ele>20.666666666666668</ele><time>2026-05-02T09:01:07.667Z</time></trkpt><trkpt lat="41.06859" lon="9.41076"><ele>21.0</ele><time>2026-05-02T09:01:08.667Z</time></trkpt><trkpt lat="41.0686" lon="9.41055"><ele>21.0</ele><time>2026-05-02T09:01:09.667Z</time></trkpt><trkpt lat="41.068615" lon="9.4103367"><ele>21.0</ele><time>2026-05-02T09:01:10.667Z</time></trkpt><trkpt lat="41.0686333" lon="9.4101133"><ele>21.0</ele><time>2026-05-02T09:01:11.667Z</time></trkpt><trkpt lat="41.0686483" lon="9.4099"><ele>21.0</ele><time>2026-05-02T09:01:12.667Z</time></trkpt><trkpt lat="41.068665" lon="9.409685"><ele>21.0</ele><time>2026-05-02T09:01:13.667Z</time></trkpt><trkpt lat="41.0686783" lon="9.4094783"><ele>21.0</ele><time>2026-05-02T09:01:14.668Z</time></trkpt><trkpt lat="41.0686967" lon="9.4092617"><ele>20.333333333333332</ele><time>2026-05-02T09:01:15.667Z</time></trkpt><trkpt lat="41.0687283" lon="9.4090467"><ele>19.666666666666664</ele><time>2026-05-02T09:01:16.667Z</time></trkpt><trkpt lat="41.06875" lon="9.4088167"><ele>19.0</ele><time>2026-05-02T09:01:17.667Z</time></trkpt><trkpt lat="41.06877" lon="9.40858"><ele>19.0</ele><time>2026-05-02T09:01:18.667Z</time></trkpt><trkpt lat="41.0687933" lon="9.4083517"><ele>19.0</ele><time>2026-05-02T09:01:19.667Z</time></trkpt><trkpt lat="41.0688167" lon="9.4081217"><ele>19.0</ele><time>2026-05-02T09:01:20.667Z</time></trkpt><trkpt lat="41.0688317" lon="9.4079017"><ele>19.666666666666664</ele><time>2026-05-02T09:01:21.667Z</time></trkpt><trkpt lat="41.06885" lon="9.4076767"><ele>20.333333333333332</ele><time>2026-05-02T09:01:22.668Z</time></trkpt><trkpt lat="41.0688683" lon="9.407445"><ele>21.0</ele><time>2026-05-02T09:01:23.667Z</time></trkpt><trkpt lat="41.0688883" lon="9.4072133"><ele>21.0</ele><time>2026-05-02T09:01:24.667Z</time></trkpt><trkpt lat="41.0689017" lon="9.4069867"><ele>21.0</ele><time>2026-05-02T09:01:25.667Z</time></trkpt><trkpt lat="41.068925" lon="9.406765"><ele>21.0</ele><time>2026-05-02T09:01:26.667Z</time></trkpt><trkpt lat="41.0689517" lon="9.406545"><ele>20.333333333333332</ele><time>2026-05-02T09:01:27.667Z</time></trkpt><trkpt lat="41.068975" lon="9.4063017"><ele>19.666666666666664</ele><time>2026-05-02T09:01:28.667Z</time></trkpt><trkpt lat="41.0690033" lon="9.4060617"><ele>19.0</ele><time>2026-05-02T09:01:29.667Z</time></trkpt><trkpt lat="41.069035" lon="9.40584"><ele>19.0</ele><time>2026-05-02T09:01:30.667Z</time></trkpt><trkpt lat="41.0690583" lon="9.4056217"><ele>19.0</ele><time>2026-05-02T09:01:31.667Z</time></trkpt><trkpt lat="41.06909" lon="9.4054117"><ele>19.0</ele><time>2026-05-02T09:01:32.667Z</time></trkpt><trkpt lat="41.0691017" lon="9.4051917"><ele>18.666666666666664</ele><time>2026-05-02T09:01:33.667Z</time></trkpt><trkpt lat="41.069135" lon="9.4049783"><ele>18.333333333333332</ele><time>2026-05-02T09:01:34.667Z</time></trkpt><trkpt lat="41.069165" lon="9.40476"><ele>18.0</ele><time>2026-05-02T09:01:35.667Z</time></trkpt><trkpt lat="41.0692167" lon="9.4045517"><ele>18.0</ele><time>2026-05-02T09:01:36.667Z</time></trkpt><trkpt lat="41.0692667" lon="9.4043517"><ele>18.0</ele><time>2026-05-02T09:01:37.667Z</time></trkpt><trkpt lat="41.0693183" lon="9.404155"><ele>18.0</ele><time>2026-05-02T09:01:38.667Z</time></trkpt><trkpt lat="41.0693733" lon="9.4039683"><ele>18.5</ele><time>2026-05-02T09:01:39.667Z</time></trkpt><trkpt lat="41.0694317" lon="9.4038067"><ele>19.0</ele><time>2026-05-02T09:01:40.667Z</time></trkpt><trkpt lat="41.0694867" lon="9.4036567"><ele>19.5</ele><time>2026-05-02T09:01:41.667Z</time></trkpt><trkpt lat="41.06953" lon="9.40351"><ele>20.0</ele><time>2026-05-02T09:01:42.667Z</time></trkpt><trkpt lat="41.0695817" lon="9.4033583"><ele>20.0</ele><time>2026-05-02T09:01:43.667Z</time></trkpt><trkpt lat="41.069615" lon="9.4032367"><ele>20.0</ele><time>2026-05-02T09:01:44.667Z</time></trkpt><trkpt lat="41.06966" lon="9.4031133"><ele>20.0</ele><time>2026-05-02T09:01:45.667Z</time></trkpt><trkpt lat="41.0696967" lon="9.403"><ele>20.0</ele><time>2026-05-02T09:01:46.667Z</time></trkpt><trkpt lat="41.0697067" lon="9.4029"><ele>20.0</ele><time>2026-05-02T09:01:47.667Z</time></trkpt><trkpt lat="41.069695" lon="9.402795"><ele>20.0</ele><time>2026-05-02T09:01:48.667Z</time></trkpt><trkpt lat="41.0696667" lon="9.402695"><ele>20.0</ele><time>2026-05-02T09:01:49.667Z</time></trkpt><trkpt lat="41.069625" lon="9.40262"><ele>20.0</ele><time>2026-05-02T09:01:50.667Z</time></trkpt><trkpt lat="41.06956" lon="9.40257"><ele>20.0</ele><time>2026-05-02T09:01:51.667Z</time></trkpt><trkpt lat="41.0694867" lon="9.4025283"><ele>20.0</ele><time>2026-05-02T09:01:52.667Z</time></trkpt><trkpt lat="41.06936" lon="9.40256"><ele>20.0</ele><time>2026-05-02T09:01:53.667Z</time></trkpt><trkpt lat="41.0692817" lon="9.40252"><ele>20.0</ele><time>2026-05-02T09:01:54.667Z</time></trkpt><trkpt lat="41.0692" lon="9.4024667"><ele>20.0</ele><time>2026-05-02T09:01:55.667Z</time></trkpt><trkpt lat="41.06911" lon="9.40242"><ele>20.0</ele><time>2026-05-02T09:01:56.667Z</time></trkpt><trkpt lat="41.0690017" lon="9.4023583"><ele>20.0</ele><time>2026-05-02T09:01:57.667Z</time></trkpt><trkpt lat="41.0688817" lon="9.4023"><ele>20.0</ele><time>2026-05-02T09:01:58.667Z</time></trkpt><trkpt lat="41.0687383" lon="9.4022533"><ele>20.0</ele><time>2026-05-02T09:01:59.667Z</time></trkpt><trkpt lat="41.06861" lon="9.4021983"><ele>20.0</ele><time>2026-05-02T09:02:00.667Z</time></trkpt><trkpt lat="41.06849" lon="9.40214"><ele>20.0</ele><time>2026-05-02T09:02:01.667Z</time></trkpt><trkpt lat="41.0683633" lon="9.40206"><ele>20.0</ele><time>2026-05-02T09:02:02.667Z</time></trkpt><trkpt lat="41.06825" lon="9.4019817"><ele>20.0</ele><time>2026-05-02T09:02:03.667Z</time></trkpt><trkpt lat="41.0681383" lon="9.401905"><ele>20.0</ele><time>2026-05-02T09:02:04.667Z</time></trkpt><trkpt lat="41.0680283" lon="9.4018217"><ele>20.0</ele><time>2026-05-02T09:02:05.667Z</time></trkpt><trkpt lat="41.0678967" lon="9.4017683"><ele>20.0</ele><time>2026-05-02T09:02:06.667Z</time></trkpt><trkpt lat="41.0677733" lon="9.4017067"><ele>20.0</ele><time>2026-05-02T09:02:07.667Z</time></trkpt><trkpt lat="41.0676417" lon="9.4016667"><ele>20.0</ele><time>2026-05-02T09:02:08.667Z</time></trkpt><trkpt lat="41.0675117" lon="9.40164"><ele>20.0</ele><time>2026-05-02T09:02:09.667Z</time></trkpt><trkpt lat="41.067375" lon="9.4016383"><ele>20.0</ele><time>2026-05-02T09:02:10.667Z</time></trkpt><trkpt lat="41.0672467" lon="9.4016667"><ele>19.75</ele><time>2026-05-02T09:02:11.667Z</time></trkpt><trkpt lat="41.0671067" lon="9.4016867"><ele>19.5</ele><time>2026-05-02T09:02:12.667Z</time></trkpt><trkpt lat="41.0669667" lon="9.4017083"><ele>19.25</ele><time>2026-05-02T09:02:13.667Z</time></trkpt><trkpt lat="41.0668317" lon="9.4017133"><ele>19.0</ele><time>2026-05-02T09:02:14.667Z</time></trkpt><trkpt lat="41.0666883" lon="9.4017133"><ele>18.0</ele><time>2026-05-02T09:02:15.667Z</time></trkpt><trkpt lat="41.0665483" lon="9.4017133"><ele>17.0</ele><time>2026-05-02T09:02:16.667Z</time></trkpt><trkpt lat="41.0664117" lon="9.4016967"><ele>16.0</ele><time>2026-05-02T09:02:17.667Z</time></trkpt><trkpt lat="41.06627" lon="9.4016733"><ele>15.0</ele><time>2026-05-02T09:02:18.667Z</time></trkpt><trkpt lat="41.0660983" lon="9.4016817"><ele>15.0</ele><time>2026-05-02T09:02:19.667Z</time></trkpt><trkpt lat="41.06597" lon="9.401695"><ele>15.0</ele><time>2026-05-02T09:02:20.667Z</time></trkpt><trkpt lat="41.0658467" lon="9.4016833"><ele>15.0</ele><time>2026-05-02T09:02:21.667Z</time></trkpt><trkpt lat="41.0657383" lon="9.401655"><ele>15.0</ele><time>2026-05-02T09:02:22.667Z</time></trkpt><trkpt lat="41.0656317" lon="9.401645"><ele>15.2</ele><time>2026-05-02T09:02:23.667Z</time></trkpt><trkpt lat="41.0655267" lon="9.4016367"><ele>15.4</ele><time>2026-05-02T09:02:24.667Z</time></trkpt><trkpt lat="41.0654117" lon="9.4016167"><ele>15.600000000000001</ele><time>2026-05-02T09:02:25.667Z</time></trkpt><trkpt lat="41.0653233" lon="9.40161"><ele>15.8</ele><time>2026-05-02T09:02:26.667Z</time></trkpt><trkpt lat="41.065225" lon="9.401595"><ele>16.0</ele><time>2026-05-02T09:02:27.667Z</time></trkpt><trkpt lat="41.0651117" lon="9.40158"><ele>16.0</ele><time>2026-05-02T09:02:28.667Z</time></trkpt><trkpt lat="41.0649917" lon="9.401565"><ele>16.0</ele><time>2026-05-02T09:02:29.667Z</time></trkpt><trkpt lat="41.06487" lon="9.4015417"><ele>16.0</ele><time>2026-05-02T09:02:30.667Z</time></trkpt><trkpt lat="41.0647533" lon="9.401525"><ele>16.0</ele><time>2026-05-02T09:02:31.667Z</time></trkpt><trkpt lat="41.0646517" lon="9.40152"><ele>15.666666666666666</ele><time>2026-05-02T09:02:32.667Z</time></trkpt><trkpt lat="41.0645517" lon="9.4014983"><ele>15.333333333333332</ele><time>2026-05-02T09:02:33.667Z</time></trkpt><trkpt lat="41.0644717" lon="9.401485"><ele>15.0</ele><time>2026-05-02T09:02:34.667Z</time></trkpt><trkpt lat="41.064405" lon="9.4014767"><ele>14.666666666666668</ele><time>2026-05-02T09:02:35.667Z</time></trkpt><trkpt lat="41.064305" lon="9.4014533"><ele>14.333333333333334</ele><time>2026-05-02T09:02:37.667Z</time></trkpt><trkpt lat="41.0642867" lon="9.4013733"><ele>14.0</ele><time>2026-05-02T09:18:02.664Z</time></trkpt><trkpt lat="41.0642583" lon="9.4012567"><ele>13.799999999999999</ele><time>2026-05-02T09:18:04.664Z</time></trkpt><trkpt lat="41.0642583" lon="9.40116"><ele>13.599999999999998</ele><time>2026-05-02T09:18:05.664Z</time></trkpt><trkpt lat="41.06426" lon="9.401045"><ele>13.4</ele><time>2026-05-02T09:18:06.664Z</time></trkpt><trkpt lat="41.0642683" lon="9.4009117"><ele>13.2</ele><time>2026-05-02T09:18:07.664Z</time></trkpt><trkpt lat="41.0642783" lon="9.4007517"><ele>13.0</ele><time>2026-05-02T09:18:08.664Z</time></trkpt><trkpt lat="41.0642933" lon="9.4005817"><ele>13.0</ele><time>2026-05-02T09:18:09.664Z</time></trkpt><trkpt lat="41.0643033" lon="9.4004083"><ele>13.0</ele><time>2026-05-02T09:18:10.664Z</time></trkpt><trkpt lat="41.0643133" lon="9.4002283"><ele>13.0</ele><time>2026-05-02T09:18:11.664Z</time></trkpt><trkpt lat="41.064325" lon="9.4000583"><ele>13.0</ele><time>2026-05-02T09:18:12.664Z</time></trkpt><trkpt lat="41.06434" lon="9.3998867"><ele>13.0</ele><time>2026-05-02T09:18:13.664Z</time></trkpt><trkpt lat="41.0643617" lon="9.3997117"><ele>13.0</ele><time>2026-05-02T09:18:14.664Z</time></trkpt><trkpt lat="41.0643917" lon="9.3995433"><ele>13.0</ele><time>2026-05-02T09:18:15.664Z</time></trkpt><trkpt lat="41.0644267" lon="9.399385"><ele>13.0</ele><time>2026-05-02T09:18:16.664Z</time></trkpt><trkpt lat="41.0644667" lon="9.3992283"><ele>13.25</ele><time>2026-05-02T09:18:17.664Z</time></trkpt><trkpt lat="41.064505" lon="9.3990933"><ele>13.5</ele><time>2026-05-02T09:18:18.664Z</time></trkpt><trkpt lat="41.06455" lon="9.3989383"><ele>13.75</ele><time>2026-05-02T09:18:19.664Z</time></trkpt><trkpt lat="41.06459" lon="9.3987817"><ele>14.0</ele><time>2026-05-02T09:18:20.664Z</time></trkpt><trkpt lat="41.064635" lon="9.3986383"><ele>14.25</ele><time>2026-05-02T09:18:21.664Z</time></trkpt><trkpt lat="41.0646783" lon="9.3984917"><ele>14.5</ele><time>2026-05-02T09:18:22.664Z</time></trkpt><trkpt lat="41.0647183" lon="9.3983417"><ele>14.75</ele><time>2026-05-02T09:18:23.664Z</time></trkpt><trkpt lat="41.06476" lon="9.398175"><ele>15.0</ele><time>2026-05-02T09:18:24.664Z</time></trkpt><trkpt lat="41.0648117" lon="9.3980033"><ele>15.0</ele><time>2026-05-02T09:18:25.664Z</time></trkpt><trkpt lat="41.0648717" lon="9.3978367"><ele>15.0</ele><time>2026-05-02T09:18:26.664Z</time></trkpt><trkpt lat="41.0649383" lon="9.3976617"><ele>15.0</ele><time>2026-05-02T09:18:27.664Z</time></trkpt><trkpt lat="41.065" lon="9.3974967"><ele>15.0</ele><time>2026-05-02T09:18:28.664Z</time></trkpt><trkpt lat="41.0650683" lon="9.397335"><ele>14.666666666666668</ele><time>2026-05-02T09:18:29.664Z</time></trkpt><trkpt lat="41.0651383" lon="9.3971667"><ele>14.333333333333334</ele><time>2026-05-02T09:18:30.664Z</time></trkpt><trkpt lat="41.0652033" lon="9.39698"><ele>14.0</ele><time>2026-05-02T09:18:31.664Z</time></trkpt><trkpt lat="41.0652683" lon="9.3967833"><ele>14.0</ele><time>2026-05-02T09:18:32.664Z</time></trkpt><trkpt lat="41.06534" lon="9.3966017"><ele>14.0</ele><time>2026-05-02T09:18:33.664Z</time></trkpt><trkpt lat="41.065415" lon="9.396405"><ele>14.0</ele><time>2026-05-02T09:18:34.664Z</time></trkpt><trkpt lat="41.0654967" lon="9.3962083"><ele>14.333333333333334</ele><time>2026-05-02T09:18:35.664Z</time></trkpt><trkpt lat="41.0655733" lon="9.39602"><ele>14.666666666666668</ele><time>2026-05-02T09:18:36.664Z</time></trkpt><trkpt lat="41.06565" lon="9.395835"><ele>15.0</ele><time>2026-05-02T09:18:37.664Z</time></trkpt><trkpt lat="41.0657167" lon="9.3956517"><ele>16.0</ele><time>2026-05-02T09:18:38.664Z</time></trkpt><trkpt lat="41.0657817" lon="9.39547"><ele>17.0</ele><time>2026-05-02T09:18:39.664Z</time></trkpt><trkpt lat="41.0658517" lon="9.3952817"><ele>18.0</ele><time>2026-05-02T09:18:40.664Z</time></trkpt><trkpt lat="41.06593" lon="9.3950967"><ele>18.0</ele><time>2026-05-02T09:18:41.664Z</time></trkpt><trkpt lat="41.0660183" lon="9.394925"><ele>18.0</ele><time>2026-05-02T09:18:42.664Z</time></trkpt><trkpt lat="41.0661217" lon="9.3947767"><ele>18.0</ele><time>2026-05-02T09:18:43.664Z</time></trkpt><trkpt lat="41.0662283" lon="9.3946617"><ele>18.0</ele><time>2026-05-02T09:18:44.664Z</time></trkpt><trkpt lat="41.0663583" lon="9.3945267"><ele>18.0</ele><time>2026-05-02T09:18:45.664Z</time></trkpt><trkpt lat="41.066485" lon="9.39439"><ele>18.0</ele><time>2026-05-02T09:18:46.664Z</time></trkpt><trkpt lat="41.0666133" lon="9.39424"><ele>18.0</ele><time>2026-05-02T09:18:47.664Z</time></trkpt><trkpt lat="41.0667117" lon="9.3940883"><ele>18.333333333333332</ele><time>2026-05-02T09:18:48.664Z</time></trkpt><trkpt lat="41.0668017" lon="9.39392"><ele>18.666666666666664</ele><time>2026-05-02T09:18:49.664Z</time></trkpt><trkpt lat="41.0668333" lon="9.3937133"><ele>19.0</ele><time>2026-05-02T09:18:50.664Z</time></trkpt><trkpt lat="41.0668933" lon="9.3935083"><ele>19.0</ele><time>2026-05-02T09:18:51.664Z</time></trkpt><trkpt lat="41.066935" lon="9.3932867"><ele>19.0</ele><time>2026-05-02T09:18:52.664Z</time></trkpt><trkpt lat="41.06695" lon="9.393125"><ele>19.0</ele><time>2026-05-02T09:18:53.664Z</time></trkpt><trkpt lat="41.0669717" lon="9.3929317"><ele>19.0</ele><time>2026-05-02T09:18:54.664Z</time></trkpt><trkpt lat="41.0669867" lon="9.392755"><ele>19.5</ele><time>2026-05-02T09:18:55.664Z</time></trkpt><trkpt lat="41.066995" lon="9.39259"><ele>20.0</ele><time>2026-05-02T09:18:56.664Z</time></trkpt><trkpt lat="41.067015" lon="9.392425"><ele>20.5</ele><time>2026-05-02T09:18:57.664Z</time></trkpt><trkpt lat="41.067025" lon="9.392265"><ele>21.0</ele><time>2026-05-02T09:18:58.664Z</time></trkpt><trkpt lat="41.0670333" lon="9.39209"><ele>22.0</ele><time>2026-05-02T09:18:59.664Z</time></trkpt><trkpt lat="41.06703" lon="9.3919083"><ele>23.0</ele><time>2026-05-02T09:19:00.664Z</time></trkpt><trkpt lat="41.0670533" lon="9.39172"><ele>24.0</ele><time>2026-05-02T09:19:01.664Z</time></trkpt><trkpt lat="41.0670833" lon="9.3915133"><ele>25.0</ele><time>2026-05-02T09:19:02.664Z</time></trkpt><trkpt lat="41.06713" lon="9.3913067"><ele>26.666666666666668</ele><time>2026-05-02T09:19:03.664Z</time></trkpt><trkpt lat="41.06719" lon="9.3911067"><ele>28.333333333333336</ele><time>2026-05-02T09:19:04.664Z</time></trkpt><trkpt lat="41.0672583" lon="9.390915"><ele>30.0</ele><time>2026-05-02T09:19:05.664Z</time></trkpt><trkpt lat="41.067335" lon="9.39072"><ele>30.0</ele><time>2026-05-02T09:19:06.664Z</time></trkpt><trkpt lat="41.06742" lon="9.3905383"><ele>30.0</ele><time>2026-05-02T09:19:07.664Z</time></trkpt><trkpt lat="41.0675167" lon="9.3903683"><ele>30.0</ele><time>2026-05-02T09:19:08.664Z</time></trkpt><trkpt lat="41.0676233" lon="9.39021"><ele>29.0</ele><time>2026-05-02T09:19:09.664Z</time></trkpt><trkpt lat="41.0677317" lon="9.39006"><ele>28.0</ele><time>2026-05-02T09:19:10.664Z</time></trkpt><trkpt lat="41.06784" lon="9.3899133"><ele>27.0</ele><time>2026-05-02T09:19:11.664Z</time></trkpt><trkpt lat="41.067955" lon="9.3897583"><ele>28.0</ele><time>2026-05-02T09:19:12.664Z</time></trkpt><trkpt lat="41.0680717" lon="9.3896033"><ele>29.0</ele><time>2026-05-02T09:19:13.664Z</time></trkpt><trkpt lat="41.068175" lon="9.3894383"><ele>30.0</ele><time>2026-05-02T09:19:14.664Z</time></trkpt><trkpt lat="41.068275" lon="9.3892333"><ele>29.333333333333336</ele><time>2026-05-02T09:19:15.664Z</time></trkpt><trkpt lat="41.0683533" lon="9.3890367"><ele>28.666666666666668</ele><time>2026-05-02T09:19:16.664Z</time></trkpt><trkpt lat="41.0684283" lon="9.3888317"><ele>28.0</ele><time>2026-05-02T09:19:17.664Z</time></trkpt><trkpt lat="41.0684817" lon="9.3886317"><ele>28.0</ele><time>2026-05-02T09:19:18.664Z</time></trkpt><trkpt lat="41.0685333" lon="9.38844"><ele>28.0</ele><time>2026-05-02T09:19:19.664Z</time></trkpt><trkpt lat="41.0685717" lon="9.3882367"><ele>28.0</ele><time>2026-05-02T09:19:20.664Z</time></trkpt><trkpt lat="41.0686217" lon="9.3880317"><ele>28.333333333333336</ele><time>2026-05-02T09:19:21.665Z</time></trkpt><trkpt lat="41.068675" lon="9.3878017"><ele>28.666666666666664</ele><time>2026-05-02T09:19:22.664Z</time></trkpt><trkpt lat="41.06873" lon="9.3875867"><ele>29.0</ele><time>2026-05-02T09:19:23.664Z</time></trkpt><trkpt lat="41.068775" lon="9.38737"><ele>28.666666666666664</ele><time>2026-05-02T09:19:24.664Z</time></trkpt><trkpt lat="41.06882" lon="9.3871617"><ele>28.333333333333336</ele><time>2026-05-02T09:19:25.664Z</time></trkpt><trkpt lat="41.0688667" lon="9.386945"><ele>28.0</ele><time>2026-05-02T09:19:26.664Z</time></trkpt><trkpt lat="41.0689133" lon="9.38673"><ele>28.0</ele><time>2026-05-02T09:19:27.664Z</time></trkpt><trkpt lat="41.0689617" lon="9.3865217"><ele>28.0</ele><time>2026-05-02T09:19:28.664Z</time></trkpt><trkpt lat="41.0690067" lon="9.38631"><ele>28.0</ele><time>2026-05-02T09:19:29.664Z</time></trkpt><trkpt lat="41.0690433" lon="9.38609"><ele>27.0</ele><time>2026-05-02T09:19:30.664Z</time></trkpt><trkpt lat="41.069075" lon="9.385865"><ele>26.0</ele><time>2026-05-02T09:19:31.664Z</time></trkpt><trkpt lat="41.0690967" lon="9.3856517"><ele>25.0</ele><time>2026-05-02T09:19:32.664Z</time></trkpt><trkpt lat="41.0691133" lon="9.3854467"><ele>27.0</ele><time>2026-05-02T09:19:33.664Z</time></trkpt><trkpt lat="41.0691367" lon="9.38523"><ele>29.0</ele><time>2026-05-02T09:19:34.664Z</time></trkpt><trkpt lat="41.0691583" lon="9.38501"><ele>31.0</ele><time>2026-05-02T09:19:35.664Z</time></trkpt><trkpt lat="41.06918" lon="9.3847867"><ele>31.0</ele><time>2026-05-02T09:19:36.664Z</time></trkpt><trkpt lat="41.069195" lon="9.3845583"><ele>31.0</ele><time>2026-05-02T09:19:37.664Z</time></trkpt><trkpt lat="41.0692117" lon="9.3843317"><ele>31.0</ele><time>2026-05-02T09:19:38.664Z</time></trkpt><trkpt lat="41.06923" lon="9.3841067"><ele>31.0</ele><time>2026-05-02T09:19:39.664Z</time></trkpt><trkpt lat="41.0692467" lon="9.383885"><ele>31.0</ele><time>2026-05-02T09:19:40.664Z</time></trkpt><trkpt lat="41.0692667" lon="9.383665"><ele>31.0</ele><time>2026-05-02T09:19:41.664Z</time></trkpt><trkpt lat="41.0692833" lon="9.383465"><ele>31.0</ele><time>2026-05-02T09:19:42.664Z</time></trkpt><trkpt lat="41.0693017" lon="9.38327"><ele>31.0</ele><time>2026-05-02T09:19:43.664Z</time></trkpt><trkpt lat="41.0693217" lon="9.3831017"><ele>31.0</ele><time>2026-05-02T09:19:44.664Z</time></trkpt><trkpt lat="41.0693583" lon="9.382955"><ele>31.0</ele><time>2026-05-02T09:19:45.664Z</time></trkpt><trkpt lat="41.0694283" lon="9.3828117"><ele>31.0</ele><time>2026-05-02T09:19:46.664Z</time></trkpt><trkpt lat="41.0695" lon="9.3826683"><ele>31.0</ele><time>2026-05-02T09:19:47.664Z</time></trkpt><trkpt lat="41.0695617" lon="9.3825283"><ele>31.0</ele><time>2026-05-02T09:19:48.664Z</time></trkpt><trkpt lat="41.06958" lon="9.3823967"><ele>31.0</ele><time>2026-05-02T09:19:49.664Z</time></trkpt><trkpt lat="41.0695633" lon="9.3822483"><ele>32.0</ele><time>2026-05-02T09:19:50.664Z</time></trkpt><trkpt lat="41.069525" lon="9.3820883"><ele>33.0</ele><time>2026-05-02T09:19:51.664Z</time></trkpt><trkpt lat="41.069475" lon="9.3819167"><ele>34.0</ele><time>2026-05-02T09:19:52.664Z</time></trkpt><trkpt lat="41.0694317" lon="9.3817267"><ele>35.0</ele><time>2026-05-02T09:19:53.664Z</time></trkpt><trkpt lat="41.0694083" lon="9.3815167"><ele>35.0</ele><time>2026-05-02T09:19:54.664Z</time></trkpt><trkpt lat="41.0694083" lon="9.381295"><ele>35.0</ele><time>2026-05-02T09:19:55.664Z</time></trkpt><trkpt lat="41.0694183" lon="9.381075"><ele>35.0</ele><time>2026-05-02T09:19:56.664Z</time></trkpt><trkpt lat="41.0694467" lon="9.3808517"><ele>35.0</ele><time>2026-05-02T09:19:57.664Z</time></trkpt><trkpt lat="41.069485" lon="9.38063"><ele>35.0</ele><time>2026-05-02T09:19:58.664Z</time></trkpt><trkpt lat="41.069545" lon="9.3804233"><ele>35.0</ele><time>2026-05-02T09:19:59.664Z</time></trkpt><trkpt lat="41.0696217" lon="9.380215"><ele>35.33333333333333</ele><time>2026-05-02T09:20:00.664Z</time></trkpt><trkpt lat="41.0697083" lon="9.3800217"><ele>35.666666666666664</ele><time>2026-05-02T09:20:01.664Z</time></trkpt><trkpt lat="41.0697967" lon="9.3798383"><ele>36.0</ele><time>2026-05-02T09:20:02.664Z</time></trkpt><trkpt lat="41.0698817" lon="9.37967"><ele>37.666666666666664</ele><time>2026-05-02T09:20:03.664Z</time></trkpt><trkpt lat="41.0699817" lon="9.37948"><ele>39.33333333333333</ele><time>2026-05-02T09:20:04.664Z</time></trkpt><trkpt lat="41.070085" lon="9.379295"><ele>41.0</ele><time>2026-05-02T09:20:05.664Z</time></trkpt><trkpt lat="41.0701783" lon="9.3791033"><ele>41.0</ele><time>2026-05-02T09:20:06.664Z</time></trkpt><trkpt lat="41.0702617" lon="9.3789033"><ele>41.0</ele><time>2026-05-02T09:20:07.664Z</time></trkpt><trkpt lat="41.0703617" lon="9.378685"><ele>41.0</ele><time>2026-05-02T09:20:08.664Z</time></trkpt><trkpt lat="41.0704733" lon="9.37846"><ele>41.33333333333333</ele><time>2026-05-02T09:20:09.664Z</time></trkpt><trkpt lat="41.07058" lon="9.3782617"><ele>41.666666666666664</ele><time>2026-05-02T09:20:10.664Z</time></trkpt><trkpt lat="41.07068" lon="9.3780733"><ele>42.0</ele><time>2026-05-02T09:20:11.664Z</time></trkpt><trkpt lat="41.07078" lon="9.3778783"><ele>43.333333333333336</ele><time>2026-05-02T09:20:12.664Z</time></trkpt><trkpt lat="41.0708917" lon="9.37766"><ele>44.66666666666667</ele><time>2026-05-02T09:20:13.664Z</time></trkpt><trkpt lat="41.0709817" lon="9.3774667"><ele>46.0</ele><time>2026-05-02T09:20:14.664Z</time></trkpt><trkpt lat="41.0710667" lon="9.3772667"><ele>46.0</ele><time>2026-05-02T09:20:15.664Z</time></trkpt><trkpt lat="41.0711517" lon="9.3770667"><ele>46.0</ele><time>2026-05-02T09:20:16.664Z</time></trkpt><trkpt lat="41.0712433" lon="9.37687"><ele>46.0</ele><time>2026-05-02T09:20:17.664Z</time></trkpt><trkpt lat="41.0713367" lon="9.3766767"><ele>46.0</ele><time>2026-05-02T09:20:18.664Z</time></trkpt><trkpt lat="41.0714333" lon="9.3764817"><ele>46.0</ele><time>2026-05-02T09:20:19.664Z</time></trkpt><trkpt lat="41.0715167" lon="9.3762933"><ele>46.0</ele><time>2026-05-02T09:20:20.664Z</time></trkpt><trkpt lat="41.07161" lon="9.37611"><ele>47.333333333333336</ele><time>2026-05-02T09:20:21.664Z</time></trkpt><trkpt lat="41.0717017" lon="9.3759317"><ele>48.66666666666667</ele><time>2026-05-02T09:20:22.665Z</time></trkpt><trkpt lat="41.0718033" lon="9.375755"><ele>50.0</ele><time>2026-05-02T09:20:23.664Z</time></trkpt><trkpt lat="41.071905" lon="9.37561"><ele>51.0</ele><time>2026-05-02T09:20:24.665Z</time></trkpt><trkpt lat="41.0720167" lon="9.3754717"><ele>52.0</ele><time>2026-05-02T09:20:25.664Z</time></trkpt><trkpt lat="41.0721367" lon="9.375355"><ele>53.0</ele><time>2026-05-02T09:20:26.664Z</time></trkpt><trkpt lat="41.07226" lon="9.3752667"><ele>54.0</ele><time>2026-05-02T09:20:27.665Z</time></trkpt><trkpt lat="41.0723767" lon="9.3752117"><ele>54.75</ele><time>2026-05-02T09:20:28.664Z</time></trkpt><trkpt lat="41.072505" lon="9.37517"><ele>55.5</ele><time>2026-05-02T09:20:29.664Z</time></trkpt><trkpt lat="41.07265" lon="9.37513"><ele>56.25</ele><time>2026-05-02T09:20:30.664Z</time></trkpt><trkpt lat="41.0728" lon="9.3751217"><ele>57.0</ele><time>2026-05-02T09:20:31.664Z</time></trkpt><trkpt lat="41.0729567" lon="9.3751467"><ele>57.0</ele><time>2026-05-02T09:20:32.664Z</time></trkpt><trkpt lat="41.0731133" lon="9.3751933"><ele>57.0</ele><time>2026-05-02T09:20:33.664Z</time></trkpt><trkpt lat="41.073275" lon="9.3752467"><ele>57.0</ele><time>2026-05-02T09:20:34.665Z</time></trkpt><trkpt lat="41.0734417" lon="9.3753117"><ele>57.33333333333333</ele><time>2026-05-02T09:20:35.664Z</time></trkpt><trkpt lat="41.0736083" lon="9.3753933"><ele>57.666666666666664</ele><time>2026-05-02T09:20:36.664Z</time></trkpt><trkpt lat="41.0737717" lon="9.3754633"><ele>58.0</ele><time>2026-05-02T09:20:37.664Z</time></trkpt><trkpt lat="41.0739283" lon="9.3755317"><ele>58.0</ele><time>2026-05-02T09:20:38.664Z</time></trkpt><trkpt lat="41.07409" lon="9.375605"><ele>58.0</ele><time>2026-05-02T09:20:39.664Z</time></trkpt><trkpt lat="41.0742517" lon="9.375675"><ele>58.0</ele><time>2026-05-02T09:20:40.664Z</time></trkpt><trkpt lat="41.07441" lon="9.375735"><ele>58.666666666666664</ele><time>2026-05-02T09:20:41.664Z</time></trkpt><trkpt lat="41.0745633" lon="9.3757817"><ele>59.33333333333333</ele><time>2026-05-02T09:20:42.664Z</time></trkpt><trkpt lat="41.0747117" lon="9.375815"><ele>60.0</ele><time>2026-05-02T09:20:43.664Z</time></trkpt><trkpt lat="41.0748717" lon="9.3758467"><ele>61.33333333333333</ele><time>2026-05-02T09:20:44.664Z</time></trkpt><trkpt lat="41.0750283" lon="9.3758583"><ele>62.666666666666664</ele><time>2026-05-02T09:20:45.664Z</time></trkpt><trkpt lat="41.0751817" lon="9.3758283"><ele>64.0</ele><time>2026-05-02T09:20:46.664Z</time></trkpt><trkpt lat="41.075335" lon="9.3757733"><ele>64.0</ele><time>2026-05-02T09:20:47.664Z</time></trkpt><trkpt lat="41.0754717" lon="9.3756683"><ele>64.0</ele><time>2026-05-02T09:20:48.664Z</time></trkpt><trkpt lat="41.075595" lon="9.3755667"><ele>64.0</ele><time>2026-05-02T09:20:49.664Z</time></trkpt><trkpt lat="41.0757167" lon="9.3754483"><ele>64.2</ele><time>2026-05-02T09:20:50.665Z</time></trkpt><trkpt lat="41.0758133" lon="9.37534"><ele>64.4</ele><time>2026-05-02T09:20:51.664Z</time></trkpt><trkpt lat="41.0758683" lon="9.37524"><ele>64.6</ele><time>2026-05-02T09:20:52.664Z</time></trkpt><trkpt lat="41.07591" lon="9.3751267"><ele>64.8</ele><time>2026-05-02T09:20:53.664Z</time></trkpt><trkpt lat="41.0759517" lon="9.375015"><ele>65.0</ele><time>2026-05-02T09:20:54.663Z</time></trkpt><trkpt lat="41.0759967" lon="9.374905"><ele>65.0</ele><time>2026-05-02T09:20:55.663Z</time></trkpt><trkpt lat="41.076035" lon="9.3747733"><ele>65.0</ele><time>2026-05-02T09:20:56.663Z</time></trkpt><trkpt lat="41.0760683" lon="9.3746383"><ele>65.0</ele><time>2026-05-02T09:20:57.663Z</time></trkpt><trkpt lat="41.0761117" lon="9.374495"><ele>65.0</ele><time>2026-05-02T09:20:58.663Z</time></trkpt><trkpt lat="41.0761633" lon="9.3743267"><ele>66.33333333333334</ele><time>2026-05-02T09:20:59.663Z</time></trkpt><trkpt lat="41.07622" lon="9.3741383"><ele>67.66666666666667</ele><time>2026-05-02T09:21:00.663Z</time></trkpt><trkpt lat="41.0762833" lon="9.3739367"><ele>69.0</ele><time>2026-05-02T09:21:01.663Z</time></trkpt><trkpt lat="41.0763583" lon="9.3737367"><ele>69.0</ele><time>2026-05-02T09:21:02.663Z</time></trkpt><trkpt lat="41.0764583" lon="9.37354"><ele>69.0</ele><time>2026-05-02T09:21:03.663Z</time></trkpt><trkpt lat="41.0765783" lon="9.3733767"><ele>69.0</ele><time>2026-05-02T09:21:04.663Z</time></trkpt><trkpt lat="41.0766917" lon="9.3732633"><ele>69.0</ele><time>2026-05-02T09:21:05.663Z</time></trkpt><trkpt lat="41.0768267" lon="9.3731667"><ele>69.0</ele><time>2026-05-02T09:21:06.663Z</time></trkpt><trkpt lat="41.0769783" lon="9.3731233"><ele>69.0</ele><time>2026-05-02T09:21:07.663Z</time></trkpt><trkpt lat="41.0771483" lon="9.3730917"><ele>69.0</ele><time>2026-05-02T09:21:08.663Z</time></trkpt><trkpt lat="41.07731" lon="9.3731033"><ele>69.0</ele><time>2026-05-02T09:21:09.663Z</time></trkpt><trkpt lat="41.0774683" lon="9.3731533"><ele>69.0</ele><time>2026-05-02T09:21:10.663Z</time></trkpt><trkpt lat="41.0776433" lon="9.3732367"><ele>69.66666666666667</ele><time>2026-05-02T09:21:11.663Z</time></trkpt><trkpt lat="41.0778033" lon="9.3733217"><ele>70.33333333333334</ele><time>2026-05-02T09:21:12.663Z</time></trkpt><trkpt lat="41.0779717" lon="9.3734017"><ele>71.0</ele><time>2026-05-02T09:21:13.663Z</time></trkpt><trkpt lat="41.0781333" lon="9.373495"><ele>72.0</ele><time>2026-05-02T09:21:14.663Z</time></trkpt><trkpt lat="41.0782983" lon="9.3735717"><ele>73.0</ele><time>2026-05-02T09:21:15.663Z</time></trkpt><trkpt lat="41.078465" lon="9.3736467"><ele>74.0</ele><time>2026-05-02T09:21:16.663Z</time></trkpt><trkpt lat="41.0786383" lon="9.373715"><ele>74.0</ele><time>2026-05-02T09:21:17.663Z</time></trkpt><trkpt lat="41.0787967" lon="9.373775"><ele>74.0</ele><time>2026-05-02T09:21:18.663Z</time></trkpt><trkpt lat="41.0789617" lon="9.373835"><ele>74.0</ele><time>2026-05-02T09:21:19.663Z</time></trkpt><trkpt lat="41.079125" lon="9.3738967"><ele>74.33333333333334</ele><time>2026-05-02T09:21:20.663Z</time></trkpt><trkpt lat="41.0792867" lon="9.3739633"><ele>74.66666666666667</ele><time>2026-05-02T09:21:21.663Z</time></trkpt><trkpt lat="41.0794417" lon="9.3740333"><ele>75.0</ele><time>2026-05-02T09:21:22.663Z</time></trkpt><trkpt lat="41.0795967" lon="9.374095"><ele>75.0</ele><time>2026-05-02T09:21:23.663Z</time></trkpt><trkpt lat="41.0797567" lon="9.3741517"><ele>75.0</ele><time>2026-05-02T09:21:24.663Z</time></trkpt><trkpt lat="41.079925" lon="9.374215"><ele>75.0</ele><time>2026-05-02T09:21:25.663Z</time></trkpt><trkpt lat="41.0800717" lon="9.3742533"><ele>76.66666666666667</ele><time>2026-05-02T09:21:26.663Z</time></trkpt><trkpt lat="41.0802183" lon="9.374325"><ele>78.33333333333334</ele><time>2026-05-02T09:21:27.663Z</time></trkpt><trkpt lat="41.0803633" lon="9.3743967"><ele>80.0</ele><time>2026-05-02T09:21:28.663Z</time></trkpt><trkpt lat="41.08051" lon="9.3744633"><ele>80.0</ele><time>2026-05-02T09:21:29.663Z</time></trkpt><trkpt lat="41.0806533" lon="9.3745617"><ele>80.0</ele><time>2026-05-02T09:21:30.663Z</time></trkpt><trkpt lat="41.0807917" lon="9.3746417"><ele>80.0</ele><time>2026-05-02T09:21:31.663Z</time></trkpt><trkpt lat="41.0809067" lon="9.3747117"><ele>80.0</ele><time>2026-05-02T09:21:32.663Z</time></trkpt><trkpt lat="41.0810033" lon="9.3747933"><ele>79.5</ele><time>2026-05-02T09:21:33.663Z</time></trkpt><trkpt lat="41.0810683" lon="9.3749367"><ele>79.0</ele><time>2026-05-02T09:21:34.663Z</time></trkpt><trkpt lat="41.08112" lon="9.3750683"><ele>78.5</ele><time>2026-05-02T09:21:35.663Z</time></trkpt><trkpt lat="41.081155" lon="9.3752217"><ele>78.0</ele><time>2026-05-02T09:21:36.663Z</time></trkpt><trkpt lat="41.081195" lon="9.3753933"><ele>77.75</ele><time>2026-05-02T09:21:37.663Z</time></trkpt><trkpt lat="41.0812183" lon="9.3755783"><ele>77.5</ele><time>2026-05-02T09:21:38.663Z</time></trkpt><trkpt lat="41.081235" lon="9.3757717"><ele>77.25</ele><time>2026-05-02T09:21:39.663Z</time></trkpt><trkpt lat="41.08125" lon="9.3759733"><ele>77.0</ele><time>2026-05-02T09:21:40.663Z</time></trkpt><trkpt lat="41.0812767" lon="9.376185"><ele>77.66666666666667</ele><time>2026-05-02T09:21:41.663Z</time></trkpt><trkpt lat="41.0812867" lon="9.3764083"><ele>78.33333333333333</ele><time>2026-05-02T09:21:42.663Z</time></trkpt><trkpt lat="41.0813083" lon="9.37664"><ele>79.0</ele><time>2026-05-02T09:21:43.663Z</time></trkpt><trkpt lat="41.0813483" lon="9.3768383"><ele>79.0</ele><time>2026-05-02T09:21:44.663Z</time></trkpt><trkpt lat="41.08139" lon="9.37702"><ele>79.0</ele><time>2026-05-02T09:21:45.663Z</time></trkpt><trkpt lat="41.0814283" lon="9.377215"><ele>79.0</ele><time>2026-05-02T09:21:46.663Z</time></trkpt><trkpt lat="41.0814717" lon="9.3773417"><ele>79.0</ele><time>2026-05-02T09:21:47.663Z</time></trkpt><trkpt lat="41.081525" lon="9.3774317"><ele>78.60000000000001</ele><time>2026-05-02T09:21:48.663Z</time></trkpt><trkpt lat="41.081575" lon="9.377525"><ele>78.2</ele><time>2026-05-02T09:21:49.663Z</time></trkpt><trkpt lat="41.0816283" lon="9.3775983"><ele>77.80000000000001</ele><time>2026-05-02T09:21:50.663Z</time></trkpt><trkpt lat="41.0817167" lon="9.3776733"><ele>77.4</ele><time>2026-05-02T09:21:52.663Z</time></trkpt><trkpt lat="41.081805" lon="9.377625"><ele>77.0</ele><time>2026-05-02T09:21:55.663Z</time></trkpt><trkpt lat="41.08185" lon="9.3774867"><ele>79.25</ele><time>2026-05-02T09:21:57.663Z</time></trkpt><trkpt lat="41.0818683" lon="9.377375"><ele>81.5</ele><time>2026-05-02T09:21:58.663Z</time></trkpt><trkpt lat="41.0818867" lon="9.3772367"><ele>83.75</ele><time>2026-05-02T09:21:59.663Z</time></trkpt><trkpt lat="41.0819" lon="9.377045"><ele>86.0</ele><time>2026-05-02T09:22:00.663Z</time></trkpt><trkpt lat="41.0819283" lon="9.376865"><ele>86.25</ele><time>2026-05-02T09:22:01.664Z</time></trkpt><trkpt lat="41.0819583" lon="9.3766867"><ele>86.5</ele><time>2026-05-02T09:22:02.663Z</time></trkpt><trkpt lat="41.0820083" lon="9.3765233"><ele>86.75</ele><time>2026-05-02T09:22:03.663Z</time></trkpt><trkpt lat="41.0820817" lon="9.3763617"><ele>87.0</ele><time>2026-05-02T09:22:04.664Z</time></trkpt><trkpt lat="41.0821717" lon="9.3761933"><ele>86.33333333333333</ele><time>2026-05-02T09:22:05.663Z</time></trkpt><trkpt lat="41.0822867" lon="9.37603"><ele>85.66666666666666</ele><time>2026-05-02T09:22:06.663Z</time></trkpt><trkpt lat="41.0824117" lon="9.375875"><ele>85.0</ele><time>2026-05-02T09:22:07.663Z</time></trkpt><trkpt lat="41.0825417" lon="9.3757383"><ele>87.5</ele><time>2026-05-02T09:22:08.663Z</time></trkpt><trkpt lat="41.08266" lon="9.37562"><ele>90.0</ele><time>2026-05-02T09:22:09.663Z</time></trkpt><trkpt lat="41.0827783" lon="9.3755217"><ele>92.5</ele><time>2026-05-02T09:22:10.663Z</time></trkpt><trkpt lat="41.0829067" lon="9.3754517"><ele>95.0</ele><time>2026-05-02T09:22:11.664Z</time></trkpt><trkpt lat="41.083025" lon="9.3754317"><ele>95.0</ele><time>2026-05-02T09:22:12.664Z</time></trkpt><trkpt lat="41.083155" lon="9.375455"><ele>95.0</ele><time>2026-05-02T09:22:13.663Z</time></trkpt><trkpt lat="41.08325" lon="9.375485"><ele>95.0</ele><time>2026-05-02T09:22:14.663Z</time></trkpt><trkpt lat="41.083375" lon="9.3755483"><ele>95.0</ele><time>2026-05-02T09:22:15.663Z</time></trkpt><trkpt lat="41.0834833" lon="9.375635"><ele>97.25</ele><time>2026-05-02T09:22:16.663Z</time></trkpt><trkpt lat="41.0835933" lon="9.3757267"><ele>99.5</ele><time>2026-05-02T09:22:17.663Z</time></trkpt><trkpt lat="41.0837167" lon="9.375815"><ele>101.75</ele><time>2026-05-02T09:22:18.663Z</time></trkpt><trkpt lat="41.08386" lon="9.37594"><ele>104.0</ele><time>2026-05-02T09:22:19.663Z</time></trkpt><trkpt lat="41.0840133" lon="9.3759617"><ele>106.33333333333333</ele><time>2026-05-02T09:22:20.663Z</time></trkpt><trkpt lat="41.0841717" lon="9.3759517"><ele>108.66666666666666</ele><time>2026-05-02T09:22:21.663Z</time></trkpt><trkpt lat="41.0843267" lon="9.37591"><ele>111.0</ele><time>2026-05-02T09:22:22.663Z</time></trkpt><trkpt lat="41.0844883" lon="9.3758783"><ele>111.0</ele><time>2026-05-02T09:22:23.663Z</time></trkpt><trkpt lat="41.0846467" lon="9.3758583"><ele>111.0</ele><time>2026-05-02T09:22:24.663Z</time></trkpt><trkpt lat="41.0847967" lon="9.3758667"><ele>111.0</ele><time>2026-05-02T09:22:25.663Z</time></trkpt><trkpt lat="41.0849367" lon="9.3758933"><ele>112.0</ele><time>2026-05-02T09:22:26.663Z</time></trkpt><trkpt lat="41.08507" lon="9.375905"><ele>113.0</ele><time>2026-05-02T09:22:27.663Z</time></trkpt><trkpt lat="41.0851967" lon="9.3758917"><ele>114.0</ele><time>2026-05-02T09:22:28.663Z</time></trkpt><trkpt lat="41.08532" lon="9.3758467"><ele>115.0</ele><time>2026-05-02T09:22:29.663Z</time></trkpt><trkpt lat="41.0854133" lon="9.37566"><ele>119.66666666666667</ele><time>2026-05-02T09:22:30.663Z</time></trkpt><trkpt lat="41.0854967" lon="9.3754833"><ele>124.33333333333334</ele><time>2026-05-02T09:22:31.663Z</time></trkpt><trkpt lat="41.0856117" lon="9.375285"><ele>129.0</ele><time>2026-05-02T09:22:32.663Z</time></trkpt><trkpt lat="41.0857333" lon="9.37513"><ele>127.33333333333334</ele><time>2026-05-02T09:22:33.663Z</time></trkpt><trkpt lat="41.0858683" lon="9.3750333"><ele>125.66666666666667</ele><time>2026-05-02T09:22:34.663Z</time></trkpt><trkpt lat="41.0860317" lon="9.3749483"><ele>124.0</ele><time>2026-05-02T09:22:35.663Z</time></trkpt><trkpt lat="41.0861983" lon="9.3748967"><ele>124.0</ele><time>2026-05-02T09:22:36.663Z</time></trkpt><trkpt lat="41.08637" lon="9.3748483"><ele>124.0</ele><time>2026-05-02T09:22:37.663Z</time></trkpt><trkpt lat="41.0865333" lon="9.3748083"><ele>124.0</ele><time>2026-05-02T09:22:38.663Z</time></trkpt><trkpt lat="41.08669" lon="9.37477"><ele>123.33333333333334</ele><time>2026-05-02T09:22:39.663Z</time></trkpt><trkpt lat="41.08685" lon="9.3747517"><ele>122.66666666666666</ele><time>2026-05-02T09:22:40.664Z</time></trkpt><trkpt lat="41.0870117" lon="9.374715"><ele>122.0</ele><time>2026-05-02T09:22:41.663Z</time></trkpt><trkpt lat="41.0871633" lon="9.37468"><ele>122.0</ele><time>2026-05-02T09:22:42.663Z</time></trkpt><trkpt lat="41.087295" lon="9.3746233"><ele>122.0</ele><time>2026-05-02T09:22:43.663Z</time></trkpt><trkpt lat="41.08748" lon="9.374595"><ele>122.0</ele><time>2026-05-02T09:22:44.663Z</time></trkpt><trkpt lat="41.0876367" lon="9.3745433"><ele>122.0</ele><time>2026-05-02T09:22:45.663Z</time></trkpt><trkpt lat="41.0878" lon="9.3744933"><ele>122.0</ele><time>2026-05-02T09:22:46.663Z</time></trkpt><trkpt lat="41.0879617" lon="9.3744667"><ele>122.0</ele><time>2026-05-02T09:22:47.663Z</time></trkpt><trkpt lat="41.0881167" lon="9.3744333"><ele>122.33333333333333</ele><time>2026-05-02T09:22:48.663Z</time></trkpt><trkpt lat="41.088275" lon="9.3744033"><ele>122.66666666666666</ele><time>2026-05-02T09:22:49.663Z</time></trkpt><trkpt lat="41.0884567" lon="9.3743667"><ele>123.0</ele><time>2026-05-02T09:22:50.663Z</time></trkpt><trkpt lat="41.08863" lon="9.3743433"><ele>123.0</ele><time>2026-05-02T09:22:51.663Z</time></trkpt><trkpt lat="41.088805" lon="9.3743167"><ele>123.0</ele><time>2026-05-02T09:22:52.663Z</time></trkpt><trkpt lat="41.0889767" lon="9.3742867"><ele>123.0</ele><time>2026-05-02T09:22:53.663Z</time></trkpt><trkpt lat="41.089145" lon="9.37425"><ele>124.0</ele><time>2026-05-02T09:22:54.663Z</time></trkpt><trkpt lat="41.0893167" lon="9.3742017"><ele>125.0</ele><time>2026-05-02T09:22:55.663Z</time></trkpt><trkpt lat="41.08949" lon="9.3741533"><ele>126.0</ele><time>2026-05-02T09:22:56.663Z</time></trkpt><trkpt lat="41.0896667" lon="9.3741183"><ele>126.0</ele><time>2026-05-02T09:22:57.664Z</time></trkpt><trkpt lat="41.089835" lon="9.3740767"><ele>126.0</ele><time>2026-05-02T09:22:58.663Z</time></trkpt><trkpt lat="41.09001" lon="9.374045"><ele>126.0</ele><time>2026-05-02T09:22:59.663Z</time></trkpt><trkpt lat="41.09019" lon="9.37402"><ele>128.0</ele><time>2026-05-02T09:23:00.663Z</time></trkpt><trkpt lat="41.0903667" lon="9.3739967"><ele>130.0</ele><time>2026-05-02T09:23:01.663Z</time></trkpt><trkpt lat="41.090545" lon="9.373965"><ele>132.0</ele><time>2026-05-02T09:23:02.663Z</time></trkpt><trkpt lat="41.0907" lon="9.3739167"><ele>133.66666666666666</ele><time>2026-05-02T09:23:03.663Z</time></trkpt><trkpt lat="41.0908583" lon="9.373875"><ele>135.33333333333331</ele><time>2026-05-02T09:23:04.663Z</time></trkpt><trkpt lat="41.0910233" lon="9.373835"><ele>137.0</ele><time>2026-05-02T09:23:05.663Z</time></trkpt><trkpt lat="41.0911867" lon="9.37379"><ele>137.0</ele><time>2026-05-02T09:23:06.663Z</time></trkpt><trkpt lat="41.0913467" lon="9.3737417"><ele>137.0</ele><time>2026-05-02T09:23:07.663Z</time></trkpt><trkpt lat="41.0915017" lon="9.3737067"><ele>137.0</ele><time>2026-05-02T09:23:08.663Z</time></trkpt><trkpt lat="41.0916567" lon="9.3736783"><ele>137.66666666666666</ele><time>2026-05-02T09:23:09.663Z</time></trkpt><trkpt lat="41.0918117" lon="9.3736467"><ele>138.33333333333334</ele><time>2026-05-02T09:23:10.663Z</time></trkpt><trkpt lat="41.091965" lon="9.37363"><ele>139.0</ele><time>2026-05-02T09:23:11.663Z</time></trkpt><trkpt lat="41.0921167" lon="9.373615"><ele>139.0</ele><time>2026-05-02T09:23:12.663Z</time></trkpt><trkpt lat="41.0922683" lon="9.3735867"><ele>139.0</ele><time>2026-05-02T09:23:13.663Z</time></trkpt><trkpt lat="41.0924183" lon="9.3735317"><ele>139.0</ele><time>2026-05-02T09:23:14.663Z</time></trkpt><trkpt lat="41.0925683" lon="9.37343"><ele>138.75</ele><time>2026-05-02T09:23:15.663Z</time></trkpt><trkpt lat="41.0927067" lon="9.3733167"><ele>138.5</ele><time>2026-05-02T09:23:16.663Z</time></trkpt><trkpt lat="41.0928117" lon="9.373195"><ele>138.25</ele><time>2026-05-02T09:23:17.663Z</time></trkpt><trkpt lat="41.092915" lon="9.37308"><ele>138.0</ele><time>2026-05-02T09:23:18.663Z</time></trkpt><trkpt lat="41.0930167" lon="9.372975"><ele>137.25</ele><time>2026-05-02T09:23:19.663Z</time></trkpt><trkpt lat="41.0931083" lon="9.372875"><ele>136.5</ele><time>2026-05-02T09:23:20.663Z</time></trkpt><trkpt lat="41.0931983" lon="9.3727867"><ele>135.75</ele><time>2026-05-02T09:23:21.663Z</time></trkpt><trkpt lat="41.0933" lon="9.3727067"><ele>135.0</ele><time>2026-05-02T09:23:22.663Z</time></trkpt><trkpt lat="41.0934083" lon="9.3726533"><ele>135.0</ele><time>2026-05-02T09:23:23.663Z</time></trkpt><trkpt lat="41.0935133" lon="9.3726317"><ele>135.0</ele><time>2026-05-02T09:23:24.663Z</time></trkpt><trkpt lat="41.09362" lon="9.3726383"><ele>135.0</ele><time>2026-05-02T09:23:25.663Z</time></trkpt><trkpt lat="41.093715" lon="9.3726317"><ele>135.0</ele><time>2026-05-02T09:23:26.663Z</time></trkpt><trkpt lat="41.0938233" lon="9.3726483"><ele>135.0</ele><time>2026-05-02T09:23:27.663Z</time></trkpt><trkpt lat="41.0939367" lon="9.37266"><ele>135.0</ele><time>2026-05-02T09:23:28.663Z</time></trkpt><trkpt lat="41.0940533" lon="9.37267"><ele>135.0</ele><time>2026-05-02T09:23:29.663Z</time></trkpt><trkpt lat="41.09417" lon="9.3726783"><ele>135.0</ele><time>2026-05-02T09:23:30.663Z</time></trkpt><trkpt lat="41.0942817" lon="9.3726617"><ele>135.0</ele><time>2026-05-02T09:23:31.663Z</time></trkpt><trkpt lat="41.0943817" lon="9.3726367"><ele>135.0</ele><time>2026-05-02T09:23:32.663Z</time></trkpt><trkpt lat="41.094485" lon="9.372615"><ele>134.6</ele><time>2026-05-02T09:23:33.663Z</time></trkpt><trkpt lat="41.0945833" lon="9.3726033"><ele>134.2</ele><time>2026-05-02T09:23:34.663Z</time></trkpt><trkpt lat="41.09469" lon="9.3725883"><ele>133.8</ele><time>2026-05-02T09:23:35.663Z</time></trkpt><trkpt lat="41.094795" lon="9.37254"><ele>133.4</ele><time>2026-05-02T09:23:36.663Z</time></trkpt><trkpt lat="41.0948983" lon="9.3725133"><ele>133.0</ele><time>2026-05-02T09:23:37.663Z</time></trkpt><trkpt lat="41.095" lon="9.37248"><ele>133.0</ele><time>2026-05-02T09:23:38.663Z</time></trkpt><trkpt lat="41.0950933" lon="9.37246"><ele>133.0</ele><time>2026-05-02T09:23:39.663Z</time></trkpt><trkpt lat="41.0951667" lon="9.3724383"><ele>133.0</ele><time>2026-05-02T09:23:40.663Z</time></trkpt><trkpt lat="41.0952317" lon="9.3724167"><ele>133.0</ele><time>2026-05-02T09:23:41.663Z</time></trkpt><trkpt lat="41.09531" lon="9.372405"><ele>133.0</ele><time>2026-05-02T09:23:43.663Z</time></trkpt><trkpt lat="41.0952517" lon="9.3724817"><ele>133.0</ele><time>2026-05-02T09:24:37.663Z</time></trkpt><trkpt lat="41.095275" lon="9.3723983"><ele>133.0</ele><time>2026-05-02T09:24:47.663Z</time></trkpt><trkpt lat="41.0953917" lon="9.3723633"><ele>133.0</ele><time>2026-05-02T09:24:49.663Z</time></trkpt><trkpt lat="41.0954983" lon="9.3723333"><ele>133.0</ele><time>2026-05-02T09:24:50.663Z</time></trkpt><trkpt lat="41.0956267" lon="9.3723067"><ele>133.0</ele><time>2026-05-02T09:24:51.663Z</time></trkpt><trkpt lat="41.0957583" lon="9.3722733"><ele>133.0</ele><time>2026-05-02T09:24:52.663Z</time></trkpt><trkpt lat="41.0959217" lon="9.37223"><ele>133.0</ele><time>2026-05-02T09:24:53.663Z</time></trkpt><trkpt lat="41.096075" lon="9.372195"><ele>133.0</ele><time>2026-05-02T09:24:54.663Z</time></trkpt><trkpt lat="41.096255" lon="9.372155"><ele>133.0</ele><time>2026-05-02T09:24:55.663Z</time></trkpt><trkpt lat="41.0964717" lon="9.372095"><ele>133.0</ele><time>2026-05-02T09:24:56.663Z</time></trkpt><trkpt lat="41.09666" lon="9.372045"><ele>133.0</ele><time>2026-05-02T09:24:57.663Z</time></trkpt><trkpt lat="41.096825" lon="9.3719967"><ele>134.0</ele><time>2026-05-02T09:24:58.663Z</time></trkpt><trkpt lat="41.0969867" lon="9.3719567"><ele>135.0</ele><time>2026-05-02T09:24:59.663Z</time></trkpt><trkpt lat="41.0971383" lon="9.3719133"><ele>136.0</ele><time>2026-05-02T09:25:00.663Z</time></trkpt><trkpt lat="41.097285" lon="9.371875"><ele>134.66666666666669</ele><time>2026-05-02T09:25:01.663Z</time></trkpt><trkpt lat="41.0974333" lon="9.3718233"><ele>133.33333333333334</ele><time>2026-05-02T09:25:02.663Z</time></trkpt><trkpt lat="41.09758" lon="9.3717867"><ele>132.0</ele><time>2026-05-02T09:25:03.663Z</time></trkpt><trkpt lat="41.0977317" lon="9.371755"><ele>132.0</ele><time>2026-05-02T09:25:04.663Z</time></trkpt><trkpt lat="41.0978833" lon="9.37172"><ele>132.0</ele><time>2026-05-02T09:25:05.663Z</time></trkpt><trkpt lat="41.0980317" lon="9.3716983"><ele>132.0</ele><time>2026-05-02T09:25:06.663Z</time></trkpt><trkpt lat="41.098185" lon="9.37169"><ele>131.0</ele><time>2026-05-02T09:25:07.663Z</time></trkpt><trkpt lat="41.0983417" lon="9.37169"><ele>130.0</ele><time>2026-05-02T09:25:08.663Z</time></trkpt><trkpt lat="41.0984933" lon="9.3716767"><ele>129.0</ele><time>2026-05-02T09:25:09.663Z</time></trkpt><trkpt lat="41.0986417" lon="9.3716583"><ele>129.0</ele><time>2026-05-02T09:25:10.663Z</time></trkpt><trkpt lat="41.0987967" lon="9.37164"><ele>129.0</ele><time>2026-05-02T09:25:11.663Z</time></trkpt><trkpt lat="41.0989517" lon="9.3716283"><ele>129.0</ele><time>2026-05-02T09:25:12.663Z</time></trkpt><trkpt lat="41.0991067" lon="9.3716117"><ele>128.33333333333334</ele><time>2026-05-02T09:25:13.663Z</time></trkpt><trkpt lat="41.099265" lon="9.3716017"><ele>127.66666666666667</ele><time>2026-05-02T09:25:14.663Z</time></trkpt><trkpt lat="41.0994267" lon="9.371605"><ele>127.0</ele><time>2026-05-02T09:25:15.663Z</time></trkpt><trkpt lat="41.0995883" lon="9.3716183"><ele>127.0</ele><time>2026-05-02T09:25:16.663Z</time></trkpt><trkpt lat="41.0997483" lon="9.3716433"><ele>127.0</ele><time>2026-05-02T09:25:17.663Z</time></trkpt><trkpt lat="41.099905" lon="9.37167"><ele>127.0</ele><time>2026-05-02T09:25:18.663Z</time></trkpt><trkpt lat="41.100065" lon="9.3716883"><ele>124.66666666666667</ele><time>2026-05-02T09:25:19.663Z</time></trkpt><trkpt lat="41.100225" lon="9.3716867"><ele>122.33333333333334</ele><time>2026-05-02T09:25:20.663Z</time></trkpt><trkpt lat="41.10038" lon="9.3716733"><ele>120.0</ele><time>2026-05-02T09:25:21.663Z</time></trkpt><trkpt lat="41.1005367" lon="9.371645"><ele>120.0</ele><time>2026-05-02T09:25:22.663Z</time></trkpt><trkpt lat="41.1006933" lon="9.3716"><ele>120.0</ele><time>2026-05-02T09:25:23.663Z</time></trkpt><trkpt lat="41.1008483" lon="9.3715433"><ele>120.0</ele><time>2026-05-02T09:25:24.663Z</time></trkpt><trkpt lat="41.1010017" lon="9.37147"><ele>118.0</ele><time>2026-05-02T09:25:25.663Z</time></trkpt><trkpt lat="41.1011567" lon="9.3713767"><ele>116.0</ele><time>2026-05-02T09:25:26.663Z</time></trkpt><trkpt lat="41.101305" lon="9.3712833"><ele>114.0</ele><time>2026-05-02T09:25:27.663Z</time></trkpt><trkpt lat="41.101455" lon="9.371195"><ele>111.66666666666666</ele><time>2026-05-02T09:25:28.663Z</time></trkpt><trkpt lat="41.1016033" lon="9.3711183"><ele>109.33333333333333</ele><time>2026-05-02T09:25:29.663Z</time></trkpt><trkpt lat="41.1017517" lon="9.3710383"><ele>107.0</ele><time>2026-05-02T09:25:30.663Z</time></trkpt><trkpt lat="41.101895" lon="9.3709617"><ele>107.0</ele><time>2026-05-02T09:25:31.663Z</time></trkpt><trkpt lat="41.1020367" lon="9.3708817"><ele>107.0</ele><time>2026-05-02T09:25:32.663Z</time></trkpt><trkpt lat="41.10218" lon="9.3708117"><ele>107.0</ele><time>2026-05-02T09:25:33.663Z</time></trkpt><trkpt lat="41.1023283" lon="9.3707483"><ele>105.33333333333333</ele><time>2026-05-02T09:25:34.663Z</time></trkpt><trkpt lat="41.1024867" lon="9.3706967"><ele>103.66666666666666</ele><time>2026-05-02T09:25:35.663Z</time></trkpt><trkpt lat="41.10265" lon="9.3706467"><ele>102.0</ele><time>2026-05-02T09:25:36.664Z</time></trkpt><trkpt lat="41.1028033" lon="9.3706033"><ele>102.0</ele><time>2026-05-02T09:25:37.663Z</time></trkpt><trkpt lat="41.1029633" lon="9.3705417"><ele>102.0</ele><time>2026-05-02T09:25:38.663Z</time></trkpt><trkpt lat="41.1031167" lon="9.3704733"><ele>102.0</ele><time>2026-05-02T09:25:39.663Z</time></trkpt><trkpt lat="41.1032683" lon="9.3703867"><ele>100.0</ele><time>2026-05-02T09:25:40.663Z</time></trkpt><trkpt lat="41.1034267" lon="9.3702783"><ele>98.0</ele><time>2026-05-02T09:25:41.663Z</time></trkpt><trkpt lat="41.1035933" lon="9.3701567"><ele>96.0</ele><time>2026-05-02T09:25:42.663Z</time></trkpt><trkpt lat="41.1037667" lon="9.3700167"><ele>96.0</ele><time>2026-05-02T09:25:43.663Z</time></trkpt><trkpt lat="41.10392" lon="9.3699317"><ele>96.0</ele><time>2026-05-02T09:25:44.663Z</time></trkpt><trkpt lat="41.1040767" lon="9.369865"><ele>96.0</ele><time>2026-05-02T09:25:45.663Z</time></trkpt><trkpt lat="41.1042317" lon="9.36982"><ele>94.66666666666667</ele><time>2026-05-02T09:25:46.662Z</time></trkpt><trkpt lat="41.10439" lon="9.3697833"><ele>93.33333333333334</ele><time>2026-05-02T09:25:47.662Z</time></trkpt><trkpt lat="41.1045517" lon="9.369745"><ele>92.0</ele><time>2026-05-02T09:25:48.662Z</time></trkpt><trkpt lat="41.10471" lon="9.369695"><ele>92.33333333333334</ele><time>2026-05-02T09:25:49.663Z</time></trkpt><trkpt lat="41.1048783" lon="9.36967"><ele>92.66666666666667</ele><time>2026-05-02T09:25:50.662Z</time></trkpt><trkpt lat="41.1050483" lon="9.3696483"><ele>93.0</ele><time>2026-05-02T09:25:51.662Z</time></trkpt><trkpt lat="41.1052117" lon="9.3696083"><ele>93.0</ele><time>2026-05-02T09:25:52.662Z</time></trkpt><trkpt lat="41.1053667" lon="9.3695317"><ele>93.0</ele><time>2026-05-02T09:25:53.662Z</time></trkpt><trkpt lat="41.1055283" lon="9.3694483"><ele>93.0</ele><time>2026-05-02T09:25:54.662Z</time></trkpt><trkpt lat="41.1056817" lon="9.369325"><ele>91.0</ele><time>2026-05-02T09:25:55.662Z</time></trkpt><trkpt lat="41.105835" lon="9.3692067"><ele>89.0</ele><time>2026-05-02T09:25:56.662Z</time></trkpt><trkpt lat="41.1059767" lon="9.3690833"><ele>87.0</ele><time>2026-05-02T09:25:57.662Z</time></trkpt><trkpt lat="41.10613" lon="9.3689567"><ele>87.33333333333333</ele><time>2026-05-02T09:25:58.662Z</time></trkpt><trkpt lat="41.106285" lon="9.3688333"><ele>87.66666666666666</ele><time>2026-05-02T09:25:59.662Z</time></trkpt><trkpt lat="41.106435" lon="9.368725"><ele>88.0</ele><time>2026-05-02T09:26:00.662Z</time></trkpt><trkpt lat="41.106585" lon="9.3686133"><ele>87.0</ele><time>2026-05-02T09:26:01.662Z</time></trkpt><trkpt lat="41.1067333" lon="9.368495"><ele>86.0</ele><time>2026-05-02T09:26:02.662Z</time></trkpt><trkpt lat="41.10688" lon="9.36838"><ele>85.0</ele><time>2026-05-02T09:26:03.662Z</time></trkpt><trkpt lat="41.10703" lon="9.3682667"><ele>85.0</ele><time>2026-05-02T09:26:04.662Z</time></trkpt><trkpt lat="41.1071767" lon="9.3681617"><ele>85.0</ele><time>2026-05-02T09:26:05.662Z</time></trkpt><trkpt lat="41.1073233" lon="9.36805"><ele>85.0</ele><time>2026-05-02T09:26:06.662Z</time></trkpt><trkpt lat="41.1074683" lon="9.36794"><ele>85.0</ele><time>2026-05-02T09:26:07.662Z</time></trkpt><trkpt lat="41.1076183" lon="9.3678367"><ele>85.0</ele><time>2026-05-02T09:26:08.662Z</time></trkpt><trkpt lat="41.10777" lon="9.3677417"><ele>85.0</ele><time>2026-05-02T09:26:09.662Z</time></trkpt><trkpt lat="41.1079267" lon="9.36766"><ele>85.0</ele><time>2026-05-02T09:26:10.662Z</time></trkpt><trkpt lat="41.1080917" lon="9.367585"><ele>85.0</ele><time>2026-05-02T09:26:11.662Z</time></trkpt><trkpt lat="41.1082567" lon="9.36752"><ele>85.0</ele><time>2026-05-02T09:26:12.662Z</time></trkpt><trkpt lat="41.10842" lon="9.3674533"><ele>84.33333333333333</ele><time>2026-05-02T09:26:13.662Z</time></trkpt><trkpt lat="41.10858" lon="9.3673933"><ele>83.66666666666667</ele><time>2026-05-02T09:26:14.662Z</time></trkpt><trkpt lat="41.1087367" lon="9.367335"><ele>83.0</ele><time>2026-05-02T09:26:15.662Z</time></trkpt><trkpt lat="41.1088933" lon="9.36728"><ele>83.0</ele><time>2026-05-02T09:26:16.662Z</time></trkpt><trkpt lat="41.1090567" lon="9.3672133"><ele>83.0</ele><time>2026-05-02T09:26:17.662Z</time></trkpt><trkpt lat="41.1092167" lon="9.367145"><ele>83.0</ele><time>2026-05-02T09:26:18.662Z</time></trkpt><trkpt lat="41.1093733" lon="9.3670783"><ele>84.33333333333334</ele><time>2026-05-02T09:26:19.662Z</time></trkpt><trkpt lat="41.1095217" lon="9.3669983"><ele>85.66666666666667</ele><time>2026-05-02T09:26:20.662Z</time></trkpt><trkpt lat="41.1096767" lon="9.366915"><ele>87.0</ele><time>2026-05-02T09:26:21.662Z</time></trkpt><trkpt lat="41.1098283" lon="9.366825"><ele>85.33333333333333</ele><time>2026-05-02T09:26:22.662Z</time></trkpt><trkpt lat="41.109975" lon="9.3667333"><ele>83.66666666666666</ele><time>2026-05-02T09:26:23.663Z</time></trkpt><trkpt lat="41.1101233" lon="9.3666417"><ele>82.0</ele><time>2026-05-02T09:26:24.662Z</time></trkpt><trkpt lat="41.1102767" lon="9.3665467"><ele>82.0</ele><time>2026-05-02T09:26:25.662Z</time></trkpt><trkpt lat="41.1104367" lon="9.36645"><ele>82.0</ele><time>2026-05-02T09:26:26.662Z</time></trkpt><trkpt lat="41.1106067" lon="9.3663633"><ele>82.0</ele><time>2026-05-02T09:26:27.662Z</time></trkpt><trkpt lat="41.11078" lon="9.3662817"><ele>82.66666666666666</ele><time>2026-05-02T09:26:28.662Z</time></trkpt><trkpt lat="41.11094" lon="9.3662217"><ele>83.33333333333333</ele><time>2026-05-02T09:26:29.662Z</time></trkpt><trkpt lat="41.1110833" lon="9.3661733"><ele>84.0</ele><time>2026-05-02T09:26:30.662Z</time></trkpt><trkpt lat="41.111255" lon="9.366105"><ele>84.0</ele><time>2026-05-02T09:26:31.662Z</time></trkpt><trkpt lat="41.1114217" lon="9.366045"><ele>84.0</ele><time>2026-05-02T09:26:32.663Z</time></trkpt><trkpt lat="41.11159" lon="9.3659833"><ele>84.0</ele><time>2026-05-02T09:26:33.662Z</time></trkpt><trkpt lat="41.1117467" lon="9.365925"><ele>84.0</ele><time>2026-05-02T09:26:34.662Z</time></trkpt><trkpt lat="41.1119067" lon="9.3658617"><ele>84.0</ele><time>2026-05-02T09:26:35.662Z</time></trkpt><trkpt lat="41.1120683" lon="9.365805"><ele>84.0</ele><time>2026-05-02T09:26:36.662Z</time></trkpt><trkpt lat="41.1122333" lon="9.3657583"><ele>84.0</ele><time>2026-05-02T09:26:37.662Z</time></trkpt><trkpt lat="41.1124017" lon="9.3657117"><ele>84.0</ele><time>2026-05-02T09:26:38.662Z</time></trkpt><trkpt lat="41.112565" lon="9.36566"><ele>84.0</ele><time>2026-05-02T09:26:39.662Z</time></trkpt><trkpt lat="41.112725" lon="9.3656"><ele>85.0</ele><time>2026-05-02T09:26:40.663Z</time></trkpt><trkpt lat="41.1128833" lon="9.365545"><ele>86.0</ele><time>2026-05-02T09:26:41.662Z</time></trkpt><trkpt lat="41.1130433" lon="9.3654967"><ele>87.0</ele><time>2026-05-02T09:26:42.662Z</time></trkpt><trkpt lat="41.1132083" lon="9.3654633"><ele>87.0</ele><time>2026-05-02T09:26:43.662Z</time></trkpt><trkpt lat="41.1133783" lon="9.3654433"><ele>87.0</ele><time>2026-05-02T09:26:44.663Z</time></trkpt><trkpt lat="41.113545" lon="9.3654583"><ele>87.0</ele><time>2026-05-02T09:26:45.662Z</time></trkpt><trkpt lat="41.1137117" lon="9.3654917"><ele>86.66666666666667</ele><time>2026-05-02T09:26:46.662Z</time></trkpt><trkpt lat="41.1138833" lon="9.36553"><ele>86.33333333333334</ele><time>2026-05-02T09:26:47.662Z</time></trkpt><trkpt lat="41.1140567" lon="9.3655667"><ele>86.0</ele><time>2026-05-02T09:26:48.662Z</time></trkpt><trkpt lat="41.114225" lon="9.3656033"><ele>84.33333333333334</ele><time>2026-05-02T09:26:49.662Z</time></trkpt><trkpt lat="41.1143967" lon="9.36564"><ele>82.66666666666667</ele><time>2026-05-02T09:26:50.662Z</time></trkpt><trkpt lat="41.1145717" lon="9.3656883"><ele>81.0</ele><time>2026-05-02T09:26:51.662Z</time></trkpt><trkpt lat="41.11475" lon="9.365735"><ele>80.33333333333333</ele><time>2026-05-02T09:26:52.662Z</time></trkpt><trkpt lat="41.114925" lon="9.3657767"><ele>79.66666666666666</ele><time>2026-05-02T09:26:53.662Z</time></trkpt><trkpt lat="41.115095" lon="9.3658133"><ele>79.0</ele><time>2026-05-02T09:26:54.662Z</time></trkpt><trkpt lat="41.1152667" lon="9.36585"><ele>79.0</ele><time>2026-05-02T09:26:55.662Z</time></trkpt><trkpt lat="41.1154367" lon="9.365885"><ele>79.0</ele><time>2026-05-02T09:26:56.662Z</time></trkpt><trkpt lat="41.1156083" lon="9.3659233"><ele>79.0</ele><time>2026-05-02T09:26:57.662Z</time></trkpt><trkpt lat="41.1157817" lon="9.3659617"><ele>79.0</ele><time>2026-05-02T09:26:58.662Z</time></trkpt><trkpt lat="41.11595" lon="9.366"><ele>79.0</ele><time>2026-05-02T09:26:59.662Z</time></trkpt><trkpt lat="41.1161183" lon="9.366035"><ele>79.0</ele><time>2026-05-02T09:27:00.662Z</time></trkpt><trkpt lat="41.1162917" lon="9.3660667"><ele>79.0</ele><time>2026-05-02T09:27:01.662Z</time></trkpt><trkpt lat="41.116465" lon="9.3660883"><ele>79.0</ele><time>2026-05-02T09:27:02.662Z</time></trkpt><trkpt lat="41.11664" lon="9.3661117"><ele>79.0</ele><time>2026-05-02T09:27:03.662Z</time></trkpt><trkpt lat="41.1168133" lon="9.3661317"><ele>78.0</ele><time>2026-05-02T09:27:04.662Z</time></trkpt><trkpt lat="41.1169917" lon="9.366145"><ele>77.0</ele><time>2026-05-02T09:27:05.662Z</time></trkpt><trkpt lat="41.117165" lon="9.36616"><ele>76.0</ele><time>2026-05-02T09:27:06.662Z</time></trkpt><trkpt lat="41.1173367" lon="9.3661783"><ele>74.33333333333333</ele><time>2026-05-02T09:27:07.662Z</time></trkpt><trkpt lat="41.1175133" lon="9.3661933"><ele>72.66666666666667</ele><time>2026-05-02T09:27:08.662Z</time></trkpt><trkpt lat="41.11769" lon="9.366205"><ele>71.0</ele><time>2026-05-02T09:27:09.662Z</time></trkpt><trkpt lat="41.1178567" lon="9.366225"><ele>71.0</ele><time>2026-05-02T09:27:10.662Z</time></trkpt><trkpt lat="41.1180133" lon="9.3662433"><ele>71.0</ele><time>2026-05-02T09:27:11.662Z</time></trkpt><trkpt lat="41.1181683" lon="9.366255"><ele>71.0</ele><time>2026-05-02T09:27:12.662Z</time></trkpt><trkpt lat="41.1183117" lon="9.3662717"><ele>69.75</ele><time>2026-05-02T09:27:13.662Z</time></trkpt><trkpt lat="41.1184483" lon="9.3662917"><ele>68.5</ele><time>2026-05-02T09:27:14.662Z</time></trkpt><trkpt lat="41.1185817" lon="9.36631"><ele>67.25</ele><time>2026-05-02T09:27:15.662Z</time></trkpt><trkpt lat="41.11871" lon="9.366325"><ele>66.0</ele><time>2026-05-02T09:27:16.662Z</time></trkpt><trkpt lat="41.1188567" lon="9.3663383"><ele>66.0</ele><time>2026-05-02T09:27:17.662Z</time></trkpt><trkpt lat="41.1190033" lon="9.3663433"><ele>66.0</ele><time>2026-05-02T09:27:18.662Z</time></trkpt><trkpt lat="41.1191533" lon="9.3663683"><ele>66.0</ele><time>2026-05-02T09:27:19.662Z</time></trkpt><trkpt lat="41.119295" lon="9.3663833"><ele>66.0</ele><time>2026-05-02T09:27:20.662Z</time></trkpt><trkpt lat="41.1194467" lon="9.366395"><ele>66.0</ele><time>2026-05-02T09:27:21.662Z</time></trkpt><trkpt lat="41.1195983" lon="9.3664117"><ele>66.0</ele><time>2026-05-02T09:27:22.662Z</time></trkpt><trkpt lat="41.1197517" lon="9.366425"><ele>66.0</ele><time>2026-05-02T09:27:23.662Z</time></trkpt><trkpt lat="41.1198983" lon="9.36644"><ele>66.2</ele><time>2026-05-02T09:27:24.662Z</time></trkpt><trkpt lat="41.12003" lon="9.366455"><ele>66.39999999999999</ele><time>2026-05-02T09:27:25.662Z</time></trkpt><trkpt lat="41.1201417" lon="9.3664683"><ele>66.6</ele><time>2026-05-02T09:27:26.662Z</time></trkpt><trkpt lat="41.120245" lon="9.366475"><ele>66.8</ele><time>2026-05-02T09:27:27.662Z</time></trkpt><trkpt lat="41.1203317" lon="9.366465"><ele>67.0</ele><time>2026-05-02T09:27:28.662Z</time></trkpt><trkpt lat="41.1203967" lon="9.3664533"><ele>67.0</ele><time>2026-05-02T09:27:29.662Z</time></trkpt><trkpt lat="41.1204833" lon="9.36637"><ele>67.0</ele><time>2026-05-02T09:27:31.662Z</time></trkpt><trkpt lat="41.120495" lon="9.3662083"><ele>67.0</ele><time>2026-05-02T09:27:33.662Z</time></trkpt><trkpt lat="41.12047" lon="9.3661233"><ele>67.0</ele><time>2026-05-02T09:27:34.662Z</time></trkpt><trkpt lat="41.120435" lon="9.3660167"><ele>67.0</ele><time>2026-05-02T09:27:36.662Z</time></trkpt><trkpt lat="41.1204167" lon="9.3659267"><ele>67.4</ele><time>2026-05-02T09:27:38.662Z</time></trkpt><trkpt lat="41.1203883" lon="9.3658267"><ele>67.80000000000001</ele><time>2026-05-02T09:27:40.662Z</time></trkpt><trkpt lat="41.1203333" lon="9.3656617"><ele>68.2</ele><time>2026-05-02T09:27:42.662Z</time></trkpt><trkpt lat="41.1202983" lon="9.36555"><ele>68.60000000000001</ele><time>2026-05-02T09:27:43.662Z</time></trkpt><trkpt lat="41.1202633" lon="9.3654217"><ele>69.0</ele><time>2026-05-02T09:27:44.662Z</time></trkpt><trkpt lat="41.1202233" lon="9.365295"><ele>69.8</ele><time>2026-05-02T09:27:45.662Z</time></trkpt><trkpt lat="41.1201817" lon="9.365165"><ele>70.60000000000001</ele><time>2026-05-02T09:27:46.663Z</time></trkpt><trkpt lat="41.1201417" lon="9.36503"><ele>71.4</ele><time>2026-05-02T09:27:47.662Z</time></trkpt><trkpt lat="41.1201017" lon="9.36489"><ele>72.2</ele><time>2026-05-02T09:27:48.662Z</time></trkpt><trkpt lat="41.1200633" lon="9.364745"><ele>73.0</ele><time>2026-05-02T09:27:49.662Z</time></trkpt><trkpt lat="41.12003" lon="9.364595"><ele>74.5</ele><time>2026-05-02T09:27:50.662Z</time></trkpt><trkpt lat="41.1199967" lon="9.3644517"><ele>76.0</ele><time>2026-05-02T09:27:51.662Z</time></trkpt><trkpt lat="41.1199683" lon="9.3643133"><ele>77.5</ele><time>2026-05-02T09:27:52.662Z</time></trkpt><trkpt lat="41.11994" lon="9.36417"><ele>79.0</ele><time>2026-05-02T09:27:53.662Z</time></trkpt><trkpt lat="41.11991" lon="9.36402"><ele>78.5</ele><time>2026-05-02T09:27:54.662Z</time></trkpt><trkpt lat="41.1198783" lon="9.3638683"><ele>78.0</ele><time>2026-05-02T09:27:55.662Z</time></trkpt><trkpt lat="41.1198467" lon="9.3637117"><ele>77.5</ele><time>2026-05-02T09:27:56.662Z</time></trkpt><trkpt lat="41.1198117" lon="9.3635567"><ele>77.0</ele><time>2026-05-02T09:27:57.662Z</time></trkpt><trkpt lat="41.1197733" lon="9.36341"><ele>78.2</ele><time>2026-05-02T09:27:58.662Z</time></trkpt><trkpt lat="41.1197367" lon="9.36327"><ele>79.4</ele><time>2026-05-02T09:27:59.662Z</time></trkpt><trkpt lat="41.119705" lon="9.3631283"><ele>80.60000000000001</ele><time>2026-05-02T09:28:00.662Z</time></trkpt><trkpt lat="41.1196783" lon="9.3629833"><ele>81.80000000000001</ele><time>2026-05-02T09:28:01.662Z</time></trkpt><trkpt lat="41.1196417" lon="9.3628483"><ele>83.0</ele><time>2026-05-02T09:28:02.662Z</time></trkpt><trkpt lat="41.1196217" lon="9.3626817"><ele>84.75</ele><time>2026-05-02T09:28:03.662Z</time></trkpt><trkpt lat="41.1195967" lon="9.362525"><ele>86.5</ele><time>2026-05-02T09:28:04.662Z</time></trkpt><trkpt lat="41.1195733" lon="9.3623583"><ele>88.25</ele><time>2026-05-02T09:28:05.662Z</time></trkpt><trkpt lat="41.1195533" lon="9.3621883"><ele>90.0</ele><time>2026-05-02T09:28:06.662Z</time></trkpt><trkpt lat="41.1195383" lon="9.362015"><ele>91.25</ele><time>2026-05-02T09:28:07.662Z</time></trkpt><trkpt lat="41.1195183" lon="9.3618433"><ele>92.5</ele><time>2026-05-02T09:28:08.662Z</time></trkpt><trkpt lat="41.1194967" lon="9.361675"><ele>93.75</ele><time>2026-05-02T09:28:09.662Z</time></trkpt><trkpt lat="41.1194733" lon="9.3615083"><ele>95.0</ele><time>2026-05-02T09:28:10.662Z</time></trkpt><trkpt lat="41.1194483" lon="9.3613567"><ele>97.25</ele><time>2026-05-02T09:28:11.662Z</time></trkpt><trkpt lat="41.119435" lon="9.361195"><ele>99.5</ele><time>2026-05-02T09:28:12.662Z</time></trkpt><trkpt lat="41.1194117" lon="9.3610317"><ele>101.75</ele><time>2026-05-02T09:28:13.663Z</time></trkpt><trkpt lat="41.1193717" lon="9.3608733"><ele>104.0</ele><time>2026-05-02T09:28:14.662Z</time></trkpt><trkpt lat="41.1193233" lon="9.3607117"><ele>104.0</ele><time>2026-05-02T09:28:15.662Z</time></trkpt><trkpt lat="41.1192833" lon="9.360545"><ele>104.0</ele><time>2026-05-02T09:28:16.662Z</time></trkpt><trkpt lat="41.1192633" lon="9.3603717"><ele>104.0</ele><time>2026-05-02T09:28:17.662Z</time></trkpt><trkpt lat="41.1192583" lon="9.360195"><ele>104.0</ele><time>2026-05-02T09:28:18.662Z</time></trkpt><trkpt lat="41.1192617" lon="9.36002"><ele>104.75</ele><time>2026-05-02T09:28:19.662Z</time></trkpt><trkpt lat="41.1192733" lon="9.3598383"><ele>105.5</ele><time>2026-05-02T09:28:20.662Z</time></trkpt><trkpt lat="41.1192933" lon="9.359645"><ele>106.25</ele><time>2026-05-02T09:28:21.662Z</time></trkpt><trkpt lat="41.1193167" lon="9.3594567"><ele>107.0</ele><time>2026-05-02T09:28:22.662Z</time></trkpt><trkpt lat="41.1193433" lon="9.3592617"><ele>107.75</ele><time>2026-05-02T09:28:23.662Z</time></trkpt><trkpt lat="41.1193717" lon="9.35907"><ele>108.5</ele><time>2026-05-02T09:28:24.662Z</time></trkpt><trkpt lat="41.1194067" lon="9.3588767"><ele>109.25</ele><time>2026-05-02T09:28:25.662Z</time></trkpt><trkpt lat="41.1194533" lon="9.35869"><ele>110.0</ele><time>2026-05-02T09:28:26.662Z</time></trkpt><trkpt lat="41.1195217" lon="9.3584833"><ele>111.0</ele><time>2026-05-02T09:28:27.662Z</time></trkpt><trkpt lat="41.119575" lon="9.3582983"><ele>112.0</ele><time>2026-05-02T09:28:28.662Z</time></trkpt><trkpt lat="41.1196333" lon="9.3581017"><ele>113.0</ele><time>2026-05-02T09:28:29.662Z</time></trkpt><trkpt lat="41.1197" lon="9.3578967"><ele>114.66666666666666</ele><time>2026-05-02T09:28:30.662Z</time></trkpt><trkpt lat="41.11977" lon="9.3576833"><ele>116.33333333333334</ele><time>2026-05-02T09:28:31.662Z</time></trkpt><trkpt lat="41.1198367" lon="9.3574683"><ele>118.0</ele><time>2026-05-02T09:28:32.662Z</time></trkpt><trkpt lat="41.11989" lon="9.3572633"><ele>115.66666666666667</ele><time>2026-05-02T09:28:33.662Z</time></trkpt><trkpt lat="41.1199483" lon="9.3570683"><ele>113.33333333333334</ele><time>2026-05-02T09:28:34.662Z</time></trkpt><trkpt lat="41.1199967" lon="9.3568767"><ele>111.0</ele><time>2026-05-02T09:28:35.662Z</time></trkpt><trkpt lat="41.12006" lon="9.3566817"><ele>111.0</ele><time>2026-05-02T09:28:36.662Z</time></trkpt><trkpt lat="41.12013" lon="9.3564933"><ele>111.0</ele><time>2026-05-02T09:28:37.662Z</time></trkpt><trkpt lat="41.12019" lon="9.3563067"><ele>111.0</ele><time>2026-05-02T09:28:38.662Z</time></trkpt><trkpt lat="41.1202483" lon="9.3561183"><ele>112.0</ele><time>2026-05-02T09:28:39.662Z</time></trkpt><trkpt lat="41.120305" lon="9.3559317"><ele>113.0</ele><time>2026-05-02T09:28:40.662Z</time></trkpt><trkpt lat="41.120365" lon="9.3557583"><ele>114.0</ele><time>2026-05-02T09:28:41.662Z</time></trkpt><trkpt lat="41.1204367" lon="9.3555933"><ele>115.0</ele><time>2026-05-02T09:28:42.662Z</time></trkpt><trkpt lat="41.1205267" lon="9.3554317"><ele>116.25</ele><time>2026-05-02T09:28:43.662Z</time></trkpt><trkpt lat="41.1206433" lon="9.3552933"><ele>117.5</ele><time>2026-05-02T09:28:44.662Z</time></trkpt><trkpt lat="41.1207467" lon="9.3552017"><ele>118.75</ele><time>2026-05-02T09:28:45.662Z</time></trkpt><trkpt lat="41.12087" lon="9.3551033"><ele>120.0</ele><time>2026-05-02T09:28:46.662Z</time></trkpt><trkpt lat="41.1210017" lon="9.3550067"><ele>120.0</ele><time>2026-05-02T09:28:47.662Z</time></trkpt><trkpt lat="41.121135" lon="9.3549167"><ele>120.0</ele><time>2026-05-02T09:28:48.662Z</time></trkpt><trkpt lat="41.1212683" lon="9.354825"><ele>120.0</ele><time>2026-05-02T09:28:49.662Z</time></trkpt><trkpt lat="41.1214017" lon="9.354745"><ele>120.0</ele><time>2026-05-02T09:28:50.662Z</time></trkpt><trkpt lat="41.121535" lon="9.3546717"><ele>121.5</ele><time>2026-05-02T09:28:51.662Z</time></trkpt><trkpt lat="41.121665" lon="9.3545917"><ele>123.0</ele><time>2026-05-02T09:28:52.662Z</time></trkpt><trkpt lat="41.1217717" lon="9.35452"><ele>124.5</ele><time>2026-05-02T09:28:53.663Z</time></trkpt><trkpt lat="41.1218767" lon="9.3544533"><ele>126.0</ele><time>2026-05-02T09:28:54.662Z</time></trkpt><trkpt lat="41.1219683" lon="9.3543833"><ele>126.0</ele><time>2026-05-02T09:28:55.662Z</time></trkpt><trkpt lat="41.1220533" lon="9.3543133"><ele>126.0</ele><time>2026-05-02T09:28:56.663Z</time></trkpt><trkpt lat="41.1221217" lon="9.3542267"><ele>126.0</ele><time>2026-05-02T09:28:57.662Z</time></trkpt><trkpt lat="41.1221933" lon="9.35413"><ele>126.0</ele><time>2026-05-02T09:28:58.662Z</time></trkpt><trkpt lat="41.122255" lon="9.3540017"><ele>126.0</ele><time>2026-05-02T09:28:59.662Z</time></trkpt><trkpt lat="41.1223083" lon="9.3538433"><ele>128.0</ele><time>2026-05-02T09:29:00.662Z</time></trkpt><trkpt lat="41.1223383" lon="9.3536533"><ele>130.0</ele><time>2026-05-02T09:29:01.662Z</time></trkpt><trkpt lat="41.1223517" lon="9.35344"><ele>132.0</ele><time>2026-05-02T09:29:02.662Z</time></trkpt><trkpt lat="41.1223533" lon="9.35324"><ele>132.0</ele><time>2026-05-02T09:29:03.662Z</time></trkpt><trkpt lat="41.12234" lon="9.353045"><ele>132.0</ele><time>2026-05-02T09:29:04.662Z</time></trkpt><trkpt lat="41.122315" lon="9.352845"><ele>132.0</ele><time>2026-05-02T09:29:05.662Z</time></trkpt><trkpt lat="41.122295" lon="9.3526483"><ele>133.0</ele><time>2026-05-02T09:29:06.662Z</time></trkpt><trkpt lat="41.1222967" lon="9.35246"><ele>134.0</ele><time>2026-05-02T09:29:07.662Z</time></trkpt><trkpt lat="41.1223317" lon="9.3522717"><ele>135.0</ele><time>2026-05-02T09:29:08.662Z</time></trkpt><trkpt lat="41.12239" lon="9.3520917"><ele>136.0</ele><time>2026-05-02T09:29:09.662Z</time></trkpt><trkpt lat="41.122465" lon="9.3519067"><ele>132.33333333333334</ele><time>2026-05-02T09:29:10.662Z</time></trkpt><trkpt lat="41.1225533" lon="9.351715"><ele>128.66666666666666</ele><time>2026-05-02T09:29:11.663Z</time></trkpt><trkpt lat="41.12265" lon="9.351535"><ele>125.0</ele><time>2026-05-02T09:29:12.662Z</time></trkpt><trkpt lat="41.1227467" lon="9.3513533"><ele>125.0</ele><time>2026-05-02T09:29:13.662Z</time></trkpt><trkpt lat="41.1228517" lon="9.3511517"><ele>125.0</ele><time>2026-05-02T09:29:14.662Z</time></trkpt><trkpt lat="41.12296" lon="9.3509567"><ele>125.0</ele><time>2026-05-02T09:29:15.662Z</time></trkpt><trkpt lat="41.123065" lon="9.35077"><ele>125.0</ele><time>2026-05-02T09:29:16.662Z</time></trkpt><trkpt lat="41.1231667" lon="9.3505817"><ele>125.0</ele><time>2026-05-02T09:29:17.662Z</time></trkpt><trkpt lat="41.1232667" lon="9.3503933"><ele>125.0</ele><time>2026-05-02T09:29:18.662Z</time></trkpt><trkpt lat="41.123365" lon="9.35021"><ele>124.0</ele><time>2026-05-02T09:29:19.662Z</time></trkpt><trkpt lat="41.12346" lon="9.3500267"><ele>123.0</ele><time>2026-05-02T09:29:20.662Z</time></trkpt><trkpt lat="41.1235567" lon="9.3498533"><ele>122.0</ele><time>2026-05-02T09:29:21.662Z</time></trkpt><trkpt lat="41.1236517" lon="9.349685"><ele>122.0</ele><time>2026-05-02T09:29:22.662Z</time></trkpt><trkpt lat="41.1237467" lon="9.349515"><ele>122.0</ele><time>2026-05-02T09:29:23.662Z</time></trkpt><trkpt lat="41.1238383" lon="9.34934"><ele>122.0</ele><time>2026-05-02T09:29:24.662Z</time></trkpt><trkpt lat="41.1239267" lon="9.3491483"><ele>122.0</ele><time>2026-05-02T09:29:25.662Z</time></trkpt><trkpt lat="41.1240067" lon="9.34896"><ele>122.0</ele><time>2026-05-02T09:29:26.662Z</time></trkpt><trkpt lat="41.1240817" lon="9.3487633"><ele>122.0</ele><time>2026-05-02T09:29:27.663Z</time></trkpt><trkpt lat="41.1241483" lon="9.3485733"><ele>122.0</ele><time>2026-05-02T09:29:28.662Z</time></trkpt><trkpt lat="41.1242183" lon="9.3483833"><ele>122.0</ele><time>2026-05-02T09:29:29.662Z</time></trkpt><trkpt lat="41.1242883" lon="9.3481917"><ele>122.0</ele><time>2026-05-02T09:29:30.662Z</time></trkpt><trkpt lat="41.1243567" lon="9.348005"><ele>122.66666666666666</ele><time>2026-05-02T09:29:31.662Z</time></trkpt><trkpt lat="41.1244217" lon="9.3478217"><ele>123.33333333333334</ele><time>2026-05-02T09:29:32.662Z</time></trkpt><trkpt lat="41.124485" lon="9.347645"><ele>124.0</ele><time>2026-05-02T09:29:33.662Z</time></trkpt><trkpt lat="41.124555" lon="9.3474633"><ele>124.0</ele><time>2026-05-02T09:29:34.662Z</time></trkpt><trkpt lat="41.12463" lon="9.3472817"><ele>124.0</ele><time>2026-05-02T09:29:35.662Z</time></trkpt><trkpt lat="41.1247017" lon="9.347095"><ele>124.0</ele><time>2026-05-02T09:29:36.662Z</time></trkpt><trkpt lat="41.1247717" lon="9.3469067"><ele>125.66666666666667</ele><time>2026-05-02T09:29:37.662Z</time></trkpt><trkpt lat="41.1248533" lon="9.34672"><ele>127.33333333333334</ele><time>2026-05-02T09:29:38.662Z</time></trkpt><trkpt lat="41.1249483" lon="9.3465367"><ele>129.0</ele><time>2026-05-02T09:29:39.662Z</time></trkpt><trkpt lat="41.1250467" lon="9.3463533"><ele>130.66666666666666</ele><time>2026-05-02T09:29:40.662Z</time></trkpt><trkpt lat="41.1251433" lon="9.346175"><ele>132.33333333333331</ele><time>2026-05-02T09:29:41.662Z</time></trkpt><trkpt lat="41.1252383" lon="9.3460017"><ele>134.0</ele><time>2026-05-02T09:29:42.662Z</time></trkpt><trkpt lat="41.1253267" lon="9.345815"><ele>134.0</ele><time>2026-05-02T09:29:43.662Z</time></trkpt><trkpt lat="41.1254083" lon="9.345645"><ele>134.0</ele><time>2026-05-02T09:29:44.662Z</time></trkpt><trkpt lat="41.1254983" lon="9.3454567"><ele>134.0</ele><time>2026-05-02T09:29:45.662Z</time></trkpt><trkpt lat="41.1255783" lon="9.3452717"><ele>136.25</ele><time>2026-05-02T09:29:46.662Z</time></trkpt><trkpt lat="41.1256567" lon="9.3451233"><ele>138.5</ele><time>2026-05-02T09:29:47.662Z</time></trkpt><trkpt lat="41.12572" lon="9.3449567"><ele>140.75</ele><time>2026-05-02T09:29:48.662Z</time></trkpt><trkpt lat="41.1257433" lon="9.3448"><ele>143.0</ele><time>2026-05-02T09:29:49.662Z</time></trkpt><trkpt lat="41.1257517" lon="9.3446183"><ele>146.33333333333331</ele><time>2026-05-02T09:29:50.662Z</time></trkpt><trkpt lat="41.12571" lon="9.3444333"><ele>149.66666666666666</ele><time>2026-05-02T09:29:51.662Z</time></trkpt><trkpt lat="41.1256967" lon="9.3442217"><ele>153.0</ele><time>2026-05-02T09:29:52.662Z</time></trkpt><trkpt lat="41.125705" lon="9.34403"><ele>153.75</ele><time>2026-05-02T09:29:53.662Z</time></trkpt><trkpt lat="41.125725" lon="9.3438383"><ele>154.5</ele><time>2026-05-02T09:29:54.662Z</time></trkpt><trkpt lat="41.125735" lon="9.3436917"><ele>155.25</ele><time>2026-05-02T09:29:55.662Z</time></trkpt><trkpt lat="41.1257567" lon="9.3435117"><ele>156.0</ele><time>2026-05-02T09:29:56.662Z</time></trkpt><trkpt lat="41.1257717" lon="9.3433283"><ele>156.0</ele><time>2026-05-02T09:29:57.662Z</time></trkpt><trkpt lat="41.12575" lon="9.3431367"><ele>156.0</ele><time>2026-05-02T09:29:58.662Z</time></trkpt><trkpt lat="41.1256967" lon="9.342955"><ele>156.0</ele><time>2026-05-02T09:29:59.662Z</time></trkpt><trkpt lat="41.12565" lon="9.3427633"><ele>156.0</ele><time>2026-05-02T09:30:00.662Z</time></trkpt><trkpt lat="41.1256167" lon="9.3425433"><ele>156.0</ele><time>2026-05-02T09:30:01.662Z</time></trkpt><trkpt lat="41.1255833" lon="9.3423117"><ele>156.0</ele><time>2026-05-02T09:30:02.662Z</time></trkpt><trkpt lat="41.1255517" lon="9.3421183"><ele>156.0</ele><time>2026-05-02T09:30:03.662Z</time></trkpt><trkpt lat="41.1255233" lon="9.341925"><ele>156.66666666666666</ele><time>2026-05-02T09:30:04.662Z</time></trkpt><trkpt lat="41.1255017" lon="9.3417017"><ele>157.33333333333331</ele><time>2026-05-02T09:30:05.662Z</time></trkpt><trkpt lat="41.1254867" lon="9.3414833"><ele>158.0</ele><time>2026-05-02T09:30:06.662Z</time></trkpt><trkpt lat="41.1254833" lon="9.34127"><ele>158.66666666666666</ele><time>2026-05-02T09:30:07.662Z</time></trkpt><trkpt lat="41.125485" lon="9.3410483"><ele>159.33333333333334</ele><time>2026-05-02T09:30:08.662Z</time></trkpt><trkpt lat="41.1254917" lon="9.3408317"><ele>160.0</ele><time>2026-05-02T09:30:09.662Z</time></trkpt><trkpt lat="41.1255017" lon="9.3406133"><ele>161.33333333333334</ele><time>2026-05-02T09:30:10.662Z</time></trkpt><trkpt lat="41.12552" lon="9.3403967"><ele>162.66666666666666</ele><time>2026-05-02T09:30:11.662Z</time></trkpt><trkpt lat="41.1255567" lon="9.3401767"><ele>164.0</ele><time>2026-05-02T09:30:12.662Z</time></trkpt><trkpt lat="41.1255917" lon="9.33998"><ele>164.0</ele><time>2026-05-02T09:30:13.662Z</time></trkpt><trkpt lat="41.1256317" lon="9.33978"><ele>164.0</ele><time>2026-05-02T09:30:14.662Z</time></trkpt><trkpt lat="41.125675" lon="9.3395683"><ele>164.0</ele><time>2026-05-02T09:30:15.662Z</time></trkpt><trkpt lat="41.1257167" lon="9.3393667"><ele>166.0</ele><time>2026-05-02T09:30:16.662Z</time></trkpt><trkpt lat="41.12576" lon="9.339175"><ele>168.0</ele><time>2026-05-02T09:30:17.662Z</time></trkpt><trkpt lat="41.1258033" lon="9.338965"><ele>170.0</ele><time>2026-05-02T09:30:18.662Z</time></trkpt><trkpt lat="41.12585" lon="9.3387683"><ele>171.0</ele><time>2026-05-02T09:30:19.662Z</time></trkpt><trkpt lat="41.1258883" lon="9.3385717"><ele>172.0</ele><time>2026-05-02T09:30:20.662Z</time></trkpt><trkpt lat="41.1259167" lon="9.33838"><ele>173.0</ele><time>2026-05-02T09:30:21.662Z</time></trkpt><trkpt lat="41.1259433" lon="9.338185"><ele>174.0</ele><time>2026-05-02T09:30:22.662Z</time></trkpt><trkpt lat="41.12595" lon="9.3380117"><ele>174.6</ele><time>2026-05-02T09:30:23.662Z</time></trkpt><trkpt lat="41.1259567" lon="9.3378217"><ele>175.2</ele><time>2026-05-02T09:30:24.662Z</time></trkpt><trkpt lat="41.125935" lon="9.3376817"><ele>175.79999999999998</ele><time>2026-05-02T09:30:25.662Z</time></trkpt><trkpt lat="41.12592" lon="9.33756"><ele>176.39999999999998</ele><time>2026-05-02T09:30:26.662Z</time></trkpt><trkpt lat="41.12589" lon="9.33744"><ele>177.0</ele><time>2026-05-02T09:30:27.662Z</time></trkpt><trkpt lat="41.1258583" lon="9.3373117"><ele>177.2</ele><time>2026-05-02T09:30:28.662Z</time></trkpt><trkpt lat="41.1258267" lon="9.3371717"><ele>177.39999999999998</ele><time>2026-05-02T09:30:29.662Z</time></trkpt><trkpt lat="41.1257983" lon="9.3370317"><ele>177.60000000000002</ele><time>2026-05-02T09:30:30.662Z</time></trkpt><trkpt lat="41.125775" lon="9.3368883"><ele>177.8</ele><time>2026-05-02T09:30:31.662Z</time></trkpt><trkpt lat="41.125755" lon="9.33674"><ele>178.0</ele><time>2026-05-02T09:30:32.662Z</time></trkpt><trkpt lat="41.12574" lon="9.3365867"><ele>177.0</ele><time>2026-05-02T09:30:33.662Z</time></trkpt><trkpt lat="41.1257283" lon="9.336425"><ele>176.0</ele><time>2026-05-02T09:30:34.662Z</time></trkpt><trkpt lat="41.12572" lon="9.3362583"><ele>175.0</ele><time>2026-05-02T09:30:35.662Z</time></trkpt><trkpt lat="41.1257083" lon="9.3360933"><ele>174.0</ele><time>2026-05-02T09:30:36.662Z</time></trkpt><trkpt lat="41.1257083" lon="9.33594"><ele>174.0</ele><time>2026-05-02T09:30:37.662Z</time></trkpt><trkpt lat="41.125705" lon="9.335795"><ele>174.0</ele><time>2026-05-02T09:30:38.662Z</time></trkpt><trkpt lat="41.12571" lon="9.33564"><ele>174.0</ele><time>2026-05-02T09:30:39.662Z</time></trkpt><trkpt lat="41.1256917" lon="9.3354867"><ele>174.0</ele><time>2026-05-02T09:30:40.662Z</time></trkpt><trkpt lat="41.1256617" lon="9.3353333"><ele>172.75</ele><time>2026-05-02T09:30:41.662Z</time></trkpt><trkpt lat="41.1256133" lon="9.33519"><ele>171.5</ele><time>2026-05-02T09:30:42.662Z</time></trkpt><trkpt lat="41.1255533" lon="9.3350467"><ele>170.25</ele><time>2026-05-02T09:30:43.662Z</time></trkpt><trkpt lat="41.1254933" lon="9.3348983"><ele>169.0</ele><time>2026-05-02T09:30:44.662Z</time></trkpt><trkpt lat="41.125435" lon="9.3347633"><ele>167.33333333333334</ele><time>2026-05-02T09:30:45.662Z</time></trkpt><trkpt lat="41.1253517" lon="9.3346167"><ele>165.66666666666666</ele><time>2026-05-02T09:30:46.662Z</time></trkpt><trkpt lat="41.1252433" lon="9.334475"><ele>164.0</ele><time>2026-05-02T09:30:47.662Z</time></trkpt><trkpt lat="41.125125" lon="9.33432"><ele>164.0</ele><time>2026-05-02T09:30:48.662Z</time></trkpt><trkpt lat="41.12502" lon="9.3341567"><ele>164.0</ele><time>2026-05-02T09:30:49.662Z</time></trkpt><trkpt lat="41.1249283" lon="9.3340133"><ele>164.0</ele><time>2026-05-02T09:30:50.662Z</time></trkpt><trkpt lat="41.124835" lon="9.3338517"><ele>161.0</ele><time>2026-05-02T09:30:51.662Z</time></trkpt><trkpt lat="41.1247383" lon="9.3336883"><ele>158.0</ele><time>2026-05-02T09:30:52.662Z</time></trkpt><trkpt lat="41.1246267" lon="9.3335333"><ele>155.0</ele><time>2026-05-02T09:30:53.662Z</time></trkpt><trkpt lat="41.124515" lon="9.333385"><ele>155.0</ele><time>2026-05-02T09:30:54.662Z</time></trkpt><trkpt lat="41.1244017" lon="9.333225"><ele>155.0</ele><time>2026-05-02T09:30:55.662Z</time></trkpt><trkpt lat="41.1242967" lon="9.3330617"><ele>155.0</ele><time>2026-05-02T09:30:56.663Z</time></trkpt><trkpt lat="41.1242067" lon="9.3328967"><ele>154.66666666666666</ele><time>2026-05-02T09:30:57.661Z</time></trkpt><trkpt lat="41.124125" lon="9.3327283"><ele>154.33333333333334</ele><time>2026-05-02T09:30:58.662Z</time></trkpt><trkpt lat="41.1240533" lon="9.3325467"><ele>154.0</ele><time>2026-05-02T09:30:59.662Z</time></trkpt><trkpt lat="41.12398" lon="9.3323633"><ele>152.66666666666669</ele><time>2026-05-02T09:31:00.662Z</time></trkpt><trkpt lat="41.1239017" lon="9.3321833"><ele>151.33333333333334</ele><time>2026-05-02T09:31:01.662Z</time></trkpt><trkpt lat="41.1238217" lon="9.3319883"><ele>150.0</ele><time>2026-05-02T09:31:02.662Z</time></trkpt><trkpt lat="41.1237367" lon="9.331815"><ele>150.0</ele><time>2026-05-02T09:31:03.662Z</time></trkpt><trkpt lat="41.1236417" lon="9.3316533"><ele>150.0</ele><time>2026-05-02T09:31:04.662Z</time></trkpt><trkpt lat="41.1235517" lon="9.3314833"><ele>150.0</ele><time>2026-05-02T09:31:05.662Z</time></trkpt><trkpt lat="41.123475" lon="9.3313183"><ele>149.33333333333334</ele><time>2026-05-02T09:31:06.662Z</time></trkpt><trkpt lat="41.1234017" lon="9.3311467"><ele>148.66666666666669</ele><time>2026-05-02T09:31:07.662Z</time></trkpt><trkpt lat="41.123325" lon="9.3309467"><ele>148.0</ele><time>2026-05-02T09:31:08.662Z</time></trkpt><trkpt lat="41.1232583" lon="9.33076"><ele>148.5</ele><time>2026-05-02T09:31:09.662Z</time></trkpt><trkpt lat="41.1231967" lon="9.3305883"><ele>149.0</ele><time>2026-05-02T09:31:10.662Z</time></trkpt><trkpt lat="41.1231317" lon="9.33044"><ele>149.5</ele><time>2026-05-02T09:31:11.662Z</time></trkpt><trkpt lat="41.1230783" lon="9.3302933"><ele>150.0</ele><time>2026-05-02T09:31:12.662Z</time></trkpt><trkpt lat="41.1230133" lon="9.3301567"><ele>148.8</ele><time>2026-05-02T09:31:13.662Z</time></trkpt><trkpt lat="41.122955" lon="9.33005"><ele>147.6</ele><time>2026-05-02T09:31:14.662Z</time></trkpt><trkpt lat="41.1228833" lon="9.3299567"><ele>146.4</ele><time>2026-05-02T09:31:15.662Z</time></trkpt><trkpt lat="41.1228033" lon="9.3298817"><ele>145.2</ele><time>2026-05-02T09:31:16.662Z</time></trkpt><trkpt lat="41.122715" lon="9.32982"><ele>144.0</ele><time>2026-05-02T09:31:17.662Z</time></trkpt><trkpt lat="41.1226067" lon="9.329775"><ele>144.0</ele><time>2026-05-02T09:31:18.662Z</time></trkpt><trkpt lat="41.12248" lon="9.32975"><ele>144.0</ele><time>2026-05-02T09:31:19.662Z</time></trkpt><trkpt lat="41.12234" lon="9.3297367"><ele>144.0</ele><time>2026-05-02T09:31:20.662Z</time></trkpt><trkpt lat="41.1221867" lon="9.3297317"><ele>144.0</ele><time>2026-05-02T09:31:21.662Z</time></trkpt><trkpt lat="41.122015" lon="9.32972"><ele>140.66666666666666</ele><time>2026-05-02T09:31:22.662Z</time></trkpt><trkpt lat="41.1218583" lon="9.3297133"><ele>137.33333333333331</ele><time>2026-05-02T09:31:23.662Z</time></trkpt><trkpt lat="41.12169" lon="9.3297033"><ele>134.0</ele><time>2026-05-02T09:31:24.663Z</time></trkpt><trkpt lat="41.1215333" lon="9.3296733"><ele>131.0</ele><time>2026-05-02T09:31:25.662Z</time></trkpt><trkpt lat="41.12137" lon="9.3296533"><ele>128.0</ele><time>2026-05-02T09:31:26.662Z</time></trkpt><trkpt lat="41.121195" lon="9.3296167"><ele>125.0</ele><time>2026-05-02T09:31:27.661Z</time></trkpt><trkpt lat="41.121035" lon="9.329585"><ele>125.0</ele><time>2026-05-02T09:31:28.661Z</time></trkpt><trkpt lat="41.1208767" lon="9.3295517"><ele>125.0</ele><time>2026-05-02T09:31:29.661Z</time></trkpt><trkpt lat="41.120735" lon="9.329525"><ele>125.0</ele><time>2026-05-02T09:31:30.661Z</time></trkpt><trkpt lat="41.1205867" lon="9.3294867"><ele>122.25</ele><time>2026-05-02T09:31:31.661Z</time></trkpt><trkpt lat="41.1204433" lon="9.3294267"><ele>119.5</ele><time>2026-05-02T09:31:32.661Z</time></trkpt><trkpt lat="41.1203033" lon="9.3293767"><ele>116.75</ele><time>2026-05-02T09:31:33.661Z</time></trkpt><trkpt lat="41.120155" lon="9.3293267"><ele>114.0</ele><time>2026-05-02T09:31:34.661Z</time></trkpt><trkpt lat="41.12" lon="9.3292583"><ele>111.33333333333334</ele><time>2026-05-02T09:31:35.661Z</time></trkpt><trkpt lat="41.1198283" lon="9.3291917"><ele>108.66666666666667</ele><time>2026-05-02T09:31:36.661Z</time></trkpt><trkpt lat="41.1196567" lon="9.329135"><ele>106.0</ele><time>2026-05-02T09:31:37.661Z</time></trkpt><trkpt lat="41.1194867" lon="9.3290717"><ele>106.0</ele><time>2026-05-02T09:31:38.661Z</time></trkpt><trkpt lat="41.1193167" lon="9.32901"><ele>106.0</ele><time>2026-05-02T09:31:39.661Z</time></trkpt><trkpt lat="41.1191383" lon="9.3289783"><ele>106.0</ele><time>2026-05-02T09:31:40.661Z</time></trkpt><trkpt lat="41.118975" lon="9.32894"><ele>106.66666666666667</ele><time>2026-05-02T09:31:41.661Z</time></trkpt><trkpt lat="41.1188083" lon="9.32887"><ele>107.33333333333334</ele><time>2026-05-02T09:31:42.661Z</time></trkpt><trkpt lat="41.118655" lon="9.3288033"><ele>108.0</ele><time>2026-05-02T09:31:43.661Z</time></trkpt><trkpt lat="41.1184883" lon="9.32876"><ele>108.0</ele><time>2026-05-02T09:31:44.661Z</time></trkpt><trkpt lat="41.1183267" lon="9.3287067"><ele>108.0</ele><time>2026-05-02T09:31:45.661Z</time></trkpt><trkpt lat="41.1181767" lon="9.328655"><ele>108.0</ele><time>2026-05-02T09:31:46.661Z</time></trkpt><trkpt lat="41.1180267" lon="9.32863"><ele>105.0</ele><time>2026-05-02T09:31:47.661Z</time></trkpt><trkpt lat="41.117865" lon="9.3285783"><ele>102.0</ele><time>2026-05-02T09:31:48.661Z</time></trkpt><trkpt lat="41.1176867" lon="9.3285067"><ele>99.0</ele><time>2026-05-02T09:31:49.661Z</time></trkpt><trkpt lat="41.11751" lon="9.3284283"><ele>96.33333333333333</ele><time>2026-05-02T09:31:50.661Z</time></trkpt><trkpt lat="41.1173317" lon="9.32835"><ele>93.66666666666666</ele><time>2026-05-02T09:31:51.661Z</time></trkpt><trkpt lat="41.1171567" lon="9.328255"><ele>91.0</ele><time>2026-05-02T09:31:52.661Z</time></trkpt><trkpt lat="41.1169783" lon="9.328165"><ele>91.0</ele><time>2026-05-02T09:31:53.661Z</time></trkpt><trkpt lat="41.1168033" lon="9.328065"><ele>91.0</ele><time>2026-05-02T09:31:54.661Z</time></trkpt><trkpt lat="41.1166333" lon="9.32799"><ele>91.0</ele><time>2026-05-02T09:31:55.661Z</time></trkpt><trkpt lat="41.1164583" lon="9.327915"><ele>91.66666666666666</ele><time>2026-05-02T09:31:56.661Z</time></trkpt><trkpt lat="41.11629" lon="9.3278283"><ele>92.33333333333333</ele><time>2026-05-02T09:31:57.661Z</time></trkpt><trkpt lat="41.11612" lon="9.327735"><ele>93.0</ele><time>2026-05-02T09:31:58.661Z</time></trkpt><trkpt lat="41.11595" lon="9.3276517"><ele>93.0</ele><time>2026-05-02T09:31:59.661Z</time></trkpt><trkpt lat="41.1157817" lon="9.327565"><ele>93.0</ele><time>2026-05-02T09:32:00.661Z</time></trkpt><trkpt lat="41.115615" lon="9.3274933"><ele>93.0</ele><time>2026-05-02T09:32:01.661Z</time></trkpt><trkpt lat="41.115445" lon="9.3274183"><ele>91.66666666666667</ele><time>2026-05-02T09:32:02.661Z</time></trkpt><trkpt lat="41.1152883" lon="9.32734"><ele>90.33333333333334</ele><time>2026-05-02T09:32:03.661Z</time></trkpt><trkpt lat="41.1151483" lon="9.3272733"><ele>89.0</ele><time>2026-05-02T09:32:04.661Z</time></trkpt><trkpt lat="41.11501" lon="9.3272"><ele>86.5</ele><time>2026-05-02T09:32:05.661Z</time></trkpt><trkpt lat="41.11489" lon="9.3271117"><ele>84.0</ele><time>2026-05-02T09:32:06.661Z</time></trkpt><trkpt lat="41.1147717" lon="9.3270017"><ele>81.5</ele><time>2026-05-02T09:32:07.661Z</time></trkpt><trkpt lat="41.11466" lon="9.3268833"><ele>79.0</ele><time>2026-05-02T09:32:08.661Z</time></trkpt><trkpt lat="41.1145767" lon="9.3267783"><ele>79.0</ele><time>2026-05-02T09:32:09.661Z</time></trkpt><trkpt lat="41.114505" lon="9.3266267"><ele>79.0</ele><time>2026-05-02T09:32:10.661Z</time></trkpt><trkpt lat="41.1144317" lon="9.3264517"><ele>79.0</ele><time>2026-05-02T09:32:11.661Z</time></trkpt><trkpt lat="41.1143583" lon="9.326235"><ele>78.33333333333333</ele><time>2026-05-02T09:32:12.661Z</time></trkpt><trkpt lat="41.11428" lon="9.3260183"><ele>77.66666666666667</ele><time>2026-05-02T09:32:13.661Z</time></trkpt><trkpt lat="41.1142067" lon="9.3258133"><ele>77.0</ele><time>2026-05-02T09:32:14.661Z</time></trkpt><trkpt lat="41.1141333" lon="9.32562"><ele>75.66666666666667</ele><time>2026-05-02T09:32:15.661Z</time></trkpt><trkpt lat="41.1140433" lon="9.32544"><ele>74.33333333333333</ele><time>2026-05-02T09:32:16.661Z</time></trkpt><trkpt lat="41.1139283" lon="9.3252183"><ele>73.0</ele><time>2026-05-02T09:32:17.661Z</time></trkpt><trkpt lat="41.11383" lon="9.32496"><ele>73.0</ele><time>2026-05-02T09:32:18.661Z</time></trkpt><trkpt lat="41.113725" lon="9.3247667"><ele>73.0</ele><time>2026-05-02T09:32:19.661Z</time></trkpt><trkpt lat="41.1136317" lon="9.3245717"><ele>73.0</ele><time>2026-05-02T09:32:20.661Z</time></trkpt><trkpt lat="41.11354" lon="9.32438"><ele>73.66666666666666</ele><time>2026-05-02T09:32:21.661Z</time></trkpt><trkpt lat="41.1134533" lon="9.3242017"><ele>74.33333333333333</ele><time>2026-05-02T09:32:22.661Z</time></trkpt><trkpt lat="41.1133683" lon="9.3240233"><ele>75.0</ele><time>2026-05-02T09:32:23.661Z</time></trkpt><trkpt lat="41.1132883" lon="9.323845"><ele>73.66666666666667</ele><time>2026-05-02T09:32:24.661Z</time></trkpt><trkpt lat="41.1132017" lon="9.3236783"><ele>72.33333333333334</ele><time>2026-05-02T09:32:25.661Z</time></trkpt><trkpt lat="41.1131117" lon="9.323495"><ele>71.0</ele><time>2026-05-02T09:32:26.661Z</time></trkpt><trkpt lat="41.11302" lon="9.3233317"><ele>71.0</ele><time>2026-05-02T09:32:27.661Z</time></trkpt><trkpt lat="41.112935" lon="9.3231767"><ele>71.0</ele><time>2026-05-02T09:32:28.661Z</time></trkpt><trkpt lat="41.1128533" lon="9.3230367"><ele>71.0</ele><time>2026-05-02T09:32:29.661Z</time></trkpt><trkpt lat="41.11275" lon="9.32294"><ele>71.0</ele><time>2026-05-02T09:32:30.661Z</time></trkpt><trkpt lat="41.112605" lon="9.3228583"><ele>71.33333333333334</ele><time>2026-05-02T09:32:31.661Z</time></trkpt><trkpt lat="41.112425" lon="9.32284"><ele>71.66666666666667</ele><time>2026-05-02T09:32:32.661Z</time></trkpt><trkpt lat="41.11224" lon="9.3228117"><ele>72.0</ele><time>2026-05-02T09:32:33.661Z</time></trkpt><trkpt lat="41.1120733" lon="9.3227767"><ele>72.0</ele><time>2026-05-02T09:32:34.661Z</time></trkpt><trkpt lat="41.1119117" lon="9.3227217"><ele>72.0</ele><time>2026-05-02T09:32:35.661Z</time></trkpt><trkpt lat="41.1117317" lon="9.32268"><ele>72.0</ele><time>2026-05-02T09:32:36.661Z</time></trkpt><trkpt lat="41.1115633" lon="9.3226367"><ele>69.0</ele><time>2026-05-02T09:32:37.661Z</time></trkpt><trkpt lat="41.111405" lon="9.3225967"><ele>66.0</ele><time>2026-05-02T09:32:38.661Z</time></trkpt><trkpt lat="41.11126" lon="9.3225533"><ele>63.0</ele><time>2026-05-02T09:32:39.661Z</time></trkpt><trkpt lat="41.1111267" lon="9.32248"><ele>63.0</ele><time>2026-05-02T09:32:40.661Z</time></trkpt><trkpt lat="41.1110033" lon="9.3224"><ele>63.0</ele><time>2026-05-02T09:32:41.661Z</time></trkpt><trkpt lat="41.1108917" lon="9.3222883"><ele>63.0</ele><time>2026-05-02T09:32:42.661Z</time></trkpt><trkpt lat="41.1107833" lon="9.3221467"><ele>63.0</ele><time>2026-05-02T09:32:43.661Z</time></trkpt><trkpt lat="41.110655" lon="9.321995"><ele>63.0</ele><time>2026-05-02T09:32:44.661Z</time></trkpt><trkpt lat="41.1105267" lon="9.3217933"><ele>63.0</ele><time>2026-05-02T09:32:45.661Z</time></trkpt><trkpt lat="41.1104017" lon="9.3215483"><ele>63.0</ele><time>2026-05-02T09:32:46.661Z</time></trkpt><trkpt lat="41.1102783" lon="9.321325"><ele>62.0</ele><time>2026-05-02T09:32:47.662Z</time></trkpt><trkpt lat="41.1101633" lon="9.3211183"><ele>61.0</ele><time>2026-05-02T09:32:48.661Z</time></trkpt><trkpt lat="41.1100467" lon="9.3209217"><ele>60.0</ele><time>2026-05-02T09:32:49.661Z</time></trkpt><trkpt lat="41.10993" lon="9.3207333"><ele>59.33333333333333</ele><time>2026-05-02T09:32:50.661Z</time></trkpt><trkpt lat="41.109815" lon="9.3205433"><ele>58.666666666666664</ele><time>2026-05-02T09:32:51.662Z</time></trkpt><trkpt lat="41.1096817" lon="9.3203567"><ele>58.0</ele><time>2026-05-02T09:32:52.661Z</time></trkpt><trkpt lat="41.1095417" lon="9.3201967"><ele>58.0</ele><time>2026-05-02T09:32:53.661Z</time></trkpt><trkpt lat="41.1094083" lon="9.3200467"><ele>58.0</ele><time>2026-05-02T09:32:54.662Z</time></trkpt><trkpt lat="41.1092783" lon="9.3199"><ele>58.0</ele><time>2026-05-02T09:32:55.661Z</time></trkpt><trkpt lat="41.109155" lon="9.3197433"><ele>58.0</ele><time>2026-05-02T09:32:56.661Z</time></trkpt><trkpt lat="41.10904" lon="9.319565"><ele>58.0</ele><time>2026-05-02T09:32:57.661Z</time></trkpt><trkpt lat="41.1089217" lon="9.3193767"><ele>58.0</ele><time>2026-05-02T09:32:58.661Z</time></trkpt><trkpt lat="41.1088083" lon="9.31917"><ele>58.0</ele><time>2026-05-02T09:32:59.661Z</time></trkpt><trkpt lat="41.1086967" lon="9.3189633"><ele>58.0</ele><time>2026-05-02T09:33:00.661Z</time></trkpt><trkpt lat="41.1085733" lon="9.3187567"><ele>58.0</ele><time>2026-05-02T09:33:01.661Z</time></trkpt><trkpt lat="41.1084517" lon="9.3185633"><ele>58.0</ele><time>2026-05-02T09:33:02.661Z</time></trkpt><trkpt lat="41.10834" lon="9.31838"><ele>58.0</ele><time>2026-05-02T09:33:03.661Z</time></trkpt><trkpt lat="41.1082233" lon="9.3181833"><ele>58.0</ele><time>2026-05-02T09:33:04.661Z</time></trkpt><trkpt lat="41.1081067" lon="9.3179917"><ele>57.666666666666664</ele><time>2026-05-02T09:33:05.661Z</time></trkpt><trkpt lat="41.1080067" lon="9.3178283"><ele>57.33333333333333</ele><time>2026-05-02T09:33:06.661Z</time></trkpt><trkpt lat="41.1079117" lon="9.3176667"><ele>57.0</ele><time>2026-05-02T09:33:07.661Z</time></trkpt><trkpt lat="41.10781" lon="9.3175017"><ele>57.0</ele><time>2026-05-02T09:33:08.661Z</time></trkpt><trkpt lat="41.1077117" lon="9.3173417"><ele>57.0</ele><time>2026-05-02T09:33:09.661Z</time></trkpt><trkpt lat="41.1076217" lon="9.3171783"><ele>57.0</ele><time>2026-05-02T09:33:10.661Z</time></trkpt><trkpt lat="41.1075083" lon="9.3170583"><ele>56.25</ele><time>2026-05-02T09:33:11.661Z</time></trkpt><trkpt lat="41.1073967" lon="9.3169617"><ele>55.5</ele><time>2026-05-02T09:33:12.661Z</time></trkpt><trkpt lat="41.1072567" lon="9.3168917"><ele>54.75</ele><time>2026-05-02T09:33:13.661Z</time></trkpt><trkpt lat="41.1070967" lon="9.3168733"><ele>54.0</ele><time>2026-05-02T09:33:14.661Z</time></trkpt><trkpt lat="41.1069217" lon="9.3168683"><ele>54.0</ele><time>2026-05-02T09:33:15.661Z</time></trkpt><trkpt lat="41.1067333" lon="9.31687"><ele>54.0</ele><time>2026-05-02T09:33:16.661Z</time></trkpt><trkpt lat="41.1065417" lon="9.316855"><ele>54.0</ele><time>2026-05-02T09:33:17.661Z</time></trkpt><trkpt lat="41.1063417" lon="9.31685"><ele>54.0</ele><time>2026-05-02T09:33:18.661Z</time></trkpt><trkpt lat="41.10616" lon="9.316845"><ele>54.0</ele><time>2026-05-02T09:33:19.661Z</time></trkpt><trkpt lat="41.1059767" lon="9.3168617"><ele>54.0</ele><time>2026-05-02T09:33:20.661Z</time></trkpt><trkpt lat="41.1058317" lon="9.3168817"><ele>53.5</ele><time>2026-05-02T09:33:21.662Z</time></trkpt><trkpt lat="41.1056983" lon="9.31691"><ele>53.0</ele><time>2026-05-02T09:33:22.661Z</time></trkpt><trkpt lat="41.1055733" lon="9.31694"><ele>52.5</ele><time>2026-05-02T09:33:23.661Z</time></trkpt><trkpt lat="41.1054517" lon="9.3169667"><ele>52.0</ele><time>2026-05-02T09:33:24.661Z</time></trkpt><trkpt lat="41.1053433" lon="9.3169567"><ele>52.0</ele><time>2026-05-02T09:33:25.661Z</time></trkpt><trkpt lat="41.105235" lon="9.31695"><ele>52.0</ele><time>2026-05-02T09:33:26.661Z</time></trkpt><trkpt lat="41.1051483" lon="9.3169017"><ele>52.0</ele><time>2026-05-02T09:33:27.661Z</time></trkpt><trkpt lat="41.105085" lon="9.3168033"><ele>52.0</ele><time>2026-05-02T09:33:28.661Z</time></trkpt><trkpt lat="41.105025" lon="9.316665"><ele>52.0</ele><time>2026-05-02T09:33:29.661Z</time></trkpt><trkpt lat="41.1049717" lon="9.31648"><ele>52.0</ele><time>2026-05-02T09:33:30.661Z</time></trkpt><trkpt lat="41.104925" lon="9.3162617"><ele>52.0</ele><time>2026-05-02T09:33:31.661Z</time></trkpt><trkpt lat="41.1048783" lon="9.3160167"><ele>52.0</ele><time>2026-05-02T09:33:32.661Z</time></trkpt><trkpt lat="41.1048483" lon="9.315755"><ele>51.33333333333333</ele><time>2026-05-02T09:33:33.661Z</time></trkpt><trkpt lat="41.1047883" lon="9.3155417"><ele>50.66666666666667</ele><time>2026-05-02T09:33:34.661Z</time></trkpt><trkpt lat="41.10471" lon="9.3153317"><ele>50.0</ele><time>2026-05-02T09:33:35.661Z</time></trkpt><trkpt lat="41.1046317" lon="9.3151083"><ele>50.0</ele><time>2026-05-02T09:33:36.661Z</time></trkpt><trkpt lat="41.1045467" lon="9.3148883"><ele>50.0</ele><time>2026-05-02T09:33:37.661Z</time></trkpt><trkpt lat="41.1044617" lon="9.3146867"><ele>50.0</ele><time>2026-05-02T09:33:38.661Z</time></trkpt><trkpt lat="41.1043883" lon="9.3145017"><ele>49.333333333333336</ele><time>2026-05-02T09:33:39.661Z</time></trkpt><trkpt lat="41.1043117" lon="9.3143083"><ele>48.66666666666667</ele><time>2026-05-02T09:33:40.661Z</time></trkpt><trkpt lat="41.1042433" lon="9.3141217"><ele>48.0</ele><time>2026-05-02T09:33:41.661Z</time></trkpt><trkpt lat="41.1041783" lon="9.313935"><ele>48.33333333333333</ele><time>2026-05-02T09:33:42.661Z</time></trkpt><trkpt lat="41.104115" lon="9.3137283"><ele>48.666666666666664</ele><time>2026-05-02T09:33:43.661Z</time></trkpt><trkpt lat="41.1040467" lon="9.313515"><ele>49.0</ele><time>2026-05-02T09:33:44.661Z</time></trkpt><trkpt lat="41.103975" lon="9.313305"><ele>47.25</ele><time>2026-05-02T09:33:45.661Z</time></trkpt><trkpt lat="41.1039133" lon="9.3131067"><ele>45.5</ele><time>2026-05-02T09:33:46.661Z</time></trkpt><trkpt lat="41.1038617" lon="9.3129233"><ele>43.75</ele><time>2026-05-02T09:33:47.661Z</time></trkpt><trkpt lat="41.103825" lon="9.3127467"><ele>42.0</ele><time>2026-05-02T09:33:48.661Z</time></trkpt><trkpt lat="41.1038167" lon="9.3125817"><ele>40.666666666666664</ele><time>2026-05-02T09:33:49.661Z</time></trkpt><trkpt lat="41.103845" lon="9.3123983"><ele>39.33333333333333</ele><time>2026-05-02T09:33:50.661Z</time></trkpt><trkpt lat="41.1038833" lon="9.3122"><ele>38.0</ele><time>2026-05-02T09:33:51.661Z</time></trkpt><trkpt lat="41.103935" lon="9.311995"><ele>38.0</ele><time>2026-05-02T09:33:52.661Z</time></trkpt><trkpt lat="41.104005" lon="9.3117767"><ele>38.0</ele><time>2026-05-02T09:33:53.661Z</time></trkpt><trkpt lat="41.10407" lon="9.31159"><ele>38.0</ele><time>2026-05-02T09:33:54.661Z</time></trkpt><trkpt lat="41.1041217" lon="9.3114267"><ele>39.0</ele><time>2026-05-02T09:33:55.661Z</time></trkpt><trkpt lat="41.104155" lon="9.311235"><ele>40.0</ele><time>2026-05-02T09:33:56.661Z</time></trkpt><trkpt lat="41.10415" lon="9.311065"><ele>41.0</ele><time>2026-05-02T09:33:57.661Z</time></trkpt><trkpt lat="41.1041233" lon="9.3109033"><ele>42.0</ele><time>2026-05-02T09:33:58.661Z</time></trkpt><trkpt lat="41.1040717" lon="9.31076"><ele>42.0</ele><time>2026-05-02T09:33:59.661Z</time></trkpt><trkpt lat="41.1040067" lon="9.3105967"><ele>42.0</ele><time>2026-05-02T09:34:00.661Z</time></trkpt><trkpt lat="41.1039217" lon="9.310385"><ele>42.0</ele><time>2026-05-02T09:34:01.661Z</time></trkpt><trkpt lat="41.1038117" lon="9.310175"><ele>42.0</ele><time>2026-05-02T09:34:02.661Z</time></trkpt><trkpt lat="41.1036917" lon="9.3099167"><ele>42.0</ele><time>2026-05-02T09:34:03.661Z</time></trkpt><trkpt lat="41.1035733" lon="9.3096733"><ele>42.0</ele><time>2026-05-02T09:34:04.661Z</time></trkpt><trkpt lat="41.1034533" lon="9.3094467"><ele>41.333333333333336</ele><time>2026-05-02T09:34:05.662Z</time></trkpt><trkpt lat="41.1033467" lon="9.30924"><ele>40.66666666666667</ele><time>2026-05-02T09:34:06.661Z</time></trkpt><trkpt lat="41.1032417" lon="9.30906"><ele>40.0</ele><time>2026-05-02T09:34:07.661Z</time></trkpt><trkpt lat="41.103155" lon="9.3088817"><ele>37.66666666666667</ele><time>2026-05-02T09:34:08.661Z</time></trkpt><trkpt lat="41.1030867" lon="9.3086967"><ele>35.333333333333336</ele><time>2026-05-02T09:34:09.661Z</time></trkpt><trkpt lat="41.1030283" lon="9.308485"><ele>33.0</ele><time>2026-05-02T09:34:10.661Z</time></trkpt><trkpt lat="41.102965" lon="9.3082733"><ele>32.666666666666664</ele><time>2026-05-02T09:34:11.661Z</time></trkpt><trkpt lat="41.1029" lon="9.3080633"><ele>32.33333333333333</ele><time>2026-05-02T09:34:12.661Z</time></trkpt><trkpt lat="41.102835" lon="9.3078683"><ele>32.0</ele><time>2026-05-02T09:34:13.661Z</time></trkpt><trkpt lat="41.10277" lon="9.3076867"><ele>32.0</ele><time>2026-05-02T09:34:14.661Z</time></trkpt><trkpt lat="41.1026983" lon="9.3075017"><ele>32.0</ele><time>2026-05-02T09:34:15.661Z</time></trkpt><trkpt lat="41.1026483" lon="9.3072967"><ele>32.0</ele><time>2026-05-02T09:34:16.661Z</time></trkpt><trkpt lat="41.10261" lon="9.30706"><ele>32.0</ele><time>2026-05-02T09:34:17.661Z</time></trkpt><trkpt lat="41.1025917" lon="9.30683"><ele>32.0</ele><time>2026-05-02T09:34:18.661Z</time></trkpt><trkpt lat="41.102565" lon="9.30663"><ele>32.0</ele><time>2026-05-02T09:34:19.661Z</time></trkpt><trkpt lat="41.1025317" lon="9.3064433"><ele>30.0</ele><time>2026-05-02T09:34:20.661Z</time></trkpt><trkpt lat="41.1024783" lon="9.3062683"><ele>28.0</ele><time>2026-05-02T09:34:21.661Z</time></trkpt><trkpt lat="41.1024233" lon="9.3060833"><ele>26.0</ele><time>2026-05-02T09:34:22.661Z</time></trkpt><trkpt lat="41.10237" lon="9.3058867"><ele>25.0</ele><time>2026-05-02T09:34:23.661Z</time></trkpt><trkpt lat="41.1023433" lon="9.3056917"><ele>24.0</ele><time>2026-05-02T09:34:24.661Z</time></trkpt><trkpt lat="41.1023267" lon="9.3055"><ele>23.0</ele><time>2026-05-02T09:34:25.661Z</time></trkpt><trkpt lat="41.102305" lon="9.3053067"><ele>22.0</ele><time>2026-05-02T09:34:26.661Z</time></trkpt><trkpt lat="41.102265" lon="9.30511"><ele>20.666666666666664</ele><time>2026-05-02T09:34:27.661Z</time></trkpt><trkpt lat="41.1022" lon="9.3049183"><ele>19.333333333333332</ele><time>2026-05-02T09:34:28.661Z</time></trkpt><trkpt lat="41.102125" lon="9.3047117"><ele>18.0</ele><time>2026-05-02T09:34:29.661Z</time></trkpt><trkpt lat="41.1020483" lon="9.304495"><ele>18.0</ele><time>2026-05-02T09:34:30.661Z</time></trkpt><trkpt lat="41.1019783" lon="9.3042767"><ele>18.0</ele><time>2026-05-02T09:34:31.661Z</time></trkpt><trkpt lat="41.1019067" lon="9.3040633"><ele>18.0</ele><time>2026-05-02T09:34:32.661Z</time></trkpt><trkpt lat="41.10185" lon="9.3038933"><ele>18.2</ele><time>2026-05-02T09:34:33.661Z</time></trkpt><trkpt lat="41.10179" lon="9.3037433"><ele>18.4</ele><time>2026-05-02T09:34:34.661Z</time></trkpt><trkpt lat="41.1017317" lon="9.30362"><ele>18.599999999999998</ele><time>2026-05-02T09:34:35.661Z</time></trkpt><trkpt lat="41.101675" lon="9.3035383"><ele>18.8</ele><time>2026-05-02T09:34:36.661Z</time></trkpt><trkpt lat="41.1016217" lon="9.30349"><ele>19.0</ele><time>2026-05-02T09:34:37.661Z</time></trkpt><trkpt lat="41.1015517" lon="9.30342"><ele>20.2</ele><time>2026-05-02T09:34:39.661Z</time></trkpt><trkpt lat="41.1014467" lon="9.3034167"><ele>21.4</ele><time>2026-05-02T09:35:01.661Z</time></trkpt><trkpt lat="41.1013783" lon="9.3033967"><ele>22.6</ele><time>2026-05-02T09:35:02.661Z</time></trkpt><trkpt lat="41.1012967" lon="9.3034"><ele>23.8</ele><time>2026-05-02T09:35:03.661Z</time></trkpt><trkpt lat="41.1012017" lon="9.3034083"><ele>25.0</ele><time>2026-05-02T09:35:04.661Z</time></trkpt><trkpt lat="41.1010933" lon="9.303405"><ele>25.0</ele><time>2026-05-02T09:35:05.662Z</time></trkpt><trkpt lat="41.1009883" lon="9.3034033"><ele>25.0</ele><time>2026-05-02T09:35:06.661Z</time></trkpt><trkpt lat="41.10085" lon="9.3034117"><ele>25.0</ele><time>2026-05-02T09:35:07.661Z</time></trkpt><trkpt lat="41.1007567" lon="9.3034033"><ele>25.0</ele><time>2026-05-02T09:35:08.661Z</time></trkpt><trkpt lat="41.1006667" lon="9.3034"><ele>25.0</ele><time>2026-05-02T09:35:09.661Z</time></trkpt><trkpt lat="41.1005783" lon="9.3034017"><ele>26.2</ele><time>2026-05-02T09:35:10.661Z</time></trkpt><trkpt lat="41.1005017" lon="9.3033967"><ele>27.4</ele><time>2026-05-02T09:35:11.661Z</time></trkpt><trkpt lat="41.10042" lon="9.3033983"><ele>28.6</ele><time>2026-05-02T09:35:12.662Z</time></trkpt><trkpt lat="41.1003283" lon="9.3033883"><ele>29.8</ele><time>2026-05-02T09:35:13.661Z</time></trkpt><trkpt lat="41.1002133" lon="9.3033733"><ele>31.0</ele><time>2026-05-02T09:35:14.662Z</time></trkpt><trkpt lat="41.1000833" lon="9.303365"><ele>31.0</ele><time>2026-05-02T09:35:15.661Z</time></trkpt><trkpt lat="41.0999217" lon="9.3033617"><ele>31.0</ele><time>2026-05-02T09:35:16.661Z</time></trkpt><trkpt lat="41.099765" lon="9.3033767"><ele>31.0</ele><time>2026-05-02T09:35:17.661Z</time></trkpt><trkpt lat="41.0996167" lon="9.3033817"><ele>33.66666666666667</ele><time>2026-05-02T09:35:18.661Z</time></trkpt><trkpt lat="41.0994517" lon="9.3033933"><ele>36.333333333333336</ele><time>2026-05-02T09:35:19.661Z</time></trkpt><trkpt lat="41.0992817" lon="9.303395"><ele>39.0</ele><time>2026-05-02T09:35:20.661Z</time></trkpt><trkpt lat="41.0991167" lon="9.3033583"><ele>40.666666666666664</ele><time>2026-05-02T09:35:21.661Z</time></trkpt><trkpt lat="41.09894" lon="9.3032933"><ele>42.33333333333333</ele><time>2026-05-02T09:35:22.661Z</time></trkpt><trkpt lat="41.0987833" lon="9.3032433"><ele>44.0</ele><time>2026-05-02T09:35:23.661Z</time></trkpt><trkpt lat="41.098625" lon="9.303205"><ele>44.0</ele><time>2026-05-02T09:35:24.661Z</time></trkpt><trkpt lat="41.0984533" lon="9.3032"><ele>44.0</ele><time>2026-05-02T09:35:25.661Z</time></trkpt><trkpt lat="41.0982817" lon="9.3031867"><ele>44.0</ele><time>2026-05-02T09:35:26.661Z</time></trkpt><trkpt lat="41.09809" lon="9.3032083"><ele>47.33333333333333</ele><time>2026-05-02T09:35:27.661Z</time></trkpt><trkpt lat="41.0979133" lon="9.3032"><ele>50.666666666666664</ele><time>2026-05-02T09:35:28.661Z</time></trkpt><trkpt lat="41.097755" lon="9.3031833"><ele>54.0</ele><time>2026-05-02T09:35:29.661Z</time></trkpt><trkpt lat="41.0976133" lon="9.30318"><ele>54.0</ele><time>2026-05-02T09:35:30.661Z</time></trkpt><trkpt lat="41.0974917" lon="9.3032067"><ele>54.0</ele><time>2026-05-02T09:35:31.661Z</time></trkpt><trkpt lat="41.0973883" lon="9.303265"><ele>54.0</ele><time>2026-05-02T09:35:32.662Z</time></trkpt><trkpt lat="41.0972983" lon="9.3033667"><ele>54.0</ele><time>2026-05-02T09:35:33.661Z</time></trkpt><trkpt lat="41.0972217" lon="9.3035133"><ele>58.0</ele><time>2026-05-02T09:35:34.661Z</time></trkpt><trkpt lat="41.0971867" lon="9.30372"><ele>62.0</ele><time>2026-05-02T09:35:35.661Z</time></trkpt><trkpt lat="41.0970417" lon="9.3039033"><ele>66.0</ele><time>2026-05-02T09:35:36.661Z</time></trkpt><trkpt lat="41.09694" lon="9.3040617"><ele>66.0</ele><time>2026-05-02T09:35:37.661Z</time></trkpt><trkpt lat="41.0968517" lon="9.3042067"><ele>66.0</ele><time>2026-05-02T09:35:38.661Z</time></trkpt><trkpt lat="41.0967567" lon="9.3043317"><ele>66.0</ele><time>2026-05-02T09:35:39.661Z</time></trkpt><trkpt lat="41.0966617" lon="9.3044033"><ele>66.0</ele><time>2026-05-02T09:35:40.661Z</time></trkpt><trkpt lat="41.09656" lon="9.3044217"><ele>68.25</ele><time>2026-05-02T09:35:41.661Z</time></trkpt><trkpt lat="41.09645" lon="9.3044167"><ele>70.5</ele><time>2026-05-02T09:35:42.661Z</time></trkpt><trkpt lat="41.0963367" lon="9.304365"><ele>72.75</ele><time>2026-05-02T09:35:43.661Z</time></trkpt><trkpt lat="41.096215" lon="9.3042933"><ele>75.0</ele><time>2026-05-02T09:35:44.661Z</time></trkpt><trkpt lat="41.0960583" lon="9.304165"><ele>75.0</ele><time>2026-05-02T09:35:45.661Z</time></trkpt><trkpt lat="41.0959" lon="9.3040617"><ele>75.0</ele><time>2026-05-02T09:35:46.661Z</time></trkpt><trkpt lat="41.0957467" lon="9.303995"><ele>75.0</ele><time>2026-05-02T09:35:47.661Z</time></trkpt><trkpt lat="41.095555" lon="9.3039033"><ele>77.0</ele><time>2026-05-02T09:35:48.661Z</time></trkpt><trkpt lat="41.0953533" lon="9.3038667"><ele>79.0</ele><time>2026-05-02T09:35:49.661Z</time></trkpt><trkpt lat="41.0952" lon="9.3038333"><ele>81.0</ele><time>2026-05-02T09:35:50.661Z</time></trkpt><trkpt lat="41.0950333" lon="9.3037733"><ele>82.0</ele><time>2026-05-02T09:35:51.661Z</time></trkpt><trkpt lat="41.0948767" lon="9.303675"><ele>83.0</ele><time>2026-05-02T09:35:52.661Z</time></trkpt><trkpt lat="41.0946983" lon="9.3035617"><ele>84.0</ele><time>2026-05-02T09:35:53.661Z</time></trkpt><trkpt lat="41.09454" lon="9.30346"><ele>84.0</ele><time>2026-05-02T09:35:54.661Z</time></trkpt><trkpt lat="41.0943783" lon="9.3033867"><ele>84.0</ele><time>2026-05-02T09:35:55.661Z</time></trkpt><trkpt lat="41.0942067" lon="9.303385"><ele>84.0</ele><time>2026-05-02T09:35:56.661Z</time></trkpt><trkpt lat="41.0940217" lon="9.3033633"><ele>86.0</ele><time>2026-05-02T09:35:57.661Z</time></trkpt><trkpt lat="41.093865" lon="9.3032617"><ele>88.0</ele><time>2026-05-02T09:35:58.661Z</time></trkpt><trkpt lat="41.0936767" lon="9.303195"><ele>90.0</ele><time>2026-05-02T09:35:59.661Z</time></trkpt><trkpt lat="41.0934917" lon="9.3031417"><ele>90.0</ele><time>2026-05-02T09:36:00.661Z</time></trkpt><trkpt lat="41.0932967" lon="9.3030933"><ele>90.0</ele><time>2026-05-02T09:36:01.661Z</time></trkpt><trkpt lat="41.0930983" lon="9.30305"><ele>90.0</ele><time>2026-05-02T09:36:02.661Z</time></trkpt><trkpt lat="41.0929083" lon="9.3030217"><ele>92.33333333333334</ele><time>2026-05-02T09:36:03.661Z</time></trkpt><trkpt lat="41.092735" lon="9.3029933"><ele>94.66666666666667</ele><time>2026-05-02T09:36:04.661Z</time></trkpt><trkpt lat="41.092555" lon="9.3029867"><ele>97.0</ele><time>2026-05-02T09:36:05.661Z</time></trkpt><trkpt lat="41.0923633" lon="9.3029767"><ele>99.33333333333334</ele><time>2026-05-02T09:36:06.661Z</time></trkpt><trkpt lat="41.0921767" lon="9.302985"><ele>101.66666666666666</ele><time>2026-05-02T09:36:07.661Z</time></trkpt><trkpt lat="41.0919983" lon="9.3029967"><ele>104.0</ele><time>2026-05-02T09:36:08.661Z</time></trkpt><trkpt lat="41.0918383" lon="9.3029933"><ele>104.0</ele><time>2026-05-02T09:36:09.661Z</time></trkpt><trkpt lat="41.0916917" lon="9.30299"><ele>104.0</ele><time>2026-05-02T09:36:10.661Z</time></trkpt><trkpt lat="41.0915567" lon="9.30297"><ele>104.0</ele><time>2026-05-02T09:36:11.662Z</time></trkpt><trkpt lat="41.0914283" lon="9.3029217"><ele>104.0</ele><time>2026-05-02T09:36:12.661Z</time></trkpt><trkpt lat="41.091305" lon="9.30285"><ele>105.4</ele><time>2026-05-02T09:36:13.661Z</time></trkpt><trkpt lat="41.0911917" lon="9.3027783"><ele>106.80000000000001</ele><time>2026-05-02T09:36:14.661Z</time></trkpt><trkpt lat="41.0911133" lon="9.3026917"><ele>108.19999999999999</ele><time>2026-05-02T09:36:15.661Z</time></trkpt><trkpt lat="41.0910633" lon="9.3025967"><ele>109.6</ele><time>2026-05-02T09:36:16.661Z</time></trkpt><trkpt lat="41.091025" lon="9.302495"><ele>111.0</ele><time>2026-05-02T09:36:17.661Z</time></trkpt><trkpt lat="41.091" lon="9.3023633"><ele>109.25</ele><time>2026-05-02T09:36:18.661Z</time></trkpt><trkpt lat="41.091" lon="9.3022133"><ele>107.5</ele><time>2026-05-02T09:36:19.661Z</time></trkpt><trkpt lat="41.09099" lon="9.30205"><ele>105.75</ele><time>2026-05-02T09:36:20.661Z</time></trkpt><trkpt lat="41.0909483" lon="9.3018933"><ele>104.0</ele><time>2026-05-02T09:36:21.662Z</time></trkpt><trkpt lat="41.0909017" lon="9.301745"><ele>104.0</ele><time>2026-05-02T09:36:22.661Z</time></trkpt><trkpt lat="41.0908383" lon="9.3015867"><ele>104.0</ele><time>2026-05-02T09:36:23.661Z</time></trkpt><trkpt lat="41.090755" lon="9.3014417"><ele>104.0</ele><time>2026-05-02T09:36:24.661Z</time></trkpt><trkpt lat="41.0906583" lon="9.30131"><ele>104.0</ele><time>2026-05-02T09:36:25.661Z</time></trkpt><trkpt lat="41.0905317" lon="9.30118"><ele>101.33333333333333</ele><time>2026-05-02T09:36:26.661Z</time></trkpt><trkpt lat="41.0904" lon="9.3010567"><ele>98.66666666666666</ele><time>2026-05-02T09:36:27.661Z</time></trkpt><trkpt lat="41.0902767" lon="9.3009383"><ele>96.0</ele><time>2026-05-02T09:36:28.661Z</time></trkpt><trkpt lat="41.0901517" lon="9.3008133"><ele>96.0</ele><time>2026-05-02T09:36:29.661Z</time></trkpt><trkpt lat="41.090045" lon="9.3006683"><ele>96.0</ele><time>2026-05-02T09:36:30.661Z</time></trkpt><trkpt lat="41.0899467" lon="9.3005517"><ele>96.0</ele><time>2026-05-02T09:36:31.661Z</time></trkpt><trkpt lat="41.0898617" lon="9.300445"><ele>96.0</ele><time>2026-05-02T09:36:32.661Z</time></trkpt><trkpt lat="41.0897917" lon="9.300345"><ele>93.66666666666667</ele><time>2026-05-02T09:36:33.661Z</time></trkpt><trkpt lat="41.0897433" lon="9.3002533"><ele>91.33333333333333</ele><time>2026-05-02T09:36:34.661Z</time></trkpt><trkpt lat="41.0897117" lon="9.3001483"><ele>89.0</ele><time>2026-05-02T09:36:35.661Z</time></trkpt><trkpt lat="41.0896983" lon="9.3000333"><ele>86.66666666666666</ele><time>2026-05-02T09:36:36.661Z</time></trkpt><trkpt lat="41.0897117" lon="9.299905"><ele>84.33333333333333</ele><time>2026-05-02T09:36:37.661Z</time></trkpt><trkpt lat="41.089745" lon="9.29979"><ele>82.0</ele><time>2026-05-02T09:36:38.661Z</time></trkpt><trkpt lat="41.0897783" lon="9.29969"><ele>82.0</ele><time>2026-05-02T09:36:39.661Z</time></trkpt><trkpt lat="41.0898233" lon="9.2996"><ele>82.0</ele><time>2026-05-02T09:36:40.661Z</time></trkpt><trkpt lat="41.0898817" lon="9.2995183"><ele>82.0</ele><time>2026-05-02T09:36:41.661Z</time></trkpt><trkpt lat="41.089965" lon="9.2994483"><ele>82.0</ele><time>2026-05-02T09:36:42.661Z</time></trkpt><trkpt lat="41.0900567" lon="9.2993633"><ele>82.0</ele><time>2026-05-02T09:36:43.661Z</time></trkpt><trkpt lat="41.0901483" lon="9.2992433"><ele>82.0</ele><time>2026-05-02T09:36:44.661Z</time></trkpt><trkpt lat="41.0902217" lon="9.2991233"><ele>82.0</ele><time>2026-05-02T09:36:45.661Z</time></trkpt><trkpt lat="41.0902917" lon="9.2989783"><ele>82.0</ele><time>2026-05-02T09:36:46.662Z</time></trkpt><trkpt lat="41.0903417" lon="9.298835"><ele>82.0</ele><time>2026-05-02T09:36:47.661Z</time></trkpt><trkpt lat="41.0903733" lon="9.298715"><ele>80.83333333333333</ele><time>2026-05-02T09:36:48.661Z</time></trkpt><trkpt lat="41.0903867" lon="9.298595"><ele>79.66666666666666</ele><time>2026-05-02T09:36:49.661Z</time></trkpt><trkpt lat="41.09038" lon="9.2984867"><ele>78.5</ele><time>2026-05-02T09:36:50.661Z</time></trkpt><trkpt lat="41.090335" lon="9.29842"><ele>77.33333333333333</ele><time>2026-05-02T09:36:51.661Z</time></trkpt><trkpt lat="41.0902633" lon="9.2983867"><ele>76.16666666666667</ele><time>2026-05-02T09:36:52.661Z</time></trkpt><trkpt lat="41.0901967" lon="9.2983617"><ele>75.0</ele><time>2026-05-02T09:36:53.661Z</time></trkpt><trkpt lat="41.0900867" lon="9.29838"><ele>75.0</ele><time>2026-05-02T09:36:54.661Z</time></trkpt><trkpt lat="41.0899467" lon="9.2984283"><ele>75.0</ele><time>2026-05-02T09:36:55.661Z</time></trkpt><trkpt lat="41.0897667" lon="9.298475"><ele>75.0</ele><time>2026-05-02T09:36:56.661Z</time></trkpt><trkpt lat="41.0896083" lon="9.29846"><ele>75.75</ele><time>2026-05-02T09:36:57.661Z</time></trkpt><trkpt lat="41.0894683" lon="9.298395"><ele>76.5</ele><time>2026-05-02T09:36:58.661Z</time></trkpt><trkpt lat="41.08935" lon="9.2982933"><ele>77.25</ele><time>2026-05-02T09:36:59.661Z</time></trkpt><trkpt lat="41.0892383" lon="9.2981683"><ele>78.0</ele><time>2026-05-02T09:37:00.661Z</time></trkpt><trkpt lat="41.0891417" lon="9.2980417"><ele>79.5</ele><time>2026-05-02T09:37:01.661Z</time></trkpt><trkpt lat="41.08905" lon="9.29789"><ele>81.0</ele><time>2026-05-02T09:37:02.661Z</time></trkpt><trkpt lat="41.088975" lon="9.2977533"><ele>82.5</ele><time>2026-05-02T09:37:03.661Z</time></trkpt><trkpt lat="41.0888983" lon="9.29764"><ele>84.0</ele><time>2026-05-02T09:37:04.661Z</time></trkpt><trkpt lat="41.0888067" lon="9.2975267"><ele>84.0</ele><time>2026-05-02T09:37:05.661Z</time></trkpt><trkpt lat="41.0887167" lon="9.297425"><ele>84.0</ele><time>2026-05-02T09:37:06.661Z</time></trkpt><trkpt lat="41.0886033" lon="9.2973417"><ele>84.0</ele><time>2026-05-02T09:37:07.661Z</time></trkpt><trkpt lat="41.088465" lon="9.2972683"><ele>84.0</ele><time>2026-05-02T09:37:08.661Z</time></trkpt><trkpt lat="41.0883067" lon="9.2972283"><ele>84.0</ele><time>2026-05-02T09:37:09.661Z</time></trkpt><trkpt lat="41.0881417" lon="9.2971617"><ele>84.0</ele><time>2026-05-02T09:37:10.661Z</time></trkpt><trkpt lat="41.087965" lon="9.29707"><ele>84.0</ele><time>2026-05-02T09:37:11.661Z</time></trkpt><trkpt lat="41.087795" lon="9.2970033"><ele>84.0</ele><time>2026-05-02T09:37:12.661Z</time></trkpt><trkpt lat="41.0876233" lon="9.2969583"><ele>84.0</ele><time>2026-05-02T09:37:13.661Z</time></trkpt><trkpt lat="41.0874417" lon="9.2969667"><ele>84.0</ele><time>2026-05-02T09:37:14.661Z</time></trkpt><trkpt lat="41.0872883" lon="9.296985"><ele>85.0</ele><time>2026-05-02T09:37:15.661Z</time></trkpt><trkpt lat="41.0871367" lon="9.2970133"><ele>86.0</ele><time>2026-05-02T09:37:16.661Z</time></trkpt><trkpt lat="41.0869833" lon="9.297055"><ele>87.0</ele><time>2026-05-02T09:37:17.661Z</time></trkpt><trkpt lat="41.086825" lon="9.2971383"><ele>87.0</ele><time>2026-05-02T09:37:18.661Z</time></trkpt><trkpt lat="41.0866733" lon="9.2972433"><ele>87.0</ele><time>2026-05-02T09:37:19.661Z</time></trkpt><trkpt lat="41.0865233" lon="9.2973583"><ele>87.0</ele><time>2026-05-02T09:37:20.661Z</time></trkpt><trkpt lat="41.0863733" lon="9.2974783"><ele>90.0</ele><time>2026-05-02T09:37:21.661Z</time></trkpt><trkpt lat="41.0862267" lon="9.2975883"><ele>93.0</ele><time>2026-05-02T09:37:22.661Z</time></trkpt><trkpt lat="41.0860767" lon="9.297715"><ele>96.0</ele><time>2026-05-02T09:37:23.661Z</time></trkpt><trkpt lat="41.0859383" lon="9.2978583"><ele>96.0</ele><time>2026-05-02T09:37:24.661Z</time></trkpt><trkpt lat="41.085795" lon="9.2979983"><ele>96.0</ele><time>2026-05-02T09:37:25.661Z</time></trkpt><trkpt lat="41.0856633" lon="9.2981467"><ele>96.0</ele><time>2026-05-02T09:37:26.661Z</time></trkpt><trkpt lat="41.0855433" lon="9.29827"><ele>98.33333333333334</ele><time>2026-05-02T09:37:27.661Z</time></trkpt><trkpt lat="41.0854217" lon="9.298385"><ele>100.66666666666667</ele><time>2026-05-02T09:37:28.661Z</time></trkpt><trkpt lat="41.0852917" lon="9.29848"><ele>103.0</ele><time>2026-05-02T09:37:29.661Z</time></trkpt><trkpt lat="41.085145" lon="9.2985367"><ele>103.0</ele><time>2026-05-02T09:37:30.661Z</time></trkpt><trkpt lat="41.0849967" lon="9.2985683"><ele>103.0</ele><time>2026-05-02T09:37:31.661Z</time></trkpt><trkpt lat="41.084845" lon="9.2985967"><ele>103.0</ele><time>2026-05-02T09:37:32.661Z</time></trkpt><trkpt lat="41.0846933" lon="9.2986433"><ele>103.0</ele><time>2026-05-02T09:37:33.661Z</time></trkpt><trkpt lat="41.0845383" lon="9.298685"><ele>103.0</ele><time>2026-05-02T09:37:34.661Z</time></trkpt><trkpt lat="41.084385" lon="9.2987317"><ele>103.0</ele><time>2026-05-02T09:37:35.661Z</time></trkpt><trkpt lat="41.0842217" lon="9.2987667"><ele>105.0</ele><time>2026-05-02T09:37:36.661Z</time></trkpt><trkpt lat="41.0840483" lon="9.298805"><ele>107.0</ele><time>2026-05-02T09:37:37.661Z</time></trkpt><trkpt lat="41.083875" lon="9.298845"><ele>109.0</ele><time>2026-05-02T09:37:38.661Z</time></trkpt><trkpt lat="41.083695" lon="9.2988733"><ele>109.0</ele><time>2026-05-02T09:37:39.661Z</time></trkpt><trkpt lat="41.0835183" lon="9.2988917"><ele>109.0</ele><time>2026-05-02T09:37:40.661Z</time></trkpt><trkpt lat="41.083335" lon="9.2988983"><ele>109.0</ele><time>2026-05-02T09:37:41.661Z</time></trkpt><trkpt lat="41.0831533" lon="9.2988917"><ele>111.66666666666667</ele><time>2026-05-02T09:37:42.661Z</time></trkpt><trkpt lat="41.08297" lon="9.2988767"><ele>114.33333333333334</ele><time>2026-05-02T09:37:43.661Z</time></trkpt><trkpt lat="41.0827883" lon="9.29885"><ele>117.0</ele><time>2026-05-02T09:37:44.661Z</time></trkpt><trkpt lat="41.08261" lon="9.2988267"><ele>117.0</ele><time>2026-05-02T09:37:45.661Z</time></trkpt><trkpt lat="41.0824317" lon="9.298795"><ele>117.0</ele><time>2026-05-02T09:37:46.661Z</time></trkpt><trkpt lat="41.0822583" lon="9.298765"><ele>117.0</ele><time>2026-05-02T09:37:47.661Z</time></trkpt><trkpt lat="41.0820783" lon="9.2987283"><ele>117.0</ele><time>2026-05-02T09:37:48.661Z</time></trkpt><trkpt lat="41.0818867" lon="9.2986867"><ele>117.0</ele><time>2026-05-02T09:37:49.661Z</time></trkpt><trkpt lat="41.081705" lon="9.2986283"><ele>117.0</ele><time>2026-05-02T09:37:50.661Z</time></trkpt><trkpt lat="41.0815233" lon="9.29858"><ele>118.33333333333334</ele><time>2026-05-02T09:37:51.661Z</time></trkpt><trkpt lat="41.08133" lon="9.298525"><ele>119.66666666666667</ele><time>2026-05-02T09:37:52.661Z</time></trkpt><trkpt lat="41.0811367" lon="9.2984783"><ele>121.0</ele><time>2026-05-02T09:37:53.661Z</time></trkpt><trkpt lat="41.080945" lon="9.2984367"><ele>121.0</ele><time>2026-05-02T09:37:54.661Z</time></trkpt><trkpt lat="41.080755" lon="9.2984017"><ele>121.0</ele><time>2026-05-02T09:37:55.661Z</time></trkpt><trkpt lat="41.0805683" lon="9.29838"><ele>121.0</ele><time>2026-05-02T09:37:56.661Z</time></trkpt><trkpt lat="41.08039" lon="9.2983767"><ele>121.0</ele><time>2026-05-02T09:37:57.661Z</time></trkpt><trkpt lat="41.08022" lon="9.298395"><ele>121.0</ele><time>2026-05-02T09:37:58.661Z</time></trkpt><trkpt lat="41.0800667" lon="9.298425"><ele>121.0</ele><time>2026-05-02T09:37:59.661Z</time></trkpt><trkpt lat="41.0799217" lon="9.2984683"><ele>120.8</ele><time>2026-05-02T09:38:00.661Z</time></trkpt><trkpt lat="41.0797933" lon="9.29851"><ele>120.6</ele><time>2026-05-02T09:38:01.661Z</time></trkpt><trkpt lat="41.0796917" lon="9.298545"><ele>120.4</ele><time>2026-05-02T09:38:02.661Z</time></trkpt><trkpt lat="41.0796067" lon="9.2985667"><ele>120.2</ele><time>2026-05-02T09:38:03.661Z</time></trkpt><trkpt lat="41.0795367" lon="9.298585"><ele>120.0</ele><time>2026-05-02T09:38:04.661Z</time></trkpt><trkpt lat="41.079445" lon="9.298615"><ele>120.0</ele><time>2026-05-02T09:38:06.661Z</time></trkpt><trkpt lat="41.0794683" lon="9.2987"><ele>120.0</ele><time>2026-05-02T09:38:42.66Z</time></trkpt><trkpt lat="41.0793867" lon="9.2986567"><ele>120.0</ele><time>2026-05-02T09:39:56.66Z</time></trkpt><trkpt lat="41.07933" lon="9.2987067"><ele>120.0</ele><time>2026-05-02T09:40:00.66Z</time></trkpt><trkpt lat="41.0792667" lon="9.298735"><ele>120.0</ele><time>2026-05-02T09:40:20.661Z</time></trkpt><trkpt lat="41.079205" lon="9.29881"><ele>120.0</ele><time>2026-05-02T09:40:23.66Z</time></trkpt><trkpt lat="41.0791283" lon="9.2987767"><ele>120.0</ele><time>2026-05-02T09:40:27.66Z</time></trkpt><trkpt lat="41.0791167" lon="9.2986717"><ele>120.0</ele><time>2026-05-02T09:40:29.66Z</time></trkpt><trkpt lat="41.0791217" lon="9.29853"><ele>120.0</ele><time>2026-05-02T09:40:31.66Z</time></trkpt><trkpt lat="41.079145" lon="9.2984383"><ele>120.0</ele><time>2026-05-02T09:40:32.66Z</time></trkpt><trkpt lat="41.0791817" lon="9.2983417"><ele>120.0</ele><time>2026-05-02T09:40:33.66Z</time></trkpt><trkpt lat="41.0792533" lon="9.2982217"><ele>120.66666666666666</ele><time>2026-05-02T09:40:34.66Z</time></trkpt><trkpt lat="41.07936" lon="9.2980817"><ele>121.33333333333333</ele><time>2026-05-02T09:40:35.66Z</time></trkpt><trkpt lat="41.0795067" lon="9.29793"><ele>122.0</ele><time>2026-05-02T09:40:36.66Z</time></trkpt><trkpt lat="41.0796483" lon="9.29782"><ele>122.0</ele><time>2026-05-02T09:40:37.66Z</time></trkpt><trkpt lat="41.0797683" lon="9.297725"><ele>122.0</ele><time>2026-05-02T09:40:38.66Z</time></trkpt><trkpt lat="41.0799" lon="9.2976267"><ele>122.0</ele><time>2026-05-02T09:40:39.66Z</time></trkpt><trkpt lat="41.0800217" lon="9.2975183"><ele>122.0</ele><time>2026-05-02T09:40:40.66Z</time></trkpt><trkpt lat="41.0801317" lon="9.2974017"><ele>121.0</ele><time>2026-05-02T09:40:41.66Z</time></trkpt><trkpt lat="41.0802333" lon="9.2972533"><ele>120.0</ele><time>2026-05-02T09:40:42.66Z</time></trkpt><trkpt lat="41.0803433" lon="9.297085"><ele>119.0</ele><time>2026-05-02T09:40:43.661Z</time></trkpt><trkpt lat="41.0804467" lon="9.2969133"><ele>119.0</ele><time>2026-05-02T09:40:44.66Z</time></trkpt><trkpt lat="41.080545" lon="9.29675"><ele>119.0</ele><time>2026-05-02T09:40:45.66Z</time></trkpt><trkpt lat="41.0806317" lon="9.2965767"><ele>119.0</ele><time>2026-05-02T09:40:46.66Z</time></trkpt><trkpt lat="41.0807283" lon="9.2963967"><ele>114.66666666666666</ele><time>2026-05-02T09:40:47.66Z</time></trkpt><trkpt lat="41.0808217" lon="9.2962267"><ele>110.33333333333334</ele><time>2026-05-02T09:40:48.66Z</time></trkpt><trkpt lat="41.0809067" lon="9.2960617"><ele>106.0</ele><time>2026-05-02T09:40:49.66Z</time></trkpt><trkpt lat="41.0809817" lon="9.2958867"><ele>106.0</ele><time>2026-05-02T09:40:50.66Z</time></trkpt><trkpt lat="41.0810517" lon="9.2957333"><ele>106.0</ele><time>2026-05-02T09:40:51.66Z</time></trkpt><trkpt lat="41.0811167" lon="9.2955517"><ele>106.0</ele><time>2026-05-02T09:40:52.66Z</time></trkpt><trkpt lat="41.08114" lon="9.2953833"><ele>106.0</ele><time>2026-05-02T09:40:53.66Z</time></trkpt><trkpt lat="41.08116" lon="9.2952"><ele>104.5</ele><time>2026-05-02T09:40:54.66Z</time></trkpt><trkpt lat="41.0811783" lon="9.295015"><ele>103.0</ele><time>2026-05-02T09:40:55.66Z</time></trkpt><trkpt lat="41.0811967" lon="9.2948533"><ele>101.5</ele><time>2026-05-02T09:40:56.661Z</time></trkpt><trkpt lat="41.08123" lon="9.2946333"><ele>100.0</ele><time>2026-05-02T09:40:57.66Z</time></trkpt><trkpt lat="41.081235" lon="9.2944717"><ele>98.0</ele><time>2026-05-02T09:40:58.66Z</time></trkpt><trkpt lat="41.08122" lon="9.29432"><ele>96.0</ele><time>2026-05-02T09:40:59.66Z</time></trkpt><trkpt lat="41.0811883" lon="9.294155"><ele>94.0</ele><time>2026-05-02T09:41:00.66Z</time></trkpt><trkpt lat="41.08112" lon="9.294015"><ele>92.0</ele><time>2026-05-02T09:41:01.66Z</time></trkpt><trkpt lat="41.081025" lon="9.2939133"><ele>91.0</ele><time>2026-05-02T09:41:02.66Z</time></trkpt><trkpt lat="41.0809017" lon="9.293835"><ele>90.0</ele><time>2026-05-02T09:41:03.66Z</time></trkpt><trkpt lat="41.0807683" lon="9.2937817"><ele>89.0</ele><time>2026-05-02T09:41:04.66Z</time></trkpt><trkpt lat="41.08069" lon="9.29367"><ele>88.0</ele><time>2026-05-02T09:41:05.66Z</time></trkpt><trkpt lat="41.0806183" lon="9.2935533"><ele>87.75</ele><time>2026-05-02T09:41:06.66Z</time></trkpt><trkpt lat="41.0805967" lon="9.2934133"><ele>87.5</ele><time>2026-05-02T09:41:07.66Z</time></trkpt><trkpt lat="41.08061" lon="9.293255"><ele>87.25</ele><time>2026-05-02T09:41:08.66Z</time></trkpt><trkpt lat="41.080665" lon="9.29309"><ele>87.0</ele><time>2026-05-02T09:41:09.66Z</time></trkpt><trkpt lat="41.0807533" lon="9.29292"><ele>85.33333333333333</ele><time>2026-05-02T09:41:10.66Z</time></trkpt><trkpt lat="41.08085" lon="9.2927317"><ele>83.66666666666666</ele><time>2026-05-02T09:41:11.66Z</time></trkpt><trkpt lat="41.08095" lon="9.2925467"><ele>82.0</ele><time>2026-05-02T09:41:12.66Z</time></trkpt><trkpt lat="41.0810517" lon="9.292365"><ele>79.33333333333333</ele><time>2026-05-02T09:41:13.66Z</time></trkpt><trkpt lat="41.08116" lon="9.2921917"><ele>76.66666666666667</ele><time>2026-05-02T09:41:14.66Z</time></trkpt><trkpt lat="41.0812683" lon="9.29203"><ele>74.0</ele><time>2026-05-02T09:41:15.66Z</time></trkpt><trkpt lat="41.0813717" lon="9.2918933"><ele>74.0</ele><time>2026-05-02T09:41:16.66Z</time></trkpt><trkpt lat="41.0814767" lon="9.2917767"><ele>74.0</ele><time>2026-05-02T09:41:17.66Z</time></trkpt><trkpt lat="41.0816033" lon="9.2916683"><ele>74.0</ele><time>2026-05-02T09:41:18.66Z</time></trkpt><trkpt lat="41.0817233" lon="9.2916067"><ele>74.0</ele><time>2026-05-02T09:41:19.66Z</time></trkpt><trkpt lat="41.08185" lon="9.2915983"><ele>74.25</ele><time>2026-05-02T09:41:20.66Z</time></trkpt><trkpt lat="41.0819717" lon="9.2915933"><ele>74.5</ele><time>2026-05-02T09:41:21.66Z</time></trkpt><trkpt lat="41.0820883" lon="9.2916917"><ele>74.75</ele><time>2026-05-02T09:41:22.66Z</time></trkpt><trkpt lat="41.0822317" lon="9.2918133"><ele>75.0</ele><time>2026-05-02T09:41:23.66Z</time></trkpt><trkpt lat="41.0823467" lon="9.2919967"><ele>74.0</ele><time>2026-05-02T09:41:24.66Z</time></trkpt><trkpt lat="41.082465" lon="9.2921583"><ele>73.0</ele><time>2026-05-02T09:41:25.66Z</time></trkpt><trkpt lat="41.082575" lon="9.292335"><ele>72.0</ele><time>2026-05-02T09:41:26.66Z</time></trkpt><trkpt lat="41.0826883" lon="9.292485"><ele>72.0</ele><time>2026-05-02T09:41:27.66Z</time></trkpt><trkpt lat="41.0828" lon="9.292605"><ele>72.0</ele><time>2026-05-02T09:41:28.66Z</time></trkpt><trkpt lat="41.0829133" lon="9.29266"><ele>72.0</ele><time>2026-05-02T09:41:29.66Z</time></trkpt><trkpt lat="41.0830167" lon="9.29269"><ele>72.0</ele><time>2026-05-02T09:41:30.66Z</time></trkpt><trkpt lat="41.083115" lon="9.2926533"><ele>72.0</ele><time>2026-05-02T09:41:31.66Z</time></trkpt><trkpt lat="41.083205" lon="9.2925833"><ele>72.0</ele><time>2026-05-02T09:41:32.66Z</time></trkpt><trkpt lat="41.0832733" lon="9.2924383"><ele>72.0</ele><time>2026-05-02T09:41:33.66Z</time></trkpt><trkpt lat="41.0833367" lon="9.2923017"><ele>72.0</ele><time>2026-05-02T09:41:34.66Z</time></trkpt><trkpt lat="41.0833517" lon="9.2921067"><ele>69.0</ele><time>2026-05-02T09:41:35.66Z</time></trkpt><trkpt lat="41.0833317" lon="9.291885"><ele>66.0</ele><time>2026-05-02T09:41:36.66Z</time></trkpt><trkpt lat="41.083315" lon="9.2916733"><ele>63.0</ele><time>2026-05-02T09:41:37.66Z</time></trkpt><trkpt lat="41.0832967" lon="9.2914683"><ele>62.66666666666667</ele><time>2026-05-02T09:41:38.66Z</time></trkpt><trkpt lat="41.0832617" lon="9.2912633"><ele>62.333333333333336</ele><time>2026-05-02T09:41:39.661Z</time></trkpt><trkpt lat="41.083245" lon="9.2910617"><ele>62.0</ele><time>2026-05-02T09:41:40.66Z</time></trkpt><trkpt lat="41.0832383" lon="9.2908567"><ele>62.0</ele><time>2026-05-02T09:41:41.66Z</time></trkpt><trkpt lat="41.083195" lon="9.29065"><ele>62.0</ele><time>2026-05-02T09:41:42.66Z</time></trkpt><trkpt lat="41.083125" lon="9.2904633"><ele>62.0</ele><time>2026-05-02T09:41:43.66Z</time></trkpt><trkpt lat="41.0830417" lon="9.2902717"><ele>58.66666666666667</ele><time>2026-05-02T09:41:44.66Z</time></trkpt><trkpt lat="41.0829283" lon="9.2901083"><ele>55.33333333333333</ele><time>2026-05-02T09:41:45.661Z</time></trkpt><trkpt lat="41.08283" lon="9.28995"><ele>52.0</ele><time>2026-05-02T09:41:46.66Z</time></trkpt><trkpt lat="41.0827283" lon="9.2898017"><ele>51.5</ele><time>2026-05-02T09:41:47.66Z</time></trkpt><trkpt lat="41.0826233" lon="9.28967"><ele>51.0</ele><time>2026-05-02T09:41:48.66Z</time></trkpt><trkpt lat="41.08251" lon="9.2895817"><ele>50.5</ele><time>2026-05-02T09:41:49.66Z</time></trkpt><trkpt lat="41.082385" lon="9.28955"><ele>50.0</ele><time>2026-05-02T09:41:50.66Z</time></trkpt><trkpt lat="41.0822583" lon="9.2895683"><ele>50.0</ele><time>2026-05-02T09:41:51.66Z</time></trkpt><trkpt lat="41.0821383" lon="9.2895667"><ele>50.0</ele><time>2026-05-02T09:41:52.66Z</time></trkpt><trkpt lat="41.0820317" lon="9.2895383"><ele>50.0</ele><time>2026-05-02T09:41:53.66Z</time></trkpt><trkpt lat="41.0819417" lon="9.2894817"><ele>50.0</ele><time>2026-05-02T09:41:54.66Z</time></trkpt><trkpt lat="41.0818633" lon="9.2893983"><ele>50.0</ele><time>2026-05-02T09:41:55.66Z</time></trkpt><trkpt lat="41.0818183" lon="9.2892933"><ele>50.0</ele><time>2026-05-02T09:41:56.66Z</time></trkpt><trkpt lat="41.0817917" lon="9.2891867"><ele>50.0</ele><time>2026-05-02T09:41:57.66Z</time></trkpt><trkpt lat="41.0818017" lon="9.2890667"><ele>50.0</ele><time>2026-05-02T09:41:58.66Z</time></trkpt><trkpt lat="41.0818367" lon="9.2889233"><ele>50.0</ele><time>2026-05-02T09:41:59.66Z</time></trkpt><trkpt lat="41.0819083" lon="9.2887883"><ele>50.0</ele><time>2026-05-02T09:42:00.66Z</time></trkpt><trkpt lat="41.0819917" lon="9.2886433"><ele>49.0</ele><time>2026-05-02T09:42:01.66Z</time></trkpt><trkpt lat="41.0820767" lon="9.2884967"><ele>48.0</ele><time>2026-05-02T09:42:02.66Z</time></trkpt><trkpt lat="41.0821433" lon="9.2883533"><ele>47.0</ele><time>2026-05-02T09:42:03.66Z</time></trkpt><trkpt lat="41.0821983" lon="9.2882167"><ele>46.0</ele><time>2026-05-02T09:42:04.66Z</time></trkpt><trkpt lat="41.082235" lon="9.2880933"><ele>42.599999999999994</ele><time>2026-05-02T09:42:05.66Z</time></trkpt><trkpt lat="41.0822217" lon="9.287965"><ele>39.199999999999996</ele><time>2026-05-02T09:42:06.66Z</time></trkpt><trkpt lat="41.08217" lon="9.287855"><ele>35.8</ele><time>2026-05-02T09:42:07.66Z</time></trkpt><trkpt lat="41.0820733" lon="9.2877767"><ele>32.4</ele><time>2026-05-02T09:42:08.66Z</time></trkpt><trkpt lat="41.0819617" lon="9.287695"><ele>29.0</ele><time>2026-05-02T09:42:09.66Z</time></trkpt><trkpt lat="41.0818033" lon="9.2876533"><ele>29.0</ele><time>2026-05-02T09:42:10.66Z</time></trkpt><trkpt lat="41.0816233" lon="9.2876217"><ele>29.0</ele><time>2026-05-02T09:42:11.66Z</time></trkpt><trkpt lat="41.0814917" lon="9.287565"><ele>29.0</ele><time>2026-05-02T09:42:12.66Z</time></trkpt><trkpt lat="41.08139" lon="9.2874967"><ele>29.0</ele><time>2026-05-02T09:42:13.66Z</time></trkpt><trkpt lat="41.0813133" lon="9.2874083"><ele>30.0</ele><time>2026-05-02T09:42:14.66Z</time></trkpt><trkpt lat="41.0812567" lon="9.287285"><ele>31.0</ele><time>2026-05-02T09:42:15.66Z</time></trkpt><trkpt lat="41.0812167" lon="9.2871383"><ele>32.0</ele><time>2026-05-02T09:42:16.66Z</time></trkpt><trkpt lat="41.081195" lon="9.28698"><ele>33.0</ele><time>2026-05-02T09:42:17.66Z</time></trkpt><trkpt lat="41.0811883" lon="9.2868317"><ele>31.4</ele><time>2026-05-02T09:42:18.66Z</time></trkpt><trkpt lat="41.08118" lon="9.2866817"><ele>29.799999999999997</ele><time>2026-05-02T09:42:19.66Z</time></trkpt><trkpt lat="41.0811883" lon="9.2865283"><ele>28.2</ele><time>2026-05-02T09:42:20.66Z</time></trkpt><trkpt lat="41.0812067" lon="9.286375"><ele>26.6</ele><time>2026-05-02T09:42:21.66Z</time></trkpt><trkpt lat="41.081225" lon="9.2862483"><ele>25.0</ele><time>2026-05-02T09:42:22.66Z</time></trkpt><trkpt lat="41.08125" lon="9.2861417"><ele>25.0</ele><time>2026-05-02T09:42:23.66Z</time></trkpt><trkpt lat="41.0812833" lon="9.286045"><ele>25.0</ele><time>2026-05-02T09:42:24.66Z</time></trkpt><trkpt lat="41.0813217" lon="9.285965"><ele>25.0</ele><time>2026-05-02T09:42:25.66Z</time></trkpt><trkpt lat="41.0814017" lon="9.2858517"><ele>25.0</ele><time>2026-05-02T09:42:27.66Z</time></trkpt><trkpt lat="41.0813167" lon="9.28598"><ele>25.0</ele><time>2026-05-02T09:42:53.66Z</time></trkpt><trkpt lat="41.0813183" lon="9.2861117"><ele>25.0</ele><time>2026-05-02T09:42:55.66Z</time></trkpt><trkpt lat="41.0813233" lon="9.2862083"><ele>25.0</ele><time>2026-05-02T09:42:56.66Z</time></trkpt><trkpt lat="41.081315" lon="9.2863683"><ele>25.0</ele><time>2026-05-02T09:42:57.66Z</time></trkpt><trkpt lat="41.081305" lon="9.286545"><ele>25.0</ele><time>2026-05-02T09:42:58.66Z</time></trkpt><trkpt lat="41.08131" lon="9.2867283"><ele>23.333333333333336</ele><time>2026-05-02T09:42:59.66Z</time></trkpt><trkpt lat="41.0813117" lon="9.2869583"><ele>21.666666666666668</ele><time>2026-05-02T09:43:00.661Z</time></trkpt><trkpt lat="41.08131" lon="9.2871567"><ele>20.0</ele><time>2026-05-02T09:43:01.66Z</time></trkpt><trkpt lat="41.08133" lon="9.2873483"><ele>23.25</ele><time>2026-05-02T09:43:02.66Z</time></trkpt><trkpt lat="41.0813833" lon="9.287515"><ele>26.5</ele><time>2026-05-02T09:43:03.66Z</time></trkpt><trkpt lat="41.0814517" lon="9.28765"><ele>29.75</ele><time>2026-05-02T09:43:04.661Z</time></trkpt><trkpt lat="41.0815267" lon="9.2877867"><ele>33.0</ele><time>2026-05-02T09:43:05.66Z</time></trkpt><trkpt lat="41.0815867" lon="9.2878883"><ele>32.199999999999996</ele><time>2026-05-02T09:43:06.66Z</time></trkpt><trkpt lat="41.08166" lon="9.2879567"><ele>31.4</ele><time>2026-05-02T09:43:07.66Z</time></trkpt><trkpt lat="41.0817233" lon="9.2879883"><ele>30.599999999999998</ele><time>2026-05-02T09:43:08.66Z</time></trkpt><trkpt lat="41.08183" lon="9.2879817"><ele>29.799999999999997</ele><time>2026-05-02T09:43:10.66Z</time></trkpt><trkpt lat="41.08191" lon="9.287995"><ele>29.0</ele><time>2026-05-02T09:43:12.66Z</time></trkpt><trkpt lat="41.08199" lon="9.2880967"><ele>28.999999999999996</ele><time>2026-05-02T09:43:25.66Z</time></trkpt><trkpt lat="41.0820467" lon="9.28806"><ele>29.0</ele><time>2026-05-02T09:43:27.66Z</time></trkpt><trkpt lat="41.0820617" lon="9.2879767"><ele>29.0</ele><time>2026-05-02T09:43:29.66Z</time></trkpt><trkpt lat="41.0819817" lon="9.2878767"><ele>29.0</ele><time>2026-05-02T09:43:31.66Z</time></trkpt><trkpt lat="41.0819067" lon="9.2878167"><ele>28.999999999999996</ele><time>2026-05-02T09:43:33.66Z</time></trkpt><trkpt lat="41.0818233" lon="9.287755"><ele>29.0</ele><time>2026-05-02T09:43:35.66Z</time></trkpt><trkpt lat="41.0817367" lon="9.2876933"><ele>28.999999999999996</ele><time>2026-05-02T09:43:37.66Z</time></trkpt><trkpt lat="41.08166" lon="9.2876383"><ele>29.0</ele><time>2026-05-02T09:43:39.66Z</time></trkpt><trkpt lat="41.081605" lon="9.2875633"><ele>29.0</ele><time>2026-05-02T09:43:41.66Z</time></trkpt><trkpt lat="41.08157" lon="9.2874883"><ele>29.0</ele><time>2026-05-02T09:43:43.66Z</time></trkpt><trkpt lat="41.0815517" lon="9.2873983"><ele>28.999999999999996</ele><time>2026-05-02T09:43:44.66Z</time></trkpt><trkpt lat="41.0815283" lon="9.2873167"><ele>29.0</ele><time>2026-05-02T09:43:45.66Z</time></trkpt><trkpt lat="41.081495" lon="9.2871883"><ele>27.499999999999996</ele><time>2026-05-02T09:43:47.66Z</time></trkpt><trkpt lat="41.0814733" lon="9.2870917"><ele>26.0</ele><time>2026-05-02T09:43:49.66Z</time></trkpt><trkpt lat="41.0814917" lon="9.2869517"><ele>24.5</ele><time>2026-05-02T09:43:58.66Z</time></trkpt><trkpt lat="41.0815567" lon="9.286905"><ele>23.0</ele><time>2026-05-02T09:44:00.66Z</time></trkpt><trkpt lat="41.08166" lon="9.2868783"><ele>21.5</ele><time>2026-05-02T09:44:02.66Z</time></trkpt><trkpt lat="41.0817233" lon="9.2868483"><ele>20.0</ele><time>2026-05-02T09:44:03.66Z</time></trkpt><trkpt lat="41.081785" lon="9.286875"><ele>20.0</ele><time>2026-05-02T09:44:04.66Z</time></trkpt><trkpt lat="41.0818567" lon="9.2868933"><ele>20.0</ele><time>2026-05-02T09:44:05.66Z</time></trkpt><trkpt lat="41.0819967" lon="9.2869067"><ele>20.0</ele><time>2026-05-02T09:44:07.66Z</time></trkpt><trkpt lat="41.08208" lon="9.2869"><ele>20.0</ele><time>2026-05-02T09:44:08.66Z</time></trkpt><trkpt lat="41.082145" lon="9.2869167"><ele>20.0</ele><time>2026-05-02T09:44:09.66Z</time></trkpt><trkpt lat="41.0822233" lon="9.2869567"><ele>20.0</ele><time>2026-05-02T09:44:10.66Z</time></trkpt><trkpt lat="41.0823033" lon="9.2869817"><ele>20.0</ele><time>2026-05-02T09:44:11.66Z</time></trkpt><trkpt lat="41.0823833" lon="9.2870033"><ele>20.0</ele><time>2026-05-02T09:44:12.661Z</time></trkpt><trkpt lat="41.082465" lon="9.28701"><ele>20.0</ele><time>2026-05-02T09:44:13.66Z</time></trkpt><trkpt lat="41.08254" lon="9.2870483"><ele>20.0</ele><time>2026-05-02T09:44:14.66Z</time></trkpt><trkpt lat="41.0826133" lon="9.28709"><ele>20.0</ele><time>2026-05-02T09:44:15.66Z</time></trkpt><trkpt lat="41.0826867" lon="9.2871283"><ele>20.0</ele><time>2026-05-02T09:44:16.66Z</time></trkpt><trkpt lat="41.08275" lon="9.2871533"><ele>20.0</ele><time>2026-05-02T09:44:17.66Z</time></trkpt><trkpt lat="41.0828383" lon="9.2871567"><ele>20.0</ele><time>2026-05-02T09:44:18.66Z</time></trkpt><trkpt lat="41.08293" lon="9.287175"><ele>20.0</ele><time>2026-05-02T09:44:19.66Z</time></trkpt><trkpt lat="41.0830167" lon="9.287195"><ele>20.0</ele><time>2026-05-02T09:44:20.66Z</time></trkpt><trkpt lat="41.0830917" lon="9.2872133"><ele>20.0</ele><time>2026-05-02T09:44:21.66Z</time></trkpt><trkpt lat="41.0831667" lon="9.2872533"><ele>20.0</ele><time>2026-05-02T09:44:22.66Z</time></trkpt><trkpt lat="41.0832767" lon="9.2873017"><ele>20.0</ele><time>2026-05-02T09:44:23.661Z</time></trkpt><trkpt lat="41.083395" lon="9.2873433"><ele>20.0</ele><time>2026-05-02T09:44:24.66Z</time></trkpt><trkpt lat="41.08351" lon="9.2873983"><ele>20.0</ele><time>2026-05-02T09:44:25.66Z</time></trkpt><trkpt lat="41.083615" lon="9.287455"><ele>20.0</ele><time>2026-05-02T09:44:26.66Z</time></trkpt><trkpt lat="41.0837167" lon="9.28752"><ele>20.0</ele><time>2026-05-02T09:44:27.66Z</time></trkpt><trkpt lat="41.08383" lon="9.287585"><ele>20.0</ele><time>2026-05-02T09:44:28.661Z</time></trkpt><trkpt lat="41.08393" lon="9.2876367"><ele>20.0</ele><time>2026-05-02T09:44:29.66Z</time></trkpt><trkpt lat="41.084015" lon="9.287675"><ele>20.0</ele><time>2026-05-02T09:44:30.66Z</time></trkpt><trkpt lat="41.0841017" lon="9.287715"><ele>20.0</ele><time>2026-05-02T09:44:31.66Z</time></trkpt><trkpt lat="41.0841817" lon="9.2877633"><ele>19.166666666666668</ele><time>2026-05-02T09:44:32.66Z</time></trkpt><trkpt lat="41.0842567" lon="9.2878183"><ele>18.333333333333336</ele><time>2026-05-02T09:44:33.66Z</time></trkpt><trkpt lat="41.084325" lon="9.2878767"><ele>17.5</ele><time>2026-05-02T09:44:34.661Z</time></trkpt><trkpt lat="41.0843867" lon="9.2879267"><ele>16.666666666666668</ele><time>2026-05-02T09:44:35.66Z</time></trkpt><trkpt lat="41.08445" lon="9.2879783"><ele>15.833333333333334</ele><time>2026-05-02T09:44:36.66Z</time></trkpt><trkpt lat="41.0845083" lon="9.288025"><ele>15.0</ele><time>2026-05-02T09:44:37.66Z</time></trkpt><trkpt lat="41.0846" lon="9.288105"><ele>16.0</ele><time>2026-05-02T09:44:39.66Z</time></trkpt><trkpt lat="41.0846883" lon="9.2881867"><ele>17.0</ele><time>2026-05-02T09:44:41.66Z</time></trkpt><trkpt lat="41.0847633" lon="9.2882567"><ele>18.0</ele><time>2026-05-02T09:44:43.66Z</time></trkpt><trkpt lat="41.0848283" lon="9.2883933"><ele>19.0</ele><time>2026-05-02T09:44:45.66Z</time></trkpt><trkpt lat="41.084915" lon="9.2885117"><ele>20.0</ele><time>2026-05-02T09:44:47.66Z</time></trkpt><trkpt lat="41.0849767" lon="9.2885517"><ele>20.0</ele><time>2026-05-02T09:44:48.66Z</time></trkpt><trkpt lat="41.08505" lon="9.2885533"><ele>20.0</ele><time>2026-05-02T09:44:49.66Z</time></trkpt><trkpt lat="41.08514" lon="9.28856"><ele>20.0</ele><time>2026-05-02T09:44:50.661Z</time></trkpt><trkpt lat="41.0852433" lon="9.2885467"><ele>20.0</ele><time>2026-05-02T09:44:51.66Z</time></trkpt><trkpt lat="41.0853517" lon="9.2885433"><ele>20.0</ele><time>2026-05-02T09:44:52.66Z</time></trkpt><trkpt lat="41.0854467" lon="9.2885683"><ele>20.0</ele><time>2026-05-02T09:44:53.66Z</time></trkpt><trkpt lat="41.08554" lon="9.2885967"><ele>20.0</ele><time>2026-05-02T09:44:54.66Z</time></trkpt><trkpt lat="41.085635" lon="9.2886233"><ele>20.0</ele><time>2026-05-02T09:44:55.66Z</time></trkpt><trkpt lat="41.0857283" lon="9.2886417"><ele>20.0</ele><time>2026-05-02T09:44:56.66Z</time></trkpt><trkpt lat="41.0858133" lon="9.2886367"><ele>20.0</ele><time>2026-05-02T09:44:57.66Z</time></trkpt><trkpt lat="41.08589" lon="9.2886317"><ele>20.0</ele><time>2026-05-02T09:44:58.661Z</time></trkpt><trkpt lat="41.0859533" lon="9.28862"><ele>19.833333333333336</ele><time>2026-05-02T09:44:59.66Z</time></trkpt><trkpt lat="41.0860133" lon="9.2885933"><ele>19.666666666666668</ele><time>2026-05-02T09:45:00.661Z</time></trkpt><trkpt lat="41.0861267" lon="9.2885767"><ele>19.5</ele><time>2026-05-02T09:45:02.66Z</time></trkpt><trkpt lat="41.08619" lon="9.28856"><ele>19.333333333333332</ele><time>2026-05-02T09:45:03.66Z</time></trkpt><trkpt lat="41.0862483" lon="9.2885283"><ele>19.166666666666664</ele><time>2026-05-02T09:45:04.66Z</time></trkpt><trkpt lat="41.0863617" lon="9.2885167"><ele>19.0</ele><time>2026-05-02T09:45:06.66Z</time></trkpt><trkpt lat="41.086425" lon="9.288505"><ele>19.0</ele><time>2026-05-02T09:45:07.66Z</time></trkpt><trkpt lat="41.086495" lon="9.288505"><ele>19.0</ele><time>2026-05-02T09:45:08.66Z</time></trkpt><trkpt lat="41.08656" lon="9.2885083"><ele>19.0</ele><time>2026-05-02T09:45:09.66Z</time></trkpt><trkpt lat="41.0866333" lon="9.2884983"><ele>19.0</ele><time>2026-05-02T09:45:10.661Z</time></trkpt><trkpt lat="41.0867017" lon="9.2885033"><ele>19.0</ele><time>2026-05-02T09:45:11.66Z</time></trkpt><trkpt lat="41.0867683" lon="9.2885233"><ele>19.0</ele><time>2026-05-02T09:45:12.66Z</time></trkpt><trkpt lat="41.086835" lon="9.2885483"><ele>19.0</ele><time>2026-05-02T09:45:13.66Z</time></trkpt><trkpt lat="41.086935" lon="9.2886183"><ele>19.0</ele><time>2026-05-02T09:45:15.66Z</time></trkpt><trkpt lat="41.0870433" lon="9.28868"><ele>19.0</ele><time>2026-05-02T09:45:17.66Z</time></trkpt><trkpt lat="41.0871617" lon="9.2887267"><ele>19.0</ele><time>2026-05-02T09:45:19.66Z</time></trkpt><trkpt lat="41.0872367" lon="9.2887467"><ele>19.0</ele><time>2026-05-02T09:45:20.66Z</time></trkpt><trkpt lat="41.0873433" lon="9.2888"><ele>19.0</ele><time>2026-05-02T09:45:22.66Z</time></trkpt><trkpt lat="41.0874117" lon="9.2888167"><ele>19.0</ele><time>2026-05-02T09:45:23.659Z</time></trkpt><trkpt lat="41.0874867" lon="9.2888267"><ele>19.0</ele><time>2026-05-02T09:45:24.659Z</time></trkpt><trkpt lat="41.0875683" lon="9.2888467"><ele>19.0</ele><time>2026-05-02T09:45:25.659Z</time></trkpt><trkpt lat="41.0876383" lon="9.288875"><ele>19.0</ele><time>2026-05-02T09:45:26.659Z</time></trkpt><trkpt lat="41.087705" lon="9.28891"><ele>19.0</ele><time>2026-05-02T09:45:27.659Z</time></trkpt><trkpt lat="41.0877683" lon="9.2889133"><ele>19.0</ele><time>2026-05-02T09:45:28.659Z</time></trkpt><trkpt lat="41.0878333" lon="9.2889417"><ele>19.0</ele><time>2026-05-02T09:45:29.659Z</time></trkpt><trkpt lat="41.0879417" lon="9.2889533"><ele>19.0</ele><time>2026-05-02T09:45:31.659Z</time></trkpt><trkpt lat="41.0880733" lon="9.28899"><ele>19.0</ele><time>2026-05-02T09:45:33.659Z</time></trkpt><trkpt lat="41.0881567" lon="9.2890217"><ele>19.0</ele><time>2026-05-02T09:45:34.659Z</time></trkpt><trkpt lat="41.0882367" lon="9.2890417"><ele>19.0</ele><time>2026-05-02T09:45:35.659Z</time></trkpt><trkpt lat="41.0883067" lon="9.28908"><ele>19.0</ele><time>2026-05-02T09:45:36.659Z</time></trkpt><trkpt lat="41.0883783" lon="9.2891333"><ele>19.0</ele><time>2026-05-02T09:45:37.659Z</time></trkpt><trkpt lat="41.088445" lon="9.2891883"><ele>19.0</ele><time>2026-05-02T09:45:38.659Z</time></trkpt><trkpt lat="41.0885133" lon="9.2892433"><ele>19.0</ele><time>2026-05-02T09:45:39.659Z</time></trkpt><trkpt lat="41.0885833" lon="9.2892933"><ele>19.0</ele><time>2026-05-02T09:45:40.659Z</time></trkpt><trkpt lat="41.0886467" lon="9.2893217"><ele>19.0</ele><time>2026-05-02T09:45:41.659Z</time></trkpt><trkpt lat="41.08873" lon="9.2893583"><ele>19.0</ele><time>2026-05-02T09:45:42.659Z</time></trkpt><trkpt lat="41.0888083" lon="9.2893683"><ele>19.0</ele><time>2026-05-02T09:45:43.659Z</time></trkpt><trkpt lat="41.0888817" lon="9.2893683"><ele>19.0</ele><time>2026-05-02T09:45:44.659Z</time></trkpt><trkpt lat="41.088945" lon="9.2893967"><ele>19.0</ele><time>2026-05-02T09:45:45.659Z</time></trkpt><trkpt lat="41.08907" lon="9.2894417"><ele>19.0</ele><time>2026-05-02T09:45:47.659Z</time></trkpt><trkpt lat="41.0891367" lon="9.289485"><ele>19.0</ele><time>2026-05-02T09:45:48.659Z</time></trkpt><trkpt lat="41.0892133" lon="9.2895233"><ele>19.0</ele><time>2026-05-02T09:45:49.659Z</time></trkpt><trkpt lat="41.089285" lon="9.2895417"><ele>18.5</ele><time>2026-05-02T09:45:50.659Z</time></trkpt><trkpt lat="41.0893517" lon="9.2895567"><ele>18.0</ele><time>2026-05-02T09:45:51.659Z</time></trkpt><trkpt lat="41.089425" lon="9.289575"><ele>17.5</ele><time>2026-05-02T09:45:52.659Z</time></trkpt><trkpt lat="41.0895017" lon="9.2896083"><ele>17.0</ele><time>2026-05-02T09:45:53.659Z</time></trkpt><trkpt lat="41.0895767" lon="9.289635"><ele>16.5</ele><time>2026-05-02T09:45:54.659Z</time></trkpt><trkpt lat="41.0896467" lon="9.2896717"><ele>16.0</ele><time>2026-05-02T09:45:55.659Z</time></trkpt><trkpt lat="41.089755" lon="9.28973"><ele>15.8</ele><time>2026-05-02T09:45:57.659Z</time></trkpt><trkpt lat="41.0898517" lon="9.2898283"><ele>15.600000000000001</ele><time>2026-05-02T09:45:59.659Z</time></trkpt><trkpt lat="41.0899683" lon="9.2899433"><ele>15.4</ele><time>2026-05-02T09:46:01.659Z</time></trkpt><trkpt lat="41.0900333" lon="9.2900067"><ele>15.2</ele><time>2026-05-02T09:46:02.659Z</time></trkpt><trkpt lat="41.0901067" lon="9.2900883"><ele>15.0</ele><time>2026-05-02T09:46:03.659Z</time></trkpt><trkpt lat="41.09016" lon="9.2901367"><ele>15.0</ele><time>2026-05-02T09:46:04.659Z</time></trkpt><trkpt lat="41.0902517" lon="9.290255"><ele>15.0</ele><time>2026-05-02T09:46:06.659Z</time></trkpt><trkpt lat="41.090305" lon="9.290335"><ele>15.0</ele><time>2026-05-02T09:46:07.659Z</time></trkpt><trkpt lat="41.09039" lon="9.29038"><ele>15.0</ele><time>2026-05-02T09:46:09.659Z</time></trkpt><trkpt lat="41.0904717" lon="9.2903983"><ele>15.0</ele><time>2026-05-02T09:46:11.659Z</time></trkpt><trkpt lat="41.0905517" lon="9.290395"><ele>15.0</ele><time>2026-05-02T09:46:13.659Z</time></trkpt><trkpt lat="41.0906217" lon="9.2903733"><ele>15.0</ele><time>2026-05-02T09:46:16.659Z</time></trkpt><trkpt lat="41.09069" lon="9.2902367"><ele>15.0</ele><time>2026-05-02T09:46:33.659Z</time></trkpt><trkpt lat="41.09078" lon="9.29019"><ele>15.0</ele><time>2026-05-02T09:46:36.659Z</time></trkpt><trkpt lat="41.0908417" lon="9.2901433"><ele>15.0</ele><time>2026-05-02T09:46:38.659Z</time></trkpt><trkpt lat="41.0909183" lon="9.2900767"><ele>15.333333333333334</ele><time>2026-05-02T09:46:40.659Z</time></trkpt><trkpt lat="41.0909933" lon="9.290055"><ele>15.666666666666668</ele><time>2026-05-02T09:46:42.659Z</time></trkpt><trkpt lat="41.0910717" lon="9.2900183"><ele>16.0</ele><time>2026-05-02T09:46:44.659Z</time></trkpt><trkpt lat="41.0911417" lon="9.2900167"><ele>16.333333333333336</ele><time>2026-05-02T09:46:46.659Z</time></trkpt><trkpt lat="41.091215" lon="9.2900333"><ele>16.666666666666668</ele><time>2026-05-02T09:46:48.659Z</time></trkpt><trkpt lat="41.091295" lon="9.2900317"><ele>17.0</ele><time>2026-05-02T09:46:50.659Z</time></trkpt><trkpt lat="41.0913667" lon="9.2900283"><ele>17.0</ele><time>2026-05-02T09:46:52.659Z</time></trkpt><trkpt lat="41.0914333" lon="9.2900433"><ele>17.0</ele><time>2026-05-02T09:46:54.659Z</time></trkpt><trkpt lat="41.0914983" lon="9.2900033"><ele>17.0</ele><time>2026-05-02T09:47:52.659Z</time></trkpt><trkpt lat="41.0915633" lon="9.2899833"><ele>17.0</ele><time>2026-05-02T09:47:54.659Z</time></trkpt><trkpt lat="41.091625" lon="9.289955"><ele>17.0</ele><time>2026-05-02T09:47:56.659Z</time></trkpt><trkpt lat="41.0917167" lon="9.2899667"><ele>17.0</ele><time>2026-05-02T09:48:00.659Z</time></trkpt><trkpt lat="41.0918083" lon="9.2899633"><ele>17.0</ele><time>2026-05-02T09:48:03.66Z</time></trkpt><trkpt lat="41.091895" lon="9.28993"><ele>17.0</ele><time>2026-05-02T09:48:06.659Z</time></trkpt><trkpt lat="41.091965" lon="9.28993"><ele>17.0</ele><time>2026-05-02T09:48:08.659Z</time></trkpt><trkpt lat="41.09203" lon="9.2899383"><ele>17.0</ele><time>2026-05-02T09:48:10.659Z</time></trkpt><trkpt lat="41.09211" lon="9.2899617"><ele>17.0</ele><time>2026-05-02T09:48:12.659Z</time></trkpt><trkpt lat="41.0921767" lon="9.2899967"><ele>17.0</ele><time>2026-05-02T09:48:14.659Z</time></trkpt><trkpt lat="41.09225" lon="9.2900417"><ele>17.0</ele><time>2026-05-02T09:48:16.659Z</time></trkpt><trkpt lat="41.09231" lon="9.290085"><ele>17.0</ele><time>2026-05-02T09:48:18.66Z</time></trkpt><trkpt lat="41.0923883" lon="9.2901383"><ele>17.0</ele><time>2026-05-02T09:48:25.659Z</time></trkpt><trkpt lat="41.092455" lon="9.29015"><ele>17.0</ele><time>2026-05-02T09:48:27.659Z</time></trkpt><trkpt lat="41.0925433" lon="9.290145"><ele>17.0</ele><time>2026-05-02T09:48:29.659Z</time></trkpt><trkpt lat="41.0926317" lon="9.2901367"><ele>17.0</ele><time>2026-05-02T09:48:31.659Z</time></trkpt><trkpt lat="41.0927167" lon="9.2901217"><ele>17.0</ele><time>2026-05-02T09:48:33.659Z</time></trkpt><trkpt lat="41.0928117" lon="9.2901383"><ele>17.0</ele><time>2026-05-02T09:48:35.659Z</time></trkpt><trkpt lat="41.0929283" lon="9.2902017"><ele>17.0</ele><time>2026-05-02T09:48:37.659Z</time></trkpt><trkpt lat="41.0930017" lon="9.2902367"><ele>17.0</ele><time>2026-05-02T09:48:38.659Z</time></trkpt><trkpt lat="41.09307" lon="9.2902467"><ele>17.0</ele><time>2026-05-02T09:48:39.659Z</time></trkpt><trkpt lat="41.093135" lon="9.2902483"><ele>17.0</ele><time>2026-05-02T09:48:40.659Z</time></trkpt><trkpt lat="41.0932167" lon="9.2902667"><ele>16.666666666666668</ele><time>2026-05-02T09:48:41.659Z</time></trkpt><trkpt lat="41.0932817" lon="9.2902517"><ele>16.333333333333336</ele><time>2026-05-02T09:48:42.659Z</time></trkpt><trkpt lat="41.09335" lon="9.2902283"><ele>16.0</ele><time>2026-05-02T09:48:43.659Z</time></trkpt><trkpt lat="41.0934417" lon="9.290245"><ele>15.666666666666668</ele><time>2026-05-02T09:48:44.659Z</time></trkpt><trkpt lat="41.0935433" lon="9.2902583"><ele>15.333333333333334</ele><time>2026-05-02T09:48:45.659Z</time></trkpt><trkpt lat="41.0936483" lon="9.2902667"><ele>15.0</ele><time>2026-05-02T09:48:46.659Z</time></trkpt><trkpt lat="41.0937433" lon="9.2902783"><ele>15.0</ele><time>2026-05-02T09:48:47.659Z</time></trkpt><trkpt lat="41.09384" lon="9.2902883"><ele>15.0</ele><time>2026-05-02T09:48:48.659Z</time></trkpt><trkpt lat="41.0939267" lon="9.2902983"><ele>15.0</ele><time>2026-05-02T09:48:49.659Z</time></trkpt><trkpt lat="41.0940167" lon="9.2903067"><ele>15.0</ele><time>2026-05-02T09:48:50.659Z</time></trkpt><trkpt lat="41.0941067" lon="9.29033"><ele>15.0</ele><time>2026-05-02T09:48:51.659Z</time></trkpt><trkpt lat="41.0942033" lon="9.2903667"><ele>15.0</ele><time>2026-05-02T09:48:52.659Z</time></trkpt><trkpt lat="41.0942967" lon="9.2903967"><ele>15.0</ele><time>2026-05-02T09:48:53.659Z</time></trkpt><trkpt lat="41.0944033" lon="9.2904333"><ele>15.0</ele><time>2026-05-02T09:48:54.659Z</time></trkpt><trkpt lat="41.094505" lon="9.2904783"><ele>15.0</ele><time>2026-05-02T09:48:55.659Z</time></trkpt><trkpt lat="41.09461" lon="9.2905183"><ele>15.0</ele><time>2026-05-02T09:48:56.659Z</time></trkpt><trkpt lat="41.0947033" lon="9.29056"><ele>15.166666666666666</ele><time>2026-05-02T09:48:57.659Z</time></trkpt><trkpt lat="41.0948033" lon="9.290595"><ele>15.333333333333332</ele><time>2026-05-02T09:48:58.659Z</time></trkpt><trkpt lat="41.09489" lon="9.290635"><ele>15.5</ele><time>2026-05-02T09:48:59.659Z</time></trkpt><trkpt lat="41.09496" lon="9.2906833"><ele>15.666666666666666</ele><time>2026-05-02T09:49:00.659Z</time></trkpt><trkpt lat="41.0950317" lon="9.2907267"><ele>15.833333333333332</ele><time>2026-05-02T09:49:01.659Z</time></trkpt><trkpt lat="41.09509" lon="9.2907867"><ele>16.0</ele><time>2026-05-02T09:49:02.659Z</time></trkpt><trkpt lat="41.09514" lon="9.2908383"><ele>15.499999999999998</ele><time>2026-05-02T09:49:03.659Z</time></trkpt><trkpt lat="41.0952017" lon="9.2909"><ele>15.0</ele><time>2026-05-02T09:49:04.659Z</time></trkpt><trkpt lat="41.095265" lon="9.2909633"><ele>14.5</ele><time>2026-05-02T09:49:05.659Z</time></trkpt><trkpt lat="41.095335" lon="9.290995"><ele>14.0</ele><time>2026-05-02T09:49:06.659Z</time></trkpt><trkpt lat="41.09541" lon="9.2910267"><ele>13.499999999999998</ele><time>2026-05-02T09:49:07.659Z</time></trkpt><trkpt lat="41.0954817" lon="9.29105"><ele>13.0</ele><time>2026-05-02T09:49:08.659Z</time></trkpt><trkpt lat="41.0955517" lon="9.2910867"><ele>12.999999999999998</ele><time>2026-05-02T09:49:09.659Z</time></trkpt><trkpt lat="41.0956117" lon="9.29113"><ele>13.0</ele><time>2026-05-02T09:49:10.659Z</time></trkpt><trkpt lat="41.09568" lon="9.2911717"><ele>13.0</ele><time>2026-05-02T09:49:11.659Z</time></trkpt><trkpt lat="41.0957617" lon="9.2912383"><ele>13.0</ele><time>2026-05-02T09:49:12.659Z</time></trkpt><trkpt lat="41.0958383" lon="9.2913"><ele>12.999999999999998</ele><time>2026-05-02T09:49:13.659Z</time></trkpt><trkpt lat="41.0959383" lon="9.29137"><ele>13.0</ele><time>2026-05-02T09:49:14.659Z</time></trkpt><trkpt lat="41.09603" lon="9.29144"><ele>13.499999999999998</ele><time>2026-05-02T09:49:15.659Z</time></trkpt><trkpt lat="41.096115" lon="9.291525"><ele>14.0</ele><time>2026-05-02T09:49:16.659Z</time></trkpt><trkpt lat="41.0961883" lon="9.2916"><ele>14.5</ele><time>2026-05-02T09:49:17.659Z</time></trkpt><trkpt lat="41.0962433" lon="9.2916667"><ele>15.0</ele><time>2026-05-02T09:49:18.659Z</time></trkpt><trkpt lat="41.0962967" lon="9.29175"><ele>15.499999999999998</ele><time>2026-05-02T09:49:19.659Z</time></trkpt><trkpt lat="41.0963367" lon="9.2918467"><ele>16.0</ele><time>2026-05-02T09:49:20.659Z</time></trkpt><trkpt lat="41.0963817" lon="9.2919583"><ele>16.0</ele><time>2026-05-02T09:49:21.659Z</time></trkpt><trkpt lat="41.09641" lon="9.2920867"><ele>16.0</ele><time>2026-05-02T09:49:22.659Z</time></trkpt><trkpt lat="41.0964383" lon="9.292215"><ele>16.0</ele><time>2026-05-02T09:49:23.659Z</time></trkpt><trkpt lat="41.096455" lon="9.2923533"><ele>16.0</ele><time>2026-05-02T09:49:24.659Z</time></trkpt><trkpt lat="41.0964833" lon="9.29246"><ele>16.0</ele><time>2026-05-02T09:49:25.659Z</time></trkpt><trkpt lat="41.0965033" lon="9.2925733"><ele>15.4</ele><time>2026-05-02T09:49:26.659Z</time></trkpt><trkpt lat="41.0965167" lon="9.2926683"><ele>14.8</ele><time>2026-05-02T09:49:27.659Z</time></trkpt><trkpt lat="41.096535" lon="9.2927917"><ele>14.200000000000001</ele><time>2026-05-02T09:49:29.659Z</time></trkpt><trkpt lat="41.0965317" lon="9.29292"><ele>13.600000000000001</ele><time>2026-05-02T09:51:04.658Z</time></trkpt><trkpt lat="41.096565" lon="9.2930667"><ele>13.0</ele><time>2026-05-02T09:51:06.658Z</time></trkpt><trkpt lat="41.09659" lon="9.2931783"><ele>12.999999999999998</ele><time>2026-05-02T09:51:07.658Z</time></trkpt><trkpt lat="41.0966233" lon="9.2932983"><ele>13.0</ele><time>2026-05-02T09:51:08.658Z</time></trkpt><trkpt lat="41.0966533" lon="9.293405"><ele>13.0</ele><time>2026-05-02T09:51:09.658Z</time></trkpt><trkpt lat="41.0966833" lon="9.2935033"><ele>13.0</ele><time>2026-05-02T09:51:10.658Z</time></trkpt><trkpt lat="41.0967117" lon="9.29359"><ele>12.999999999999998</ele><time>2026-05-02T09:51:11.658Z</time></trkpt><trkpt lat="41.0967417" lon="9.2936717"><ele>13.0</ele><time>2026-05-02T09:51:12.658Z</time></trkpt><trkpt lat="41.0967767" lon="9.29377"><ele>12.999999999999998</ele><time>2026-05-02T09:51:13.658Z</time></trkpt><trkpt lat="41.0968133" lon="9.2938667"><ele>13.0</ele><time>2026-05-02T09:51:14.658Z</time></trkpt><trkpt lat="41.09685" lon="9.29396"><ele>13.0</ele><time>2026-05-02T09:51:15.658Z</time></trkpt><trkpt lat="41.0968883" lon="9.2940617"><ele>13.0</ele><time>2026-05-02T09:51:16.658Z</time></trkpt><trkpt lat="41.0969283" lon="9.2941533"><ele>12.999999999999998</ele><time>2026-05-02T09:51:17.658Z</time></trkpt><trkpt lat="41.0969767" lon="9.2942417"><ele>13.0</ele><time>2026-05-02T09:51:18.658Z</time></trkpt><trkpt lat="41.0970333" lon="9.2943217"><ele>13.999999999999998</ele><time>2026-05-02T09:51:19.658Z</time></trkpt><trkpt lat="41.09709" lon="9.2944017"><ele>15.0</ele><time>2026-05-02T09:51:20.658Z</time></trkpt><trkpt lat="41.0971533" lon="9.2944883"><ele>16.0</ele><time>2026-05-02T09:51:21.658Z</time></trkpt><trkpt lat="41.0972183" lon="9.2945783"><ele>17.0</ele><time>2026-05-02T09:51:22.658Z</time></trkpt><trkpt lat="41.097285" lon="9.294645"><ele>18.0</ele><time>2026-05-02T09:51:23.658Z</time></trkpt><trkpt lat="41.0973617" lon="9.2947083"><ele>19.0</ele><time>2026-05-02T09:51:24.658Z</time></trkpt><trkpt lat="41.0974683" lon="9.29476"><ele>19.6</ele><time>2026-05-02T09:51:25.658Z</time></trkpt><trkpt lat="41.0975683" lon="9.29482"><ele>20.2</ele><time>2026-05-02T09:51:26.658Z</time></trkpt><trkpt lat="41.0976617" lon="9.2948733"><ele>20.8</ele><time>2026-05-02T09:51:27.658Z</time></trkpt><trkpt lat="41.0977467" lon="9.29493"><ele>21.400000000000002</ele><time>2026-05-02T09:51:28.658Z</time></trkpt><trkpt lat="41.097825" lon="9.2950033"><ele>22.0</ele><time>2026-05-02T09:51:29.658Z</time></trkpt><trkpt lat="41.0978933" lon="9.2950767"><ele>22.0</ele><time>2026-05-02T09:51:30.658Z</time></trkpt><trkpt lat="41.0979633" lon="9.295155"><ele>22.0</ele><time>2026-05-02T09:51:31.658Z</time></trkpt><trkpt lat="41.0980167" lon="9.2952267"><ele>22.0</ele><time>2026-05-02T09:51:32.658Z</time></trkpt><trkpt lat="41.0980717" lon="9.2952867"><ele>22.0</ele><time>2026-05-02T09:51:33.658Z</time></trkpt><trkpt lat="41.0981733" lon="9.2953117"><ele>22.0</ele><time>2026-05-02T09:51:35.658Z</time></trkpt><trkpt lat="41.098245" lon="9.29527"><ele>22.0</ele><time>2026-05-02T09:51:36.658Z</time></trkpt><trkpt lat="41.09833" lon="9.2952583"><ele>20.6</ele><time>2026-05-02T09:51:37.658Z</time></trkpt><trkpt lat="41.0984283" lon="9.29526"><ele>19.200000000000003</ele><time>2026-05-02T09:51:38.658Z</time></trkpt><trkpt lat="41.0985217" lon="9.2952517"><ele>17.8</ele><time>2026-05-02T09:51:39.658Z</time></trkpt><trkpt lat="41.0986083" lon="9.29527"><ele>16.4</ele><time>2026-05-02T09:51:40.658Z</time></trkpt><trkpt lat="41.0986917" lon="9.2952883"><ele>15.0</ele><time>2026-05-02T09:51:41.658Z</time></trkpt><trkpt lat="41.098775" lon="9.295315"><ele>15.0</ele><time>2026-05-02T09:51:42.658Z</time></trkpt><trkpt lat="41.0988683" lon="9.29534"><ele>15.0</ele><time>2026-05-02T09:51:43.658Z</time></trkpt><trkpt lat="41.098965" lon="9.2953883"><ele>15.0</ele><time>2026-05-02T09:51:44.658Z</time></trkpt><trkpt lat="41.0990583" lon="9.2954217"><ele>15.0</ele><time>2026-05-02T09:51:45.658Z</time></trkpt><trkpt lat="41.0991433" lon="9.2954383"><ele>15.0</ele><time>2026-05-02T09:51:46.658Z</time></trkpt><trkpt lat="41.0992183" lon="9.2954533"><ele>14.833333333333334</ele><time>2026-05-02T09:51:47.658Z</time></trkpt><trkpt lat="41.0992833" lon="9.295465"><ele>14.666666666666668</ele><time>2026-05-02T09:51:48.658Z</time></trkpt><trkpt lat="41.0993467" lon="9.2954667"><ele>14.5</ele><time>2026-05-02T09:51:49.658Z</time></trkpt><trkpt lat="41.0994633" lon="9.295485"><ele>14.333333333333334</ele><time>2026-05-02T09:51:51.658Z</time></trkpt><trkpt lat="41.0995583" lon="9.295525"><ele>14.166666666666668</ele><time>2026-05-02T09:51:53.658Z</time></trkpt><trkpt lat="41.0996333" lon="9.2955983"><ele>14.0</ele><time>2026-05-02T09:51:55.658Z</time></trkpt><trkpt lat="41.0996767" lon="9.29574"><ele>14.571428571428571</ele><time>2026-05-02T09:51:57.658Z</time></trkpt><trkpt lat="41.099685" lon="9.2958283"><ele>15.142857142857142</ele><time>2026-05-02T09:51:58.658Z</time></trkpt><trkpt lat="41.0996933" lon="9.2959333"><ele>15.714285714285715</ele><time>2026-05-02T09:51:59.658Z</time></trkpt><trkpt lat="41.0997" lon="9.2960317"><ele>16.285714285714285</ele><time>2026-05-02T09:52:00.658Z</time></trkpt><trkpt lat="41.0997117" lon="9.2961283"><ele>16.857142857142858</ele><time>2026-05-02T09:52:01.658Z</time></trkpt><trkpt lat="41.0997067" lon="9.2962183"><ele>17.42857142857143</ele><time>2026-05-02T09:52:02.658Z</time></trkpt><trkpt lat="41.0997083" lon="9.296305"><ele>18.0</ele><time>2026-05-02T09:52:03.658Z</time></trkpt><trkpt lat="41.099715" lon="9.2963967"><ele>18.28571428571429</ele><time>2026-05-02T09:52:04.658Z</time></trkpt><trkpt lat="41.0997283" lon="9.2964883"><ele>18.571428571428573</ele><time>2026-05-02T09:52:05.658Z</time></trkpt><trkpt lat="41.0997533" lon="9.2965833"><ele>18.857142857142858</ele><time>2026-05-02T09:52:06.658Z</time></trkpt><trkpt lat="41.0997767" lon="9.296675"><ele>19.142857142857146</ele><time>2026-05-02T09:52:07.658Z</time></trkpt><trkpt lat="41.09979" lon="9.29676"><ele>19.42857142857143</ele><time>2026-05-02T09:52:08.658Z</time></trkpt><trkpt lat="41.099795" lon="9.2968633"><ele>19.714285714285715</ele><time>2026-05-02T09:52:09.658Z</time></trkpt><trkpt lat="41.0997917" lon="9.2969783"><ele>20.0</ele><time>2026-05-02T09:52:10.658Z</time></trkpt><trkpt lat="41.0997833" lon="9.2971017"><ele>20.0</ele><time>2026-05-02T09:52:11.659Z</time></trkpt><trkpt lat="41.099765" lon="9.29723"><ele>20.0</ele><time>2026-05-02T09:52:12.658Z</time></trkpt><trkpt lat="41.0997383" lon="9.2973583"><ele>20.0</ele><time>2026-05-02T09:52:13.658Z</time></trkpt><trkpt lat="41.0997067" lon="9.2974867"><ele>20.0</ele><time>2026-05-02T09:52:14.659Z</time></trkpt><trkpt lat="41.0996883" lon="9.2976067"><ele>20.0</ele><time>2026-05-02T09:52:15.658Z</time></trkpt><trkpt lat="41.099675" lon="9.2977483"><ele>20.2</ele><time>2026-05-02T09:52:16.658Z</time></trkpt><trkpt lat="41.0996817" lon="9.2978883"><ele>20.4</ele><time>2026-05-02T09:52:17.658Z</time></trkpt><trkpt lat="41.099695" lon="9.2980233"><ele>20.6</ele><time>2026-05-02T09:52:18.658Z</time></trkpt><trkpt lat="41.099705" lon="9.298155"><ele>20.8</ele><time>2026-05-02T09:52:19.658Z</time></trkpt><trkpt lat="41.0997133" lon="9.298295"><ele>21.0</ele><time>2026-05-02T09:52:20.658Z</time></trkpt><trkpt lat="41.099715" lon="9.2984367"><ele>21.5</ele><time>2026-05-02T09:52:21.658Z</time></trkpt><trkpt lat="41.0997167" lon="9.29859"><ele>22.0</ele><time>2026-05-02T09:52:22.658Z</time></trkpt><trkpt lat="41.099715" lon="9.2987417"><ele>22.5</ele><time>2026-05-02T09:52:23.658Z</time></trkpt><trkpt lat="41.0997167" lon="9.2988933"><ele>23.0</ele><time>2026-05-02T09:52:24.658Z</time></trkpt><trkpt lat="41.0997267" lon="9.29905"><ele>23.2</ele><time>2026-05-02T09:52:25.658Z</time></trkpt><trkpt lat="41.0997533" lon="9.2991983"><ele>23.4</ele><time>2026-05-02T09:52:26.658Z</time></trkpt><trkpt lat="41.099775" lon="9.2993417"><ele>23.599999999999998</ele><time>2026-05-02T09:52:27.658Z</time></trkpt><trkpt lat="41.09979" lon="9.2994883"><ele>23.799999999999997</ele><time>2026-05-02T09:52:28.659Z</time></trkpt><trkpt lat="41.0998217" lon="9.29963"><ele>24.0</ele><time>2026-05-02T09:52:29.658Z</time></trkpt><trkpt lat="41.0998617" lon="9.29977"><ele>25.6</ele><time>2026-05-02T09:52:30.658Z</time></trkpt><trkpt lat="41.0999117" lon="9.2999"><ele>27.2</ele><time>2026-05-02T09:52:31.658Z</time></trkpt><trkpt lat="41.09996" lon="9.3000283"><ele>28.800000000000004</ele><time>2026-05-02T09:52:32.658Z</time></trkpt><trkpt lat="41.1" lon="9.3001483"><ele>30.400000000000002</ele><time>2026-05-02T09:52:33.658Z</time></trkpt><trkpt lat="41.1000517" lon="9.3002383"><ele>32.0</ele><time>2026-05-02T09:52:34.658Z</time></trkpt><trkpt lat="41.1001083" lon="9.30034"><ele>29.400000000000002</ele><time>2026-05-02T09:52:35.658Z</time></trkpt><trkpt lat="41.100155" lon="9.3004467"><ele>26.800000000000004</ele><time>2026-05-02T09:52:36.658Z</time></trkpt><trkpt lat="41.1002083" lon="9.3005483"><ele>24.2</ele><time>2026-05-02T09:52:37.658Z</time></trkpt><trkpt lat="41.1002583" lon="9.3006467"><ele>21.6</ele><time>2026-05-02T09:52:38.658Z</time></trkpt><trkpt lat="41.1003183" lon="9.3007333"><ele>19.0</ele><time>2026-05-02T09:52:39.658Z</time></trkpt><trkpt lat="41.10039" lon="9.3008033"><ele>19.0</ele><time>2026-05-02T09:52:40.659Z</time></trkpt><trkpt lat="41.1004567" lon="9.30087"><ele>19.0</ele><time>2026-05-02T09:52:41.658Z</time></trkpt><trkpt lat="41.1005167" lon="9.3009433"><ele>19.0</ele><time>2026-05-02T09:52:42.658Z</time></trkpt><trkpt lat="41.100605" lon="9.30101"><ele>19.0</ele><time>2026-05-02T09:52:43.658Z</time></trkpt><trkpt lat="41.1006867" lon="9.301095"><ele>19.0</ele><time>2026-05-02T09:52:44.658Z</time></trkpt><trkpt lat="41.100775" lon="9.301165"><ele>16.5</ele><time>2026-05-02T09:52:45.658Z</time></trkpt><trkpt lat="41.100875" lon="9.301215"><ele>14.0</ele><time>2026-05-02T09:52:46.658Z</time></trkpt><trkpt lat="41.1009833" lon="9.3012667"><ele>11.5</ele><time>2026-05-02T09:52:47.658Z</time></trkpt><trkpt lat="41.1010917" lon="9.3013283"><ele>9.0</ele><time>2026-05-02T09:52:48.658Z</time></trkpt><trkpt lat="41.1012" lon="9.3013983"><ele>10.0</ele><time>2026-05-02T09:52:49.658Z</time></trkpt><trkpt lat="41.101305" lon="9.30146"><ele>11.0</ele><time>2026-05-02T09:52:50.658Z</time></trkpt><trkpt lat="41.1014067" lon="9.301505"><ele>11.999999999999998</ele><time>2026-05-02T09:52:51.658Z</time></trkpt><trkpt lat="41.101505" lon="9.301555"><ele>13.0</ele><time>2026-05-02T09:52:52.658Z</time></trkpt><trkpt lat="41.1016" lon="9.3016133"><ele>14.0</ele><time>2026-05-02T09:52:53.658Z</time></trkpt><trkpt lat="41.1016933" lon="9.3016733"><ele>14.000000000000002</ele><time>2026-05-02T09:52:54.658Z</time></trkpt><trkpt lat="41.101775" lon="9.301735"><ele>14.0</ele><time>2026-05-02T09:52:55.658Z</time></trkpt><trkpt lat="41.101845" lon="9.3017767"><ele>14.0</ele><time>2026-05-02T09:52:56.658Z</time></trkpt><trkpt lat="41.1019033" lon="9.3018283"><ele>14.0</ele><time>2026-05-02T09:52:57.658Z</time></trkpt><trkpt lat="41.1019467" lon="9.30191"><ele>14.000000000000002</ele><time>2026-05-02T09:52:58.658Z</time></trkpt><trkpt lat="41.1019967" lon="9.3019833"><ele>14.0</ele><time>2026-05-02T09:52:59.658Z</time></trkpt><trkpt lat="41.10201" lon="9.3021917"><ele>15.0</ele><time>2026-05-02T09:53:01.658Z</time></trkpt><trkpt lat="41.10198" lon="9.3023383"><ele>16.0</ele><time>2026-05-02T09:53:02.658Z</time></trkpt><trkpt lat="41.10193" lon="9.3025133"><ele>17.0</ele><time>2026-05-02T09:53:03.658Z</time></trkpt><trkpt lat="41.1018883" lon="9.3026883"><ele>18.0</ele><time>2026-05-02T09:53:04.658Z</time></trkpt><trkpt lat="41.10188" lon="9.3028317"><ele>18.0</ele><time>2026-05-02T09:53:05.658Z</time></trkpt><trkpt lat="41.1018617" lon="9.302975"><ele>18.0</ele><time>2026-05-02T09:53:06.658Z</time></trkpt><trkpt lat="41.1018183" lon="9.3030933"><ele>18.0</ele><time>2026-05-02T09:53:07.658Z</time></trkpt><trkpt lat="41.1017783" lon="9.303195"><ele>18.0</ele><time>2026-05-02T09:53:08.658Z</time></trkpt><trkpt lat="41.1017333" lon="9.3032933"><ele>18.0</ele><time>2026-05-02T09:53:09.658Z</time></trkpt><trkpt lat="41.1016783" lon="9.3033933"><ele>18.166666666666668</ele><time>2026-05-02T09:53:10.658Z</time></trkpt><trkpt lat="41.101595" lon="9.303485"><ele>18.333333333333332</ele><time>2026-05-02T09:53:11.658Z</time></trkpt><trkpt lat="41.1015333" lon="9.303555"><ele>18.5</ele><time>2026-05-02T09:53:12.658Z</time></trkpt><trkpt lat="41.1014567" lon="9.30359"><ele>18.666666666666664</ele><time>2026-05-02T09:53:14.658Z</time></trkpt><trkpt lat="41.1014133" lon="9.3035217"><ele>18.833333333333332</ele><time>2026-05-02T09:53:22.658Z</time></trkpt><trkpt lat="41.1013517" lon="9.3034983"><ele>19.0</ele><time>2026-05-02T09:53:24.658Z</time></trkpt><trkpt lat="41.10128" lon="9.3034883"><ele>20.2</ele><time>2026-05-02T09:53:26.658Z</time></trkpt><trkpt lat="41.1012117" lon="9.3034917"><ele>21.4</ele><time>2026-05-02T09:53:34.658Z</time></trkpt><trkpt lat="41.1011" lon="9.303475"><ele>22.6</ele><time>2026-05-02T09:53:36.658Z</time></trkpt><trkpt lat="41.100985" lon="9.303465"><ele>23.8</ele><time>2026-05-02T09:53:37.658Z</time></trkpt><trkpt lat="41.10087" lon="9.3034533"><ele>25.0</ele><time>2026-05-02T09:53:38.658Z</time></trkpt><trkpt lat="41.1007233" lon="9.3034367"><ele>26.5</ele><time>2026-05-02T09:53:39.658Z</time></trkpt><trkpt lat="41.1005833" lon="9.3034333"><ele>28.0</ele><time>2026-05-02T09:53:40.658Z</time></trkpt><trkpt lat="41.1004467" lon="9.3034217"><ele>29.5</ele><time>2026-05-02T09:53:41.658Z</time></trkpt><trkpt lat="41.10032" lon="9.3034133"><ele>31.0</ele><time>2026-05-02T09:53:42.658Z</time></trkpt><trkpt lat="41.1001867" lon="9.3033983"><ele>31.0</ele><time>2026-05-02T09:53:43.658Z</time></trkpt><trkpt lat="41.1000367" lon="9.303375"><ele>31.0</ele><time>2026-05-02T09:53:44.658Z</time></trkpt><trkpt lat="41.0999" lon="9.30336"><ele>31.0</ele><time>2026-05-02T09:53:45.658Z</time></trkpt><trkpt lat="41.099775" lon="9.3033583"><ele>31.0</ele><time>2026-05-02T09:53:46.658Z</time></trkpt><trkpt lat="41.0996433" lon="9.3033433"><ele>33.66666666666667</ele><time>2026-05-02T09:53:47.658Z</time></trkpt><trkpt lat="41.0994967" lon="9.3033233"><ele>36.333333333333336</ele><time>2026-05-02T09:53:48.658Z</time></trkpt><trkpt lat="41.0993233" lon="9.3032967"><ele>39.0</ele><time>2026-05-02T09:53:49.658Z</time></trkpt><trkpt lat="41.0991083" lon="9.30327"><ele>40.666666666666664</ele><time>2026-05-02T09:53:50.658Z</time></trkpt><trkpt lat="41.09891" lon="9.303235"><ele>42.33333333333333</ele><time>2026-05-02T09:53:51.658Z</time></trkpt><trkpt lat="41.09872" lon="9.303195"><ele>44.0</ele><time>2026-05-02T09:53:52.658Z</time></trkpt><trkpt lat="41.0985383" lon="9.3031617"><ele>44.0</ele><time>2026-05-02T09:53:53.658Z</time></trkpt><trkpt lat="41.0983767" lon="9.30313"><ele>44.0</ele><time>2026-05-02T09:53:54.658Z</time></trkpt><trkpt lat="41.098215" lon="9.3031183"><ele>44.0</ele><time>2026-05-02T09:53:55.658Z</time></trkpt><trkpt lat="41.0980633" lon="9.3031167"><ele>47.33333333333333</ele><time>2026-05-02T09:53:56.658Z</time></trkpt><trkpt lat="41.0979117" lon="9.3031233"><ele>50.666666666666664</ele><time>2026-05-02T09:53:57.658Z</time></trkpt><trkpt lat="41.097745" lon="9.30315"><ele>54.0</ele><time>2026-05-02T09:53:58.658Z</time></trkpt><trkpt lat="41.0975867" lon="9.3031733"><ele>54.0</ele><time>2026-05-02T09:53:59.658Z</time></trkpt><trkpt lat="41.0974567" lon="9.3032467"><ele>54.0</ele><time>2026-05-02T09:54:00.658Z</time></trkpt><trkpt lat="41.09735" lon="9.3033667"><ele>54.0</ele><time>2026-05-02T09:54:01.658Z</time></trkpt><trkpt lat="41.0972533" lon="9.3035583"><ele>58.0</ele><time>2026-05-02T09:54:02.658Z</time></trkpt><trkpt lat="41.0971383" lon="9.3037367"><ele>62.0</ele><time>2026-05-02T09:54:03.658Z</time></trkpt><trkpt lat="41.0970333" lon="9.3039317"><ele>66.0</ele><time>2026-05-02T09:54:04.658Z</time></trkpt><trkpt lat="41.096925" lon="9.3040833"><ele>66.0</ele><time>2026-05-02T09:54:05.658Z</time></trkpt><trkpt lat="41.0968267" lon="9.3042167"><ele>66.0</ele><time>2026-05-02T09:54:06.658Z</time></trkpt><trkpt lat="41.0967367" lon="9.3043167"><ele>66.0</ele><time>2026-05-02T09:54:07.658Z</time></trkpt><trkpt lat="41.09664" lon="9.3044083"><ele>66.0</ele><time>2026-05-02T09:54:08.659Z</time></trkpt><trkpt lat="41.0965467" lon="9.3044817"><ele>68.25</ele><time>2026-05-02T09:54:09.658Z</time></trkpt><trkpt lat="41.0964467" lon="9.304535"><ele>70.5</ele><time>2026-05-02T09:54:10.658Z</time></trkpt><trkpt lat="41.09633" lon="9.3045383"><ele>72.75</ele><time>2026-05-02T09:54:11.658Z</time></trkpt><trkpt lat="41.0961967" lon="9.304445"><ele>75.0</ele><time>2026-05-02T09:54:12.658Z</time></trkpt><trkpt lat="41.0960483" lon="9.304345"><ele>75.0</ele><time>2026-05-02T09:54:13.658Z</time></trkpt><trkpt lat="41.0958633" lon="9.304235"><ele>75.0</ele><time>2026-05-02T09:54:14.658Z</time></trkpt><trkpt lat="41.0956917" lon="9.3041567"><ele>75.0</ele><time>2026-05-02T09:54:15.659Z</time></trkpt><trkpt lat="41.0954667" lon="9.3040533"><ele>76.66666666666667</ele><time>2026-05-02T09:54:16.658Z</time></trkpt><trkpt lat="41.0953" lon="9.3039633"><ele>78.33333333333334</ele><time>2026-05-02T09:54:17.658Z</time></trkpt><trkpt lat="41.0951567" lon="9.3038783"><ele>80.0</ele><time>2026-05-02T09:54:18.658Z</time></trkpt><trkpt lat="41.0950083" lon="9.303775"><ele>81.33333333333334</ele><time>2026-05-02T09:54:19.658Z</time></trkpt><trkpt lat="41.0948617" lon="9.30366"><ele>82.66666666666667</ele><time>2026-05-02T09:54:20.658Z</time></trkpt><trkpt lat="41.0947183" lon="9.3035533"><ele>84.0</ele><time>2026-05-02T09:54:21.658Z</time></trkpt><trkpt lat="41.094565" lon="9.3034817"><ele>84.0</ele><time>2026-05-02T09:54:22.658Z</time></trkpt><trkpt lat="41.0944" lon="9.303425"><ele>84.0</ele><time>2026-05-02T09:54:23.658Z</time></trkpt><trkpt lat="41.09422" lon="9.3033683"><ele>84.0</ele><time>2026-05-02T09:54:24.658Z</time></trkpt><trkpt lat="41.0940083" lon="9.3033183"><ele>86.0</ele><time>2026-05-02T09:54:25.658Z</time></trkpt><trkpt lat="41.0937883" lon="9.3032617"><ele>88.0</ele><time>2026-05-02T09:54:26.658Z</time></trkpt><trkpt lat="41.0935817" lon="9.3032183"><ele>90.0</ele><time>2026-05-02T09:54:27.658Z</time></trkpt><trkpt lat="41.093385" lon="9.30317"><ele>92.33333333333334</ele><time>2026-05-02T09:54:28.658Z</time></trkpt><trkpt lat="41.093195" lon="9.30312"><ele>94.66666666666667</ele><time>2026-05-02T09:54:29.658Z</time></trkpt><trkpt lat="41.0930117" lon="9.3030833"><ele>97.0</ele><time>2026-05-02T09:54:30.658Z</time></trkpt><trkpt lat="41.092845" lon="9.3030533"><ele>97.0</ele><time>2026-05-02T09:54:31.658Z</time></trkpt><trkpt lat="41.0926767" lon="9.3030267"><ele>97.0</ele><time>2026-05-02T09:54:32.658Z</time></trkpt><trkpt lat="41.0924983" lon="9.3030033"><ele>97.0</ele><time>2026-05-02T09:54:33.658Z</time></trkpt><trkpt lat="41.0922983" lon="9.3029967"><ele>99.33333333333334</ele><time>2026-05-02T09:54:34.658Z</time></trkpt><trkpt lat="41.0921117" lon="9.3029883"><ele>101.66666666666666</ele><time>2026-05-02T09:54:35.658Z</time></trkpt><trkpt lat="41.0919317" lon="9.30299"><ele>104.0</ele><time>2026-05-02T09:54:36.658Z</time></trkpt><trkpt lat="41.0917583" lon="9.302985"><ele>106.33333333333333</ele><time>2026-05-02T09:54:37.658Z</time></trkpt><trkpt lat="41.0915883" lon="9.3029667"><ele>108.66666666666666</ele><time>2026-05-02T09:54:38.658Z</time></trkpt><trkpt lat="41.0914333" lon="9.3029283"><ele>111.0</ele><time>2026-05-02T09:54:39.658Z</time></trkpt><trkpt lat="41.0913067" lon="9.302865"><ele>111.0</ele><time>2026-05-02T09:54:40.658Z</time></trkpt><trkpt lat="41.091185" lon="9.3027883"><ele>111.0</ele><time>2026-05-02T09:54:41.658Z</time></trkpt><trkpt lat="41.09109" lon="9.3027067"><ele>111.0</ele><time>2026-05-02T09:54:42.658Z</time></trkpt><trkpt lat="41.091025" lon="9.30264"><ele>111.0</ele><time>2026-05-02T09:54:43.658Z</time></trkpt><trkpt lat="41.0909833" lon="9.30255"><ele>111.0</ele><time>2026-05-02T09:54:44.658Z</time></trkpt><trkpt lat="41.09101" lon="9.302405"><ele>109.25</ele><time>2026-05-02T09:54:45.658Z</time></trkpt><trkpt lat="41.0910417" lon="9.3022083"><ele>107.5</ele><time>2026-05-02T09:54:46.658Z</time></trkpt><trkpt lat="41.0910467" lon="9.3020217"><ele>105.75</ele><time>2026-05-02T09:54:47.658Z</time></trkpt><trkpt lat="41.0910217" lon="9.3018367"><ele>104.0</ele><time>2026-05-02T09:54:48.658Z</time></trkpt><trkpt lat="41.0909933" lon="9.3016267"><ele>104.0</ele><time>2026-05-02T09:54:49.658Z</time></trkpt><trkpt lat="41.09091" lon="9.30146"><ele>104.0</ele><time>2026-05-02T09:54:50.658Z</time></trkpt><trkpt lat="41.09076" lon="9.3012933"><ele>104.0</ele><time>2026-05-02T09:54:51.658Z</time></trkpt><trkpt lat="41.09063" lon="9.301115"><ele>101.33333333333333</ele><time>2026-05-02T09:54:52.658Z</time></trkpt><trkpt lat="41.09046" lon="9.3009617"><ele>98.66666666666666</ele><time>2026-05-02T09:54:53.658Z</time></trkpt><trkpt lat="41.09033" lon="9.3008283"><ele>96.0</ele><time>2026-05-02T09:54:54.658Z</time></trkpt><trkpt lat="41.0902017" lon="9.3006917"><ele>94.25</ele><time>2026-05-02T09:54:55.658Z</time></trkpt><trkpt lat="41.0900783" lon="9.3005633"><ele>92.5</ele><time>2026-05-02T09:54:56.658Z</time></trkpt><trkpt lat="41.089965" lon="9.3004517"><ele>90.75</ele><time>2026-05-02T09:54:57.658Z</time></trkpt><trkpt lat="41.08987" lon="9.300365"><ele>89.0</ele><time>2026-05-02T09:54:58.658Z</time></trkpt><trkpt lat="41.08979" lon="9.3003167"><ele>87.83333333333334</ele><time>2026-05-02T09:54:59.658Z</time></trkpt><trkpt lat="41.0897333" lon="9.3002483"><ele>86.66666666666667</ele><time>2026-05-02T09:55:00.658Z</time></trkpt><trkpt lat="41.0896967" lon="9.30018"><ele>85.5</ele><time>2026-05-02T09:55:01.658Z</time></trkpt><trkpt lat="41.0896817" lon="9.30009"><ele>84.33333333333333</ele><time>2026-05-02T09:55:02.658Z</time></trkpt><trkpt lat="41.0896833" lon="9.29999"><ele>83.16666666666666</ele><time>2026-05-02T09:55:03.658Z</time></trkpt><trkpt lat="41.0897467" lon="9.29981"><ele>82.0</ele><time>2026-05-02T09:55:04.658Z</time></trkpt><trkpt lat="41.0897967" lon="9.2996567"><ele>82.0</ele><time>2026-05-02T09:55:05.658Z</time></trkpt><trkpt lat="41.08986" lon="9.2995317"><ele>82.0</ele><time>2026-05-02T09:55:06.658Z</time></trkpt><trkpt lat="41.0899333" lon="9.2994383"><ele>82.0</ele><time>2026-05-02T09:55:07.658Z</time></trkpt><trkpt lat="41.09002" lon="9.2993567"><ele>82.0</ele><time>2026-05-02T09:55:08.658Z</time></trkpt><trkpt lat="41.0901217" lon="9.299285"><ele>82.0</ele><time>2026-05-02T09:55:09.658Z</time></trkpt><trkpt lat="41.0902183" lon="9.2991917"><ele>82.0</ele><time>2026-05-02T09:55:10.658Z</time></trkpt><trkpt lat="41.0903017" lon="9.2990783"><ele>82.0</ele><time>2026-05-02T09:55:11.658Z</time></trkpt><trkpt lat="41.09037" lon="9.2989233"><ele>82.0</ele><time>2026-05-02T09:55:12.658Z</time></trkpt><trkpt lat="41.0904267" lon="9.2987883"><ele>82.0</ele><time>2026-05-02T09:55:13.658Z</time></trkpt><trkpt lat="41.0904617" lon="9.29866"><ele>80.83333333333333</ele><time>2026-05-02T09:55:14.658Z</time></trkpt><trkpt lat="41.09046" lon="9.2985533"><ele>79.66666666666666</ele><time>2026-05-02T09:55:15.658Z</time></trkpt><trkpt lat="41.0904217" lon="9.2984667"><ele>78.5</ele><time>2026-05-02T09:55:16.658Z</time></trkpt><trkpt lat="41.0903733" lon="9.298405"><ele>77.33333333333333</ele><time>2026-05-02T09:55:17.658Z</time></trkpt><trkpt lat="41.090285" lon="9.29839"><ele>76.16666666666667</ele><time>2026-05-02T09:55:18.658Z</time></trkpt><trkpt lat="41.0901733" lon="9.2983783"><ele>75.0</ele><time>2026-05-02T09:55:19.658Z</time></trkpt><trkpt lat="41.0900517" lon="9.2983783"><ele>75.75</ele><time>2026-05-02T09:55:20.658Z</time></trkpt><trkpt lat="41.0899133" lon="9.2983733"><ele>76.5</ele><time>2026-05-02T09:55:21.658Z</time></trkpt><trkpt lat="41.0897583" lon="9.298385"><ele>77.25</ele><time>2026-05-02T09:55:22.658Z</time></trkpt><trkpt lat="41.0896217" lon="9.2983633"><ele>78.0</ele><time>2026-05-02T09:55:23.658Z</time></trkpt><trkpt lat="41.089485" lon="9.2983267"><ele>78.0</ele><time>2026-05-02T09:55:24.658Z</time></trkpt><trkpt lat="41.0893533" lon="9.2982517"><ele>78.0</ele><time>2026-05-02T09:55:25.658Z</time></trkpt><trkpt lat="41.08923" lon="9.2981533"><ele>78.0</ele><time>2026-05-02T09:55:26.658Z</time></trkpt><trkpt lat="41.0891183" lon="9.2980217"><ele>78.0</ele><time>2026-05-02T09:55:27.658Z</time></trkpt><trkpt lat="41.0890283" lon="9.29786"><ele>79.5</ele><time>2026-05-02T09:55:28.658Z</time></trkpt><trkpt lat="41.08893" lon="9.2977133"><ele>81.0</ele><time>2026-05-02T09:55:29.658Z</time></trkpt><trkpt lat="41.0888167" lon="9.2975917"><ele>82.5</ele><time>2026-05-02T09:55:30.658Z</time></trkpt><trkpt lat="41.0887017" lon="9.297475"><ele>84.0</ele><time>2026-05-02T09:55:31.658Z</time></trkpt><trkpt lat="41.0885517" lon="9.2973967"><ele>84.0</ele><time>2026-05-02T09:55:32.658Z</time></trkpt><trkpt lat="41.0883933" lon="9.2973317"><ele>84.0</ele><time>2026-05-02T09:55:33.658Z</time></trkpt><trkpt lat="41.0882267" lon="9.2972617"><ele>84.0</ele><time>2026-05-02T09:55:34.659Z</time></trkpt><trkpt lat="41.0880717" lon="9.297185"><ele>84.0</ele><time>2026-05-02T09:55:35.658Z</time></trkpt><trkpt lat="41.0879083" lon="9.2971333"><ele>84.0</ele><time>2026-05-02T09:55:36.658Z</time></trkpt><trkpt lat="41.0877583" lon="9.297095"><ele>84.0</ele><time>2026-05-02T09:55:37.658Z</time></trkpt><trkpt lat="41.087605" lon="9.29708"><ele>84.0</ele><time>2026-05-02T09:55:38.658Z</time></trkpt><trkpt lat="41.087455" lon="9.29709"><ele>84.0</ele><time>2026-05-02T09:55:39.658Z</time></trkpt><trkpt lat="41.0873033" lon="9.2970967"><ele>84.0</ele><time>2026-05-02T09:55:40.658Z</time></trkpt><trkpt lat="41.0871483" lon="9.2971"><ele>85.0</ele><time>2026-05-02T09:55:41.658Z</time></trkpt><trkpt lat="41.0869967" lon="9.2971133"><ele>86.0</ele><time>2026-05-02T09:55:42.658Z</time></trkpt><trkpt lat="41.0868367" lon="9.297155"><ele>87.0</ele><time>2026-05-02T09:55:43.658Z</time></trkpt><trkpt lat="41.0866767" lon="9.2972133"><ele>90.0</ele><time>2026-05-02T09:55:44.658Z</time></trkpt><trkpt lat="41.0865183" lon="9.2972967"><ele>93.0</ele><time>2026-05-02T09:55:45.658Z</time></trkpt><trkpt lat="41.0863583" lon="9.2973933"><ele>96.0</ele><time>2026-05-02T09:55:46.658Z</time></trkpt><trkpt lat="41.086195" lon="9.297515"><ele>96.0</ele><time>2026-05-02T09:55:47.658Z</time></trkpt><trkpt lat="41.0860283" lon="9.2976717"><ele>96.0</ele><time>2026-05-02T09:55:48.658Z</time></trkpt><trkpt lat="41.085865" lon="9.2978383"><ele>96.0</ele><time>2026-05-02T09:55:49.658Z</time></trkpt><trkpt lat="41.0857033" lon="9.2980183"><ele>98.33333333333334</ele><time>2026-05-02T09:55:50.658Z</time></trkpt><trkpt lat="41.0855417" lon="9.298175"><ele>100.66666666666667</ele><time>2026-05-02T09:55:51.658Z</time></trkpt><trkpt lat="41.0853833" lon="9.2983083"><ele>103.0</ele><time>2026-05-02T09:55:52.658Z</time></trkpt><trkpt lat="41.0852033" lon="9.2984233"><ele>103.0</ele><time>2026-05-02T09:55:53.658Z</time></trkpt><trkpt lat="41.08502" lon="9.298515"><ele>103.0</ele><time>2026-05-02T09:55:54.658Z</time></trkpt><trkpt lat="41.0848467" lon="9.2985917"><ele>103.0</ele><time>2026-05-02T09:55:55.658Z</time></trkpt><trkpt lat="41.0846633" lon="9.2986233"><ele>103.0</ele><time>2026-05-02T09:55:56.658Z</time></trkpt><trkpt lat="41.0845133" lon="9.2986483"><ele>103.0</ele><time>2026-05-02T09:55:57.658Z</time></trkpt><trkpt lat="41.08433" lon="9.2986883"><ele>103.0</ele><time>2026-05-02T09:55:58.658Z</time></trkpt><trkpt lat="41.0841467" lon="9.2987283"><ele>105.0</ele><time>2026-05-02T09:55:59.658Z</time></trkpt><trkpt lat="41.0839767" lon="9.29876"><ele>107.0</ele><time>2026-05-02T09:56:00.658Z</time></trkpt><trkpt lat="41.0838167" lon="9.2987933"><ele>109.0</ele><time>2026-05-02T09:56:01.658Z</time></trkpt><trkpt lat="41.0836683" lon="9.298815"><ele>109.0</ele><time>2026-05-02T09:56:02.658Z</time></trkpt><trkpt lat="41.08352" lon="9.2988333"><ele>109.0</ele><time>2026-05-02T09:56:03.658Z</time></trkpt><trkpt lat="41.083365" lon="9.29884"><ele>109.0</ele><time>2026-05-02T09:56:04.658Z</time></trkpt><trkpt lat="41.083195" lon="9.298835"><ele>111.66666666666667</ele><time>2026-05-02T09:56:05.658Z</time></trkpt><trkpt lat="41.0830283" lon="9.2988233"><ele>114.33333333333334</ele><time>2026-05-02T09:56:06.658Z</time></trkpt><trkpt lat="41.0828383" lon="9.29879"><ele>117.0</ele><time>2026-05-02T09:56:07.658Z</time></trkpt><trkpt lat="41.08264" lon="9.2987517"><ele>117.0</ele><time>2026-05-02T09:56:08.658Z</time></trkpt><trkpt lat="41.082455" lon="9.2987133"><ele>117.0</ele><time>2026-05-02T09:56:09.658Z</time></trkpt><trkpt lat="41.0822867" lon="9.2986733"><ele>117.0</ele><time>2026-05-02T09:56:10.658Z</time></trkpt><trkpt lat="41.0821183" lon="9.29863"><ele>117.0</ele><time>2026-05-02T09:56:11.658Z</time></trkpt><trkpt lat="41.08195" lon="9.2985817"><ele>117.0</ele><time>2026-05-02T09:56:12.658Z</time></trkpt><trkpt lat="41.0817767" lon="9.298535"><ele>117.0</ele><time>2026-05-02T09:56:13.658Z</time></trkpt><trkpt lat="41.0815833" lon="9.298495"><ele>118.33333333333334</ele><time>2026-05-02T09:56:14.658Z</time></trkpt><trkpt lat="41.08139" lon="9.298445"><ele>119.66666666666667</ele><time>2026-05-02T09:56:15.658Z</time></trkpt><trkpt lat="41.0812" lon="9.2983933"><ele>121.0</ele><time>2026-05-02T09:56:16.658Z</time></trkpt><trkpt lat="41.081015" lon="9.298345"><ele>121.0</ele><time>2026-05-02T09:56:17.658Z</time></trkpt><trkpt lat="41.0808267" lon="9.2983117"><ele>121.0</ele><time>2026-05-02T09:56:18.658Z</time></trkpt><trkpt lat="41.080635" lon="9.298285"><ele>121.0</ele><time>2026-05-02T09:56:19.658Z</time></trkpt><trkpt lat="41.0804367" lon="9.298275"><ele>121.0</ele><time>2026-05-02T09:56:20.658Z</time></trkpt><trkpt lat="41.0802267" lon="9.2982833"><ele>121.0</ele><time>2026-05-02T09:56:21.658Z</time></trkpt><trkpt lat="41.0800117" lon="9.2983433"><ele>121.0</ele><time>2026-05-02T09:56:22.658Z</time></trkpt><trkpt lat="41.0798" lon="9.2984117"><ele>120.66666666666667</ele><time>2026-05-02T09:56:23.658Z</time></trkpt><trkpt lat="41.0796067" lon="9.2984817"><ele>120.33333333333334</ele><time>2026-05-02T09:56:24.659Z</time></trkpt><trkpt lat="41.0794433" lon="9.2985633"><ele>120.0</ele><time>2026-05-02T09:56:25.659Z</time></trkpt><trkpt lat="41.079295" lon="9.2986633"><ele>120.0</ele><time>2026-05-02T09:56:26.658Z</time></trkpt><trkpt lat="41.07917" lon="9.2987517"><ele>120.0</ele><time>2026-05-02T09:56:27.658Z</time></trkpt><trkpt lat="41.079085" lon="9.2988367"><ele>120.0</ele><time>2026-05-02T09:56:28.658Z</time></trkpt><trkpt lat="41.0790083" lon="9.298925"><ele>120.0</ele><time>2026-05-02T09:56:29.658Z</time></trkpt><trkpt lat="41.078975" lon="9.2990067"><ele>120.0</ele><time>2026-05-02T09:56:30.658Z</time></trkpt><trkpt lat="41.0789233" lon="9.299155"><ele>119.66666666666667</ele><time>2026-05-02T09:56:32.658Z</time></trkpt><trkpt lat="41.0788933" lon="9.299235"><ele>119.33333333333334</ele><time>2026-05-02T09:56:35.658Z</time></trkpt><trkpt lat="41.0788983" lon="9.29915"><ele>119.0</ele><time>2026-05-02T09:56:39.658Z</time></trkpt><trkpt lat="41.078905" lon="9.2990167"><ele>118.66666666666667</ele><time>2026-05-02T09:56:41.658Z</time></trkpt><trkpt lat="41.0789233" lon="9.29893"><ele>118.33333333333334</ele><time>2026-05-02T09:56:43.658Z</time></trkpt><trkpt lat="41.0789833" lon="9.2988617"><ele>118.0</ele><time>2026-05-02T09:56:47.657Z</time></trkpt><trkpt lat="41.0790733" lon="9.2988033"><ele>118.4</ele><time>2026-05-02T09:59:03.657Z</time></trkpt><trkpt lat="41.0791033" lon="9.2987183"><ele>118.80000000000001</ele><time>2026-05-02T09:59:06.657Z</time></trkpt><trkpt lat="41.07915" lon="9.2985683"><ele>119.2</ele><time>2026-05-02T09:59:08.657Z</time></trkpt><trkpt lat="41.07918" lon="9.298455"><ele>119.6</ele><time>2026-05-02T09:59:09.657Z</time></trkpt><trkpt lat="41.07923" lon="9.29832"><ele>120.0</ele><time>2026-05-02T09:59:10.657Z</time></trkpt><trkpt lat="41.0792983" lon="9.2981983"><ele>120.5</ele><time>2026-05-02T09:59:11.657Z</time></trkpt><trkpt lat="41.079385" lon="9.298075"><ele>121.0</ele><time>2026-05-02T09:59:12.657Z</time></trkpt><trkpt lat="41.07948" lon="9.297975"><ele>121.5</ele><time>2026-05-02T09:59:13.657Z</time></trkpt><trkpt lat="41.0795833" lon="9.2978917"><ele>122.0</ele><time>2026-05-02T09:59:14.657Z</time></trkpt><trkpt lat="41.079685" lon="9.2978267"><ele>122.0</ele><time>2026-05-02T09:59:15.657Z</time></trkpt><trkpt lat="41.079795" lon="9.2977583"><ele>122.0</ele><time>2026-05-02T09:59:16.657Z</time></trkpt><trkpt lat="41.0798967" lon="9.2976833"><ele>122.0</ele><time>2026-05-02T09:59:17.657Z</time></trkpt><trkpt lat="41.0799967" lon="9.2976167"><ele>122.0</ele><time>2026-05-02T09:59:18.657Z</time></trkpt><trkpt lat="41.0800933" lon="9.29753"><ele>121.25</ele><time>2026-05-02T09:59:19.657Z</time></trkpt><trkpt lat="41.0801933" lon="9.2974183"><ele>120.5</ele><time>2026-05-02T09:59:20.657Z</time></trkpt><trkpt lat="41.08029" lon="9.2972733"><ele>119.75</ele><time>2026-05-02T09:59:21.657Z</time></trkpt><trkpt lat="41.080385" lon="9.2971117"><ele>119.0</ele><time>2026-05-02T09:59:22.657Z</time></trkpt><trkpt lat="41.080475" lon="9.2969467"><ele>119.0</ele><time>2026-05-02T09:59:23.657Z</time></trkpt><trkpt lat="41.0805617" lon="9.2967867"><ele>119.0</ele><time>2026-05-02T09:59:24.658Z</time></trkpt><trkpt lat="41.0806383" lon="9.29663"><ele>119.0</ele><time>2026-05-02T09:59:25.657Z</time></trkpt><trkpt lat="41.0807133" lon="9.2964783"><ele>119.0</ele><time>2026-05-02T09:59:26.657Z</time></trkpt><trkpt lat="41.08079" lon="9.2963317"><ele>115.75</ele><time>2026-05-02T09:59:27.657Z</time></trkpt><trkpt lat="41.0808767" lon="9.296185"><ele>112.5</ele><time>2026-05-02T09:59:28.657Z</time></trkpt><trkpt lat="41.0809583" lon="9.2960317"><ele>109.25</ele><time>2026-05-02T09:59:29.657Z</time></trkpt><trkpt lat="41.08103" lon="9.2958833"><ele>106.0</ele><time>2026-05-02T09:59:30.657Z</time></trkpt><trkpt lat="41.0810933" lon="9.2957267"><ele>104.5</ele><time>2026-05-02T09:59:31.657Z</time></trkpt><trkpt lat="41.0811417" lon="9.2955517"><ele>103.0</ele><time>2026-05-02T09:59:32.657Z</time></trkpt><trkpt lat="41.08116" lon="9.2953683"><ele>101.5</ele><time>2026-05-02T09:59:33.657Z</time></trkpt><trkpt lat="41.0811633" lon="9.2951717"><ele>100.0</ele><time>2026-05-02T09:59:34.657Z</time></trkpt><trkpt lat="41.0811633" lon="9.294975"><ele>100.0</ele><time>2026-05-02T09:59:35.657Z</time></trkpt><trkpt lat="41.0811717" lon="9.294785"><ele>100.0</ele><time>2026-05-02T09:59:36.657Z</time></trkpt><trkpt lat="41.081185" lon="9.2946117"><ele>100.0</ele><time>2026-05-02T09:59:37.657Z</time></trkpt><trkpt lat="41.0811817" lon="9.2944517"><ele>100.0</ele><time>2026-05-02T09:59:38.657Z</time></trkpt><trkpt lat="41.0811483" lon="9.29431"><ele>98.0</ele><time>2026-05-02T09:59:39.657Z</time></trkpt><trkpt lat="41.081095" lon="9.2941633"><ele>96.0</ele><time>2026-05-02T09:59:40.657Z</time></trkpt><trkpt lat="41.081025" lon="9.29404"><ele>94.0</ele><time>2026-05-02T09:59:41.657Z</time></trkpt><trkpt lat="41.080935" lon="9.2939567"><ele>92.0</ele><time>2026-05-02T09:59:42.657Z</time></trkpt><trkpt lat="41.08082" lon="9.293875"><ele>90.75</ele><time>2026-05-02T09:59:43.657Z</time></trkpt><trkpt lat="41.08072" lon="9.2937683"><ele>89.5</ele><time>2026-05-02T09:59:44.657Z</time></trkpt><trkpt lat="41.0806483" lon="9.2936483"><ele>88.25</ele><time>2026-05-02T09:59:45.657Z</time></trkpt><trkpt lat="41.0806" lon="9.2935167"><ele>87.0</ele><time>2026-05-02T09:59:46.657Z</time></trkpt><trkpt lat="41.0805767" lon="9.29338"><ele>87.0</ele><time>2026-05-02T09:59:47.657Z</time></trkpt><trkpt lat="41.0805817" lon="9.2932617"><ele>87.0</ele><time>2026-05-02T09:59:48.658Z</time></trkpt><trkpt lat="41.0806167" lon="9.29312"><ele>87.0</ele><time>2026-05-02T09:59:49.657Z</time></trkpt><trkpt lat="41.0807133" lon="9.29293"><ele>87.0</ele><time>2026-05-02T09:59:50.657Z</time></trkpt><trkpt lat="41.0808283" lon="9.2927317"><ele>85.33333333333333</ele><time>2026-05-02T09:59:51.657Z</time></trkpt><trkpt lat="41.0809367" lon="9.29255"><ele>83.66666666666666</ele><time>2026-05-02T09:59:52.657Z</time></trkpt><trkpt lat="41.081045" lon="9.292375"><ele>82.0</ele><time>2026-05-02T09:59:53.657Z</time></trkpt><trkpt lat="41.0811667" lon="9.29218"><ele>79.33333333333333</ele><time>2026-05-02T09:59:54.657Z</time></trkpt><trkpt lat="41.0813" lon="9.2920217"><ele>76.66666666666667</ele><time>2026-05-02T09:59:55.657Z</time></trkpt><trkpt lat="41.0814033" lon="9.291875"><ele>74.0</ele><time>2026-05-02T09:59:56.657Z</time></trkpt><trkpt lat="41.0814967" lon="9.29177"><ele>74.0</ele><time>2026-05-02T09:59:57.657Z</time></trkpt><trkpt lat="41.081595" lon="9.2917"><ele>74.0</ele><time>2026-05-02T09:59:58.657Z</time></trkpt><trkpt lat="41.0817" lon="9.2916533"><ele>74.0</ele><time>2026-05-02T09:59:59.657Z</time></trkpt><trkpt lat="41.0818083" lon="9.291625"><ele>74.0</ele><time>2026-05-02T10:00:00.657Z</time></trkpt><trkpt lat="41.0819233" lon="9.291625"><ele>74.0</ele><time>2026-05-02T10:00:01.657Z</time></trkpt><trkpt lat="41.0820467" lon="9.2916733"><ele>74.33333333333334</ele><time>2026-05-02T10:00:02.657Z</time></trkpt><trkpt lat="41.082165" lon="9.2917383"><ele>74.66666666666667</ele><time>2026-05-02T10:00:03.657Z</time></trkpt><trkpt lat="41.0822867" lon="9.2918883"><ele>75.0</ele><time>2026-05-02T10:00:04.657Z</time></trkpt><trkpt lat="41.082405" lon="9.29209"><ele>74.0</ele><time>2026-05-02T10:00:05.657Z</time></trkpt><trkpt lat="41.082515" lon="9.2922933"><ele>73.0</ele><time>2026-05-02T10:00:06.657Z</time></trkpt><trkpt lat="41.0826267" lon="9.2924533"><ele>72.0</ele><time>2026-05-02T10:00:07.657Z</time></trkpt><trkpt lat="41.08273" lon="9.2925833"><ele>72.0</ele><time>2026-05-02T10:00:08.657Z</time></trkpt><trkpt lat="41.0828333" lon="9.292675"><ele>72.0</ele><time>2026-05-02T10:00:09.657Z</time></trkpt><trkpt lat="41.0829467" lon="9.2927367"><ele>72.0</ele><time>2026-05-02T10:00:10.657Z</time></trkpt><trkpt lat="41.0830567" lon="9.29276"><ele>72.0</ele><time>2026-05-02T10:00:11.658Z</time></trkpt><trkpt lat="41.0831717" lon="9.2927567"><ele>70.0</ele><time>2026-05-02T10:00:12.658Z</time></trkpt><trkpt lat="41.0832817" lon="9.2926983"><ele>68.0</ele><time>2026-05-02T10:00:13.657Z</time></trkpt><trkpt lat="41.0833617" lon="9.2925467"><ele>66.0</ele><time>2026-05-02T10:00:14.657Z</time></trkpt><trkpt lat="41.0834" lon="9.2923683"><ele>64.0</ele><time>2026-05-02T10:00:15.657Z</time></trkpt><trkpt lat="41.0834133" lon="9.29213"><ele>63.666666666666664</ele><time>2026-05-02T10:00:16.657Z</time></trkpt><trkpt lat="41.0834" lon="9.2918733"><ele>63.33333333333333</ele><time>2026-05-02T10:00:17.657Z</time></trkpt><trkpt lat="41.0833667" lon="9.2916167"><ele>63.0</ele><time>2026-05-02T10:00:18.657Z</time></trkpt><trkpt lat="41.083335" lon="9.2913783"><ele>62.66666666666667</ele><time>2026-05-02T10:00:19.658Z</time></trkpt><trkpt lat="41.0833133" lon="9.2911667"><ele>62.333333333333336</ele><time>2026-05-02T10:00:20.657Z</time></trkpt><trkpt lat="41.0832883" lon="9.2909617"><ele>62.0</ele><time>2026-05-02T10:00:21.657Z</time></trkpt><trkpt lat="41.0832367" lon="9.2907467"><ele>58.66666666666667</ele><time>2026-05-02T10:00:22.657Z</time></trkpt><trkpt lat="41.08319" lon="9.290575"><ele>55.33333333333333</ele><time>2026-05-02T10:00:23.657Z</time></trkpt><trkpt lat="41.0831067" lon="9.29041"><ele>52.0</ele><time>2026-05-02T10:00:24.657Z</time></trkpt><trkpt lat="41.0829967" lon="9.2902483"><ele>52.0</ele><time>2026-05-02T10:00:25.657Z</time></trkpt><trkpt lat="41.0828983" lon="9.2900917"><ele>52.0</ele><time>2026-05-02T10:00:26.657Z</time></trkpt><trkpt lat="41.082805" lon="9.28995"><ele>52.0</ele><time>2026-05-02T10:00:27.657Z</time></trkpt><trkpt lat="41.0827067" lon="9.2898367"><ele>52.0</ele><time>2026-05-02T10:00:28.657Z</time></trkpt><trkpt lat="41.0826" lon="9.2897433"><ele>51.5</ele><time>2026-05-02T10:00:29.657Z</time></trkpt><trkpt lat="41.0824667" lon="9.2897033"><ele>51.0</ele><time>2026-05-02T10:00:30.657Z</time></trkpt><trkpt lat="41.08235" lon="9.2896783"><ele>50.5</ele><time>2026-05-02T10:00:31.657Z</time></trkpt><trkpt lat="41.0822283" lon="9.289685"><ele>50.0</ele><time>2026-05-02T10:00:32.657Z</time></trkpt><trkpt lat="41.08211" lon="9.289685"><ele>50.0</ele><time>2026-05-02T10:00:33.657Z</time></trkpt><trkpt lat="41.0820183" lon="9.2896583"><ele>50.0</ele><time>2026-05-02T10:00:34.657Z</time></trkpt><trkpt lat="41.0819217" lon="9.2896"><ele>50.0</ele><time>2026-05-02T10:00:35.657Z</time></trkpt><trkpt lat="41.0818733" lon="9.28953"><ele>50.0</ele><time>2026-05-02T10:00:36.657Z</time></trkpt><trkpt lat="41.0818333" lon="9.28943"><ele>50.0</ele><time>2026-05-02T10:00:37.657Z</time></trkpt><trkpt lat="41.0818367" lon="9.2892967"><ele>50.0</ele><time>2026-05-02T10:00:38.657Z</time></trkpt><trkpt lat="41.0818633" lon="9.289155"><ele>50.0</ele><time>2026-05-02T10:00:39.657Z</time></trkpt><trkpt lat="41.0819433" lon="9.2890517"><ele>50.0</ele><time>2026-05-02T10:00:40.657Z</time></trkpt><trkpt lat="41.0820267" lon="9.2889217"><ele>50.0</ele><time>2026-05-02T10:00:41.657Z</time></trkpt><trkpt lat="41.0821483" lon="9.2887917"><ele>49.0</ele><time>2026-05-02T10:00:42.657Z</time></trkpt><trkpt lat="41.0822433" lon="9.2886767"><ele>48.0</ele><time>2026-05-02T10:00:43.657Z</time></trkpt><trkpt lat="41.0822883" lon="9.28854"><ele>47.0</ele><time>2026-05-02T10:00:44.657Z</time></trkpt><trkpt lat="41.082335" lon="9.2884133"><ele>46.0</ele><time>2026-05-02T10:00:45.657Z</time></trkpt><trkpt lat="41.0823633" lon="9.2882733"><ele>46.0</ele><time>2026-05-02T10:00:46.657Z</time></trkpt><trkpt lat="41.082365" lon="9.288135"><ele>46.0</ele><time>2026-05-02T10:00:47.657Z</time></trkpt><trkpt lat="41.082345" lon="9.2879983"><ele>46.0</ele><time>2026-05-02T10:00:48.657Z</time></trkpt><trkpt lat="41.0822867" lon="9.2878717"><ele>46.0</ele><time>2026-05-02T10:00:49.657Z</time></trkpt><trkpt lat="41.0821533" lon="9.2878033"><ele>40.333333333333336</ele><time>2026-05-02T10:00:50.657Z</time></trkpt><trkpt lat="41.0819917" lon="9.2877667"><ele>34.666666666666664</ele><time>2026-05-02T10:00:51.657Z</time></trkpt><trkpt lat="41.0818183" lon="9.28775"><ele>29.0</ele><time>2026-05-02T10:00:52.657Z</time></trkpt><trkpt lat="41.0816783" lon="9.287695"><ele>30.0</ele><time>2026-05-02T10:00:53.657Z</time></trkpt><trkpt lat="41.0815467" lon="9.2876433"><ele>31.0</ele><time>2026-05-02T10:00:54.657Z</time></trkpt><trkpt lat="41.0814133" lon="9.287565"><ele>32.0</ele><time>2026-05-02T10:00:55.657Z</time></trkpt><trkpt lat="41.0813067" lon="9.2874667"><ele>33.0</ele><time>2026-05-02T10:00:56.657Z</time></trkpt><trkpt lat="41.08123" lon="9.2873733"><ele>29.75</ele><time>2026-05-02T10:00:57.657Z</time></trkpt><trkpt lat="41.0811567" lon="9.287245"><ele>26.5</ele><time>2026-05-02T10:00:58.657Z</time></trkpt><trkpt lat="41.0811267" lon="9.287115"><ele>23.25</ele><time>2026-05-02T10:00:59.657Z</time></trkpt><trkpt lat="41.0811167" lon="9.28695"><ele>20.0</ele><time>2026-05-02T10:01:00.658Z</time></trkpt><trkpt lat="41.0811317" lon="9.2867867"><ele>20.0</ele><time>2026-05-02T10:01:01.657Z</time></trkpt><trkpt lat="41.0811383" lon="9.286625"><ele>20.0</ele><time>2026-05-02T10:01:02.657Z</time></trkpt><trkpt lat="41.0811517" lon="9.286455"><ele>20.0</ele><time>2026-05-02T10:01:03.657Z</time></trkpt><trkpt lat="41.0811567" lon="9.2863067"><ele>20.0</ele><time>2026-05-02T10:01:04.657Z</time></trkpt><trkpt lat="41.0811567" lon="9.286155"><ele>21.0</ele><time>2026-05-02T10:01:05.657Z</time></trkpt><trkpt lat="41.0811633" lon="9.28601"><ele>22.0</ele><time>2026-05-02T10:01:06.657Z</time></trkpt><trkpt lat="41.0811633" lon="9.2858717"><ele>23.0</ele><time>2026-05-02T10:01:07.657Z</time></trkpt><trkpt lat="41.0811817" lon="9.2857167"><ele>24.0</ele><time>2026-05-02T10:01:08.657Z</time></trkpt><trkpt lat="41.0812233" lon="9.2855967"><ele>25.0</ele><time>2026-05-02T10:01:09.657Z</time></trkpt><trkpt lat="41.08127" lon="9.285505"><ele>27.333333333333336</ele><time>2026-05-02T10:01:10.657Z</time></trkpt><trkpt lat="41.0813733" lon="9.2854583"><ele>29.666666666666664</ele><time>2026-05-02T10:01:11.657Z</time></trkpt><trkpt lat="41.0815217" lon="9.2854267"><ele>32.0</ele><time>2026-05-02T10:01:12.657Z</time></trkpt><trkpt lat="41.08177" lon="9.2854583"><ele>32.0</ele><time>2026-05-02T10:01:13.657Z</time></trkpt><trkpt lat="41.0820033" lon="9.2855017"><ele>32.0</ele><time>2026-05-02T10:01:14.657Z</time></trkpt><trkpt lat="41.08221" lon="9.28552"><ele>32.0</ele><time>2026-05-02T10:01:15.657Z</time></trkpt><trkpt lat="41.0824433" lon="9.28556"><ele>34.0</ele><time>2026-05-02T10:01:16.657Z</time></trkpt><trkpt lat="41.082625" lon="9.285565"><ele>36.0</ele><time>2026-05-02T10:01:17.657Z</time></trkpt><trkpt lat="41.082775" lon="9.285525"><ele>38.0</ele><time>2026-05-02T10:01:18.657Z</time></trkpt><trkpt lat="41.0829183" lon="9.2854383"><ele>38.0</ele><time>2026-05-02T10:01:19.657Z</time></trkpt><trkpt lat="41.0830867" lon="9.28538"><ele>38.0</ele><time>2026-05-02T10:01:20.657Z</time></trkpt><trkpt lat="41.08325" lon="9.2853167"><ele>38.0</ele><time>2026-05-02T10:01:21.657Z</time></trkpt><trkpt lat="41.0833933" lon="9.285275"><ele>39.0</ele><time>2026-05-02T10:01:22.657Z</time></trkpt><trkpt lat="41.0835317" lon="9.28524"><ele>40.0</ele><time>2026-05-02T10:01:23.657Z</time></trkpt><trkpt lat="41.0836667" lon="9.2852433"><ele>41.0</ele><time>2026-05-02T10:01:24.657Z</time></trkpt><trkpt lat="41.083785" lon="9.2852567"><ele>42.0</ele><time>2026-05-02T10:01:25.657Z</time></trkpt><trkpt lat="41.0838833" lon="9.2852967"><ele>42.0</ele><time>2026-05-02T10:01:26.657Z</time></trkpt><trkpt lat="41.0839783" lon="9.2853567"><ele>42.0</ele><time>2026-05-02T10:01:27.657Z</time></trkpt><trkpt lat="41.084075" lon="9.2854483"><ele>42.0</ele><time>2026-05-02T10:01:28.657Z</time></trkpt><trkpt lat="41.084165" lon="9.2855833"><ele>42.0</ele><time>2026-05-02T10:01:29.657Z</time></trkpt><trkpt lat="41.08426" lon="9.2857267"><ele>41.0</ele><time>2026-05-02T10:01:30.657Z</time></trkpt><trkpt lat="41.0843717" lon="9.2858717"><ele>40.0</ele><time>2026-05-02T10:01:31.657Z</time></trkpt><trkpt lat="41.0845" lon="9.2860017"><ele>39.0</ele><time>2026-05-02T10:01:32.657Z</time></trkpt><trkpt lat="41.0846617" lon="9.2861133"><ele>39.0</ele><time>2026-05-02T10:01:33.657Z</time></trkpt><trkpt lat="41.0848333" lon="9.2861983"><ele>39.0</ele><time>2026-05-02T10:01:34.657Z</time></trkpt><trkpt lat="41.0850033" lon="9.28625"><ele>39.0</ele><time>2026-05-02T10:01:35.657Z</time></trkpt><trkpt lat="41.08518" lon="9.2862733"><ele>42.66666666666667</ele><time>2026-05-02T10:01:36.657Z</time></trkpt><trkpt lat="41.0853517" lon="9.2862383"><ele>46.333333333333336</ele><time>2026-05-02T10:01:37.657Z</time></trkpt><trkpt lat="41.08552" lon="9.2861633"><ele>50.0</ele><time>2026-05-02T10:01:38.657Z</time></trkpt><trkpt lat="41.0856683" lon="9.2860283"><ele>48.0</ele><time>2026-05-02T10:01:39.657Z</time></trkpt><trkpt lat="41.0858133" lon="9.2859467"><ele>46.0</ele><time>2026-05-02T10:01:40.657Z</time></trkpt><trkpt lat="41.0859583" lon="9.285895"><ele>44.0</ele><time>2026-05-02T10:01:41.657Z</time></trkpt><trkpt lat="41.086105" lon="9.285865"><ele>44.0</ele><time>2026-05-02T10:01:42.657Z</time></trkpt><trkpt lat="41.0862567" lon="9.285815"><ele>44.0</ele><time>2026-05-02T10:01:43.657Z</time></trkpt><trkpt lat="41.0863983" lon="9.2857683"><ele>44.0</ele><time>2026-05-02T10:01:44.657Z</time></trkpt><trkpt lat="41.0865383" lon="9.28568"><ele>44.33333333333333</ele><time>2026-05-02T10:01:45.657Z</time></trkpt><trkpt lat="41.086685" lon="9.2856333"><ele>44.666666666666664</ele><time>2026-05-02T10:01:46.657Z</time></trkpt><trkpt lat="41.0868417" lon="9.285625"><ele>45.0</ele><time>2026-05-02T10:01:47.657Z</time></trkpt><trkpt lat="41.0869867" lon="9.2856267"><ele>45.0</ele><time>2026-05-02T10:01:48.657Z</time></trkpt><trkpt lat="41.0871283" lon="9.28565"><ele>45.0</ele><time>2026-05-02T10:01:49.657Z</time></trkpt><trkpt lat="41.0872633" lon="9.2857"><ele>45.0</ele><time>2026-05-02T10:01:50.657Z</time></trkpt><trkpt lat="41.0873917" lon="9.2857717"><ele>45.0</ele><time>2026-05-02T10:01:51.657Z</time></trkpt><trkpt lat="41.08754" lon="9.28588"><ele>48.66666666666667</ele><time>2026-05-02T10:01:52.657Z</time></trkpt><trkpt lat="41.0876917" lon="9.2859683"><ele>52.333333333333336</ele><time>2026-05-02T10:01:53.657Z</time></trkpt><trkpt lat="41.0878483" lon="9.286015"><ele>56.0</ele><time>2026-05-02T10:01:54.657Z</time></trkpt><trkpt lat="41.0880117" lon="9.286045"><ele>56.0</ele><time>2026-05-02T10:01:55.658Z</time></trkpt><trkpt lat="41.088175" lon="9.2860533"><ele>56.0</ele><time>2026-05-02T10:01:56.657Z</time></trkpt><trkpt lat="41.0883183" lon="9.2859983"><ele>56.0</ele><time>2026-05-02T10:01:57.657Z</time></trkpt><trkpt lat="41.0884633" lon="9.2859733"><ele>56.0</ele><time>2026-05-02T10:01:58.657Z</time></trkpt><trkpt lat="41.0885817" lon="9.2858533"><ele>56.0</ele><time>2026-05-02T10:01:59.657Z</time></trkpt><trkpt lat="41.0886717" lon="9.2856917"><ele>56.0</ele><time>2026-05-02T10:02:00.657Z</time></trkpt><trkpt lat="41.0887917" lon="9.28559"><ele>56.0</ele><time>2026-05-02T10:02:01.657Z</time></trkpt><trkpt lat="41.0889017" lon="9.2855167"><ele>57.4</ele><time>2026-05-02T10:02:02.658Z</time></trkpt><trkpt lat="41.0889867" lon="9.2854383"><ele>58.8</ele><time>2026-05-02T10:02:03.657Z</time></trkpt><trkpt lat="41.0890917" lon="9.2854333"><ele>60.199999999999996</ele><time>2026-05-02T10:02:04.658Z</time></trkpt><trkpt lat="41.08919" lon="9.285485"><ele>61.599999999999994</ele><time>2026-05-02T10:02:05.657Z</time></trkpt><trkpt lat="41.0892683" lon="9.285585"><ele>63.0</ele><time>2026-05-02T10:02:06.657Z</time></trkpt><trkpt lat="41.0893433" lon="9.285705"><ele>63.0</ele><time>2026-05-02T10:02:07.657Z</time></trkpt><trkpt lat="41.0893683" lon="9.2859033"><ele>63.0</ele><time>2026-05-02T10:02:08.657Z</time></trkpt><trkpt lat="41.0894783" lon="9.28592"><ele>63.0</ele><time>2026-05-02T10:02:09.657Z</time></trkpt><trkpt lat="41.089595" lon="9.2859067"><ele>63.0</ele><time>2026-05-02T10:02:10.657Z</time></trkpt><trkpt lat="41.0897333" lon="9.2858567"><ele>63.0</ele><time>2026-05-02T10:02:11.657Z</time></trkpt><trkpt lat="41.08988" lon="9.2857683"><ele>63.0</ele><time>2026-05-02T10:02:12.657Z</time></trkpt><trkpt lat="41.090045" lon="9.2856667"><ele>63.0</ele><time>2026-05-02T10:02:13.657Z</time></trkpt><trkpt lat="41.090215" lon="9.285595"><ele>67.33333333333333</ele><time>2026-05-02T10:02:14.657Z</time></trkpt><trkpt lat="41.0903783" lon="9.285535"><ele>71.66666666666666</ele><time>2026-05-02T10:02:15.657Z</time></trkpt><trkpt lat="41.090545" lon="9.2854833"><ele>76.0</ele><time>2026-05-02T10:02:16.657Z</time></trkpt><trkpt lat="41.0907233" lon="9.2854233"><ele>75.0</ele><time>2026-05-02T10:02:17.657Z</time></trkpt><trkpt lat="41.09089" lon="9.285355"><ele>74.0</ele><time>2026-05-02T10:02:18.657Z</time></trkpt><trkpt lat="41.09104" lon="9.2852717"><ele>73.0</ele><time>2026-05-02T10:02:19.657Z</time></trkpt><trkpt lat="41.0912017" lon="9.2851967"><ele>73.0</ele><time>2026-05-02T10:02:20.657Z</time></trkpt><trkpt lat="41.0913583" lon="9.2850967"><ele>73.0</ele><time>2026-05-02T10:02:21.657Z</time></trkpt><trkpt lat="41.0915067" lon="9.2849833"><ele>73.0</ele><time>2026-05-02T10:02:22.657Z</time></trkpt><trkpt lat="41.091645" lon="9.2848367"><ele>77.33333333333333</ele><time>2026-05-02T10:02:23.657Z</time></trkpt><trkpt lat="41.091775" lon="9.2847033"><ele>81.66666666666667</ele><time>2026-05-02T10:02:24.657Z</time></trkpt><trkpt lat="41.0919017" lon="9.284595"><ele>86.0</ele><time>2026-05-02T10:02:25.657Z</time></trkpt><trkpt lat="41.09205" lon="9.28449"><ele>86.0</ele><time>2026-05-02T10:02:26.657Z</time></trkpt><trkpt lat="41.0921917" lon="9.284385"><ele>86.0</ele><time>2026-05-02T10:02:27.657Z</time></trkpt><trkpt lat="41.0923367" lon="9.2842933"><ele>86.0</ele><time>2026-05-02T10:02:28.657Z</time></trkpt><trkpt lat="41.09248" lon="9.2841933"><ele>86.66666666666667</ele><time>2026-05-02T10:02:29.657Z</time></trkpt><trkpt lat="41.0926133" lon="9.28408"><ele>87.33333333333333</ele><time>2026-05-02T10:02:30.657Z</time></trkpt><trkpt lat="41.0927267" lon="9.283945"><ele>88.0</ele><time>2026-05-02T10:02:31.657Z</time></trkpt><trkpt lat="41.092855" lon="9.28382"><ele>88.0</ele><time>2026-05-02T10:02:32.657Z</time></trkpt><trkpt lat="41.092985" lon="9.2836717"><ele>88.0</ele><time>2026-05-02T10:02:33.657Z</time></trkpt><trkpt lat="41.0931033" lon="9.283485"><ele>88.0</ele><time>2026-05-02T10:02:34.657Z</time></trkpt><trkpt lat="41.0932067" lon="9.2833117"><ele>87.0</ele><time>2026-05-02T10:02:35.658Z</time></trkpt><trkpt lat="41.09331" lon="9.2831317"><ele>86.0</ele><time>2026-05-02T10:02:36.657Z</time></trkpt><trkpt lat="41.09336" lon="9.2829033"><ele>85.0</ele><time>2026-05-02T10:02:37.657Z</time></trkpt><trkpt lat="41.09344" lon="9.282715"><ele>85.0</ele><time>2026-05-02T10:02:38.657Z</time></trkpt><trkpt lat="41.0935033" lon="9.2825133"><ele>85.0</ele><time>2026-05-02T10:02:39.657Z</time></trkpt><trkpt lat="41.093545" lon="9.2822933"><ele>85.0</ele><time>2026-05-02T10:02:40.657Z</time></trkpt><trkpt lat="41.0935617" lon="9.2820667"><ele>85.33333333333333</ele><time>2026-05-02T10:02:41.657Z</time></trkpt><trkpt lat="41.0935967" lon="9.2818517"><ele>85.66666666666667</ele><time>2026-05-02T10:02:42.657Z</time></trkpt><trkpt lat="41.093615" lon="9.2816267"><ele>86.0</ele><time>2026-05-02T10:02:43.657Z</time></trkpt><trkpt lat="41.093625" lon="9.2814067"><ele>86.66666666666667</ele><time>2026-05-02T10:02:44.657Z</time></trkpt><trkpt lat="41.0936233" lon="9.2811783"><ele>87.33333333333333</ele><time>2026-05-02T10:02:45.657Z</time></trkpt><trkpt lat="41.0936333" lon="9.280955"><ele>88.0</ele><time>2026-05-02T10:02:46.657Z</time></trkpt><trkpt lat="41.0936283" lon="9.2807183"><ele>88.66666666666666</ele><time>2026-05-02T10:02:47.657Z</time></trkpt><trkpt lat="41.0936583" lon="9.2805"><ele>89.33333333333333</ele><time>2026-05-02T10:02:48.657Z</time></trkpt><trkpt lat="41.0936983" lon="9.2802817"><ele>90.0</ele><time>2026-05-02T10:02:49.657Z</time></trkpt><trkpt lat="41.0937483" lon="9.28006"><ele>90.0</ele><time>2026-05-02T10:02:50.657Z</time></trkpt><trkpt lat="41.093805" lon="9.2798417"><ele>90.0</ele><time>2026-05-02T10:02:51.657Z</time></trkpt><trkpt lat="41.093855" lon="9.2796233"><ele>90.0</ele><time>2026-05-02T10:02:52.658Z</time></trkpt><trkpt lat="41.0939117" lon="9.27942"><ele>91.66666666666667</ele><time>2026-05-02T10:02:53.657Z</time></trkpt><trkpt lat="41.0939683" lon="9.2792117"><ele>93.33333333333334</ele><time>2026-05-02T10:02:54.657Z</time></trkpt><trkpt lat="41.09402" lon="9.2790017"><ele>95.0</ele><time>2026-05-02T10:02:55.657Z</time></trkpt><trkpt lat="41.0940767" lon="9.27879"><ele>98.0</ele><time>2026-05-02T10:02:56.657Z</time></trkpt><trkpt lat="41.0941283" lon="9.2785867"><ele>101.0</ele><time>2026-05-02T10:02:57.657Z</time></trkpt><trkpt lat="41.0941833" lon="9.2783783"><ele>104.0</ele><time>2026-05-02T10:02:58.657Z</time></trkpt><trkpt lat="41.0942267" lon="9.2781517"><ele>103.66666666666666</ele><time>2026-05-02T10:02:59.657Z</time></trkpt><trkpt lat="41.0942433" lon="9.2779283"><ele>103.33333333333334</ele><time>2026-05-02T10:03:00.657Z</time></trkpt><trkpt lat="41.0943017" lon="9.2777233"><ele>103.0</ele><time>2026-05-02T10:03:01.657Z</time></trkpt><trkpt lat="41.0944117" lon="9.2775367"><ele>103.0</ele><time>2026-05-02T10:03:02.657Z</time></trkpt><trkpt lat="41.0944967" lon="9.2773483"><ele>103.0</ele><time>2026-05-02T10:03:03.657Z</time></trkpt><trkpt lat="41.0945833" lon="9.2771667"><ele>103.0</ele><time>2026-05-02T10:03:04.657Z</time></trkpt><trkpt lat="41.0946633" lon="9.27699"><ele>104.33333333333334</ele><time>2026-05-02T10:03:05.657Z</time></trkpt><trkpt lat="41.094745" lon="9.27681"><ele>105.66666666666666</ele><time>2026-05-02T10:03:06.657Z</time></trkpt><trkpt lat="41.0948317" lon="9.2766217"><ele>107.0</ele><time>2026-05-02T10:03:07.657Z</time></trkpt><trkpt lat="41.094915" lon="9.2764317"><ele>110.33333333333333</ele><time>2026-05-02T10:03:08.657Z</time></trkpt><trkpt lat="41.0949933" lon="9.27625"><ele>113.66666666666666</ele><time>2026-05-02T10:03:09.657Z</time></trkpt><trkpt lat="41.09506" lon="9.2760683"><ele>117.0</ele><time>2026-05-02T10:03:10.657Z</time></trkpt><trkpt lat="41.09511" lon="9.2758867"><ele>117.0</ele><time>2026-05-02T10:03:11.657Z</time></trkpt><trkpt lat="41.0951533" lon="9.2757083"><ele>117.0</ele><time>2026-05-02T10:03:12.657Z</time></trkpt><trkpt lat="41.095175" lon="9.2755317"><ele>117.0</ele><time>2026-05-02T10:03:13.657Z</time></trkpt><trkpt lat="41.0951767" lon="9.2753583"><ele>117.0</ele><time>2026-05-02T10:03:14.657Z</time></trkpt><trkpt lat="41.095175" lon="9.2752083"><ele>117.6</ele><time>2026-05-02T10:03:15.658Z</time></trkpt><trkpt lat="41.0951917" lon="9.275065"><ele>118.19999999999999</ele><time>2026-05-02T10:03:16.657Z</time></trkpt><trkpt lat="41.0952217" lon="9.2749233"><ele>118.8</ele><time>2026-05-02T10:03:17.657Z</time></trkpt><trkpt lat="41.0952583" lon="9.274785"><ele>119.4</ele><time>2026-05-02T10:03:18.657Z</time></trkpt><trkpt lat="41.0952883" lon="9.2746617"><ele>120.0</ele><time>2026-05-02T10:03:19.657Z</time></trkpt><trkpt lat="41.09532" lon="9.274545"><ele>121.0</ele><time>2026-05-02T10:03:20.656Z</time></trkpt><trkpt lat="41.09535" lon="9.2744433"><ele>122.0</ele><time>2026-05-02T10:03:21.657Z</time></trkpt><trkpt lat="41.0953767" lon="9.2743583"><ele>123.0</ele><time>2026-05-02T10:03:22.656Z</time></trkpt><trkpt lat="41.095415" lon="9.2742267"><ele>124.0</ele><time>2026-05-02T10:03:24.656Z</time></trkpt><trkpt lat="41.0954" lon="9.2741417"><ele>125.0</ele><time>2026-05-02T10:03:26.656Z</time></trkpt><trkpt lat="41.0952883" lon="9.2741067"><ele>126.0</ele><time>2026-05-02T10:03:28.656Z</time></trkpt><trkpt lat="41.09521" lon="9.2740883"><ele>126.0</ele><time>2026-05-02T10:03:29.656Z</time></trkpt><trkpt lat="41.0951183" lon="9.2740733"><ele>126.0</ele><time>2026-05-02T10:03:30.656Z</time></trkpt><trkpt lat="41.09501" lon="9.2740567"><ele>126.0</ele><time>2026-05-02T10:03:31.656Z</time></trkpt><trkpt lat="41.0949017" lon="9.274025"><ele>126.0</ele><time>2026-05-02T10:03:32.656Z</time></trkpt><trkpt lat="41.0947967" lon="9.2739933"><ele>126.0</ele><time>2026-05-02T10:03:33.656Z</time></trkpt><trkpt lat="41.0946883" lon="9.2739683"><ele>125.83333333333333</ele><time>2026-05-02T10:03:34.657Z</time></trkpt><trkpt lat="41.0945883" lon="9.2739667"><ele>125.66666666666666</ele><time>2026-05-02T10:03:35.657Z</time></trkpt><trkpt lat="41.0944933" lon="9.2739817"><ele>125.5</ele><time>2026-05-02T10:03:36.656Z</time></trkpt><trkpt lat="41.094395" lon="9.2739867"><ele>125.33333333333333</ele><time>2026-05-02T10:03:37.656Z</time></trkpt><trkpt lat="41.094325" lon="9.2739833"><ele>125.16666666666666</ele><time>2026-05-02T10:03:38.656Z</time></trkpt><trkpt lat="41.0942567" lon="9.27397"><ele>125.0</ele><time>2026-05-02T10:03:39.656Z</time></trkpt><trkpt lat="41.09415" lon="9.27389"><ele>125.4</ele><time>2026-05-02T10:03:41.656Z</time></trkpt><trkpt lat="41.0941183" lon="9.273805"><ele>125.8</ele><time>2026-05-02T10:03:42.656Z</time></trkpt><trkpt lat="41.09408" lon="9.2736983"><ele>126.19999999999999</ele><time>2026-05-02T10:03:43.656Z</time></trkpt><trkpt lat="41.0940283" lon="9.2735883"><ele>126.6</ele><time>2026-05-02T10:03:44.656Z</time></trkpt><trkpt lat="41.0939767" lon="9.27344"><ele>127.0</ele><time>2026-05-02T10:03:45.656Z</time></trkpt><trkpt lat="41.0939133" lon="9.2732733"><ele>128.33333333333334</ele><time>2026-05-02T10:03:46.656Z</time></trkpt><trkpt lat="41.0938383" lon="9.2730783"><ele>129.66666666666666</ele><time>2026-05-02T10:03:47.656Z</time></trkpt><trkpt lat="41.0937633" lon="9.2728867"><ele>131.0</ele><time>2026-05-02T10:03:48.656Z</time></trkpt><trkpt lat="41.0936933" lon="9.272715"><ele>131.0</ele><time>2026-05-02T10:03:49.656Z</time></trkpt><trkpt lat="41.093625" lon="9.27255"><ele>131.0</ele><time>2026-05-02T10:03:50.656Z</time></trkpt><trkpt lat="41.0935667" lon="9.272405"><ele>131.0</ele><time>2026-05-02T10:03:51.656Z</time></trkpt><trkpt lat="41.0935017" lon="9.2722667"><ele>131.0</ele><time>2026-05-02T10:03:52.656Z</time></trkpt><trkpt lat="41.09343" lon="9.2721517"><ele>131.75</ele><time>2026-05-02T10:03:53.656Z</time></trkpt><trkpt lat="41.093385" lon="9.2720083"><ele>132.5</ele><time>2026-05-02T10:03:54.656Z</time></trkpt><trkpt lat="41.0933383" lon="9.2718483"><ele>133.25</ele><time>2026-05-02T10:03:55.656Z</time></trkpt><trkpt lat="41.0933" lon="9.2716983"><ele>134.0</ele><time>2026-05-02T10:03:56.656Z</time></trkpt><trkpt lat="41.0932617" lon="9.2715633"><ele>134.2</ele><time>2026-05-02T10:03:57.656Z</time></trkpt><trkpt lat="41.0932217" lon="9.2714417"><ele>134.4</ele><time>2026-05-02T10:03:58.656Z</time></trkpt><trkpt lat="41.093175" lon="9.2713467"><ele>134.6</ele><time>2026-05-02T10:03:59.656Z</time></trkpt><trkpt lat="41.0931217" lon="9.27128"><ele>134.8</ele><time>2026-05-02T10:04:00.656Z</time></trkpt><trkpt lat="41.09302" lon="9.2712317"><ele>135.0</ele><time>2026-05-02T10:04:02.656Z</time></trkpt><trkpt lat="41.0929583" lon="9.2711167"><ele>135.2</ele><time>2026-05-02T10:04:04.656Z</time></trkpt><trkpt lat="41.0929" lon="9.2710167"><ele>135.4</ele><time>2026-05-02T10:04:06.656Z</time></trkpt><trkpt lat="41.09288" lon="9.270915"><ele>135.6</ele><time>2026-05-02T10:04:08.656Z</time></trkpt><trkpt lat="41.0929317" lon="9.270805"><ele>135.8</ele><time>2026-05-02T10:04:10.656Z</time></trkpt><trkpt lat="41.0929933" lon="9.2707367"><ele>136.0</ele><time>2026-05-02T10:04:11.657Z</time></trkpt><trkpt lat="41.0930883" lon="9.270665"><ele>136.0</ele><time>2026-05-02T10:04:12.656Z</time></trkpt><trkpt lat="41.0932117" lon="9.2705933"><ele>136.0</ele><time>2026-05-02T10:04:13.656Z</time></trkpt><trkpt lat="41.0933333" lon="9.270515"><ele>136.0</ele><time>2026-05-02T10:04:14.656Z</time></trkpt><trkpt lat="41.0934267" lon="9.270415"><ele>136.0</ele><time>2026-05-02T10:04:15.656Z</time></trkpt><trkpt lat="41.0935083" lon="9.2702933"><ele>136.0</ele><time>2026-05-02T10:04:16.657Z</time></trkpt><trkpt lat="41.09357" lon="9.2701467"><ele>136.0</ele><time>2026-05-02T10:04:17.656Z</time></trkpt><trkpt lat="41.0936067" lon="9.269985"><ele>136.0</ele><time>2026-05-02T10:04:18.656Z</time></trkpt><trkpt lat="41.0936417" lon="9.2698117"><ele>136.0</ele><time>2026-05-02T10:04:19.656Z</time></trkpt><trkpt lat="41.093665" lon="9.2696267"><ele>136.0</ele><time>2026-05-02T10:04:20.656Z</time></trkpt><trkpt lat="41.093665" lon="9.269435"><ele>136.0</ele><time>2026-05-02T10:04:21.656Z</time></trkpt><trkpt lat="41.0936683" lon="9.2692383"><ele>136.0</ele><time>2026-05-02T10:04:22.656Z</time></trkpt><trkpt lat="41.09361" lon="9.2690633"><ele>136.0</ele><time>2026-05-02T10:04:23.656Z</time></trkpt><trkpt lat="41.093555" lon="9.26887"><ele>135.75</ele><time>2026-05-02T10:04:24.656Z</time></trkpt><trkpt lat="41.0935083" lon="9.268695"><ele>135.5</ele><time>2026-05-02T10:04:25.656Z</time></trkpt><trkpt lat="41.0934633" lon="9.2685183"><ele>135.25</ele><time>2026-05-02T10:04:26.656Z</time></trkpt><trkpt lat="41.0934183" lon="9.2683467"><ele>135.0</ele><time>2026-05-02T10:04:27.657Z</time></trkpt><trkpt lat="41.09339" lon="9.268175"><ele>134.0</ele><time>2026-05-02T10:04:28.656Z</time></trkpt><trkpt lat="41.093365" lon="9.2680167"><ele>133.0</ele><time>2026-05-02T10:04:29.656Z</time></trkpt><trkpt lat="41.0933433" lon="9.267865"><ele>132.0</ele><time>2026-05-02T10:04:30.656Z</time></trkpt><trkpt lat="41.0933333" lon="9.2677183"><ele>131.0</ele><time>2026-05-02T10:04:31.656Z</time></trkpt><trkpt lat="41.0933233" lon="9.2675767"><ele>131.0</ele><time>2026-05-02T10:04:32.656Z</time></trkpt><trkpt lat="41.09333" lon="9.2674217"><ele>131.0</ele><time>2026-05-02T10:04:33.657Z</time></trkpt><trkpt lat="41.0933483" lon="9.267285"><ele>131.0</ele><time>2026-05-02T10:04:34.656Z</time></trkpt><trkpt lat="41.0933733" lon="9.2671667"><ele>131.0</ele><time>2026-05-02T10:04:35.656Z</time></trkpt><trkpt lat="41.0934067" lon="9.2670667"><ele>131.0</ele><time>2026-05-02T10:04:36.656Z</time></trkpt><trkpt lat="41.0934683" lon="9.266985"><ele>130.4</ele><time>2026-05-02T10:04:37.656Z</time></trkpt><trkpt lat="41.0935417" lon="9.2669"><ele>129.8</ele><time>2026-05-02T10:04:38.656Z</time></trkpt><trkpt lat="41.0936033" lon="9.2667783"><ele>129.20000000000002</ele><time>2026-05-02T10:04:39.656Z</time></trkpt><trkpt lat="41.09365" lon="9.2666567"><ele>128.6</ele><time>2026-05-02T10:04:40.656Z</time></trkpt><trkpt lat="41.0936783" lon="9.2665167"><ele>128.0</ele><time>2026-05-02T10:04:41.656Z</time></trkpt><trkpt lat="41.0936883" lon="9.2663583"><ele>127.0</ele><time>2026-05-02T10:04:42.656Z</time></trkpt><trkpt lat="41.0936917" lon="9.2661917"><ele>126.0</ele><time>2026-05-02T10:04:43.656Z</time></trkpt><trkpt lat="41.0936867" lon="9.2660133"><ele>125.0</ele><time>2026-05-02T10:04:44.656Z</time></trkpt><trkpt lat="41.0936783" lon="9.2658533"><ele>124.0</ele><time>2026-05-02T10:04:45.656Z</time></trkpt><trkpt lat="41.0936667" lon="9.265705"><ele>123.0</ele><time>2026-05-02T10:04:46.656Z</time></trkpt><trkpt lat="41.0936717" lon="9.265555"><ele>122.0</ele><time>2026-05-02T10:04:47.656Z</time></trkpt><trkpt lat="41.0936833" lon="9.2653933"><ele>121.0</ele><time>2026-05-02T10:04:48.656Z</time></trkpt><trkpt lat="41.09371" lon="9.2652367"><ele>120.0</ele><time>2026-05-02T10:04:49.656Z</time></trkpt><trkpt lat="41.09374" lon="9.2650733"><ele>120.0</ele><time>2026-05-02T10:04:50.656Z</time></trkpt><trkpt lat="41.09376" lon="9.2648833"><ele>120.0</ele><time>2026-05-02T10:04:51.657Z</time></trkpt><trkpt lat="41.0937767" lon="9.2646967"><ele>120.0</ele><time>2026-05-02T10:04:52.656Z</time></trkpt><trkpt lat="41.0938133" lon="9.2644817"><ele>119.0</ele><time>2026-05-02T10:04:53.656Z</time></trkpt><trkpt lat="41.0938283" lon="9.264285"><ele>118.0</ele><time>2026-05-02T10:04:54.656Z</time></trkpt><trkpt lat="41.0938317" lon="9.2640933"><ele>117.0</ele><time>2026-05-02T10:04:55.657Z</time></trkpt><trkpt lat="41.0938383" lon="9.2639167"><ele>116.0</ele><time>2026-05-02T10:04:56.656Z</time></trkpt><trkpt lat="41.09385" lon="9.2637467"><ele>114.75</ele><time>2026-05-02T10:04:57.656Z</time></trkpt><trkpt lat="41.0938683" lon="9.26359"><ele>113.5</ele><time>2026-05-02T10:04:58.656Z</time></trkpt><trkpt lat="41.093885" lon="9.2634417"><ele>112.25</ele><time>2026-05-02T10:04:59.656Z</time></trkpt><trkpt lat="41.0939133" lon="9.26329"><ele>111.0</ele><time>2026-05-02T10:05:00.656Z</time></trkpt><trkpt lat="41.0939517" lon="9.26314"><ele>111.0</ele><time>2026-05-02T10:05:01.656Z</time></trkpt><trkpt lat="41.0940083" lon="9.2629983"><ele>111.0</ele><time>2026-05-02T10:05:02.656Z</time></trkpt><trkpt lat="41.0940867" lon="9.2628617"><ele>111.0</ele><time>2026-05-02T10:05:03.656Z</time></trkpt><trkpt lat="41.0941783" lon="9.2627383"><ele>111.0</ele><time>2026-05-02T10:05:04.656Z</time></trkpt><trkpt lat="41.0942933" lon="9.2626083"><ele>111.0</ele><time>2026-05-02T10:05:05.656Z</time></trkpt><trkpt lat="41.0944017" lon="9.26249"><ele>111.0</ele><time>2026-05-02T10:05:06.656Z</time></trkpt><trkpt lat="41.0945067" lon="9.2623767"><ele>111.0</ele><time>2026-05-02T10:05:07.656Z</time></trkpt><trkpt lat="41.0946233" lon="9.2622533"><ele>111.0</ele><time>2026-05-02T10:05:08.656Z</time></trkpt><trkpt lat="41.0947367" lon="9.26211"><ele>110.0</ele><time>2026-05-02T10:05:09.656Z</time></trkpt><trkpt lat="41.094845" lon="9.2619683"><ele>109.0</ele><time>2026-05-02T10:05:10.657Z</time></trkpt><trkpt lat="41.0949467" lon="9.2618067"><ele>108.0</ele><time>2026-05-02T10:05:11.656Z</time></trkpt><trkpt lat="41.0950317" lon="9.261635"><ele>108.0</ele><time>2026-05-02T10:05:12.656Z</time></trkpt><trkpt lat="41.09511" lon="9.2614617"><ele>108.0</ele><time>2026-05-02T10:05:13.656Z</time></trkpt><trkpt lat="41.0951583" lon="9.2612767"><ele>108.0</ele><time>2026-05-02T10:05:14.656Z</time></trkpt><trkpt lat="41.0952067" lon="9.2610883"><ele>108.25</ele><time>2026-05-02T10:05:15.656Z</time></trkpt><trkpt lat="41.0952483" lon="9.260905"><ele>108.5</ele><time>2026-05-02T10:05:16.656Z</time></trkpt><trkpt lat="41.09528" lon="9.26073"><ele>108.75</ele><time>2026-05-02T10:05:17.656Z</time></trkpt><trkpt lat="41.0953083" lon="9.260565"><ele>109.0</ele><time>2026-05-02T10:05:18.656Z</time></trkpt><trkpt lat="41.0953183" lon="9.260415"><ele>109.2</ele><time>2026-05-02T10:05:19.656Z</time></trkpt><trkpt lat="41.0953333" lon="9.2602817"><ele>109.4</ele><time>2026-05-02T10:05:20.656Z</time></trkpt><trkpt lat="41.09535" lon="9.2601633"><ele>109.6</ele><time>2026-05-02T10:05:21.656Z</time></trkpt><trkpt lat="41.0953767" lon="9.2600517"><ele>109.8</ele><time>2026-05-02T10:05:22.656Z</time></trkpt><trkpt lat="41.09541" lon="9.259945"><ele>110.0</ele><time>2026-05-02T10:05:23.656Z</time></trkpt><trkpt lat="41.0954617" lon="9.2598433"><ele>108.25</ele><time>2026-05-02T10:05:24.656Z</time></trkpt><trkpt lat="41.095535" lon="9.25976"><ele>106.5</ele><time>2026-05-02T10:05:25.656Z</time></trkpt><trkpt lat="41.09565" lon="9.2597067"><ele>104.75</ele><time>2026-05-02T10:05:26.656Z</time></trkpt><trkpt lat="41.095785" lon="9.2596933"><ele>103.0</ele><time>2026-05-02T10:05:27.656Z</time></trkpt><trkpt lat="41.0959233" lon="9.2596917"><ele>103.0</ele><time>2026-05-02T10:05:28.656Z</time></trkpt><trkpt lat="41.0960417" lon="9.2596633"><ele>103.0</ele><time>2026-05-02T10:05:29.656Z</time></trkpt><trkpt lat="41.0961667" lon="9.2596117"><ele>103.0</ele><time>2026-05-02T10:05:30.656Z</time></trkpt><trkpt lat="41.0962867" lon="9.2595533"><ele>103.0</ele><time>2026-05-02T10:05:31.656Z</time></trkpt><trkpt lat="41.0964117" lon="9.259465"><ele>103.0</ele><time>2026-05-02T10:05:32.656Z</time></trkpt><trkpt lat="41.09652" lon="9.2593533"><ele>103.0</ele><time>2026-05-02T10:05:33.656Z</time></trkpt><trkpt lat="41.0966267" lon="9.25923"><ele>103.0</ele><time>2026-05-02T10:05:34.656Z</time></trkpt><trkpt lat="41.0967317" lon="9.25909"><ele>103.0</ele><time>2026-05-02T10:05:35.656Z</time></trkpt><trkpt lat="41.0968317" lon="9.258965"><ele>99.0</ele><time>2026-05-02T10:05:36.656Z</time></trkpt><trkpt lat="41.0969317" lon="9.2588367"><ele>95.0</ele><time>2026-05-02T10:05:37.656Z</time></trkpt><trkpt lat="41.0970533" lon="9.25871"><ele>91.0</ele><time>2026-05-02T10:05:38.656Z</time></trkpt><trkpt lat="41.0971483" lon="9.2585783"><ele>87.0</ele><time>2026-05-02T10:05:39.656Z</time></trkpt><trkpt lat="41.0972383" lon="9.25845"><ele>87.0</ele><time>2026-05-02T10:05:40.656Z</time></trkpt><trkpt lat="41.09732" lon="9.2583217"><ele>87.0</ele><time>2026-05-02T10:05:41.656Z</time></trkpt><trkpt lat="41.0974" lon="9.2582"><ele>87.0</ele><time>2026-05-02T10:05:42.656Z</time></trkpt><trkpt lat="41.0974867" lon="9.25809"><ele>87.0</ele><time>2026-05-02T10:05:43.657Z</time></trkpt><trkpt lat="41.0975783" lon="9.25798"><ele>84.25</ele><time>2026-05-02T10:05:44.656Z</time></trkpt><trkpt lat="41.0976867" lon="9.2578733"><ele>81.5</ele><time>2026-05-02T10:05:45.656Z</time></trkpt><trkpt lat="41.0978017" lon="9.2577567"><ele>78.75</ele><time>2026-05-02T10:05:46.656Z</time></trkpt><trkpt lat="41.0979233" lon="9.2576533"><ele>76.0</ele><time>2026-05-02T10:05:47.656Z</time></trkpt><trkpt lat="41.09804" lon="9.25756"><ele>76.0</ele><time>2026-05-02T10:05:48.656Z</time></trkpt><trkpt lat="41.0981583" lon="9.257465"><ele>76.0</ele><time>2026-05-02T10:05:49.656Z</time></trkpt><trkpt lat="41.098275" lon="9.2573717"><ele>76.0</ele><time>2026-05-02T10:05:50.656Z</time></trkpt><trkpt lat="41.09839" lon="9.2572683"><ele>76.0</ele><time>2026-05-02T10:05:51.656Z</time></trkpt><trkpt lat="41.0984983" lon="9.257135"><ele>74.33333333333333</ele><time>2026-05-02T10:05:52.656Z</time></trkpt><trkpt lat="41.09859" lon="9.2569833"><ele>72.66666666666667</ele><time>2026-05-02T10:05:53.656Z</time></trkpt><trkpt lat="41.0986567" lon="9.2567967"><ele>71.0</ele><time>2026-05-02T10:05:54.656Z</time></trkpt><trkpt lat="41.0987133" lon="9.2566"><ele>71.25</ele><time>2026-05-02T10:05:55.656Z</time></trkpt><trkpt lat="41.098765" lon="9.256405"><ele>71.5</ele><time>2026-05-02T10:05:56.656Z</time></trkpt><trkpt lat="41.0987983" lon="9.2562283"><ele>71.75</ele><time>2026-05-02T10:05:57.656Z</time></trkpt><trkpt lat="41.0988483" lon="9.256045"><ele>72.0</ele><time>2026-05-02T10:05:58.657Z</time></trkpt><trkpt lat="41.09889" lon="9.2558817"><ele>72.0</ele><time>2026-05-02T10:05:59.656Z</time></trkpt><trkpt lat="41.0989217" lon="9.2557367"><ele>72.0</ele><time>2026-05-02T10:06:00.656Z</time></trkpt><trkpt lat="41.0989533" lon="9.2556017"><ele>72.0</ele><time>2026-05-02T10:06:01.656Z</time></trkpt><trkpt lat="41.09901" lon="9.2554783"><ele>72.0</ele><time>2026-05-02T10:06:02.656Z</time></trkpt><trkpt lat="41.0990767" lon="9.2553767"><ele>72.0</ele><time>2026-05-02T10:06:03.657Z</time></trkpt><trkpt lat="41.0991683" lon="9.2552967"><ele>72.0</ele><time>2026-05-02T10:06:04.656Z</time></trkpt><trkpt lat="41.0992517" lon="9.2552517"><ele>72.0</ele><time>2026-05-02T10:06:05.656Z</time></trkpt><trkpt lat="41.0993383" lon="9.2552283"><ele>72.0</ele><time>2026-05-02T10:06:06.656Z</time></trkpt><trkpt lat="41.0994233" lon="9.2552167"><ele>72.0</ele><time>2026-05-02T10:06:07.656Z</time></trkpt><trkpt lat="41.099495" lon="9.255225"><ele>72.0</ele><time>2026-05-02T10:06:08.656Z</time></trkpt><trkpt lat="41.099565" lon="9.2552333"><ele>72.0</ele><time>2026-05-02T10:06:09.656Z</time></trkpt><trkpt lat="41.0996517" lon="9.25524"><ele>72.0</ele><time>2026-05-02T10:06:11.656Z</time></trkpt><trkpt lat="41.0996667" lon="9.2551017"><ele>72.0</ele><time>2026-05-02T10:06:14.656Z</time></trkpt><trkpt lat="41.0996483" lon="9.2550067"><ele>72.0</ele><time>2026-05-02T10:06:15.656Z</time></trkpt><trkpt lat="41.09961" lon="9.2548733"><ele>72.0</ele><time>2026-05-02T10:06:16.656Z</time></trkpt><trkpt lat="41.09957" lon="9.25471"><ele>72.0</ele><time>2026-05-02T10:06:17.656Z</time></trkpt><trkpt lat="41.0995067" lon="9.2545133"><ele>72.66666666666667</ele><time>2026-05-02T10:06:18.656Z</time></trkpt><trkpt lat="41.09944" lon="9.2543017"><ele>73.33333333333334</ele><time>2026-05-02T10:06:19.656Z</time></trkpt><trkpt lat="41.099385" lon="9.2540983"><ele>74.0</ele><time>2026-05-02T10:06:20.656Z</time></trkpt><trkpt lat="41.0993167" lon="9.2539183"><ele>75.66666666666667</ele><time>2026-05-02T10:06:21.656Z</time></trkpt><trkpt lat="41.099215" lon="9.25376"><ele>77.33333333333333</ele><time>2026-05-02T10:06:22.656Z</time></trkpt><trkpt lat="41.0990883" lon="9.253625"><ele>79.0</ele><time>2026-05-02T10:06:23.656Z</time></trkpt><trkpt lat="41.098945" lon="9.2534967"><ele>79.25</ele><time>2026-05-02T10:06:24.656Z</time></trkpt><trkpt lat="41.0988067" lon="9.2534067"><ele>79.5</ele><time>2026-05-02T10:06:25.656Z</time></trkpt><trkpt lat="41.0986633" lon="9.25338"><ele>79.75</ele><time>2026-05-02T10:06:26.656Z</time></trkpt><trkpt lat="41.0985167" lon="9.2533383"><ele>80.0</ele><time>2026-05-02T10:06:27.656Z</time></trkpt><trkpt lat="41.09838" lon="9.25326"><ele>79.75</ele><time>2026-05-02T10:06:28.656Z</time></trkpt><trkpt lat="41.0982483" lon="9.253165"><ele>79.5</ele><time>2026-05-02T10:06:29.656Z</time></trkpt><trkpt lat="41.098135" lon="9.25305"><ele>79.25</ele><time>2026-05-02T10:06:30.656Z</time></trkpt><trkpt lat="41.098035" lon="9.2529017"><ele>79.0</ele><time>2026-05-02T10:06:31.656Z</time></trkpt><trkpt lat="41.0979667" lon="9.2527267"><ele>78.75</ele><time>2026-05-02T10:06:32.656Z</time></trkpt><trkpt lat="41.097905" lon="9.2525567"><ele>78.5</ele><time>2026-05-02T10:06:33.656Z</time></trkpt><trkpt lat="41.0978417" lon="9.252385"><ele>78.25</ele><time>2026-05-02T10:06:34.657Z</time></trkpt><trkpt lat="41.0977717" lon="9.25221"><ele>78.0</ele><time>2026-05-02T10:06:35.656Z</time></trkpt><trkpt lat="41.0977017" lon="9.252015"><ele>78.66666666666667</ele><time>2026-05-02T10:06:36.656Z</time></trkpt><trkpt lat="41.097635" lon="9.2518183"><ele>79.33333333333334</ele><time>2026-05-02T10:06:37.656Z</time></trkpt><trkpt lat="41.097565" lon="9.2516283"><ele>80.0</ele><time>2026-05-02T10:06:38.656Z</time></trkpt><trkpt lat="41.0974917" lon="9.2514367"><ele>78.66666666666667</ele><time>2026-05-02T10:06:39.656Z</time></trkpt><trkpt lat="41.0974017" lon="9.25128"><ele>77.33333333333333</ele><time>2026-05-02T10:06:40.656Z</time></trkpt><trkpt lat="41.0973233" lon="9.251095"><ele>76.0</ele><time>2026-05-02T10:06:41.656Z</time></trkpt><trkpt lat="41.0972433" lon="9.250905"><ele>76.0</ele><time>2026-05-02T10:06:42.656Z</time></trkpt><trkpt lat="41.09717" lon="9.2507133"><ele>76.0</ele><time>2026-05-02T10:06:43.656Z</time></trkpt><trkpt lat="41.0970983" lon="9.2505067"><ele>76.0</ele><time>2026-05-02T10:06:44.656Z</time></trkpt><trkpt lat="41.09702" lon="9.2502967"><ele>76.66666666666666</ele><time>2026-05-02T10:06:45.656Z</time></trkpt><trkpt lat="41.0969383" lon="9.2501183"><ele>77.33333333333333</ele><time>2026-05-02T10:06:46.656Z</time></trkpt><trkpt lat="41.0968617" lon="9.2499217"><ele>78.0</ele><time>2026-05-02T10:06:47.656Z</time></trkpt><trkpt lat="41.0967783" lon="9.2497083"><ele>78.0</ele><time>2026-05-02T10:06:48.656Z</time></trkpt><trkpt lat="41.09669" lon="9.24954"><ele>78.0</ele><time>2026-05-02T10:06:49.656Z</time></trkpt><trkpt lat="41.0966083" lon="9.249345"><ele>78.0</ele><time>2026-05-02T10:06:50.656Z</time></trkpt><trkpt lat="41.096535" lon="9.24914"><ele>78.33333333333333</ele><time>2026-05-02T10:06:51.656Z</time></trkpt><trkpt lat="41.096465" lon="9.2489367"><ele>78.66666666666666</ele><time>2026-05-02T10:06:52.656Z</time></trkpt><trkpt lat="41.096395" lon="9.24874"><ele>79.0</ele><time>2026-05-02T10:06:53.656Z</time></trkpt><trkpt lat="41.09633" lon="9.2485383"><ele>79.0</ele><time>2026-05-02T10:06:54.656Z</time></trkpt><trkpt lat="41.096275" lon="9.2483333"><ele>79.0</ele><time>2026-05-02T10:06:55.656Z</time></trkpt><trkpt lat="41.0962117" lon="9.2481283"><ele>79.0</ele><time>2026-05-02T10:06:56.656Z</time></trkpt><trkpt lat="41.0961467" lon="9.2479267"><ele>79.0</ele><time>2026-05-02T10:06:57.656Z</time></trkpt><trkpt lat="41.0960833" lon="9.2477283"><ele>79.0</ele><time>2026-05-02T10:06:58.656Z</time></trkpt><trkpt lat="41.0960167" lon="9.24752"><ele>79.0</ele><time>2026-05-02T10:06:59.656Z</time></trkpt><trkpt lat="41.0959517" lon="9.247315"><ele>79.33333333333333</ele><time>2026-05-02T10:07:00.656Z</time></trkpt><trkpt lat="41.095895" lon="9.24712"><ele>79.66666666666667</ele><time>2026-05-02T10:07:01.656Z</time></trkpt><trkpt lat="41.0958483" lon="9.246935"><ele>80.0</ele><time>2026-05-02T10:07:02.656Z</time></trkpt><trkpt lat="41.0957917" lon="9.2467317"><ele>79.66666666666667</ele><time>2026-05-02T10:07:03.656Z</time></trkpt><trkpt lat="41.09573" lon="9.2465017"><ele>79.33333333333333</ele><time>2026-05-02T10:07:04.656Z</time></trkpt><trkpt lat="41.09567" lon="9.2462917"><ele>79.0</ele><time>2026-05-02T10:07:05.656Z</time></trkpt><trkpt lat="41.0956133" lon="9.24606"><ele>79.0</ele><time>2026-05-02T10:07:06.656Z</time></trkpt><trkpt lat="41.09555" lon="9.2458533"><ele>79.0</ele><time>2026-05-02T10:07:07.656Z</time></trkpt><trkpt lat="41.0954733" lon="9.2456667"><ele>79.0</ele><time>2026-05-02T10:07:08.656Z</time></trkpt><trkpt lat="41.0954" lon="9.2454767"><ele>80.0</ele><time>2026-05-02T10:07:09.656Z</time></trkpt><trkpt lat="41.0953367" lon="9.245265"><ele>81.0</ele><time>2026-05-02T10:07:10.656Z</time></trkpt><trkpt lat="41.095275" lon="9.245075"><ele>82.0</ele><time>2026-05-02T10:07:11.656Z</time></trkpt><trkpt lat="41.0952117" lon="9.2448783"><ele>82.0</ele><time>2026-05-02T10:07:12.656Z</time></trkpt><trkpt lat="41.0951483" lon="9.24468"><ele>82.0</ele><time>2026-05-02T10:07:13.656Z</time></trkpt><trkpt lat="41.0950833" lon="9.2444767"><ele>82.0</ele><time>2026-05-02T10:07:14.656Z</time></trkpt><trkpt lat="41.0950217" lon="9.2442833"><ele>82.0</ele><time>2026-05-02T10:07:15.656Z</time></trkpt><trkpt lat="41.09496" lon="9.2441"><ele>82.0</ele><time>2026-05-02T10:07:16.656Z</time></trkpt><trkpt lat="41.0949033" lon="9.2439483"><ele>82.0</ele><time>2026-05-02T10:07:17.656Z</time></trkpt><trkpt lat="41.094855" lon="9.2437883"><ele>82.0</ele><time>2026-05-02T10:07:18.656Z</time></trkpt><trkpt lat="41.0948083" lon="9.243635"><ele>82.5</ele><time>2026-05-02T10:07:19.656Z</time></trkpt><trkpt lat="41.09476" lon="9.2434783"><ele>83.0</ele><time>2026-05-02T10:07:20.656Z</time></trkpt><trkpt lat="41.0947117" lon="9.2433267"><ele>83.5</ele><time>2026-05-02T10:07:21.656Z</time></trkpt><trkpt lat="41.0946617" lon="9.2431933"><ele>84.0</ele><time>2026-05-02T10:07:22.656Z</time></trkpt><trkpt lat="41.0946133" lon="9.243075"><ele>84.2</ele><time>2026-05-02T10:07:23.656Z</time></trkpt><trkpt lat="41.0945783" lon="9.2429717"><ele>84.4</ele><time>2026-05-02T10:07:24.656Z</time></trkpt><trkpt lat="41.0945433" lon="9.2428833"><ele>84.6</ele><time>2026-05-02T10:07:25.656Z</time></trkpt><trkpt lat="41.094475" lon="9.242765"><ele>84.8</ele><time>2026-05-02T10:07:27.656Z</time></trkpt><trkpt lat="41.0944017" lon="9.242735"><ele>85.0</ele><time>2026-05-02T10:07:29.656Z</time></trkpt><trkpt lat="41.0942717" lon="9.2428183"><ele>85.0</ele><time>2026-05-02T10:07:31.656Z</time></trkpt><trkpt lat="41.0941833" lon="9.2428917"><ele>85.0</ele><time>2026-05-02T10:07:32.656Z</time></trkpt><trkpt lat="41.0940833" lon="9.2429717"><ele>85.0</ele><time>2026-05-02T10:07:33.656Z</time></trkpt><trkpt lat="41.0939683" lon="9.2430617"><ele>85.0</ele><time>2026-05-02T10:07:34.656Z</time></trkpt><trkpt lat="41.0938383" lon="9.24316"><ele>84.2</ele><time>2026-05-02T10:07:35.656Z</time></trkpt><trkpt lat="41.0937333" lon="9.2432467"><ele>83.4</ele><time>2026-05-02T10:07:36.656Z</time></trkpt><trkpt lat="41.0936317" lon="9.24333"><ele>82.6</ele><time>2026-05-02T10:07:37.656Z</time></trkpt><trkpt lat="41.0935417" lon="9.2434117"><ele>81.8</ele><time>2026-05-02T10:07:38.656Z</time></trkpt><trkpt lat="41.0934633" lon="9.24348"><ele>81.0</ele><time>2026-05-02T10:07:39.656Z</time></trkpt><trkpt lat="41.0933867" lon="9.243525"><ele>81.0</ele><time>2026-05-02T10:07:40.656Z</time></trkpt><trkpt lat="41.09332" lon="9.2435483"><ele>81.0</ele><time>2026-05-02T10:07:41.656Z</time></trkpt><trkpt lat="41.093255" lon="9.24355"><ele>81.0</ele><time>2026-05-02T10:07:42.657Z</time></trkpt><trkpt lat="41.0931883" lon="9.2435567"><ele>81.0</ele><time>2026-05-02T10:07:43.656Z</time></trkpt><trkpt lat="41.0931167" lon="9.2435867"><ele>81.0</ele><time>2026-05-02T10:07:44.657Z</time></trkpt><trkpt lat="41.0930467" lon="9.24364"><ele>81.0</ele><time>2026-05-02T10:07:45.656Z</time></trkpt><trkpt lat="41.0929867" lon="9.24372"><ele>81.0</ele><time>2026-05-02T10:07:46.656Z</time></trkpt><trkpt lat="41.0929317" lon="9.2438167"><ele>81.5</ele><time>2026-05-02T10:07:47.656Z</time></trkpt><trkpt lat="41.0928817" lon="9.24394"><ele>82.0</ele><time>2026-05-02T10:07:48.656Z</time></trkpt><trkpt lat="41.0928433" lon="9.2440917"><ele>82.5</ele><time>2026-05-02T10:07:49.656Z</time></trkpt><trkpt lat="41.0928083" lon="9.2442533"><ele>83.0</ele><time>2026-05-02T10:07:50.656Z</time></trkpt><trkpt lat="41.0927633" lon="9.2443917"><ele>83.0</ele><time>2026-05-02T10:07:51.656Z</time></trkpt><trkpt lat="41.09272" lon="9.2445267"><ele>83.0</ele><time>2026-05-02T10:07:52.656Z</time></trkpt><trkpt lat="41.0926617" lon="9.244645"><ele>83.0</ele><time>2026-05-02T10:07:53.656Z</time></trkpt><trkpt lat="41.0925883" lon="9.244775"><ele>83.0</ele><time>2026-05-02T10:07:54.656Z</time></trkpt><trkpt lat="41.0925083" lon="9.2449067"><ele>84.0</ele><time>2026-05-02T10:07:55.656Z</time></trkpt><trkpt lat="41.09241" lon="9.2450467"><ele>85.0</ele><time>2026-05-02T10:07:56.656Z</time></trkpt><trkpt lat="41.0923133" lon="9.2451767"><ele>86.0</ele><time>2026-05-02T10:07:57.656Z</time></trkpt><trkpt lat="41.092165" lon="9.2453283"><ele>86.0</ele><time>2026-05-02T10:07:58.656Z</time></trkpt><trkpt lat="41.0920817" lon="9.2454383"><ele>86.0</ele><time>2026-05-02T10:07:59.656Z</time></trkpt><trkpt lat="41.0920133" lon="9.24554"><ele>86.0</ele><time>2026-05-02T10:08:00.656Z</time></trkpt><trkpt lat="41.0919567" lon="9.24565"><ele>86.0</ele><time>2026-05-02T10:08:01.656Z</time></trkpt><trkpt lat="41.0919217" lon="9.24578"><ele>86.0</ele><time>2026-05-02T10:08:02.656Z</time></trkpt><trkpt lat="41.0918917" lon="9.245925"><ele>86.25</ele><time>2026-05-02T10:08:03.656Z</time></trkpt><trkpt lat="41.09186" lon="9.246075"><ele>86.5</ele><time>2026-05-02T10:08:04.656Z</time></trkpt><trkpt lat="41.0918217" lon="9.24622"><ele>86.75</ele><time>2026-05-02T10:08:05.656Z</time></trkpt><trkpt lat="41.0917783" lon="9.24637"><ele>87.0</ele><time>2026-05-02T10:08:06.656Z</time></trkpt><trkpt lat="41.091765" lon="9.246525"><ele>88.0</ele><time>2026-05-02T10:08:07.656Z</time></trkpt><trkpt lat="41.0917067" lon="9.2466683"><ele>89.0</ele><time>2026-05-02T10:08:08.656Z</time></trkpt><trkpt lat="41.0916367" lon="9.2468183"><ele>90.0</ele><time>2026-05-02T10:08:09.656Z</time></trkpt><trkpt lat="41.0915583" lon="9.2469783"><ele>91.0</ele><time>2026-05-02T10:08:10.656Z</time></trkpt><trkpt lat="41.0914867" lon="9.2471267"><ele>92.5</ele><time>2026-05-02T10:08:11.656Z</time></trkpt><trkpt lat="41.091395" lon="9.247285"><ele>94.0</ele><time>2026-05-02T10:08:12.656Z</time></trkpt><trkpt lat="41.09129" lon="9.2474267"><ele>95.5</ele><time>2026-05-02T10:08:13.656Z</time></trkpt><trkpt lat="41.0912133" lon="9.2475867"><ele>97.0</ele><time>2026-05-02T10:08:14.656Z</time></trkpt><trkpt lat="41.091155" lon="9.2477833"><ele>97.25</ele><time>2026-05-02T10:08:15.656Z</time></trkpt><trkpt lat="41.0911283" lon="9.24798"><ele>97.5</ele><time>2026-05-02T10:08:16.656Z</time></trkpt><trkpt lat="41.0911033" lon="9.2481683"><ele>97.75</ele><time>2026-05-02T10:08:17.656Z</time></trkpt><trkpt lat="41.091095" lon="9.24836"><ele>98.0</ele><time>2026-05-02T10:08:18.656Z</time></trkpt><trkpt lat="41.0910817" lon="9.2485417"><ele>98.25</ele><time>2026-05-02T10:08:19.656Z</time></trkpt><trkpt lat="41.0910767" lon="9.248715"><ele>98.5</ele><time>2026-05-02T10:08:20.656Z</time></trkpt><trkpt lat="41.091055" lon="9.2488817"><ele>98.75</ele><time>2026-05-02T10:08:21.656Z</time></trkpt><trkpt lat="41.0910283" lon="9.2490317"><ele>99.0</ele><time>2026-05-02T10:08:22.656Z</time></trkpt><trkpt lat="41.090985" lon="9.2491633"><ele>100.0</ele><time>2026-05-02T10:08:23.656Z</time></trkpt><trkpt lat="41.090925" lon="9.24928"><ele>101.0</ele><time>2026-05-02T10:08:24.656Z</time></trkpt><trkpt lat="41.0908567" lon="9.2494"><ele>102.0</ele><time>2026-05-02T10:08:25.656Z</time></trkpt><trkpt lat="41.090765" lon="9.2495317"><ele>103.0</ele><time>2026-05-02T10:08:26.656Z</time></trkpt><trkpt lat="41.090675" lon="9.2496617"><ele>103.75</ele><time>2026-05-02T10:08:27.656Z</time></trkpt><trkpt lat="41.0905783" lon="9.2497883"><ele>104.5</ele><time>2026-05-02T10:08:28.656Z</time></trkpt><trkpt lat="41.0904867" lon="9.2499017"><ele>105.25</ele><time>2026-05-02T10:08:29.656Z</time></trkpt><trkpt lat="41.0904167" lon="9.2500183"><ele>106.0</ele><time>2026-05-02T10:08:30.656Z</time></trkpt><trkpt lat="41.0903183" lon="9.250125"><ele>106.0</ele><time>2026-05-02T10:08:31.656Z</time></trkpt><trkpt lat="41.0902083" lon="9.2502483"><ele>106.0</ele><time>2026-05-02T10:08:32.656Z</time></trkpt><trkpt lat="41.0900817" lon="9.250375"><ele>106.0</ele><time>2026-05-02T10:08:33.656Z</time></trkpt><trkpt lat="41.08995" lon="9.25051"><ele>104.66666666666667</ele><time>2026-05-02T10:08:34.656Z</time></trkpt><trkpt lat="41.089835" lon="9.2506417"><ele>103.33333333333334</ele><time>2026-05-02T10:08:35.656Z</time></trkpt><trkpt lat="41.0897183" lon="9.2507717"><ele>102.0</ele><time>2026-05-02T10:08:36.656Z</time></trkpt><trkpt lat="41.0896" lon="9.2508917"><ele>102.0</ele><time>2026-05-02T10:08:37.656Z</time></trkpt><trkpt lat="41.0895" lon="9.2510017"><ele>102.0</ele><time>2026-05-02T10:08:38.656Z</time></trkpt><trkpt lat="41.0894" lon="9.2510967"><ele>102.0</ele><time>2026-05-02T10:08:39.656Z</time></trkpt><trkpt lat="41.089315" lon="9.25119"><ele>102.0</ele><time>2026-05-02T10:08:40.656Z</time></trkpt><trkpt lat="41.08924" lon="9.2512767"><ele>102.0</ele><time>2026-05-02T10:08:41.656Z</time></trkpt><trkpt lat="41.0891667" lon="9.251335"><ele>102.0</ele><time>2026-05-02T10:08:42.656Z</time></trkpt><trkpt lat="41.0890867" lon="9.2513717"><ele>102.0</ele><time>2026-05-02T10:08:43.656Z</time></trkpt><trkpt lat="41.089" lon="9.2513867"><ele>102.0</ele><time>2026-05-02T10:08:44.656Z</time></trkpt><trkpt lat="41.0889017" lon="9.2513783"><ele>102.0</ele><time>2026-05-02T10:08:45.656Z</time></trkpt><trkpt lat="41.088785" lon="9.25136"><ele>103.0</ele><time>2026-05-02T10:08:46.656Z</time></trkpt><trkpt lat="41.0886517" lon="9.25134"><ele>104.0</ele><time>2026-05-02T10:08:47.656Z</time></trkpt><trkpt lat="41.0885183" lon="9.2513117"><ele>105.0</ele><time>2026-05-02T10:08:48.656Z</time></trkpt><trkpt lat="41.088405" lon="9.25129"><ele>106.0</ele><time>2026-05-02T10:08:49.656Z</time></trkpt><trkpt lat="41.088295" lon="9.2512767"><ele>106.0</ele><time>2026-05-02T10:08:50.656Z</time></trkpt><trkpt lat="41.0882067" lon="9.2512483"><ele>106.0</ele><time>2026-05-02T10:08:51.656Z</time></trkpt><trkpt lat="41.0881083" lon="9.2512067"><ele>106.0</ele><time>2026-05-02T10:08:52.656Z</time></trkpt><trkpt lat="41.0880267" lon="9.2511033"><ele>106.0</ele><time>2026-05-02T10:08:53.656Z</time></trkpt><trkpt lat="41.087945" lon="9.250995"><ele>106.0</ele><time>2026-05-02T10:08:54.656Z</time></trkpt><trkpt lat="41.0878333" lon="9.2509217"><ele>106.0</ele><time>2026-05-02T10:08:55.656Z</time></trkpt><trkpt lat="41.087715" lon="9.250855"><ele>106.0</ele><time>2026-05-02T10:08:56.656Z</time></trkpt><trkpt lat="41.0875733" lon="9.2507883"><ele>106.0</ele><time>2026-05-02T10:08:57.656Z</time></trkpt><trkpt lat="41.08743" lon="9.2507117"><ele>106.0</ele><time>2026-05-02T10:08:58.656Z</time></trkpt><trkpt lat="41.08729" lon="9.2506417"><ele>109.66666666666667</ele><time>2026-05-02T10:08:59.656Z</time></trkpt><trkpt lat="41.087155" lon="9.2505667"><ele>113.33333333333334</ele><time>2026-05-02T10:09:00.656Z</time></trkpt><trkpt lat="41.0870017" lon="9.25049"><ele>117.0</ele><time>2026-05-02T10:09:01.656Z</time></trkpt><trkpt lat="41.0868583" lon="9.250425"><ele>117.0</ele><time>2026-05-02T10:09:02.656Z</time></trkpt><trkpt lat="41.0867217" lon="9.2503533"><ele>117.0</ele><time>2026-05-02T10:09:03.656Z</time></trkpt><trkpt lat="41.08659" lon="9.2503133"><ele>117.0</ele><time>2026-05-02T10:09:04.656Z</time></trkpt><trkpt lat="41.0864583" lon="9.2502817"><ele>117.0</ele><time>2026-05-02T10:09:05.656Z</time></trkpt><trkpt lat="41.0863267" lon="9.25025"><ele>116.75</ele><time>2026-05-02T10:09:06.656Z</time></trkpt><trkpt lat="41.0862083" lon="9.2502217"><ele>116.5</ele><time>2026-05-02T10:09:07.656Z</time></trkpt><trkpt lat="41.086085" lon="9.2501883"><ele>116.25</ele><time>2026-05-02T10:09:08.656Z</time></trkpt><trkpt lat="41.08597" lon="9.2501333"><ele>116.0</ele><time>2026-05-02T10:09:09.656Z</time></trkpt><trkpt lat="41.08586" lon="9.2500667"><ele>116.0</ele><time>2026-05-02T10:09:10.656Z</time></trkpt><trkpt lat="41.085765" lon="9.2499983"><ele>116.0</ele><time>2026-05-02T10:09:11.656Z</time></trkpt><trkpt lat="41.08567" lon="9.2499417"><ele>116.0</ele><time>2026-05-02T10:09:12.656Z</time></trkpt><trkpt lat="41.0855717" lon="9.2499333"><ele>116.0</ele><time>2026-05-02T10:09:13.656Z</time></trkpt><trkpt lat="41.0854733" lon="9.249955"><ele>116.0</ele><time>2026-05-02T10:09:14.656Z</time></trkpt><trkpt lat="41.0853767" lon="9.25001"><ele>116.4</ele><time>2026-05-02T10:09:15.656Z</time></trkpt><trkpt lat="41.08528" lon="9.2500733"><ele>116.8</ele><time>2026-05-02T10:09:16.656Z</time></trkpt><trkpt lat="41.085185" lon="9.2501317"><ele>117.20000000000002</ele><time>2026-05-02T10:09:17.656Z</time></trkpt><trkpt lat="41.0850967" lon="9.2501533"><ele>117.60000000000001</ele><time>2026-05-02T10:09:18.656Z</time></trkpt><trkpt lat="41.08501" lon="9.2501367"><ele>118.0</ele><time>2026-05-02T10:09:19.656Z</time></trkpt><trkpt lat="41.0849367" lon="9.2501033"><ele>118.2</ele><time>2026-05-02T10:09:20.657Z</time></trkpt><trkpt lat="41.084865" lon="9.2500417"><ele>118.4</ele><time>2026-05-02T10:09:21.656Z</time></trkpt><trkpt lat="41.0847917" lon="9.24996"><ele>118.60000000000001</ele><time>2026-05-02T10:09:22.656Z</time></trkpt><trkpt lat="41.08472" lon="9.2498567"><ele>118.80000000000001</ele><time>2026-05-02T10:09:23.656Z</time></trkpt><trkpt lat="41.08464" lon="9.2497367"><ele>119.0</ele><time>2026-05-02T10:09:24.656Z</time></trkpt><trkpt lat="41.0845683" lon="9.24962"><ele>119.25</ele><time>2026-05-02T10:09:25.656Z</time></trkpt><trkpt lat="41.0844717" lon="9.2495183"><ele>119.5</ele><time>2026-05-02T10:09:26.656Z</time></trkpt><trkpt lat="41.08436" lon="9.24943"><ele>119.75</ele><time>2026-05-02T10:09:27.656Z</time></trkpt><trkpt lat="41.08423" lon="9.2493383"><ele>120.0</ele><time>2026-05-02T10:09:28.656Z</time></trkpt><trkpt lat="41.084095" lon="9.2492367"><ele>120.0</ele><time>2026-05-02T10:09:29.656Z</time></trkpt><trkpt lat="41.08396" lon="9.2491467"><ele>120.0</ele><time>2026-05-02T10:09:30.656Z</time></trkpt><trkpt lat="41.0838317" lon="9.2490583"><ele>120.0</ele><time>2026-05-02T10:09:31.656Z</time></trkpt><trkpt lat="41.083705" lon="9.2489883"><ele>120.0</ele><time>2026-05-02T10:09:32.656Z</time></trkpt><trkpt lat="41.0835767" lon="9.2489467"><ele>121.0</ele><time>2026-05-02T10:09:33.656Z</time></trkpt><trkpt lat="41.0834467" lon="9.24893"><ele>122.0</ele><time>2026-05-02T10:09:34.656Z</time></trkpt><trkpt lat="41.083305" lon="9.2489217"><ele>123.0</ele><time>2026-05-02T10:09:35.656Z</time></trkpt><trkpt lat="41.0831433" lon="9.2489617"><ele>124.0</ele><time>2026-05-02T10:09:36.656Z</time></trkpt><trkpt lat="41.0829733" lon="9.2489933"><ele>124.0</ele><time>2026-05-02T10:09:37.656Z</time></trkpt><trkpt lat="41.0828033" lon="9.24902"><ele>124.0</ele><time>2026-05-02T10:09:38.656Z</time></trkpt><trkpt lat="41.0826383" lon="9.2490433"><ele>124.0</ele><time>2026-05-02T10:09:39.656Z</time></trkpt><trkpt lat="41.08249" lon="9.2490583"><ele>123.25</ele><time>2026-05-02T10:09:40.656Z</time></trkpt><trkpt lat="41.08238" lon="9.249"><ele>122.5</ele><time>2026-05-02T10:09:41.656Z</time></trkpt><trkpt lat="41.082245" lon="9.248955"><ele>121.75</ele><time>2026-05-02T10:09:42.656Z</time></trkpt><trkpt lat="41.0821083" lon="9.248885"><ele>121.0</ele><time>2026-05-02T10:09:43.656Z</time></trkpt><trkpt lat="41.0819717" lon="9.2487783"><ele>121.0</ele><time>2026-05-02T10:09:44.656Z</time></trkpt><trkpt lat="41.0818267" lon="9.2486483"><ele>121.0</ele><time>2026-05-02T10:09:45.656Z</time></trkpt><trkpt lat="41.0816967" lon="9.2484967"><ele>121.0</ele><time>2026-05-02T10:09:46.656Z</time></trkpt><trkpt lat="41.0815767" lon="9.2483333"><ele>120.33333333333334</ele><time>2026-05-02T10:09:47.656Z</time></trkpt><trkpt lat="41.0814567" lon="9.2481833"><ele>119.66666666666666</ele><time>2026-05-02T10:09:48.656Z</time></trkpt><trkpt lat="41.0813317" lon="9.2480483"><ele>119.0</ele><time>2026-05-02T10:09:49.657Z</time></trkpt><trkpt lat="41.0812067" lon="9.2479033"><ele>119.0</ele><time>2026-05-02T10:09:50.656Z</time></trkpt><trkpt lat="41.0810817" lon="9.24777"><ele>119.0</ele><time>2026-05-02T10:09:51.656Z</time></trkpt><trkpt lat="41.08096" lon="9.24767"><ele>119.0</ele><time>2026-05-02T10:09:52.656Z</time></trkpt><trkpt lat="41.0808467" lon="9.24758"><ele>119.0</ele><time>2026-05-02T10:09:53.655Z</time></trkpt><trkpt lat="41.0807417" lon="9.2475017"><ele>119.5</ele><time>2026-05-02T10:09:54.655Z</time></trkpt><trkpt lat="41.0806467" lon="9.2474333"><ele>120.0</ele><time>2026-05-02T10:09:55.655Z</time></trkpt><trkpt lat="41.080545" lon="9.2473967"><ele>120.5</ele><time>2026-05-02T10:09:56.655Z</time></trkpt><trkpt lat="41.0804317" lon="9.247385"><ele>121.0</ele><time>2026-05-02T10:09:57.655Z</time></trkpt><trkpt lat="41.0803" lon="9.24739"><ele>121.0</ele><time>2026-05-02T10:09:58.655Z</time></trkpt><trkpt lat="41.080145" lon="9.2473967"><ele>121.0</ele><time>2026-05-02T10:09:59.656Z</time></trkpt><trkpt lat="41.0799717" lon="9.2474033"><ele>121.0</ele><time>2026-05-02T10:10:00.655Z</time></trkpt><trkpt lat="41.079805" lon="9.24739"><ele>122.0</ele><time>2026-05-02T10:10:01.655Z</time></trkpt><trkpt lat="41.07964" lon="9.2473683"><ele>123.0</ele><time>2026-05-02T10:10:02.655Z</time></trkpt><trkpt lat="41.0794833" lon="9.2473233"><ele>124.0</ele><time>2026-05-02T10:10:03.655Z</time></trkpt><trkpt lat="41.0793333" lon="9.2472833"><ele>125.0</ele><time>2026-05-02T10:10:04.655Z</time></trkpt><trkpt lat="41.0791917" lon="9.2472433"><ele>126.0</ele><time>2026-05-02T10:10:05.655Z</time></trkpt><trkpt lat="41.079055" lon="9.24721"><ele>127.0</ele><time>2026-05-02T10:10:06.655Z</time></trkpt><trkpt lat="41.0789167" lon="9.247185"><ele>128.0</ele><time>2026-05-02T10:10:07.655Z</time></trkpt><trkpt lat="41.0787683" lon="9.24717"><ele>128.0</ele><time>2026-05-02T10:10:08.655Z</time></trkpt><trkpt lat="41.0786117" lon="9.2471467"><ele>128.0</ele><time>2026-05-02T10:10:09.655Z</time></trkpt><trkpt lat="41.0784517" lon="9.2471133"><ele>128.0</ele><time>2026-05-02T10:10:10.655Z</time></trkpt><trkpt lat="41.0782817" lon="9.2470783"><ele>127.33333333333333</ele><time>2026-05-02T10:10:11.655Z</time></trkpt><trkpt lat="41.0781117" lon="9.247025"><ele>126.66666666666666</ele><time>2026-05-02T10:10:12.655Z</time></trkpt><trkpt lat="41.0779433" lon="9.2469617"><ele>126.0</ele><time>2026-05-02T10:10:13.655Z</time></trkpt><trkpt lat="41.0777717" lon="9.2468917"><ele>126.0</ele><time>2026-05-02T10:10:14.655Z</time></trkpt><trkpt lat="41.0775983" lon="9.2468183"><ele>126.0</ele><time>2026-05-02T10:10:15.655Z</time></trkpt><trkpt lat="41.0774117" lon="9.2467633"><ele>126.0</ele><time>2026-05-02T10:10:16.655Z</time></trkpt><trkpt lat="41.0772367" lon="9.2466983"><ele>126.33333333333334</ele><time>2026-05-02T10:10:17.655Z</time></trkpt><trkpt lat="41.0770683" lon="9.2466333"><ele>126.66666666666667</ele><time>2026-05-02T10:10:18.655Z</time></trkpt><trkpt lat="41.07692" lon="9.2465683"><ele>127.0</ele><time>2026-05-02T10:10:19.655Z</time></trkpt><trkpt lat="41.076785" lon="9.2464783"><ele>128.0</ele><time>2026-05-02T10:10:20.655Z</time></trkpt><trkpt lat="41.0766633" lon="9.2463833"><ele>129.0</ele><time>2026-05-02T10:10:21.655Z</time></trkpt><trkpt lat="41.07654" lon="9.246285"><ele>130.0</ele><time>2026-05-02T10:10:22.655Z</time></trkpt><trkpt lat="41.0764217" lon="9.2461917"><ele>131.0</ele><time>2026-05-02T10:10:23.655Z</time></trkpt><trkpt lat="41.07632" lon="9.2461183"><ele>131.0</ele><time>2026-05-02T10:10:24.655Z</time></trkpt><trkpt lat="41.0762317" lon="9.24604"><ele>131.0</ele><time>2026-05-02T10:10:25.655Z</time></trkpt><trkpt lat="41.0761367" lon="9.2459967"><ele>131.0</ele><time>2026-05-02T10:10:26.655Z</time></trkpt><trkpt lat="41.0760533" lon="9.2459683"><ele>131.0</ele><time>2026-05-02T10:10:27.655Z</time></trkpt><trkpt lat="41.0759467" lon="9.2459617"><ele>131.0</ele><time>2026-05-02T10:10:28.655Z</time></trkpt><trkpt lat="41.0758483" lon="9.245965"><ele>130.8</ele><time>2026-05-02T10:10:29.655Z</time></trkpt><trkpt lat="41.0757567" lon="9.2459717"><ele>130.6</ele><time>2026-05-02T10:10:30.655Z</time></trkpt><trkpt lat="41.0756717" lon="9.2459683"><ele>130.4</ele><time>2026-05-02T10:10:31.655Z</time></trkpt><trkpt lat="41.0755667" lon="9.2458983"><ele>130.2</ele><time>2026-05-02T10:10:32.655Z</time></trkpt><trkpt lat="41.0754633" lon="9.2458367"><ele>130.0</ele><time>2026-05-02T10:10:33.655Z</time></trkpt><trkpt lat="41.0753717" lon="9.2458067"><ele>130.0</ele><time>2026-05-02T10:10:34.655Z</time></trkpt><trkpt lat="41.0752817" lon="9.2457667"><ele>130.0</ele><time>2026-05-02T10:10:35.655Z</time></trkpt><trkpt lat="41.0751783" lon="9.2457183"><ele>130.0</ele><time>2026-05-02T10:10:36.655Z</time></trkpt><trkpt lat="41.075075" lon="9.24566"><ele>130.0</ele><time>2026-05-02T10:10:37.655Z</time></trkpt><trkpt lat="41.074985" lon="9.245595"><ele>130.0</ele><time>2026-05-02T10:10:38.655Z</time></trkpt><trkpt lat="41.0749067" lon="9.2455267"><ele>130.2</ele><time>2026-05-02T10:10:39.655Z</time></trkpt><trkpt lat="41.0748233" lon="9.24547"><ele>130.4</ele><time>2026-05-02T10:10:40.655Z</time></trkpt><trkpt lat="41.07473" lon="9.245405"><ele>130.6</ele><time>2026-05-02T10:10:41.655Z</time></trkpt><trkpt lat="41.0746367" lon="9.245345"><ele>130.8</ele><time>2026-05-02T10:10:42.655Z</time></trkpt><trkpt lat="41.07455" lon="9.2452733"><ele>131.0</ele><time>2026-05-02T10:10:43.655Z</time></trkpt><trkpt lat="41.0744617" lon="9.2452033"><ele>131.0</ele><time>2026-05-02T10:10:44.656Z</time></trkpt><trkpt lat="41.0743617" lon="9.245145"><ele>131.0</ele><time>2026-05-02T10:10:45.655Z</time></trkpt><trkpt lat="41.0742567" lon="9.2450867"><ele>131.0</ele><time>2026-05-02T10:10:46.655Z</time></trkpt><trkpt lat="41.074165" lon="9.2450417"><ele>131.0</ele><time>2026-05-02T10:10:47.656Z</time></trkpt><trkpt lat="41.0740583" lon="9.2449733"><ele>131.0</ele><time>2026-05-02T10:10:48.655Z</time></trkpt><trkpt lat="41.0739417" lon="9.244895"><ele>131.25</ele><time>2026-05-02T10:10:49.655Z</time></trkpt><trkpt lat="41.07382" lon="9.2448183"><ele>131.5</ele><time>2026-05-02T10:10:50.655Z</time></trkpt><trkpt lat="41.0737033" lon="9.2447433"><ele>131.75</ele><time>2026-05-02T10:10:51.655Z</time></trkpt><trkpt lat="41.0735817" lon="9.24467"><ele>132.0</ele><time>2026-05-02T10:10:52.655Z</time></trkpt><trkpt lat="41.0734583" lon="9.2445933"><ele>132.0</ele><time>2026-05-02T10:10:53.655Z</time></trkpt><trkpt lat="41.0733317" lon="9.2445133"><ele>132.0</ele><time>2026-05-02T10:10:54.655Z</time></trkpt><trkpt lat="41.073205" lon="9.244425"><ele>132.0</ele><time>2026-05-02T10:10:55.655Z</time></trkpt><trkpt lat="41.07308" lon="9.2443383"><ele>132.0</ele><time>2026-05-02T10:10:56.655Z</time></trkpt><trkpt lat="41.0729667" lon="9.2442533"><ele>132.5</ele><time>2026-05-02T10:10:57.655Z</time></trkpt><trkpt lat="41.07285" lon="9.2441683"><ele>133.0</ele><time>2026-05-02T10:10:58.655Z</time></trkpt><trkpt lat="41.07274" lon="9.2440867"><ele>133.5</ele><time>2026-05-02T10:10:59.656Z</time></trkpt><trkpt lat="41.0726367" lon="9.2440183"><ele>134.0</ele><time>2026-05-02T10:11:00.655Z</time></trkpt><trkpt lat="41.07252" lon="9.2439683"><ele>133.5</ele><time>2026-05-02T10:11:01.655Z</time></trkpt><trkpt lat="41.0724" lon="9.2439117"><ele>133.0</ele><time>2026-05-02T10:11:02.655Z</time></trkpt><trkpt lat="41.0722733" lon="9.2438517"><ele>132.5</ele><time>2026-05-02T10:11:03.655Z</time></trkpt><trkpt lat="41.072145" lon="9.2437883"><ele>132.0</ele><time>2026-05-02T10:11:04.655Z</time></trkpt><trkpt lat="41.0720067" lon="9.2437317"><ele>132.0</ele><time>2026-05-02T10:11:05.655Z</time></trkpt><trkpt lat="41.0718817" lon="9.2436817"><ele>132.0</ele><time>2026-05-02T10:11:06.655Z</time></trkpt><trkpt lat="41.07175" lon="9.2436267"><ele>132.0</ele><time>2026-05-02T10:11:07.655Z</time></trkpt><trkpt lat="41.0716217" lon="9.2435833"><ele>132.0</ele><time>2026-05-02T10:11:08.655Z</time></trkpt><trkpt lat="41.0714967" lon="9.243545"><ele>133.4</ele><time>2026-05-02T10:11:09.655Z</time></trkpt><trkpt lat="41.07138" lon="9.243515"><ele>134.79999999999998</ele><time>2026-05-02T10:11:10.655Z</time></trkpt><trkpt lat="41.0712767" lon="9.24348"><ele>136.2</ele><time>2026-05-02T10:11:11.655Z</time></trkpt><trkpt lat="41.0711733" lon="9.2434333"><ele>137.6</ele><time>2026-05-02T10:11:12.655Z</time></trkpt><trkpt lat="41.07107" lon="9.2433917"><ele>139.0</ele><time>2026-05-02T10:11:13.655Z</time></trkpt><trkpt lat="41.0709733" lon="9.2433367"><ele>139.0</ele><time>2026-05-02T10:11:14.655Z</time></trkpt><trkpt lat="41.0708817" lon="9.2432667"><ele>139.0</ele><time>2026-05-02T10:11:15.655Z</time></trkpt><trkpt lat="41.0707983" lon="9.2431867"><ele>139.0</ele><time>2026-05-02T10:11:16.655Z</time></trkpt><trkpt lat="41.07071" lon="9.243105"><ele>139.0</ele><time>2026-05-02T10:11:17.655Z</time></trkpt><trkpt lat="41.0706083" lon="9.2430417"><ele>139.0</ele><time>2026-05-02T10:11:18.655Z</time></trkpt><trkpt lat="41.0705067" lon="9.242995"><ele>138.5</ele><time>2026-05-02T10:11:19.655Z</time></trkpt><trkpt lat="41.0704017" lon="9.2429633"><ele>138.0</ele><time>2026-05-02T10:11:20.655Z</time></trkpt><trkpt lat="41.0702833" lon="9.2429417"><ele>137.5</ele><time>2026-05-02T10:11:21.655Z</time></trkpt><trkpt lat="41.0701517" lon="9.2429433"><ele>137.0</ele><time>2026-05-02T10:11:22.655Z</time></trkpt><trkpt lat="41.070035" lon="9.2429467"><ele>137.2</ele><time>2026-05-02T10:11:23.655Z</time></trkpt><trkpt lat="41.0699283" lon="9.24296"><ele>137.39999999999998</ele><time>2026-05-02T10:11:24.655Z</time></trkpt><trkpt lat="41.06983" lon="9.2429417"><ele>137.60000000000002</ele><time>2026-05-02T10:11:25.655Z</time></trkpt><trkpt lat="41.0697417" lon="9.2429183"><ele>137.8</ele><time>2026-05-02T10:11:26.655Z</time></trkpt><trkpt lat="41.0696367" lon="9.24288"><ele>138.0</ele><time>2026-05-02T10:11:27.655Z</time></trkpt><trkpt lat="41.0695133" lon="9.2428283"><ele>138.0</ele><time>2026-05-02T10:11:28.656Z</time></trkpt><trkpt lat="41.06938" lon="9.2427467"><ele>138.0</ele><time>2026-05-02T10:11:29.656Z</time></trkpt><trkpt lat="41.0692417" lon="9.2426767"><ele>138.0</ele><time>2026-05-02T10:11:30.655Z</time></trkpt><trkpt lat="41.06909" lon="9.242615"><ele>140.33333333333334</ele><time>2026-05-02T10:11:31.655Z</time></trkpt><trkpt lat="41.0689217" lon="9.2425433"><ele>142.66666666666669</ele><time>2026-05-02T10:11:32.655Z</time></trkpt><trkpt lat="41.0687717" lon="9.2424717"><ele>145.0</ele><time>2026-05-02T10:11:33.655Z</time></trkpt><trkpt lat="41.06863" lon="9.2424033"><ele>145.0</ele><time>2026-05-02T10:11:34.655Z</time></trkpt><trkpt lat="41.0684883" lon="9.24234"><ele>145.0</ele><time>2026-05-02T10:11:35.655Z</time></trkpt><trkpt lat="41.068365" lon="9.2422867"><ele>145.0</ele><time>2026-05-02T10:11:36.655Z</time></trkpt><trkpt lat="41.06824" lon="9.2422433"><ele>145.0</ele><time>2026-05-02T10:11:37.655Z</time></trkpt><trkpt lat="41.0681133" lon="9.2422133"><ele>144.75</ele><time>2026-05-02T10:11:38.655Z</time></trkpt><trkpt lat="41.067985" lon="9.2421983"><ele>144.5</ele><time>2026-05-02T10:11:39.655Z</time></trkpt><trkpt lat="41.0678667" lon="9.2421817"><ele>144.25</ele><time>2026-05-02T10:11:40.656Z</time></trkpt><trkpt lat="41.0677517" lon="9.242195"><ele>144.0</ele><time>2026-05-02T10:11:41.655Z</time></trkpt><trkpt lat="41.067645" lon="9.242215"><ele>144.0</ele><time>2026-05-02T10:11:42.655Z</time></trkpt><trkpt lat="41.0675267" lon="9.24219"><ele>144.0</ele><time>2026-05-02T10:11:43.655Z</time></trkpt><trkpt lat="41.0674233" lon="9.2421767"><ele>144.0</ele><time>2026-05-02T10:11:44.655Z</time></trkpt><trkpt lat="41.067315" lon="9.242125"><ele>144.0</ele><time>2026-05-02T10:11:45.655Z</time></trkpt><trkpt lat="41.0672117" lon="9.2420217"><ele>144.4</ele><time>2026-05-02T10:11:46.655Z</time></trkpt><trkpt lat="41.0671033" lon="9.2419267"><ele>144.8</ele><time>2026-05-02T10:11:47.655Z</time></trkpt><trkpt lat="41.0670133" lon="9.2418283"><ele>145.2</ele><time>2026-05-02T10:11:48.655Z</time></trkpt><trkpt lat="41.0669283" lon="9.2417567"><ele>145.6</ele><time>2026-05-02T10:11:49.655Z</time></trkpt><trkpt lat="41.0668367" lon="9.241705"><ele>146.0</ele><time>2026-05-02T10:11:50.655Z</time></trkpt><trkpt lat="41.0667367" lon="9.2416583"><ele>146.0</ele><time>2026-05-02T10:11:51.655Z</time></trkpt><trkpt lat="41.06662" lon="9.241615"><ele>146.0</ele><time>2026-05-02T10:11:52.655Z</time></trkpt><trkpt lat="41.0665117" lon="9.2415583"><ele>146.0</ele><time>2026-05-02T10:11:53.655Z</time></trkpt><trkpt lat="41.066405" lon="9.241475"><ele>146.0</ele><time>2026-05-02T10:11:54.655Z</time></trkpt><trkpt lat="41.0663033" lon="9.241375"><ele>146.25</ele><time>2026-05-02T10:11:55.655Z</time></trkpt><trkpt lat="41.0662183" lon="9.241245"><ele>146.5</ele><time>2026-05-02T10:11:56.655Z</time></trkpt><trkpt lat="41.0661367" lon="9.24107"><ele>146.75</ele><time>2026-05-02T10:11:57.655Z</time></trkpt><trkpt lat="41.0660483" lon="9.2409017"><ele>147.0</ele><time>2026-05-02T10:11:58.655Z</time></trkpt><trkpt lat="41.06596" lon="9.240745"><ele>149.0</ele><time>2026-05-02T10:11:59.656Z</time></trkpt><trkpt lat="41.0658833" lon="9.2406017"><ele>151.0</ele><time>2026-05-02T10:12:00.655Z</time></trkpt><trkpt lat="41.0658" lon="9.240505"><ele>153.0</ele><time>2026-05-02T10:12:01.655Z</time></trkpt><trkpt lat="41.06571" lon="9.2404217"><ele>155.0</ele><time>2026-05-02T10:12:02.655Z</time></trkpt><trkpt lat="41.065605" lon="9.2403533"><ele>155.25</ele><time>2026-05-02T10:12:03.655Z</time></trkpt><trkpt lat="41.0654933" lon="9.2402867"><ele>155.5</ele><time>2026-05-02T10:12:04.655Z</time></trkpt><trkpt lat="41.0653867" lon="9.2402117"><ele>155.75</ele><time>2026-05-02T10:12:05.655Z</time></trkpt><trkpt lat="41.0652667" lon="9.240145"><ele>156.0</ele><time>2026-05-02T10:12:06.655Z</time></trkpt><trkpt lat="41.06514" lon="9.24007"><ele>156.0</ele><time>2026-05-02T10:12:07.655Z</time></trkpt><trkpt lat="41.06501" lon="9.24"><ele>156.0</ele><time>2026-05-02T10:12:08.655Z</time></trkpt><trkpt lat="41.0649" lon="9.2399233"><ele>156.0</ele><time>2026-05-02T10:12:09.655Z</time></trkpt><trkpt lat="41.0647617" lon="9.2398233"><ele>156.0</ele><time>2026-05-02T10:12:10.655Z</time></trkpt><trkpt lat="41.0646233" lon="9.23971"><ele>156.66666666666666</ele><time>2026-05-02T10:12:11.655Z</time></trkpt><trkpt lat="41.064485" lon="9.2395767"><ele>157.33333333333331</ele><time>2026-05-02T10:12:12.655Z</time></trkpt><trkpt lat="41.0643417" lon="9.2394533"><ele>158.0</ele><time>2026-05-02T10:12:13.656Z</time></trkpt><trkpt lat="41.06419" lon="9.2393733"><ele>157.75</ele><time>2026-05-02T10:12:14.655Z</time></trkpt><trkpt lat="41.0640533" lon="9.23928"><ele>157.5</ele><time>2026-05-02T10:12:15.655Z</time></trkpt><trkpt lat="41.0639267" lon="9.2392117"><ele>157.25</ele><time>2026-05-02T10:12:16.655Z</time></trkpt><trkpt lat="41.0638017" lon="9.2391517"><ele>157.0</ele><time>2026-05-02T10:12:17.655Z</time></trkpt><trkpt lat="41.0636567" lon="9.2390867"><ele>157.0</ele><time>2026-05-02T10:12:18.655Z</time></trkpt><trkpt lat="41.063525" lon="9.2391017"><ele>157.0</ele><time>2026-05-02T10:12:19.655Z</time></trkpt><trkpt lat="41.0633783" lon="9.2391533"><ele>157.0</ele><time>2026-05-02T10:12:20.655Z</time></trkpt><trkpt lat="41.0632517" lon="9.2392317"><ele>157.0</ele><time>2026-05-02T10:12:21.655Z</time></trkpt><trkpt lat="41.0631433" lon="9.23933"><ele>157.25</ele><time>2026-05-02T10:12:22.656Z</time></trkpt><trkpt lat="41.0630333" lon="9.2393817"><ele>157.5</ele><time>2026-05-02T10:12:23.655Z</time></trkpt><trkpt lat="41.0629283" lon="9.2393683"><ele>157.75</ele><time>2026-05-02T10:12:24.655Z</time></trkpt><trkpt lat="41.0628083" lon="9.23933"><ele>158.0</ele><time>2026-05-02T10:12:25.654Z</time></trkpt><trkpt lat="41.0626683" lon="9.2392567"><ele>158.0</ele><time>2026-05-02T10:12:26.655Z</time></trkpt><trkpt lat="41.0625433" lon="9.2391883"><ele>158.0</ele><time>2026-05-02T10:12:27.655Z</time></trkpt><trkpt lat="41.0624217" lon="9.2391367"><ele>158.0</ele><time>2026-05-02T10:12:28.656Z</time></trkpt><trkpt lat="41.062305" lon="9.2391233"><ele>158.0</ele><time>2026-05-02T10:12:29.655Z</time></trkpt><trkpt lat="41.0621933" lon="9.2391233"><ele>159.5</ele><time>2026-05-02T10:12:30.655Z</time></trkpt><trkpt lat="41.0620817" lon="9.2391583"><ele>161.0</ele><time>2026-05-02T10:12:31.655Z</time></trkpt><trkpt lat="41.0619333" lon="9.2392183"><ele>162.5</ele><time>2026-05-02T10:12:32.655Z</time></trkpt><trkpt lat="41.0617967" lon="9.2392483"><ele>164.0</ele><time>2026-05-02T10:12:33.655Z</time></trkpt><trkpt lat="41.0616583" lon="9.239265"><ele>166.5</ele><time>2026-05-02T10:12:34.655Z</time></trkpt><trkpt lat="41.0615267" lon="9.23924"><ele>169.0</ele><time>2026-05-02T10:12:35.655Z</time></trkpt><trkpt lat="41.0613917" lon="9.239195"><ele>171.5</ele><time>2026-05-02T10:12:36.655Z</time></trkpt><trkpt lat="41.061275" lon="9.2391233"><ele>174.0</ele><time>2026-05-02T10:12:37.655Z</time></trkpt><trkpt lat="41.061155" lon="9.2390283"><ele>174.33333333333334</ele><time>2026-05-02T10:12:38.655Z</time></trkpt><trkpt lat="41.0610233" lon="9.2389133"><ele>174.66666666666669</ele><time>2026-05-02T10:12:39.655Z</time></trkpt><trkpt lat="41.060885" lon="9.2388133"><ele>175.0</ele><time>2026-05-02T10:12:40.655Z</time></trkpt><trkpt lat="41.0607483" lon="9.2387133"><ele>175.0</ele><time>2026-05-02T10:12:41.655Z</time></trkpt><trkpt lat="41.0606133" lon="9.2386183"><ele>175.0</ele><time>2026-05-02T10:12:42.655Z</time></trkpt><trkpt lat="41.0604883" lon="9.2385267"><ele>175.0</ele><time>2026-05-02T10:12:43.655Z</time></trkpt><trkpt lat="41.0603667" lon="9.2384317"><ele>175.0</ele><time>2026-05-02T10:12:44.656Z</time></trkpt><trkpt lat="41.0602633" lon="9.2383417"><ele>175.0</ele><time>2026-05-02T10:12:45.655Z</time></trkpt><trkpt lat="41.0601717" lon="9.23822"><ele>175.0</ele><time>2026-05-02T10:12:46.655Z</time></trkpt><trkpt lat="41.0600883" lon="9.238085"><ele>175.0</ele><time>2026-05-02T10:12:47.655Z</time></trkpt><trkpt lat="41.0600083" lon="9.2379417"><ele>175.0</ele><time>2026-05-02T10:12:48.655Z</time></trkpt><trkpt lat="41.0599183" lon="9.2378317"><ele>178.0</ele><time>2026-05-02T10:12:49.655Z</time></trkpt><trkpt lat="41.0598233" lon="9.237735"><ele>181.0</ele><time>2026-05-02T10:12:50.655Z</time></trkpt><trkpt lat="41.059725" lon="9.2376517"><ele>184.0</ele><time>2026-05-02T10:12:51.655Z</time></trkpt><trkpt lat="41.05961" lon="9.2375883"><ele>187.0</ele><time>2026-05-02T10:12:52.655Z</time></trkpt><trkpt lat="41.0595033" lon="9.2375267"><ele>187.0</ele><time>2026-05-02T10:12:53.656Z</time></trkpt><trkpt lat="41.0594067" lon="9.2374683"><ele>187.0</ele><time>2026-05-02T10:12:54.655Z</time></trkpt><trkpt lat="41.059315" lon="9.2373867"><ele>187.0</ele><time>2026-05-02T10:12:55.655Z</time></trkpt><trkpt lat="41.0592283" lon="9.2373017"><ele>187.0</ele><time>2026-05-02T10:12:56.655Z</time></trkpt><trkpt lat="41.0591367" lon="9.23722"><ele>187.0</ele><time>2026-05-02T10:12:57.655Z</time></trkpt><trkpt lat="41.0590417" lon="9.23716"><ele>191.0</ele><time>2026-05-02T10:12:58.655Z</time></trkpt><trkpt lat="41.0589367" lon="9.2371267"><ele>195.0</ele><time>2026-05-02T10:12:59.655Z</time></trkpt><trkpt lat="41.0588183" lon="9.23711"><ele>199.0</ele><time>2026-05-02T10:13:00.655Z</time></trkpt><trkpt lat="41.0587067" lon="9.2370817"><ele>203.0</ele><time>2026-05-02T10:13:01.655Z</time></trkpt><trkpt lat="41.0585917" lon="9.237065"><ele>203.0</ele><time>2026-05-02T10:13:02.655Z</time></trkpt><trkpt lat="41.0584617" lon="9.23705"><ele>203.0</ele><time>2026-05-02T10:13:03.655Z</time></trkpt><trkpt lat="41.0583333" lon="9.2370483"><ele>203.0</ele><time>2026-05-02T10:13:04.655Z</time></trkpt><trkpt lat="41.05818" lon="9.237055"><ele>203.0</ele><time>2026-05-02T10:13:05.655Z</time></trkpt><trkpt lat="41.058035" lon="9.2370533"><ele>203.5</ele><time>2026-05-02T10:13:06.655Z</time></trkpt><trkpt lat="41.05791" lon="9.2370183"><ele>204.0</ele><time>2026-05-02T10:13:07.655Z</time></trkpt><trkpt lat="41.0577833" lon="9.2369733"><ele>204.5</ele><time>2026-05-02T10:13:08.655Z</time></trkpt><trkpt lat="41.0576583" lon="9.2368917"><ele>205.0</ele><time>2026-05-02T10:13:09.655Z</time></trkpt><trkpt lat="41.057525" lon="9.23679"><ele>205.75</ele><time>2026-05-02T10:13:10.655Z</time></trkpt><trkpt lat="41.0574083" lon="9.2367117"><ele>206.5</ele><time>2026-05-02T10:13:11.655Z</time></trkpt><trkpt lat="41.057295" lon="9.2366417"><ele>207.25</ele><time>2026-05-02T10:13:12.655Z</time></trkpt><trkpt lat="41.05717" lon="9.2366033"><ele>208.0</ele><time>2026-05-02T10:13:13.655Z</time></trkpt><trkpt lat="41.0570317" lon="9.236585"><ele>208.0</ele><time>2026-05-02T10:13:14.655Z</time></trkpt><trkpt lat="41.0568983" lon="9.23657"><ele>208.0</ele><time>2026-05-02T10:13:15.655Z</time></trkpt><trkpt lat="41.0567367" lon="9.2365683"><ele>208.0</ele><time>2026-05-02T10:13:16.655Z</time></trkpt><trkpt lat="41.056565" lon="9.23657"><ele>208.0</ele><time>2026-05-02T10:13:17.655Z</time></trkpt><trkpt lat="41.0564083" lon="9.236575"><ele>208.0</ele><time>2026-05-02T10:13:18.655Z</time></trkpt><trkpt lat="41.056255" lon="9.236585"><ele>208.0</ele><time>2026-05-02T10:13:19.655Z</time></trkpt><trkpt lat="41.056095" lon="9.2365917"><ele>208.0</ele><time>2026-05-02T10:13:20.655Z</time></trkpt><trkpt lat="41.0559317" lon="9.2365967"><ele>208.0</ele><time>2026-05-02T10:13:21.655Z</time></trkpt><trkpt lat="41.055765" lon="9.236605"><ele>208.0</ele><time>2026-05-02T10:13:22.655Z</time></trkpt><trkpt lat="41.0555967" lon="9.2366117"><ele>209.0</ele><time>2026-05-02T10:13:23.655Z</time></trkpt><trkpt lat="41.0554483" lon="9.2366133"><ele>210.0</ele><time>2026-05-02T10:13:24.656Z</time></trkpt><trkpt lat="41.0553017" lon="9.2366183"><ele>211.0</ele><time>2026-05-02T10:13:25.655Z</time></trkpt><trkpt lat="41.055145" lon="9.2366083"><ele>211.0</ele><time>2026-05-02T10:13:26.655Z</time></trkpt><trkpt lat="41.054985" lon="9.2366217"><ele>211.0</ele><time>2026-05-02T10:13:27.655Z</time></trkpt><trkpt lat="41.0548317" lon="9.23665"><ele>211.0</ele><time>2026-05-02T10:13:28.655Z</time></trkpt><trkpt lat="41.05468" lon="9.2366783"><ele>212.66666666666666</ele><time>2026-05-02T10:13:29.656Z</time></trkpt><trkpt lat="41.05454" lon="9.236725"><ele>214.33333333333331</ele><time>2026-05-02T10:13:30.655Z</time></trkpt><trkpt lat="41.0543967" lon="9.2367867"><ele>216.0</ele><time>2026-05-02T10:13:31.655Z</time></trkpt><trkpt lat="41.054245" lon="9.23686"><ele>219.66666666666669</ele><time>2026-05-02T10:13:32.655Z</time></trkpt><trkpt lat="41.0540883" lon="9.2369483"><ele>223.33333333333334</ele><time>2026-05-02T10:13:33.655Z</time></trkpt><trkpt lat="41.0539617" lon="9.2370433"><ele>227.0</ele><time>2026-05-02T10:13:34.655Z</time></trkpt><trkpt lat="41.0538333" lon="9.2371583"><ele>227.0</ele><time>2026-05-02T10:13:35.655Z</time></trkpt><trkpt lat="41.0537033" lon="9.2372617"><ele>227.0</ele><time>2026-05-02T10:13:36.655Z</time></trkpt><trkpt lat="41.0535717" lon="9.2373617"><ele>227.0</ele><time>2026-05-02T10:13:37.655Z</time></trkpt><trkpt lat="41.05344" lon="9.2374633"><ele>228.0</ele><time>2026-05-02T10:13:38.655Z</time></trkpt><trkpt lat="41.0533133" lon="9.2375683"><ele>229.0</ele><time>2026-05-02T10:13:39.655Z</time></trkpt><trkpt lat="41.0531917" lon="9.2376733"><ele>230.0</ele><time>2026-05-02T10:13:40.655Z</time></trkpt><trkpt lat="41.0530633" lon="9.237745"><ele>231.0</ele><time>2026-05-02T10:13:41.655Z</time></trkpt><trkpt lat="41.05295" lon="9.237805"><ele>231.0</ele><time>2026-05-02T10:13:42.655Z</time></trkpt><trkpt lat="41.0528417" lon="9.2378517"><ele>231.0</ele><time>2026-05-02T10:13:43.655Z</time></trkpt><trkpt lat="41.0527267" lon="9.2378883"><ele>231.0</ele><time>2026-05-02T10:13:44.655Z</time></trkpt><trkpt lat="41.0526083" lon="9.2379133"><ele>231.0</ele><time>2026-05-02T10:13:45.655Z</time></trkpt><trkpt lat="41.0524983" lon="9.23793"><ele>232.5</ele><time>2026-05-02T10:13:46.656Z</time></trkpt><trkpt lat="41.05237" lon="9.2379117"><ele>234.0</ele><time>2026-05-02T10:13:47.655Z</time></trkpt><trkpt lat="41.0522433" lon="9.237875"><ele>235.5</ele><time>2026-05-02T10:13:48.655Z</time></trkpt><trkpt lat="41.05214" lon="9.2378317"><ele>237.0</ele><time>2026-05-02T10:13:49.655Z</time></trkpt><trkpt lat="41.0520433" lon="9.237815"><ele>237.0</ele><time>2026-05-02T10:13:50.655Z</time></trkpt><trkpt lat="41.0519583" lon="9.23782"><ele>237.0</ele><time>2026-05-02T10:13:51.655Z</time></trkpt><trkpt lat="41.051885" lon="9.237845"><ele>237.0</ele><time>2026-05-02T10:13:52.655Z</time></trkpt><trkpt lat="41.0518333" lon="9.2379017"><ele>237.0</ele><time>2026-05-02T10:13:53.655Z</time></trkpt><trkpt lat="41.0518083" lon="9.23807"><ele>237.0</ele><time>2026-05-02T10:13:55.655Z</time></trkpt><trkpt lat="41.051835" lon="9.2381833"><ele>237.0</ele><time>2026-05-02T10:13:56.655Z</time></trkpt><trkpt lat="41.051865" lon="9.2383183"><ele>237.16666666666666</ele><time>2026-05-02T10:13:57.655Z</time></trkpt><trkpt lat="41.05187" lon="9.2384183"><ele>237.33333333333331</ele><time>2026-05-02T10:13:58.655Z</time></trkpt><trkpt lat="41.0518217" lon="9.2385017"><ele>237.5</ele><time>2026-05-02T10:13:59.655Z</time></trkpt><trkpt lat="41.0517933" lon="9.23858"><ele>237.66666666666666</ele><time>2026-05-02T10:14:00.655Z</time></trkpt><trkpt lat="41.0516883" lon="9.2386517"><ele>237.83333333333331</ele><time>2026-05-02T10:14:02.655Z</time></trkpt><trkpt lat="41.05161" lon="9.2386933"><ele>238.0</ele><time>2026-05-02T10:14:03.655Z</time></trkpt><trkpt lat="41.051525" lon="9.2387567"><ele>239.4</ele><time>2026-05-02T10:14:04.655Z</time></trkpt><trkpt lat="41.0514317" lon="9.2388333"><ele>240.8</ele><time>2026-05-02T10:14:05.655Z</time></trkpt><trkpt lat="41.0513533" lon="9.2389567"><ele>242.2</ele><time>2026-05-02T10:14:06.655Z</time></trkpt><trkpt lat="41.0513083" lon="9.2390967"><ele>243.6</ele><time>2026-05-02T10:14:07.655Z</time></trkpt><trkpt lat="41.0512767" lon="9.2392183"><ele>245.0</ele><time>2026-05-02T10:14:08.655Z</time></trkpt><trkpt lat="41.051255" lon="9.239325"><ele>245.16666666666669</ele><time>2026-05-02T10:14:09.655Z</time></trkpt><trkpt lat="41.051245" lon="9.239415"><ele>245.33333333333334</ele><time>2026-05-02T10:14:10.655Z</time></trkpt><trkpt lat="41.0512017" lon="9.2394967"><ele>245.5</ele><time>2026-05-02T10:14:12.656Z</time></trkpt><trkpt lat="41.051145" lon="9.2394383"><ele>245.66666666666669</ele><time>2026-05-02T10:14:15.655Z</time></trkpt><trkpt lat="41.0510567" lon="9.2393433"><ele>245.83333333333334</ele><time>2026-05-02T10:14:17.655Z</time></trkpt><trkpt lat="41.051" lon="9.2392917"><ele>246.0</ele><time>2026-05-02T10:14:18.655Z</time></trkpt><trkpt lat="41.050945" lon="9.239235"><ele>246.0</ele><time>2026-05-02T10:14:19.655Z</time></trkpt><trkpt lat="41.0508767" lon="9.23917"><ele>246.00000000000003</ele><time>2026-05-02T10:14:20.655Z</time></trkpt><trkpt lat="41.0508017" lon="9.2391083"><ele>246.00000000000003</ele><time>2026-05-02T10:14:21.655Z</time></trkpt><trkpt lat="41.0507217" lon="9.2390417"><ele>246.0</ele><time>2026-05-02T10:14:22.655Z</time></trkpt><trkpt lat="41.0506383" lon="9.2389767"><ele>246.0</ele><time>2026-05-02T10:14:23.655Z</time></trkpt><trkpt lat="41.050545" lon="9.2389017"><ele>246.4</ele><time>2026-05-02T10:14:24.655Z</time></trkpt><trkpt lat="41.0504517" lon="9.2388333"><ele>246.8</ele><time>2026-05-02T10:14:25.655Z</time></trkpt><trkpt lat="41.050365" lon="9.2387683"><ele>247.20000000000002</ele><time>2026-05-02T10:14:26.655Z</time></trkpt><trkpt lat="41.050285" lon="9.2387017"><ele>247.60000000000002</ele><time>2026-05-02T10:14:27.655Z</time></trkpt><trkpt lat="41.0502167" lon="9.2386383"><ele>248.0</ele><time>2026-05-02T10:14:28.655Z</time></trkpt><trkpt lat="41.0501483" lon="9.23859"><ele>248.00000000000003</ele><time>2026-05-02T10:14:29.655Z</time></trkpt><trkpt lat="41.0500617" lon="9.23856"><ele>248.0</ele><time>2026-05-02T10:14:31.655Z</time></trkpt><trkpt lat="41.0500017" lon="9.2386367"><ele>248.0</ele><time>2026-05-02T10:14:34.655Z</time></trkpt><trkpt lat="41.05" lon="9.238725"><ele>248.0</ele><time>2026-05-02T10:14:37.655Z</time></trkpt><trkpt lat="41.050055" lon="9.238675"><ele>248.00000000000003</ele><time>2026-05-02T10:15:02.655Z</time></trkpt><trkpt lat="41.0501133" lon="9.238595"><ele>248.0</ele><time>2026-05-02T10:15:04.655Z</time></trkpt><trkpt lat="41.0502017" lon="9.2385867"><ele>248.00000000000003</ele><time>2026-05-02T10:15:06.655Z</time></trkpt><trkpt lat="41.0502617" lon="9.2386217"><ele>248.0</ele><time>2026-05-02T10:15:07.655Z</time></trkpt><trkpt lat="41.0503333" lon="9.2386833"><ele>248.0</ele><time>2026-05-02T10:15:08.655Z</time></trkpt><trkpt lat="41.0504067" lon="9.2387567"><ele>248.0</ele><time>2026-05-02T10:15:09.655Z</time></trkpt><trkpt lat="41.0504733" lon="9.2388183"><ele>248.00000000000003</ele><time>2026-05-02T10:15:10.655Z</time></trkpt><trkpt lat="41.0505267" lon="9.2388667"><ele>248.0</ele><time>2026-05-02T10:15:11.655Z</time></trkpt><trkpt lat="41.0506033" lon="9.2389267"><ele>248.00000000000003</ele><time>2026-05-02T10:15:13.655Z</time></trkpt><trkpt lat="41.05067" lon="9.238985"><ele>248.0</ele><time>2026-05-02T10:15:16.655Z</time></trkpt><trkpt lat="41.0506183" lon="9.2390467"><ele>248.0</ele><time>2026-05-02T10:20:26.655Z</time></trkpt><trkpt lat="41.050555" lon="9.2389717"><ele>248.0</ele><time>2026-05-02T10:20:53.654Z</time></trkpt><trkpt lat="41.05049" lon="9.2389283"><ele>248.00000000000003</ele><time>2026-05-02T10:20:54.654Z</time></trkpt><trkpt lat="41.050425" lon="9.238875"><ele>248.0</ele><time>2026-05-02T10:20:55.654Z</time></trkpt><trkpt lat="41.05035" lon="9.2388233"><ele>248.0</ele><time>2026-05-02T10:20:56.654Z</time></trkpt><trkpt lat="41.0502867" lon="9.2387717"><ele>248.00000000000003</ele><time>2026-05-02T10:20:57.654Z</time></trkpt><trkpt lat="41.050225" lon="9.23873"><ele>248.0</ele><time>2026-05-02T10:20:58.654Z</time></trkpt><trkpt lat="41.0501683" lon="9.23869"><ele>248.0</ele><time>2026-05-02T10:20:59.654Z</time></trkpt><trkpt lat="41.0501133" lon="9.2386483"><ele>248.00000000000003</ele><time>2026-05-02T10:21:00.654Z</time></trkpt><trkpt lat="41.05004" lon="9.238605"><ele>248.0</ele><time>2026-05-02T10:21:02.654Z</time></trkpt><trkpt lat="41.04999" lon="9.238705"><ele>248.0</ele><time>2026-05-02T10:21:08.654Z</time></trkpt><trkpt lat="41.0499617" lon="9.23888"><ele>247.83333333333334</ele><time>2026-05-02T10:21:10.655Z</time></trkpt><trkpt lat="41.04994" lon="9.2389817"><ele>247.66666666666669</ele><time>2026-05-02T10:21:11.654Z</time></trkpt><trkpt lat="41.0499117" lon="9.2390967"><ele>247.5</ele><time>2026-05-02T10:21:12.654Z</time></trkpt><trkpt lat="41.04988" lon="9.239205"><ele>247.33333333333331</ele><time>2026-05-02T10:21:13.654Z</time></trkpt><trkpt lat="41.0498433" lon="9.2393133"><ele>247.16666666666666</ele><time>2026-05-02T10:21:14.654Z</time></trkpt><trkpt lat="41.0497967" lon="9.23942"><ele>247.0</ele><time>2026-05-02T10:21:15.654Z</time></trkpt><trkpt lat="41.0497433" lon="9.2395183"><ele>247.0</ele><time>2026-05-02T10:21:16.655Z</time></trkpt><trkpt lat="41.0496933" lon="9.2396233"><ele>247.0</ele><time>2026-05-02T10:21:17.654Z</time></trkpt><trkpt lat="41.0496433" lon="9.2397467"><ele>247.0</ele><time>2026-05-02T10:21:18.654Z</time></trkpt><trkpt lat="41.0495933" lon="9.23988"><ele>247.0</ele><time>2026-05-02T10:21:19.654Z</time></trkpt><trkpt lat="41.0495367" lon="9.24003"><ele>247.0</ele><time>2026-05-02T10:21:20.654Z</time></trkpt><trkpt lat="41.0494783" lon="9.2401933"><ele>245.75</ele><time>2026-05-02T10:21:21.654Z</time></trkpt><trkpt lat="41.0494167" lon="9.2403567"><ele>244.5</ele><time>2026-05-02T10:21:22.654Z</time></trkpt><trkpt lat="41.0493533" lon="9.2405233"><ele>243.25</ele><time>2026-05-02T10:21:23.654Z</time></trkpt><trkpt lat="41.0492933" lon="9.2406883"><ele>242.0</ele><time>2026-05-02T10:21:24.654Z</time></trkpt><trkpt lat="41.0492267" lon="9.2408517"><ele>241.25</ele><time>2026-05-02T10:21:25.654Z</time></trkpt><trkpt lat="41.0491567" lon="9.2410167"><ele>240.5</ele><time>2026-05-02T10:21:26.654Z</time></trkpt><trkpt lat="41.04908" lon="9.2411883"><ele>239.75</ele><time>2026-05-02T10:21:27.655Z</time></trkpt><trkpt lat="41.049005" lon="9.2413683"><ele>239.0</ele><time>2026-05-02T10:21:28.654Z</time></trkpt><trkpt lat="41.0489267" lon="9.2415433"><ele>237.66666666666669</ele><time>2026-05-02T10:21:29.654Z</time></trkpt><trkpt lat="41.04885" lon="9.241725"><ele>236.33333333333331</ele><time>2026-05-02T10:21:30.654Z</time></trkpt><trkpt lat="41.0487733" lon="9.2418967"><ele>235.0</ele><time>2026-05-02T10:21:31.654Z</time></trkpt><trkpt lat="41.0486833" lon="9.2420733"><ele>235.0</ele><time>2026-05-02T10:21:32.654Z</time></trkpt><trkpt lat="41.0485933" lon="9.242245"><ele>235.0</ele><time>2026-05-02T10:21:33.654Z</time></trkpt><trkpt lat="41.0485017" lon="9.2423967"><ele>235.0</ele><time>2026-05-02T10:21:34.654Z</time></trkpt><trkpt lat="41.0484017" lon="9.24255"><ele>233.33333333333331</ele><time>2026-05-02T10:21:35.654Z</time></trkpt><trkpt lat="41.04828" lon="9.242685"><ele>231.66666666666669</ele><time>2026-05-02T10:21:36.654Z</time></trkpt><trkpt lat="41.0481633" lon="9.2428217"><ele>230.0</ele><time>2026-05-02T10:21:37.654Z</time></trkpt><trkpt lat="41.048045" lon="9.2429567"><ele>230.0</ele><time>2026-05-02T10:21:38.654Z</time></trkpt><trkpt lat="41.0479233" lon="9.243085"><ele>230.0</ele><time>2026-05-02T10:21:39.654Z</time></trkpt><trkpt lat="41.0478" lon="9.243225"><ele>230.0</ele><time>2026-05-02T10:21:40.654Z</time></trkpt><trkpt lat="41.047695" lon="9.2433717"><ele>227.25</ele><time>2026-05-02T10:21:41.654Z</time></trkpt><trkpt lat="41.047585" lon="9.2435133"><ele>224.5</ele><time>2026-05-02T10:21:42.654Z</time></trkpt><trkpt lat="41.04751" lon="9.2436683"><ele>221.75</ele><time>2026-05-02T10:21:43.654Z</time></trkpt><trkpt lat="41.0474433" lon="9.2438333"><ele>219.0</ele><time>2026-05-02T10:21:44.654Z</time></trkpt><trkpt lat="41.0473817" lon="9.2440117"><ele>214.66666666666669</ele><time>2026-05-02T10:21:45.654Z</time></trkpt><trkpt lat="41.047315" lon="9.244195"><ele>210.33333333333334</ele><time>2026-05-02T10:21:46.654Z</time></trkpt><trkpt lat="41.047245" lon="9.2443733"><ele>206.0</ele><time>2026-05-02T10:21:47.654Z</time></trkpt><trkpt lat="41.047195" lon="9.244565"><ele>206.0</ele><time>2026-05-02T10:21:48.654Z</time></trkpt><trkpt lat="41.0471567" lon="9.24476"><ele>206.0</ele><time>2026-05-02T10:21:49.654Z</time></trkpt><trkpt lat="41.0471217" lon="9.2449633"><ele>206.0</ele><time>2026-05-02T10:21:50.654Z</time></trkpt><trkpt lat="41.04709" lon="9.2451667"><ele>205.0</ele><time>2026-05-02T10:21:51.654Z</time></trkpt><trkpt lat="41.047065" lon="9.245375"><ele>204.0</ele><time>2026-05-02T10:21:52.654Z</time></trkpt><trkpt lat="41.0470433" lon="9.2455833"><ele>203.0</ele><time>2026-05-02T10:21:53.654Z</time></trkpt><trkpt lat="41.04702" lon="9.2458117"><ele>201.33333333333334</ele><time>2026-05-02T10:21:54.654Z</time></trkpt><trkpt lat="41.04699" lon="9.2460417"><ele>199.66666666666669</ele><time>2026-05-02T10:21:55.654Z</time></trkpt><trkpt lat="41.04696" lon="9.2462783"><ele>198.0</ele><time>2026-05-02T10:21:56.654Z</time></trkpt><trkpt lat="41.0469267" lon="9.2465183"><ele>196.66666666666669</ele><time>2026-05-02T10:21:57.654Z</time></trkpt><trkpt lat="41.046895" lon="9.2467467"><ele>195.33333333333334</ele><time>2026-05-02T10:21:58.654Z</time></trkpt><trkpt lat="41.04687" lon="9.2469667"><ele>194.0</ele><time>2026-05-02T10:21:59.654Z</time></trkpt><trkpt lat="41.0468567" lon="9.2471683"><ele>195.0</ele><time>2026-05-02T10:22:00.654Z</time></trkpt><trkpt lat="41.0468217" lon="9.2473667"><ele>196.0</ele><time>2026-05-02T10:22:01.654Z</time></trkpt><trkpt lat="41.0467767" lon="9.2475683"><ele>197.0</ele><time>2026-05-02T10:22:02.654Z</time></trkpt><trkpt lat="41.04674" lon="9.247785"><ele>197.0</ele><time>2026-05-02T10:22:03.654Z</time></trkpt><trkpt lat="41.046715" lon="9.2480133"><ele>197.0</ele><time>2026-05-02T10:22:04.654Z</time></trkpt><trkpt lat="41.04669" lon="9.2482367"><ele>197.0</ele><time>2026-05-02T10:22:05.654Z</time></trkpt><trkpt lat="41.0466683" lon="9.2484517"><ele>196.0</ele><time>2026-05-02T10:22:06.654Z</time></trkpt><trkpt lat="41.0466483" lon="9.248665"><ele>195.0</ele><time>2026-05-02T10:22:07.654Z</time></trkpt><trkpt lat="41.046625" lon="9.2488633"><ele>194.0</ele><time>2026-05-02T10:22:08.654Z</time></trkpt><trkpt lat="41.046585" lon="9.2490433"><ele>192.75</ele><time>2026-05-02T10:22:09.654Z</time></trkpt><trkpt lat="41.0465467" lon="9.2492117"><ele>191.5</ele><time>2026-05-02T10:22:10.654Z</time></trkpt><trkpt lat="41.046515" lon="9.2493867"><ele>190.25</ele><time>2026-05-02T10:22:11.654Z</time></trkpt><trkpt lat="41.0464817" lon="9.24956"><ele>189.0</ele><time>2026-05-02T10:22:12.654Z</time></trkpt><trkpt lat="41.0464567" lon="9.24972"><ele>188.25</ele><time>2026-05-02T10:22:13.654Z</time></trkpt><trkpt lat="41.0464267" lon="9.2498717"><ele>187.5</ele><time>2026-05-02T10:22:14.654Z</time></trkpt><trkpt lat="41.0463933" lon="9.2500183"><ele>186.75</ele><time>2026-05-02T10:22:15.654Z</time></trkpt><trkpt lat="41.0463533" lon="9.250155"><ele>186.0</ele><time>2026-05-02T10:22:16.655Z</time></trkpt><trkpt lat="41.0463" lon="9.2502783"><ele>186.0</ele><time>2026-05-02T10:22:17.654Z</time></trkpt><trkpt lat="41.0462433" lon="9.25039"><ele>186.0</ele><time>2026-05-02T10:22:18.654Z</time></trkpt><trkpt lat="41.0461933" lon="9.250485"><ele>186.0</ele><time>2026-05-02T10:22:19.654Z</time></trkpt><trkpt lat="41.0461533" lon="9.2505633"><ele>186.0</ele><time>2026-05-02T10:22:20.654Z</time></trkpt><trkpt lat="41.046095" lon="9.2506683"><ele>186.0</ele><time>2026-05-02T10:22:22.654Z</time></trkpt><trkpt lat="41.0460433" lon="9.25076"><ele>186.0</ele><time>2026-05-02T10:22:24.654Z</time></trkpt><trkpt lat="41.0459817" lon="9.2508817"><ele>185.66666666666666</ele><time>2026-05-02T10:22:26.654Z</time></trkpt><trkpt lat="41.0459417" lon="9.2509583"><ele>185.33333333333334</ele><time>2026-05-02T10:22:27.654Z</time></trkpt><trkpt lat="41.0458933" lon="9.25104"><ele>185.0</ele><time>2026-05-02T10:22:28.654Z</time></trkpt><trkpt lat="41.0458417" lon="9.2511167"><ele>184.66666666666669</ele><time>2026-05-02T10:22:29.654Z</time></trkpt><trkpt lat="41.0457783" lon="9.251195"><ele>184.33333333333334</ele><time>2026-05-02T10:22:30.654Z</time></trkpt><trkpt lat="41.04571" lon="9.2512767"><ele>184.0</ele><time>2026-05-02T10:22:31.654Z</time></trkpt><trkpt lat="41.0456617" lon="9.2513683"><ele>182.79999999999998</ele><time>2026-05-02T10:22:32.654Z</time></trkpt><trkpt lat="41.0456283" lon="9.2514667"><ele>181.6</ele><time>2026-05-02T10:22:33.654Z</time></trkpt><trkpt lat="41.0456283" lon="9.2516"><ele>180.4</ele><time>2026-05-02T10:22:34.654Z</time></trkpt><trkpt lat="41.0456467" lon="9.2517533"><ele>179.2</ele><time>2026-05-02T10:22:35.654Z</time></trkpt><trkpt lat="41.0456667" lon="9.2519083"><ele>178.0</ele><time>2026-05-02T10:22:36.654Z</time></trkpt><trkpt lat="41.0456983" lon="9.2521"><ele>178.0</ele><time>2026-05-02T10:22:37.654Z</time></trkpt><trkpt lat="41.0456883" lon="9.25227"><ele>178.0</ele><time>2026-05-02T10:22:38.654Z</time></trkpt><trkpt lat="41.04566" lon="9.2524483"><ele>178.0</ele><time>2026-05-02T10:22:39.654Z</time></trkpt><trkpt lat="41.0456133" lon="9.2526267"><ele>178.0</ele><time>2026-05-02T10:22:40.654Z</time></trkpt><trkpt lat="41.04555" lon="9.2528133"><ele>177.33333333333334</ele><time>2026-05-02T10:22:41.654Z</time></trkpt><trkpt lat="41.0454667" lon="9.2529967"><ele>176.66666666666666</ele><time>2026-05-02T10:22:42.654Z</time></trkpt><trkpt lat="41.0453933" lon="9.2531767"><ele>176.0</ele><time>2026-05-02T10:22:43.654Z</time></trkpt><trkpt lat="41.045315" lon="9.2533617"><ele>175.33333333333331</ele><time>2026-05-02T10:22:44.654Z</time></trkpt><trkpt lat="41.0452467" lon="9.25355"><ele>174.66666666666666</ele><time>2026-05-02T10:22:45.654Z</time></trkpt><trkpt lat="41.0451683" lon="9.253735"><ele>174.0</ele><time>2026-05-02T10:22:46.654Z</time></trkpt><trkpt lat="41.0451017" lon="9.253915"><ele>173.0</ele><time>2026-05-02T10:22:47.654Z</time></trkpt><trkpt lat="41.0450233" lon="9.2541017"><ele>172.0</ele><time>2026-05-02T10:22:48.654Z</time></trkpt><trkpt lat="41.044935" lon="9.2542817"><ele>171.0</ele><time>2026-05-02T10:22:49.654Z</time></trkpt><trkpt lat="41.04484" lon="9.2544633"><ele>170.0</ele><time>2026-05-02T10:22:50.654Z</time></trkpt><trkpt lat="41.0447533" lon="9.2546267"><ele>169.0</ele><time>2026-05-02T10:22:51.654Z</time></trkpt><trkpt lat="41.044665" lon="9.254795"><ele>168.0</ele><time>2026-05-02T10:22:52.654Z</time></trkpt><trkpt lat="41.044565" lon="9.2549683"><ele>167.33333333333334</ele><time>2026-05-02T10:22:53.654Z</time></trkpt><trkpt lat="41.044455" lon="9.2551233"><ele>166.66666666666669</ele><time>2026-05-02T10:22:54.654Z</time></trkpt><trkpt lat="41.0443667" lon="9.25528"><ele>166.0</ele><time>2026-05-02T10:22:55.654Z</time></trkpt><trkpt lat="41.044275" lon="9.25544"><ele>166.0</ele><time>2026-05-02T10:22:56.654Z</time></trkpt><trkpt lat="41.0442017" lon="9.2556"><ele>166.0</ele><time>2026-05-02T10:22:57.654Z</time></trkpt><trkpt lat="41.0441433" lon="9.2557683"><ele>166.0</ele><time>2026-05-02T10:22:58.654Z</time></trkpt><trkpt lat="41.0441117" lon="9.25595"><ele>166.0</ele><time>2026-05-02T10:22:59.654Z</time></trkpt><trkpt lat="41.0440967" lon="9.25613"><ele>166.33333333333334</ele><time>2026-05-02T10:23:00.654Z</time></trkpt><trkpt lat="41.0440967" lon="9.25632"><ele>166.66666666666666</ele><time>2026-05-02T10:23:01.654Z</time></trkpt><trkpt lat="41.0441233" lon="9.2565233"><ele>167.0</ele><time>2026-05-02T10:23:02.654Z</time></trkpt><trkpt lat="41.0441417" lon="9.2567283"><ele>165.66666666666666</ele><time>2026-05-02T10:23:03.654Z</time></trkpt><trkpt lat="41.0441817" lon="9.2569317"><ele>164.33333333333334</ele><time>2026-05-02T10:23:04.654Z</time></trkpt><trkpt lat="41.0442317" lon="9.2571233"><ele>163.0</ele><time>2026-05-02T10:23:05.654Z</time></trkpt><trkpt lat="41.04434" lon="9.2572733"><ele>163.0</ele><time>2026-05-02T10:23:06.654Z</time></trkpt><trkpt lat="41.0444433" lon="9.2574067"><ele>163.0</ele><time>2026-05-02T10:23:07.654Z</time></trkpt><trkpt lat="41.0445583" lon="9.2575367"><ele>163.0</ele><time>2026-05-02T10:23:08.654Z</time></trkpt><trkpt lat="41.0446667" lon="9.2576417"><ele>163.0</ele><time>2026-05-02T10:23:09.654Z</time></trkpt><trkpt lat="41.0447783" lon="9.2577183"><ele>163.0</ele><time>2026-05-02T10:23:10.655Z</time></trkpt><trkpt lat="41.0448767" lon="9.257795"><ele>163.0</ele><time>2026-05-02T10:23:11.654Z</time></trkpt><trkpt lat="41.04498" lon="9.2578433"><ele>163.0</ele><time>2026-05-02T10:23:12.654Z</time></trkpt><trkpt lat="41.04507" lon="9.257915"><ele>163.0</ele><time>2026-05-02T10:23:13.654Z</time></trkpt><trkpt lat="41.0451167" lon="9.2579917"><ele>163.0</ele><time>2026-05-02T10:23:14.654Z</time></trkpt><trkpt lat="41.0451317" lon="9.2581317"><ele>163.60000000000002</ele><time>2026-05-02T10:23:16.654Z</time></trkpt><trkpt lat="41.0450917" lon="9.2582117"><ele>164.20000000000002</ele><time>2026-05-02T10:23:17.654Z</time></trkpt><trkpt lat="41.0450317" lon="9.2582717"><ele>164.8</ele><time>2026-05-02T10:23:18.655Z</time></trkpt><trkpt lat="41.044945" lon="9.2583117"><ele>165.4</ele><time>2026-05-02T10:23:19.655Z</time></trkpt><trkpt lat="41.0448167" lon="9.2583217"><ele>166.0</ele><time>2026-05-02T10:23:20.654Z</time></trkpt><trkpt lat="41.04465" lon="9.258305"><ele>170.33333333333334</ele><time>2026-05-02T10:23:21.654Z</time></trkpt><trkpt lat="41.044475" lon="9.2582767"><ele>174.66666666666666</ele><time>2026-05-02T10:23:22.654Z</time></trkpt><trkpt lat="41.0443" lon="9.258235"><ele>179.0</ele><time>2026-05-02T10:23:23.654Z</time></trkpt><trkpt lat="41.0441017" lon="9.2581783"><ele>181.33333333333331</ele><time>2026-05-02T10:23:24.654Z</time></trkpt><trkpt lat="41.04393" lon="9.2581333"><ele>183.66666666666666</ele><time>2026-05-02T10:23:25.654Z</time></trkpt><trkpt lat="41.0437733" lon="9.2580983"><ele>186.0</ele><time>2026-05-02T10:23:26.654Z</time></trkpt><trkpt lat="41.0436217" lon="9.2580633"><ele>186.75</ele><time>2026-05-02T10:23:27.654Z</time></trkpt><trkpt lat="41.04348" lon="9.2580617"><ele>187.5</ele><time>2026-05-02T10:23:28.654Z</time></trkpt><trkpt lat="41.0433583" lon="9.258085"><ele>188.25</ele><time>2026-05-02T10:23:29.654Z</time></trkpt><trkpt lat="41.04321" lon="9.2581383"><ele>189.0</ele><time>2026-05-02T10:23:30.654Z</time></trkpt><trkpt lat="41.0430933" lon="9.2582183"><ele>189.0</ele><time>2026-05-02T10:23:31.654Z</time></trkpt><trkpt lat="41.04298" lon="9.258375"><ele>189.0</ele><time>2026-05-02T10:23:32.654Z</time></trkpt><trkpt lat="41.04288" lon="9.2585217"><ele>189.0</ele><time>2026-05-02T10:23:33.654Z</time></trkpt><trkpt lat="41.0427517" lon="9.25873"><ele>189.0</ele><time>2026-05-02T10:23:34.654Z</time></trkpt><trkpt lat="41.042675" lon="9.2589383"><ele>189.0</ele><time>2026-05-02T10:23:35.654Z</time></trkpt><trkpt lat="41.04262" lon="9.2591467"><ele>189.0</ele><time>2026-05-02T10:23:36.654Z</time></trkpt><trkpt lat="41.04257" lon="9.2593533"><ele>193.33333333333331</ele><time>2026-05-02T10:23:37.654Z</time></trkpt><trkpt lat="41.0425283" lon="9.2595717"><ele>197.66666666666666</ele><time>2026-05-02T10:23:38.654Z</time></trkpt><trkpt lat="41.04248" lon="9.259765"><ele>202.0</ele><time>2026-05-02T10:23:39.654Z</time></trkpt><trkpt lat="41.042365" lon="9.2599367"><ele>204.75</ele><time>2026-05-02T10:23:40.654Z</time></trkpt><trkpt lat="41.0422817" lon="9.260075"><ele>207.5</ele><time>2026-05-02T10:23:41.654Z</time></trkpt><trkpt lat="41.0421883" lon="9.2601967"><ele>210.25</ele><time>2026-05-02T10:23:42.654Z</time></trkpt><trkpt lat="41.0420883" lon="9.260285"><ele>213.0</ele><time>2026-05-02T10:23:43.654Z</time></trkpt><trkpt lat="41.0419867" lon="9.2603433"><ele>213.0</ele><time>2026-05-02T10:23:44.654Z</time></trkpt><trkpt lat="41.0418833" lon="9.26037"><ele>213.0</ele><time>2026-05-02T10:23:45.654Z</time></trkpt><trkpt lat="41.0417067" lon="9.2603433"><ele>213.0</ele><time>2026-05-02T10:23:46.654Z</time></trkpt><trkpt lat="41.0415933" lon="9.2603133"><ele>213.0</ele><time>2026-05-02T10:23:47.654Z</time></trkpt><trkpt lat="41.0414883" lon="9.260275"><ele>212.5</ele><time>2026-05-02T10:23:48.654Z</time></trkpt><trkpt lat="41.0413717" lon="9.26024"><ele>212.0</ele><time>2026-05-02T10:23:49.654Z</time></trkpt><trkpt lat="41.0412483" lon="9.2602133"><ele>211.5</ele><time>2026-05-02T10:23:50.654Z</time></trkpt><trkpt lat="41.0411417" lon="9.260205"><ele>211.0</ele><time>2026-05-02T10:23:51.654Z</time></trkpt><trkpt lat="41.0410417" lon="9.260205"><ele>211.0</ele><time>2026-05-02T10:23:52.654Z</time></trkpt><trkpt lat="41.0409317" lon="9.26021"><ele>211.0</ele><time>2026-05-02T10:23:53.654Z</time></trkpt><trkpt lat="41.04083" lon="9.2602083"><ele>211.0</ele><time>2026-05-02T10:23:54.654Z</time></trkpt><trkpt lat="41.040725" lon="9.2601967"><ele>211.0</ele><time>2026-05-02T10:23:55.654Z</time></trkpt><trkpt lat="41.0406317" lon="9.260175"><ele>211.0</ele><time>2026-05-02T10:23:56.654Z</time></trkpt><trkpt lat="41.0405483" lon="9.2601417"><ele>211.4</ele><time>2026-05-02T10:23:57.654Z</time></trkpt><trkpt lat="41.0404683" lon="9.2601"><ele>211.8</ele><time>2026-05-02T10:23:58.654Z</time></trkpt><trkpt lat="41.040385" lon="9.2600583"><ele>212.20000000000002</ele><time>2026-05-02T10:23:59.654Z</time></trkpt><trkpt lat="41.0403067" lon="9.2599967"><ele>212.60000000000002</ele><time>2026-05-02T10:24:00.654Z</time></trkpt><trkpt lat="41.0402233" lon="9.2599117"><ele>213.0</ele><time>2026-05-02T10:24:01.654Z</time></trkpt><trkpt lat="41.0401517" lon="9.25981"><ele>213.0</ele><time>2026-05-02T10:24:02.654Z</time></trkpt><trkpt lat="41.0400867" lon="9.259705"><ele>213.0</ele><time>2026-05-02T10:24:03.654Z</time></trkpt><trkpt lat="41.0400233" lon="9.2596033"><ele>213.0</ele><time>2026-05-02T10:24:04.654Z</time></trkpt><trkpt lat="41.0398833" lon="9.2594183"><ele>213.0</ele><time>2026-05-02T10:24:06.654Z</time></trkpt><trkpt lat="41.0398017" lon="9.259325"><ele>213.0</ele><time>2026-05-02T10:24:07.654Z</time></trkpt><trkpt lat="41.039605" lon="9.2591467"><ele>213.0</ele><time>2026-05-02T10:24:09.654Z</time></trkpt><trkpt lat="41.039505" lon="9.2590383"><ele>213.0</ele><time>2026-05-02T10:24:10.654Z</time></trkpt><trkpt lat="41.0394133" lon="9.258925"><ele>211.5</ele><time>2026-05-02T10:24:11.654Z</time></trkpt><trkpt lat="41.0393117" lon="9.2588133"><ele>210.0</ele><time>2026-05-02T10:24:12.654Z</time></trkpt><trkpt lat="41.0392" lon="9.2587117"><ele>208.5</ele><time>2026-05-02T10:24:13.654Z</time></trkpt><trkpt lat="41.039085" lon="9.2586383"><ele>207.0</ele><time>2026-05-02T10:24:14.654Z</time></trkpt><trkpt lat="41.0389617" lon="9.258615"><ele>207.0</ele><time>2026-05-02T10:24:15.654Z</time></trkpt><trkpt lat="41.0388233" lon="9.2585733"><ele>207.0</ele><time>2026-05-02T10:24:16.654Z</time></trkpt><trkpt lat="41.0386683" lon="9.2585283"><ele>207.0</ele><time>2026-05-02T10:24:17.654Z</time></trkpt><trkpt lat="41.0385417" lon="9.2584917"><ele>207.0</ele><time>2026-05-02T10:24:18.654Z</time></trkpt><trkpt lat="41.038415" lon="9.2584417"><ele>208.5</ele><time>2026-05-02T10:24:19.654Z</time></trkpt><trkpt lat="41.0382983" lon="9.2583567"><ele>210.0</ele><time>2026-05-02T10:24:20.654Z</time></trkpt><trkpt lat="41.0382033" lon="9.2582783"><ele>211.5</ele><time>2026-05-02T10:24:21.654Z</time></trkpt><trkpt lat="41.0381017" lon="9.2582033"><ele>213.0</ele><time>2026-05-02T10:24:22.654Z</time></trkpt><trkpt lat="41.0379983" lon="9.2581433"><ele>213.0</ele><time>2026-05-02T10:24:23.654Z</time></trkpt><trkpt lat="41.037895" lon="9.2581"><ele>213.0</ele><time>2026-05-02T10:24:24.654Z</time></trkpt><trkpt lat="41.0377933" lon="9.2580783"><ele>213.0</ele><time>2026-05-02T10:24:25.654Z</time></trkpt><trkpt lat="41.0376933" lon="9.2580817"><ele>213.0</ele><time>2026-05-02T10:24:26.654Z</time></trkpt><trkpt lat="41.0376017" lon="9.25812"><ele>213.0</ele><time>2026-05-02T10:24:27.654Z</time></trkpt><trkpt lat="41.0375033" lon="9.2581917"><ele>214.0</ele><time>2026-05-02T10:24:28.654Z</time></trkpt><trkpt lat="41.037415" lon="9.2582883"><ele>215.0</ele><time>2026-05-02T10:24:29.654Z</time></trkpt><trkpt lat="41.037325" lon="9.2583783"><ele>216.0</ele><time>2026-05-02T10:24:30.655Z</time></trkpt><trkpt lat="41.03724" lon="9.2584517"><ele>217.0</ele><time>2026-05-02T10:24:31.654Z</time></trkpt><trkpt lat="41.037145" lon="9.2584983"><ele>218.0</ele><time>2026-05-02T10:24:32.654Z</time></trkpt><trkpt lat="41.0370517" lon="9.258525"><ele>218.0</ele><time>2026-05-02T10:24:33.654Z</time></trkpt><trkpt lat="41.0369517" lon="9.2585283"><ele>218.0</ele><time>2026-05-02T10:24:34.654Z</time></trkpt><trkpt lat="41.036865" lon="9.2585133"><ele>218.0</ele><time>2026-05-02T10:24:35.654Z</time></trkpt><trkpt lat="41.0368017" lon="9.2584767"><ele>218.0</ele><time>2026-05-02T10:24:36.654Z</time></trkpt><trkpt lat="41.036775" lon="9.2583267"><ele>218.0</ele><time>2026-05-02T10:24:38.654Z</time></trkpt><trkpt lat="41.0367517" lon="9.25819"><ele>218.75</ele><time>2026-05-02T10:24:40.654Z</time></trkpt><trkpt lat="41.03678" lon="9.25807"><ele>219.5</ele><time>2026-05-02T10:24:41.654Z</time></trkpt><trkpt lat="41.0369033" lon="9.2578767"><ele>220.25</ele><time>2026-05-02T10:24:42.654Z</time></trkpt><trkpt lat="41.03692" lon="9.25773"><ele>221.0</ele><time>2026-05-02T10:24:43.654Z</time></trkpt><trkpt lat="41.036935" lon="9.257575"><ele>221.0</ele><time>2026-05-02T10:24:44.655Z</time></trkpt><trkpt lat="41.0369417" lon="9.2574"><ele>221.0</ele><time>2026-05-02T10:24:45.655Z</time></trkpt><trkpt lat="41.036975" lon="9.2571483"><ele>221.0</ele><time>2026-05-02T10:24:46.654Z</time></trkpt><trkpt lat="41.0369683" lon="9.256985"><ele>221.0</ele><time>2026-05-02T10:24:47.654Z</time></trkpt><trkpt lat="41.036975" lon="9.2568"><ele>222.75</ele><time>2026-05-02T10:24:48.654Z</time></trkpt><trkpt lat="41.0369617" lon="9.2566083"><ele>224.5</ele><time>2026-05-02T10:24:49.654Z</time></trkpt><trkpt lat="41.0369517" lon="9.2564067"><ele>226.25</ele><time>2026-05-02T10:24:50.654Z</time></trkpt><trkpt lat="41.0369417" lon="9.2562283"><ele>228.0</ele><time>2026-05-02T10:24:51.654Z</time></trkpt><trkpt lat="41.0369367" lon="9.2560683"><ele>229.5</ele><time>2026-05-02T10:24:52.654Z</time></trkpt><trkpt lat="41.0369283" lon="9.2559117"><ele>231.0</ele><time>2026-05-02T10:24:53.654Z</time></trkpt><trkpt lat="41.036885" lon="9.2557617"><ele>232.5</ele><time>2026-05-02T10:24:54.654Z</time></trkpt><trkpt lat="41.036835" lon="9.2556233"><ele>234.0</ele><time>2026-05-02T10:24:55.654Z</time></trkpt><trkpt lat="41.0367567" lon="9.2555383"><ele>234.5</ele><time>2026-05-02T10:24:56.654Z</time></trkpt><trkpt lat="41.0366883" lon="9.2554317"><ele>235.0</ele><time>2026-05-02T10:24:57.654Z</time></trkpt><trkpt lat="41.0366033" lon="9.2553367"><ele>235.5</ele><time>2026-05-02T10:24:58.654Z</time></trkpt><trkpt lat="41.0364967" lon="9.25525"><ele>236.0</ele><time>2026-05-02T10:24:59.654Z</time></trkpt><trkpt lat="41.0363667" lon="9.2551567"><ele>236.66666666666669</ele><time>2026-05-02T10:25:00.654Z</time></trkpt><trkpt lat="41.0362183" lon="9.255065"><ele>237.33333333333331</ele><time>2026-05-02T10:25:01.654Z</time></trkpt><trkpt lat="41.0360667" lon="9.2549733"><ele>238.0</ele><time>2026-05-02T10:25:02.654Z</time></trkpt><trkpt lat="41.0359383" lon="9.2548767"><ele>240.0</ele><time>2026-05-02T10:25:03.654Z</time></trkpt><trkpt lat="41.0358017" lon="9.25479"><ele>242.0</ele><time>2026-05-02T10:25:04.654Z</time></trkpt><trkpt lat="41.03568" lon="9.2547017"><ele>244.0</ele><time>2026-05-02T10:25:05.655Z</time></trkpt><trkpt lat="41.0355533" lon="9.2546283"><ele>246.0</ele><time>2026-05-02T10:25:06.654Z</time></trkpt><trkpt lat="41.035425" lon="9.2545467"><ele>246.75</ele><time>2026-05-02T10:25:07.654Z</time></trkpt><trkpt lat="41.0352933" lon="9.25447"><ele>247.5</ele><time>2026-05-02T10:25:08.654Z</time></trkpt><trkpt lat="41.0351617" lon="9.2543917"><ele>248.25</ele><time>2026-05-02T10:25:09.654Z</time></trkpt><trkpt lat="41.0350283" lon="9.2543317"><ele>249.0</ele><time>2026-05-02T10:25:10.654Z</time></trkpt><trkpt lat="41.0348933" lon="9.254295"><ele>251.0</ele><time>2026-05-02T10:25:11.654Z</time></trkpt><trkpt lat="41.0347617" lon="9.2542617"><ele>253.0</ele><time>2026-05-02T10:25:12.654Z</time></trkpt><trkpt lat="41.034625" lon="9.2542317"><ele>255.0</ele><time>2026-05-02T10:25:13.654Z</time></trkpt><trkpt lat="41.0344867" lon="9.254165"><ele>257.0</ele><time>2026-05-02T10:25:14.654Z</time></trkpt><trkpt lat="41.03436" lon="9.2540883"><ele>257.0</ele><time>2026-05-02T10:25:15.654Z</time></trkpt><trkpt lat="41.03424" lon="9.254005"><ele>257.0</ele><time>2026-05-02T10:25:16.654Z</time></trkpt><trkpt lat="41.0341233" lon="9.2539117"><ele>257.0</ele><time>2026-05-02T10:25:17.654Z</time></trkpt><trkpt lat="41.0340117" lon="9.2538283"><ele>257.0</ele><time>2026-05-02T10:25:18.654Z</time></trkpt><trkpt lat="41.0339083" lon="9.2537583"><ele>259.5</ele><time>2026-05-02T10:25:19.654Z</time></trkpt><trkpt lat="41.033815" lon="9.25374"><ele>262.0</ele><time>2026-05-02T10:25:20.654Z</time></trkpt><trkpt lat="41.033725" lon="9.2537567"><ele>264.5</ele><time>2026-05-02T10:25:21.654Z</time></trkpt><trkpt lat="41.0336433" lon="9.253795"><ele>267.0</ele><time>2026-05-02T10:25:22.654Z</time></trkpt><trkpt lat="41.033575" lon="9.2538483"><ele>269.5</ele><time>2026-05-02T10:25:23.654Z</time></trkpt><trkpt lat="41.0335233" lon="9.2539367"><ele>272.0</ele><time>2026-05-02T10:25:24.654Z</time></trkpt><trkpt lat="41.033465" lon="9.254065"><ele>272.75</ele><time>2026-05-02T10:25:25.654Z</time></trkpt><trkpt lat="41.0334" lon="9.2541983"><ele>273.5</ele><time>2026-05-02T10:25:26.655Z</time></trkpt><trkpt lat="41.0333467" lon="9.2543533"><ele>274.25</ele><time>2026-05-02T10:25:27.654Z</time></trkpt><trkpt lat="41.0333083" lon="9.25454"><ele>275.0</ele><time>2026-05-02T10:25:28.654Z</time></trkpt><trkpt lat="41.0332583" lon="9.254685"><ele>277.0</ele><time>2026-05-02T10:25:29.654Z</time></trkpt><trkpt lat="41.0332167" lon="9.2548067"><ele>279.0</ele><time>2026-05-02T10:25:30.654Z</time></trkpt><trkpt lat="41.0331833" lon="9.2549167"><ele>281.0</ele><time>2026-05-02T10:25:31.654Z</time></trkpt><trkpt lat="41.03316" lon="9.255015"><ele>283.0</ele><time>2026-05-02T10:25:32.654Z</time></trkpt><trkpt lat="41.0331133" lon="9.2551083"><ele>285.0</ele><time>2026-05-02T10:25:33.654Z</time></trkpt><trkpt lat="41.0330567" lon="9.2551683"><ele>287.0</ele><time>2026-05-02T10:25:34.654Z</time></trkpt><trkpt lat="41.0329983" lon="9.255205"><ele>287.0</ele><time>2026-05-02T10:25:35.654Z</time></trkpt><trkpt lat="41.0329317" lon="9.2551717"><ele>287.0</ele><time>2026-05-02T10:25:36.654Z</time></trkpt><trkpt lat="41.032845" lon="9.25513"><ele>287.0</ele><time>2026-05-02T10:25:37.654Z</time></trkpt><trkpt lat="41.0327533" lon="9.255055"><ele>287.0</ele><time>2026-05-02T10:25:38.654Z</time></trkpt><trkpt lat="41.03267" lon="9.2549733"><ele>287.0</ele><time>2026-05-02T10:25:39.654Z</time></trkpt><trkpt lat="41.03259" lon="9.2548683"><ele>287.25</ele><time>2026-05-02T10:25:40.654Z</time></trkpt><trkpt lat="41.0325083" lon="9.25475"><ele>287.5</ele><time>2026-05-02T10:25:41.654Z</time></trkpt><trkpt lat="41.03243" lon="9.2545983"><ele>287.75</ele><time>2026-05-02T10:25:42.654Z</time></trkpt><trkpt lat="41.032355" lon="9.2544533"><ele>288.0</ele><time>2026-05-02T10:25:43.654Z</time></trkpt><trkpt lat="41.0322833" lon="9.254295"><ele>291.8</ele><time>2026-05-02T10:25:44.654Z</time></trkpt><trkpt lat="41.0322083" lon="9.254135"><ele>295.6</ele><time>2026-05-02T10:25:45.654Z</time></trkpt><trkpt lat="41.03217" lon="9.2540267"><ele>299.4</ele><time>2026-05-02T10:25:46.654Z</time></trkpt><trkpt lat="41.0321167" lon="9.2539233"><ele>303.2</ele><time>2026-05-02T10:25:47.654Z</time></trkpt><trkpt lat="41.032065" lon="9.2538533"><ele>307.0</ele><time>2026-05-02T10:25:48.654Z</time></trkpt><trkpt lat="41.0320017" lon="9.2537933"><ele>307.0</ele><time>2026-05-02T10:25:49.654Z</time></trkpt><trkpt lat="41.0319317" lon="9.253785"><ele>307.0</ele><time>2026-05-02T10:25:50.654Z</time></trkpt><trkpt lat="41.0318683" lon="9.253765"><ele>307.0</ele><time>2026-05-02T10:25:51.654Z</time></trkpt><trkpt lat="41.031725" lon="9.2539767"><ele>307.0</ele><time>2026-05-02T10:25:53.654Z</time></trkpt><trkpt lat="41.0316217" lon="9.2542117"><ele>312.66666666666663</ele><time>2026-05-02T10:25:54.654Z</time></trkpt><trkpt lat="41.0315317" lon="9.254475"><ele>318.3333333333333</ele><time>2026-05-02T10:25:55.654Z</time></trkpt><trkpt lat="41.0314483" lon="9.25464"><ele>324.0</ele><time>2026-05-02T10:25:56.654Z</time></trkpt><trkpt lat="41.0313533" lon="9.2548467"><ele>324.0</ele><time>2026-05-02T10:25:57.654Z</time></trkpt><trkpt lat="41.0312617" lon="9.2550433"><ele>324.0</ele><time>2026-05-02T10:25:58.654Z</time></trkpt><trkpt lat="41.0311717" lon="9.2551883"><ele>324.0</ele><time>2026-05-02T10:25:59.654Z</time></trkpt><trkpt lat="41.0310783" lon="9.2553167"><ele>324.0</ele><time>2026-05-02T10:26:00.654Z</time></trkpt><trkpt lat="41.031005" lon="9.2554133"><ele>324.0</ele><time>2026-05-02T10:26:01.654Z</time></trkpt><trkpt lat="41.03092" lon="9.25548"><ele>324.0</ele><time>2026-05-02T10:26:02.654Z</time></trkpt><trkpt lat="41.0308217" lon="9.25552"><ele>324.0</ele><time>2026-05-02T10:26:03.654Z</time></trkpt><trkpt lat="41.0306867" lon="9.255505"><ele>324.0</ele><time>2026-05-02T10:26:04.654Z</time></trkpt><trkpt lat="41.0305133" lon="9.2554867"><ele>323.0</ele><time>2026-05-02T10:26:05.654Z</time></trkpt><trkpt lat="41.03034" lon="9.2553817"><ele>322.0</ele><time>2026-05-02T10:26:06.655Z</time></trkpt><trkpt lat="41.0301883" lon="9.2552983"><ele>321.0</ele><time>2026-05-02T10:26:07.654Z</time></trkpt><trkpt lat="41.030055" lon="9.25524"><ele>317.75</ele><time>2026-05-02T10:26:08.654Z</time></trkpt><trkpt lat="41.02994" lon="9.25517"><ele>314.5</ele><time>2026-05-02T10:26:09.654Z</time></trkpt><trkpt lat="41.029835" lon="9.25504"><ele>311.25</ele><time>2026-05-02T10:26:10.654Z</time></trkpt><trkpt lat="41.0297267" lon="9.25495"><ele>308.0</ele><time>2026-05-02T10:26:11.654Z</time></trkpt><trkpt lat="41.0296167" lon="9.254865"><ele>314.0</ele><time>2026-05-02T10:26:12.654Z</time></trkpt><trkpt lat="41.0295033" lon="9.2547717"><ele>320.0</ele><time>2026-05-02T10:26:13.654Z</time></trkpt><trkpt lat="41.029405" lon="9.2546617"><ele>326.0</ele><time>2026-05-02T10:26:14.654Z</time></trkpt><trkpt lat="41.0293117" lon="9.2545533"><ele>332.0</ele><time>2026-05-02T10:26:15.654Z</time></trkpt><trkpt lat="41.0291983" lon="9.2544433"><ele>330.0</ele><time>2026-05-02T10:26:16.654Z</time></trkpt><trkpt lat="41.02909" lon="9.2543617"><ele>328.0</ele><time>2026-05-02T10:26:17.654Z</time></trkpt><trkpt lat="41.0289733" lon="9.254305"><ele>326.0</ele><time>2026-05-02T10:26:18.654Z</time></trkpt><trkpt lat="41.0288583" lon="9.2542683"><ele>324.0</ele><time>2026-05-02T10:26:19.654Z</time></trkpt><trkpt lat="41.02873" lon="9.2542733"><ele>324.0</ele><time>2026-05-02T10:26:20.654Z</time></trkpt><trkpt lat="41.0285867" lon="9.254305"><ele>324.0</ele><time>2026-05-02T10:26:21.654Z</time></trkpt><trkpt lat="41.0284517" lon="9.2543417"><ele>324.0</ele><time>2026-05-02T10:26:22.654Z</time></trkpt><trkpt lat="41.0283267" lon="9.25437"><ele>324.0</ele><time>2026-05-02T10:26:23.654Z</time></trkpt><trkpt lat="41.028205" lon="9.254365"><ele>323.79999999999995</ele><time>2026-05-02T10:26:24.654Z</time></trkpt><trkpt lat="41.0280883" lon="9.25432"><ele>323.59999999999997</ele><time>2026-05-02T10:26:25.654Z</time></trkpt><trkpt lat="41.0279817" lon="9.2542633"><ele>323.4</ele><time>2026-05-02T10:26:26.654Z</time></trkpt><trkpt lat="41.02789" lon="9.2542117"><ele>323.2</ele><time>2026-05-02T10:26:27.654Z</time></trkpt><trkpt lat="41.0278083" lon="9.2541617"><ele>323.0</ele><time>2026-05-02T10:26:28.654Z</time></trkpt><trkpt lat="41.027745" lon="9.2541"><ele>323.0</ele><time>2026-05-02T10:26:29.654Z</time></trkpt><trkpt lat="41.02769" lon="9.25402"><ele>323.0</ele><time>2026-05-02T10:26:30.654Z</time></trkpt><trkpt lat="41.027655" lon="9.25389"><ele>323.0</ele><time>2026-05-02T10:26:31.654Z</time></trkpt><trkpt lat="41.0276133" lon="9.25377"><ele>323.0</ele><time>2026-05-02T10:26:32.654Z</time></trkpt><trkpt lat="41.0275517" lon="9.253645"><ele>323.0</ele><time>2026-05-02T10:26:33.654Z</time></trkpt><trkpt lat="41.0274783" lon="9.2535383"><ele>325.5</ele><time>2026-05-02T10:26:34.654Z</time></trkpt><trkpt lat="41.0274183" lon="9.2534183"><ele>328.0</ele><time>2026-05-02T10:26:35.654Z</time></trkpt><trkpt lat="41.027345" lon="9.2533567"><ele>330.5</ele><time>2026-05-02T10:26:36.655Z</time></trkpt><trkpt lat="41.0272833" lon="9.2533"><ele>333.0</ele><time>2026-05-02T10:26:37.654Z</time></trkpt><trkpt lat="41.0272283" lon="9.2532567"><ele>335.5</ele><time>2026-05-02T10:26:38.654Z</time></trkpt><trkpt lat="41.0271667" lon="9.253235"><ele>338.0</ele><time>2026-05-02T10:26:39.654Z</time></trkpt><trkpt lat="41.027085" lon="9.2532833"><ele>338.0</ele><time>2026-05-02T10:26:42.654Z</time></trkpt><trkpt lat="41.0271417" lon="9.2534333"><ele>338.0</ele><time>2026-05-02T10:26:45.654Z</time></trkpt><trkpt lat="41.0272" lon="9.25361"><ele>338.0</ele><time>2026-05-02T10:26:46.654Z</time></trkpt><trkpt lat="41.0272817" lon="9.253835"><ele>340.0</ele><time>2026-05-02T10:26:47.654Z</time></trkpt><trkpt lat="41.0273267" lon="9.2540117"><ele>342.0</ele><time>2026-05-02T10:26:48.654Z</time></trkpt><trkpt lat="41.0273417" lon="9.2541767"><ele>344.0</ele><time>2026-05-02T10:26:49.654Z</time></trkpt><trkpt lat="41.0273383" lon="9.25433"><ele>346.0</ele><time>2026-05-02T10:26:50.654Z</time></trkpt><trkpt lat="41.02731" lon="9.25449"><ele>346.0</ele><time>2026-05-02T10:26:51.654Z</time></trkpt><trkpt lat="41.0272817" lon="9.254675"><ele>346.0</ele><time>2026-05-02T10:26:52.654Z</time></trkpt><trkpt lat="41.0272533" lon="9.254865"><ele>346.0</ele><time>2026-05-02T10:26:53.654Z</time></trkpt><trkpt lat="41.0272333" lon="9.2550233"><ele>346.0</ele><time>2026-05-02T10:26:54.654Z</time></trkpt><trkpt lat="41.02719" lon="9.255245"><ele>346.0</ele><time>2026-05-02T10:26:55.654Z</time></trkpt><trkpt lat="41.0271267" lon="9.2554433"><ele>346.0</ele><time>2026-05-02T10:26:56.654Z</time></trkpt><trkpt lat="41.0270617" lon="9.255635"><ele>346.0</ele><time>2026-05-02T10:26:57.654Z</time></trkpt><trkpt lat="41.0269683" lon="9.2558467"><ele>346.75</ele><time>2026-05-02T10:26:58.655Z</time></trkpt><trkpt lat="41.0268933" lon="9.2560433"><ele>347.5</ele><time>2026-05-02T10:26:59.654Z</time></trkpt><trkpt lat="41.02683" lon="9.2562433"><ele>348.25</ele><time>2026-05-02T10:27:00.654Z</time></trkpt><trkpt lat="41.0267933" lon="9.2563617"><ele>349.0</ele><time>2026-05-02T10:27:01.654Z</time></trkpt><trkpt lat="41.02676" lon="9.2564633"><ele>349.0</ele><time>2026-05-02T10:27:02.654Z</time></trkpt><trkpt lat="41.0267117" lon="9.2563467"><ele>349.0</ele><time>2026-05-02T10:27:06.653Z</time></trkpt><trkpt lat="41.0267133" lon="9.2562133"><ele>349.0</ele><time>2026-05-02T10:27:07.653Z</time></trkpt><trkpt lat="41.026685" lon="9.2560617"><ele>349.0</ele><time>2026-05-02T10:27:08.654Z</time></trkpt><trkpt lat="41.0266533" lon="9.2559767"><ele>349.0</ele><time>2026-05-02T10:27:09.653Z</time></trkpt><trkpt lat="41.0266133" lon="9.2558933"><ele>350.79999999999995</ele><time>2026-05-02T10:27:10.653Z</time></trkpt><trkpt lat="41.02654" lon="9.2558633"><ele>352.59999999999997</ele><time>2026-05-02T10:27:11.653Z</time></trkpt><trkpt lat="41.02646" lon="9.2558767"><ele>354.4</ele><time>2026-05-02T10:27:12.653Z</time></trkpt><trkpt lat="41.0263683" lon="9.2559117"><ele>356.2</ele><time>2026-05-02T10:27:13.653Z</time></trkpt><trkpt lat="41.026265" lon="9.2559717"><ele>358.0</ele><time>2026-05-02T10:27:14.653Z</time></trkpt><trkpt lat="41.0261583" lon="9.25606"><ele>358.0</ele><time>2026-05-02T10:27:15.653Z</time></trkpt><trkpt lat="41.026065" lon="9.2561583"><ele>358.0</ele><time>2026-05-02T10:27:16.653Z</time></trkpt><trkpt lat="41.0259467" lon="9.2562633"><ele>358.0</ele><time>2026-05-02T10:27:17.653Z</time></trkpt><trkpt lat="41.025855" lon="9.2563517"><ele>358.0</ele><time>2026-05-02T10:27:18.653Z</time></trkpt><trkpt lat="41.0257633" lon="9.2564217"><ele>359.3333333333333</ele><time>2026-05-02T10:27:19.653Z</time></trkpt><trkpt lat="41.0256883" lon="9.2564767"><ele>360.66666666666663</ele><time>2026-05-02T10:27:20.653Z</time></trkpt><trkpt lat="41.0256233" lon="9.256525"><ele>362.0</ele><time>2026-05-02T10:27:21.653Z</time></trkpt><trkpt lat="41.0255383" lon="9.256605"><ele>363.3333333333333</ele><time>2026-05-02T10:27:23.653Z</time></trkpt><trkpt lat="41.02564" lon="9.2566467"><ele>364.6666666666667</ele><time>2026-05-02T10:27:30.653Z</time></trkpt><trkpt lat="41.0256917" lon="9.2565717"><ele>366.0</ele><time>2026-05-02T10:27:32.653Z</time></trkpt><trkpt lat="41.025725" lon="9.2564983"><ele>366.0</ele><time>2026-05-02T10:27:35.653Z</time></trkpt><trkpt lat="41.0256967" lon="9.2564167"><ele>366.0</ele><time>2026-05-02T10:27:37.653Z</time></trkpt><trkpt lat="41.0256233" lon="9.2563633"><ele>366.0</ele><time>2026-05-02T10:27:39.653Z</time></trkpt><trkpt lat="41.0255183" lon="9.2563267"><ele>366.0</ele><time>2026-05-02T10:27:41.653Z</time></trkpt><trkpt lat="41.025455" lon="9.2562983"><ele>366.0</ele><time>2026-05-02T10:27:42.653Z</time></trkpt><trkpt lat="41.0253883" lon="9.256265"><ele>366.0</ele><time>2026-05-02T10:27:43.653Z</time></trkpt><trkpt lat="41.0253083" lon="9.2562317"><ele>366.0</ele><time>2026-05-02T10:27:44.653Z</time></trkpt><trkpt lat="41.025215" lon="9.2561983"><ele>366.0</ele><time>2026-05-02T10:27:45.653Z</time></trkpt><trkpt lat="41.0251167" lon="9.256155"><ele>366.0</ele><time>2026-05-02T10:27:46.653Z</time></trkpt><trkpt lat="41.0250183" lon="9.2561033"><ele>366.0</ele><time>2026-05-02T10:27:47.653Z</time></trkpt><trkpt lat="41.0249183" lon="9.25606"><ele>366.0</ele><time>2026-05-02T10:27:48.653Z</time></trkpt><trkpt lat="41.024815" lon="9.2559967"><ele>368.0</ele><time>2026-05-02T10:27:49.653Z</time></trkpt><trkpt lat="41.0247067" lon="9.25593"><ele>370.0</ele><time>2026-05-02T10:27:50.653Z</time></trkpt><trkpt lat="41.0245967" lon="9.255875"><ele>372.0</ele><time>2026-05-02T10:27:51.653Z</time></trkpt><trkpt lat="41.0244833" lon="9.2558033"><ele>374.0</ele><time>2026-05-02T10:27:52.653Z</time></trkpt><trkpt lat="41.024375" lon="9.2557217"><ele>374.0</ele><time>2026-05-02T10:27:53.653Z</time></trkpt><trkpt lat="41.02428" lon="9.2556383"><ele>374.0</ele><time>2026-05-02T10:27:54.653Z</time></trkpt><trkpt lat="41.0242" lon="9.2555333"><ele>374.0</ele><time>2026-05-02T10:27:55.653Z</time></trkpt><trkpt lat="41.0241333" lon="9.2554083"><ele>374.0</ele><time>2026-05-02T10:27:56.653Z</time></trkpt><trkpt lat="41.02407" lon="9.2552667"><ele>374.25</ele><time>2026-05-02T10:27:57.653Z</time></trkpt><trkpt lat="41.0240067" lon="9.255115"><ele>374.5</ele><time>2026-05-02T10:27:58.653Z</time></trkpt><trkpt lat="41.0239417" lon="9.25495"><ele>374.75</ele><time>2026-05-02T10:27:59.653Z</time></trkpt><trkpt lat="41.0238883" lon="9.2547583"><ele>375.0</ele><time>2026-05-02T10:28:00.653Z</time></trkpt><trkpt lat="41.023845" lon="9.2545833"><ele>375.0</ele><time>2026-05-02T10:28:01.653Z</time></trkpt><trkpt lat="41.023815" lon="9.254405"><ele>375.0</ele><time>2026-05-02T10:28:02.653Z</time></trkpt><trkpt lat="41.0238033" lon="9.25423"><ele>375.0</ele><time>2026-05-02T10:28:03.653Z</time></trkpt><trkpt lat="41.0238267" lon="9.2540133"><ele>375.0</ele><time>2026-05-02T10:28:04.653Z</time></trkpt><trkpt lat="41.0238667" lon="9.253795"><ele>376.6666666666667</ele><time>2026-05-02T10:28:05.653Z</time></trkpt><trkpt lat="41.0239183" lon="9.2535783"><ele>378.33333333333337</ele><time>2026-05-02T10:28:06.653Z</time></trkpt><trkpt lat="41.0239717" lon="9.25337"><ele>380.0</ele><time>2026-05-02T10:28:07.653Z</time></trkpt><trkpt lat="41.0240217" lon="9.25318"><ele>383.33333333333337</ele><time>2026-05-02T10:28:08.653Z</time></trkpt><trkpt lat="41.02406" lon="9.2529733"><ele>386.6666666666667</ele><time>2026-05-02T10:28:09.653Z</time></trkpt><trkpt lat="41.0241067" lon="9.2527883"><ele>390.0</ele><time>2026-05-02T10:28:10.653Z</time></trkpt><trkpt lat="41.0241417" lon="9.2526017"><ele>390.0</ele><time>2026-05-02T10:28:11.653Z</time></trkpt><trkpt lat="41.0241617" lon="9.2524283"><ele>390.0</ele><time>2026-05-02T10:28:12.653Z</time></trkpt><trkpt lat="41.024165" lon="9.25225"><ele>390.0</ele><time>2026-05-02T10:28:13.653Z</time></trkpt><trkpt lat="41.0241483" lon="9.25207"><ele>390.0</ele><time>2026-05-02T10:28:14.653Z</time></trkpt><trkpt lat="41.024125" lon="9.251885"><ele>392.0</ele><time>2026-05-02T10:28:15.653Z</time></trkpt><trkpt lat="41.0241017" lon="9.2517183"><ele>394.0</ele><time>2026-05-02T10:28:16.653Z</time></trkpt><trkpt lat="41.0240783" lon="9.2515267"><ele>396.0</ele><time>2026-05-02T10:28:17.653Z</time></trkpt><trkpt lat="41.024055" lon="9.2513567"><ele>398.0</ele><time>2026-05-02T10:28:18.653Z</time></trkpt><trkpt lat="41.0240317" lon="9.2512067"><ele>398.66666666666663</ele><time>2026-05-02T10:28:19.653Z</time></trkpt><trkpt lat="41.0240067" lon="9.2510733"><ele>399.3333333333333</ele><time>2026-05-02T10:28:20.653Z</time></trkpt><trkpt lat="41.023975" lon="9.2509633"><ele>400.0</ele><time>2026-05-02T10:28:21.653Z</time></trkpt><trkpt lat="41.02392" lon="9.2508783"><ele>400.66666666666663</ele><time>2026-05-02T10:28:22.653Z</time></trkpt><trkpt lat="41.02387" lon="9.250815"><ele>401.3333333333333</ele><time>2026-05-02T10:28:23.653Z</time></trkpt><trkpt lat="41.023805" lon="9.25077"><ele>402.0</ele><time>2026-05-02T10:28:24.653Z</time></trkpt><trkpt lat="41.0237283" lon="9.2507333"><ele>402.0</ele><time>2026-05-02T10:28:25.653Z</time></trkpt><trkpt lat="41.023645" lon="9.2507233"><ele>402.0</ele><time>2026-05-02T10:28:26.653Z</time></trkpt><trkpt lat="41.023555" lon="9.25076"><ele>402.0</ele><time>2026-05-02T10:28:27.653Z</time></trkpt><trkpt lat="41.0234517" lon="9.2508583"><ele>402.0</ele><time>2026-05-02T10:28:28.653Z</time></trkpt><trkpt lat="41.02335" lon="9.2509717"><ele>402.0</ele><time>2026-05-02T10:28:29.653Z</time></trkpt><trkpt lat="41.023235" lon="9.25109"><ele>403.25</ele><time>2026-05-02T10:28:30.653Z</time></trkpt><trkpt lat="41.0231333" lon="9.2511983"><ele>404.5</ele><time>2026-05-02T10:28:31.653Z</time></trkpt><trkpt lat="41.0230217" lon="9.2512817"><ele>405.75</ele><time>2026-05-02T10:28:32.653Z</time></trkpt><trkpt lat="41.0229233" lon="9.2513283"><ele>407.0</ele><time>2026-05-02T10:28:33.653Z</time></trkpt><trkpt lat="41.0228367" lon="9.2513483"><ele>407.0</ele><time>2026-05-02T10:28:34.653Z</time></trkpt><trkpt lat="41.0227583" lon="9.25135"><ele>407.0</ele><time>2026-05-02T10:28:35.653Z</time></trkpt><trkpt lat="41.02268" lon="9.251315"><ele>407.0</ele><time>2026-05-02T10:28:36.653Z</time></trkpt><trkpt lat="41.0226033" lon="9.2512667"><ele>407.0</ele><time>2026-05-02T10:28:37.653Z</time></trkpt><trkpt lat="41.022545" lon="9.251165"><ele>407.0</ele><time>2026-05-02T10:28:38.653Z</time></trkpt><trkpt lat="41.02249" lon="9.2509983"><ele>406.3333333333333</ele><time>2026-05-02T10:28:39.653Z</time></trkpt><trkpt lat="41.0224517" lon="9.2507767"><ele>405.66666666666663</ele><time>2026-05-02T10:28:40.653Z</time></trkpt><trkpt lat="41.0224183" lon="9.2505433"><ele>405.0</ele><time>2026-05-02T10:28:41.653Z</time></trkpt><trkpt lat="41.0223967" lon="9.2503183"><ele>405.0</ele><time>2026-05-02T10:28:42.653Z</time></trkpt><trkpt lat="41.02237" lon="9.2501083"><ele>405.0</ele><time>2026-05-02T10:28:43.653Z</time></trkpt><trkpt lat="41.022355" lon="9.24988"><ele>405.0</ele><time>2026-05-02T10:28:44.653Z</time></trkpt><trkpt lat="41.02234" lon="9.249675"><ele>407.66666666666663</ele><time>2026-05-02T10:28:45.653Z</time></trkpt><trkpt lat="41.02232" lon="9.2494767"><ele>410.3333333333333</ele><time>2026-05-02T10:28:46.653Z</time></trkpt><trkpt lat="41.0222967" lon="9.24928"><ele>413.0</ele><time>2026-05-02T10:28:47.653Z</time></trkpt><trkpt lat="41.0222517" lon="9.249075"><ele>414.3333333333333</ele><time>2026-05-02T10:28:48.653Z</time></trkpt><trkpt lat="41.0222" lon="9.2488667"><ele>415.66666666666663</ele><time>2026-05-02T10:28:49.653Z</time></trkpt><trkpt lat="41.0221383" lon="9.2486683"><ele>417.0</ele><time>2026-05-02T10:28:50.653Z</time></trkpt><trkpt lat="41.02207" lon="9.2484733"><ele>417.0</ele><time>2026-05-02T10:28:51.653Z</time></trkpt><trkpt lat="41.021995" lon="9.2482733"><ele>417.0</ele><time>2026-05-02T10:28:52.653Z</time></trkpt><trkpt lat="41.02193" lon="9.2480817"><ele>417.0</ele><time>2026-05-02T10:28:53.653Z</time></trkpt><trkpt lat="41.021885" lon="9.2478883"><ele>417.75</ele><time>2026-05-02T10:28:54.653Z</time></trkpt><trkpt lat="41.0218583" lon="9.24771"><ele>418.5</ele><time>2026-05-02T10:28:55.654Z</time></trkpt><trkpt lat="41.0218467" lon="9.2475267"><ele>419.25</ele><time>2026-05-02T10:28:56.653Z</time></trkpt><trkpt lat="41.021845" lon="9.2473317"><ele>420.0</ele><time>2026-05-02T10:28:57.654Z</time></trkpt><trkpt lat="41.021835" lon="9.2471483"><ele>420.5</ele><time>2026-05-02T10:28:58.653Z</time></trkpt><trkpt lat="41.0218167" lon="9.24699"><ele>421.0</ele><time>2026-05-02T10:28:59.653Z</time></trkpt><trkpt lat="41.021785" lon="9.2468133"><ele>421.5</ele><time>2026-05-02T10:29:00.653Z</time></trkpt><trkpt lat="41.0217417" lon="9.2466483"><ele>422.0</ele><time>2026-05-02T10:29:01.653Z</time></trkpt><trkpt lat="41.0216817" lon="9.2464767"><ele>422.66666666666663</ele><time>2026-05-02T10:29:02.653Z</time></trkpt><trkpt lat="41.0216083" lon="9.2463133"><ele>423.33333333333337</ele><time>2026-05-02T10:29:03.653Z</time></trkpt><trkpt lat="41.02149" lon="9.246155"><ele>424.0</ele><time>2026-05-02T10:29:04.653Z</time></trkpt><trkpt lat="41.0214033" lon="9.2459717"><ele>424.0</ele><time>2026-05-02T10:29:05.653Z</time></trkpt><trkpt lat="41.0213067" lon="9.2457783"><ele>424.0</ele><time>2026-05-02T10:29:06.653Z</time></trkpt><trkpt lat="41.0211967" lon="9.24559"><ele>424.0</ele><time>2026-05-02T10:29:07.653Z</time></trkpt><trkpt lat="41.0210767" lon="9.2454033"><ele>423.6666666666667</ele><time>2026-05-02T10:29:08.653Z</time></trkpt><trkpt lat="41.0209533" lon="9.24522"><ele>423.33333333333337</ele><time>2026-05-02T10:29:09.653Z</time></trkpt><trkpt lat="41.020845" lon="9.24503"><ele>423.0</ele><time>2026-05-02T10:29:10.654Z</time></trkpt><trkpt lat="41.0207383" lon="9.2448333"><ele>424.66666666666663</ele><time>2026-05-02T10:29:11.653Z</time></trkpt><trkpt lat="41.0206283" lon="9.2446367"><ele>426.3333333333333</ele><time>2026-05-02T10:29:12.653Z</time></trkpt><trkpt lat="41.0205333" lon="9.244445"><ele>428.0</ele><time>2026-05-02T10:29:13.653Z</time></trkpt><trkpt lat="41.0204517" lon="9.2442567"><ele>428.0</ele><time>2026-05-02T10:29:14.653Z</time></trkpt><trkpt lat="41.020395" lon="9.2440917"><ele>428.0</ele><time>2026-05-02T10:29:15.653Z</time></trkpt><trkpt lat="41.0203883" lon="9.2439367"><ele>428.0</ele><time>2026-05-02T10:29:16.653Z</time></trkpt><trkpt lat="41.020385" lon="9.2437767"><ele>428.0</ele><time>2026-05-02T10:29:17.653Z</time></trkpt><trkpt lat="41.0203783" lon="9.243605"><ele>430.0</ele><time>2026-05-02T10:29:18.653Z</time></trkpt><trkpt lat="41.0203867" lon="9.2434117"><ele>432.0</ele><time>2026-05-02T10:29:19.653Z</time></trkpt><trkpt lat="41.02043" lon="9.2431933"><ele>434.0</ele><time>2026-05-02T10:29:20.653Z</time></trkpt><trkpt lat="41.0204617" lon="9.2429867"><ele>434.0</ele><time>2026-05-02T10:29:21.653Z</time></trkpt><trkpt lat="41.02052" lon="9.2427733"><ele>434.0</ele><time>2026-05-02T10:29:22.653Z</time></trkpt><trkpt lat="41.020565" lon="9.242545"><ele>434.0</ele><time>2026-05-02T10:29:23.653Z</time></trkpt><trkpt lat="41.0205867" lon="9.2423017"><ele>434.0</ele><time>2026-05-02T10:29:24.654Z</time></trkpt><trkpt lat="41.0206033" lon="9.2420483"><ele>434.0</ele><time>2026-05-02T10:29:25.653Z</time></trkpt><trkpt lat="41.0206333" lon="9.24179"><ele>434.0</ele><time>2026-05-02T10:29:26.653Z</time></trkpt><trkpt lat="41.0206633" lon="9.2415533"><ele>433.3333333333333</ele><time>2026-05-02T10:29:27.653Z</time></trkpt><trkpt lat="41.0206833" lon="9.241305"><ele>432.66666666666663</ele><time>2026-05-02T10:29:28.653Z</time></trkpt><trkpt lat="41.0207083" lon="9.2410667"><ele>432.0</ele><time>2026-05-02T10:29:29.653Z</time></trkpt><trkpt lat="41.02074" lon="9.2408267"><ele>431.0</ele><time>2026-05-02T10:29:30.653Z</time></trkpt><trkpt lat="41.0207583" lon="9.2406083"><ele>430.0</ele><time>2026-05-02T10:29:31.653Z</time></trkpt><trkpt lat="41.0207767" lon="9.24039"><ele>429.0</ele><time>2026-05-02T10:29:32.653Z</time></trkpt><trkpt lat="41.0207883" lon="9.2401833"><ele>431.66666666666663</ele><time>2026-05-02T10:29:33.653Z</time></trkpt><trkpt lat="41.0208183" lon="9.23996"><ele>434.3333333333333</ele><time>2026-05-02T10:29:34.653Z</time></trkpt><trkpt lat="41.0208433" lon="9.2397333"><ele>437.0</ele><time>2026-05-02T10:29:35.653Z</time></trkpt><trkpt lat="41.02086" lon="9.2395367"><ele>437.0</ele><time>2026-05-02T10:29:36.653Z</time></trkpt><trkpt lat="41.0208767" lon="9.239345"><ele>437.0</ele><time>2026-05-02T10:29:37.653Z</time></trkpt><trkpt lat="41.0208917" lon="9.2391733"><ele>437.0</ele><time>2026-05-02T10:29:38.653Z</time></trkpt><trkpt lat="41.020905" lon="9.2389983"><ele>437.0</ele><time>2026-05-02T10:29:39.653Z</time></trkpt><trkpt lat="41.0209067" lon="9.2388383"><ele>436.5</ele><time>2026-05-02T10:29:40.653Z</time></trkpt><trkpt lat="41.0208883" lon="9.2386983"><ele>436.0</ele><time>2026-05-02T10:29:41.653Z</time></trkpt><trkpt lat="41.0208183" lon="9.2385967"><ele>435.5</ele><time>2026-05-02T10:29:42.653Z</time></trkpt><trkpt lat="41.020765" lon="9.2384467"><ele>435.0</ele><time>2026-05-02T10:29:43.653Z</time></trkpt><trkpt lat="41.0206483" lon="9.2383367"><ele>432.0</ele><time>2026-05-02T10:29:44.653Z</time></trkpt><trkpt lat="41.0205017" lon="9.2382667"><ele>429.0</ele><time>2026-05-02T10:29:45.653Z</time></trkpt><trkpt lat="41.0203383" lon="9.23822"><ele>426.0</ele><time>2026-05-02T10:29:46.653Z</time></trkpt><trkpt lat="41.020215" lon="9.2381467"><ele>426.4</ele><time>2026-05-02T10:29:47.653Z</time></trkpt><trkpt lat="41.0201033" lon="9.2380683"><ele>426.8</ele><time>2026-05-02T10:29:48.653Z</time></trkpt><trkpt lat="41.0200217" lon="9.23797"><ele>427.19999999999993</ele><time>2026-05-02T10:29:49.653Z</time></trkpt><trkpt lat="41.0199733" lon="9.2378617"><ele>427.59999999999997</ele><time>2026-05-02T10:29:50.653Z</time></trkpt><trkpt lat="41.0199517" lon="9.2377433"><ele>428.0</ele><time>2026-05-02T10:29:51.653Z</time></trkpt><trkpt lat="41.0199817" lon="9.237595"><ele>427.99999999999994</ele><time>2026-05-02T10:29:52.653Z</time></trkpt><trkpt lat="41.0199883" lon="9.2374683"><ele>428.0</ele><time>2026-05-02T10:29:53.653Z</time></trkpt><trkpt lat="41.02001" lon="9.23735"><ele>428.0</ele><time>2026-05-02T10:29:54.653Z</time></trkpt><trkpt lat="41.0200233" lon="9.2372433"><ele>428.0</ele><time>2026-05-02T10:29:55.653Z</time></trkpt><trkpt lat="41.020035" lon="9.2371517"><ele>427.99999999999994</ele><time>2026-05-02T10:29:56.653Z</time></trkpt><trkpt lat="41.020045" lon="9.2370333"><ele>428.0</ele><time>2026-05-02T10:29:58.653Z</time></trkpt><trkpt lat="41.020025" lon="9.2369533"><ele>426.49999999999994</ele><time>2026-05-02T10:30:01.653Z</time></trkpt><trkpt lat="41.0199633" lon="9.2370317"><ele>425.0</ele><time>2026-05-02T10:30:05.653Z</time></trkpt><trkpt lat="41.019925" lon="9.237125"><ele>423.5</ele><time>2026-05-02T10:30:18.653Z</time></trkpt><trkpt lat="41.0199133" lon="9.2372233"><ele>422.0</ele><time>2026-05-02T10:30:34.653Z</time></trkpt><trkpt lat="41.01989" lon="9.23739"><ele>420.49999999999994</ele><time>2026-05-02T10:30:36.653Z</time></trkpt><trkpt lat="41.0198767" lon="9.2374867"><ele>419.0</ele><time>2026-05-02T10:30:37.653Z</time></trkpt><trkpt lat="41.0198567" lon="9.23759"><ele>418.79999999999995</ele><time>2026-05-02T10:30:38.653Z</time></trkpt><trkpt lat="41.0198283" lon="9.2376933"><ele>418.59999999999997</ele><time>2026-05-02T10:30:39.653Z</time></trkpt><trkpt lat="41.01977" lon="9.2377667"><ele>418.4</ele><time>2026-05-02T10:30:40.653Z</time></trkpt><trkpt lat="41.0196967" lon="9.2378183"><ele>418.2</ele><time>2026-05-02T10:30:41.653Z</time></trkpt><trkpt lat="41.0196" lon="9.237855"><ele>418.0</ele><time>2026-05-02T10:30:42.653Z</time></trkpt><trkpt lat="41.0194917" lon="9.237875"><ele>418.0</ele><time>2026-05-02T10:30:43.653Z</time></trkpt><trkpt lat="41.0193633" lon="9.23787"><ele>418.0</ele><time>2026-05-02T10:30:44.653Z</time></trkpt><trkpt lat="41.0192333" lon="9.2378433"><ele>418.0</ele><time>2026-05-02T10:30:45.653Z</time></trkpt><trkpt lat="41.0191083" lon="9.237835"><ele>418.0</ele><time>2026-05-02T10:30:46.653Z</time></trkpt><trkpt lat="41.018975" lon="9.2378183"><ele>414.75</ele><time>2026-05-02T10:30:47.653Z</time></trkpt><trkpt lat="41.0188583" lon="9.2377717"><ele>411.5</ele><time>2026-05-02T10:30:48.653Z</time></trkpt><trkpt lat="41.0187383" lon="9.23772"><ele>408.25</ele><time>2026-05-02T10:30:49.653Z</time></trkpt><trkpt lat="41.0186367" lon="9.2376417"><ele>405.0</ele><time>2026-05-02T10:30:50.653Z</time></trkpt><trkpt lat="41.018575" lon="9.2375567"><ele>405.0</ele><time>2026-05-02T10:30:51.653Z</time></trkpt><trkpt lat="41.0185283" lon="9.2374583"><ele>405.0</ele><time>2026-05-02T10:30:52.653Z</time></trkpt><trkpt lat="41.0184867" lon="9.2373633"><ele>405.0</ele><time>2026-05-02T10:30:53.653Z</time></trkpt><trkpt lat="41.01844" lon="9.2372617"><ele>405.0</ele><time>2026-05-02T10:30:54.653Z</time></trkpt><trkpt lat="41.0183817" lon="9.23718"><ele>405.0</ele><time>2026-05-02T10:30:55.653Z</time></trkpt><trkpt lat="41.01832" lon="9.2370817"><ele>405.0</ele><time>2026-05-02T10:30:56.653Z</time></trkpt><trkpt lat="41.01825" lon="9.237"><ele>406.4</ele><time>2026-05-02T10:30:57.653Z</time></trkpt><trkpt lat="41.0181667" lon="9.236925"><ele>407.8</ele><time>2026-05-02T10:30:58.653Z</time></trkpt><trkpt lat="41.0180817" lon="9.2368683"><ele>409.20000000000005</ele><time>2026-05-02T10:30:59.653Z</time></trkpt><trkpt lat="41.0179883" lon="9.23683"><ele>410.6</ele><time>2026-05-02T10:31:00.653Z</time></trkpt><trkpt lat="41.0178967" lon="9.2368033"><ele>412.0</ele><time>2026-05-02T10:31:01.653Z</time></trkpt><trkpt lat="41.0178083" lon="9.236795"><ele>412.0</ele><time>2026-05-02T10:31:02.653Z</time></trkpt><trkpt lat="41.01771" lon="9.2367767"><ele>412.0</ele><time>2026-05-02T10:31:03.653Z</time></trkpt><trkpt lat="41.0176183" lon="9.2367917"><ele>412.0</ele><time>2026-05-02T10:31:04.653Z</time></trkpt><trkpt lat="41.017515" lon="9.2368617"><ele>412.0</ele><time>2026-05-02T10:31:05.653Z</time></trkpt><trkpt lat="41.01741" lon="9.2369467"><ele>412.0</ele><time>2026-05-02T10:31:06.653Z</time></trkpt><trkpt lat="41.0173017" lon="9.23707"><ele>412.33333333333337</ele><time>2026-05-02T10:31:07.653Z</time></trkpt><trkpt lat="41.0172067" lon="9.237215"><ele>412.66666666666663</ele><time>2026-05-02T10:31:08.653Z</time></trkpt><trkpt lat="41.0171233" lon="9.237395"><ele>413.0</ele><time>2026-05-02T10:31:09.653Z</time></trkpt><trkpt lat="41.0170533" lon="9.2375717"><ele>413.0</ele><time>2026-05-02T10:31:10.653Z</time></trkpt><trkpt lat="41.016985" lon="9.237735"><ele>413.0</ele><time>2026-05-02T10:31:11.653Z</time></trkpt><trkpt lat="41.0169133" lon="9.2379333"><ele>413.0</ele><time>2026-05-02T10:31:12.653Z</time></trkpt><trkpt lat="41.0167983" lon="9.2381067"><ele>413.0</ele><time>2026-05-02T10:31:13.653Z</time></trkpt><trkpt lat="41.0166933" lon="9.238265"><ele>413.0</ele><time>2026-05-02T10:31:14.653Z</time></trkpt><trkpt lat="41.01663" lon="9.2384233"><ele>413.0</ele><time>2026-05-02T10:31:15.653Z</time></trkpt><trkpt lat="41.01658" lon="9.2385833"><ele>413.0</ele><time>2026-05-02T10:31:16.653Z</time></trkpt><trkpt lat="41.01653" lon="9.2387517"><ele>413.0</ele><time>2026-05-02T10:31:17.653Z</time></trkpt><trkpt lat="41.0164767" lon="9.23895"><ele>413.0</ele><time>2026-05-02T10:31:18.653Z</time></trkpt><trkpt lat="41.0164633" lon="9.239155"><ele>413.0</ele><time>2026-05-02T10:31:19.653Z</time></trkpt><trkpt lat="41.0164467" lon="9.2393467"><ele>409.25</ele><time>2026-05-02T10:31:20.653Z</time></trkpt><trkpt lat="41.0163867" lon="9.2395167"><ele>405.5</ele><time>2026-05-02T10:31:21.653Z</time></trkpt><trkpt lat="41.0163083" lon="9.23967"><ele>401.75</ele><time>2026-05-02T10:31:22.653Z</time></trkpt><trkpt lat="41.0162333" lon="9.2398033"><ele>398.0</ele><time>2026-05-02T10:31:23.653Z</time></trkpt><trkpt lat="41.0161733" lon="9.2399033"><ele>395.25</ele><time>2026-05-02T10:31:24.653Z</time></trkpt><trkpt lat="41.0160967" lon="9.2399817"><ele>392.5</ele><time>2026-05-02T10:31:25.653Z</time></trkpt><trkpt lat="41.0159733" lon="9.2400267"><ele>389.75</ele><time>2026-05-02T10:31:26.653Z</time></trkpt><trkpt lat="41.0158667" lon="9.2400783"><ele>387.0</ele><time>2026-05-02T10:31:27.653Z</time></trkpt><trkpt lat="41.01574" lon="9.2401067"><ele>387.0</ele><time>2026-05-02T10:31:28.653Z</time></trkpt><trkpt lat="41.01562" lon="9.240155"><ele>387.0</ele><time>2026-05-02T10:31:29.653Z</time></trkpt><trkpt lat="41.0154933" lon="9.2402017"><ele>387.0</ele><time>2026-05-02T10:31:30.653Z</time></trkpt><trkpt lat="41.01537" lon="9.2402483"><ele>387.0</ele><time>2026-05-02T10:31:31.653Z</time></trkpt><trkpt lat="41.0152517" lon="9.2403017"><ele>387.0</ele><time>2026-05-02T10:31:32.653Z</time></trkpt><trkpt lat="41.0151367" lon="9.2403483"><ele>387.0</ele><time>2026-05-02T10:31:33.653Z</time></trkpt><trkpt lat="41.01502" lon="9.2403917"><ele>387.0</ele><time>2026-05-02T10:31:34.653Z</time></trkpt><trkpt lat="41.0149117" lon="9.24042"><ele>387.0</ele><time>2026-05-02T10:31:35.653Z</time></trkpt><trkpt lat="41.0148" lon="9.240425"><ele>384.75</ele><time>2026-05-02T10:31:36.653Z</time></trkpt><trkpt lat="41.0146817" lon="9.2403817"><ele>382.5</ele><time>2026-05-02T10:31:37.653Z</time></trkpt><trkpt lat="41.0145667" lon="9.2403433"><ele>380.25</ele><time>2026-05-02T10:31:38.653Z</time></trkpt><trkpt lat="41.0144383" lon="9.240315"><ele>378.0</ele><time>2026-05-02T10:31:39.653Z</time></trkpt><trkpt lat="41.0143167" lon="9.2402717"><ele>378.0</ele><time>2026-05-02T10:31:40.653Z</time></trkpt><trkpt lat="41.0141717" lon="9.2402467"><ele>378.0</ele><time>2026-05-02T10:31:41.653Z</time></trkpt><trkpt lat="41.014035" lon="9.240205"><ele>378.0</ele><time>2026-05-02T10:31:42.653Z</time></trkpt><trkpt lat="41.01392" lon="9.240145"><ele>378.0</ele><time>2026-05-02T10:31:43.653Z</time></trkpt><trkpt lat="41.0138117" lon="9.2400617"><ele>375.5</ele><time>2026-05-02T10:31:44.653Z</time></trkpt><trkpt lat="41.01371" lon="9.2399517"><ele>373.0</ele><time>2026-05-02T10:31:45.653Z</time></trkpt><trkpt lat="41.0136017" lon="9.239835"><ele>370.5</ele><time>2026-05-02T10:31:46.653Z</time></trkpt><trkpt lat="41.0134983" lon="9.2397267"><ele>368.0</ele><time>2026-05-02T10:31:47.653Z</time></trkpt><trkpt lat="41.0133983" lon="9.2396183"><ele>357.6666666666667</ele><time>2026-05-02T10:31:48.653Z</time></trkpt><trkpt lat="41.0133217" lon="9.239385"><ele>347.3333333333333</ele><time>2026-05-02T10:31:49.653Z</time></trkpt><trkpt lat="41.0132033" lon="9.2393"><ele>337.0</ele><time>2026-05-02T10:31:50.653Z</time></trkpt><trkpt lat="41.0131" lon="9.2391967"><ele>337.0</ele><time>2026-05-02T10:31:51.653Z</time></trkpt><trkpt lat="41.0130167" lon="9.2390717"><ele>337.0</ele><time>2026-05-02T10:31:52.653Z</time></trkpt><trkpt lat="41.0129567" lon="9.238965"><ele>337.0</ele><time>2026-05-02T10:31:53.653Z</time></trkpt><trkpt lat="41.01292" lon="9.2388383"><ele>337.0</ele><time>2026-05-02T10:31:54.653Z</time></trkpt><trkpt lat="41.0128933" lon="9.2386983"><ele>337.0</ele><time>2026-05-02T10:31:55.653Z</time></trkpt><trkpt lat="41.0128633" lon="9.23855"><ele>336.6</ele><time>2026-05-02T10:31:56.653Z</time></trkpt><trkpt lat="41.0128467" lon="9.2383983"><ele>336.20000000000005</ele><time>2026-05-02T10:31:57.653Z</time></trkpt><trkpt lat="41.0128567" lon="9.2382717"><ele>335.8</ele><time>2026-05-02T10:31:58.653Z</time></trkpt><trkpt lat="41.0128817" lon="9.2381567"><ele>335.4</ele><time>2026-05-02T10:31:59.653Z</time></trkpt><trkpt lat="41.0129217" lon="9.2380367"><ele>335.0</ele><time>2026-05-02T10:32:00.653Z</time></trkpt><trkpt lat="41.01297" lon="9.2379183"><ele>332.25</ele><time>2026-05-02T10:32:01.654Z</time></trkpt><trkpt lat="41.01304" lon="9.2377917"><ele>329.5</ele><time>2026-05-02T10:32:02.653Z</time></trkpt><trkpt lat="41.0130917" lon="9.2376583"><ele>326.75</ele><time>2026-05-02T10:32:03.653Z</time></trkpt><trkpt lat="41.013115" lon="9.2375067"><ele>324.0</ele><time>2026-05-02T10:32:04.653Z</time></trkpt><trkpt lat="41.0130983" lon="9.2373683"><ele>328.0</ele><time>2026-05-02T10:32:05.653Z</time></trkpt><trkpt lat="41.0130667" lon="9.2372233"><ele>332.0</ele><time>2026-05-02T10:32:06.653Z</time></trkpt><trkpt lat="41.013025" lon="9.237085"><ele>336.0</ele><time>2026-05-02T10:32:07.653Z</time></trkpt><trkpt lat="41.01295" lon="9.236975"><ele>340.0</ele><time>2026-05-02T10:32:08.653Z</time></trkpt><trkpt lat="41.012855" lon="9.2368783"><ele>340.0</ele><time>2026-05-02T10:32:09.653Z</time></trkpt><trkpt lat="41.0127433" lon="9.236805"><ele>340.0</ele><time>2026-05-02T10:32:10.653Z</time></trkpt><trkpt lat="41.0126433" lon="9.23672"><ele>340.0</ele><time>2026-05-02T10:32:11.653Z</time></trkpt><trkpt lat="41.01253" lon="9.2366433"><ele>340.0</ele><time>2026-05-02T10:32:12.653Z</time></trkpt><trkpt lat="41.012425" lon="9.236555"><ele>342.25</ele><time>2026-05-02T10:32:13.653Z</time></trkpt><trkpt lat="41.0123267" lon="9.2364633"><ele>344.5</ele><time>2026-05-02T10:32:14.653Z</time></trkpt><trkpt lat="41.0122283" lon="9.2363633"><ele>346.75</ele><time>2026-05-02T10:32:15.653Z</time></trkpt><trkpt lat="41.0121417" lon="9.2362483"><ele>349.0</ele><time>2026-05-02T10:32:16.653Z</time></trkpt><trkpt lat="41.012075" lon="9.23612"><ele>349.0</ele><time>2026-05-02T10:32:17.653Z</time></trkpt><trkpt lat="41.01202" lon="9.2359883"><ele>349.0</ele><time>2026-05-02T10:32:18.653Z</time></trkpt><trkpt lat="41.01197" lon="9.23588"><ele>349.0</ele><time>2026-05-02T10:32:19.653Z</time></trkpt><trkpt lat="41.0119217" lon="9.2358017"><ele>349.0</ele><time>2026-05-02T10:32:20.653Z</time></trkpt><trkpt lat="41.01187" lon="9.235745"><ele>349.0</ele><time>2026-05-02T10:32:21.653Z</time></trkpt><trkpt lat="41.0117567" lon="9.2357"><ele>358.66666666666663</ele><time>2026-05-02T10:32:23.653Z</time></trkpt><trkpt lat="41.0116433" lon="9.23579"><ele>368.3333333333333</ele><time>2026-05-02T10:32:25.653Z</time></trkpt><trkpt lat="41.0115383" lon="9.2359883"><ele>378.0</ele><time>2026-05-02T10:32:27.653Z</time></trkpt><trkpt lat="41.0114967" lon="9.2361883"><ele>378.0</ele><time>2026-05-02T10:32:28.653Z</time></trkpt><trkpt lat="41.01147" lon="9.2363817"><ele>378.0</ele><time>2026-05-02T10:32:29.653Z</time></trkpt><trkpt lat="41.0115083" lon="9.2365333"><ele>378.0</ele><time>2026-05-02T10:32:30.653Z</time></trkpt><trkpt lat="41.0115033" lon="9.2367033"><ele>378.0</ele><time>2026-05-02T10:32:31.653Z</time></trkpt><trkpt lat="41.011505" lon="9.2368883"><ele>373.0</ele><time>2026-05-02T10:32:32.653Z</time></trkpt><trkpt lat="41.011465" lon="9.2370667"><ele>368.0</ele><time>2026-05-02T10:32:33.653Z</time></trkpt><trkpt lat="41.0114333" lon="9.2372117"><ele>363.0</ele><time>2026-05-02T10:32:34.653Z</time></trkpt><trkpt lat="41.0113817" lon="9.2373917"><ele>358.0</ele><time>2026-05-02T10:32:35.653Z</time></trkpt><trkpt lat="41.01131" lon="9.2375333"><ele>353.8333333333333</ele><time>2026-05-02T10:32:36.653Z</time></trkpt><trkpt lat="41.0112633" lon="9.23764"><ele>349.66666666666663</ele><time>2026-05-02T10:32:37.653Z</time></trkpt><trkpt lat="41.011175" lon="9.2376467"><ele>345.5</ele><time>2026-05-02T10:32:38.653Z</time></trkpt><trkpt lat="41.011095" lon="9.2377"><ele>341.3333333333333</ele><time>2026-05-02T10:32:39.653Z</time></trkpt><trkpt lat="41.0110133" lon="9.23775"><ele>337.1666666666667</ele><time>2026-05-02T10:32:40.653Z</time></trkpt><trkpt lat="41.0109417" lon="9.237795"><ele>333.0</ele><time>2026-05-02T10:32:41.653Z</time></trkpt><trkpt lat="41.01088" lon="9.237845"><ele>333.75</ele><time>2026-05-02T10:32:42.653Z</time></trkpt><trkpt lat="41.0108133" lon="9.2379367"><ele>334.5</ele><time>2026-05-02T10:32:43.653Z</time></trkpt><trkpt lat="41.0107583" lon="9.2380717"><ele>335.25</ele><time>2026-05-02T10:32:44.653Z</time></trkpt><trkpt lat="41.0106717" lon="9.2382267"><ele>336.0</ele><time>2026-05-02T10:32:45.653Z</time></trkpt><trkpt lat="41.0106083" lon="9.238375"><ele>331.6</ele><time>2026-05-02T10:32:46.653Z</time></trkpt><trkpt lat="41.0105417" lon="9.2385033"><ele>327.20000000000005</ele><time>2026-05-02T10:32:47.653Z</time></trkpt><trkpt lat="41.0104933" lon="9.2386217"><ele>322.79999999999995</ele><time>2026-05-02T10:32:48.653Z</time></trkpt><trkpt lat="41.0104217" lon="9.2387217"><ele>318.4</ele><time>2026-05-02T10:32:49.653Z</time></trkpt><trkpt lat="41.0103467" lon="9.23879"><ele>314.0</ele><time>2026-05-02T10:32:50.653Z</time></trkpt><trkpt lat="41.010265" lon="9.238825"><ele>314.0</ele><time>2026-05-02T10:32:51.654Z</time></trkpt><trkpt lat="41.0101917" lon="9.2388167"><ele>314.0</ele><time>2026-05-02T10:32:52.653Z</time></trkpt><trkpt lat="41.010075" lon="9.238745"><ele>314.0</ele><time>2026-05-02T10:32:53.653Z</time></trkpt><trkpt lat="41.0099567" lon="9.2386433"><ele>314.0</ele><time>2026-05-02T10:32:54.653Z</time></trkpt><trkpt lat="41.0098433" lon="9.2385833"><ele>311.59999999999997</ele><time>2026-05-02T10:32:55.653Z</time></trkpt><trkpt lat="41.0097267" lon="9.2385233"><ele>309.2</ele><time>2026-05-02T10:32:56.653Z</time></trkpt><trkpt lat="41.0096117" lon="9.2384917"><ele>306.79999999999995</ele><time>2026-05-02T10:32:57.653Z</time></trkpt><trkpt lat="41.0095083" lon="9.2384917"><ele>304.4</ele><time>2026-05-02T10:32:58.653Z</time></trkpt><trkpt lat="41.0094117" lon="9.2385233"><ele>302.0</ele><time>2026-05-02T10:32:59.653Z</time></trkpt><trkpt lat="41.0093217" lon="9.2385833"><ele>302.0</ele><time>2026-05-02T10:33:00.653Z</time></trkpt><trkpt lat="41.00924" lon="9.23869"><ele>302.0</ele><time>2026-05-02T10:33:01.654Z</time></trkpt><trkpt lat="41.009165" lon="9.2388"><ele>302.0</ele><time>2026-05-02T10:33:02.653Z</time></trkpt><trkpt lat="41.009105" lon="9.23891"><ele>302.0</ele><time>2026-05-02T10:33:03.653Z</time></trkpt><trkpt lat="41.009055" lon="9.239035"><ele>302.0</ele><time>2026-05-02T10:33:04.653Z</time></trkpt><trkpt lat="41.00903" lon="9.2391783"><ele>305.25</ele><time>2026-05-02T10:33:05.654Z</time></trkpt><trkpt lat="41.009035" lon="9.2393217"><ele>308.5</ele><time>2026-05-02T10:33:06.653Z</time></trkpt><trkpt lat="41.0090567" lon="9.2394783"><ele>311.75</ele><time>2026-05-02T10:33:07.653Z</time></trkpt><trkpt lat="41.0091233" lon="9.2396517"><ele>315.0</ele><time>2026-05-02T10:33:08.653Z</time></trkpt><trkpt lat="41.0091617" lon="9.2398233"><ele>315.0</ele><time>2026-05-02T10:33:09.652Z</time></trkpt><trkpt lat="41.0091783" lon="9.239975"><ele>315.0</ele><time>2026-05-02T10:33:10.653Z</time></trkpt><trkpt lat="41.0091667" lon="9.240125"><ele>315.0</ele><time>2026-05-02T10:33:11.653Z</time></trkpt><trkpt lat="41.009145" lon="9.240285"><ele>315.0</ele><time>2026-05-02T10:33:12.652Z</time></trkpt><trkpt lat="41.0091317" lon="9.2404583"><ele>319.25</ele><time>2026-05-02T10:33:13.653Z</time></trkpt><trkpt lat="41.009095" lon="9.2406367"><ele>323.5</ele><time>2026-05-02T10:33:14.653Z</time></trkpt><trkpt lat="41.0090667" lon="9.2408"><ele>327.75</ele><time>2026-05-02T10:33:15.653Z</time></trkpt><trkpt lat="41.009025" lon="9.2409533"><ele>332.0</ele><time>2026-05-02T10:33:16.653Z</time></trkpt><trkpt lat="41.0089683" lon="9.2410867"><ele>332.0</ele><time>2026-05-02T10:33:17.653Z</time></trkpt><trkpt lat="41.0089033" lon="9.2412017"><ele>332.0</ele><time>2026-05-02T10:33:18.653Z</time></trkpt><trkpt lat="41.0088217" lon="9.2412717"><ele>332.0</ele><time>2026-05-02T10:33:19.653Z</time></trkpt><trkpt lat="41.0087217" lon="9.241325"><ele>332.0</ele><time>2026-05-02T10:33:20.653Z</time></trkpt><trkpt lat="41.0086017" lon="9.2413767"><ele>332.0</ele><time>2026-05-02T10:33:21.653Z</time></trkpt><trkpt lat="41.008475" lon="9.2414"><ele>332.0</ele><time>2026-05-02T10:33:22.653Z</time></trkpt><trkpt lat="41.0083567" lon="9.241455"><ele>332.0</ele><time>2026-05-02T10:33:23.653Z</time></trkpt><trkpt lat="41.00825" lon="9.241535"><ele>332.0</ele><time>2026-05-02T10:33:24.653Z</time></trkpt><trkpt lat="41.0081417" lon="9.24164"><ele>332.0</ele><time>2026-05-02T10:33:25.654Z</time></trkpt><trkpt lat="41.008035" lon="9.24174"><ele>331.25</ele><time>2026-05-02T10:33:26.653Z</time></trkpt><trkpt lat="41.0079283" lon="9.2418333"><ele>330.5</ele><time>2026-05-02T10:33:27.653Z</time></trkpt><trkpt lat="41.00782" lon="9.2419367"><ele>329.75</ele><time>2026-05-02T10:33:28.653Z</time></trkpt><trkpt lat="41.0077667" lon="9.2420533"><ele>329.0</ele><time>2026-05-02T10:33:29.654Z</time></trkpt><trkpt lat="41.0077317" lon="9.2421733"><ele>328.75</ele><time>2026-05-02T10:33:30.653Z</time></trkpt><trkpt lat="41.0077333" lon="9.24231"><ele>328.5</ele><time>2026-05-02T10:33:31.653Z</time></trkpt><trkpt lat="41.007755" lon="9.2424567"><ele>328.25</ele><time>2026-05-02T10:33:32.653Z</time></trkpt><trkpt lat="41.00779" lon="9.24261"><ele>328.0</ele><time>2026-05-02T10:33:33.653Z</time></trkpt><trkpt lat="41.0078" lon="9.2427667"><ele>328.0</ele><time>2026-05-02T10:33:34.653Z</time></trkpt><trkpt lat="41.0077933" lon="9.2429417"><ele>328.0</ele><time>2026-05-02T10:33:35.653Z</time></trkpt><trkpt lat="41.007755" lon="9.2431217"><ele>328.0</ele><time>2026-05-02T10:33:36.653Z</time></trkpt><trkpt lat="41.0077267" lon="9.2432933"><ele>328.0</ele><time>2026-05-02T10:33:37.653Z</time></trkpt><trkpt lat="41.0077017" lon="9.2434583"><ele>327.2</ele><time>2026-05-02T10:33:38.653Z</time></trkpt><trkpt lat="41.0076733" lon="9.2436"><ele>326.4</ele><time>2026-05-02T10:33:39.653Z</time></trkpt><trkpt lat="41.0076217" lon="9.2437233"><ele>325.59999999999997</ele><time>2026-05-02T10:33:40.653Z</time></trkpt><trkpt lat="41.00756" lon="9.2438433"><ele>324.79999999999995</ele><time>2026-05-02T10:33:41.653Z</time></trkpt><trkpt lat="41.0075067" lon="9.2439717"><ele>324.0</ele><time>2026-05-02T10:33:42.653Z</time></trkpt><trkpt lat="41.0074567" lon="9.2441117"><ele>320.75</ele><time>2026-05-02T10:33:43.653Z</time></trkpt><trkpt lat="41.0074133" lon="9.2442617"><ele>317.5</ele><time>2026-05-02T10:33:44.653Z</time></trkpt><trkpt lat="41.0073617" lon="9.2444233"><ele>314.25</ele><time>2026-05-02T10:33:45.653Z</time></trkpt><trkpt lat="41.0073067" lon="9.2445933"><ele>311.0</ele><time>2026-05-02T10:33:46.653Z</time></trkpt><trkpt lat="41.0072533" lon="9.24478"><ele>310.0</ele><time>2026-05-02T10:33:47.653Z</time></trkpt><trkpt lat="41.007205" lon="9.24496"><ele>309.0</ele><time>2026-05-02T10:33:48.653Z</time></trkpt><trkpt lat="41.00713" lon="9.2451233"><ele>308.0</ele><time>2026-05-02T10:33:49.653Z</time></trkpt><trkpt lat="41.00708" lon="9.2452833"><ele>307.0</ele><time>2026-05-02T10:33:50.653Z</time></trkpt><trkpt lat="41.00702" lon="9.2454417"><ele>307.0</ele><time>2026-05-02T10:33:51.654Z</time></trkpt><trkpt lat="41.0069583" lon="9.2456067"><ele>307.0</ele><time>2026-05-02T10:33:52.653Z</time></trkpt><trkpt lat="41.00691" lon="9.2457767"><ele>307.0</ele><time>2026-05-02T10:33:53.653Z</time></trkpt><trkpt lat="41.0068433" lon="9.2459483"><ele>307.0</ele><time>2026-05-02T10:33:54.654Z</time></trkpt><trkpt lat="41.0067867" lon="9.2461083"><ele>306.8</ele><time>2026-05-02T10:33:55.653Z</time></trkpt><trkpt lat="41.0067383" lon="9.2462517"><ele>306.6</ele><time>2026-05-02T10:33:56.653Z</time></trkpt><trkpt lat="41.006685" lon="9.2463983"><ele>306.40000000000003</ele><time>2026-05-02T10:33:57.653Z</time></trkpt><trkpt lat="41.0066533" lon="9.246535"><ele>306.2</ele><time>2026-05-02T10:33:58.653Z</time></trkpt><trkpt lat="41.0066183" lon="9.2466533"><ele>306.0</ele><time>2026-05-02T10:33:59.653Z</time></trkpt><trkpt lat="41.0065717" lon="9.2467567"><ele>305.1666666666667</ele><time>2026-05-02T10:34:00.653Z</time></trkpt><trkpt lat="41.0065183" lon="9.2468333"><ele>304.3333333333333</ele><time>2026-05-02T10:34:01.654Z</time></trkpt><trkpt lat="41.00645" lon="9.2468617"><ele>303.5</ele><time>2026-05-02T10:34:02.653Z</time></trkpt><trkpt lat="41.0063633" lon="9.2468933"><ele>302.66666666666663</ele><time>2026-05-02T10:34:03.653Z</time></trkpt><trkpt lat="41.00628" lon="9.2469133"><ele>301.8333333333333</ele><time>2026-05-02T10:34:04.653Z</time></trkpt><trkpt lat="41.006205" lon="9.2469367"><ele>301.0</ele><time>2026-05-02T10:34:05.653Z</time></trkpt><trkpt lat="41.0061" lon="9.246945"><ele>301.0</ele><time>2026-05-02T10:34:07.653Z</time></trkpt><trkpt lat="41.0060567" lon="9.2468283"><ele>301.0</ele><time>2026-05-02T10:34:11.653Z</time></trkpt><trkpt lat="41.0060383" lon="9.2467333"><ele>301.0</ele><time>2026-05-02T10:34:13.653Z</time></trkpt><trkpt lat="41.00599" lon="9.246645"><ele>301.0</ele><time>2026-05-02T10:34:15.653Z</time></trkpt><trkpt lat="41.0059283" lon="9.2465833"><ele>301.0</ele><time>2026-05-02T10:34:17.653Z</time></trkpt><trkpt lat="41.0058167" lon="9.2465167"><ele>299.5</ele><time>2026-05-02T10:34:19.653Z</time></trkpt><trkpt lat="41.0056933" lon="9.2464933"><ele>298.0</ele><time>2026-05-02T10:34:21.653Z</time></trkpt><trkpt lat="41.0056283" lon="9.2464967"><ele>296.5</ele><time>2026-05-02T10:34:22.653Z</time></trkpt><trkpt lat="41.005565" lon="9.2465017"><ele>295.0</ele><time>2026-05-02T10:34:23.653Z</time></trkpt><trkpt lat="41.005445" lon="9.2465017"><ele>293.5</ele><time>2026-05-02T10:34:25.653Z</time></trkpt><trkpt lat="41.005375" lon="9.2465"><ele>292.0</ele><time>2026-05-02T10:34:26.653Z</time></trkpt><trkpt lat="41.0053083" lon="9.2464833"><ele>292.0</ele><time>2026-05-02T10:34:27.653Z</time></trkpt><trkpt lat="41.005245" lon="9.246465"><ele>292.0</ele><time>2026-05-02T10:34:28.653Z</time></trkpt><trkpt lat="41.0051683" lon="9.24645"><ele>292.0</ele><time>2026-05-02T10:34:29.653Z</time></trkpt><trkpt lat="41.0051017" lon="9.24643"><ele>292.0</ele><time>2026-05-02T10:34:30.653Z</time></trkpt><trkpt lat="41.0050367" lon="9.2464067"><ele>292.0</ele><time>2026-05-02T10:34:31.653Z</time></trkpt><trkpt lat="41.0049717" lon="9.2463933"><ele>292.0</ele><time>2026-05-02T10:34:32.653Z</time></trkpt><trkpt lat="41.0048517" lon="9.2463567"><ele>290.3333333333333</ele><time>2026-05-02T10:34:34.654Z</time></trkpt><trkpt lat="41.00476" lon="9.2463517"><ele>288.66666666666663</ele><time>2026-05-02T10:34:36.653Z</time></trkpt><trkpt lat="41.0046583" lon="9.2463483"><ele>287.0</ele><time>2026-05-02T10:34:38.653Z</time></trkpt><trkpt lat="41.0045383" lon="9.2463367"><ele>285.3333333333333</ele><time>2026-05-02T10:34:40.653Z</time></trkpt><trkpt lat="41.0044767" lon="9.24631"><ele>283.6666666666667</ele><time>2026-05-02T10:34:41.653Z</time></trkpt><trkpt lat="41.00442" lon="9.2462717"><ele>282.0</ele><time>2026-05-02T10:34:42.653Z</time></trkpt><trkpt lat="41.0043633" lon="9.2462233"><ele>282.0</ele><time>2026-05-02T10:34:43.653Z</time></trkpt><trkpt lat="41.004305" lon="9.2461633"><ele>282.0</ele><time>2026-05-02T10:34:44.653Z</time></trkpt><trkpt lat="41.00424" lon="9.2461117"><ele>282.0</ele><time>2026-05-02T10:34:45.653Z</time></trkpt><trkpt lat="41.0041733" lon="9.246075"><ele>282.0</ele><time>2026-05-02T10:34:46.653Z</time></trkpt><trkpt lat="41.004105" lon="9.24605"><ele>282.0</ele><time>2026-05-02T10:34:47.653Z</time></trkpt><trkpt lat="41.004025" lon="9.24603"><ele>282.0</ele><time>2026-05-02T10:34:48.653Z</time></trkpt><trkpt lat="41.00395" lon="9.2460083"><ele>281.0</ele><time>2026-05-02T10:34:49.653Z</time></trkpt><trkpt lat="41.003885" lon="9.2459867"><ele>280.0</ele><time>2026-05-02T10:34:50.653Z</time></trkpt><trkpt lat="41.00381" lon="9.24597"><ele>279.0</ele><time>2026-05-02T10:34:51.653Z</time></trkpt><trkpt lat="41.00373" lon="9.24595"><ele>278.0</ele><time>2026-05-02T10:34:52.653Z</time></trkpt><trkpt lat="41.0036517" lon="9.2459283"><ele>277.0</ele><time>2026-05-02T10:34:53.653Z</time></trkpt><trkpt lat="41.0035717" lon="9.2459033"><ele>276.0</ele><time>2026-05-02T10:34:54.654Z</time></trkpt><trkpt lat="41.003495" lon="9.2458667"><ele>276.0</ele><time>2026-05-02T10:34:55.653Z</time></trkpt><trkpt lat="41.00342" lon="9.2458167"><ele>276.0</ele><time>2026-05-02T10:34:56.653Z</time></trkpt><trkpt lat="41.0033483" lon="9.2457717"><ele>276.0</ele><time>2026-05-02T10:34:57.653Z</time></trkpt><trkpt lat="41.0032833" lon="9.24573"><ele>276.0</ele><time>2026-05-02T10:34:58.653Z</time></trkpt><trkpt lat="41.00319" lon="9.2456633"><ele>276.0</ele><time>2026-05-02T10:35:00.653Z</time></trkpt><trkpt lat="41.0030983" lon="9.2456233"><ele>276.0</ele><time>2026-05-02T10:35:02.653Z</time></trkpt><trkpt lat="41.0029833" lon="9.2456217"><ele>275.7142857142857</ele><time>2026-05-02T10:35:04.653Z</time></trkpt><trkpt lat="41.0029183" lon="9.2456433"><ele>275.42857142857144</ele><time>2026-05-02T10:35:05.653Z</time></trkpt><trkpt lat="41.0028517" lon="9.2456583"><ele>275.14285714285717</ele><time>2026-05-02T10:35:06.653Z</time></trkpt><trkpt lat="41.0027783" lon="9.2456817"><ele>274.8571428571429</ele><time>2026-05-02T10:35:07.653Z</time></trkpt><trkpt lat="41.0027" lon="9.245705"><ele>274.57142857142856</ele><time>2026-05-02T10:35:08.653Z</time></trkpt><trkpt lat="41.0026267" lon="9.24573"><ele>274.28571428571433</ele><time>2026-05-02T10:35:09.653Z</time></trkpt><trkpt lat="41.0025567" lon="9.245755"><ele>274.0</ele><time>2026-05-02T10:35:10.653Z</time></trkpt><trkpt lat="41.0024867" lon="9.2457833"><ele>273.16666666666663</ele><time>2026-05-02T10:35:11.653Z</time></trkpt><trkpt lat="41.0024183" lon="9.24581"><ele>272.3333333333333</ele><time>2026-05-02T10:35:12.653Z</time></trkpt><trkpt lat="41.00235" lon="9.2458383"><ele>271.5</ele><time>2026-05-02T10:35:13.653Z</time></trkpt><trkpt lat="41.002285" lon="9.2458667"><ele>270.6666666666667</ele><time>2026-05-02T10:35:14.653Z</time></trkpt><trkpt lat="41.002225" lon="9.245895"><ele>269.83333333333337</ele><time>2026-05-02T10:35:15.653Z</time></trkpt><trkpt lat="41.0020983" lon="9.2459233"><ele>269.0</ele><time>2026-05-02T10:35:17.653Z</time></trkpt><trkpt lat="41.0020333" lon="9.2459433"><ele>269.0</ele><time>2026-05-02T10:35:18.653Z</time></trkpt><trkpt lat="41.00197" lon="9.2459617"><ele>269.0</ele><time>2026-05-02T10:35:19.653Z</time></trkpt><trkpt lat="41.00186" lon="9.2460083"><ele>269.0</ele><time>2026-05-02T10:35:21.653Z</time></trkpt><trkpt lat="41.0017467" lon="9.246045"><ele>269.0</ele><time>2026-05-02T10:35:23.653Z</time></trkpt><trkpt lat="41.001645" lon="9.246075"><ele>269.0</ele><time>2026-05-02T10:35:25.653Z</time></trkpt><trkpt lat="41.00156" lon="9.2460617"><ele>264.4</ele><time>2026-05-02T10:35:27.653Z</time></trkpt><trkpt lat="41.001475" lon="9.2460133"><ele>259.79999999999995</ele><time>2026-05-02T10:35:30.653Z</time></trkpt><trkpt lat="41.0014133" lon="9.24595"><ele>255.20000000000002</ele><time>2026-05-02T10:35:33.653Z</time></trkpt><trkpt lat="41.0013533" lon="9.2458683"><ele>250.60000000000002</ele><time>2026-05-02T10:35:36.653Z</time></trkpt><trkpt lat="41.001295" lon="9.245775"><ele>246.0</ele><time>2026-05-02T10:35:38.653Z</time></trkpt><trkpt lat="41.0012183" lon="9.24567"><ele>247.5</ele><time>2026-05-02T10:35:40.653Z</time></trkpt><trkpt lat="41.00115" lon="9.2455817"><ele>249.0</ele><time>2026-05-02T10:35:42.653Z</time></trkpt><trkpt lat="41.0011" lon="9.245485"><ele>250.5</ele><time>2026-05-02T10:35:44.653Z</time></trkpt><trkpt lat="41.0010717" lon="9.2453867"><ele>252.0</ele><time>2026-05-02T10:35:47.653Z</time></trkpt><trkpt lat="41.0010033" lon="9.245335"><ele>253.5</ele><time>2026-05-02T10:35:55.653Z</time></trkpt><trkpt lat="41.0009533" lon="9.2452567"><ele>255.0</ele><time>2026-05-02T10:35:57.654Z</time></trkpt><trkpt lat="41.000925" lon="9.2451633"><ele>255.0</ele><time>2026-05-02T10:36:00.653Z</time></trkpt><trkpt lat="41.0009017" lon="9.2450617"><ele>255.0</ele><time>2026-05-02T10:40:40.652Z</time></trkpt><trkpt lat="41.0008633" lon="9.2449317"><ele>255.0</ele><time>2026-05-02T10:40:42.652Z</time></trkpt><trkpt lat="41.0008267" lon="9.2448033"><ele>255.0</ele><time>2026-05-02T10:40:44.652Z</time></trkpt><trkpt lat="41.0008067" lon="9.24466"><ele>255.0</ele><time>2026-05-02T10:40:46.652Z</time></trkpt><trkpt lat="41.0008" lon="9.2445217"><ele>256.0</ele><time>2026-05-02T10:40:48.652Z</time></trkpt><trkpt lat="41.00081" lon="9.2443617"><ele>257.0</ele><time>2026-05-02T10:40:50.652Z</time></trkpt><trkpt lat="41.0008367" lon="9.2442717"><ele>258.0</ele><time>2026-05-02T10:40:51.652Z</time></trkpt><trkpt lat="41.00087" lon="9.244185"><ele>259.0</ele><time>2026-05-02T10:40:52.652Z</time></trkpt><trkpt lat="41.0009417" lon="9.2440417"><ele>260.0</ele><time>2026-05-02T10:40:54.652Z</time></trkpt><trkpt lat="41.0009967" lon="9.2439767"><ele>257.0</ele><time>2026-05-02T10:40:55.652Z</time></trkpt><trkpt lat="41.0010617" lon="9.2439167"><ele>254.0</ele><time>2026-05-02T10:40:56.652Z</time></trkpt><trkpt lat="41.001135" lon="9.2438667"><ele>251.0</ele><time>2026-05-02T10:40:57.652Z</time></trkpt><trkpt lat="41.0012267" lon="9.24383"><ele>248.0</ele><time>2026-05-02T10:40:58.652Z</time></trkpt><trkpt lat="41.0013283" lon="9.2438"><ele>245.0</ele><time>2026-05-02T10:40:59.652Z</time></trkpt><trkpt lat="41.0014467" lon="9.2437567"><ele>245.0</ele><time>2026-05-02T10:41:00.652Z</time></trkpt><trkpt lat="41.00156" lon="9.2436983"><ele>245.0</ele><time>2026-05-02T10:41:01.652Z</time></trkpt><trkpt lat="41.0016617" lon="9.2436167"><ele>245.0</ele><time>2026-05-02T10:41:02.652Z</time></trkpt><trkpt lat="41.00176" lon="9.2435267"><ele>245.0</ele><time>2026-05-02T10:41:03.652Z</time></trkpt><trkpt lat="41.0018533" lon="9.243405"><ele>245.25</ele><time>2026-05-02T10:41:04.652Z</time></trkpt><trkpt lat="41.00191" lon="9.243245"><ele>245.5</ele><time>2026-05-02T10:41:05.652Z</time></trkpt><trkpt lat="41.0019667" lon="9.2430967"><ele>245.75</ele><time>2026-05-02T10:41:06.652Z</time></trkpt><trkpt lat="41.001975" lon="9.242905"><ele>246.0</ele><time>2026-05-02T10:41:07.652Z</time></trkpt><trkpt lat="41.001965" lon="9.24269"><ele>242.33333333333331</ele><time>2026-05-02T10:41:08.652Z</time></trkpt><trkpt lat="41.0019633" lon="9.2424583"><ele>238.66666666666666</ele><time>2026-05-02T10:41:09.652Z</time></trkpt><trkpt lat="41.0019467" lon="9.24226"><ele>235.0</ele><time>2026-05-02T10:41:10.652Z</time></trkpt><trkpt lat="41.001935" lon="9.242055"><ele>235.25</ele><time>2026-05-02T10:41:11.652Z</time></trkpt><trkpt lat="41.0019267" lon="9.2418667"><ele>235.5</ele><time>2026-05-02T10:41:12.652Z</time></trkpt><trkpt lat="41.0019283" lon="9.241675"><ele>235.75</ele><time>2026-05-02T10:41:13.652Z</time></trkpt><trkpt lat="41.0019217" lon="9.241475"><ele>236.0</ele><time>2026-05-02T10:41:14.652Z</time></trkpt><trkpt lat="41.00191" lon="9.24129"><ele>236.0</ele><time>2026-05-02T10:41:15.652Z</time></trkpt><trkpt lat="41.0019017" lon="9.2411083"><ele>236.0</ele><time>2026-05-02T10:41:16.652Z</time></trkpt><trkpt lat="41.0018933" lon="9.2409317"><ele>236.0</ele><time>2026-05-02T10:41:17.652Z</time></trkpt><trkpt lat="41.0018783" lon="9.2407633"><ele>236.0</ele><time>2026-05-02T10:41:18.652Z</time></trkpt><trkpt lat="41.001875" lon="9.240575"><ele>236.5</ele><time>2026-05-02T10:41:19.652Z</time></trkpt><trkpt lat="41.00185" lon="9.2404033"><ele>237.0</ele><time>2026-05-02T10:41:20.652Z</time></trkpt><trkpt lat="41.0018017" lon="9.24023"><ele>237.5</ele><time>2026-05-02T10:41:21.652Z</time></trkpt><trkpt lat="41.001725" lon="9.2400783"><ele>238.0</ele><time>2026-05-02T10:41:22.652Z</time></trkpt><trkpt lat="41.0016367" lon="9.2399017"><ele>238.0</ele><time>2026-05-02T10:41:23.652Z</time></trkpt><trkpt lat="41.0014783" lon="9.2398167"><ele>238.0</ele><time>2026-05-02T10:41:24.652Z</time></trkpt><trkpt lat="41.0013017" lon="9.239805"><ele>238.0</ele><time>2026-05-02T10:41:25.652Z</time></trkpt><trkpt lat="41.0011483" lon="9.239775"><ele>235.66666666666666</ele><time>2026-05-02T10:41:26.653Z</time></trkpt><trkpt lat="41.00099" lon="9.2397367"><ele>233.33333333333331</ele><time>2026-05-02T10:41:27.652Z</time></trkpt><trkpt lat="41.000835" lon="9.2397033"><ele>231.0</ele><time>2026-05-02T10:41:28.652Z</time></trkpt><trkpt lat="41.0006967" lon="9.23967"><ele>231.0</ele><time>2026-05-02T10:41:29.652Z</time></trkpt><trkpt lat="41.0005617" lon="9.2396333"><ele>231.0</ele><time>2026-05-02T10:41:30.652Z</time></trkpt><trkpt lat="41.0004217" lon="9.2395817"><ele>231.0</ele><time>2026-05-02T10:41:31.652Z</time></trkpt><trkpt lat="41.00029" lon="9.239535"><ele>231.0</ele><time>2026-05-02T10:41:32.652Z</time></trkpt><trkpt lat="41.0001717" lon="9.2394517"><ele>231.0</ele><time>2026-05-02T10:41:33.652Z</time></trkpt><trkpt lat="41.0000717" lon="9.23934"><ele>231.0</ele><time>2026-05-02T10:41:34.652Z</time></trkpt><trkpt lat="40.9999933" lon="9.2391867"><ele>231.0</ele><time>2026-05-02T10:41:35.652Z</time></trkpt><trkpt lat="40.9999467" lon="9.2390133"><ele>231.0</ele><time>2026-05-02T10:41:36.652Z</time></trkpt><trkpt lat="40.9999067" lon="9.23882"><ele>232.33333333333331</ele><time>2026-05-02T10:41:37.652Z</time></trkpt><trkpt lat="40.9998817" lon="9.238605"><ele>233.66666666666666</ele><time>2026-05-02T10:41:38.652Z</time></trkpt><trkpt lat="40.9998533" lon="9.2383817"><ele>235.0</ele><time>2026-05-02T10:41:39.652Z</time></trkpt><trkpt lat="40.9998533" lon="9.238165"><ele>233.5</ele><time>2026-05-02T10:41:40.652Z</time></trkpt><trkpt lat="40.9998617" lon="9.2379667"><ele>232.0</ele><time>2026-05-02T10:41:41.652Z</time></trkpt><trkpt lat="40.9998867" lon="9.2377817"><ele>230.5</ele><time>2026-05-02T10:41:42.652Z</time></trkpt><trkpt lat="40.9999417" lon="9.2376"><ele>229.0</ele><time>2026-05-02T10:41:43.652Z</time></trkpt><trkpt lat="41.0000167" lon="9.2374133"><ele>226.33333333333331</ele><time>2026-05-02T10:41:44.652Z</time></trkpt><trkpt lat="41.000095" lon="9.2372383"><ele>223.66666666666669</ele><time>2026-05-02T10:41:45.652Z</time></trkpt><trkpt lat="41.0001817" lon="9.23706"><ele>221.0</ele><time>2026-05-02T10:41:46.652Z</time></trkpt><trkpt lat="41.00028" lon="9.2368967"><ele>221.0</ele><time>2026-05-02T10:41:47.652Z</time></trkpt><trkpt lat="41.000365" lon="9.2367217"><ele>221.0</ele><time>2026-05-02T10:41:48.652Z</time></trkpt><trkpt lat="41.00045" lon="9.2365483"><ele>221.0</ele><time>2026-05-02T10:41:49.652Z</time></trkpt><trkpt lat="41.0005367" lon="9.2363667"><ele>218.0</ele><time>2026-05-02T10:41:50.652Z</time></trkpt><trkpt lat="41.0006183" lon="9.2362067"><ele>215.0</ele><time>2026-05-02T10:41:51.652Z</time></trkpt><trkpt lat="41.0007217" lon="9.2360467"><ele>212.0</ele><time>2026-05-02T10:41:52.652Z</time></trkpt><trkpt lat="41.0008317" lon="9.2359017"><ele>210.75</ele><time>2026-05-02T10:41:53.652Z</time></trkpt><trkpt lat="41.00095" lon="9.2357783"><ele>209.5</ele><time>2026-05-02T10:41:54.652Z</time></trkpt><trkpt lat="41.0010717" lon="9.2356767"><ele>208.25</ele><time>2026-05-02T10:41:55.652Z</time></trkpt><trkpt lat="41.001185" lon="9.2355883"><ele>207.0</ele><time>2026-05-02T10:41:56.652Z</time></trkpt><trkpt lat="41.0013067" lon="9.2354917"><ele>207.0</ele><time>2026-05-02T10:41:57.652Z</time></trkpt><trkpt lat="41.0014217" lon="9.2353767"><ele>207.0</ele><time>2026-05-02T10:41:58.652Z</time></trkpt><trkpt lat="41.0015217" lon="9.23522"><ele>207.0</ele><time>2026-05-02T10:41:59.652Z</time></trkpt><trkpt lat="41.00159" lon="9.23501"><ele>207.33333333333331</ele><time>2026-05-02T10:42:00.652Z</time></trkpt><trkpt lat="41.00165" lon="9.2348"><ele>207.66666666666666</ele><time>2026-05-02T10:42:01.652Z</time></trkpt><trkpt lat="41.001675" lon="9.2345883"><ele>208.0</ele><time>2026-05-02T10:42:02.652Z</time></trkpt><trkpt lat="41.001715" lon="9.2343833"><ele>208.0</ele><time>2026-05-02T10:42:03.652Z</time></trkpt><trkpt lat="41.0017233" lon="9.234145"><ele>208.0</ele><time>2026-05-02T10:42:04.652Z</time></trkpt><trkpt lat="41.0017333" lon="9.2339217"><ele>208.0</ele><time>2026-05-02T10:42:05.652Z</time></trkpt><trkpt lat="41.0017517" lon="9.2337083"><ele>205.33333333333331</ele><time>2026-05-02T10:42:06.652Z</time></trkpt><trkpt lat="41.00172" lon="9.2334983"><ele>202.66666666666669</ele><time>2026-05-02T10:42:07.652Z</time></trkpt><trkpt lat="41.001665" lon="9.233295"><ele>200.0</ele><time>2026-05-02T10:42:08.652Z</time></trkpt><trkpt lat="41.0016217" lon="9.233105"><ele>197.0</ele><time>2026-05-02T10:42:09.652Z</time></trkpt><trkpt lat="41.00157" lon="9.2329083"><ele>194.0</ele><time>2026-05-02T10:42:10.652Z</time></trkpt><trkpt lat="41.00152" lon="9.23271"><ele>191.0</ele><time>2026-05-02T10:42:11.652Z</time></trkpt><trkpt lat="41.001475" lon="9.2325183"><ele>191.0</ele><time>2026-05-02T10:42:12.652Z</time></trkpt><trkpt lat="41.0014267" lon="9.2323483"><ele>191.0</ele><time>2026-05-02T10:42:13.652Z</time></trkpt><trkpt lat="41.00134" lon="9.232175"><ele>191.0</ele><time>2026-05-02T10:42:14.652Z</time></trkpt><trkpt lat="41.001235" lon="9.232015"><ele>190.0</ele><time>2026-05-02T10:42:15.652Z</time></trkpt><trkpt lat="41.0010867" lon="9.2318717"><ele>189.0</ele><time>2026-05-02T10:42:16.652Z</time></trkpt><trkpt lat="41.0009417" lon="9.231745"><ele>188.0</ele><time>2026-05-02T10:42:17.652Z</time></trkpt><trkpt lat="41.0007833" lon="9.2316533"><ele>188.0</ele><time>2026-05-02T10:42:18.652Z</time></trkpt><trkpt lat="41.00064" lon="9.2315567"><ele>188.0</ele><time>2026-05-02T10:42:19.652Z</time></trkpt><trkpt lat="41.0005083" lon="9.2314733"><ele>188.0</ele><time>2026-05-02T10:42:20.652Z</time></trkpt><trkpt lat="41.0003917" lon="9.2313683"><ele>188.0</ele><time>2026-05-02T10:42:21.652Z</time></trkpt><trkpt lat="41.000275" lon="9.2312567"><ele>190.0</ele><time>2026-05-02T10:42:22.652Z</time></trkpt><trkpt lat="41.000165" lon="9.2311167"><ele>192.0</ele><time>2026-05-02T10:42:23.652Z</time></trkpt><trkpt lat="41.0000533" lon="9.2309717"><ele>194.0</ele><time>2026-05-02T10:42:24.652Z</time></trkpt><trkpt lat="40.9999517" lon="9.230815"><ele>194.0</ele><time>2026-05-02T10:42:25.653Z</time></trkpt><trkpt lat="40.99986" lon="9.2306583"><ele>194.0</ele><time>2026-05-02T10:42:26.652Z</time></trkpt><trkpt lat="40.99978" lon="9.23048"><ele>194.0</ele><time>2026-05-02T10:42:27.652Z</time></trkpt><trkpt lat="40.9997167" lon="9.23028"><ele>192.0</ele><time>2026-05-02T10:42:28.652Z</time></trkpt><trkpt lat="40.99969" lon="9.230065"><ele>190.0</ele><time>2026-05-02T10:42:29.652Z</time></trkpt><trkpt lat="40.9996733" lon="9.2298367"><ele>188.0</ele><time>2026-05-02T10:42:30.652Z</time></trkpt><trkpt lat="40.9996733" lon="9.2296167"><ele>188.0</ele><time>2026-05-02T10:42:31.652Z</time></trkpt><trkpt lat="40.9996717" lon="9.2294133"><ele>188.0</ele><time>2026-05-02T10:42:32.652Z</time></trkpt><trkpt lat="40.9996717" lon="9.2291983"><ele>188.0</ele><time>2026-05-02T10:42:33.652Z</time></trkpt><trkpt lat="40.999675" lon="9.228975"><ele>188.0</ele><time>2026-05-02T10:42:34.652Z</time></trkpt><trkpt lat="40.99967" lon="9.2287717"><ele>188.0</ele><time>2026-05-02T10:42:35.652Z</time></trkpt><trkpt lat="40.9996617" lon="9.2285533"><ele>188.0</ele><time>2026-05-02T10:42:36.652Z</time></trkpt><trkpt lat="40.9996633" lon="9.2283017"><ele>190.0</ele><time>2026-05-02T10:42:37.652Z</time></trkpt><trkpt lat="40.999655" lon="9.2280883"><ele>192.0</ele><time>2026-05-02T10:42:38.653Z</time></trkpt><trkpt lat="40.9996367" lon="9.2278933"><ele>194.0</ele><time>2026-05-02T10:42:39.652Z</time></trkpt><trkpt lat="40.9996067" lon="9.2276917"><ele>194.0</ele><time>2026-05-02T10:42:40.652Z</time></trkpt><trkpt lat="40.9995833" lon="9.2274817"><ele>194.0</ele><time>2026-05-02T10:42:41.652Z</time></trkpt><trkpt lat="40.9995533" lon="9.227265"><ele>194.0</ele><time>2026-05-02T10:42:42.652Z</time></trkpt><trkpt lat="40.9995233" lon="9.227045"><ele>197.66666666666669</ele><time>2026-05-02T10:42:43.652Z</time></trkpt><trkpt lat="40.99949" lon="9.226815"><ele>201.33333333333331</ele><time>2026-05-02T10:42:44.652Z</time></trkpt><trkpt lat="40.99946" lon="9.226585"><ele>205.0</ele><time>2026-05-02T10:42:45.652Z</time></trkpt><trkpt lat="40.999425" lon="9.22636"><ele>209.66666666666666</ele><time>2026-05-02T10:42:46.652Z</time></trkpt><trkpt lat="40.999395" lon="9.2261183"><ele>214.33333333333331</ele><time>2026-05-02T10:42:47.652Z</time></trkpt><trkpt lat="40.9993667" lon="9.2259033"><ele>219.0</ele><time>2026-05-02T10:42:48.652Z</time></trkpt><trkpt lat="40.999345" lon="9.2256817"><ele>224.0</ele><time>2026-05-02T10:42:49.652Z</time></trkpt><trkpt lat="40.9993083" lon="9.2254717"><ele>229.0</ele><time>2026-05-02T10:42:50.652Z</time></trkpt><trkpt lat="40.9992733" lon="9.2252667"><ele>234.0</ele><time>2026-05-02T10:42:51.652Z</time></trkpt><trkpt lat="40.9992283" lon="9.2250783"><ele>230.66666666666669</ele><time>2026-05-02T10:42:52.652Z</time></trkpt><trkpt lat="40.9991617" lon="9.2248833"><ele>227.33333333333334</ele><time>2026-05-02T10:42:53.652Z</time></trkpt><trkpt lat="40.9990733" lon="9.2247017"><ele>224.0</ele><time>2026-05-02T10:42:54.652Z</time></trkpt><trkpt lat="40.998965" lon="9.2245467"><ele>224.0</ele><time>2026-05-02T10:42:55.652Z</time></trkpt><trkpt lat="40.9988217" lon="9.22442"><ele>224.0</ele><time>2026-05-02T10:42:56.652Z</time></trkpt><trkpt lat="40.9986683" lon="9.2242883"><ele>224.0</ele><time>2026-05-02T10:42:57.652Z</time></trkpt><trkpt lat="40.9985017" lon="9.224185"><ele>224.0</ele><time>2026-05-02T10:42:58.652Z</time></trkpt><trkpt lat="40.99834" lon="9.2240633"><ele>224.0</ele><time>2026-05-02T10:42:59.652Z</time></trkpt><trkpt lat="40.9981883" lon="9.22394"><ele>224.0</ele><time>2026-05-02T10:43:00.652Z</time></trkpt><trkpt lat="40.99804" lon="9.22382"><ele>222.0</ele><time>2026-05-02T10:43:01.652Z</time></trkpt><trkpt lat="40.9979" lon="9.223705"><ele>220.0</ele><time>2026-05-02T10:43:02.652Z</time></trkpt><trkpt lat="40.99776" lon="9.22358"><ele>218.0</ele><time>2026-05-02T10:43:03.653Z</time></trkpt><trkpt lat="40.9976217" lon="9.2234617"><ele>219.0</ele><time>2026-05-02T10:43:04.652Z</time></trkpt><trkpt lat="40.99748" lon="9.2233317"><ele>220.0</ele><time>2026-05-02T10:43:05.652Z</time></trkpt><trkpt lat="40.99734" lon="9.22321"><ele>221.0</ele><time>2026-05-02T10:43:06.652Z</time></trkpt><trkpt lat="40.9971967" lon="9.2230933"><ele>221.0</ele><time>2026-05-02T10:43:07.652Z</time></trkpt><trkpt lat="40.99706" lon="9.2229683"><ele>221.0</ele><time>2026-05-02T10:43:08.652Z</time></trkpt><trkpt lat="40.9969233" lon="9.2228517"><ele>221.0</ele><time>2026-05-02T10:43:09.652Z</time></trkpt><trkpt lat="40.9967817" lon="9.2227367"><ele>221.0</ele><time>2026-05-02T10:43:10.652Z</time></trkpt><trkpt lat="40.9966683" lon="9.2225633"><ele>221.0</ele><time>2026-05-02T10:43:11.652Z</time></trkpt><trkpt lat="40.99655" lon="9.2224083"><ele>221.0</ele><time>2026-05-02T10:43:12.652Z</time></trkpt><trkpt lat="40.99645" lon="9.2222117"><ele>221.0</ele><time>2026-05-02T10:43:13.652Z</time></trkpt><trkpt lat="40.9963233" lon="9.2220533"><ele>221.0</ele><time>2026-05-02T10:43:14.652Z</time></trkpt><trkpt lat="40.9961967" lon="9.2218883"><ele>221.0</ele><time>2026-05-02T10:43:15.652Z</time></trkpt><trkpt lat="40.9960783" lon="9.2217233"><ele>221.0</ele><time>2026-05-02T10:43:16.652Z</time></trkpt><trkpt lat="40.9959617" lon="9.2215517"><ele>221.0</ele><time>2026-05-02T10:43:17.652Z</time></trkpt><trkpt lat="40.9958467" lon="9.2213867"><ele>221.0</ele><time>2026-05-02T10:43:18.652Z</time></trkpt><trkpt lat="40.995735" lon="9.2212333"><ele>218.66666666666669</ele><time>2026-05-02T10:43:19.652Z</time></trkpt><trkpt lat="40.9956267" lon="9.2210783"><ele>216.33333333333331</ele><time>2026-05-02T10:43:20.652Z</time></trkpt><trkpt lat="40.99552" lon="9.2209167"><ele>214.0</ele><time>2026-05-02T10:43:21.652Z</time></trkpt><trkpt lat="40.995405" lon="9.2207483"><ele>214.0</ele><time>2026-05-02T10:43:22.652Z</time></trkpt><trkpt lat="40.995275" lon="9.2206533"><ele>214.0</ele><time>2026-05-02T10:43:23.652Z</time></trkpt><trkpt lat="40.9951783" lon="9.2204917"><ele>214.0</ele><time>2026-05-02T10:43:24.653Z</time></trkpt><trkpt lat="40.9950767" lon="9.22033"><ele>215.0</ele><time>2026-05-02T10:43:25.652Z</time></trkpt><trkpt lat="40.994975" lon="9.2201617"><ele>216.0</ele><time>2026-05-02T10:43:26.652Z</time></trkpt><trkpt lat="40.99487" lon="9.2199883"><ele>217.0</ele><time>2026-05-02T10:43:27.652Z</time></trkpt><trkpt lat="40.9947683" lon="9.21981"><ele>217.0</ele><time>2026-05-02T10:43:28.652Z</time></trkpt><trkpt lat="40.9946667" lon="9.2196317"><ele>217.0</ele><time>2026-05-02T10:43:29.652Z</time></trkpt><trkpt lat="40.9945733" lon="9.2194433"><ele>217.0</ele><time>2026-05-02T10:43:30.652Z</time></trkpt><trkpt lat="40.994485" lon="9.2192517"><ele>217.0</ele><time>2026-05-02T10:43:31.652Z</time></trkpt><trkpt lat="40.994405" lon="9.2190533"><ele>217.0</ele><time>2026-05-02T10:43:32.652Z</time></trkpt><trkpt lat="40.9943483" lon="9.2188517"><ele>217.0</ele><time>2026-05-02T10:43:33.652Z</time></trkpt><trkpt lat="40.9943183" lon="9.218655"><ele>216.66666666666666</ele><time>2026-05-02T10:43:34.653Z</time></trkpt><trkpt lat="40.9942983" lon="9.2184333"><ele>216.33333333333331</ele><time>2026-05-02T10:43:35.652Z</time></trkpt><trkpt lat="40.994295" lon="9.218205"><ele>216.0</ele><time>2026-05-02T10:43:36.652Z</time></trkpt><trkpt lat="40.9943133" lon="9.217935"><ele>212.33333333333331</ele><time>2026-05-02T10:43:37.652Z</time></trkpt><trkpt lat="40.994315" lon="9.217715"><ele>208.66666666666666</ele><time>2026-05-02T10:43:38.652Z</time></trkpt><trkpt lat="40.994315" lon="9.217485"><ele>205.0</ele><time>2026-05-02T10:43:39.652Z</time></trkpt><trkpt lat="40.9943183" lon="9.2172733"><ele>203.66666666666666</ele><time>2026-05-02T10:43:40.652Z</time></trkpt><trkpt lat="40.9943167" lon="9.217065"><ele>202.33333333333331</ele><time>2026-05-02T10:43:41.652Z</time></trkpt><trkpt lat="40.99431" lon="9.2168567"><ele>201.0</ele><time>2026-05-02T10:43:42.652Z</time></trkpt><trkpt lat="40.9942717" lon="9.2166617"><ele>202.0</ele><time>2026-05-02T10:43:43.652Z</time></trkpt><trkpt lat="40.9942" lon="9.21647"><ele>203.0</ele><time>2026-05-02T10:43:44.652Z</time></trkpt><trkpt lat="40.9940783" lon="9.2163133"><ele>204.0</ele><time>2026-05-02T10:43:45.652Z</time></trkpt><trkpt lat="40.9939517" lon="9.216155"><ele>204.0</ele><time>2026-05-02T10:43:46.652Z</time></trkpt><trkpt lat="40.993805" lon="9.21602"><ele>204.0</ele><time>2026-05-02T10:43:47.652Z</time></trkpt><trkpt lat="40.9936767" lon="9.2158583"><ele>204.0</ele><time>2026-05-02T10:43:48.652Z</time></trkpt><trkpt lat="40.9935367" lon="9.2157267"><ele>203.0</ele><time>2026-05-02T10:43:49.652Z</time></trkpt><trkpt lat="40.9933967" lon="9.215605"><ele>202.0</ele><time>2026-05-02T10:43:50.652Z</time></trkpt><trkpt lat="40.9932583" lon="9.215485"><ele>201.0</ele><time>2026-05-02T10:43:51.652Z</time></trkpt><trkpt lat="40.9931217" lon="9.2153667"><ele>201.0</ele><time>2026-05-02T10:43:52.652Z</time></trkpt><trkpt lat="40.9929817" lon="9.215245"><ele>201.0</ele><time>2026-05-02T10:43:53.652Z</time></trkpt><trkpt lat="40.9928433" lon="9.2151317"><ele>201.0</ele><time>2026-05-02T10:43:54.652Z</time></trkpt><trkpt lat="40.9927067" lon="9.2150117"><ele>201.0</ele><time>2026-05-02T10:43:55.652Z</time></trkpt><trkpt lat="40.9925733" lon="9.214895"><ele>201.0</ele><time>2026-05-02T10:43:56.652Z</time></trkpt><trkpt lat="40.99245" lon="9.2147667"><ele>201.0</ele><time>2026-05-02T10:43:57.652Z</time></trkpt><trkpt lat="40.992335" lon="9.2146467"><ele>197.66666666666666</ele><time>2026-05-02T10:43:58.652Z</time></trkpt><trkpt lat="40.992225" lon="9.214515"><ele>194.33333333333331</ele><time>2026-05-02T10:43:59.652Z</time></trkpt><trkpt lat="40.992115" lon="9.21438"><ele>191.0</ele><time>2026-05-02T10:44:00.652Z</time></trkpt><trkpt lat="40.9920067" lon="9.2142267"><ele>191.0</ele><time>2026-05-02T10:44:01.652Z</time></trkpt><trkpt lat="40.9919033" lon="9.214055"><ele>191.0</ele><time>2026-05-02T10:44:02.652Z</time></trkpt><trkpt lat="40.9918083" lon="9.2138633"><ele>191.0</ele><time>2026-05-02T10:44:03.652Z</time></trkpt><trkpt lat="40.99172" lon="9.21365"><ele>187.66666666666666</ele><time>2026-05-02T10:44:04.652Z</time></trkpt><trkpt lat="40.9916283" lon="9.21344"><ele>184.33333333333334</ele><time>2026-05-02T10:44:05.652Z</time></trkpt><trkpt lat="40.9915433" lon="9.2132417"><ele>181.0</ele><time>2026-05-02T10:44:06.652Z</time></trkpt><trkpt lat="40.9914617" lon="9.2130533"><ele>181.0</ele><time>2026-05-02T10:44:07.652Z</time></trkpt><trkpt lat="40.9913767" lon="9.2128467"><ele>181.0</ele><time>2026-05-02T10:44:08.652Z</time></trkpt><trkpt lat="40.9912967" lon="9.2126633"><ele>181.0</ele><time>2026-05-02T10:44:09.652Z</time></trkpt><trkpt lat="40.99121" lon="9.2124733"><ele>182.66666666666669</ele><time>2026-05-02T10:44:10.653Z</time></trkpt><trkpt lat="40.9911217" lon="9.21229"><ele>184.33333333333334</ele><time>2026-05-02T10:44:11.652Z</time></trkpt><trkpt lat="40.9910367" lon="9.2121"><ele>186.0</ele><time>2026-05-02T10:44:12.652Z</time></trkpt><trkpt lat="40.99095" lon="9.2119033"><ele>186.0</ele><time>2026-05-02T10:44:13.651Z</time></trkpt><trkpt lat="40.9908667" lon="9.2117167"><ele>186.0</ele><time>2026-05-02T10:44:14.652Z</time></trkpt><trkpt lat="40.9907833" lon="9.2115233"><ele>186.0</ele><time>2026-05-02T10:44:15.652Z</time></trkpt><trkpt lat="40.9906967" lon="9.2113267"><ele>186.33333333333334</ele><time>2026-05-02T10:44:16.652Z</time></trkpt><trkpt lat="40.99061" lon="9.21113"><ele>186.66666666666669</ele><time>2026-05-02T10:44:17.653Z</time></trkpt><trkpt lat="40.9905267" lon="9.2109367"><ele>187.0</ele><time>2026-05-02T10:44:18.652Z</time></trkpt><trkpt lat="40.9904483" lon="9.2107367"><ele>188.0</ele><time>2026-05-02T10:44:19.652Z</time></trkpt><trkpt lat="40.9903733" lon="9.2105483"><ele>189.0</ele><time>2026-05-02T10:44:20.652Z</time></trkpt><trkpt lat="40.9902767" lon="9.2104033"><ele>190.0</ele><time>2026-05-02T10:44:21.652Z</time></trkpt><trkpt lat="40.99021" lon="9.2102083"><ele>190.0</ele><time>2026-05-02T10:44:22.652Z</time></trkpt><trkpt lat="40.9901433" lon="9.2100283"><ele>190.0</ele><time>2026-05-02T10:44:23.652Z</time></trkpt><trkpt lat="40.9900633" lon="9.209805"><ele>190.0</ele><time>2026-05-02T10:44:24.652Z</time></trkpt><trkpt lat="40.989995" lon="9.2095983"><ele>187.0</ele><time>2026-05-02T10:44:25.652Z</time></trkpt><trkpt lat="40.989855" lon="9.2092317"><ele>184.0</ele><time>2026-05-02T10:44:27.652Z</time></trkpt><trkpt lat="40.9897883" lon="9.209045"><ele>183.5</ele><time>2026-05-02T10:44:28.652Z</time></trkpt><trkpt lat="40.98971" lon="9.2088333"><ele>183.0</ele><time>2026-05-02T10:44:29.652Z</time></trkpt><trkpt lat="40.9895617" lon="9.208445"><ele>183.0</ele><time>2026-05-02T10:44:31.652Z</time></trkpt><trkpt lat="40.989485" lon="9.2082317"><ele>183.0</ele><time>2026-05-02T10:44:32.652Z</time></trkpt><trkpt lat="40.989405" lon="9.2080317"><ele>183.0</ele><time>2026-05-02T10:44:33.652Z</time></trkpt><trkpt lat="40.9893383" lon="9.2078383"><ele>183.5</ele><time>2026-05-02T10:44:34.652Z</time></trkpt><trkpt lat="40.9892683" lon="9.2076533"><ele>184.0</ele><time>2026-05-02T10:44:35.653Z</time></trkpt><trkpt lat="40.9891083" lon="9.20725"><ele>185.0</ele><time>2026-05-02T10:44:37.652Z</time></trkpt><trkpt lat="40.9890217" lon="9.20705"><ele>186.0</ele><time>2026-05-02T10:44:38.653Z</time></trkpt><trkpt lat="40.98894" lon="9.2068617"><ele>187.0</ele><time>2026-05-02T10:44:39.652Z</time></trkpt><trkpt lat="40.9888533" lon="9.2066767"><ele>187.0</ele><time>2026-05-02T10:44:40.652Z</time></trkpt><trkpt lat="40.9887633" lon="9.2065"><ele>187.0</ele><time>2026-05-02T10:44:41.652Z</time></trkpt><trkpt lat="40.9886533" lon="9.2063383"><ele>187.0</ele><time>2026-05-02T10:44:42.652Z</time></trkpt><trkpt lat="40.9885283" lon="9.2062333"><ele>187.66666666666669</ele><time>2026-05-02T10:44:43.652Z</time></trkpt><trkpt lat="40.9883967" lon="9.2060883"><ele>188.33333333333334</ele><time>2026-05-02T10:44:44.652Z</time></trkpt><trkpt lat="40.9882683" lon="9.2059433"><ele>189.0</ele><time>2026-05-02T10:44:45.652Z</time></trkpt><trkpt lat="40.98814" lon="9.205805"><ele>189.0</ele><time>2026-05-02T10:44:46.652Z</time></trkpt><trkpt lat="40.988015" lon="9.2056867"><ele>189.0</ele><time>2026-05-02T10:44:47.652Z</time></trkpt><trkpt lat="40.9879" lon="9.2055833"><ele>189.0</ele><time>2026-05-02T10:44:48.651Z</time></trkpt><trkpt lat="40.9877817" lon="9.2054617"><ele>189.0</ele><time>2026-05-02T10:44:49.651Z</time></trkpt><trkpt lat="40.98767" lon="9.2053317"><ele>189.25</ele><time>2026-05-02T10:44:50.651Z</time></trkpt><trkpt lat="40.9875583" lon="9.2052217"><ele>189.5</ele><time>2026-05-02T10:44:51.651Z</time></trkpt><trkpt lat="40.9874533" lon="9.205105"><ele>189.75</ele><time>2026-05-02T10:44:52.651Z</time></trkpt><trkpt lat="40.9873483" lon="9.2049917"><ele>190.0</ele><time>2026-05-02T10:44:53.651Z</time></trkpt><trkpt lat="40.9872417" lon="9.2048467"><ele>190.66666666666669</ele><time>2026-05-02T10:44:54.651Z</time></trkpt><trkpt lat="40.9871317" lon="9.204715"><ele>191.33333333333334</ele><time>2026-05-02T10:44:55.652Z</time></trkpt><trkpt lat="40.9870133" lon="9.20459"><ele>192.0</ele><time>2026-05-02T10:44:56.651Z</time></trkpt><trkpt lat="40.9869017" lon="9.20441"><ele>192.0</ele><time>2026-05-02T10:44:57.651Z</time></trkpt><trkpt lat="40.9867983" lon="9.2042667"><ele>192.0</ele><time>2026-05-02T10:44:58.651Z</time></trkpt><trkpt lat="40.9867" lon="9.20412"><ele>192.0</ele><time>2026-05-02T10:44:59.651Z</time></trkpt><trkpt lat="40.9866117" lon="9.2039433"><ele>194.0</ele><time>2026-05-02T10:45:00.651Z</time></trkpt><trkpt lat="40.9865117" lon="9.2037733"><ele>196.0</ele><time>2026-05-02T10:45:01.651Z</time></trkpt><trkpt lat="40.986425" lon="9.203595"><ele>198.0</ele><time>2026-05-02T10:45:02.651Z</time></trkpt><trkpt lat="40.9863317" lon="9.2034433"><ele>198.0</ele><time>2026-05-02T10:45:03.651Z</time></trkpt><trkpt lat="40.98623" lon="9.2032917"><ele>198.0</ele><time>2026-05-02T10:45:04.652Z</time></trkpt><trkpt lat="40.9861133" lon="9.2031483"><ele>198.0</ele><time>2026-05-02T10:45:05.651Z</time></trkpt><trkpt lat="40.985995" lon="9.2030617"><ele>198.0</ele><time>2026-05-02T10:45:06.651Z</time></trkpt><trkpt lat="40.9858517" lon="9.202975"><ele>199.0</ele><time>2026-05-02T10:45:07.651Z</time></trkpt><trkpt lat="40.9857133" lon="9.2028833"><ele>200.0</ele><time>2026-05-02T10:45:08.651Z</time></trkpt><trkpt lat="40.985565" lon="9.2027883"><ele>201.0</ele><time>2026-05-02T10:45:09.651Z</time></trkpt><trkpt lat="40.9854433" lon="9.2027183"><ele>201.0</ele><time>2026-05-02T10:45:10.651Z</time></trkpt><trkpt lat="40.9853133" lon="9.2026183"><ele>201.0</ele><time>2026-05-02T10:45:11.651Z</time></trkpt><trkpt lat="40.9851983" lon="9.2025167"><ele>201.0</ele><time>2026-05-02T10:45:12.651Z</time></trkpt><trkpt lat="40.9850983" lon="9.2024117"><ele>201.0</ele><time>2026-05-02T10:45:13.651Z</time></trkpt><trkpt lat="40.9849683" lon="9.20233"><ele>201.75</ele><time>2026-05-02T10:45:14.651Z</time></trkpt><trkpt lat="40.984825" lon="9.2023217"><ele>202.5</ele><time>2026-05-02T10:45:15.651Z</time></trkpt><trkpt lat="40.9846817" lon="9.2022683"><ele>203.25</ele><time>2026-05-02T10:45:16.651Z</time></trkpt><trkpt lat="40.9845467" lon="9.2022067"><ele>204.0</ele><time>2026-05-02T10:45:17.651Z</time></trkpt><trkpt lat="40.98442" lon="9.2021333"><ele>204.0</ele><time>2026-05-02T10:45:18.651Z</time></trkpt><trkpt lat="40.984305" lon="9.202065"><ele>204.0</ele><time>2026-05-02T10:45:19.651Z</time></trkpt><trkpt lat="40.984195" lon="9.2019883"><ele>204.0</ele><time>2026-05-02T10:45:20.651Z</time></trkpt><trkpt lat="40.9840917" lon="9.2019033"><ele>204.0</ele><time>2026-05-02T10:45:21.651Z</time></trkpt><trkpt lat="40.983995" lon="9.2018117"><ele>204.25</ele><time>2026-05-02T10:45:22.651Z</time></trkpt><trkpt lat="40.9838833" lon="9.2016917"><ele>204.5</ele><time>2026-05-02T10:45:23.651Z</time></trkpt><trkpt lat="40.9837867" lon="9.201585"><ele>204.75</ele><time>2026-05-02T10:45:24.651Z</time></trkpt><trkpt lat="40.98368" lon="9.2014833"><ele>205.0</ele><time>2026-05-02T10:45:25.651Z</time></trkpt><trkpt lat="40.9835533" lon="9.20136"><ele>205.0</ele><time>2026-05-02T10:45:26.651Z</time></trkpt><trkpt lat="40.9834567" lon="9.20126"><ele>205.0</ele><time>2026-05-02T10:45:27.652Z</time></trkpt><trkpt lat="40.98337" lon="9.201175"><ele>205.0</ele><time>2026-05-02T10:45:28.651Z</time></trkpt><trkpt lat="40.983275" lon="9.2011033"><ele>205.0</ele><time>2026-05-02T10:45:29.651Z</time></trkpt><trkpt lat="40.9831817" lon="9.2010283"><ele>205.0</ele><time>2026-05-02T10:45:30.651Z</time></trkpt><trkpt lat="40.9830767" lon="9.20093"><ele>206.33333333333331</ele><time>2026-05-02T10:45:31.651Z</time></trkpt><trkpt lat="40.98296" lon="9.20083"><ele>207.66666666666669</ele><time>2026-05-02T10:45:32.651Z</time></trkpt><trkpt lat="40.98283" lon="9.2007083"><ele>209.0</ele><time>2026-05-02T10:45:33.651Z</time></trkpt><trkpt lat="40.9827033" lon="9.2005833"><ele>209.0</ele><time>2026-05-02T10:45:34.651Z</time></trkpt><trkpt lat="40.9825817" lon="9.20047"><ele>209.0</ele><time>2026-05-02T10:45:35.651Z</time></trkpt><trkpt lat="40.9824533" lon="9.2003417"><ele>209.0</ele><time>2026-05-02T10:45:36.651Z</time></trkpt><trkpt lat="40.9823233" lon="9.200215"><ele>210.0</ele><time>2026-05-02T10:45:37.651Z</time></trkpt><trkpt lat="40.9821967" lon="9.2000917"><ele>211.0</ele><time>2026-05-02T10:45:38.651Z</time></trkpt><trkpt lat="40.9820817" lon="9.1999767"><ele>212.0</ele><time>2026-05-02T10:45:39.651Z</time></trkpt><trkpt lat="40.9819767" lon="9.1998367"><ele>212.0</ele><time>2026-05-02T10:45:40.651Z</time></trkpt><trkpt lat="40.9818933" lon="9.1996733"><ele>212.0</ele><time>2026-05-02T10:45:41.651Z</time></trkpt><trkpt lat="40.9818333" lon="9.1995017"><ele>212.0</ele><time>2026-05-02T10:45:42.651Z</time></trkpt><trkpt lat="40.9817917" lon="9.1993217"><ele>212.0</ele><time>2026-05-02T10:45:43.651Z</time></trkpt><trkpt lat="40.9817467" lon="9.1991467"><ele>212.39999999999998</ele><time>2026-05-02T10:45:44.651Z</time></trkpt><trkpt lat="40.9817017" lon="9.1989883"><ele>212.79999999999998</ele><time>2026-05-02T10:45:45.651Z</time></trkpt><trkpt lat="40.9816617" lon="9.1988467"><ele>213.2</ele><time>2026-05-02T10:45:46.651Z</time></trkpt><trkpt lat="40.9815933" lon="9.1987483"><ele>213.6</ele><time>2026-05-02T10:45:47.651Z</time></trkpt><trkpt lat="40.981535" lon="9.198645"><ele>214.0</ele><time>2026-05-02T10:45:48.651Z</time></trkpt><trkpt lat="40.9814517" lon="9.198525"><ele>214.25</ele><time>2026-05-02T10:45:49.652Z</time></trkpt><trkpt lat="40.98136" lon="9.1983983"><ele>214.5</ele><time>2026-05-02T10:45:50.651Z</time></trkpt><trkpt lat="40.9812533" lon="9.1982567"><ele>214.75</ele><time>2026-05-02T10:45:51.651Z</time></trkpt><trkpt lat="40.9811367" lon="9.1981117"><ele>215.0</ele><time>2026-05-02T10:45:52.651Z</time></trkpt><trkpt lat="40.981025" lon="9.19795"><ele>215.0</ele><time>2026-05-02T10:45:53.651Z</time></trkpt><trkpt lat="40.9809133" lon="9.1978033"><ele>215.0</ele><time>2026-05-02T10:45:54.651Z</time></trkpt><trkpt lat="40.9808117" lon="9.19763"><ele>215.0</ele><time>2026-05-02T10:45:55.651Z</time></trkpt><trkpt lat="40.9807017" lon="9.1974767"><ele>217.66666666666669</ele><time>2026-05-02T10:45:56.651Z</time></trkpt><trkpt lat="40.9805867" lon="9.1973317"><ele>220.33333333333331</ele><time>2026-05-02T10:45:57.651Z</time></trkpt><trkpt lat="40.9804717" lon="9.1971833"><ele>223.0</ele><time>2026-05-02T10:45:58.651Z</time></trkpt><trkpt lat="40.9803617" lon="9.197045"><ele>223.0</ele><time>2026-05-02T10:45:59.651Z</time></trkpt><trkpt lat="40.9802567" lon="9.1969183"><ele>223.0</ele><time>2026-05-02T10:46:00.651Z</time></trkpt><trkpt lat="40.98016" lon="9.1968017"><ele>223.0</ele><time>2026-05-02T10:46:01.651Z</time></trkpt><trkpt lat="40.9800767" lon="9.19668"><ele>223.0</ele><time>2026-05-02T10:46:02.651Z</time></trkpt><trkpt lat="40.98" lon="9.1965817"><ele>226.0</ele><time>2026-05-02T10:46:03.651Z</time></trkpt><trkpt lat="40.9799083" lon="9.1964617"><ele>229.0</ele><time>2026-05-02T10:46:04.651Z</time></trkpt><trkpt lat="40.97981" lon="9.1963267"><ele>232.0</ele><time>2026-05-02T10:46:05.651Z</time></trkpt><trkpt lat="40.979715" lon="9.1961983"><ele>235.0</ele><time>2026-05-02T10:46:06.651Z</time></trkpt><trkpt lat="40.979605" lon="9.1960683"><ele>235.0</ele><time>2026-05-02T10:46:07.651Z</time></trkpt><trkpt lat="40.97949" lon="9.1959417"><ele>235.0</ele><time>2026-05-02T10:46:08.651Z</time></trkpt><trkpt lat="40.979375" lon="9.1958133"><ele>235.0</ele><time>2026-05-02T10:46:09.651Z</time></trkpt><trkpt lat="40.9792667" lon="9.195675"><ele>236.0</ele><time>2026-05-02T10:46:10.652Z</time></trkpt><trkpt lat="40.97915" lon="9.1955367"><ele>237.0</ele><time>2026-05-02T10:46:11.651Z</time></trkpt><trkpt lat="40.9790383" lon="9.1953983"><ele>238.0</ele><time>2026-05-02T10:46:12.651Z</time></trkpt><trkpt lat="40.9789283" lon="9.1952733"><ele>238.0</ele><time>2026-05-02T10:46:13.651Z</time></trkpt><trkpt lat="40.97882" lon="9.19514"><ele>238.0</ele><time>2026-05-02T10:46:14.651Z</time></trkpt><trkpt lat="40.9787117" lon="9.1950083"><ele>238.0</ele><time>2026-05-02T10:46:15.651Z</time></trkpt><trkpt lat="40.9786067" lon="9.19488"><ele>238.0</ele><time>2026-05-02T10:46:16.651Z</time></trkpt><trkpt lat="40.9784933" lon="9.1947717"><ele>238.33333333333331</ele><time>2026-05-02T10:46:17.651Z</time></trkpt><trkpt lat="40.9783567" lon="9.1946583"><ele>238.66666666666669</ele><time>2026-05-02T10:46:18.651Z</time></trkpt><trkpt lat="40.9782067" lon="9.1946117"><ele>239.0</ele><time>2026-05-02T10:46:19.651Z</time></trkpt><trkpt lat="40.9780483" lon="9.194615"><ele>239.0</ele><time>2026-05-02T10:46:20.651Z</time></trkpt><trkpt lat="40.977895" lon="9.1946733"><ele>239.0</ele><time>2026-05-02T10:46:21.651Z</time></trkpt><trkpt lat="40.977745" lon="9.1947533"><ele>239.0</ele><time>2026-05-02T10:46:22.651Z</time></trkpt><trkpt lat="40.9776083" lon="9.1949083"><ele>239.0</ele><time>2026-05-02T10:46:23.651Z</time></trkpt><trkpt lat="40.97748" lon="9.1950233"><ele>239.0</ele><time>2026-05-02T10:46:24.651Z</time></trkpt><trkpt lat="40.97736" lon="9.195195"><ele>239.0</ele><time>2026-05-02T10:46:25.651Z</time></trkpt><trkpt lat="40.977265" lon="9.1954333"><ele>239.0</ele><time>2026-05-02T10:46:26.651Z</time></trkpt><trkpt lat="40.9771533" lon="9.1956433"><ele>239.0</ele><time>2026-05-02T10:46:27.651Z</time></trkpt><trkpt lat="40.9770483" lon="9.1958267"><ele>239.0</ele><time>2026-05-02T10:46:28.651Z</time></trkpt><trkpt lat="40.9769417" lon="9.195995"><ele>238.33333333333334</ele><time>2026-05-02T10:46:29.651Z</time></trkpt><trkpt lat="40.9768383" lon="9.19616"><ele>237.66666666666669</ele><time>2026-05-02T10:46:30.651Z</time></trkpt><trkpt lat="40.976735" lon="9.1963283"><ele>237.0</ele><time>2026-05-02T10:46:31.651Z</time></trkpt><trkpt lat="40.976635" lon="9.1964817"><ele>238.0</ele><time>2026-05-02T10:46:32.651Z</time></trkpt><trkpt lat="40.9765383" lon="9.1966517"><ele>239.0</ele><time>2026-05-02T10:46:33.651Z</time></trkpt><trkpt lat="40.9764483" lon="9.196825"><ele>240.0</ele><time>2026-05-02T10:46:34.651Z</time></trkpt><trkpt lat="40.9763533" lon="9.1969917"><ele>240.0</ele><time>2026-05-02T10:46:35.651Z</time></trkpt><trkpt lat="40.9762767" lon="9.197145"><ele>240.0</ele><time>2026-05-02T10:46:36.651Z</time></trkpt><trkpt lat="40.976185" lon="9.1973167"><ele>240.0</ele><time>2026-05-02T10:46:37.651Z</time></trkpt><trkpt lat="40.976075" lon="9.19749"><ele>239.0</ele><time>2026-05-02T10:46:38.651Z</time></trkpt><trkpt lat="40.9759767" lon="9.1976617"><ele>238.0</ele><time>2026-05-02T10:46:39.651Z</time></trkpt><trkpt lat="40.9758867" lon="9.1978283"><ele>237.0</ele><time>2026-05-02T10:46:40.651Z</time></trkpt><trkpt lat="40.9758017" lon="9.1979767"><ele>237.66666666666669</ele><time>2026-05-02T10:46:41.651Z</time></trkpt><trkpt lat="40.9757117" lon="9.19816"><ele>238.33333333333334</ele><time>2026-05-02T10:46:42.651Z</time></trkpt><trkpt lat="40.9756033" lon="9.1983517"><ele>239.0</ele><time>2026-05-02T10:46:43.651Z</time></trkpt><trkpt lat="40.975495" lon="9.198535"><ele>239.0</ele><time>2026-05-02T10:46:44.651Z</time></trkpt><trkpt lat="40.97541" lon="9.19868"><ele>239.0</ele><time>2026-05-02T10:46:45.651Z</time></trkpt><trkpt lat="40.975305" lon="9.1988617"><ele>239.0</ele><time>2026-05-02T10:46:46.651Z</time></trkpt><trkpt lat="40.9752033" lon="9.1990317"><ele>237.33333333333334</ele><time>2026-05-02T10:46:47.651Z</time></trkpt><trkpt lat="40.9751067" lon="9.1991767"><ele>235.66666666666669</ele><time>2026-05-02T10:46:48.651Z</time></trkpt><trkpt lat="40.9750033" lon="9.1993217"><ele>234.0</ele><time>2026-05-02T10:46:49.651Z</time></trkpt><trkpt lat="40.974875" lon="9.19946"><ele>234.0</ele><time>2026-05-02T10:46:50.651Z</time></trkpt><trkpt lat="40.9747333" lon="9.19956"><ele>234.0</ele><time>2026-05-02T10:46:51.651Z</time></trkpt><trkpt lat="40.9745817" lon="9.199655"><ele>234.0</ele><time>2026-05-02T10:46:52.651Z</time></trkpt><trkpt lat="40.9744267" lon="9.1997433"><ele>234.0</ele><time>2026-05-02T10:46:53.651Z</time></trkpt><trkpt lat="40.9742617" lon="9.19983"><ele>234.0</ele><time>2026-05-02T10:46:54.651Z</time></trkpt><trkpt lat="40.9741067" lon="9.1999067"><ele>234.0</ele><time>2026-05-02T10:46:55.652Z</time></trkpt><trkpt lat="40.9739533" lon="9.1999833"><ele>233.0</ele><time>2026-05-02T10:46:56.651Z</time></trkpt><trkpt lat="40.9738017" lon="9.2000683"><ele>232.0</ele><time>2026-05-02T10:46:57.651Z</time></trkpt><trkpt lat="40.9736583" lon="9.2001783"><ele>231.0</ele><time>2026-05-02T10:46:58.651Z</time></trkpt><trkpt lat="40.9735317" lon="9.2002967"><ele>231.0</ele><time>2026-05-02T10:46:59.651Z</time></trkpt><trkpt lat="40.9734217" lon="9.20044"><ele>231.0</ele><time>2026-05-02T10:47:00.651Z</time></trkpt><trkpt lat="40.9732967" lon="9.2005767"><ele>231.0</ele><time>2026-05-02T10:47:01.651Z</time></trkpt><trkpt lat="40.9731683" lon="9.2006983"><ele>231.33333333333331</ele><time>2026-05-02T10:47:02.651Z</time></trkpt><trkpt lat="40.973025" lon="9.2008183"><ele>231.66666666666666</ele><time>2026-05-02T10:47:03.651Z</time></trkpt><trkpt lat="40.972905" lon="9.2009533"><ele>232.0</ele><time>2026-05-02T10:47:04.651Z</time></trkpt><trkpt lat="40.97279" lon="9.2010983"><ele>232.0</ele><time>2026-05-02T10:47:05.651Z</time></trkpt><trkpt lat="40.9726867" lon="9.2012717"><ele>232.0</ele><time>2026-05-02T10:47:06.651Z</time></trkpt><trkpt lat="40.972605" lon="9.2014583"><ele>232.0</ele><time>2026-05-02T10:47:07.651Z</time></trkpt><trkpt lat="40.9725383" lon="9.201655"><ele>226.66666666666666</ele><time>2026-05-02T10:47:08.651Z</time></trkpt><trkpt lat="40.9724717" lon="9.201855"><ele>221.33333333333331</ele><time>2026-05-02T10:47:09.651Z</time></trkpt><trkpt lat="40.9724067" lon="9.2020483"><ele>216.0</ele><time>2026-05-02T10:47:10.651Z</time></trkpt><trkpt lat="40.972335" lon="9.202235"><ele>218.33333333333331</ele><time>2026-05-02T10:47:11.651Z</time></trkpt><trkpt lat="40.9722667" lon="9.202425"><ele>220.66666666666666</ele><time>2026-05-02T10:47:12.651Z</time></trkpt><trkpt lat="40.9722033" lon="9.202615"><ele>223.0</ele><time>2026-05-02T10:47:13.651Z</time></trkpt><trkpt lat="40.9721417" lon="9.2028033"><ele>223.0</ele><time>2026-05-02T10:47:14.651Z</time></trkpt><trkpt lat="40.9720767" lon="9.2029867"><ele>223.0</ele><time>2026-05-02T10:47:15.651Z</time></trkpt><trkpt lat="40.9720083" lon="9.203185"><ele>223.0</ele><time>2026-05-02T10:47:16.651Z</time></trkpt><trkpt lat="40.9719317" lon="9.2033683"><ele>223.66666666666666</ele><time>2026-05-02T10:47:17.651Z</time></trkpt><trkpt lat="40.9718617" lon="9.2035533"><ele>224.33333333333331</ele><time>2026-05-02T10:47:18.651Z</time></trkpt><trkpt lat="40.971785" lon="9.2037583"><ele>225.0</ele><time>2026-05-02T10:47:19.651Z</time></trkpt><trkpt lat="40.971705" lon="9.203955"><ele>219.66666666666669</ele><time>2026-05-02T10:47:20.651Z</time></trkpt><trkpt lat="40.97162" lon="9.2041483"><ele>214.33333333333334</ele><time>2026-05-02T10:47:21.651Z</time></trkpt><trkpt lat="40.9715467" lon="9.2043517"><ele>209.0</ele><time>2026-05-02T10:47:22.651Z</time></trkpt><trkpt lat="40.971485" lon="9.204545"><ele>209.0</ele><time>2026-05-02T10:47:23.651Z</time></trkpt><trkpt lat="40.97142" lon="9.2047383"><ele>209.0</ele><time>2026-05-02T10:47:24.651Z</time></trkpt><trkpt lat="40.9713483" lon="9.20493"><ele>209.0</ele><time>2026-05-02T10:47:25.652Z</time></trkpt><trkpt lat="40.9712633" lon="9.205135"><ele>208.66666666666669</ele><time>2026-05-02T10:47:26.651Z</time></trkpt><trkpt lat="40.9711983" lon="9.2053183"><ele>208.33333333333331</ele><time>2026-05-02T10:47:27.651Z</time></trkpt><trkpt lat="40.9711383" lon="9.2055167"><ele>208.0</ele><time>2026-05-02T10:47:28.651Z</time></trkpt><trkpt lat="40.971065" lon="9.2057233"><ele>206.0</ele><time>2026-05-02T10:47:29.651Z</time></trkpt><trkpt lat="40.9709983" lon="9.205915"><ele>204.0</ele><time>2026-05-02T10:47:30.651Z</time></trkpt><trkpt lat="40.9709317" lon="9.2060917"><ele>202.0</ele><time>2026-05-02T10:47:31.651Z</time></trkpt><trkpt lat="40.9708417" lon="9.2062617"><ele>201.25</ele><time>2026-05-02T10:47:32.651Z</time></trkpt><trkpt lat="40.97077" lon="9.20643"><ele>200.5</ele><time>2026-05-02T10:47:33.651Z</time></trkpt><trkpt lat="40.97069" lon="9.20659"><ele>199.75</ele><time>2026-05-02T10:47:34.651Z</time></trkpt><trkpt lat="40.97059" lon="9.2067467"><ele>199.0</ele><time>2026-05-02T10:47:35.651Z</time></trkpt><trkpt lat="40.970475" lon="9.2068567"><ele>198.0</ele><time>2026-05-02T10:47:36.651Z</time></trkpt><trkpt lat="40.9703467" lon="9.2069567"><ele>197.0</ele><time>2026-05-02T10:47:37.651Z</time></trkpt><trkpt lat="40.9702067" lon="9.2070633"><ele>196.0</ele><time>2026-05-02T10:47:38.651Z</time></trkpt><trkpt lat="40.9700667" lon="9.2071717"><ele>195.0</ele><time>2026-05-02T10:47:39.651Z</time></trkpt><trkpt lat="40.9699217" lon="9.2072783"><ele>194.0</ele><time>2026-05-02T10:47:40.651Z</time></trkpt><trkpt lat="40.9697617" lon="9.2073533"><ele>193.0</ele><time>2026-05-02T10:47:41.651Z</time></trkpt><trkpt lat="40.9696033" lon="9.2074133"><ele>193.0</ele><time>2026-05-02T10:47:42.651Z</time></trkpt><trkpt lat="40.9694367" lon="9.2074417"><ele>193.0</ele><time>2026-05-02T10:47:43.651Z</time></trkpt><trkpt lat="40.9692783" lon="9.20746"><ele>193.0</ele><time>2026-05-02T10:47:44.651Z</time></trkpt><trkpt lat="40.9691083" lon="9.207465"><ele>191.66666666666666</ele><time>2026-05-02T10:47:45.651Z</time></trkpt><trkpt lat="40.9689433" lon="9.20747"><ele>190.33333333333331</ele><time>2026-05-02T10:47:46.651Z</time></trkpt><trkpt lat="40.9687783" lon="9.2074767"><ele>189.0</ele><time>2026-05-02T10:47:47.651Z</time></trkpt><trkpt lat="40.9686017" lon="9.2074933"><ele>189.0</ele><time>2026-05-02T10:47:48.651Z</time></trkpt><trkpt lat="40.9684283" lon="9.2075183"><ele>189.0</ele><time>2026-05-02T10:47:49.651Z</time></trkpt><trkpt lat="40.9682683" lon="9.20753"><ele>189.0</ele><time>2026-05-02T10:47:50.651Z</time></trkpt><trkpt lat="40.9681083" lon="9.20754"><ele>187.33333333333334</ele><time>2026-05-02T10:47:51.651Z</time></trkpt><trkpt lat="40.96794" lon="9.20755"><ele>185.66666666666669</ele><time>2026-05-02T10:47:52.651Z</time></trkpt><trkpt lat="40.9677733" lon="9.2075683"><ele>184.0</ele><time>2026-05-02T10:47:53.651Z</time></trkpt><trkpt lat="40.96762" lon="9.2075917"><ele>186.75</ele><time>2026-05-02T10:47:54.651Z</time></trkpt><trkpt lat="40.9674867" lon="9.2076067"><ele>189.5</ele><time>2026-05-02T10:47:55.651Z</time></trkpt><trkpt lat="40.9673583" lon="9.2076917"><ele>192.25</ele><time>2026-05-02T10:47:56.651Z</time></trkpt><trkpt lat="40.967245" lon="9.207825"><ele>195.0</ele><time>2026-05-02T10:47:57.651Z</time></trkpt><trkpt lat="40.9671467" lon="9.2079817"><ele>195.0</ele><time>2026-05-02T10:47:58.651Z</time></trkpt><trkpt lat="40.96703" lon="9.208135"><ele>195.0</ele><time>2026-05-02T10:47:59.651Z</time></trkpt><trkpt lat="40.96691" lon="9.2082833"><ele>195.0</ele><time>2026-05-02T10:48:00.651Z</time></trkpt><trkpt lat="40.96678" lon="9.2084133"><ele>195.66666666666669</ele><time>2026-05-02T10:48:01.651Z</time></trkpt><trkpt lat="40.966625" lon="9.2085067"><ele>196.33333333333334</ele><time>2026-05-02T10:48:02.651Z</time></trkpt><trkpt lat="40.966475" lon="9.2085933"><ele>197.0</ele><time>2026-05-02T10:48:03.651Z</time></trkpt><trkpt lat="40.966325" lon="9.2086917"><ele>197.0</ele><time>2026-05-02T10:48:04.651Z</time></trkpt><trkpt lat="40.9661867" lon="9.2087983"><ele>197.0</ele><time>2026-05-02T10:48:05.651Z</time></trkpt><trkpt lat="40.9660383" lon="9.2088933"><ele>197.0</ele><time>2026-05-02T10:48:06.651Z</time></trkpt><trkpt lat="40.965895" lon="9.2089833"><ele>197.75</ele><time>2026-05-02T10:48:07.651Z</time></trkpt><trkpt lat="40.9657633" lon="9.20907"><ele>198.5</ele><time>2026-05-02T10:48:08.651Z</time></trkpt><trkpt lat="40.965655" lon="9.2091533"><ele>199.25</ele><time>2026-05-02T10:48:09.651Z</time></trkpt><trkpt lat="40.965555" lon="9.209225"><ele>200.0</ele><time>2026-05-02T10:48:10.651Z</time></trkpt><trkpt lat="40.965485" lon="9.2092483"><ele>200.00000000000003</ele><time>2026-05-02T10:48:11.651Z</time></trkpt><trkpt lat="40.965415" lon="9.2092633"><ele>200.0</ele><time>2026-05-02T10:48:12.651Z</time></trkpt><trkpt lat="40.9653433" lon="9.2092283"><ele>200.0</ele><time>2026-05-02T10:48:14.651Z</time></trkpt><trkpt lat="40.9653167" lon="9.2091433"><ele>200.0</ele><time>2026-05-02T10:48:16.651Z</time></trkpt><trkpt lat="40.9652533" lon="9.209075"><ele>200.00000000000003</ele><time>2026-05-02T10:48:18.651Z</time></trkpt><trkpt lat="40.9651683" lon="9.2090883"><ele>200.0</ele><time>2026-05-02T10:48:20.651Z</time></trkpt><trkpt lat="40.96507" lon="9.209205"><ele>199.4</ele><time>2026-05-02T10:48:22.651Z</time></trkpt><trkpt lat="40.9650017" lon="9.2092483"><ele>198.8</ele><time>2026-05-02T10:48:23.651Z</time></trkpt><trkpt lat="40.9649183" lon="9.2092783"><ele>198.2</ele><time>2026-05-02T10:48:24.651Z</time></trkpt><trkpt lat="40.96482" lon="9.2093067"><ele>197.6</ele><time>2026-05-02T10:48:25.651Z</time></trkpt><trkpt lat="40.964705" lon="9.2093367"><ele>197.0</ele><time>2026-05-02T10:48:26.651Z</time></trkpt><trkpt lat="40.96458" lon="9.20936"><ele>197.0</ele><time>2026-05-02T10:48:27.651Z</time></trkpt><trkpt lat="40.9644617" lon="9.209365"><ele>197.0</ele><time>2026-05-02T10:48:28.651Z</time></trkpt><trkpt lat="40.9643433" lon="9.2093533"><ele>197.0</ele><time>2026-05-02T10:48:29.651Z</time></trkpt><trkpt lat="40.9642233" lon="9.2093183"><ele>197.0</ele><time>2026-05-02T10:48:30.651Z</time></trkpt><trkpt lat="40.96411" lon="9.209265"><ele>196.5</ele><time>2026-05-02T10:48:31.651Z</time></trkpt><trkpt lat="40.9640167" lon="9.2091867"><ele>196.0</ele><time>2026-05-02T10:48:32.651Z</time></trkpt><trkpt lat="40.9639383" lon="9.2090767"><ele>195.5</ele><time>2026-05-02T10:48:33.651Z</time></trkpt><trkpt lat="40.963865" lon="9.2089567"><ele>195.0</ele><time>2026-05-02T10:48:34.651Z</time></trkpt><trkpt lat="40.96378" lon="9.2088233"><ele>198.25</ele><time>2026-05-02T10:48:35.651Z</time></trkpt><trkpt lat="40.9637017" lon="9.208685"><ele>201.5</ele><time>2026-05-02T10:48:36.651Z</time></trkpt><trkpt lat="40.9636267" lon="9.2085283"><ele>204.75</ele><time>2026-05-02T10:48:37.651Z</time></trkpt><trkpt lat="40.9635617" lon="9.208375"><ele>208.0</ele><time>2026-05-02T10:48:38.651Z</time></trkpt><trkpt lat="40.9635017" lon="9.2082233"><ele>210.75</ele><time>2026-05-02T10:48:39.651Z</time></trkpt><trkpt lat="40.9634317" lon="9.2080617"><ele>213.5</ele><time>2026-05-02T10:48:40.651Z</time></trkpt><trkpt lat="40.9633533" lon="9.207895"><ele>216.25</ele><time>2026-05-02T10:48:41.651Z</time></trkpt><trkpt lat="40.9632817" lon="9.2077317"><ele>219.0</ele><time>2026-05-02T10:48:42.651Z</time></trkpt><trkpt lat="40.96322" lon="9.2075733"><ele>219.0</ele><time>2026-05-02T10:48:43.651Z</time></trkpt><trkpt lat="40.96317" lon="9.20742"><ele>219.0</ele><time>2026-05-02T10:48:44.651Z</time></trkpt><trkpt lat="40.96313" lon="9.20726"><ele>219.0</ele><time>2026-05-02T10:48:45.651Z</time></trkpt><trkpt lat="40.9631" lon="9.2071033"><ele>219.0</ele><time>2026-05-02T10:48:46.651Z</time></trkpt><trkpt lat="40.9630783" lon="9.206935"><ele>222.0</ele><time>2026-05-02T10:48:47.651Z</time></trkpt><trkpt lat="40.963075" lon="9.20677"><ele>225.0</ele><time>2026-05-02T10:48:48.651Z</time></trkpt><trkpt lat="40.963105" lon="9.206625"><ele>228.0</ele><time>2026-05-02T10:48:49.651Z</time></trkpt><trkpt lat="40.96316" lon="9.2064717"><ele>231.0</ele><time>2026-05-02T10:48:50.651Z</time></trkpt><trkpt lat="40.9632083" lon="9.2063367"><ele>231.0</ele><time>2026-05-02T10:48:51.651Z</time></trkpt><trkpt lat="40.9632383" lon="9.2061983"><ele>231.0</ele><time>2026-05-02T10:48:52.651Z</time></trkpt><trkpt lat="40.96325" lon="9.2060417"><ele>231.0</ele><time>2026-05-02T10:48:53.651Z</time></trkpt><trkpt lat="40.9632417" lon="9.2058833"><ele>231.0</ele><time>2026-05-02T10:48:54.651Z</time></trkpt><trkpt lat="40.9632233" lon="9.2057433"><ele>232.25</ele><time>2026-05-02T10:48:55.651Z</time></trkpt><trkpt lat="40.9631817" lon="9.2055983"><ele>233.5</ele><time>2026-05-02T10:48:56.651Z</time></trkpt><trkpt lat="40.9631217" lon="9.2054483"><ele>234.75</ele><time>2026-05-02T10:48:57.651Z</time></trkpt><trkpt lat="40.96305" lon="9.205305"><ele>236.0</ele><time>2026-05-02T10:48:58.651Z</time></trkpt><trkpt lat="40.9629667" lon="9.20512"><ele>236.0</ele><time>2026-05-02T10:48:59.651Z</time></trkpt><trkpt lat="40.962915" lon="9.204945"><ele>236.0</ele><time>2026-05-02T10:49:00.651Z</time></trkpt><trkpt lat="40.9628733" lon="9.2047683"><ele>236.0</ele><time>2026-05-02T10:49:01.651Z</time></trkpt><trkpt lat="40.9628183" lon="9.204645"><ele>236.0</ele><time>2026-05-02T10:49:02.651Z</time></trkpt><trkpt lat="40.9627667" lon="9.2044967"><ele>237.0</ele><time>2026-05-02T10:49:03.651Z</time></trkpt><trkpt lat="40.9627333" lon="9.2043283"><ele>238.0</ele><time>2026-05-02T10:49:04.651Z</time></trkpt><trkpt lat="40.962725" lon="9.204165"><ele>239.0</ele><time>2026-05-02T10:49:05.651Z</time></trkpt><trkpt lat="40.9627433" lon="9.2039533"><ele>240.0</ele><time>2026-05-02T10:49:06.651Z</time></trkpt><trkpt lat="40.9627467" lon="9.2037417"><ele>243.25</ele><time>2026-05-02T10:49:07.651Z</time></trkpt><trkpt lat="40.96275" lon="9.203545"><ele>246.5</ele><time>2026-05-02T10:49:08.651Z</time></trkpt><trkpt lat="40.9627483" lon="9.2033417"><ele>249.75</ele><time>2026-05-02T10:49:09.651Z</time></trkpt><trkpt lat="40.9627333" lon="9.2031617"><ele>253.0</ele><time>2026-05-02T10:49:10.651Z</time></trkpt><trkpt lat="40.9627" lon="9.202985"><ele>254.75</ele><time>2026-05-02T10:49:11.651Z</time></trkpt><trkpt lat="40.96266" lon="9.202815"><ele>256.5</ele><time>2026-05-02T10:49:12.651Z</time></trkpt><trkpt lat="40.962615" lon="9.20265"><ele>258.25</ele><time>2026-05-02T10:49:13.652Z</time></trkpt><trkpt lat="40.962555" lon="9.2024967"><ele>260.0</ele><time>2026-05-02T10:49:14.651Z</time></trkpt><trkpt lat="40.96247" lon="9.2023583"><ele>261.0</ele><time>2026-05-02T10:49:15.651Z</time></trkpt><trkpt lat="40.962375" lon="9.2022317"><ele>262.0</ele><time>2026-05-02T10:49:16.651Z</time></trkpt><trkpt lat="40.9623017" lon="9.2021117"><ele>263.0</ele><time>2026-05-02T10:49:17.651Z</time></trkpt><trkpt lat="40.9622267" lon="9.20203"><ele>264.0</ele><time>2026-05-02T10:49:18.651Z</time></trkpt><trkpt lat="40.9621467" lon="9.2019567"><ele>265.0</ele><time>2026-05-02T10:49:19.651Z</time></trkpt><trkpt lat="40.9620617" lon="9.2019017"><ele>265.0</ele><time>2026-05-02T10:49:20.651Z</time></trkpt><trkpt lat="40.9619583" lon="9.2019033"><ele>265.0</ele><time>2026-05-02T10:49:21.652Z</time></trkpt><trkpt lat="40.9618467" lon="9.201905"><ele>265.0</ele><time>2026-05-02T10:49:22.651Z</time></trkpt><trkpt lat="40.9617267" lon="9.2018967"><ele>265.0</ele><time>2026-05-02T10:49:23.651Z</time></trkpt><trkpt lat="40.9616067" lon="9.20197"><ele>264.3333333333333</ele><time>2026-05-02T10:49:24.651Z</time></trkpt><trkpt lat="40.9615167" lon="9.2019783"><ele>263.66666666666663</ele><time>2026-05-02T10:49:25.651Z</time></trkpt><trkpt lat="40.961435" lon="9.2020067"><ele>263.0</ele><time>2026-05-02T10:49:26.651Z</time></trkpt><trkpt lat="40.961385" lon="9.2020617"><ele>262.3333333333333</ele><time>2026-05-02T10:49:27.651Z</time></trkpt><trkpt lat="40.9613517" lon="9.202145"><ele>261.6666666666667</ele><time>2026-05-02T10:49:28.651Z</time></trkpt><trkpt lat="40.9613417" lon="9.2022583"><ele>261.0</ele><time>2026-05-02T10:49:29.652Z</time></trkpt><trkpt lat="40.9613083" lon="9.2023433"><ele>261.0</ele><time>2026-05-02T10:49:30.651Z</time></trkpt><trkpt lat="40.961215" lon="9.2024083"><ele>261.0</ele><time>2026-05-02T10:49:32.651Z</time></trkpt><trkpt lat="40.9611517" lon="9.2023967"><ele>261.0</ele><time>2026-05-02T10:49:33.651Z</time></trkpt><trkpt lat="40.9610717" lon="9.2023433"><ele>261.0</ele><time>2026-05-02T10:49:34.651Z</time></trkpt><trkpt lat="40.9609717" lon="9.2022633"><ele>261.0</ele><time>2026-05-02T10:49:35.651Z</time></trkpt><trkpt lat="40.9608617" lon="9.2021917"><ele>264.0</ele><time>2026-05-02T10:49:36.651Z</time></trkpt><trkpt lat="40.96074" lon="9.20215"><ele>267.0</ele><time>2026-05-02T10:49:37.651Z</time></trkpt><trkpt lat="40.9606083" lon="9.2021317"><ele>270.0</ele><time>2026-05-02T10:49:38.651Z</time></trkpt><trkpt lat="40.9604783" lon="9.2021367"><ele>273.0</ele><time>2026-05-02T10:49:39.651Z</time></trkpt><trkpt lat="40.960355" lon="9.2021417"><ele>273.0</ele><time>2026-05-02T10:49:40.651Z</time></trkpt><trkpt lat="40.9602283" lon="9.202175"><ele>273.0</ele><time>2026-05-02T10:49:41.651Z</time></trkpt><trkpt lat="40.9600983" lon="9.2022167"><ele>273.0</ele><time>2026-05-02T10:49:42.651Z</time></trkpt><trkpt lat="40.9599717" lon="9.2022567"><ele>273.0</ele><time>2026-05-02T10:49:43.651Z</time></trkpt><trkpt lat="40.9598467" lon="9.2022933"><ele>275.25</ele><time>2026-05-02T10:49:44.651Z</time></trkpt><trkpt lat="40.959715" lon="9.202325"><ele>277.5</ele><time>2026-05-02T10:49:45.651Z</time></trkpt><trkpt lat="40.959585" lon="9.2023483"><ele>279.75</ele><time>2026-05-02T10:49:46.651Z</time></trkpt><trkpt lat="40.9594633" lon="9.202355"><ele>282.0</ele><time>2026-05-02T10:49:47.651Z</time></trkpt><trkpt lat="40.9593433" lon="9.2023433"><ele>282.0</ele><time>2026-05-02T10:49:48.651Z</time></trkpt><trkpt lat="40.9592167" lon="9.2023217"><ele>282.0</ele><time>2026-05-02T10:49:49.651Z</time></trkpt><trkpt lat="40.9590833" lon="9.2023033"><ele>282.0</ele><time>2026-05-02T10:49:50.651Z</time></trkpt><trkpt lat="40.9589667" lon="9.2023183"><ele>282.0</ele><time>2026-05-02T10:49:51.651Z</time></trkpt><trkpt lat="40.9588417" lon="9.202345"><ele>288.0</ele><time>2026-05-02T10:49:52.651Z</time></trkpt><trkpt lat="40.958715" lon="9.2023983"><ele>294.0</ele><time>2026-05-02T10:49:53.651Z</time></trkpt><trkpt lat="40.9585717" lon="9.20243"><ele>300.0</ele><time>2026-05-02T10:49:54.651Z</time></trkpt><trkpt lat="40.9584417" lon="9.2024983"><ele>306.0</ele><time>2026-05-02T10:49:55.651Z</time></trkpt><trkpt lat="40.9583233" lon="9.202525"><ele>307.0</ele><time>2026-05-02T10:49:56.651Z</time></trkpt><trkpt lat="40.9581967" lon="9.2025417"><ele>308.0</ele><time>2026-05-02T10:49:57.651Z</time></trkpt><trkpt lat="40.9580683" lon="9.2025467"><ele>309.0</ele><time>2026-05-02T10:49:58.651Z</time></trkpt><trkpt lat="40.95794" lon="9.2025367"><ele>310.0</ele><time>2026-05-02T10:49:59.652Z</time></trkpt><trkpt lat="40.9578017" lon="9.202485"><ele>310.0</ele><time>2026-05-02T10:50:00.651Z</time></trkpt><trkpt lat="40.957655" lon="9.20244"><ele>310.0</ele><time>2026-05-02T10:50:01.652Z</time></trkpt><trkpt lat="40.9575083" lon="9.2023783"><ele>310.0</ele><time>2026-05-02T10:50:02.651Z</time></trkpt><trkpt lat="40.9573733" lon="9.2023133"><ele>310.0</ele><time>2026-05-02T10:50:03.651Z</time></trkpt><trkpt lat="40.957245" lon="9.2022517"><ele>312.0</ele><time>2026-05-02T10:50:04.652Z</time></trkpt><trkpt lat="40.9571267" lon="9.20217"><ele>314.0</ele><time>2026-05-02T10:50:05.651Z</time></trkpt><trkpt lat="40.9569983" lon="9.202085"><ele>316.0</ele><time>2026-05-02T10:50:06.651Z</time></trkpt><trkpt lat="40.9568717" lon="9.2020283"><ele>318.0</ele><time>2026-05-02T10:50:07.652Z</time></trkpt><trkpt lat="40.956755" lon="9.201965"><ele>321.25</ele><time>2026-05-02T10:50:08.651Z</time></trkpt><trkpt lat="40.9566367" lon="9.2019067"><ele>324.5</ele><time>2026-05-02T10:50:09.651Z</time></trkpt><trkpt lat="40.9565283" lon="9.201835"><ele>327.75</ele><time>2026-05-02T10:50:10.651Z</time></trkpt><trkpt lat="40.95642" lon="9.2017967"><ele>331.0</ele><time>2026-05-02T10:50:11.651Z</time></trkpt><trkpt lat="40.9563" lon="9.20173"><ele>331.0</ele><time>2026-05-02T10:50:12.651Z</time></trkpt><trkpt lat="40.9561567" lon="9.2016667"><ele>331.0</ele><time>2026-05-02T10:50:13.651Z</time></trkpt><trkpt lat="40.9559933" lon="9.2016283"><ele>331.0</ele><time>2026-05-02T10:50:14.651Z</time></trkpt><trkpt lat="40.9558333" lon="9.2015917"><ele>332.66666666666663</ele><time>2026-05-02T10:50:15.651Z</time></trkpt><trkpt lat="40.9556783" lon="9.2015433"><ele>334.3333333333333</ele><time>2026-05-02T10:50:16.651Z</time></trkpt><trkpt lat="40.9555233" lon="9.201485"><ele>336.0</ele><time>2026-05-02T10:50:17.651Z</time></trkpt><trkpt lat="40.9553833" lon="9.2014317"><ele>334.25</ele><time>2026-05-02T10:50:18.651Z</time></trkpt><trkpt lat="40.955255" lon="9.2014"><ele>332.5</ele><time>2026-05-02T10:50:19.651Z</time></trkpt><trkpt lat="40.9551233" lon="9.2013633"><ele>330.75</ele><time>2026-05-02T10:50:20.651Z</time></trkpt><trkpt lat="40.9549933" lon="9.20132"><ele>329.0</ele><time>2026-05-02T10:50:21.651Z</time></trkpt><trkpt lat="40.9548617" lon="9.2012667"><ele>329.0</ele><time>2026-05-02T10:50:22.652Z</time></trkpt><trkpt lat="40.9547433" lon="9.201185"><ele>329.0</ele><time>2026-05-02T10:50:23.651Z</time></trkpt><trkpt lat="40.9546283" lon="9.2010683"><ele>329.0</ele><time>2026-05-02T10:50:24.651Z</time></trkpt><trkpt lat="40.95452" lon="9.2009333"><ele>329.0</ele><time>2026-05-02T10:50:25.651Z</time></trkpt><trkpt lat="40.9544083" lon="9.200795"><ele>330.6666666666667</ele><time>2026-05-02T10:50:26.651Z</time></trkpt><trkpt lat="40.9542867" lon="9.2006483"><ele>332.3333333333333</ele><time>2026-05-02T10:50:27.651Z</time></trkpt><trkpt lat="40.9541717" lon="9.2005267"><ele>334.0</ele><time>2026-05-02T10:50:28.651Z</time></trkpt><trkpt lat="40.95405" lon="9.20039"><ele>334.0</ele><time>2026-05-02T10:50:29.651Z</time></trkpt><trkpt lat="40.9539233" lon="9.2002433"><ele>334.0</ele><time>2026-05-02T10:50:30.651Z</time></trkpt><trkpt lat="40.9537967" lon="9.2000967"><ele>334.0</ele><time>2026-05-02T10:50:31.652Z</time></trkpt><trkpt lat="40.9536767" lon="9.1999867"><ele>334.0</ele><time>2026-05-02T10:50:32.651Z</time></trkpt><trkpt lat="40.953555" lon="9.1999017"><ele>334.0</ele><time>2026-05-02T10:50:33.651Z</time></trkpt><trkpt lat="40.9534233" lon="9.1998283"><ele>334.0</ele><time>2026-05-02T10:50:34.651Z</time></trkpt><trkpt lat="40.9532933" lon="9.1997533"><ele>334.0</ele><time>2026-05-02T10:50:35.651Z</time></trkpt><trkpt lat="40.95316" lon="9.199665"><ele>336.2</ele><time>2026-05-02T10:50:36.651Z</time></trkpt><trkpt lat="40.9530417" lon="9.19961"><ele>338.4</ele><time>2026-05-02T10:50:37.651Z</time></trkpt><trkpt lat="40.9529383" lon="9.1995883"><ele>340.6</ele><time>2026-05-02T10:50:38.651Z</time></trkpt><trkpt lat="40.9528483" lon="9.1996417"><ele>342.8</ele><time>2026-05-02T10:50:39.651Z</time></trkpt><trkpt lat="40.9527683" lon="9.1996817"><ele>345.0</ele><time>2026-05-02T10:50:40.651Z</time></trkpt><trkpt lat="40.9526917" lon="9.199725"><ele>345.0</ele><time>2026-05-02T10:50:41.651Z</time></trkpt><trkpt lat="40.9526083" lon="9.19976"><ele>345.0</ele><time>2026-05-02T10:50:42.651Z</time></trkpt><trkpt lat="40.9525267" lon="9.19977"><ele>345.0</ele><time>2026-05-02T10:50:43.651Z</time></trkpt><trkpt lat="40.9524533" lon="9.1997567"><ele>345.0</ele><time>2026-05-02T10:50:44.651Z</time></trkpt><trkpt lat="40.9523883" lon="9.1997117"><ele>345.0</ele><time>2026-05-02T10:50:45.651Z</time></trkpt><trkpt lat="40.95232" lon="9.1996317"><ele>345.0</ele><time>2026-05-02T10:50:46.651Z</time></trkpt><trkpt lat="40.9522617" lon="9.1995417"><ele>348.0</ele><time>2026-05-02T10:50:47.651Z</time></trkpt><trkpt lat="40.952205" lon="9.1994467"><ele>351.0</ele><time>2026-05-02T10:50:48.651Z</time></trkpt><trkpt lat="40.9521683" lon="9.1992767"><ele>354.0</ele><time>2026-05-02T10:50:49.652Z</time></trkpt><trkpt lat="40.95214" lon="9.1990983"><ele>357.0</ele><time>2026-05-02T10:50:50.651Z</time></trkpt><trkpt lat="40.952155" lon="9.1989217"><ele>358.25</ele><time>2026-05-02T10:50:51.651Z</time></trkpt><trkpt lat="40.9521833" lon="9.1987517"><ele>359.5</ele><time>2026-05-02T10:50:52.651Z</time></trkpt><trkpt lat="40.9522133" lon="9.19856"><ele>360.75</ele><time>2026-05-02T10:50:53.651Z</time></trkpt><trkpt lat="40.9522217" lon="9.1983917"><ele>362.0</ele><time>2026-05-02T10:50:54.651Z</time></trkpt><trkpt lat="40.9522133" lon="9.1982033"><ele>363.0</ele><time>2026-05-02T10:50:55.651Z</time></trkpt><trkpt lat="40.9522" lon="9.1979883"><ele>364.0</ele><time>2026-05-02T10:50:56.651Z</time></trkpt><trkpt lat="40.9521767" lon="9.197765"><ele>365.0</ele><time>2026-05-02T10:50:57.651Z</time></trkpt><trkpt lat="40.9521483" lon="9.1975767"><ele>365.0</ele><time>2026-05-02T10:50:58.651Z</time></trkpt><trkpt lat="40.9521367" lon="9.1974067"><ele>365.0</ele><time>2026-05-02T10:50:59.651Z</time></trkpt><trkpt lat="40.9521317" lon="9.1972483"><ele>365.0</ele><time>2026-05-02T10:51:00.651Z</time></trkpt><trkpt lat="40.9521167" lon="9.197115"><ele>365.0</ele><time>2026-05-02T10:51:01.651Z</time></trkpt><trkpt lat="40.95209" lon="9.1970217"><ele>365.0</ele><time>2026-05-02T10:51:02.651Z</time></trkpt><trkpt lat="40.9520533" lon="9.1969517"><ele>366.0</ele><time>2026-05-02T10:51:03.651Z</time></trkpt><trkpt lat="40.9519967" lon="9.196915"><ele>367.0</ele><time>2026-05-02T10:51:04.651Z</time></trkpt><trkpt lat="40.9519233" lon="9.19689"><ele>368.0</ele><time>2026-05-02T10:51:05.651Z</time></trkpt><trkpt lat="40.9518167" lon="9.1968683"><ele>369.0</ele><time>2026-05-02T10:51:06.651Z</time></trkpt><trkpt lat="40.9517117" lon="9.19685"><ele>370.0</ele><time>2026-05-02T10:51:07.652Z</time></trkpt><trkpt lat="40.9516133" lon="9.196815"><ele>370.2</ele><time>2026-05-02T10:51:08.651Z</time></trkpt><trkpt lat="40.95153" lon="9.196755"><ele>370.4</ele><time>2026-05-02T10:51:09.651Z</time></trkpt><trkpt lat="40.951465" lon="9.1966733"><ele>370.6</ele><time>2026-05-02T10:51:10.651Z</time></trkpt><trkpt lat="40.9514017" lon="9.1965867"><ele>370.8</ele><time>2026-05-02T10:51:11.651Z</time></trkpt><trkpt lat="40.9513283" lon="9.1965033"><ele>371.0</ele><time>2026-05-02T10:51:12.651Z</time></trkpt><trkpt lat="40.951235" lon="9.1964267"><ele>371.0</ele><time>2026-05-02T10:51:13.651Z</time></trkpt><trkpt lat="40.9511283" lon="9.196355"><ele>371.0</ele><time>2026-05-02T10:51:14.651Z</time></trkpt><trkpt lat="40.951035" lon="9.1962817"><ele>371.0</ele><time>2026-05-02T10:51:15.651Z</time></trkpt><trkpt lat="40.9509583" lon="9.1961917"><ele>371.0</ele><time>2026-05-02T10:51:16.651Z</time></trkpt><trkpt lat="40.950895" lon="9.19609"><ele>371.0</ele><time>2026-05-02T10:51:17.651Z</time></trkpt><trkpt lat="40.9508333" lon="9.1959733"><ele>373.0</ele><time>2026-05-02T10:51:18.651Z</time></trkpt><trkpt lat="40.9507733" lon="9.1958467"><ele>375.0</ele><time>2026-05-02T10:51:19.651Z</time></trkpt><trkpt lat="40.9507333" lon="9.1956867"><ele>377.0</ele><time>2026-05-02T10:51:20.651Z</time></trkpt><trkpt lat="40.9507233" lon="9.19552"><ele>379.0</ele><time>2026-05-02T10:51:21.651Z</time></trkpt><trkpt lat="40.9507383" lon="9.1953733"><ele>381.0</ele><time>2026-05-02T10:51:22.651Z</time></trkpt><trkpt lat="40.9507483" lon="9.1952233"><ele>383.0</ele><time>2026-05-02T10:51:23.651Z</time></trkpt><trkpt lat="40.9507433" lon="9.195065"><ele>385.0</ele><time>2026-05-02T10:51:24.651Z</time></trkpt><trkpt lat="40.95073" lon="9.1949283"><ele>387.0</ele><time>2026-05-02T10:51:25.651Z</time></trkpt><trkpt lat="40.9507083" lon="9.1948133"><ele>389.0</ele><time>2026-05-02T10:51:26.651Z</time></trkpt><trkpt lat="40.9506767" lon="9.19473"><ele>388.99999999999994</ele><time>2026-05-02T10:51:27.651Z</time></trkpt><trkpt lat="40.9505783" lon="9.1946433"><ele>389.0</ele><time>2026-05-02T10:51:29.651Z</time></trkpt><trkpt lat="40.950515" lon="9.1946267"><ele>389.0</ele><time>2026-05-02T10:51:30.651Z</time></trkpt><trkpt lat="40.9504367" lon="9.1946117"><ele>389.0</ele><time>2026-05-02T10:51:31.651Z</time></trkpt><trkpt lat="40.9503533" lon="9.1945633"><ele>388.99999999999994</ele><time>2026-05-02T10:51:32.651Z</time></trkpt><trkpt lat="40.9502683" lon="9.19451"><ele>389.0</ele><time>2026-05-02T10:51:33.651Z</time></trkpt><trkpt lat="40.950175" lon="9.1944267"><ele>389.0</ele><time>2026-05-02T10:51:34.651Z</time></trkpt><trkpt lat="40.950085" lon="9.19434"><ele>389.0</ele><time>2026-05-02T10:51:35.651Z</time></trkpt><trkpt lat="40.9500017" lon="9.19424"><ele>389.0</ele><time>2026-05-02T10:51:36.651Z</time></trkpt><trkpt lat="40.949915" lon="9.1941233"><ele>389.0</ele><time>2026-05-02T10:51:37.651Z</time></trkpt><trkpt lat="40.9498117" lon="9.1940167"><ele>391.0</ele><time>2026-05-02T10:51:38.651Z</time></trkpt><trkpt lat="40.9497067" lon="9.1939083"><ele>393.0</ele><time>2026-05-02T10:51:39.651Z</time></trkpt><trkpt lat="40.94961" lon="9.1937967"><ele>395.0</ele><time>2026-05-02T10:51:40.651Z</time></trkpt><trkpt lat="40.9495117" lon="9.1936733"><ele>397.0</ele><time>2026-05-02T10:51:41.651Z</time></trkpt><trkpt lat="40.9494217" lon="9.1935467"><ele>397.0</ele><time>2026-05-02T10:51:42.651Z</time></trkpt><trkpt lat="40.9493433" lon="9.1934167"><ele>397.0</ele><time>2026-05-02T10:51:43.651Z</time></trkpt><trkpt lat="40.9492633" lon="9.1932767"><ele>397.0</ele><time>2026-05-02T10:51:44.651Z</time></trkpt><trkpt lat="40.94917" lon="9.1931367"><ele>397.0</ele><time>2026-05-02T10:51:45.651Z</time></trkpt><trkpt lat="40.9490683" lon="9.192995"><ele>397.75</ele><time>2026-05-02T10:51:46.651Z</time></trkpt><trkpt lat="40.9489917" lon="9.1928633"><ele>398.5</ele><time>2026-05-02T10:51:47.651Z</time></trkpt><trkpt lat="40.94893" lon="9.1927267"><ele>399.25</ele><time>2026-05-02T10:51:48.651Z</time></trkpt><trkpt lat="40.94888" lon="9.192625"><ele>400.0</ele><time>2026-05-02T10:51:49.651Z</time></trkpt><trkpt lat="40.948775" lon="9.1925233"><ele>400.0</ele><time>2026-05-02T10:51:51.651Z</time></trkpt><trkpt lat="40.948675" lon="9.1924917"><ele>400.0</ele><time>2026-05-02T10:51:52.651Z</time></trkpt><trkpt lat="40.94855" lon="9.19245"><ele>400.0</ele><time>2026-05-02T10:51:53.651Z</time></trkpt><trkpt lat="40.94843" lon="9.192395"><ele>400.0</ele><time>2026-05-02T10:51:54.651Z</time></trkpt><trkpt lat="40.9482933" lon="9.1923167"><ele>400.25</ele><time>2026-05-02T10:51:55.651Z</time></trkpt><trkpt lat="40.948165" lon="9.1922233"><ele>400.5</ele><time>2026-05-02T10:51:56.651Z</time></trkpt><trkpt lat="40.9480517" lon="9.1921267"><ele>400.75</ele><time>2026-05-02T10:51:57.651Z</time></trkpt><trkpt lat="40.9479567" lon="9.1920267"><ele>401.0</ele><time>2026-05-02T10:51:58.651Z</time></trkpt><trkpt lat="40.9478667" lon="9.1919117"><ele>401.0</ele><time>2026-05-02T10:51:59.651Z</time></trkpt><trkpt lat="40.94777" lon="9.1917883"><ele>401.0</ele><time>2026-05-02T10:52:00.651Z</time></trkpt><trkpt lat="40.94767" lon="9.1916617"><ele>401.0</ele><time>2026-05-02T10:52:01.652Z</time></trkpt><trkpt lat="40.9475483" lon="9.191535"><ele>401.0</ele><time>2026-05-02T10:52:02.652Z</time></trkpt><trkpt lat="40.947415" lon="9.191425"><ele>402.0</ele><time>2026-05-02T10:52:03.652Z</time></trkpt><trkpt lat="40.9472817" lon="9.1913217"><ele>403.0</ele><time>2026-05-02T10:52:04.651Z</time></trkpt><trkpt lat="40.9471467" lon="9.191195"><ele>404.0</ele><time>2026-05-02T10:52:05.651Z</time></trkpt><trkpt lat="40.9470267" lon="9.1910983"><ele>404.0</ele><time>2026-05-02T10:52:06.651Z</time></trkpt><trkpt lat="40.94691" lon="9.191005"><ele>404.0</ele><time>2026-05-02T10:52:07.651Z</time></trkpt><trkpt lat="40.9468117" lon="9.1909567"><ele>404.0</ele><time>2026-05-02T10:52:08.651Z</time></trkpt><trkpt lat="40.9467" lon="9.1909083"><ele>404.0</ele><time>2026-05-02T10:52:09.651Z</time></trkpt><trkpt lat="40.94659" lon="9.1908483"><ele>404.25</ele><time>2026-05-02T10:52:10.651Z</time></trkpt><trkpt lat="40.94649" lon="9.1907767"><ele>404.5</ele><time>2026-05-02T10:52:11.651Z</time></trkpt><trkpt lat="40.9463983" lon="9.1906833"><ele>404.75</ele><time>2026-05-02T10:52:12.651Z</time></trkpt><trkpt lat="40.9463083" lon="9.1905467"><ele>405.0</ele><time>2026-05-02T10:52:13.651Z</time></trkpt><trkpt lat="40.9462233" lon="9.1904067"><ele>405.0</ele><time>2026-05-02T10:52:14.651Z</time></trkpt><trkpt lat="40.9461417" lon="9.190275"><ele>405.0</ele><time>2026-05-02T10:52:15.651Z</time></trkpt><trkpt lat="40.94609" lon="9.1901467"><ele>405.0</ele><time>2026-05-02T10:52:16.651Z</time></trkpt><trkpt lat="40.9460333" lon="9.190025"><ele>405.0</ele><time>2026-05-02T10:52:17.651Z</time></trkpt><trkpt lat="40.9459733" lon="9.1899367"><ele>405.0</ele><time>2026-05-02T10:52:18.651Z</time></trkpt><trkpt lat="40.945905" lon="9.1898883"><ele>406.2</ele><time>2026-05-02T10:52:19.651Z</time></trkpt><trkpt lat="40.945825" lon="9.1898617"><ele>407.4</ele><time>2026-05-02T10:52:20.651Z</time></trkpt><trkpt lat="40.94573" lon="9.1898617"><ele>408.6</ele><time>2026-05-02T10:52:21.651Z</time></trkpt><trkpt lat="40.9456183" lon="9.1898667"><ele>409.8</ele><time>2026-05-02T10:52:22.651Z</time></trkpt><trkpt lat="40.945485" lon="9.1898867"><ele>411.0</ele><time>2026-05-02T10:52:23.651Z</time></trkpt><trkpt lat="40.9453633" lon="9.1899383"><ele>411.0</ele><time>2026-05-02T10:52:24.651Z</time></trkpt><trkpt lat="40.945245" lon="9.1899517"><ele>411.0</ele><time>2026-05-02T10:52:25.651Z</time></trkpt><trkpt lat="40.9451267" lon="9.1899383"><ele>411.0</ele><time>2026-05-02T10:52:26.651Z</time></trkpt><trkpt lat="40.94502" lon="9.1898933"><ele>411.0</ele><time>2026-05-02T10:52:27.651Z</time></trkpt><trkpt lat="40.9449467" lon="9.1898283"><ele>411.0</ele><time>2026-05-02T10:52:28.651Z</time></trkpt><trkpt lat="40.944895" lon="9.1897533"><ele>413.20000000000005</ele><time>2026-05-02T10:52:29.651Z</time></trkpt><trkpt lat="40.9448633" lon="9.1896717"><ele>415.40000000000003</ele><time>2026-05-02T10:52:30.651Z</time></trkpt><trkpt lat="40.9448483" lon="9.189575"><ele>417.6</ele><time>2026-05-02T10:52:31.651Z</time></trkpt><trkpt lat="40.944855" lon="9.189445"><ele>419.8</ele><time>2026-05-02T10:52:32.651Z</time></trkpt><trkpt lat="40.94487" lon="9.1893033"><ele>422.0</ele><time>2026-05-02T10:52:33.651Z</time></trkpt><trkpt lat="40.9448717" lon="9.1891667"><ele>422.0</ele><time>2026-05-02T10:52:34.651Z</time></trkpt><trkpt lat="40.9448583" lon="9.1890433"><ele>422.0</ele><time>2026-05-02T10:52:35.651Z</time></trkpt><trkpt lat="40.94483" lon="9.1889333"><ele>422.0</ele><time>2026-05-02T10:52:36.651Z</time></trkpt><trkpt lat="40.9447783" lon="9.1888433"><ele>422.0</ele><time>2026-05-02T10:52:37.651Z</time></trkpt><trkpt lat="40.9447" lon="9.1887717"><ele>422.0</ele><time>2026-05-02T10:52:38.651Z</time></trkpt><trkpt lat="40.944585" lon="9.1887133"><ele>422.75</ele><time>2026-05-02T10:52:39.651Z</time></trkpt><trkpt lat="40.944455" lon="9.1886483"><ele>423.5</ele><time>2026-05-02T10:52:40.651Z</time></trkpt><trkpt lat="40.9443433" lon="9.1885767"><ele>424.25</ele><time>2026-05-02T10:52:41.652Z</time></trkpt><trkpt lat="40.9442317" lon="9.18848"><ele>425.0</ele><time>2026-05-02T10:52:42.651Z</time></trkpt><trkpt lat="40.9441183" lon="9.1883767"><ele>426.0</ele><time>2026-05-02T10:52:43.651Z</time></trkpt><trkpt lat="40.9439983" lon="9.1882733"><ele>427.0</ele><time>2026-05-02T10:52:44.65Z</time></trkpt><trkpt lat="40.9438783" lon="9.1881683"><ele>428.0</ele><time>2026-05-02T10:52:45.65Z</time></trkpt><trkpt lat="40.9437667" lon="9.1880567"><ele>429.0</ele><time>2026-05-02T10:52:46.65Z</time></trkpt><trkpt lat="40.943665" lon="9.18795"><ele>429.0</ele><time>2026-05-02T10:52:47.65Z</time></trkpt><trkpt lat="40.9435683" lon="9.1878583"><ele>429.0</ele><time>2026-05-02T10:52:48.65Z</time></trkpt><trkpt lat="40.9434667" lon="9.18778"><ele>429.0</ele><time>2026-05-02T10:52:49.65Z</time></trkpt><trkpt lat="40.9433533" lon="9.1877417"><ele>429.0</ele><time>2026-05-02T10:52:50.65Z</time></trkpt><trkpt lat="40.9432317" lon="9.1876967"><ele>431.0</ele><time>2026-05-02T10:52:51.65Z</time></trkpt><trkpt lat="40.943115" lon="9.1876617"><ele>433.0</ele><time>2026-05-02T10:52:52.65Z</time></trkpt><trkpt lat="40.9430083" lon="9.1876017"><ele>435.0</ele><time>2026-05-02T10:52:53.65Z</time></trkpt><trkpt lat="40.9428967" lon="9.1875633"><ele>437.0</ele><time>2026-05-02T10:52:54.65Z</time></trkpt><trkpt lat="40.9427733" lon="9.1875467"><ele>437.0</ele><time>2026-05-02T10:52:55.65Z</time></trkpt><trkpt lat="40.942665" lon="9.1875667"><ele>437.00000000000006</ele><time>2026-05-02T10:52:56.65Z</time></trkpt><trkpt lat="40.9425767" lon="9.1875917"><ele>437.00000000000006</ele><time>2026-05-02T10:52:57.65Z</time></trkpt><trkpt lat="40.9424967" lon="9.1876133"><ele>437.0</ele><time>2026-05-02T10:52:58.65Z</time></trkpt><trkpt lat="40.9424267" lon="9.18763"><ele>437.0</ele><time>2026-05-02T10:52:59.65Z</time></trkpt><trkpt lat="40.9423167" lon="9.1876267"><ele>438.66666666666663</ele><time>2026-05-02T10:53:01.65Z</time></trkpt><trkpt lat="40.9422217" lon="9.1875967"><ele>440.3333333333333</ele><time>2026-05-02T10:53:03.65Z</time></trkpt><trkpt lat="40.9421167" lon="9.1875767"><ele>442.0</ele><time>2026-05-02T10:53:05.65Z</time></trkpt><trkpt lat="40.9420533" lon="9.1875933"><ele>443.66666666666663</ele><time>2026-05-02T10:53:09.65Z</time></trkpt><trkpt lat="40.941995" lon="9.18764"><ele>445.3333333333333</ele><time>2026-05-02T10:53:13.65Z</time></trkpt><trkpt lat="40.9419333" lon="9.1876617"><ele>447.0</ele><time>2026-05-02T10:53:14.65Z</time></trkpt><trkpt lat="40.9418183" lon="9.187675"><ele>447.0</ele><time>2026-05-02T10:53:16.65Z</time></trkpt><trkpt lat="40.94174" lon="9.1876567"><ele>447.00000000000006</ele><time>2026-05-02T10:53:18.65Z</time></trkpt><trkpt lat="40.9416267" lon="9.18758"><ele>447.00000000000006</ele><time>2026-05-02T10:53:29.65Z</time></trkpt><trkpt lat="40.9415167" lon="9.1875133"><ele>447.0</ele><time>2026-05-02T10:53:31.65Z</time></trkpt><trkpt lat="40.9414333" lon="9.1874667"><ele>447.0</ele><time>2026-05-02T10:53:32.65Z</time></trkpt><trkpt lat="40.9413367" lon="9.1874333"><ele>447.20000000000005</ele><time>2026-05-02T10:53:33.65Z</time></trkpt><trkpt lat="40.94123" lon="9.1873867"><ele>447.40000000000003</ele><time>2026-05-02T10:53:34.65Z</time></trkpt><trkpt lat="40.941135" lon="9.1873367"><ele>447.59999999999997</ele><time>2026-05-02T10:53:35.65Z</time></trkpt><trkpt lat="40.9410433" lon="9.1872717"><ele>447.79999999999995</ele><time>2026-05-02T10:53:36.65Z</time></trkpt><trkpt lat="40.9409583" lon="9.1871917"><ele>448.0</ele><time>2026-05-02T10:53:37.65Z</time></trkpt><trkpt lat="40.940875" lon="9.1871"><ele>447.59999999999997</ele><time>2026-05-02T10:53:38.65Z</time></trkpt><trkpt lat="40.9408" lon="9.1870067"><ele>447.19999999999993</ele><time>2026-05-02T10:53:39.65Z</time></trkpt><trkpt lat="40.9407133" lon="9.1869083"><ele>446.8</ele><time>2026-05-02T10:53:40.65Z</time></trkpt><trkpt lat="40.94061" lon="9.1868367"><ele>446.4</ele><time>2026-05-02T10:53:41.65Z</time></trkpt><trkpt lat="40.9405017" lon="9.186785"><ele>446.0</ele><time>2026-05-02T10:53:42.65Z</time></trkpt><trkpt lat="40.9403983" lon="9.1867367"><ele>446.0</ele><time>2026-05-02T10:53:43.65Z</time></trkpt><trkpt lat="40.9402767" lon="9.1867367"><ele>446.0</ele><time>2026-05-02T10:53:44.65Z</time></trkpt><trkpt lat="40.9401433" lon="9.1867267"><ele>446.0</ele><time>2026-05-02T10:53:45.65Z</time></trkpt><trkpt lat="40.940005" lon="9.1866867"><ele>446.0</ele><time>2026-05-02T10:53:46.65Z</time></trkpt><trkpt lat="40.9398667" lon="9.18665"><ele>445.0</ele><time>2026-05-02T10:53:47.65Z</time></trkpt><trkpt lat="40.9397317" lon="9.1866133"><ele>444.0</ele><time>2026-05-02T10:53:48.65Z</time></trkpt><trkpt lat="40.939605" lon="9.18659"><ele>443.0</ele><time>2026-05-02T10:53:49.65Z</time></trkpt><trkpt lat="40.9394733" lon="9.1865667"><ele>442.0</ele><time>2026-05-02T10:53:50.65Z</time></trkpt><trkpt lat="40.9393567" lon="9.1865617"><ele>442.0</ele><time>2026-05-02T10:53:51.65Z</time></trkpt><trkpt lat="40.9392333" lon="9.1865717"><ele>442.0</ele><time>2026-05-02T10:53:52.65Z</time></trkpt><trkpt lat="40.9391133" lon="9.1866067"><ele>442.0</ele><time>2026-05-02T10:53:53.65Z</time></trkpt><trkpt lat="40.9390017" lon="9.1866433"><ele>442.0</ele><time>2026-05-02T10:53:54.65Z</time></trkpt><trkpt lat="40.9388967" lon="9.1866767"><ele>442.40000000000003</ele><time>2026-05-02T10:53:55.65Z</time></trkpt><trkpt lat="40.9387967" lon="9.18671"><ele>442.80000000000007</ele><time>2026-05-02T10:53:56.65Z</time></trkpt><trkpt lat="40.9387033" lon="9.186735"><ele>443.2</ele><time>2026-05-02T10:53:57.65Z</time></trkpt><trkpt lat="40.938615" lon="9.1867917"><ele>443.6</ele><time>2026-05-02T10:53:58.65Z</time></trkpt><trkpt lat="40.9385483" lon="9.1868867"><ele>444.0</ele><time>2026-05-02T10:53:59.65Z</time></trkpt><trkpt lat="40.9384767" lon="9.1869733"><ele>444.0</ele><time>2026-05-02T10:54:00.65Z</time></trkpt><trkpt lat="40.9384033" lon="9.1870333"><ele>444.0</ele><time>2026-05-02T10:54:01.65Z</time></trkpt><trkpt lat="40.9383217" lon="9.18706"><ele>444.0</ele><time>2026-05-02T10:54:02.65Z</time></trkpt><trkpt lat="40.9382367" lon="9.1870583"><ele>444.0</ele><time>2026-05-02T10:54:03.65Z</time></trkpt><trkpt lat="40.93815" lon="9.1870133"><ele>444.0</ele><time>2026-05-02T10:54:04.65Z</time></trkpt><trkpt lat="40.9380633" lon="9.1869433"><ele>443.5</ele><time>2026-05-02T10:54:05.65Z</time></trkpt><trkpt lat="40.9379733" lon="9.1868333"><ele>443.0</ele><time>2026-05-02T10:54:06.65Z</time></trkpt><trkpt lat="40.9378783" lon="9.1867"><ele>442.5</ele><time>2026-05-02T10:54:07.65Z</time></trkpt><trkpt lat="40.9377767" lon="9.1865833"><ele>442.0</ele><time>2026-05-02T10:54:08.65Z</time></trkpt><trkpt lat="40.9376783" lon="9.186475"><ele>441.8</ele><time>2026-05-02T10:54:09.65Z</time></trkpt><trkpt lat="40.9375817" lon="9.1863883"><ele>441.6</ele><time>2026-05-02T10:54:10.65Z</time></trkpt><trkpt lat="40.9374933" lon="9.1863067"><ele>441.40000000000003</ele><time>2026-05-02T10:54:11.65Z</time></trkpt><trkpt lat="40.9374017" lon="9.18624"><ele>441.20000000000005</ele><time>2026-05-02T10:54:12.65Z</time></trkpt><trkpt lat="40.937305" lon="9.1861933"><ele>441.0</ele><time>2026-05-02T10:54:13.65Z</time></trkpt><trkpt lat="40.9372017" lon="9.1861533"><ele>440.6</ele><time>2026-05-02T10:54:14.65Z</time></trkpt><trkpt lat="40.9371" lon="9.1861117"><ele>440.20000000000005</ele><time>2026-05-02T10:54:15.65Z</time></trkpt><trkpt lat="40.93699" lon="9.18607"><ele>439.79999999999995</ele><time>2026-05-02T10:54:16.65Z</time></trkpt><trkpt lat="40.9368833" lon="9.1860467"><ele>439.4</ele><time>2026-05-02T10:54:17.65Z</time></trkpt><trkpt lat="40.93679" lon="9.1860167"><ele>439.0</ele><time>2026-05-02T10:54:18.65Z</time></trkpt><trkpt lat="40.9367017" lon="9.1859817"><ele>438.2</ele><time>2026-05-02T10:54:19.65Z</time></trkpt><trkpt lat="40.936615" lon="9.1859267"><ele>437.4</ele><time>2026-05-02T10:54:20.65Z</time></trkpt><trkpt lat="40.9365317" lon="9.1858383"><ele>436.6</ele><time>2026-05-02T10:54:21.65Z</time></trkpt><trkpt lat="40.9364633" lon="9.1857167"><ele>435.8</ele><time>2026-05-02T10:54:22.65Z</time></trkpt><trkpt lat="40.93639" lon="9.1855883"><ele>435.0</ele><time>2026-05-02T10:54:23.65Z</time></trkpt><trkpt lat="40.93631" lon="9.185455"><ele>437.0</ele><time>2026-05-02T10:54:24.65Z</time></trkpt><trkpt lat="40.9362183" lon="9.1853517"><ele>439.0</ele><time>2026-05-02T10:54:25.65Z</time></trkpt><trkpt lat="40.9361233" lon="9.185245"><ele>441.0</ele><time>2026-05-02T10:54:26.65Z</time></trkpt><trkpt lat="40.9360417" lon="9.1851517"><ele>443.0</ele><time>2026-05-02T10:54:27.65Z</time></trkpt><trkpt lat="40.935955" lon="9.18505"><ele>443.25</ele><time>2026-05-02T10:54:28.65Z</time></trkpt><trkpt lat="40.9358783" lon="9.184945"><ele>443.5</ele><time>2026-05-02T10:54:29.65Z</time></trkpt><trkpt lat="40.9358083" lon="9.1848"><ele>443.75</ele><time>2026-05-02T10:54:30.65Z</time></trkpt><trkpt lat="40.9357567" lon="9.1846617"><ele>444.0</ele><time>2026-05-02T10:54:31.65Z</time></trkpt><trkpt lat="40.93571" lon="9.1845133"><ele>444.0</ele><time>2026-05-02T10:54:32.65Z</time></trkpt><trkpt lat="40.93566" lon="9.1844033"><ele>444.0</ele><time>2026-05-02T10:54:33.65Z</time></trkpt><trkpt lat="40.935595" lon="9.1843133"><ele>444.0</ele><time>2026-05-02T10:54:34.65Z</time></trkpt><trkpt lat="40.9355117" lon="9.1842483"><ele>444.0</ele><time>2026-05-02T10:54:35.65Z</time></trkpt><trkpt lat="40.93542" lon="9.1841783"><ele>444.0</ele><time>2026-05-02T10:54:36.65Z</time></trkpt><trkpt lat="40.9353433" lon="9.1840883"><ele>444.1666666666667</ele><time>2026-05-02T10:54:37.65Z</time></trkpt><trkpt lat="40.935285" lon="9.1839767"><ele>444.33333333333337</ele><time>2026-05-02T10:54:38.65Z</time></trkpt><trkpt lat="40.9352583" lon="9.1838633"><ele>444.5</ele><time>2026-05-02T10:54:39.65Z</time></trkpt><trkpt lat="40.9352483" lon="9.183765"><ele>444.6666666666667</ele><time>2026-05-02T10:54:40.65Z</time></trkpt><trkpt lat="40.9352483" lon="9.183665"><ele>444.83333333333337</ele><time>2026-05-02T10:54:41.65Z</time></trkpt><trkpt lat="40.93527" lon="9.1835383"><ele>445.0</ele><time>2026-05-02T10:54:42.65Z</time></trkpt><trkpt lat="40.9352883" lon="9.1834217"><ele>445.0</ele><time>2026-05-02T10:54:43.65Z</time></trkpt><trkpt lat="40.93535" lon="9.183295"><ele>445.0</ele><time>2026-05-02T10:54:44.65Z</time></trkpt><trkpt lat="40.9354067" lon="9.1831517"><ele>445.0</ele><time>2026-05-02T10:54:45.65Z</time></trkpt><trkpt lat="40.9354717" lon="9.1830167"><ele>445.0</ele><time>2026-05-02T10:54:46.65Z</time></trkpt><trkpt lat="40.93554" lon="9.18289"><ele>445.0</ele><time>2026-05-02T10:54:47.65Z</time></trkpt><trkpt lat="40.9356167" lon="9.18276"><ele>445.0</ele><time>2026-05-02T10:54:48.65Z</time></trkpt><trkpt lat="40.9356917" lon="9.18266"><ele>445.0</ele><time>2026-05-02T10:54:49.65Z</time></trkpt><trkpt lat="40.9357717" lon="9.1825867"><ele>445.0</ele><time>2026-05-02T10:54:50.65Z</time></trkpt><trkpt lat="40.9358433" lon="9.1825183"><ele>445.0</ele><time>2026-05-02T10:54:51.65Z</time></trkpt><trkpt lat="40.9358933" lon="9.182445"><ele>445.00000000000006</ele><time>2026-05-02T10:54:52.65Z</time></trkpt><trkpt lat="40.9359333" lon="9.182375"><ele>445.0</ele><time>2026-05-02T10:54:53.65Z</time></trkpt><trkpt lat="40.9359367" lon="9.1822667"><ele>445.0</ele><time>2026-05-02T10:54:54.65Z</time></trkpt><trkpt lat="40.93594" lon="9.1821633"><ele>445.0</ele><time>2026-05-02T10:54:55.65Z</time></trkpt><trkpt lat="40.9359233" lon="9.18203"><ele>445.00000000000006</ele><time>2026-05-02T10:54:56.65Z</time></trkpt><trkpt lat="40.9359117" lon="9.1818867"><ele>445.0</ele><time>2026-05-02T10:54:57.65Z</time></trkpt><trkpt lat="40.9358983" lon="9.181735"><ele>448.25</ele><time>2026-05-02T10:54:58.65Z</time></trkpt><trkpt lat="40.935885" lon="9.181575"><ele>451.5</ele><time>2026-05-02T10:54:59.65Z</time></trkpt><trkpt lat="40.935875" lon="9.1814067"><ele>454.75</ele><time>2026-05-02T10:55:00.65Z</time></trkpt><trkpt lat="40.935865" lon="9.1812567"><ele>458.0</ele><time>2026-05-02T10:55:01.65Z</time></trkpt><trkpt lat="40.935865" lon="9.1811083"><ele>460.0</ele><time>2026-05-02T10:55:02.65Z</time></trkpt><trkpt lat="40.9358683" lon="9.1809483"><ele>461.99999999999994</ele><time>2026-05-02T10:55:03.65Z</time></trkpt><trkpt lat="40.9358833" lon="9.1808"><ele>463.99999999999994</ele><time>2026-05-02T10:55:04.65Z</time></trkpt><trkpt lat="40.9359" lon="9.1806567"><ele>466.0</ele><time>2026-05-02T10:55:05.65Z</time></trkpt><trkpt lat="40.9359067" lon="9.180535"><ele>468.0</ele><time>2026-05-02T10:55:06.65Z</time></trkpt><trkpt lat="40.93589" lon="9.1804117"><ele>470.2</ele><time>2026-05-02T10:55:07.65Z</time></trkpt><trkpt lat="40.935855" lon="9.1802867"><ele>472.4</ele><time>2026-05-02T10:55:08.65Z</time></trkpt><trkpt lat="40.9357917" lon="9.1801667"><ele>474.59999999999997</ele><time>2026-05-02T10:55:09.65Z</time></trkpt><trkpt lat="40.9357375" lon="9.1800495"><ele>476.79999999999995</ele><time>2026-05-02T10:55:10.65Z</time></trkpt><trkpt lat="40.9357028" lon="9.1799316"><ele>479.0</ele><time>2026-05-02T10:55:11.65Z</time></trkpt><trkpt lat="40.9356871" lon="9.1798039"><ele>480.79999999999995</ele><time>2026-05-02T10:55:12.65Z</time></trkpt><trkpt lat="40.9356854" lon="9.1796698"><ele>482.59999999999997</ele><time>2026-05-02T10:55:13.65Z</time></trkpt><trkpt lat="40.9356893" lon="9.1795216"><ele>484.4</ele><time>2026-05-02T10:55:14.65Z</time></trkpt><trkpt lat="40.9357016" lon="9.1793719"><ele>486.2</ele><time>2026-05-02T10:55:15.65Z</time></trkpt><trkpt lat="40.9357187" lon="9.1792338"><ele>488.0</ele><time>2026-05-02T10:55:16.65Z</time></trkpt><trkpt lat="40.9357481" lon="9.1791009"><ele>489.0</ele><time>2026-05-02T10:55:17.65Z</time></trkpt><trkpt lat="40.9358004" lon="9.1789746"><ele>490.0</ele><time>2026-05-02T10:55:18.65Z</time></trkpt><trkpt lat="40.9358633" lon="9.1788383"><ele>491.0</ele><time>2026-05-02T10:55:19.65Z</time></trkpt><trkpt lat="40.9359236" lon="9.1787008"><ele>492.0</ele><time>2026-05-02T10:55:20.65Z</time></trkpt><trkpt lat="40.9359772" lon="9.178567"><ele>492.0</ele><time>2026-05-02T10:55:21.65Z</time></trkpt><trkpt lat="40.9360237" lon="9.1784297"><ele>492.00000000000006</ele><time>2026-05-02T10:55:22.65Z</time></trkpt><trkpt lat="40.9360555" lon="9.1783102"><ele>492.00000000000006</ele><time>2026-05-02T10:55:23.65Z</time></trkpt><trkpt lat="40.9360718" lon="9.1782136"><ele>492.0</ele><time>2026-05-02T10:55:24.651Z</time></trkpt><trkpt lat="40.9360877" lon="9.178071"><ele>492.0</ele><time>2026-05-02T10:55:26.65Z</time></trkpt><trkpt lat="40.9361133" lon="9.1779257"><ele>493.4285714285715</ele><time>2026-05-02T10:55:28.65Z</time></trkpt><trkpt lat="40.9361293" lon="9.1778428"><ele>494.8571428571429</ele><time>2026-05-02T10:55:29.65Z</time></trkpt><trkpt lat="40.9361479" lon="9.1777531"><ele>496.2857142857143</ele><time>2026-05-02T10:55:30.65Z</time></trkpt><trkpt lat="40.936167" lon="9.1776569"><ele>497.7142857142857</ele><time>2026-05-02T10:55:31.65Z</time></trkpt><trkpt lat="40.9361894" lon="9.1775618"><ele>499.1428571428571</ele><time>2026-05-02T10:55:32.65Z</time></trkpt><trkpt lat="40.9362156" lon="9.1774819"><ele>500.5714285714285</ele><time>2026-05-02T10:55:33.65Z</time></trkpt><trkpt lat="40.9362384" lon="9.1774039"><ele>501.99999999999994</ele><time>2026-05-02T10:55:34.65Z</time></trkpt><trkpt lat="40.9362751" lon="9.1772955"><ele>503.33333333333337</ele><time>2026-05-02T10:55:36.65Z</time></trkpt><trkpt lat="40.9363097" lon="9.1772254"><ele>504.6666666666667</ele><time>2026-05-02T10:55:38.65Z</time></trkpt><trkpt lat="40.9362817" lon="9.177095"><ele>506.0</ele><time>2026-05-02T10:56:37.65Z</time></trkpt><trkpt lat="40.93625" lon="9.1770033"><ele>507.33333333333337</ele><time>2026-05-02T10:56:38.65Z</time></trkpt><trkpt lat="40.9362233" lon="9.176895"><ele>508.6666666666667</ele><time>2026-05-02T10:56:39.65Z</time></trkpt><trkpt lat="40.93621" lon="9.176795"><ele>510.0</ele><time>2026-05-02T10:56:40.65Z</time></trkpt><trkpt lat="40.9362017" lon="9.1766983"><ele>510.0</ele><time>2026-05-02T10:56:41.65Z</time></trkpt><trkpt lat="40.93623" lon="9.1765417"><ele>510.0</ele><time>2026-05-02T10:56:43.65Z</time></trkpt><trkpt lat="40.9362883" lon="9.1764383"><ele>510.0</ele><time>2026-05-02T10:56:45.65Z</time></trkpt><trkpt lat="40.9363" lon="9.176345"><ele>510.0</ele><time>2026-05-02T10:56:46.65Z</time></trkpt><trkpt lat="40.9363083" lon="9.176175"><ele>510.0</ele><time>2026-05-02T10:56:48.65Z</time></trkpt><trkpt lat="40.9362983" lon="9.1759983"><ele>510.0</ele><time>2026-05-02T10:56:50.65Z</time></trkpt><trkpt lat="40.9362967" lon="9.1759033"><ele>510.0</ele><time>2026-05-02T10:56:51.65Z</time></trkpt><trkpt lat="40.9362983" lon="9.1757917"><ele>510.0</ele><time>2026-05-02T10:56:52.65Z</time></trkpt><trkpt lat="40.9362983" lon="9.1757033"><ele>510.0</ele><time>2026-05-02T10:56:53.65Z</time></trkpt><trkpt lat="40.9362983" lon="9.1756083"><ele>510.0</ele><time>2026-05-02T10:56:54.65Z</time></trkpt><trkpt lat="40.93629" lon="9.1755217"><ele>510.0</ele><time>2026-05-02T10:56:55.65Z</time></trkpt><trkpt lat="40.9362767" lon="9.1753933"><ele>510.0</ele><time>2026-05-02T10:56:57.65Z</time></trkpt><trkpt lat="40.936235" lon="9.175295"><ele>510.0</ele><time>2026-05-02T10:56:59.65Z</time></trkpt><trkpt lat="40.9361883" lon="9.17523"><ele>510.0</ele><time>2026-05-02T10:57:01.65Z</time></trkpt><trkpt lat="40.9361083" lon="9.175195"><ele>510.0</ele><time>2026-05-02T10:57:03.65Z</time></trkpt><trkpt lat="40.9359917" lon="9.1751583"><ele>510.0</ele><time>2026-05-02T10:57:05.65Z</time></trkpt><trkpt lat="40.9359033" lon="9.1751433"><ele>510.0</ele><time>2026-05-02T10:57:07.65Z</time></trkpt><trkpt lat="40.9358367" lon="9.1751133"><ele>510.0</ele><time>2026-05-02T10:57:10.65Z</time></trkpt><trkpt lat="40.9357917" lon="9.1752"><ele>510.0</ele><time>2026-05-02T10:57:15.65Z</time></trkpt><trkpt lat="40.935775" lon="9.175315"><ele>510.0</ele><time>2026-05-02T10:58:35.65Z</time></trkpt><trkpt lat="40.9358583" lon="9.1753217"><ele>510.0</ele><time>2026-05-02T10:59:14.65Z</time></trkpt><trkpt lat="40.9358983" lon="9.17525"><ele>510.0</ele><time>2026-05-02T11:00:27.651Z</time></trkpt><trkpt lat="40.9360017" lon="9.1753283"><ele>510.0</ele><time>2026-05-02T11:00:41.65Z</time></trkpt><trkpt lat="40.9360767" lon="9.17541"><ele>510.0</ele><time>2026-05-02T11:00:45.65Z</time></trkpt><trkpt lat="40.9361667" lon="9.1754183"><ele>510.0</ele><time>2026-05-02T11:00:47.65Z</time></trkpt><trkpt lat="40.9362217" lon="9.175465"><ele>510.0</ele><time>2026-05-02T11:00:48.65Z</time></trkpt><trkpt lat="40.9362833" lon="9.1755"><ele>510.0</ele><time>2026-05-02T11:00:49.65Z</time></trkpt><trkpt lat="40.9363317" lon="9.175555"><ele>510.0</ele><time>2026-05-02T11:00:50.65Z</time></trkpt><trkpt lat="40.93641" lon="9.17558"><ele>510.0</ele><time>2026-05-02T11:00:53.65Z</time></trkpt><trkpt lat="40.9364033" lon="9.175715"><ele>510.0</ele><time>2026-05-02T11:00:55.65Z</time></trkpt><trkpt lat="40.9363917" lon="9.175815"><ele>510.0</ele><time>2026-05-02T11:00:56.65Z</time></trkpt><trkpt lat="40.9363217" lon="9.175975"><ele>510.0</ele><time>2026-05-02T11:00:58.65Z</time></trkpt><trkpt lat="40.9363183" lon="9.1760617"><ele>510.0</ele><time>2026-05-02T11:00:59.65Z</time></trkpt><trkpt lat="40.93632" lon="9.1761517"><ele>510.0</ele><time>2026-05-02T11:01:00.65Z</time></trkpt><trkpt lat="40.9363267" lon="9.1762817"><ele>510.0</ele><time>2026-05-02T11:01:02.649Z</time></trkpt><trkpt lat="40.936325" lon="9.1764367"><ele>510.0</ele><time>2026-05-02T11:01:04.649Z</time></trkpt><trkpt lat="40.93631" lon="9.1766"><ele>510.0</ele><time>2026-05-02T11:01:06.649Z</time></trkpt><trkpt lat="40.9362783" lon="9.176725"><ele>510.0</ele><time>2026-05-02T11:01:08.65Z</time></trkpt><trkpt lat="40.936255" lon="9.1768333"><ele>510.0</ele><time>2026-05-02T11:01:11.649Z</time></trkpt><trkpt lat="40.9362517" lon="9.1769233"><ele>510.0</ele><time>2026-05-02T11:01:13.649Z</time></trkpt><trkpt lat="40.936245" lon="9.1770433"><ele>510.0</ele><time>2026-05-02T11:01:16.649Z</time></trkpt><trkpt lat="40.9362817" lon="9.1771667"><ele>510.0</ele><time>2026-05-02T11:01:19.649Z</time></trkpt><trkpt lat="40.9363567" lon="9.1772717"><ele>510.0</ele><time>2026-05-02T11:01:21.649Z</time></trkpt><trkpt lat="40.9364267" lon="9.17731"><ele>510.0</ele><time>2026-05-02T11:01:22.649Z</time></trkpt><trkpt lat="40.9365117" lon="9.1773267"><ele>510.0</ele><time>2026-05-02T11:01:23.649Z</time></trkpt><trkpt lat="40.93659" lon="9.1773367"><ele>510.0</ele><time>2026-05-02T11:01:24.65Z</time></trkpt><trkpt lat="40.9367" lon="9.177335"><ele>510.0</ele><time>2026-05-02T11:01:25.649Z</time></trkpt><trkpt lat="40.9368083" lon="9.1773333"><ele>510.0</ele><time>2026-05-02T11:01:26.649Z</time></trkpt><trkpt lat="40.936905" lon="9.1773433"><ele>510.0</ele><time>2026-05-02T11:01:27.649Z</time></trkpt><trkpt lat="40.9370117" lon="9.1773567"><ele>510.0</ele><time>2026-05-02T11:01:28.649Z</time></trkpt><trkpt lat="40.93711" lon="9.17737"><ele>509.5</ele><time>2026-05-02T11:01:29.649Z</time></trkpt><trkpt lat="40.937195" lon="9.1773667"><ele>509.0</ele><time>2026-05-02T11:01:30.649Z</time></trkpt><trkpt lat="40.9372767" lon="9.17736"><ele>508.5</ele><time>2026-05-02T11:01:31.649Z</time></trkpt><trkpt lat="40.9373517" lon="9.1773467"><ele>508.0</ele><time>2026-05-02T11:01:32.649Z</time></trkpt><trkpt lat="40.937415" lon="9.1773083"><ele>507.5</ele><time>2026-05-02T11:01:33.649Z</time></trkpt><trkpt lat="40.937475" lon="9.1772317"><ele>507.0</ele><time>2026-05-02T11:01:34.649Z</time></trkpt><trkpt lat="40.93754" lon="9.17715"><ele>501.5</ele><time>2026-05-02T11:01:35.649Z</time></trkpt><trkpt lat="40.937605" lon="9.1770417"><ele>496.0</ele><time>2026-05-02T11:01:36.649Z</time></trkpt><trkpt lat="40.9376517" lon="9.1768817"><ele>490.5</ele><time>2026-05-02T11:01:37.649Z</time></trkpt><trkpt lat="40.9377083" lon="9.1767183"><ele>485.0</ele><time>2026-05-02T11:01:38.649Z</time></trkpt><trkpt lat="40.93776" lon="9.17659"><ele>488.0</ele><time>2026-05-02T11:01:39.649Z</time></trkpt><trkpt lat="40.9378083" lon="9.176455"><ele>491.0</ele><time>2026-05-02T11:01:40.649Z</time></trkpt><trkpt lat="40.9378617" lon="9.1763217"><ele>494.0</ele><time>2026-05-02T11:01:41.649Z</time></trkpt><trkpt lat="40.9379017" lon="9.1761417"><ele>497.0</ele><time>2026-05-02T11:01:42.649Z</time></trkpt><trkpt lat="40.9379317" lon="9.175955"><ele>497.0</ele><time>2026-05-02T11:01:43.649Z</time></trkpt><trkpt lat="40.9379317" lon="9.1757433"><ele>497.0</ele><time>2026-05-02T11:01:44.649Z</time></trkpt><trkpt lat="40.9379533" lon="9.175535"><ele>497.0</ele><time>2026-05-02T11:01:45.649Z</time></trkpt><trkpt lat="40.9379567" lon="9.1753617"><ele>497.75</ele><time>2026-05-02T11:01:46.649Z</time></trkpt><trkpt lat="40.937975" lon="9.1751933"><ele>498.5</ele><time>2026-05-02T11:01:47.65Z</time></trkpt><trkpt lat="40.9379917" lon="9.17504"><ele>499.25</ele><time>2026-05-02T11:01:48.649Z</time></trkpt><trkpt lat="40.9380333" lon="9.17487"><ele>500.0</ele><time>2026-05-02T11:01:49.649Z</time></trkpt><trkpt lat="40.9380167" lon="9.1747283"><ele>501.0</ele><time>2026-05-02T11:01:50.649Z</time></trkpt><trkpt lat="40.9380283" lon="9.1745767"><ele>502.0</ele><time>2026-05-02T11:01:51.649Z</time></trkpt><trkpt lat="40.93804" lon="9.1744317"><ele>503.0</ele><time>2026-05-02T11:01:52.649Z</time></trkpt><trkpt lat="40.938055" lon="9.17428"><ele>504.0</ele><time>2026-05-02T11:01:53.649Z</time></trkpt><trkpt lat="40.9380683" lon="9.1741433"><ele>505.0</ele><time>2026-05-02T11:01:54.649Z</time></trkpt><trkpt lat="40.9380883" lon="9.174005"><ele>505.2</ele><time>2026-05-02T11:01:55.649Z</time></trkpt><trkpt lat="40.938105" lon="9.1738817"><ele>505.4</ele><time>2026-05-02T11:01:56.649Z</time></trkpt><trkpt lat="40.9381217" lon="9.17374"><ele>505.6</ele><time>2026-05-02T11:01:57.649Z</time></trkpt><trkpt lat="40.938145" lon="9.1736067"><ele>505.8</ele><time>2026-05-02T11:01:58.649Z</time></trkpt><trkpt lat="40.938165" lon="9.1734733"><ele>506.0</ele><time>2026-05-02T11:01:59.649Z</time></trkpt><trkpt lat="40.93818" lon="9.173335"><ele>505.99999999999994</ele><time>2026-05-02T11:02:00.649Z</time></trkpt><trkpt lat="40.9381983" lon="9.1732117"><ele>506.0</ele><time>2026-05-02T11:02:01.649Z</time></trkpt><trkpt lat="40.9382217" lon="9.1731017"><ele>506.0</ele><time>2026-05-02T11:02:02.649Z</time></trkpt><trkpt lat="40.9382633" lon="9.172995"><ele>506.0</ele><time>2026-05-02T11:02:03.649Z</time></trkpt><trkpt lat="40.9383117" lon="9.1729083"><ele>505.99999999999994</ele><time>2026-05-02T11:02:04.649Z</time></trkpt><trkpt lat="40.9383633" lon="9.1728383"><ele>506.0</ele><time>2026-05-02T11:02:05.65Z</time></trkpt><trkpt lat="40.9384217" lon="9.172775"><ele>505.28571428571433</ele><time>2026-05-02T11:02:06.649Z</time></trkpt><trkpt lat="40.9384817" lon="9.1727167"><ele>504.57142857142856</ele><time>2026-05-02T11:02:07.649Z</time></trkpt><trkpt lat="40.9385417" lon="9.1726683"><ele>503.8571428571429</ele><time>2026-05-02T11:02:08.65Z</time></trkpt><trkpt lat="40.9385983" lon="9.1726167"><ele>503.14285714285717</ele><time>2026-05-02T11:02:09.649Z</time></trkpt><trkpt lat="40.93866" lon="9.1725817"><ele>502.42857142857144</ele><time>2026-05-02T11:02:10.649Z</time></trkpt><trkpt lat="40.938715" lon="9.1725317"><ele>501.7142857142857</ele><time>2026-05-02T11:02:11.649Z</time></trkpt><trkpt lat="40.9387917" lon="9.172445"><ele>501.0</ele><time>2026-05-02T11:02:12.649Z</time></trkpt><trkpt lat="40.9388867" lon="9.1723383"><ele>501.0</ele><time>2026-05-02T11:02:13.649Z</time></trkpt><trkpt lat="40.93899" lon="9.17224"><ele>501.0</ele><time>2026-05-02T11:02:14.649Z</time></trkpt><trkpt lat="40.9390867" lon="9.17214"><ele>501.0</ele><time>2026-05-02T11:02:15.649Z</time></trkpt><trkpt lat="40.9391817" lon="9.1720283"><ele>501.0</ele><time>2026-05-02T11:02:16.649Z</time></trkpt><trkpt lat="40.939285" lon="9.171925"><ele>501.0</ele><time>2026-05-02T11:02:17.649Z</time></trkpt><trkpt lat="40.9393883" lon="9.1718"><ele>501.0</ele><time>2026-05-02T11:02:18.649Z</time></trkpt><trkpt lat="40.9394867" lon="9.1716817"><ele>501.0</ele><time>2026-05-02T11:02:19.649Z</time></trkpt><trkpt lat="40.9395883" lon="9.1715583"><ele>501.0</ele><time>2026-05-02T11:02:20.649Z</time></trkpt><trkpt lat="40.939675" lon="9.17141"><ele>501.0</ele><time>2026-05-02T11:02:21.649Z</time></trkpt><trkpt lat="40.939755" lon="9.1713083"><ele>501.0</ele><time>2026-05-02T11:02:22.649Z</time></trkpt><trkpt lat="40.93984" lon="9.171205"><ele>501.0</ele><time>2026-05-02T11:02:23.649Z</time></trkpt><trkpt lat="40.939935" lon="9.1710883"><ele>501.0</ele><time>2026-05-02T11:02:24.649Z</time></trkpt><trkpt lat="40.940025" lon="9.17097"><ele>501.20000000000005</ele><time>2026-05-02T11:02:25.649Z</time></trkpt><trkpt lat="40.9401" lon="9.1708667"><ele>501.40000000000003</ele><time>2026-05-02T11:02:26.649Z</time></trkpt><trkpt lat="40.94017" lon="9.1707767"><ele>501.6</ele><time>2026-05-02T11:02:27.649Z</time></trkpt><trkpt lat="40.940235" lon="9.17069"><ele>501.8</ele><time>2026-05-02T11:02:28.649Z</time></trkpt><trkpt lat="40.9402833" lon="9.1706"><ele>502.0</ele><time>2026-05-02T11:02:29.65Z</time></trkpt><trkpt lat="40.940315" lon="9.1704917"><ele>501.6666666666667</ele><time>2026-05-02T11:02:30.649Z</time></trkpt><trkpt lat="40.9403433" lon="9.17038"><ele>501.33333333333337</ele><time>2026-05-02T11:02:31.649Z</time></trkpt><trkpt lat="40.9403783" lon="9.170285"><ele>501.0</ele><time>2026-05-02T11:02:32.649Z</time></trkpt><trkpt lat="40.94042" lon="9.17019"><ele>500.66666666666663</ele><time>2026-05-02T11:02:33.649Z</time></trkpt><trkpt lat="40.9404633" lon="9.1700933"><ele>500.3333333333333</ele><time>2026-05-02T11:02:34.649Z</time></trkpt><trkpt lat="40.940505" lon="9.17002"><ele>500.0</ele><time>2026-05-02T11:02:35.649Z</time></trkpt><trkpt lat="40.94056" lon="9.1699467"><ele>499.99999999999994</ele><time>2026-05-02T11:02:36.649Z</time></trkpt><trkpt lat="40.940625" lon="9.1699067"><ele>500.0</ele><time>2026-05-02T11:02:37.649Z</time></trkpt><trkpt lat="40.9407167" lon="9.16989"><ele>500.0</ele><time>2026-05-02T11:02:38.649Z</time></trkpt><trkpt lat="40.9408017" lon="9.1698383"><ele>500.0</ele><time>2026-05-02T11:02:39.649Z</time></trkpt><trkpt lat="40.9408867" lon="9.16979"><ele>499.99999999999994</ele><time>2026-05-02T11:02:40.649Z</time></trkpt><trkpt lat="40.940975" lon="9.1697567"><ele>500.0</ele><time>2026-05-02T11:02:41.649Z</time></trkpt><trkpt lat="40.941055" lon="9.169705"><ele>497.8333333333333</ele><time>2026-05-02T11:02:42.649Z</time></trkpt><trkpt lat="40.9411333" lon="9.1696467"><ele>495.66666666666663</ele><time>2026-05-02T11:02:43.649Z</time></trkpt><trkpt lat="40.941195" lon="9.169565"><ele>493.5</ele><time>2026-05-02T11:02:44.649Z</time></trkpt><trkpt lat="40.9412383" lon="9.1694767"><ele>491.33333333333337</ele><time>2026-05-02T11:02:45.649Z</time></trkpt><trkpt lat="40.941265" lon="9.1693667"><ele>489.1666666666667</ele><time>2026-05-02T11:02:46.649Z</time></trkpt><trkpt lat="40.9412917" lon="9.169255"><ele>487.0</ele><time>2026-05-02T11:02:47.649Z</time></trkpt><trkpt lat="40.94129" lon="9.1691133"><ele>486.5</ele><time>2026-05-02T11:02:48.649Z</time></trkpt><trkpt lat="40.9413017" lon="9.16896"><ele>486.0</ele><time>2026-05-02T11:02:49.649Z</time></trkpt><trkpt lat="40.9412983" lon="9.16879"><ele>485.5</ele><time>2026-05-02T11:02:50.649Z</time></trkpt><trkpt lat="40.94129" lon="9.1686283"><ele>485.0</ele><time>2026-05-02T11:02:51.649Z</time></trkpt><trkpt lat="40.9412733" lon="9.168445"><ele>485.0</ele><time>2026-05-02T11:02:52.649Z</time></trkpt><trkpt lat="40.9412517" lon="9.1682633"><ele>485.0</ele><time>2026-05-02T11:02:53.649Z</time></trkpt><trkpt lat="40.9412217" lon="9.1680833"><ele>485.0</ele><time>2026-05-02T11:02:54.649Z</time></trkpt><trkpt lat="40.9411883" lon="9.1679117"><ele>485.0</ele><time>2026-05-02T11:02:55.649Z</time></trkpt><trkpt lat="40.941165" lon="9.16773"><ele>485.0</ele><time>2026-05-02T11:02:56.649Z</time></trkpt><trkpt lat="40.9411417" lon="9.1675517"><ele>485.0</ele><time>2026-05-02T11:02:57.649Z</time></trkpt><trkpt lat="40.94113" lon="9.16738"><ele>485.0</ele><time>2026-05-02T11:02:58.649Z</time></trkpt><trkpt lat="40.94112" lon="9.167235"><ele>485.0</ele><time>2026-05-02T11:02:59.649Z</time></trkpt><trkpt lat="40.9411083" lon="9.1671067"><ele>485.0</ele><time>2026-05-02T11:03:00.649Z</time></trkpt><trkpt lat="40.94108" lon="9.1670017"><ele>485.0</ele><time>2026-05-02T11:03:01.649Z</time></trkpt><trkpt lat="40.94105" lon="9.1668933"><ele>485.0</ele><time>2026-05-02T11:03:02.649Z</time></trkpt><trkpt lat="40.9410133" lon="9.16678"><ele>485.0</ele><time>2026-05-02T11:03:03.649Z</time></trkpt><trkpt lat="40.9409567" lon="9.1666467"><ele>485.0</ele><time>2026-05-02T11:03:04.649Z</time></trkpt><trkpt lat="40.9409133" lon="9.1664883"><ele>485.75</ele><time>2026-05-02T11:03:05.649Z</time></trkpt><trkpt lat="40.9408783" lon="9.1663167"><ele>486.5</ele><time>2026-05-02T11:03:06.649Z</time></trkpt><trkpt lat="40.940855" lon="9.1661517"><ele>487.25</ele><time>2026-05-02T11:03:07.649Z</time></trkpt><trkpt lat="40.9408317" lon="9.1659783"><ele>488.0</ele><time>2026-05-02T11:03:08.649Z</time></trkpt><trkpt lat="40.9408133" lon="9.165815"><ele>488.25</ele><time>2026-05-02T11:03:09.649Z</time></trkpt><trkpt lat="40.9408067" lon="9.1656567"><ele>488.5</ele><time>2026-05-02T11:03:10.649Z</time></trkpt><trkpt lat="40.9407983" lon="9.1655033"><ele>488.75</ele><time>2026-05-02T11:03:11.649Z</time></trkpt><trkpt lat="40.9408217" lon="9.1653617"><ele>489.0</ele><time>2026-05-02T11:03:12.649Z</time></trkpt><trkpt lat="40.9408467" lon="9.1651967"><ele>488.25</ele><time>2026-05-02T11:03:13.649Z</time></trkpt><trkpt lat="40.9408833" lon="9.1650717"><ele>487.5</ele><time>2026-05-02T11:03:14.649Z</time></trkpt><trkpt lat="40.9409483" lon="9.164945"><ele>486.75</ele><time>2026-05-02T11:03:15.649Z</time></trkpt><trkpt lat="40.9410217" lon="9.1648217"><ele>486.0</ele><time>2026-05-02T11:03:16.649Z</time></trkpt><trkpt lat="40.94111" lon="9.1646883"><ele>485.8</ele><time>2026-05-02T11:03:17.649Z</time></trkpt><trkpt lat="40.941195" lon="9.164575"><ele>485.6</ele><time>2026-05-02T11:03:18.65Z</time></trkpt><trkpt lat="40.9412817" lon="9.1644583"><ele>485.4</ele><time>2026-05-02T11:03:19.649Z</time></trkpt><trkpt lat="40.9413267" lon="9.16434"><ele>485.2</ele><time>2026-05-02T11:03:20.649Z</time></trkpt><trkpt lat="40.9413417" lon="9.1642267"><ele>485.0</ele><time>2026-05-02T11:03:21.649Z</time></trkpt><trkpt lat="40.941365" lon="9.16411"><ele>484.6</ele><time>2026-05-02T11:03:22.649Z</time></trkpt><trkpt lat="40.9414017" lon="9.1639933"><ele>484.2</ele><time>2026-05-02T11:03:23.649Z</time></trkpt><trkpt lat="40.94146" lon="9.1638883"><ele>483.79999999999995</ele><time>2026-05-02T11:03:24.649Z</time></trkpt><trkpt lat="40.941535" lon="9.16379"><ele>483.4</ele><time>2026-05-02T11:03:25.649Z</time></trkpt><trkpt lat="40.9416417" lon="9.1637067"><ele>483.0</ele><time>2026-05-02T11:03:26.649Z</time></trkpt><trkpt lat="40.9417567" lon="9.1636133"><ele>485.0</ele><time>2026-05-02T11:03:27.649Z</time></trkpt><trkpt lat="40.9418883" lon="9.1635267"><ele>487.0</ele><time>2026-05-02T11:03:28.649Z</time></trkpt><trkpt lat="40.94201" lon="9.1634417"><ele>489.0</ele><time>2026-05-02T11:03:29.649Z</time></trkpt><trkpt lat="40.9421417" lon="9.16339"><ele>491.0</ele><time>2026-05-02T11:03:30.649Z</time></trkpt><trkpt lat="40.9422717" lon="9.16337"><ele>491.0</ele><time>2026-05-02T11:03:31.649Z</time></trkpt><trkpt lat="40.9423983" lon="9.163365"><ele>491.0</ele><time>2026-05-02T11:03:32.649Z</time></trkpt><trkpt lat="40.94251" lon="9.1633567"><ele>491.0</ele><time>2026-05-02T11:03:33.649Z</time></trkpt><trkpt lat="40.9426283" lon="9.16337"><ele>491.0</ele><time>2026-05-02T11:03:34.649Z</time></trkpt><trkpt lat="40.94274" lon="9.1633833"><ele>491.20000000000005</ele><time>2026-05-02T11:03:35.649Z</time></trkpt><trkpt lat="40.9428283" lon="9.1633567"><ele>491.40000000000003</ele><time>2026-05-02T11:03:36.649Z</time></trkpt><trkpt lat="40.9429083" lon="9.1632883"><ele>491.6</ele><time>2026-05-02T11:03:37.649Z</time></trkpt><trkpt lat="40.9429817" lon="9.1631933"><ele>491.8</ele><time>2026-05-02T11:03:38.65Z</time></trkpt><trkpt lat="40.9430533" lon="9.1630733"><ele>492.0</ele><time>2026-05-02T11:03:39.649Z</time></trkpt><trkpt lat="40.9431067" lon="9.162935"><ele>492.0</ele><time>2026-05-02T11:03:40.649Z</time></trkpt><trkpt lat="40.9431717" lon="9.1627967"><ele>492.0</ele><time>2026-05-02T11:03:41.649Z</time></trkpt><trkpt lat="40.943225" lon="9.1626317"><ele>492.0</ele><time>2026-05-02T11:03:42.649Z</time></trkpt><trkpt lat="40.9432567" lon="9.162435"><ele>492.0</ele><time>2026-05-02T11:03:43.649Z</time></trkpt><trkpt lat="40.9432917" lon="9.16226"><ele>492.25</ele><time>2026-05-02T11:03:44.649Z</time></trkpt><trkpt lat="40.9433383" lon="9.1621"><ele>492.5</ele><time>2026-05-02T11:03:45.649Z</time></trkpt><trkpt lat="40.9433917" lon="9.1619433"><ele>492.75</ele><time>2026-05-02T11:03:46.649Z</time></trkpt><trkpt lat="40.9434333" lon="9.1617867"><ele>493.0</ele><time>2026-05-02T11:03:47.649Z</time></trkpt><trkpt lat="40.9434633" lon="9.1616317"><ele>490.25</ele><time>2026-05-02T11:03:48.649Z</time></trkpt><trkpt lat="40.94349" lon="9.1614767"><ele>487.5</ele><time>2026-05-02T11:03:49.649Z</time></trkpt><trkpt lat="40.943505" lon="9.1613183"><ele>484.75</ele><time>2026-05-02T11:03:50.65Z</time></trkpt><trkpt lat="40.9435083" lon="9.1611667"><ele>482.0</ele><time>2026-05-02T11:03:51.649Z</time></trkpt><trkpt lat="40.94349" lon="9.16101"><ele>482.0</ele><time>2026-05-02T11:03:52.649Z</time></trkpt><trkpt lat="40.9434633" lon="9.1608467"><ele>482.0</ele><time>2026-05-02T11:03:53.649Z</time></trkpt><trkpt lat="40.9434433" lon="9.1606817"><ele>482.0</ele><time>2026-05-02T11:03:54.649Z</time></trkpt><trkpt lat="40.943425" lon="9.160505"><ele>482.0</ele><time>2026-05-02T11:03:55.65Z</time></trkpt><trkpt lat="40.9434167" lon="9.160335"><ele>481.0</ele><time>2026-05-02T11:03:56.649Z</time></trkpt><trkpt lat="40.94342" lon="9.1601633"><ele>480.0</ele><time>2026-05-02T11:03:57.649Z</time></trkpt><trkpt lat="40.943425" lon="9.1599717"><ele>479.0</ele><time>2026-05-02T11:03:58.649Z</time></trkpt><trkpt lat="40.94344" lon="9.159795"><ele>478.0</ele><time>2026-05-02T11:03:59.649Z</time></trkpt><trkpt lat="40.943455" lon="9.159625"><ele>478.0</ele><time>2026-05-02T11:04:00.649Z</time></trkpt><trkpt lat="40.9434767" lon="9.1594517"><ele>478.0</ele><time>2026-05-02T11:04:01.649Z</time></trkpt><trkpt lat="40.94351" lon="9.15928"><ele>478.0</ele><time>2026-05-02T11:04:02.649Z</time></trkpt><trkpt lat="40.9435367" lon="9.1591017"><ele>478.0</ele><time>2026-05-02T11:04:03.649Z</time></trkpt><trkpt lat="40.943565" lon="9.158915"><ele>478.0</ele><time>2026-05-02T11:04:04.649Z</time></trkpt><trkpt lat="40.9436083" lon="9.158725"><ele>478.0</ele><time>2026-05-02T11:04:05.649Z</time></trkpt><trkpt lat="40.9436433" lon="9.15857"><ele>478.0</ele><time>2026-05-02T11:04:06.649Z</time></trkpt><trkpt lat="40.9436933" lon="9.158415"><ele>478.0</ele><time>2026-05-02T11:04:07.649Z</time></trkpt><trkpt lat="40.9437383" lon="9.1582783"><ele>477.4</ele><time>2026-05-02T11:04:08.649Z</time></trkpt><trkpt lat="40.9437783" lon="9.1581533"><ele>476.79999999999995</ele><time>2026-05-02T11:04:09.649Z</time></trkpt><trkpt lat="40.943795" lon="9.15805"><ele>476.2</ele><time>2026-05-02T11:04:10.649Z</time></trkpt><trkpt lat="40.9438017" lon="9.1579517"><ele>475.6</ele><time>2026-05-02T11:04:11.649Z</time></trkpt><trkpt lat="40.9438" lon="9.1578333"><ele>475.0</ele><time>2026-05-02T11:04:12.649Z</time></trkpt><trkpt lat="40.9437933" lon="9.15769"><ele>475.0</ele><time>2026-05-02T11:04:13.649Z</time></trkpt><trkpt lat="40.9437883" lon="9.157535"><ele>475.0</ele><time>2026-05-02T11:04:14.649Z</time></trkpt><trkpt lat="40.9437933" lon="9.157365"><ele>475.0</ele><time>2026-05-02T11:04:15.649Z</time></trkpt><trkpt lat="40.943795" lon="9.15718"><ele>475.0</ele><time>2026-05-02T11:04:16.649Z</time></trkpt><trkpt lat="40.9438067" lon="9.157"><ele>473.25</ele><time>2026-05-02T11:04:17.649Z</time></trkpt><trkpt lat="40.94381" lon="9.15681"><ele>471.5</ele><time>2026-05-02T11:04:18.649Z</time></trkpt><trkpt lat="40.9438133" lon="9.156615"><ele>469.75</ele><time>2026-05-02T11:04:19.649Z</time></trkpt><trkpt lat="40.9438167" lon="9.1564367"><ele>468.0</ele><time>2026-05-02T11:04:20.649Z</time></trkpt><trkpt lat="40.9438167" lon="9.1562783"><ele>466.8333333333333</ele><time>2026-05-02T11:04:21.649Z</time></trkpt><trkpt lat="40.9438067" lon="9.1561617"><ele>465.66666666666663</ele><time>2026-05-02T11:04:22.649Z</time></trkpt><trkpt lat="40.9438017" lon="9.1560417"><ele>464.5</ele><time>2026-05-02T11:04:23.649Z</time></trkpt><trkpt lat="40.9437917" lon="9.155945"><ele>463.3333333333333</ele><time>2026-05-02T11:04:24.649Z</time></trkpt><trkpt lat="40.9437717" lon="9.15586"><ele>462.16666666666663</ele><time>2026-05-02T11:04:25.649Z</time></trkpt><trkpt lat="40.943725" lon="9.1557967"><ele>461.0</ele><time>2026-05-02T11:04:26.65Z</time></trkpt><trkpt lat="40.9436733" lon="9.1557433"><ele>460.99999999999994</ele><time>2026-05-02T11:04:27.649Z</time></trkpt><trkpt lat="40.9435767" lon="9.1557183"><ele>461.0</ele><time>2026-05-02T11:04:28.649Z</time></trkpt><trkpt lat="40.9435167" lon="9.15569"><ele>461.0</ele><time>2026-05-02T11:04:29.649Z</time></trkpt><trkpt lat="40.9434567" lon="9.1556483"><ele>461.0</ele><time>2026-05-02T11:04:30.649Z</time></trkpt><trkpt lat="40.943405" lon="9.15558"><ele>460.99999999999994</ele><time>2026-05-02T11:04:31.649Z</time></trkpt><trkpt lat="40.9433617" lon="9.1554733"><ele>461.0</ele><time>2026-05-02T11:04:32.649Z</time></trkpt><trkpt lat="40.9433183" lon="9.1553567"><ele>458.5</ele><time>2026-05-02T11:04:33.649Z</time></trkpt><trkpt lat="40.9432767" lon="9.1552167"><ele>456.0</ele><time>2026-05-02T11:04:34.649Z</time></trkpt><trkpt lat="40.9432283" lon="9.1550767"><ele>453.5</ele><time>2026-05-02T11:04:35.649Z</time></trkpt><trkpt lat="40.9431883" lon="9.15493"><ele>451.0</ele><time>2026-05-02T11:04:36.649Z</time></trkpt><trkpt lat="40.9431617" lon="9.1547867"><ele>448.5</ele><time>2026-05-02T11:04:37.649Z</time></trkpt><trkpt lat="40.9431433" lon="9.1546067"><ele>446.0</ele><time>2026-05-02T11:04:38.649Z</time></trkpt><trkpt lat="40.9431333" lon="9.1544333"><ele>443.5</ele><time>2026-05-02T11:04:39.649Z</time></trkpt><trkpt lat="40.9431217" lon="9.15427"><ele>441.0</ele><time>2026-05-02T11:04:40.649Z</time></trkpt><trkpt lat="40.94311" lon="9.1541133"><ele>438.75</ele><time>2026-05-02T11:04:41.649Z</time></trkpt><trkpt lat="40.9430917" lon="9.1539567"><ele>436.5</ele><time>2026-05-02T11:04:42.649Z</time></trkpt><trkpt lat="40.943055" lon="9.153805"><ele>434.25</ele><time>2026-05-02T11:04:43.649Z</time></trkpt><trkpt lat="40.9430283" lon="9.15365"><ele>432.0</ele><time>2026-05-02T11:04:44.649Z</time></trkpt><trkpt lat="40.943005" lon="9.153505"><ele>432.0</ele><time>2026-05-02T11:04:45.649Z</time></trkpt><trkpt lat="40.942975" lon="9.15336"><ele>432.0</ele><time>2026-05-02T11:04:46.649Z</time></trkpt><trkpt lat="40.94295" lon="9.1532167"><ele>432.0</ele><time>2026-05-02T11:04:47.649Z</time></trkpt><trkpt lat="40.9429183" lon="9.15305"><ele>432.0</ele><time>2026-05-02T11:04:48.649Z</time></trkpt><trkpt lat="40.9429" lon="9.1528917"><ele>430.0</ele><time>2026-05-02T11:04:49.649Z</time></trkpt><trkpt lat="40.942885" lon="9.1527117"><ele>428.0</ele><time>2026-05-02T11:04:50.649Z</time></trkpt><trkpt lat="40.9428733" lon="9.1525467"><ele>426.0</ele><time>2026-05-02T11:04:51.649Z</time></trkpt><trkpt lat="40.9428767" lon="9.1523883"><ele>424.0</ele><time>2026-05-02T11:04:52.649Z</time></trkpt><trkpt lat="40.9428967" lon="9.152245"><ele>423.0</ele><time>2026-05-02T11:04:53.649Z</time></trkpt><trkpt lat="40.942925" lon="9.1521017"><ele>422.0</ele><time>2026-05-02T11:04:54.649Z</time></trkpt><trkpt lat="40.9429433" lon="9.1519583"><ele>421.0</ele><time>2026-05-02T11:04:55.649Z</time></trkpt><trkpt lat="40.9429383" lon="9.1518133"><ele>420.0</ele><time>2026-05-02T11:04:56.649Z</time></trkpt><trkpt lat="40.9429083" lon="9.1517017"><ele>419.0</ele><time>2026-05-02T11:04:57.649Z</time></trkpt><trkpt lat="40.9428517" lon="9.1515783"><ele>418.0</ele><time>2026-05-02T11:04:58.649Z</time></trkpt><trkpt lat="40.942775" lon="9.1514567"><ele>417.0</ele><time>2026-05-02T11:04:59.649Z</time></trkpt><trkpt lat="40.942695" lon="9.1513367"><ele>416.0</ele><time>2026-05-02T11:05:00.649Z</time></trkpt><trkpt lat="40.94261" lon="9.1512267"><ele>415.0</ele><time>2026-05-02T11:05:01.649Z</time></trkpt><trkpt lat="40.9425383" lon="9.151115"><ele>415.0</ele><time>2026-05-02T11:05:02.649Z</time></trkpt><trkpt lat="40.942465" lon="9.1510017"><ele>415.0</ele><time>2026-05-02T11:05:03.649Z</time></trkpt><trkpt lat="40.9423933" lon="9.15088"><ele>415.0</ele><time>2026-05-02T11:05:04.649Z</time></trkpt><trkpt lat="40.9423383" lon="9.15075"><ele>415.0</ele><time>2026-05-02T11:05:05.649Z</time></trkpt><trkpt lat="40.9423083" lon="9.150635"><ele>415.0</ele><time>2026-05-02T11:05:06.649Z</time></trkpt><trkpt lat="40.9422917" lon="9.150515"><ele>414.6666666666667</ele><time>2026-05-02T11:05:07.649Z</time></trkpt><trkpt lat="40.9423217" lon="9.1503983"><ele>414.33333333333337</ele><time>2026-05-02T11:05:08.649Z</time></trkpt><trkpt lat="40.9423267" lon="9.1502867"><ele>414.0</ele><time>2026-05-02T11:05:09.649Z</time></trkpt><trkpt lat="40.9423133" lon="9.1501983"><ele>413.66666666666663</ele><time>2026-05-02T11:05:10.649Z</time></trkpt><trkpt lat="40.9422933" lon="9.1501167"><ele>413.3333333333333</ele><time>2026-05-02T11:05:11.649Z</time></trkpt><trkpt lat="40.94225" lon="9.1500317"><ele>413.0</ele><time>2026-05-02T11:05:12.649Z</time></trkpt><trkpt lat="40.94219" lon="9.1499567"><ele>413.0</ele><time>2026-05-02T11:05:13.649Z</time></trkpt><trkpt lat="40.94211" lon="9.149895"><ele>413.0</ele><time>2026-05-02T11:05:14.649Z</time></trkpt><trkpt lat="40.94202" lon="9.1498217"><ele>413.0</ele><time>2026-05-02T11:05:15.649Z</time></trkpt><trkpt lat="40.9419117" lon="9.149725"><ele>413.0</ele><time>2026-05-02T11:05:16.65Z</time></trkpt><trkpt lat="40.9417967" lon="9.14962"><ele>415.0</ele><time>2026-05-02T11:05:17.649Z</time></trkpt><trkpt lat="40.9416917" lon="9.14952"><ele>417.0</ele><time>2026-05-02T11:05:18.649Z</time></trkpt><trkpt lat="40.9415767" lon="9.1494383"><ele>419.0</ele><time>2026-05-02T11:05:19.649Z</time></trkpt><trkpt lat="40.9414533" lon="9.149365"><ele>421.0</ele><time>2026-05-02T11:05:20.649Z</time></trkpt><trkpt lat="40.9413183" lon="9.1492833"><ele>421.0</ele><time>2026-05-02T11:05:21.649Z</time></trkpt><trkpt lat="40.94119" lon="9.149185"><ele>421.0</ele><time>2026-05-02T11:05:22.649Z</time></trkpt><trkpt lat="40.9410633" lon="9.1490867"><ele>421.0</ele><time>2026-05-02T11:05:23.649Z</time></trkpt><trkpt lat="40.940935" lon="9.1489433"><ele>422.25</ele><time>2026-05-02T11:05:24.649Z</time></trkpt><trkpt lat="40.9408" lon="9.1488367"><ele>423.5</ele><time>2026-05-02T11:05:25.649Z</time></trkpt><trkpt lat="40.9406717" lon="9.1487333"><ele>424.75</ele><time>2026-05-02T11:05:26.649Z</time></trkpt><trkpt lat="40.9405533" lon="9.1486583"><ele>426.0</ele><time>2026-05-02T11:05:27.649Z</time></trkpt><trkpt lat="40.9404483" lon="9.14859"><ele>426.0</ele><time>2026-05-02T11:05:28.649Z</time></trkpt><trkpt lat="40.9403633" lon="9.148525"><ele>426.0</ele><time>2026-05-02T11:05:29.649Z</time></trkpt><trkpt lat="40.9402717" lon="9.1484433"><ele>426.0</ele><time>2026-05-02T11:05:30.649Z</time></trkpt><trkpt lat="40.940185" lon="9.14835"><ele>426.0</ele><time>2026-05-02T11:05:31.649Z</time></trkpt><trkpt lat="40.9400883" lon="9.1482583"><ele>426.0</ele><time>2026-05-02T11:05:32.649Z</time></trkpt><trkpt lat="40.93999" lon="9.148175"><ele>427.6</ele><time>2026-05-02T11:05:33.649Z</time></trkpt><trkpt lat="40.9399117" lon="9.148085"><ele>429.20000000000005</ele><time>2026-05-02T11:05:34.649Z</time></trkpt><trkpt lat="40.93984" lon="9.148"><ele>430.79999999999995</ele><time>2026-05-02T11:05:35.649Z</time></trkpt><trkpt lat="40.9397717" lon="9.1479133"><ele>432.4</ele><time>2026-05-02T11:05:36.649Z</time></trkpt><trkpt lat="40.939715" lon="9.147815"><ele>434.0</ele><time>2026-05-02T11:05:37.649Z</time></trkpt><trkpt lat="40.9396817" lon="9.1476917"><ele>434.0</ele><time>2026-05-02T11:05:38.649Z</time></trkpt><trkpt lat="40.939655" lon="9.1475833"><ele>434.0</ele><time>2026-05-02T11:05:39.649Z</time></trkpt><trkpt lat="40.93965" lon="9.14745"><ele>434.0</ele><time>2026-05-02T11:05:40.649Z</time></trkpt><trkpt lat="40.939655" lon="9.147275"><ele>434.0</ele><time>2026-05-02T11:05:41.649Z</time></trkpt><trkpt lat="40.93965" lon="9.1470917"><ele>435.0</ele><time>2026-05-02T11:05:42.649Z</time></trkpt><trkpt lat="40.9396317" lon="9.1469383"><ele>436.0</ele><time>2026-05-02T11:05:43.649Z</time></trkpt><trkpt lat="40.939605" lon="9.1468067"><ele>437.0</ele><time>2026-05-02T11:05:44.649Z</time></trkpt><trkpt lat="40.9395817" lon="9.1466883"><ele>438.0</ele><time>2026-05-02T11:05:45.649Z</time></trkpt><trkpt lat="40.939555" lon="9.146585"><ele>439.0</ele><time>2026-05-02T11:05:46.649Z</time></trkpt><trkpt lat="40.9395183" lon="9.146495"><ele>439.2</ele><time>2026-05-02T11:05:47.65Z</time></trkpt><trkpt lat="40.9394717" lon="9.14642"><ele>439.4</ele><time>2026-05-02T11:05:48.649Z</time></trkpt><trkpt lat="40.93941" lon="9.1463183"><ele>439.6</ele><time>2026-05-02T11:05:49.649Z</time></trkpt><trkpt lat="40.9393533" lon="9.1462133"><ele>439.8</ele><time>2026-05-02T11:05:50.649Z</time></trkpt><trkpt lat="40.9392883" lon="9.1461083"><ele>440.0</ele><time>2026-05-02T11:05:51.649Z</time></trkpt><trkpt lat="40.9392383" lon="9.145995"><ele>439.99999999999994</ele><time>2026-05-02T11:05:52.649Z</time></trkpt><trkpt lat="40.939195" lon="9.14591"><ele>440.0</ele><time>2026-05-02T11:05:53.649Z</time></trkpt><trkpt lat="40.9391583" lon="9.1458333"><ele>440.0</ele><time>2026-05-02T11:05:54.649Z</time></trkpt><trkpt lat="40.9391267" lon="9.145755"><ele>440.0</ele><time>2026-05-02T11:05:55.649Z</time></trkpt><trkpt lat="40.9390517" lon="9.14566"><ele>439.99999999999994</ele><time>2026-05-02T11:05:57.649Z</time></trkpt><trkpt lat="40.9389683" lon="9.1456517"><ele>440.0</ele><time>2026-05-02T11:05:59.649Z</time></trkpt><trkpt lat="40.9389117" lon="9.1457217"><ele>440.0</ele><time>2026-05-02T11:06:00.649Z</time></trkpt><trkpt lat="40.9388383" lon="9.1458233"><ele>440.0</ele><time>2026-05-02T11:06:01.649Z</time></trkpt><trkpt lat="40.9387517" lon="9.1459133"><ele>440.0</ele><time>2026-05-02T11:06:02.649Z</time></trkpt><trkpt lat="40.9386733" lon="9.1459667"><ele>440.0</ele><time>2026-05-02T11:06:03.649Z</time></trkpt><trkpt lat="40.9385867" lon="9.1460033"><ele>440.0</ele><time>2026-05-02T11:06:04.649Z</time></trkpt><trkpt lat="40.93852" lon="9.14601"><ele>439.99999999999994</ele><time>2026-05-02T11:06:05.649Z</time></trkpt><trkpt lat="40.938455" lon="9.1460383"><ele>440.0</ele><time>2026-05-02T11:06:06.649Z</time></trkpt><trkpt lat="40.938395" lon="9.1460083"><ele>440.0</ele><time>2026-05-02T11:06:07.649Z</time></trkpt><trkpt lat="40.9383117" lon="9.14593"><ele>440.0</ele><time>2026-05-02T11:06:09.649Z</time></trkpt><trkpt lat="40.938285" lon="9.1458417"><ele>439.99999999999994</ele><time>2026-05-02T11:06:10.649Z</time></trkpt><trkpt lat="40.9382367" lon="9.1457667"><ele>440.0</ele><time>2026-05-02T11:06:11.649Z</time></trkpt><trkpt lat="40.9381833" lon="9.1456917"><ele>441.0</ele><time>2026-05-02T11:06:12.649Z</time></trkpt><trkpt lat="40.9381233" lon="9.1456233"><ele>442.0</ele><time>2026-05-02T11:06:13.649Z</time></trkpt><trkpt lat="40.9380467" lon="9.1455567"><ele>443.0</ele><time>2026-05-02T11:06:14.649Z</time></trkpt><trkpt lat="40.9379633" lon="9.1455033"><ele>444.0</ele><time>2026-05-02T11:06:15.649Z</time></trkpt><trkpt lat="40.9378633" lon="9.1454533"><ele>445.0</ele><time>2026-05-02T11:06:16.649Z</time></trkpt><trkpt lat="40.9377667" lon="9.1454017"><ele>445.0</ele><time>2026-05-02T11:06:17.649Z</time></trkpt><trkpt lat="40.9376767" lon="9.14533"><ele>445.0</ele><time>2026-05-02T11:06:18.649Z</time></trkpt><trkpt lat="40.9375883" lon="9.1452567"><ele>445.0</ele><time>2026-05-02T11:06:19.65Z</time></trkpt><trkpt lat="40.9374967" lon="9.145175"><ele>445.0</ele><time>2026-05-02T11:06:20.649Z</time></trkpt><trkpt lat="40.9373917" lon="9.1451067"><ele>445.0</ele><time>2026-05-02T11:06:21.649Z</time></trkpt><trkpt lat="40.93729" lon="9.14506"><ele>447.25</ele><time>2026-05-02T11:06:22.649Z</time></trkpt><trkpt lat="40.9371833" lon="9.1450233"><ele>449.5</ele><time>2026-05-02T11:06:23.649Z</time></trkpt><trkpt lat="40.9370517" lon="9.14499"><ele>451.75</ele><time>2026-05-02T11:06:24.649Z</time></trkpt><trkpt lat="40.93693" lon="9.14496"><ele>454.0</ele><time>2026-05-02T11:06:25.649Z</time></trkpt><trkpt lat="40.9368167" lon="9.1449267"><ele>456.4</ele><time>2026-05-02T11:06:26.649Z</time></trkpt><trkpt lat="40.936705" lon="9.1448833"><ele>458.79999999999995</ele><time>2026-05-02T11:06:27.649Z</time></trkpt><trkpt lat="40.9365967" lon="9.144835"><ele>461.20000000000005</ele><time>2026-05-02T11:06:28.649Z</time></trkpt><trkpt lat="40.9365017" lon="9.1447833"><ele>463.6</ele><time>2026-05-02T11:06:29.649Z</time></trkpt><trkpt lat="40.9364233" lon="9.1447333"><ele>466.0</ele><time>2026-05-02T11:06:30.649Z</time></trkpt><trkpt lat="40.9363367" lon="9.14466"><ele>466.20000000000005</ele><time>2026-05-02T11:06:31.649Z</time></trkpt><trkpt lat="40.9362683" lon="9.1445567"><ele>466.40000000000003</ele><time>2026-05-02T11:06:32.649Z</time></trkpt><trkpt lat="40.9361967" lon="9.144455"><ele>466.6</ele><time>2026-05-02T11:06:33.649Z</time></trkpt><trkpt lat="40.9361183" lon="9.1443467"><ele>466.8</ele><time>2026-05-02T11:06:34.649Z</time></trkpt><trkpt lat="40.936035" lon="9.14425"><ele>467.0</ele><time>2026-05-02T11:06:35.649Z</time></trkpt><trkpt lat="40.9359417" lon="9.1441767"><ele>467.40000000000003</ele><time>2026-05-02T11:06:36.649Z</time></trkpt><trkpt lat="40.9358417" lon="9.1441483"><ele>467.80000000000007</ele><time>2026-05-02T11:06:37.649Z</time></trkpt><trkpt lat="40.9357333" lon="9.144115"><ele>468.2</ele><time>2026-05-02T11:06:38.649Z</time></trkpt><trkpt lat="40.93563" lon="9.14406"><ele>468.6</ele><time>2026-05-02T11:06:39.649Z</time></trkpt><trkpt lat="40.9355267" lon="9.1439967"><ele>469.0</ele><time>2026-05-02T11:06:40.649Z</time></trkpt><trkpt lat="40.9354383" lon="9.14393"><ele>469.00000000000006</ele><time>2026-05-02T11:06:41.649Z</time></trkpt><trkpt lat="40.93535" lon="9.1438967"><ele>469.0</ele><time>2026-05-02T11:06:42.649Z</time></trkpt><trkpt lat="40.9352667" lon="9.1438917"><ele>469.0</ele><time>2026-05-02T11:06:43.649Z</time></trkpt><trkpt lat="40.9351867" lon="9.14388"><ele>469.0</ele><time>2026-05-02T11:06:44.649Z</time></trkpt><trkpt lat="40.935095" lon="9.143865"><ele>469.00000000000006</ele><time>2026-05-02T11:06:45.649Z</time></trkpt><trkpt lat="40.9349983" lon="9.1438533"><ele>469.0</ele><time>2026-05-02T11:06:46.649Z</time></trkpt><trkpt lat="40.934905" lon="9.1438383"><ele>469.79999999999995</ele><time>2026-05-02T11:06:47.649Z</time></trkpt><trkpt lat="40.93481" lon="9.143815"><ele>470.59999999999997</ele><time>2026-05-02T11:06:48.649Z</time></trkpt><trkpt lat="40.93472" lon="9.1438"><ele>471.4</ele><time>2026-05-02T11:06:49.649Z</time></trkpt><trkpt lat="40.934625" lon="9.1437967"><ele>472.2</ele><time>2026-05-02T11:06:50.649Z</time></trkpt><trkpt lat="40.9345333" lon="9.1437733"><ele>473.0</ele><time>2026-05-02T11:06:51.649Z</time></trkpt><trkpt lat="40.9344383" lon="9.1437433"><ele>473.0</ele><time>2026-05-02T11:06:52.649Z</time></trkpt><trkpt lat="40.9343417" lon="9.14372"><ele>472.99999999999994</ele><time>2026-05-02T11:06:53.649Z</time></trkpt><trkpt lat="40.9342467" lon="9.143705"><ele>472.99999999999994</ele><time>2026-05-02T11:06:54.649Z</time></trkpt><trkpt lat="40.9341583" lon="9.143675"><ele>473.0</ele><time>2026-05-02T11:06:55.649Z</time></trkpt><trkpt lat="40.93406" lon="9.1436217"><ele>473.0</ele><time>2026-05-02T11:06:56.649Z</time></trkpt><trkpt lat="40.933975" lon="9.1435533"><ele>473.79999999999995</ele><time>2026-05-02T11:06:57.649Z</time></trkpt><trkpt lat="40.9338917" lon="9.143485"><ele>474.59999999999997</ele><time>2026-05-02T11:06:58.649Z</time></trkpt><trkpt lat="40.933815" lon="9.143405"><ele>475.40000000000003</ele><time>2026-05-02T11:06:59.65Z</time></trkpt><trkpt lat="40.93375" lon="9.1433233"><ele>476.20000000000005</ele><time>2026-05-02T11:07:00.649Z</time></trkpt><trkpt lat="40.933675" lon="9.14325"><ele>477.0</ele><time>2026-05-02T11:07:01.649Z</time></trkpt><trkpt lat="40.9336017" lon="9.143185"><ele>476.0</ele><time>2026-05-02T11:07:02.65Z</time></trkpt><trkpt lat="40.9335233" lon="9.14315"><ele>475.00000000000006</ele><time>2026-05-02T11:07:03.65Z</time></trkpt><trkpt lat="40.9334317" lon="9.1431267"><ele>474.00000000000006</ele><time>2026-05-02T11:07:04.649Z</time></trkpt><trkpt lat="40.9333317" lon="9.1431167"><ele>473.0</ele><time>2026-05-02T11:07:05.649Z</time></trkpt><trkpt lat="40.9332333" lon="9.1431333"><ele>472.0</ele><time>2026-05-02T11:07:06.65Z</time></trkpt><trkpt lat="40.9331467" lon="9.143145"><ele>472.00000000000006</ele><time>2026-05-02T11:07:07.649Z</time></trkpt><trkpt lat="40.9330733" lon="9.14316"><ele>472.0</ele><time>2026-05-02T11:07:08.649Z</time></trkpt><trkpt lat="40.9330067" lon="9.143175"><ele>472.0</ele><time>2026-05-02T11:07:09.649Z</time></trkpt><trkpt lat="40.9329483" lon="9.1432167"><ele>472.0</ele><time>2026-05-02T11:07:10.649Z</time></trkpt><trkpt lat="40.9328367" lon="9.1433"><ele>472.00000000000006</ele><time>2026-05-02T11:07:12.649Z</time></trkpt><trkpt lat="40.9327733" lon="9.1433567"><ele>472.0</ele><time>2026-05-02T11:07:13.649Z</time></trkpt><trkpt lat="40.9327233" lon="9.1434217"><ele>472.50000000000006</ele><time>2026-05-02T11:07:14.649Z</time></trkpt><trkpt lat="40.9326367" lon="9.1435033"><ele>473.0</ele><time>2026-05-02T11:07:16.649Z</time></trkpt><trkpt lat="40.9325517" lon="9.1435483"><ele>473.5</ele><time>2026-05-02T11:07:18.649Z</time></trkpt><trkpt lat="40.9324867" lon="9.1435433"><ele>474.0</ele><time>2026-05-02T11:07:20.649Z</time></trkpt><trkpt lat="40.9324617" lon="9.1434583"><ele>474.50000000000006</ele><time>2026-05-02T11:07:22.649Z</time></trkpt><trkpt lat="40.9324417" lon="9.143305"><ele>475.0</ele><time>2026-05-02T11:07:24.649Z</time></trkpt><trkpt lat="40.932425" lon="9.1432067"><ele>475.00000000000006</ele><time>2026-05-02T11:07:25.649Z</time></trkpt><trkpt lat="40.9323933" lon="9.1430967"><ele>475.0</ele><time>2026-05-02T11:07:26.649Z</time></trkpt><trkpt lat="40.9323583" lon="9.1429967"><ele>475.0</ele><time>2026-05-02T11:07:27.649Z</time></trkpt><trkpt lat="40.9323283" lon="9.1428883"><ele>475.0</ele><time>2026-05-02T11:07:28.649Z</time></trkpt><trkpt lat="40.93231" lon="9.142775"><ele>475.00000000000006</ele><time>2026-05-02T11:07:29.649Z</time></trkpt><trkpt lat="40.932315" lon="9.142675"><ele>475.0</ele><time>2026-05-02T11:07:30.649Z</time></trkpt><trkpt lat="40.9323367" lon="9.1425833"><ele>475.00000000000006</ele><time>2026-05-02T11:07:31.649Z</time></trkpt><trkpt lat="40.9323667" lon="9.1425067"><ele>475.0</ele><time>2026-05-02T11:07:32.649Z</time></trkpt><trkpt lat="40.9324017" lon="9.142435"><ele>475.0</ele><time>2026-05-02T11:07:33.649Z</time></trkpt><trkpt lat="40.932435" lon="9.1423617"><ele>475.0</ele><time>2026-05-02T11:07:34.649Z</time></trkpt><trkpt lat="40.9324767" lon="9.1422217"><ele>475.00000000000006</ele><time>2026-05-02T11:07:36.649Z</time></trkpt><trkpt lat="40.9324767" lon="9.1421217"><ele>475.0</ele><time>2026-05-02T11:07:38.649Z</time></trkpt><trkpt lat="40.93248" lon="9.1420017"><ele>474.50000000000006</ele><time>2026-05-02T11:07:40.649Z</time></trkpt><trkpt lat="40.9324917" lon="9.141875"><ele>474.0</ele><time>2026-05-02T11:07:42.649Z</time></trkpt><trkpt lat="40.9325067" lon="9.1417467"><ele>473.5</ele><time>2026-05-02T11:07:44.649Z</time></trkpt><trkpt lat="40.932505" lon="9.1416083"><ele>473.0</ele><time>2026-05-02T11:07:46.649Z</time></trkpt><trkpt lat="40.9324983" lon="9.141525"><ele>472.50000000000006</ele><time>2026-05-02T11:07:47.65Z</time></trkpt><trkpt lat="40.9324933" lon="9.1414367"><ele>472.0</ele><time>2026-05-02T11:07:48.649Z</time></trkpt><trkpt lat="40.9324867" lon="9.14135"><ele>470.6</ele><time>2026-05-02T11:07:49.649Z</time></trkpt><trkpt lat="40.9324817" lon="9.1412467"><ele>469.20000000000005</ele><time>2026-05-02T11:07:50.649Z</time></trkpt><trkpt lat="40.932475" lon="9.1411267"><ele>467.8</ele><time>2026-05-02T11:07:51.649Z</time></trkpt><trkpt lat="40.9324717" lon="9.1409883"><ele>466.4</ele><time>2026-05-02T11:07:52.649Z</time></trkpt><trkpt lat="40.932475" lon="9.1408617"><ele>465.0</ele><time>2026-05-02T11:07:53.649Z</time></trkpt><trkpt lat="40.9324783" lon="9.140725"><ele>463.6666666666667</ele><time>2026-05-02T11:07:54.649Z</time></trkpt><trkpt lat="40.93248" lon="9.1406067"><ele>462.33333333333337</ele><time>2026-05-02T11:07:55.649Z</time></trkpt><trkpt lat="40.9324883" lon="9.1405"><ele>461.0</ele><time>2026-05-02T11:07:56.649Z</time></trkpt><trkpt lat="40.932505" lon="9.14041"><ele>459.6666666666667</ele><time>2026-05-02T11:07:57.649Z</time></trkpt><trkpt lat="40.93254" lon="9.14033"><ele>458.33333333333337</ele><time>2026-05-02T11:07:58.649Z</time></trkpt><trkpt lat="40.9325783" lon="9.1402617"><ele>457.0</ele><time>2026-05-02T11:07:59.649Z</time></trkpt><trkpt lat="40.9326717" lon="9.1401317"><ele>455.75</ele><time>2026-05-02T11:08:01.649Z</time></trkpt><trkpt lat="40.93274" lon="9.14003"><ele>454.5</ele><time>2026-05-02T11:08:02.649Z</time></trkpt><trkpt lat="40.932815" lon="9.1399183"><ele>453.25</ele><time>2026-05-02T11:08:03.649Z</time></trkpt><trkpt lat="40.9328933" lon="9.1397933"><ele>452.0</ele><time>2026-05-02T11:08:04.649Z</time></trkpt><trkpt lat="40.9329617" lon="9.1396683"><ele>449.75</ele><time>2026-05-02T11:08:05.649Z</time></trkpt><trkpt lat="40.9330467" lon="9.1395233"><ele>447.5</ele><time>2026-05-02T11:08:06.649Z</time></trkpt><trkpt lat="40.9331167" lon="9.1393917"><ele>445.25</ele><time>2026-05-02T11:08:07.649Z</time></trkpt><trkpt lat="40.9331917" lon="9.1392483"><ele>443.0</ele><time>2026-05-02T11:08:08.649Z</time></trkpt><trkpt lat="40.933255" lon="9.139115"><ele>441.0</ele><time>2026-05-02T11:08:09.649Z</time></trkpt><trkpt lat="40.93333" lon="9.1389667"><ele>439.0</ele><time>2026-05-02T11:08:10.649Z</time></trkpt><trkpt lat="40.933395" lon="9.1388233"><ele>437.0</ele><time>2026-05-02T11:08:11.65Z</time></trkpt><trkpt lat="40.9334667" lon="9.13868"><ele>435.0</ele><time>2026-05-02T11:08:12.649Z</time></trkpt><trkpt lat="40.93353" lon="9.1385317"><ele>434.75</ele><time>2026-05-02T11:08:13.649Z</time></trkpt><trkpt lat="40.9335967" lon="9.1383817"><ele>434.5</ele><time>2026-05-02T11:08:14.649Z</time></trkpt><trkpt lat="40.9336617" lon="9.1382383"><ele>434.25</ele><time>2026-05-02T11:08:15.65Z</time></trkpt><trkpt lat="40.9337383" lon="9.1380867"><ele>434.0</ele><time>2026-05-02T11:08:16.649Z</time></trkpt><trkpt lat="40.9337933" lon="9.1379417"><ele>432.5</ele><time>2026-05-02T11:08:17.649Z</time></trkpt><trkpt lat="40.933835" lon="9.1377917"><ele>431.0</ele><time>2026-05-02T11:08:18.649Z</time></trkpt><trkpt lat="40.9338783" lon="9.13763"><ele>429.5</ele><time>2026-05-02T11:08:19.649Z</time></trkpt><trkpt lat="40.933915" lon="9.1374583"><ele>428.0</ele><time>2026-05-02T11:08:20.65Z</time></trkpt><trkpt lat="40.93395" lon="9.1372817"><ele>427.5</ele><time>2026-05-02T11:08:21.649Z</time></trkpt><trkpt lat="40.9339917" lon="9.137095"><ele>427.0</ele><time>2026-05-02T11:08:22.648Z</time></trkpt><trkpt lat="40.9340233" lon="9.1369117"><ele>426.5</ele><time>2026-05-02T11:08:23.648Z</time></trkpt><trkpt lat="40.9340567" lon="9.13672"><ele>426.0</ele><time>2026-05-02T11:08:24.648Z</time></trkpt><trkpt lat="40.93409" lon="9.1365433"><ele>425.5</ele><time>2026-05-02T11:08:25.648Z</time></trkpt><trkpt lat="40.93412" lon="9.136365"><ele>425.0</ele><time>2026-05-02T11:08:26.649Z</time></trkpt><trkpt lat="40.934155" lon="9.136205"><ele>424.5</ele><time>2026-05-02T11:08:27.648Z</time></trkpt><trkpt lat="40.93419" lon="9.13606"><ele>424.0</ele><time>2026-05-02T11:08:28.648Z</time></trkpt><trkpt lat="40.9342233" lon="9.1359167"><ele>424.1666666666667</ele><time>2026-05-02T11:08:29.648Z</time></trkpt><trkpt lat="40.9342617" lon="9.13579"><ele>424.33333333333337</ele><time>2026-05-02T11:08:30.648Z</time></trkpt><trkpt lat="40.934305" lon="9.13568"><ele>424.5</ele><time>2026-05-02T11:08:31.648Z</time></trkpt><trkpt lat="40.9343533" lon="9.13558"><ele>424.66666666666663</ele><time>2026-05-02T11:08:32.648Z</time></trkpt><trkpt lat="40.9343917" lon="9.1354783"><ele>424.8333333333333</ele><time>2026-05-02T11:08:33.648Z</time></trkpt><trkpt lat="40.93442" lon="9.1353883"><ele>425.0</ele><time>2026-05-02T11:08:34.648Z</time></trkpt><trkpt lat="40.9344417" lon="9.1353"><ele>424.99999999999994</ele><time>2026-05-02T11:08:35.648Z</time></trkpt><trkpt lat="40.9344383" lon="9.1351967"><ele>425.0</ele><time>2026-05-02T11:08:36.648Z</time></trkpt><trkpt lat="40.9344233" lon="9.1350967"><ele>425.0</ele><time>2026-05-02T11:08:37.648Z</time></trkpt><trkpt lat="40.9344233" lon="9.13501"><ele>425.0</ele><time>2026-05-02T11:08:38.648Z</time></trkpt><trkpt lat="40.9344367" lon="9.1349117"><ele>424.99999999999994</ele><time>2026-05-02T11:08:39.648Z</time></trkpt><trkpt lat="40.9344567" lon="9.1348083"><ele>425.0</ele><time>2026-05-02T11:08:40.648Z</time></trkpt><trkpt lat="40.9344833" lon="9.1346867"><ele>426.0</ele><time>2026-05-02T11:08:41.648Z</time></trkpt><trkpt lat="40.9345417" lon="9.134565"><ele>427.0</ele><time>2026-05-02T11:08:42.648Z</time></trkpt><trkpt lat="40.9346083" lon="9.134445"><ele>428.0</ele><time>2026-05-02T11:08:43.648Z</time></trkpt><trkpt lat="40.9346817" lon="9.1343267"><ele>429.0</ele><time>2026-05-02T11:08:44.648Z</time></trkpt><trkpt lat="40.9347667" lon="9.134215"><ele>429.0</ele><time>2026-05-02T11:08:45.648Z</time></trkpt><trkpt lat="40.9348717" lon="9.1340817"><ele>429.0</ele><time>2026-05-02T11:08:46.648Z</time></trkpt><trkpt lat="40.9349483" lon="9.13395"><ele>429.0</ele><time>2026-05-02T11:08:47.648Z</time></trkpt><trkpt lat="40.9350417" lon="9.1338033"><ele>429.0</ele><time>2026-05-02T11:08:48.648Z</time></trkpt><trkpt lat="40.9351333" lon="9.1336567"><ele>434.25</ele><time>2026-05-02T11:08:49.648Z</time></trkpt><trkpt lat="40.9352233" lon="9.133505"><ele>439.5</ele><time>2026-05-02T11:08:50.648Z</time></trkpt><trkpt lat="40.9353167" lon="9.13336"><ele>444.75</ele><time>2026-05-02T11:08:51.648Z</time></trkpt><trkpt lat="40.9354017" lon="9.13322"><ele>450.0</ele><time>2026-05-02T11:08:52.648Z</time></trkpt><trkpt lat="40.9354833" lon="9.133085"><ele>452.25</ele><time>2026-05-02T11:08:53.648Z</time></trkpt><trkpt lat="40.9355533" lon="9.1329517"><ele>454.5</ele><time>2026-05-02T11:08:54.648Z</time></trkpt><trkpt lat="40.9356017" lon="9.1328167"><ele>456.75</ele><time>2026-05-02T11:08:55.648Z</time></trkpt><trkpt lat="40.9356417" lon="9.1326783"><ele>459.0</ele><time>2026-05-02T11:08:56.648Z</time></trkpt><trkpt lat="40.9356767" lon="9.1325283"><ele>458.75</ele><time>2026-05-02T11:08:57.648Z</time></trkpt><trkpt lat="40.9357" lon="9.132375"><ele>458.5</ele><time>2026-05-02T11:08:58.648Z</time></trkpt><trkpt lat="40.93572" lon="9.1322317"><ele>458.25</ele><time>2026-05-02T11:08:59.648Z</time></trkpt><trkpt lat="40.9357517" lon="9.1320733"><ele>458.0</ele><time>2026-05-02T11:09:00.648Z</time></trkpt><trkpt lat="40.9357633" lon="9.1319233"><ele>458.0</ele><time>2026-05-02T11:09:01.648Z</time></trkpt><trkpt lat="40.9357833" lon="9.131785"><ele>458.0</ele><time>2026-05-02T11:09:02.648Z</time></trkpt><trkpt lat="40.9357883" lon="9.1316433"><ele>458.0</ele><time>2026-05-02T11:09:03.648Z</time></trkpt><trkpt lat="40.9358083" lon="9.1314883"><ele>458.0</ele><time>2026-05-02T11:09:04.648Z</time></trkpt><trkpt lat="40.935815" lon="9.13131"><ele>456.5</ele><time>2026-05-02T11:09:05.648Z</time></trkpt><trkpt lat="40.9358283" lon="9.131145"><ele>455.0</ele><time>2026-05-02T11:09:06.648Z</time></trkpt><trkpt lat="40.9358417" lon="9.1309767"><ele>453.5</ele><time>2026-05-02T11:09:07.648Z</time></trkpt><trkpt lat="40.9358583" lon="9.1308033"><ele>452.0</ele><time>2026-05-02T11:09:08.648Z</time></trkpt><trkpt lat="40.9358767" lon="9.130625"><ele>449.75</ele><time>2026-05-02T11:09:09.648Z</time></trkpt><trkpt lat="40.935895" lon="9.1304533"><ele>447.5</ele><time>2026-05-02T11:09:10.648Z</time></trkpt><trkpt lat="40.93592" lon="9.1303"><ele>445.25</ele><time>2026-05-02T11:09:11.648Z</time></trkpt><trkpt lat="40.935945" lon="9.1301517"><ele>443.0</ele><time>2026-05-02T11:09:12.648Z</time></trkpt><trkpt lat="40.9359583" lon="9.1300067"><ele>442.2</ele><time>2026-05-02T11:09:13.648Z</time></trkpt><trkpt lat="40.9359583" lon="9.129865"><ele>441.4</ele><time>2026-05-02T11:09:14.648Z</time></trkpt><trkpt lat="40.935965" lon="9.1297233"><ele>440.59999999999997</ele><time>2026-05-02T11:09:15.648Z</time></trkpt><trkpt lat="40.9359617" lon="9.1295717"><ele>439.79999999999995</ele><time>2026-05-02T11:09:16.648Z</time></trkpt><trkpt lat="40.9359483" lon="9.129425"><ele>439.0</ele><time>2026-05-02T11:09:17.648Z</time></trkpt><trkpt lat="40.9359383" lon="9.1292583"><ele>439.0</ele><time>2026-05-02T11:09:18.648Z</time></trkpt><trkpt lat="40.9359367" lon="9.1290683"><ele>439.0</ele><time>2026-05-02T11:09:19.648Z</time></trkpt><trkpt lat="40.9359333" lon="9.1288783"><ele>439.0</ele><time>2026-05-02T11:09:20.648Z</time></trkpt><trkpt lat="40.9359383" lon="9.1287317"><ele>439.0</ele><time>2026-05-02T11:09:21.648Z</time></trkpt><trkpt lat="40.93593" lon="9.1285917"><ele>439.25</ele><time>2026-05-02T11:09:22.648Z</time></trkpt><trkpt lat="40.9359083" lon="9.1284367"><ele>439.5</ele><time>2026-05-02T11:09:23.648Z</time></trkpt><trkpt lat="40.9358833" lon="9.1282917"><ele>439.75</ele><time>2026-05-02T11:09:24.648Z</time></trkpt><trkpt lat="40.9358533" lon="9.128155"><ele>440.0</ele><time>2026-05-02T11:09:25.648Z</time></trkpt><trkpt lat="40.9357933" lon="9.1280233"><ele>438.8333333333333</ele><time>2026-05-02T11:09:26.648Z</time></trkpt><trkpt lat="40.93573" lon="9.1279267"><ele>437.66666666666663</ele><time>2026-05-02T11:09:27.648Z</time></trkpt><trkpt lat="40.935675" lon="9.1278433"><ele>436.5</ele><time>2026-05-02T11:09:28.648Z</time></trkpt><trkpt lat="40.9356417" lon="9.1277567"><ele>435.33333333333337</ele><time>2026-05-02T11:09:29.648Z</time></trkpt><trkpt lat="40.9356283" lon="9.1276083"><ele>434.1666666666667</ele><time>2026-05-02T11:09:31.648Z</time></trkpt><trkpt lat="40.935655" lon="9.12753"><ele>433.0</ele><time>2026-05-02T11:09:32.648Z</time></trkpt><trkpt lat="40.9356983" lon="9.1274667"><ele>433.0</ele><time>2026-05-02T11:09:33.648Z</time></trkpt><trkpt lat="40.9357633" lon="9.1274033"><ele>432.99999999999994</ele><time>2026-05-02T11:09:34.648Z</time></trkpt><trkpt lat="40.93584" lon="9.127355"><ele>432.99999999999994</ele><time>2026-05-02T11:09:35.648Z</time></trkpt><trkpt lat="40.9359217" lon="9.12729"><ele>433.0</ele><time>2026-05-02T11:09:36.648Z</time></trkpt><trkpt lat="40.9360117" lon="9.12722"><ele>433.0</ele><time>2026-05-02T11:09:37.648Z</time></trkpt><trkpt lat="40.9361017" lon="9.1271417"><ele>433.83333333333337</ele><time>2026-05-02T11:09:38.648Z</time></trkpt><trkpt lat="40.9361683" lon="9.1270833"><ele>434.6666666666667</ele><time>2026-05-02T11:09:39.648Z</time></trkpt><trkpt lat="40.9362617" lon="9.127045"><ele>435.5</ele><time>2026-05-02T11:09:40.648Z</time></trkpt><trkpt lat="40.936315" lon="9.126965"><ele>436.33333333333337</ele><time>2026-05-02T11:09:41.648Z</time></trkpt><trkpt lat="40.93638" lon="9.126875"><ele>437.1666666666667</ele><time>2026-05-02T11:09:42.648Z</time></trkpt><trkpt lat="40.9364467" lon="9.1267867"><ele>438.0</ele><time>2026-05-02T11:09:43.648Z</time></trkpt><trkpt lat="40.9365117" lon="9.1266683"><ele>440.0</ele><time>2026-05-02T11:09:44.648Z</time></trkpt><trkpt lat="40.9365667" lon="9.1265367"><ele>442.0</ele><time>2026-05-02T11:09:45.648Z</time></trkpt><trkpt lat="40.9366133" lon="9.126385"><ele>444.0</ele><time>2026-05-02T11:09:46.648Z</time></trkpt><trkpt lat="40.93665" lon="9.1262017"><ele>446.0</ele><time>2026-05-02T11:09:47.648Z</time></trkpt><trkpt lat="40.9366833" lon="9.1260433"><ele>448.5</ele><time>2026-05-02T11:09:48.648Z</time></trkpt><trkpt lat="40.9367233" lon="9.1258983"><ele>451.0</ele><time>2026-05-02T11:09:49.648Z</time></trkpt><trkpt lat="40.9367683" lon="9.1257483"><ele>453.5</ele><time>2026-05-02T11:09:50.648Z</time></trkpt><trkpt lat="40.93682" lon="9.1255983"><ele>456.0</ele><time>2026-05-02T11:09:51.648Z</time></trkpt><trkpt lat="40.93687" lon="9.125435"><ele>457.5</ele><time>2026-05-02T11:09:52.648Z</time></trkpt><trkpt lat="40.936915" lon="9.125275"><ele>459.0</ele><time>2026-05-02T11:09:53.648Z</time></trkpt><trkpt lat="40.936965" lon="9.1251233"><ele>460.5</ele><time>2026-05-02T11:09:54.648Z</time></trkpt><trkpt lat="40.93701" lon="9.12496"><ele>462.0</ele><time>2026-05-02T11:09:55.648Z</time></trkpt><trkpt lat="40.9370533" lon="9.1247983"><ele>464.0</ele><time>2026-05-02T11:09:56.648Z</time></trkpt><trkpt lat="40.9371" lon="9.1246367"><ele>466.0</ele><time>2026-05-02T11:09:57.648Z</time></trkpt><trkpt lat="40.9371317" lon="9.124465"><ele>468.0</ele><time>2026-05-02T11:09:58.648Z</time></trkpt><trkpt lat="40.937155" lon="9.1243067"><ele>470.0</ele><time>2026-05-02T11:09:59.649Z</time></trkpt><trkpt lat="40.937185" lon="9.1241533"><ele>470.99999999999994</ele><time>2026-05-02T11:10:00.648Z</time></trkpt><trkpt lat="40.9372233" lon="9.1240283"><ele>472.0</ele><time>2026-05-02T11:10:01.648Z</time></trkpt><trkpt lat="40.9372567" lon="9.123915"><ele>473.0</ele><time>2026-05-02T11:10:02.648Z</time></trkpt><trkpt lat="40.9372967" lon="9.123825"><ele>474.0</ele><time>2026-05-02T11:10:03.648Z</time></trkpt><trkpt lat="40.9373333" lon="9.123745"><ele>474.99999999999994</ele><time>2026-05-02T11:10:04.648Z</time></trkpt><trkpt lat="40.937375" lon="9.12368"><ele>476.0</ele><time>2026-05-02T11:10:05.648Z</time></trkpt><trkpt lat="40.9374433" lon="9.1235617"><ele>475.99999999999994</ele><time>2026-05-02T11:10:07.648Z</time></trkpt><trkpt lat="40.9374617" lon="9.12346"><ele>476.0</ele><time>2026-05-02T11:10:08.648Z</time></trkpt><trkpt lat="40.9374767" lon="9.12335"><ele>476.0</ele><time>2026-05-02T11:10:09.648Z</time></trkpt><trkpt lat="40.937485" lon="9.1232417"><ele>476.0</ele><time>2026-05-02T11:10:10.648Z</time></trkpt><trkpt lat="40.9374933" lon="9.123115"><ele>475.99999999999994</ele><time>2026-05-02T11:10:11.648Z</time></trkpt><trkpt lat="40.93749" lon="9.1229767"><ele>476.0</ele><time>2026-05-02T11:10:12.648Z</time></trkpt><trkpt lat="40.9374883" lon="9.1228483"><ele>475.8333333333333</ele><time>2026-05-02T11:10:13.648Z</time></trkpt><trkpt lat="40.937475" lon="9.122745"><ele>475.66666666666663</ele><time>2026-05-02T11:10:14.648Z</time></trkpt><trkpt lat="40.93746" lon="9.122645"><ele>475.5</ele><time>2026-05-02T11:10:15.648Z</time></trkpt><trkpt lat="40.9374383" lon="9.1225567"><ele>475.33333333333337</ele><time>2026-05-02T11:10:16.648Z</time></trkpt><trkpt lat="40.937375" lon="9.1224067"><ele>475.1666666666667</ele><time>2026-05-02T11:10:18.648Z</time></trkpt><trkpt lat="40.9373183" lon="9.12234"><ele>475.0</ele><time>2026-05-02T11:10:19.648Z</time></trkpt><trkpt lat="40.93722" lon="9.1223283"><ele>474.6</ele><time>2026-05-02T11:10:20.648Z</time></trkpt><trkpt lat="40.937115" lon="9.1223133"><ele>474.2</ele><time>2026-05-02T11:10:21.648Z</time></trkpt><trkpt lat="40.9370217" lon="9.1223067"><ele>473.79999999999995</ele><time>2026-05-02T11:10:22.648Z</time></trkpt><trkpt lat="40.9369133" lon="9.1223267"><ele>473.4</ele><time>2026-05-02T11:10:23.648Z</time></trkpt><trkpt lat="40.9368117" lon="9.122365"><ele>473.0</ele><time>2026-05-02T11:10:24.648Z</time></trkpt><trkpt lat="40.9367183" lon="9.1224067"><ele>473.0</ele><time>2026-05-02T11:10:25.648Z</time></trkpt><trkpt lat="40.936625" lon="9.1224733"><ele>472.99999999999994</ele><time>2026-05-02T11:10:26.648Z</time></trkpt><trkpt lat="40.9365417" lon="9.1225917"><ele>472.99999999999994</ele><time>2026-05-02T11:10:27.648Z</time></trkpt><trkpt lat="40.93646" lon="9.1226867"><ele>473.0</ele><time>2026-05-02T11:10:28.648Z</time></trkpt><trkpt lat="40.9363867" lon="9.1227717"><ele>473.0</ele><time>2026-05-02T11:10:29.649Z</time></trkpt><trkpt lat="40.93631" lon="9.1228383"><ele>472.99999999999994</ele><time>2026-05-02T11:10:30.648Z</time></trkpt><trkpt lat="40.9362283" lon="9.1228767"><ele>473.0</ele><time>2026-05-02T11:10:31.648Z</time></trkpt><trkpt lat="40.9361533" lon="9.1229067"><ele>473.0</ele><time>2026-05-02T11:10:32.648Z</time></trkpt><trkpt lat="40.9360867" lon="9.12288"><ele>473.0</ele><time>2026-05-02T11:10:33.648Z</time></trkpt><trkpt lat="40.9360217" lon="9.1228233"><ele>472.99999999999994</ele><time>2026-05-02T11:10:34.648Z</time></trkpt><trkpt lat="40.9359583" lon="9.1227367"><ele>473.0</ele><time>2026-05-02T11:10:35.648Z</time></trkpt><trkpt lat="40.9358883" lon="9.1226683"><ele>472.59999999999997</ele><time>2026-05-02T11:10:36.648Z</time></trkpt><trkpt lat="40.93582" lon="9.1225967"><ele>472.19999999999993</ele><time>2026-05-02T11:10:37.648Z</time></trkpt><trkpt lat="40.93575" lon="9.1225383"><ele>471.8</ele><time>2026-05-02T11:10:38.648Z</time></trkpt><trkpt lat="40.9356617" lon="9.1224883"><ele>471.4</ele><time>2026-05-02T11:10:39.648Z</time></trkpt><trkpt lat="40.9355667" lon="9.1224617"><ele>471.0</ele><time>2026-05-02T11:10:40.648Z</time></trkpt><trkpt lat="40.9354767" lon="9.1224367"><ele>471.0</ele><time>2026-05-02T11:10:41.648Z</time></trkpt><trkpt lat="40.9353917" lon="9.1224217"><ele>471.0</ele><time>2026-05-02T11:10:42.648Z</time></trkpt><trkpt lat="40.935315" lon="9.122405"><ele>471.0</ele><time>2026-05-02T11:10:43.648Z</time></trkpt><trkpt lat="40.9352267" lon="9.1223883"><ele>471.0</ele><time>2026-05-02T11:10:44.648Z</time></trkpt><trkpt lat="40.935135" lon="9.1223783"><ele>471.0</ele><time>2026-05-02T11:10:45.648Z</time></trkpt><trkpt lat="40.93504" lon="9.1223767"><ele>471.0</ele><time>2026-05-02T11:10:46.648Z</time></trkpt><trkpt lat="40.934955" lon="9.1223967"><ele>470.4</ele><time>2026-05-02T11:10:47.648Z</time></trkpt><trkpt lat="40.9348617" lon="9.1224133"><ele>469.8</ele><time>2026-05-02T11:10:48.648Z</time></trkpt><trkpt lat="40.9347617" lon="9.122425"><ele>469.19999999999993</ele><time>2026-05-02T11:10:49.648Z</time></trkpt><trkpt lat="40.9346417" lon="9.1224033"><ele>468.59999999999997</ele><time>2026-05-02T11:10:50.648Z</time></trkpt><trkpt lat="40.9345233" lon="9.1223733"><ele>468.0</ele><time>2026-05-02T11:10:51.648Z</time></trkpt><trkpt lat="40.9343967" lon="9.1223283"><ele>468.75</ele><time>2026-05-02T11:10:52.648Z</time></trkpt><trkpt lat="40.9342633" lon="9.12225"><ele>469.5</ele><time>2026-05-02T11:10:53.648Z</time></trkpt><trkpt lat="40.93414" lon="9.1222067"><ele>470.25</ele><time>2026-05-02T11:10:54.648Z</time></trkpt><trkpt lat="40.9340083" lon="9.1221717"><ele>471.0</ele><time>2026-05-02T11:10:55.648Z</time></trkpt><trkpt lat="40.933895" lon="9.12212"><ele>471.0</ele><time>2026-05-02T11:10:56.649Z</time></trkpt><trkpt lat="40.9337683" lon="9.122085"><ele>471.0</ele><time>2026-05-02T11:10:57.648Z</time></trkpt><trkpt lat="40.9336467" lon="9.122055"><ele>471.0</ele><time>2026-05-02T11:10:58.648Z</time></trkpt><trkpt lat="40.9335267" lon="9.1220217"><ele>471.0</ele><time>2026-05-02T11:10:59.649Z</time></trkpt><trkpt lat="40.9334217" lon="9.12198"><ele>470.8</ele><time>2026-05-02T11:11:00.648Z</time></trkpt><trkpt lat="40.9333167" lon="9.1219383"><ele>470.6</ele><time>2026-05-02T11:11:01.648Z</time></trkpt><trkpt lat="40.9332067" lon="9.1219067"><ele>470.4</ele><time>2026-05-02T11:11:02.648Z</time></trkpt><trkpt lat="40.933095" lon="9.1218933"><ele>470.2</ele><time>2026-05-02T11:11:03.648Z</time></trkpt><trkpt lat="40.9329883" lon="9.1219"><ele>470.0</ele><time>2026-05-02T11:11:04.648Z</time></trkpt><trkpt lat="40.932885" lon="9.1219067"><ele>470.0</ele><time>2026-05-02T11:11:05.649Z</time></trkpt><trkpt lat="40.9327983" lon="9.1219017"><ele>470.0</ele><time>2026-05-02T11:11:06.648Z</time></trkpt><trkpt lat="40.9327033" lon="9.1218733"><ele>470.0</ele><time>2026-05-02T11:11:07.648Z</time></trkpt><trkpt lat="40.9326083" lon="9.12183"><ele>470.0</ele><time>2026-05-02T11:11:08.648Z</time></trkpt><trkpt lat="40.9325133" lon="9.1217833"><ele>470.0</ele><time>2026-05-02T11:11:09.648Z</time></trkpt><trkpt lat="40.93242" lon="9.12174"><ele>471.3333333333333</ele><time>2026-05-02T11:11:10.648Z</time></trkpt><trkpt lat="40.9323367" lon="9.1216767"><ele>472.66666666666663</ele><time>2026-05-02T11:11:11.648Z</time></trkpt><trkpt lat="40.9322667" lon="9.1216433"><ele>474.0</ele><time>2026-05-02T11:11:12.648Z</time></trkpt><trkpt lat="40.9322" lon="9.1216383"><ele>475.33333333333337</ele><time>2026-05-02T11:11:13.648Z</time></trkpt><trkpt lat="40.93213" lon="9.1216417"><ele>476.6666666666667</ele><time>2026-05-02T11:11:14.648Z</time></trkpt><trkpt lat="40.9320533" lon="9.12164"><ele>478.0</ele><time>2026-05-02T11:11:15.648Z</time></trkpt><trkpt lat="40.931965" lon="9.1216317"><ele>478.0</ele><time>2026-05-02T11:11:16.648Z</time></trkpt><trkpt lat="40.9318733" lon="9.12162"><ele>477.99999999999994</ele><time>2026-05-02T11:11:17.648Z</time></trkpt><trkpt lat="40.9317767" lon="9.1215917"><ele>477.99999999999994</ele><time>2026-05-02T11:11:18.648Z</time></trkpt><trkpt lat="40.9316717" lon="9.1215433"><ele>478.0</ele><time>2026-05-02T11:11:19.648Z</time></trkpt><trkpt lat="40.9315583" lon="9.1214783"><ele>478.0</ele><time>2026-05-02T11:11:20.648Z</time></trkpt><trkpt lat="40.931435" lon="9.12141"><ele>479.25</ele><time>2026-05-02T11:11:21.648Z</time></trkpt><trkpt lat="40.9313167" lon="9.1213317"><ele>480.5</ele><time>2026-05-02T11:11:22.648Z</time></trkpt><trkpt lat="40.931205" lon="9.12123"><ele>481.75</ele><time>2026-05-02T11:11:23.648Z</time></trkpt><trkpt lat="40.93109" lon="9.1211133"><ele>483.0</ele><time>2026-05-02T11:11:24.648Z</time></trkpt><trkpt lat="40.9309833" lon="9.1210233"><ele>483.0</ele><time>2026-05-02T11:11:25.648Z</time></trkpt><trkpt lat="40.9308917" lon="9.120925"><ele>483.0</ele><time>2026-05-02T11:11:26.648Z</time></trkpt><trkpt lat="40.9308067" lon="9.12082"><ele>483.0</ele><time>2026-05-02T11:11:27.648Z</time></trkpt><trkpt lat="40.9307283" lon="9.1207133"><ele>483.0</ele><time>2026-05-02T11:11:28.648Z</time></trkpt><trkpt lat="40.9306383" lon="9.120625"><ele>483.75</ele><time>2026-05-02T11:11:29.648Z</time></trkpt><trkpt lat="40.9305417" lon="9.1205533"><ele>484.5</ele><time>2026-05-02T11:11:30.648Z</time></trkpt><trkpt lat="40.9304417" lon="9.1204867"><ele>485.25</ele><time>2026-05-02T11:11:31.648Z</time></trkpt><trkpt lat="40.930335" lon="9.120425"><ele>486.0</ele><time>2026-05-02T11:11:32.648Z</time></trkpt><trkpt lat="40.930225" lon="9.120365"><ele>486.0</ele><time>2026-05-02T11:11:33.648Z</time></trkpt><trkpt lat="40.930085" lon="9.1203167"><ele>486.0</ele><time>2026-05-02T11:11:34.648Z</time></trkpt><trkpt lat="40.92997" lon="9.12029"><ele>486.0</ele><time>2026-05-02T11:11:35.648Z</time></trkpt><trkpt lat="40.9298417" lon="9.12028"><ele>486.0</ele><time>2026-05-02T11:11:36.648Z</time></trkpt><trkpt lat="40.9296933" lon="9.1202417"><ele>487.0</ele><time>2026-05-02T11:11:37.648Z</time></trkpt><trkpt lat="40.9295667" lon="9.1202017"><ele>488.0</ele><time>2026-05-02T11:11:38.648Z</time></trkpt><trkpt lat="40.9294483" lon="9.1201717"><ele>489.0</ele><time>2026-05-02T11:11:39.648Z</time></trkpt><trkpt lat="40.9293333" lon="9.1201217"><ele>490.0</ele><time>2026-05-02T11:11:40.648Z</time></trkpt><trkpt lat="40.929225" lon="9.12009"><ele>491.8</ele><time>2026-05-02T11:11:41.648Z</time></trkpt><trkpt lat="40.9291217" lon="9.1200583"><ele>493.6</ele><time>2026-05-02T11:11:42.648Z</time></trkpt><trkpt lat="40.9290167" lon="9.12004"><ele>495.4</ele><time>2026-05-02T11:11:43.649Z</time></trkpt><trkpt lat="40.928915" lon="9.12004"><ele>497.2</ele><time>2026-05-02T11:11:44.648Z</time></trkpt><trkpt lat="40.9288217" lon="9.1200567"><ele>499.0</ele><time>2026-05-02T11:11:45.648Z</time></trkpt><trkpt lat="40.9287233" lon="9.12007"><ele>499.0</ele><time>2026-05-02T11:11:46.648Z</time></trkpt><trkpt lat="40.9286083" lon="9.1200867"><ele>499.0</ele><time>2026-05-02T11:11:47.648Z</time></trkpt><trkpt lat="40.9284767" lon="9.1200983"><ele>499.0</ele><time>2026-05-02T11:11:48.648Z</time></trkpt><trkpt lat="40.9283617" lon="9.1201317"><ele>499.0</ele><time>2026-05-02T11:11:49.648Z</time></trkpt><trkpt lat="40.9282467" lon="9.1201517"><ele>501.0</ele><time>2026-05-02T11:11:50.648Z</time></trkpt><trkpt lat="40.9281333" lon="9.12017"><ele>503.0</ele><time>2026-05-02T11:11:51.648Z</time></trkpt><trkpt lat="40.9280133" lon="9.1201867"><ele>505.0</ele><time>2026-05-02T11:11:52.648Z</time></trkpt><trkpt lat="40.927895" lon="9.120195"><ele>507.0</ele><time>2026-05-02T11:11:53.648Z</time></trkpt><trkpt lat="40.927775" lon="9.1202033"><ele>507.0</ele><time>2026-05-02T11:11:54.648Z</time></trkpt><trkpt lat="40.9276617" lon="9.1201917"><ele>507.0</ele><time>2026-05-02T11:11:55.648Z</time></trkpt><trkpt lat="40.92753" lon="9.1201817"><ele>507.0</ele><time>2026-05-02T11:11:56.648Z</time></trkpt><trkpt lat="40.9274117" lon="9.1201733"><ele>507.0</ele><time>2026-05-02T11:11:57.648Z</time></trkpt><trkpt lat="40.9273133" lon="9.1201767"><ele>507.3333333333333</ele><time>2026-05-02T11:11:58.648Z</time></trkpt><trkpt lat="40.927215" lon="9.1201867"><ele>507.66666666666663</ele><time>2026-05-02T11:11:59.648Z</time></trkpt><trkpt lat="40.9271167" lon="9.12019"><ele>508.0</ele><time>2026-05-02T11:12:00.648Z</time></trkpt><trkpt lat="40.927035" lon="9.1201783"><ele>508.3333333333333</ele><time>2026-05-02T11:12:01.648Z</time></trkpt><trkpt lat="40.9269583" lon="9.1201567"><ele>508.66666666666663</ele><time>2026-05-02T11:12:02.648Z</time></trkpt><trkpt lat="40.9268817" lon="9.12014"><ele>509.0</ele><time>2026-05-02T11:12:03.649Z</time></trkpt><trkpt lat="40.9268167" lon="9.1201183"><ele>508.99999999999994</ele><time>2026-05-02T11:12:04.648Z</time></trkpt><trkpt lat="40.9267367" lon="9.1201"><ele>509.0</ele><time>2026-05-02T11:12:06.649Z</time></trkpt><trkpt lat="40.9267317" lon="9.120185"><ele>509.0</ele><time>2026-05-02T11:12:11.648Z</time></trkpt><trkpt lat="40.9267317" lon="9.1202933"><ele>509.0</ele><time>2026-05-02T11:12:14.648Z</time></trkpt><trkpt lat="40.9266883" lon="9.1203733"><ele>508.99999999999994</ele><time>2026-05-02T11:12:16.648Z</time></trkpt><trkpt lat="40.92661" lon="9.1204417"><ele>509.0</ele><time>2026-05-02T11:12:18.648Z</time></trkpt><trkpt lat="40.9264867" lon="9.1205133"><ele>508.8333333333333</ele><time>2026-05-02T11:12:20.648Z</time></trkpt><trkpt lat="40.9264067" lon="9.1205567"><ele>508.66666666666663</ele><time>2026-05-02T11:12:21.648Z</time></trkpt><trkpt lat="40.9263183" lon="9.1205967"><ele>508.5</ele><time>2026-05-02T11:12:22.648Z</time></trkpt><trkpt lat="40.926235" lon="9.12065"><ele>508.33333333333337</ele><time>2026-05-02T11:12:23.648Z</time></trkpt><trkpt lat="40.926155" lon="9.1206933"><ele>508.1666666666667</ele><time>2026-05-02T11:12:24.648Z</time></trkpt><trkpt lat="40.92607" lon="9.1207217"><ele>508.0</ele><time>2026-05-02T11:12:25.648Z</time></trkpt><trkpt lat="40.9259983" lon="9.120765"><ele>508.00000000000006</ele><time>2026-05-02T11:12:26.649Z</time></trkpt><trkpt lat="40.9259133" lon="9.12079"><ele>508.0</ele><time>2026-05-02T11:12:27.648Z</time></trkpt><trkpt lat="40.9258367" lon="9.1207883"><ele>508.0</ele><time>2026-05-02T11:12:28.648Z</time></trkpt><trkpt lat="40.92577" lon="9.1208067"><ele>508.0</ele><time>2026-05-02T11:12:29.648Z</time></trkpt><trkpt lat="40.9256967" lon="9.1208367"><ele>508.00000000000006</ele><time>2026-05-02T11:12:30.648Z</time></trkpt><trkpt lat="40.9256117" lon="9.1208583"><ele>508.0</ele><time>2026-05-02T11:12:31.648Z</time></trkpt><trkpt lat="40.9255117" lon="9.120875"><ele>506.5</ele><time>2026-05-02T11:12:32.648Z</time></trkpt><trkpt lat="40.9253917" lon="9.1208983"><ele>505.0</ele><time>2026-05-02T11:12:33.648Z</time></trkpt><trkpt lat="40.925285" lon="9.12092"><ele>503.5</ele><time>2026-05-02T11:12:34.648Z</time></trkpt><trkpt lat="40.92517" lon="9.12094"><ele>502.0</ele><time>2026-05-02T11:12:35.648Z</time></trkpt><trkpt lat="40.925055" lon="9.1209533"><ele>500.25</ele><time>2026-05-02T11:12:36.648Z</time></trkpt><trkpt lat="40.9249267" lon="9.120975"><ele>498.5</ele><time>2026-05-02T11:12:37.648Z</time></trkpt><trkpt lat="40.9247983" lon="9.1210267"><ele>496.75</ele><time>2026-05-02T11:12:38.648Z</time></trkpt><trkpt lat="40.9246883" lon="9.12107"><ele>495.0</ele><time>2026-05-02T11:12:39.648Z</time></trkpt><trkpt lat="40.9245817" lon="9.1211267"><ele>495.0</ele><time>2026-05-02T11:12:40.648Z</time></trkpt><trkpt lat="40.9244917" lon="9.121175"><ele>495.0</ele><time>2026-05-02T11:12:41.648Z</time></trkpt><trkpt lat="40.9244217" lon="9.12122"><ele>495.0</ele><time>2026-05-02T11:12:42.648Z</time></trkpt><trkpt lat="40.9243417" lon="9.121245"><ele>495.0</ele><time>2026-05-02T11:12:43.648Z</time></trkpt><trkpt lat="40.924275" lon="9.1212733"><ele>495.0</ele><time>2026-05-02T11:12:44.649Z</time></trkpt><trkpt lat="40.9241983" lon="9.1213017"><ele>495.0</ele><time>2026-05-02T11:12:45.648Z</time></trkpt><trkpt lat="40.9240783" lon="9.12129"><ele>493.5</ele><time>2026-05-02T11:12:47.648Z</time></trkpt><trkpt lat="40.924015" lon="9.121215"><ele>492.0</ele><time>2026-05-02T11:12:48.649Z</time></trkpt><trkpt lat="40.92392" lon="9.12113"><ele>490.5</ele><time>2026-05-02T11:12:49.648Z</time></trkpt><trkpt lat="40.9237883" lon="9.1210467"><ele>489.0</ele><time>2026-05-02T11:12:50.648Z</time></trkpt><trkpt lat="40.9236833" lon="9.1209767"><ele>489.0</ele><time>2026-05-02T11:12:51.648Z</time></trkpt><trkpt lat="40.923565" lon="9.1209017"><ele>489.0</ele><time>2026-05-02T11:12:52.648Z</time></trkpt><trkpt lat="40.923455" lon="9.1208317"><ele>489.0</ele><time>2026-05-02T11:12:53.648Z</time></trkpt><trkpt lat="40.92335" lon="9.1207667"><ele>489.0</ele><time>2026-05-02T11:12:54.648Z</time></trkpt><trkpt lat="40.9232633" lon="9.1207017"><ele>490.2</ele><time>2026-05-02T11:12:55.648Z</time></trkpt><trkpt lat="40.9231633" lon="9.1206517"><ele>491.4</ele><time>2026-05-02T11:12:56.648Z</time></trkpt><trkpt lat="40.9230583" lon="9.1206117"><ele>492.6</ele><time>2026-05-02T11:12:57.648Z</time></trkpt><trkpt lat="40.92297" lon="9.120555"><ele>493.8</ele><time>2026-05-02T11:12:58.648Z</time></trkpt><trkpt lat="40.9229033" lon="9.12048"><ele>495.0</ele><time>2026-05-02T11:12:59.648Z</time></trkpt><trkpt lat="40.9228183" lon="9.12033"><ele>495.0</ele><time>2026-05-02T11:13:01.648Z</time></trkpt><trkpt lat="40.9227833" lon="9.1202433"><ele>495.0</ele><time>2026-05-02T11:13:02.648Z</time></trkpt><trkpt lat="40.9227283" lon="9.1201683"><ele>495.0</ele><time>2026-05-02T11:13:03.648Z</time></trkpt><trkpt lat="40.9226583" lon="9.1201167"><ele>495.0</ele><time>2026-05-02T11:13:04.648Z</time></trkpt><trkpt lat="40.92259" lon="9.12007"><ele>495.0</ele><time>2026-05-02T11:13:05.648Z</time></trkpt><trkpt lat="40.922505" lon="9.12002"><ele>495.0</ele><time>2026-05-02T11:13:06.648Z</time></trkpt><trkpt lat="40.922425" lon="9.119955"><ele>495.1666666666667</ele><time>2026-05-02T11:13:07.648Z</time></trkpt><trkpt lat="40.9223383" lon="9.1199233"><ele>495.33333333333337</ele><time>2026-05-02T11:13:08.648Z</time></trkpt><trkpt lat="40.9222633" lon="9.1198833"><ele>495.5</ele><time>2026-05-02T11:13:09.648Z</time></trkpt><trkpt lat="40.9222067" lon="9.1198333"><ele>495.6666666666667</ele><time>2026-05-02T11:13:10.648Z</time></trkpt><trkpt lat="40.9221467" lon="9.119785"><ele>495.83333333333337</ele><time>2026-05-02T11:13:11.648Z</time></trkpt><trkpt lat="40.922085" lon="9.11974"><ele>496.0</ele><time>2026-05-02T11:13:12.648Z</time></trkpt><trkpt lat="40.9220233" lon="9.1196933"><ele>496.00000000000006</ele><time>2026-05-02T11:13:13.648Z</time></trkpt><trkpt lat="40.9219267" lon="9.1196367"><ele>496.0</ele><time>2026-05-02T11:13:15.648Z</time></trkpt><trkpt lat="40.92186" lon="9.1196133"><ele>496.0</ele><time>2026-05-02T11:13:16.648Z</time></trkpt><trkpt lat="40.9217783" lon="9.1195883"><ele>496.0</ele><time>2026-05-02T11:13:17.649Z</time></trkpt><trkpt lat="40.9217" lon="9.119575"><ele>496.00000000000006</ele><time>2026-05-02T11:13:18.648Z</time></trkpt><trkpt lat="40.9216217" lon="9.1195617"><ele>496.0</ele><time>2026-05-02T11:13:19.648Z</time></trkpt><trkpt lat="40.9215317" lon="9.1195733"><ele>498.25</ele><time>2026-05-02T11:13:20.648Z</time></trkpt><trkpt lat="40.92144" lon="9.119625"><ele>500.5</ele><time>2026-05-02T11:13:21.648Z</time></trkpt><trkpt lat="40.9213483" lon="9.1196783"><ele>502.75</ele><time>2026-05-02T11:13:22.648Z</time></trkpt><trkpt lat="40.9212317" lon="9.119755"><ele>505.0</ele><time>2026-05-02T11:13:23.648Z</time></trkpt><trkpt lat="40.9210933" lon="9.1198633"><ele>506.5</ele><time>2026-05-02T11:13:24.648Z</time></trkpt><trkpt lat="40.9209967" lon="9.1199733"><ele>508.0</ele><time>2026-05-02T11:13:25.648Z</time></trkpt><trkpt lat="40.92089" lon="9.1201"><ele>509.5</ele><time>2026-05-02T11:13:26.648Z</time></trkpt><trkpt lat="40.9207967" lon="9.1202067"><ele>511.0</ele><time>2026-05-02T11:13:27.648Z</time></trkpt><trkpt lat="40.9207167" lon="9.12029"><ele>511.0</ele><time>2026-05-02T11:13:28.648Z</time></trkpt><trkpt lat="40.92066" lon="9.1204067"><ele>511.0</ele><time>2026-05-02T11:13:29.648Z</time></trkpt><trkpt lat="40.9206083" lon="9.120515"><ele>511.0</ele><time>2026-05-02T11:13:30.648Z</time></trkpt><trkpt lat="40.9205417" lon="9.1206333"><ele>511.0</ele><time>2026-05-02T11:13:31.648Z</time></trkpt><trkpt lat="40.9204783" lon="9.12076"><ele>511.0</ele><time>2026-05-02T11:13:32.648Z</time></trkpt><trkpt lat="40.9204267" lon="9.1208633"><ele>511.4</ele><time>2026-05-02T11:13:33.649Z</time></trkpt><trkpt lat="40.9203767" lon="9.120965"><ele>511.8</ele><time>2026-05-02T11:13:34.648Z</time></trkpt><trkpt lat="40.9203467" lon="9.1211433"><ele>512.1999999999999</ele><time>2026-05-02T11:13:35.648Z</time></trkpt><trkpt lat="40.9202917" lon="9.1212767"><ele>512.6</ele><time>2026-05-02T11:13:36.648Z</time></trkpt><trkpt lat="40.9202167" lon="9.12136"><ele>513.0</ele><time>2026-05-02T11:13:37.648Z</time></trkpt><trkpt lat="40.92013" lon="9.1214067"><ele>512.0</ele><time>2026-05-02T11:13:38.648Z</time></trkpt><trkpt lat="40.920025" lon="9.1214267"><ele>511.0</ele><time>2026-05-02T11:13:39.648Z</time></trkpt><trkpt lat="40.9199083" lon="9.1214067"><ele>510.0</ele><time>2026-05-02T11:13:40.648Z</time></trkpt><trkpt lat="40.9197533" lon="9.1213433"><ele>509.0</ele><time>2026-05-02T11:13:41.648Z</time></trkpt><trkpt lat="40.919635" lon="9.1212767"><ele>509.0</ele><time>2026-05-02T11:13:42.648Z</time></trkpt><trkpt lat="40.9195333" lon="9.1212333"><ele>509.0</ele><time>2026-05-02T11:13:43.648Z</time></trkpt><trkpt lat="40.9194283" lon="9.121215"><ele>509.0</ele><time>2026-05-02T11:13:44.648Z</time></trkpt><trkpt lat="40.91934" lon="9.1212017"><ele>509.0</ele><time>2026-05-02T11:13:45.648Z</time></trkpt><trkpt lat="40.91924" lon="9.1211733"><ele>509.0</ele><time>2026-05-02T11:13:46.648Z</time></trkpt><trkpt lat="40.9191517" lon="9.1211767"><ele>508.79999999999995</ele><time>2026-05-02T11:13:47.648Z</time></trkpt><trkpt lat="40.91906" lon="9.12118"><ele>508.59999999999997</ele><time>2026-05-02T11:13:48.648Z</time></trkpt><trkpt lat="40.9189683" lon="9.121165"><ele>508.4</ele><time>2026-05-02T11:13:49.648Z</time></trkpt><trkpt lat="40.9188667" lon="9.1211733"><ele>508.2</ele><time>2026-05-02T11:13:50.648Z</time></trkpt><trkpt lat="40.91877" lon="9.1211883"><ele>508.0</ele><time>2026-05-02T11:13:51.648Z</time></trkpt><trkpt lat="40.9186783" lon="9.121195"><ele>508.00000000000006</ele><time>2026-05-02T11:13:52.648Z</time></trkpt><trkpt lat="40.9186" lon="9.1212283"><ele>508.0</ele><time>2026-05-02T11:13:53.648Z</time></trkpt><trkpt lat="40.9185217" lon="9.1212733"><ele>508.0</ele><time>2026-05-02T11:13:54.648Z</time></trkpt><trkpt lat="40.91845" lon="9.12132"><ele>508.0</ele><time>2026-05-02T11:13:55.648Z</time></trkpt><trkpt lat="40.9184033" lon="9.1213917"><ele>508.00000000000006</ele><time>2026-05-02T11:13:56.648Z</time></trkpt><trkpt lat="40.918355" lon="9.1214567"><ele>508.0</ele><time>2026-05-02T11:13:57.648Z</time></trkpt><trkpt lat="40.9183067" lon="9.1215133"><ele>506.50000000000006</ele><time>2026-05-02T11:13:58.648Z</time></trkpt><trkpt lat="40.9182433" lon="9.1215483"><ele>505.0</ele><time>2026-05-02T11:13:59.648Z</time></trkpt><trkpt lat="40.9181583" lon="9.12158"><ele>503.5</ele><time>2026-05-02T11:14:00.648Z</time></trkpt><trkpt lat="40.9180967" lon="9.1216433"><ele>502.0</ele><time>2026-05-02T11:14:01.648Z</time></trkpt><trkpt lat="40.9180183" lon="9.1217133"><ele>500.50000000000006</ele><time>2026-05-02T11:14:02.648Z</time></trkpt><trkpt lat="40.9179383" lon="9.1217633"><ele>499.0</ele><time>2026-05-02T11:14:03.648Z</time></trkpt><trkpt lat="40.9178483" lon="9.1217967"><ele>498.75</ele><time>2026-05-02T11:14:04.648Z</time></trkpt><trkpt lat="40.9177433" lon="9.1218067"><ele>498.5</ele><time>2026-05-02T11:14:05.648Z</time></trkpt><trkpt lat="40.9176333" lon="9.1218267"><ele>498.25</ele><time>2026-05-02T11:14:06.648Z</time></trkpt><trkpt lat="40.9175117" lon="9.1218217"><ele>498.0</ele><time>2026-05-02T11:14:07.649Z</time></trkpt><trkpt lat="40.9173883" lon="9.1218217"><ele>496.5</ele><time>2026-05-02T11:14:08.648Z</time></trkpt><trkpt lat="40.9172683" lon="9.1218283"><ele>495.0</ele><time>2026-05-02T11:14:09.648Z</time></trkpt><trkpt lat="40.9171367" lon="9.1218183"><ele>493.5</ele><time>2026-05-02T11:14:10.648Z</time></trkpt><trkpt lat="40.9170117" lon="9.1217967"><ele>492.0</ele><time>2026-05-02T11:14:11.648Z</time></trkpt><trkpt lat="40.9168767" lon="9.1217733"><ele>492.0</ele><time>2026-05-02T11:14:12.648Z</time></trkpt><trkpt lat="40.9167433" lon="9.1217433"><ele>492.0</ele><time>2026-05-02T11:14:13.648Z</time></trkpt><trkpt lat="40.9166133" lon="9.121705"><ele>492.0</ele><time>2026-05-02T11:14:14.648Z</time></trkpt><trkpt lat="40.91648" lon="9.1216583"><ele>492.0</ele><time>2026-05-02T11:14:15.648Z</time></trkpt><trkpt lat="40.9163483" lon="9.12161"><ele>492.25</ele><time>2026-05-02T11:14:16.648Z</time></trkpt><trkpt lat="40.9162283" lon="9.121565"><ele>492.5</ele><time>2026-05-02T11:14:17.648Z</time></trkpt><trkpt lat="40.9161017" lon="9.12151"><ele>492.75</ele><time>2026-05-02T11:14:18.648Z</time></trkpt><trkpt lat="40.915985" lon="9.121465"><ele>493.0</ele><time>2026-05-02T11:14:19.648Z</time></trkpt><trkpt lat="40.915885" lon="9.1214317"><ele>493.83333333333337</ele><time>2026-05-02T11:14:20.648Z</time></trkpt><trkpt lat="40.9158017" lon="9.1213983"><ele>494.6666666666667</ele><time>2026-05-02T11:14:21.648Z</time></trkpt><trkpt lat="40.9157333" lon="9.121335"><ele>495.5</ele><time>2026-05-02T11:14:22.648Z</time></trkpt><trkpt lat="40.9156633" lon="9.121285"><ele>496.33333333333337</ele><time>2026-05-02T11:14:23.648Z</time></trkpt><trkpt lat="40.9155933" lon="9.121215"><ele>497.1666666666667</ele><time>2026-05-02T11:14:24.648Z</time></trkpt><trkpt lat="40.9155233" lon="9.12117"><ele>498.0</ele><time>2026-05-02T11:14:25.648Z</time></trkpt><trkpt lat="40.91545" lon="9.1211067"><ele>498.0</ele><time>2026-05-02T11:14:26.648Z</time></trkpt><trkpt lat="40.915405" lon="9.12104"><ele>497.99999999999994</ele><time>2026-05-02T11:14:27.648Z</time></trkpt><trkpt lat="40.9153367" lon="9.12094"><ele>497.99999999999994</ele><time>2026-05-02T11:14:29.648Z</time></trkpt><trkpt lat="40.9152933" lon="9.12084"><ele>498.0</ele><time>2026-05-02T11:14:31.648Z</time></trkpt><trkpt lat="40.9152483" lon="9.12071"><ele>498.0</ele><time>2026-05-02T11:14:33.648Z</time></trkpt><trkpt lat="40.9152267" lon="9.1205983"><ele>497.59999999999997</ele><time>2026-05-02T11:14:34.648Z</time></trkpt><trkpt lat="40.9151817" lon="9.1204933"><ele>497.19999999999993</ele><time>2026-05-02T11:14:35.648Z</time></trkpt><trkpt lat="40.9151133" lon="9.1203733"><ele>496.8</ele><time>2026-05-02T11:14:36.648Z</time></trkpt><trkpt lat="40.9150383" lon="9.12026"><ele>496.4</ele><time>2026-05-02T11:14:37.648Z</time></trkpt><trkpt lat="40.9149467" lon="9.12015"><ele>496.0</ele><time>2026-05-02T11:14:38.648Z</time></trkpt><trkpt lat="40.9148583" lon="9.1200533"><ele>495.75</ele><time>2026-05-02T11:14:39.648Z</time></trkpt><trkpt lat="40.9147617" lon="9.119965"><ele>495.5</ele><time>2026-05-02T11:14:40.648Z</time></trkpt><trkpt lat="40.9146633" lon="9.11987"><ele>495.25</ele><time>2026-05-02T11:14:41.649Z</time></trkpt><trkpt lat="40.9145767" lon="9.1197733"><ele>495.0</ele><time>2026-05-02T11:14:42.648Z</time></trkpt><trkpt lat="40.9145083" lon="9.119635"><ele>493.6</ele><time>2026-05-02T11:14:43.648Z</time></trkpt><trkpt lat="40.91442" lon="9.1195333"><ele>492.2</ele><time>2026-05-02T11:14:44.648Z</time></trkpt><trkpt lat="40.91433" lon="9.1194217"><ele>490.79999999999995</ele><time>2026-05-02T11:14:45.648Z</time></trkpt><trkpt lat="40.9142617" lon="9.1193217"><ele>489.4</ele><time>2026-05-02T11:14:46.648Z</time></trkpt><trkpt lat="40.9141883" lon="9.1192333"><ele>488.0</ele><time>2026-05-02T11:14:47.648Z</time></trkpt><trkpt lat="40.9141017" lon="9.11915"><ele>486.79999999999995</ele><time>2026-05-02T11:14:48.648Z</time></trkpt><trkpt lat="40.9139933" lon="9.11908"><ele>485.59999999999997</ele><time>2026-05-02T11:14:49.648Z</time></trkpt><trkpt lat="40.9138867" lon="9.1190367"><ele>484.40000000000003</ele><time>2026-05-02T11:14:50.648Z</time></trkpt><trkpt lat="40.9137783" lon="9.1189967"><ele>483.20000000000005</ele><time>2026-05-02T11:14:51.648Z</time></trkpt><trkpt lat="40.9136867" lon="9.1189717"><ele>482.0</ele><time>2026-05-02T11:14:52.648Z</time></trkpt><trkpt lat="40.9136083" lon="9.1189283"><ele>479.6</ele><time>2026-05-02T11:14:53.648Z</time></trkpt><trkpt lat="40.9135317" lon="9.1188867"><ele>477.20000000000005</ele><time>2026-05-02T11:14:54.648Z</time></trkpt><trkpt lat="40.913455" lon="9.1188283"><ele>474.8</ele><time>2026-05-02T11:14:55.648Z</time></trkpt><trkpt lat="40.913375" lon="9.11878"><ele>472.4</ele><time>2026-05-02T11:14:56.648Z</time></trkpt><trkpt lat="40.9132883" lon="9.1187283"><ele>470.0</ele><time>2026-05-02T11:14:57.648Z</time></trkpt><trkpt lat="40.9131883" lon="9.1186917"><ele>469.2</ele><time>2026-05-02T11:14:58.648Z</time></trkpt><trkpt lat="40.9130933" lon="9.118665"><ele>468.4</ele><time>2026-05-02T11:14:59.648Z</time></trkpt><trkpt lat="40.9129933" lon="9.1186433"><ele>467.6</ele><time>2026-05-02T11:15:00.648Z</time></trkpt><trkpt lat="40.912885" lon="9.1186433"><ele>466.8</ele><time>2026-05-02T11:15:01.648Z</time></trkpt><trkpt lat="40.9127767" lon="9.11866"><ele>466.0</ele><time>2026-05-02T11:15:02.648Z</time></trkpt><trkpt lat="40.91267" lon="9.118695"><ele>465.4</ele><time>2026-05-02T11:15:03.648Z</time></trkpt><trkpt lat="40.9125617" lon="9.1187183"><ele>464.8</ele><time>2026-05-02T11:15:04.648Z</time></trkpt><trkpt lat="40.9124567" lon="9.1187417"><ele>464.19999999999993</ele><time>2026-05-02T11:15:05.649Z</time></trkpt><trkpt lat="40.9123367" lon="9.1187583"><ele>463.59999999999997</ele><time>2026-05-02T11:15:06.648Z</time></trkpt><trkpt lat="40.9122267" lon="9.1187683"><ele>463.0</ele><time>2026-05-02T11:15:07.648Z</time></trkpt><trkpt lat="40.9121183" lon="9.1187533"><ele>463.0</ele><time>2026-05-02T11:15:08.648Z</time></trkpt><trkpt lat="40.9120017" lon="9.1187267"><ele>462.99999999999994</ele><time>2026-05-02T11:15:09.648Z</time></trkpt><trkpt lat="40.91191" lon="9.1186317"><ele>462.99999999999994</ele><time>2026-05-02T11:15:10.648Z</time></trkpt><trkpt lat="40.9118183" lon="9.1185833"><ele>463.0</ele><time>2026-05-02T11:15:11.648Z</time></trkpt><trkpt lat="40.9117583" lon="9.1185067"><ele>463.0</ele><time>2026-05-02T11:15:12.648Z</time></trkpt><trkpt lat="40.9117167" lon="9.1183567"><ele>462.59999999999997</ele><time>2026-05-02T11:15:13.648Z</time></trkpt><trkpt lat="40.9117" lon="9.11823"><ele>462.19999999999993</ele><time>2026-05-02T11:15:14.648Z</time></trkpt><trkpt lat="40.9116867" lon="9.1181083"><ele>461.8</ele><time>2026-05-02T11:15:15.648Z</time></trkpt><trkpt lat="40.9116783" lon="9.117965"><ele>461.4</ele><time>2026-05-02T11:15:16.648Z</time></trkpt><trkpt lat="40.9116683" lon="9.117825"><ele>461.0</ele><time>2026-05-02T11:15:17.648Z</time></trkpt><trkpt lat="40.9116583" lon="9.1177167"><ele>461.0</ele><time>2026-05-02T11:15:18.648Z</time></trkpt><trkpt lat="40.91163" lon="9.1176217"><ele>461.0</ele><time>2026-05-02T11:15:19.648Z</time></trkpt><trkpt lat="40.9115917" lon="9.117525"><ele>461.0</ele><time>2026-05-02T11:15:20.648Z</time></trkpt><trkpt lat="40.9115533" lon="9.1174217"><ele>461.0</ele><time>2026-05-02T11:15:21.648Z</time></trkpt><trkpt lat="40.91147" lon="9.1173133"><ele>461.0</ele><time>2026-05-02T11:15:22.649Z</time></trkpt><trkpt lat="40.9113583" lon="9.1172283"><ele>461.0</ele><time>2026-05-02T11:15:23.648Z</time></trkpt><trkpt lat="40.9112833" lon="9.1171117"><ele>461.0</ele><time>2026-05-02T11:15:24.648Z</time></trkpt><trkpt lat="40.9111833" lon="9.1170017"><ele>461.0</ele><time>2026-05-02T11:15:25.648Z</time></trkpt><trkpt lat="40.9110967" lon="9.116895"><ele>461.0</ele><time>2026-05-02T11:15:26.648Z</time></trkpt><trkpt lat="40.91101" lon="9.1167917"><ele>461.0</ele><time>2026-05-02T11:15:27.648Z</time></trkpt><trkpt lat="40.9109383" lon="9.1166917"><ele>461.0</ele><time>2026-05-02T11:15:28.648Z</time></trkpt><trkpt lat="40.910875" lon="9.1166033"><ele>461.0</ele><time>2026-05-02T11:15:29.648Z</time></trkpt><trkpt lat="40.9108083" lon="9.1164983"><ele>461.0</ele><time>2026-05-02T11:15:30.648Z</time></trkpt><trkpt lat="40.9107483" lon="9.1163867"><ele>461.0</ele><time>2026-05-02T11:15:31.648Z</time></trkpt><trkpt lat="40.9106783" lon="9.116285"><ele>465.5</ele><time>2026-05-02T11:15:32.648Z</time></trkpt><trkpt lat="40.9106283" lon="9.11617"><ele>470.0</ele><time>2026-05-02T11:15:33.648Z</time></trkpt><trkpt lat="40.9105867" lon="9.11603"><ele>474.5</ele><time>2026-05-02T11:15:34.648Z</time></trkpt><trkpt lat="40.9105517" lon="9.1158833"><ele>479.0</ele><time>2026-05-02T11:15:35.648Z</time></trkpt><trkpt lat="40.9105183" lon="9.1157217"><ele>480.0</ele><time>2026-05-02T11:15:36.648Z</time></trkpt><trkpt lat="40.9105383" lon="9.1155367"><ele>481.0</ele><time>2026-05-02T11:15:37.648Z</time></trkpt><trkpt lat="40.9105683" lon="9.1153483"><ele>482.0</ele><time>2026-05-02T11:15:38.648Z</time></trkpt><trkpt lat="40.9105917" lon="9.1151667"><ele>483.0</ele><time>2026-05-02T11:15:39.648Z</time></trkpt><trkpt lat="40.9106317" lon="9.1149917"><ele>481.6666666666667</ele><time>2026-05-02T11:15:40.648Z</time></trkpt><trkpt lat="40.910645" lon="9.114845"><ele>480.33333333333337</ele><time>2026-05-02T11:15:41.648Z</time></trkpt><trkpt lat="40.9106483" lon="9.11472"><ele>479.0</ele><time>2026-05-02T11:15:42.648Z</time></trkpt><trkpt lat="40.9106417" lon="9.11463"><ele>477.6666666666667</ele><time>2026-05-02T11:15:43.648Z</time></trkpt><trkpt lat="40.9106183" lon="9.114535"><ele>476.33333333333337</ele><time>2026-05-02T11:15:44.648Z</time></trkpt><trkpt lat="40.9105667" lon="9.1144417"><ele>475.0</ele><time>2026-05-02T11:15:45.648Z</time></trkpt><trkpt lat="40.9105167" lon="9.1143633"><ele>475.00000000000006</ele><time>2026-05-02T11:15:46.648Z</time></trkpt><trkpt lat="40.910445" lon="9.114295"><ele>475.0</ele><time>2026-05-02T11:15:47.648Z</time></trkpt><trkpt lat="40.9103533" lon="9.1142467"><ele>475.0</ele><time>2026-05-02T11:15:48.648Z</time></trkpt><trkpt lat="40.910275" lon="9.1142"><ele>475.0</ele><time>2026-05-02T11:15:49.648Z</time></trkpt><trkpt lat="40.9101983" lon="9.11418"><ele>475.00000000000006</ele><time>2026-05-02T11:15:50.648Z</time></trkpt><trkpt lat="40.9101283" lon="9.1141783"><ele>475.0</ele><time>2026-05-02T11:15:51.648Z</time></trkpt><trkpt lat="40.9100667" lon="9.1141267"><ele>477.50000000000006</ele><time>2026-05-02T11:15:52.648Z</time></trkpt><trkpt lat="40.9099867" lon="9.114085"><ele>480.0</ele><time>2026-05-02T11:15:53.648Z</time></trkpt><trkpt lat="40.9099183" lon="9.114025"><ele>482.5</ele><time>2026-05-02T11:15:54.648Z</time></trkpt><trkpt lat="40.9098617" lon="9.113935"><ele>485.0</ele><time>2026-05-02T11:15:55.649Z</time></trkpt><trkpt lat="40.90979" lon="9.113885"><ele>487.50000000000006</ele><time>2026-05-02T11:15:56.648Z</time></trkpt><trkpt lat="40.9097183" lon="9.1138067"><ele>490.0</ele><time>2026-05-02T11:15:57.648Z</time></trkpt><trkpt lat="40.90962" lon="9.1137417"><ele>490.5</ele><time>2026-05-02T11:15:58.648Z</time></trkpt><trkpt lat="40.90952" lon="9.11366"><ele>491.0</ele><time>2026-05-02T11:15:59.648Z</time></trkpt><trkpt lat="40.9094117" lon="9.11351"><ele>491.5</ele><time>2026-05-02T11:16:00.648Z</time></trkpt><trkpt lat="40.9093517" lon="9.1133917"><ele>492.0</ele><time>2026-05-02T11:16:01.648Z</time></trkpt><trkpt lat="40.909305" lon="9.1132367"><ele>493.20000000000005</ele><time>2026-05-02T11:16:02.648Z</time></trkpt><trkpt lat="40.9092617" lon="9.113095"><ele>494.40000000000003</ele><time>2026-05-02T11:16:03.648Z</time></trkpt><trkpt lat="40.9092333" lon="9.1129717"><ele>495.59999999999997</ele><time>2026-05-02T11:16:04.648Z</time></trkpt><trkpt lat="40.9092117" lon="9.1128483"><ele>496.79999999999995</ele><time>2026-05-02T11:16:05.648Z</time></trkpt><trkpt lat="40.90925" lon="9.1127767"><ele>498.0</ele><time>2026-05-02T11:16:06.648Z</time></trkpt><trkpt lat="40.9092933" lon="9.11266"><ele>498.0</ele><time>2026-05-02T11:16:08.648Z</time></trkpt><trkpt lat="40.9093033" lon="9.1125767"><ele>497.99999999999994</ele><time>2026-05-02T11:16:10.648Z</time></trkpt><trkpt lat="40.9092433" lon="9.1124267"><ele>497.99999999999994</ele><time>2026-05-02T11:16:12.649Z</time></trkpt><trkpt lat="40.9092033" lon="9.11231"><ele>498.0</ele><time>2026-05-02T11:16:13.649Z</time></trkpt><trkpt lat="40.9091517" lon="9.1122067"><ele>498.0</ele><time>2026-05-02T11:16:14.649Z</time></trkpt><trkpt lat="40.90912" lon="9.1120817"><ele>501.0</ele><time>2026-05-02T11:16:15.648Z</time></trkpt><trkpt lat="40.9090817" lon="9.1119433"><ele>503.99999999999994</ele><time>2026-05-02T11:16:16.648Z</time></trkpt><trkpt lat="40.9090417" lon="9.1118233"><ele>506.99999999999994</ele><time>2026-05-02T11:16:17.648Z</time></trkpt><trkpt lat="40.9089833" lon="9.1117083"><ele>510.0</ele><time>2026-05-02T11:16:18.648Z</time></trkpt><trkpt lat="40.9088917" lon="9.1117067"><ele>513.0</ele><time>2026-05-02T11:16:19.648Z</time></trkpt><trkpt lat="40.9088283" lon="9.111625"><ele>515.0</ele><time>2026-05-02T11:16:20.648Z</time></trkpt><trkpt lat="40.90876" lon="9.1115733"><ele>517.0</ele><time>2026-05-02T11:16:21.648Z</time></trkpt><trkpt lat="40.9086767" lon="9.1115367"><ele>519.0</ele><time>2026-05-02T11:16:22.648Z</time></trkpt><trkpt lat="40.9085933" lon="9.1114867"><ele>521.0</ele><time>2026-05-02T11:16:23.648Z</time></trkpt><trkpt lat="40.9085133" lon="9.1114117"><ele>523.0</ele><time>2026-05-02T11:16:24.648Z</time></trkpt><trkpt lat="40.90842" lon="9.111325"><ele>524.8</ele><time>2026-05-02T11:16:25.648Z</time></trkpt><trkpt lat="40.908315" lon="9.1112433"><ele>526.5999999999999</ele><time>2026-05-02T11:16:26.648Z</time></trkpt><trkpt lat="40.9082117" lon="9.11117"><ele>528.4000000000001</ele><time>2026-05-02T11:16:27.648Z</time></trkpt><trkpt lat="40.90812" lon="9.111135"><ele>530.2</ele><time>2026-05-02T11:16:28.648Z</time></trkpt><trkpt lat="40.9080417" lon="9.1111083"><ele>532.0</ele><time>2026-05-02T11:16:29.648Z</time></trkpt><trkpt lat="40.9079783" lon="9.111125"><ele>532.0</ele><time>2026-05-02T11:16:30.648Z</time></trkpt><trkpt lat="40.9078533" lon="9.111205"><ele>532.0</ele><time>2026-05-02T11:16:32.648Z</time></trkpt><trkpt lat="40.90778" lon="9.111265"><ele>532.0</ele><time>2026-05-02T11:16:33.648Z</time></trkpt><trkpt lat="40.907715" lon="9.1113433"><ele>532.0</ele><time>2026-05-02T11:16:34.648Z</time></trkpt><trkpt lat="40.9076533" lon="9.1114"><ele>532.0</ele><time>2026-05-02T11:16:35.648Z</time></trkpt><trkpt lat="40.9075967" lon="9.1114517"><ele>532.0</ele><time>2026-05-02T11:16:36.648Z</time></trkpt><trkpt lat="40.907565" lon="9.1115417"><ele>532.0</ele><time>2026-05-02T11:16:38.648Z</time></trkpt><trkpt lat="40.907615" lon="9.1116217"><ele>532.0</ele><time>2026-05-02T11:16:59.648Z</time></trkpt><trkpt lat="40.9076617" lon="9.1115467"><ele>532.0</ele><time>2026-05-02T11:17:01.648Z</time></trkpt><trkpt lat="40.9077267" lon="9.1114833"><ele>532.0</ele><time>2026-05-02T11:17:03.648Z</time></trkpt><trkpt lat="40.9078217" lon="9.1114533"><ele>532.0</ele><time>2026-05-02T11:17:05.648Z</time></trkpt><trkpt lat="40.9079067" lon="9.111415"><ele>532.0</ele><time>2026-05-02T11:17:07.648Z</time></trkpt><trkpt lat="40.9079217" lon="9.1113067"><ele>532.0</ele><time>2026-05-02T11:17:10.648Z</time></trkpt><trkpt lat="40.9079" lon="9.1112017"><ele>532.0</ele><time>2026-05-02T11:17:13.648Z</time></trkpt><trkpt lat="40.90781" lon="9.1111667"><ele>532.0</ele><time>2026-05-02T11:17:40.648Z</time></trkpt><trkpt lat="40.907755" lon="9.1111017"><ele>532.0</ele><time>2026-05-02T11:17:41.648Z</time></trkpt><trkpt lat="40.9076917" lon="9.1110217"><ele>532.0</ele><time>2026-05-02T11:17:42.648Z</time></trkpt><trkpt lat="40.9076417" lon="9.1109433"><ele>532.0</ele><time>2026-05-02T11:17:43.648Z</time></trkpt><trkpt lat="40.9075967" lon="9.1108533"><ele>532.0</ele><time>2026-05-02T11:17:44.648Z</time></trkpt><trkpt lat="40.9075583" lon="9.1107817"><ele>532.0</ele><time>2026-05-02T11:17:45.648Z</time></trkpt><trkpt lat="40.9075267" lon="9.1106917"><ele>532.0</ele><time>2026-05-02T11:17:46.648Z</time></trkpt><trkpt lat="40.907505" lon="9.1105817"><ele>532.0</ele><time>2026-05-02T11:17:47.648Z</time></trkpt><trkpt lat="40.90748" lon="9.1104667"><ele>532.0</ele><time>2026-05-02T11:17:48.648Z</time></trkpt><trkpt lat="40.907445" lon="9.11034"><ele>535.25</ele><time>2026-05-02T11:17:49.648Z</time></trkpt><trkpt lat="40.9073917" lon="9.1102183"><ele>538.5</ele><time>2026-05-02T11:17:50.648Z</time></trkpt><trkpt lat="40.9073367" lon="9.1100867"><ele>541.75</ele><time>2026-05-02T11:17:51.648Z</time></trkpt><trkpt lat="40.9072883" lon="9.1099317"><ele>545.0</ele><time>2026-05-02T11:17:52.648Z</time></trkpt><trkpt lat="40.9072233" lon="9.1097817"><ele>546.0</ele><time>2026-05-02T11:17:53.648Z</time></trkpt><trkpt lat="40.907145" lon="9.10963"><ele>547.0</ele><time>2026-05-02T11:17:54.648Z</time></trkpt><trkpt lat="40.9070617" lon="9.1094767"><ele>548.0</ele><time>2026-05-02T11:17:55.648Z</time></trkpt><trkpt lat="40.9069783" lon="9.10933"><ele>549.0</ele><time>2026-05-02T11:17:56.648Z</time></trkpt><trkpt lat="40.9069067" lon="9.1091617"><ele>549.25</ele><time>2026-05-02T11:17:57.648Z</time></trkpt><trkpt lat="40.9068217" lon="9.1090167"><ele>549.5</ele><time>2026-05-02T11:17:58.648Z</time></trkpt><trkpt lat="40.906745" lon="9.1088683"><ele>549.75</ele><time>2026-05-02T11:17:59.648Z</time></trkpt><trkpt lat="40.9066683" lon="9.1087067"><ele>550.0</ele><time>2026-05-02T11:18:00.648Z</time></trkpt><trkpt lat="40.9066" lon="9.1085517"><ele>551.0</ele><time>2026-05-02T11:18:01.648Z</time></trkpt><trkpt lat="40.9065267" lon="9.108405"><ele>552.0</ele><time>2026-05-02T11:18:02.649Z</time></trkpt><trkpt lat="40.9064583" lon="9.1082717"><ele>553.0</ele><time>2026-05-02T11:18:03.648Z</time></trkpt><trkpt lat="40.906395" lon="9.1081483"><ele>554.0</ele><time>2026-05-02T11:18:04.648Z</time></trkpt><trkpt lat="40.9063367" lon="9.1080267"><ele>554.4</ele><time>2026-05-02T11:18:05.648Z</time></trkpt><trkpt lat="40.906285" lon="9.107905"><ele>554.8</ele><time>2026-05-02T11:18:06.648Z</time></trkpt><trkpt lat="40.9062367" lon="9.10778"><ele>555.2</ele><time>2026-05-02T11:18:07.648Z</time></trkpt><trkpt lat="40.90619" lon="9.1076633"><ele>555.6</ele><time>2026-05-02T11:18:08.648Z</time></trkpt><trkpt lat="40.9061383" lon="9.107545"><ele>556.0</ele><time>2026-05-02T11:18:09.648Z</time></trkpt><trkpt lat="40.9060867" lon="9.1074317"><ele>556.4</ele><time>2026-05-02T11:18:10.648Z</time></trkpt><trkpt lat="40.9060467" lon="9.10732"><ele>556.8</ele><time>2026-05-02T11:18:11.648Z</time></trkpt><trkpt lat="40.906005" lon="9.10722"><ele>557.1999999999999</ele><time>2026-05-02T11:18:12.649Z</time></trkpt><trkpt lat="40.9059817" lon="9.1071367"><ele>557.6</ele><time>2026-05-02T11:18:13.648Z</time></trkpt><trkpt lat="40.9059183" lon="9.1070483"><ele>558.0</ele><time>2026-05-02T11:18:15.648Z</time></trkpt><trkpt lat="40.9058633" lon="9.1069117"><ele>558.0</ele><time>2026-05-02T11:18:17.648Z</time></trkpt><trkpt lat="40.9058167" lon="9.10683"><ele>558.0</ele><time>2026-05-02T11:18:18.648Z</time></trkpt><trkpt lat="40.9057583" lon="9.106745"><ele>558.0</ele><time>2026-05-02T11:18:19.648Z</time></trkpt><trkpt lat="40.9057033" lon="9.106655"><ele>558.0</ele><time>2026-05-02T11:18:20.648Z</time></trkpt><trkpt lat="40.9056367" lon="9.1065567"><ele>558.0</ele><time>2026-05-02T11:18:21.648Z</time></trkpt><trkpt lat="40.9055733" lon="9.1064567"><ele>557.5</ele><time>2026-05-02T11:18:22.648Z</time></trkpt><trkpt lat="40.9055067" lon="9.1063583"><ele>557.0</ele><time>2026-05-02T11:18:23.648Z</time></trkpt><trkpt lat="40.9054417" lon="9.1062717"><ele>556.5</ele><time>2026-05-02T11:18:24.648Z</time></trkpt><trkpt lat="40.905375" lon="9.1062"><ele>556.0</ele><time>2026-05-02T11:18:25.648Z</time></trkpt><trkpt lat="40.9053117" lon="9.1061267"><ele>555.5</ele><time>2026-05-02T11:18:26.648Z</time></trkpt><trkpt lat="40.9052467" lon="9.106055"><ele>555.0</ele><time>2026-05-02T11:18:27.648Z</time></trkpt><trkpt lat="40.9051833" lon="9.105975"><ele>555.0</ele><time>2026-05-02T11:18:28.648Z</time></trkpt><trkpt lat="40.9051233" lon="9.1059033"><ele>555.0</ele><time>2026-05-02T11:18:29.648Z</time></trkpt><trkpt lat="40.9050667" lon="9.1058317"><ele>555.0</ele><time>2026-05-02T11:18:30.648Z</time></trkpt><trkpt lat="40.9050167" lon="9.1057517"><ele>555.0</ele><time>2026-05-02T11:18:31.648Z</time></trkpt><trkpt lat="40.90497" lon="9.10568"><ele>555.0</ele><time>2026-05-02T11:18:32.648Z</time></trkpt><trkpt lat="40.904925" lon="9.105605"><ele>555.0</ele><time>2026-05-02T11:18:33.648Z</time></trkpt><trkpt lat="40.9048867" lon="9.10552"><ele>555.3333333333334</ele><time>2026-05-02T11:18:34.648Z</time></trkpt><trkpt lat="40.90482" lon="9.10541"><ele>555.6666666666666</ele><time>2026-05-02T11:18:36.648Z</time></trkpt><trkpt lat="40.90477" lon="9.1053533"><ele>556.0</ele><time>2026-05-02T11:18:38.648Z</time></trkpt><trkpt lat="40.9047" lon="9.1053633"><ele>556.3333333333333</ele><time>2026-05-02T11:19:07.648Z</time></trkpt><trkpt lat="40.904675" lon="9.1054683"><ele>556.6666666666666</ele><time>2026-05-02T11:19:10.648Z</time></trkpt><trkpt lat="40.9046783" lon="9.105595"><ele>557.0</ele><time>2026-05-02T11:19:12.648Z</time></trkpt><trkpt lat="40.9046667" lon="9.1057733"><ele>557.6</ele><time>2026-05-02T11:19:14.648Z</time></trkpt><trkpt lat="40.9046533" lon="9.1058567"><ele>558.2</ele><time>2026-05-02T11:19:15.648Z</time></trkpt><trkpt lat="40.904635" lon="9.1059933"><ele>558.8</ele><time>2026-05-02T11:19:17.648Z</time></trkpt><trkpt lat="40.9046417" lon="9.1060967"><ele>559.4</ele><time>2026-05-02T11:19:19.648Z</time></trkpt><trkpt lat="40.9046333" lon="9.10623"><ele>560.0</ele><time>2026-05-02T11:19:21.648Z</time></trkpt><trkpt lat="40.9046233" lon="9.1063817"><ele>560.0</ele><time>2026-05-02T11:19:23.648Z</time></trkpt><trkpt lat="40.9046183" lon="9.1064767"><ele>560.0</ele><time>2026-05-02T11:19:24.648Z</time></trkpt><trkpt lat="40.9046333" lon="9.1066317"><ele>560.0</ele><time>2026-05-02T11:19:26.648Z</time></trkpt><trkpt lat="40.9046267" lon="9.106785"><ele>560.0</ele><time>2026-05-02T11:19:28.648Z</time></trkpt><trkpt lat="40.904595" lon="9.10694"><ele>560.0</ele><time>2026-05-02T11:19:30.649Z</time></trkpt><trkpt lat="40.904555" lon="9.107015"><ele>560.0</ele><time>2026-05-02T11:19:31.648Z</time></trkpt><trkpt lat="40.9045083" lon="9.107085"><ele>560.0</ele><time>2026-05-02T11:19:32.648Z</time></trkpt><trkpt lat="40.90446" lon="9.1071517"><ele>560.0</ele><time>2026-05-02T11:19:33.648Z</time></trkpt><trkpt lat="40.9043933" lon="9.1072717"><ele>560.0</ele><time>2026-05-02T11:19:35.648Z</time></trkpt><trkpt lat="40.90428" lon="9.10735"><ele>560.0</ele><time>2026-05-02T11:19:37.648Z</time></trkpt><trkpt lat="40.9042117" lon="9.107365"><ele>560.1666666666666</ele><time>2026-05-02T11:19:38.648Z</time></trkpt><trkpt lat="40.9041383" lon="9.107365"><ele>560.3333333333333</ele><time>2026-05-02T11:19:39.648Z</time></trkpt><trkpt lat="40.9040483" lon="9.1073433"><ele>560.5</ele><time>2026-05-02T11:19:40.648Z</time></trkpt><trkpt lat="40.903975" lon="9.1073167"><ele>560.6666666666666</ele><time>2026-05-02T11:19:41.648Z</time></trkpt><trkpt lat="40.9039" lon="9.107275"><ele>560.8333333333334</ele><time>2026-05-02T11:19:42.648Z</time></trkpt><trkpt lat="40.903835" lon="9.10724"><ele>561.0</ele><time>2026-05-02T11:19:43.648Z</time></trkpt><trkpt lat="40.9037717" lon="9.107205"><ele>561.0</ele><time>2026-05-02T11:19:44.647Z</time></trkpt><trkpt lat="40.903695" lon="9.107165"><ele>561.0</ele><time>2026-05-02T11:19:45.647Z</time></trkpt><trkpt lat="40.9036283" lon="9.1071233"><ele>561.0</ele><time>2026-05-02T11:19:46.647Z</time></trkpt><trkpt lat="40.9035667" lon="9.1070633"><ele>561.0</ele><time>2026-05-02T11:19:47.647Z</time></trkpt><trkpt lat="40.903495" lon="9.1070183"><ele>561.0</ele><time>2026-05-02T11:19:48.647Z</time></trkpt><trkpt lat="40.9034167" lon="9.1069917"><ele>561.0</ele><time>2026-05-02T11:19:49.647Z</time></trkpt><trkpt lat="40.90334" lon="9.1069667"><ele>560.5714285714286</ele><time>2026-05-02T11:19:50.647Z</time></trkpt><trkpt lat="40.9032567" lon="9.1069367"><ele>560.1428571428571</ele><time>2026-05-02T11:19:51.647Z</time></trkpt><trkpt lat="40.9031817" lon="9.1069183"><ele>559.7142857142857</ele><time>2026-05-02T11:19:52.647Z</time></trkpt><trkpt lat="40.9031083" lon="9.106905"><ele>559.2857142857142</ele><time>2026-05-02T11:19:53.647Z</time></trkpt><trkpt lat="40.90304" lon="9.106915"><ele>558.8571428571429</ele><time>2026-05-02T11:19:54.647Z</time></trkpt><trkpt lat="40.9029717" lon="9.1069167"><ele>558.4285714285713</ele><time>2026-05-02T11:19:55.647Z</time></trkpt><trkpt lat="40.9029017" lon="9.1069133"><ele>558.0</ele><time>2026-05-02T11:19:56.647Z</time></trkpt><trkpt lat="40.9028033" lon="9.1068433"><ele>558.0</ele><time>2026-05-02T11:19:58.647Z</time></trkpt><trkpt lat="40.90271" lon="9.1067483"><ele>558.0</ele><time>2026-05-02T11:20:00.647Z</time></trkpt><trkpt lat="40.9026317" lon="9.1066133"><ele>558.0</ele><time>2026-05-02T11:20:02.647Z</time></trkpt><trkpt lat="40.9025867" lon="9.1065383"><ele>558.0</ele><time>2026-05-02T11:20:03.647Z</time></trkpt><trkpt lat="40.902545" lon="9.1064683"><ele>558.0</ele><time>2026-05-02T11:20:04.647Z</time></trkpt><trkpt lat="40.9025033" lon="9.1063883"><ele>557.1999999999999</ele><time>2026-05-02T11:20:05.647Z</time></trkpt><trkpt lat="40.9024933" lon="9.1062467"><ele>556.4</ele><time>2026-05-02T11:20:06.647Z</time></trkpt><trkpt lat="40.9024417" lon="9.1061433"><ele>555.5999999999999</ele><time>2026-05-02T11:20:07.647Z</time></trkpt><trkpt lat="40.90239" lon="9.106065"><ele>554.8</ele><time>2026-05-02T11:20:08.647Z</time></trkpt><trkpt lat="40.902285" lon="9.1060033"><ele>554.0</ele><time>2026-05-02T11:20:10.647Z</time></trkpt><trkpt lat="40.9022083" lon="9.1059217"><ele>554.0</ele><time>2026-05-02T11:20:12.647Z</time></trkpt><trkpt lat="40.9021517" lon="9.1058083"><ele>554.0</ele><time>2026-05-02T11:20:14.647Z</time></trkpt><trkpt lat="40.90215" lon="9.1057"><ele>554.0</ele><time>2026-05-02T11:20:15.647Z</time></trkpt><trkpt lat="40.90215" lon="9.1055867"><ele>554.0</ele><time>2026-05-02T11:20:17.647Z</time></trkpt><trkpt lat="40.9021717" lon="9.1054667"><ele>554.0</ele><time>2026-05-02T11:20:22.647Z</time></trkpt><trkpt lat="40.9021833" lon="9.1053833"><ele>554.0</ele><time>2026-05-02T11:20:23.647Z</time></trkpt><trkpt lat="40.9021367" lon="9.1052917"><ele>555.2</ele><time>2026-05-02T11:20:24.647Z</time></trkpt><trkpt lat="40.9020717" lon="9.105215"><ele>556.4</ele><time>2026-05-02T11:20:25.647Z</time></trkpt><trkpt lat="40.9020133" lon="9.1051"><ele>557.6</ele><time>2026-05-02T11:20:27.647Z</time></trkpt><trkpt lat="40.9020233" lon="9.1049733"><ele>558.8</ele><time>2026-05-02T11:20:29.647Z</time></trkpt><trkpt lat="40.902035" lon="9.104825"><ele>560.0</ele><time>2026-05-02T11:20:31.647Z</time></trkpt><trkpt lat="40.9020033" lon="9.1046867"><ele>561.0</ele><time>2026-05-02T11:20:33.647Z</time></trkpt><trkpt lat="40.9019767" lon="9.1045767"><ele>562.0</ele><time>2026-05-02T11:20:35.647Z</time></trkpt><trkpt lat="40.9019817" lon="9.1044867"><ele>563.0</ele><time>2026-05-02T11:20:37.647Z</time></trkpt><trkpt lat="40.90204" lon="9.1043967"><ele>564.0</ele><time>2026-05-02T11:20:40.647Z</time></trkpt><trkpt lat="40.902135" lon="9.1043517"><ele>565.0</ele><time>2026-05-02T11:20:42.647Z</time></trkpt><trkpt lat="40.9022067" lon="9.104255"><ele>566.0</ele><time>2026-05-02T11:20:44.647Z</time></trkpt><trkpt lat="40.902265" lon="9.1042"><ele>566.0</ele><time>2026-05-02T11:20:46.647Z</time></trkpt><trkpt lat="40.90235" lon="9.1041783"><ele>566.0</ele><time>2026-05-02T11:20:50.647Z</time></trkpt><trkpt lat="40.9023667" lon="9.1040767"><ele>569.0</ele><time>2026-05-02T11:21:05.647Z</time></trkpt><trkpt lat="40.9022867" lon="9.1039517"><ele>569.0</ele><time>2026-05-02T11:21:39.647Z</time></trkpt><trkpt lat="40.9023083" lon="9.1038517"><ele>569.0</ele><time>2026-05-02T11:21:44.647Z</time></trkpt><trkpt lat="40.9023683" lon="9.1038167"><ele>569.0</ele><time>2026-05-02T11:21:52.647Z</time></trkpt></trkseg></trk></gpx>